<?xml version="1.0" encoding="UTF-8" standalone="no" ?>
<gpx xmlns="http://www.topografix.com/GPX/1/1" xmlns:xsi="http://www.w3.org/2001/XMLSchema-instance" xsi:schemaLocation="http://www.topografix.com/GPX/1/1 http://www.topografix.com/GPX/1/1/gpx.xsd" version="1.1" creator="VisuGPX - https://www.visugpx.com">
  <metadata>
    <name>Champagnat Cyclisme</name>
  </metadata>
  <trk>
    <name><![CDATA[Champagnat Cyclisme]]></name>
    <trkseg>
      <trkpt lat="46.4827" lon="5.36834">
        <ele>262</ele>
        <time>2021-03-10T13:17:16.000Z</time>
      </trkpt>
      <trkpt lat="46.48261" lon="5.36823">
        <ele>260.79998779297</ele>
        <time>2021-03-10T13:17:17.000Z</time>
      </trkpt>
      <trkpt lat="46.48252" lon="5.36813">
        <ele>259.60000610352</ele>
        <time>2021-03-10T13:17:18.000Z</time>
      </trkpt>
      <trkpt lat="46.48242" lon="5.36804">
        <ele>258.79998779297</ele>
        <time>2021-03-10T13:17:19.000Z</time>
      </trkpt>
      <trkpt lat="46.48233" lon="5.36796">
        <ele>258</ele>
        <time>2021-03-10T13:17:20.000Z</time>
      </trkpt>
      <trkpt lat="46.48213" lon="5.3678">
        <ele>256.39999389648</ele>
        <time>2021-03-10T13:17:22.000Z</time>
      </trkpt>
      <trkpt lat="46.48193" lon="5.36764">
        <ele>255</ele>
        <time>2021-03-10T13:17:24.000Z</time>
      </trkpt>
      <trkpt lat="46.48164" lon="5.36741">
        <ele>253.60000610352</ele>
        <time>2021-03-10T13:17:27.000Z</time>
      </trkpt>
      <trkpt lat="46.48145" lon="5.36725">
        <ele>252.19999694824</ele>
        <time>2021-03-10T13:17:29.000Z</time>
      </trkpt>
      <trkpt lat="46.48136" lon="5.36717">
        <ele>251.60000610352</ele>
        <time>2021-03-10T13:17:30.000Z</time>
      </trkpt>
      <trkpt lat="46.48119" lon="5.36706">
        <ele>250.60000610352</ele>
        <time>2021-03-10T13:17:32.000Z</time>
      </trkpt>
      <trkpt lat="46.48113" lon="5.367">
        <ele>249.80000305176</ele>
        <time>2021-03-10T13:17:33.000Z</time>
      </trkpt>
      <trkpt lat="46.4811" lon="5.36692">
        <ele>249.19999694824</ele>
        <time>2021-03-10T13:17:34.000Z</time>
      </trkpt>
      <trkpt lat="46.48109" lon="5.36684">
        <ele>248.39999389648</ele>
        <time>2021-03-10T13:17:35.000Z</time>
      </trkpt>
      <trkpt lat="46.48113" lon="5.36676">
        <ele>247.80000305176</ele>
        <time>2021-03-10T13:17:36.000Z</time>
      </trkpt>
      <trkpt lat="46.48118" lon="5.36669">
        <ele>247.60000610352</ele>
        <time>2021-03-10T13:17:37.000Z</time>
      </trkpt>
      <trkpt lat="46.48124" lon="5.36662">
        <ele>247.39999389648</ele>
        <time>2021-03-10T13:17:38.000Z</time>
      </trkpt>
      <trkpt lat="46.4813" lon="5.36656">
        <ele>247.19999694824</ele>
        <time>2021-03-10T13:17:39.000Z</time>
      </trkpt>
      <trkpt lat="46.48137" lon="5.36649">
        <ele>247</ele>
        <time>2021-03-10T13:17:40.000Z</time>
      </trkpt>
      <trkpt lat="46.48144" lon="5.36642">
        <ele>246.60000610352</ele>
        <time>2021-03-10T13:17:41.000Z</time>
      </trkpt>
      <trkpt lat="46.4815" lon="5.36634">
        <ele>246.60000610352</ele>
        <time>2021-03-10T13:17:42.000Z</time>
      </trkpt>
      <trkpt lat="46.48164" lon="5.36621">
        <ele>246.19999694824</ele>
        <time>2021-03-10T13:17:44.000Z</time>
      </trkpt>
      <trkpt lat="46.48172" lon="5.36614">
        <ele>246.19999694824</ele>
        <time>2021-03-10T13:17:45.000Z</time>
      </trkpt>
      <trkpt lat="46.4818" lon="5.36609">
        <ele>245.60000610352</ele>
        <time>2021-03-10T13:17:46.000Z</time>
      </trkpt>
      <trkpt lat="46.48188" lon="5.36606">
        <ele>245.19999694824</ele>
        <time>2021-03-10T13:17:47.000Z</time>
      </trkpt>
      <trkpt lat="46.48197" lon="5.36604">
        <ele>244.80000305176</ele>
        <time>2021-03-10T13:17:48.000Z</time>
      </trkpt>
      <trkpt lat="46.48211" lon="5.36596">
        <ele>244.19999694824</ele>
        <time>2021-03-10T13:17:50.000Z</time>
      </trkpt>
      <trkpt lat="46.48217" lon="5.36589">
        <ele>244</ele>
        <time>2021-03-10T13:17:51.000Z</time>
      </trkpt>
      <trkpt lat="46.48221" lon="5.36581">
        <ele>244</ele>
        <time>2021-03-10T13:17:52.000Z</time>
      </trkpt>
      <trkpt lat="46.48228" lon="5.36561">
        <ele>243.60000610352</ele>
        <time>2021-03-10T13:17:54.000Z</time>
      </trkpt>
      <trkpt lat="46.48239" lon="5.36546">
        <ele>243.39999389648</ele>
        <time>2021-03-10T13:17:56.000Z</time>
      </trkpt>
      <trkpt lat="46.48245" lon="5.3654">
        <ele>243.39999389648</ele>
        <time>2021-03-10T13:17:57.000Z</time>
      </trkpt>
      <trkpt lat="46.48251" lon="5.36533">
        <ele>243.19999694824</ele>
        <time>2021-03-10T13:17:58.000Z</time>
      </trkpt>
      <trkpt lat="46.48264" lon="5.3652">
        <ele>243.19999694824</ele>
        <time>2021-03-10T13:18:00.000Z</time>
      </trkpt>
      <trkpt lat="46.48276" lon="5.36506">
        <ele>243</ele>
        <time>2021-03-10T13:18:02.000Z</time>
      </trkpt>
      <trkpt lat="46.48289" lon="5.36492">
        <ele>243</ele>
        <time>2021-03-10T13:18:04.000Z</time>
      </trkpt>
      <trkpt lat="46.48302" lon="5.36478">
        <ele>242.60000610352</ele>
        <time>2021-03-10T13:18:06.000Z</time>
      </trkpt>
      <trkpt lat="46.48315" lon="5.36464">
        <ele>242.39999389648</ele>
        <time>2021-03-10T13:18:08.000Z</time>
      </trkpt>
      <trkpt lat="46.48322" lon="5.36456">
        <ele>242</ele>
        <time>2021-03-10T13:18:09.000Z</time>
      </trkpt>
      <trkpt lat="46.48328" lon="5.36448">
        <ele>241.80000305176</ele>
        <time>2021-03-10T13:18:10.000Z</time>
      </trkpt>
      <trkpt lat="46.48342" lon="5.36434">
        <ele>241.39999389648</ele>
        <time>2021-03-10T13:18:12.000Z</time>
      </trkpt>
      <trkpt lat="46.48356" lon="5.3642">
        <ele>240.60000610352</ele>
        <time>2021-03-10T13:18:14.000Z</time>
      </trkpt>
      <trkpt lat="46.48363" lon="5.36412">
        <ele>240.39999389648</ele>
        <time>2021-03-10T13:18:15.000Z</time>
      </trkpt>
      <trkpt lat="46.4837" lon="5.36405">
        <ele>240.19999694824</ele>
        <time>2021-03-10T13:18:16.000Z</time>
      </trkpt>
      <trkpt lat="46.48384" lon="5.36389">
        <ele>239.80000305176</ele>
        <time>2021-03-10T13:18:18.000Z</time>
      </trkpt>
      <trkpt lat="46.48392" lon="5.36382">
        <ele>239.60000610352</ele>
        <time>2021-03-10T13:18:19.000Z</time>
      </trkpt>
      <trkpt lat="46.48399" lon="5.36374">
        <ele>239.39999389648</ele>
        <time>2021-03-10T13:18:20.000Z</time>
      </trkpt>
      <trkpt lat="46.48415" lon="5.36361">
        <ele>239.39999389648</ele>
        <time>2021-03-10T13:18:22.000Z</time>
      </trkpt>
      <trkpt lat="46.48423" lon="5.36356">
        <ele>239.39999389648</ele>
        <time>2021-03-10T13:18:23.000Z</time>
      </trkpt>
      <trkpt lat="46.48431" lon="5.36353">
        <ele>239.39999389648</ele>
        <time>2021-03-10T13:18:24.000Z</time>
      </trkpt>
      <trkpt lat="46.48448" lon="5.36348">
        <ele>239.19999694824</ele>
        <time>2021-03-10T13:18:26.000Z</time>
      </trkpt>
      <trkpt lat="46.48465" lon="5.36345">
        <ele>239</ele>
        <time>2021-03-10T13:18:28.000Z</time>
      </trkpt>
      <trkpt lat="46.48481" lon="5.36343">
        <ele>238.39999389648</ele>
        <time>2021-03-10T13:18:30.000Z</time>
      </trkpt>
      <trkpt lat="46.48497" lon="5.3634">
        <ele>238</ele>
        <time>2021-03-10T13:18:32.000Z</time>
      </trkpt>
      <trkpt lat="46.48513" lon="5.36338">
        <ele>237.80000305176</ele>
        <time>2021-03-10T13:18:34.000Z</time>
      </trkpt>
      <trkpt lat="46.48528" lon="5.36335">
        <ele>237.60000610352</ele>
        <time>2021-03-10T13:18:36.000Z</time>
      </trkpt>
      <trkpt lat="46.48543" lon="5.36333">
        <ele>237.60000610352</ele>
        <time>2021-03-10T13:18:38.000Z</time>
      </trkpt>
      <trkpt lat="46.48559" lon="5.3633">
        <ele>237.39999389648</ele>
        <time>2021-03-10T13:18:40.000Z</time>
      </trkpt>
      <trkpt lat="46.48566" lon="5.36329">
        <ele>237.39999389648</ele>
        <time>2021-03-10T13:18:41.000Z</time>
      </trkpt>
      <trkpt lat="46.48574" lon="5.36328">
        <ele>237.39999389648</ele>
        <time>2021-03-10T13:18:42.000Z</time>
      </trkpt>
      <trkpt lat="46.4859" lon="5.36325">
        <ele>237.19999694824</ele>
        <time>2021-03-10T13:18:44.000Z</time>
      </trkpt>
      <trkpt lat="46.48598" lon="5.36324">
        <ele>237</ele>
        <time>2021-03-10T13:18:45.000Z</time>
      </trkpt>
      <trkpt lat="46.48606" lon="5.36323">
        <ele>237</ele>
        <time>2021-03-10T13:18:46.000Z</time>
      </trkpt>
      <trkpt lat="46.48614" lon="5.3632">
        <ele>237</ele>
        <time>2021-03-10T13:18:47.000Z</time>
      </trkpt>
      <trkpt lat="46.48622" lon="5.36315">
        <ele>236.80000305176</ele>
        <time>2021-03-10T13:18:48.000Z</time>
      </trkpt>
      <trkpt lat="46.48628" lon="5.36306">
        <ele>236.60000610352</ele>
        <time>2021-03-10T13:18:49.000Z</time>
      </trkpt>
      <trkpt lat="46.48633" lon="5.36295">
        <ele>236.19999694824</ele>
        <time>2021-03-10T13:18:50.000Z</time>
      </trkpt>
      <trkpt lat="46.48639" lon="5.3627">
        <ele>235.39999389648</ele>
        <time>2021-03-10T13:18:52.000Z</time>
      </trkpt>
      <trkpt lat="46.48641" lon="5.36258">
        <ele>235</ele>
        <time>2021-03-10T13:18:53.000Z</time>
      </trkpt>
      <trkpt lat="46.48642" lon="5.36245">
        <ele>234.60000610352</ele>
        <time>2021-03-10T13:18:54.000Z</time>
      </trkpt>
      <trkpt lat="46.48645" lon="5.36219">
        <ele>233.60000610352</ele>
        <time>2021-03-10T13:18:56.000Z</time>
      </trkpt>
      <trkpt lat="46.48647" lon="5.36194">
        <ele>232.39999389648</ele>
        <time>2021-03-10T13:18:58.000Z</time>
      </trkpt>
      <trkpt lat="46.48647" lon="5.36181">
        <ele>231.60000610352</ele>
        <time>2021-03-10T13:18:59.000Z</time>
      </trkpt>
      <trkpt lat="46.48648" lon="5.36169">
        <ele>230.80000305176</ele>
        <time>2021-03-10T13:19:00.000Z</time>
      </trkpt>
      <trkpt lat="46.48651" lon="5.36144">
        <ele>230</ele>
        <time>2021-03-10T13:19:02.000Z</time>
      </trkpt>
      <trkpt lat="46.48652" lon="5.36132">
        <ele>229.80000305176</ele>
        <time>2021-03-10T13:19:03.000Z</time>
      </trkpt>
      <trkpt lat="46.48655" lon="5.3612">
        <ele>229.39999389648</ele>
        <time>2021-03-10T13:19:04.000Z</time>
      </trkpt>
      <trkpt lat="46.48657" lon="5.36109">
        <ele>229.39999389648</ele>
        <time>2021-03-10T13:19:05.000Z</time>
      </trkpt>
      <trkpt lat="46.4866" lon="5.36097">
        <ele>229.19999694824</ele>
        <time>2021-03-10T13:19:06.000Z</time>
      </trkpt>
      <trkpt lat="46.48664" lon="5.36075">
        <ele>229.19999694824</ele>
        <time>2021-03-10T13:19:08.000Z</time>
      </trkpt>
      <trkpt lat="46.48669" lon="5.36055">
        <ele>229.19999694824</ele>
        <time>2021-03-10T13:19:10.000Z</time>
      </trkpt>
      <trkpt lat="46.48673" lon="5.36035">
        <ele>229.19999694824</ele>
        <time>2021-03-10T13:19:12.000Z</time>
      </trkpt>
      <trkpt lat="46.48676" lon="5.36015">
        <ele>229.39999389648</ele>
        <time>2021-03-10T13:19:14.000Z</time>
      </trkpt>
      <trkpt lat="46.48679" lon="5.35997">
        <ele>229.80000305176</ele>
        <time>2021-03-10T13:19:16.000Z</time>
      </trkpt>
      <trkpt lat="46.48681" lon="5.35979">
        <ele>230.39999389648</ele>
        <time>2021-03-10T13:19:18.000Z</time>
      </trkpt>
      <trkpt lat="46.48684" lon="5.3596">
        <ele>230.80000305176</ele>
        <time>2021-03-10T13:19:20.000Z</time>
      </trkpt>
      <trkpt lat="46.48686" lon="5.35941">
        <ele>231.39999389648</ele>
        <time>2021-03-10T13:19:22.000Z</time>
      </trkpt>
      <trkpt lat="46.4869" lon="5.35921">
        <ele>232</ele>
        <time>2021-03-10T13:19:24.000Z</time>
      </trkpt>
      <trkpt lat="46.48692" lon="5.35911">
        <ele>232</ele>
        <time>2021-03-10T13:19:25.000Z</time>
      </trkpt>
      <trkpt lat="46.48695" lon="5.35902">
        <ele>232</ele>
        <time>2021-03-10T13:19:26.000Z</time>
      </trkpt>
      <trkpt lat="46.48702" lon="5.35882">
        <ele>232.19999694824</ele>
        <time>2021-03-10T13:19:28.000Z</time>
      </trkpt>
      <trkpt lat="46.48706" lon="5.35872">
        <ele>232.19999694824</ele>
        <time>2021-03-10T13:19:29.000Z</time>
      </trkpt>
      <trkpt lat="46.4871" lon="5.35863">
        <ele>232.19999694824</ele>
        <time>2021-03-10T13:19:30.000Z</time>
      </trkpt>
      <trkpt lat="46.48718" lon="5.35843">
        <ele>232.19999694824</ele>
        <time>2021-03-10T13:19:32.000Z</time>
      </trkpt>
      <trkpt lat="46.48727" lon="5.35824">
        <ele>232</ele>
        <time>2021-03-10T13:19:34.000Z</time>
      </trkpt>
      <trkpt lat="46.48735" lon="5.35805">
        <ele>231</ele>
        <time>2021-03-10T13:19:36.000Z</time>
      </trkpt>
      <trkpt lat="46.4874" lon="5.35796">
        <ele>230.80000305176</ele>
        <time>2021-03-10T13:19:37.000Z</time>
      </trkpt>
      <trkpt lat="46.48744" lon="5.35787">
        <ele>230.60000610352</ele>
        <time>2021-03-10T13:19:38.000Z</time>
      </trkpt>
      <trkpt lat="46.48752" lon="5.35768">
        <ele>230</ele>
        <time>2021-03-10T13:19:40.000Z</time>
      </trkpt>
      <trkpt lat="46.48756" lon="5.35759">
        <ele>229.80000305176</ele>
        <time>2021-03-10T13:19:41.000Z</time>
      </trkpt>
      <trkpt lat="46.4876" lon="5.35749">
        <ele>229.39999389648</ele>
        <time>2021-03-10T13:19:42.000Z</time>
      </trkpt>
      <trkpt lat="46.48768" lon="5.35732">
        <ele>229</ele>
        <time>2021-03-10T13:19:44.000Z</time>
      </trkpt>
      <trkpt lat="46.48776" lon="5.35714">
        <ele>228.80000305176</ele>
        <time>2021-03-10T13:19:46.000Z</time>
      </trkpt>
      <trkpt lat="46.48784" lon="5.35696">
        <ele>228.60000610352</ele>
        <time>2021-03-10T13:19:48.000Z</time>
      </trkpt>
      <trkpt lat="46.48791" lon="5.35679">
        <ele>228.60000610352</ele>
        <time>2021-03-10T13:19:50.000Z</time>
      </trkpt>
      <trkpt lat="46.48799" lon="5.35663">
        <ele>228.60000610352</ele>
        <time>2021-03-10T13:19:52.000Z</time>
      </trkpt>
      <trkpt lat="46.48806" lon="5.35646">
        <ele>228.39999389648</ele>
        <time>2021-03-10T13:19:54.000Z</time>
      </trkpt>
      <trkpt lat="46.48813" lon="5.35629">
        <ele>228.60000610352</ele>
        <time>2021-03-10T13:19:56.000Z</time>
      </trkpt>
      <trkpt lat="46.48821" lon="5.35612">
        <ele>228.60000610352</ele>
        <time>2021-03-10T13:19:58.000Z</time>
      </trkpt>
      <trkpt lat="46.48828" lon="5.35596">
        <ele>228.80000305176</ele>
        <time>2021-03-10T13:20:00.000Z</time>
      </trkpt>
      <trkpt lat="46.48835" lon="5.3558">
        <ele>228.80000305176</ele>
        <time>2021-03-10T13:20:02.000Z</time>
      </trkpt>
      <trkpt lat="46.48842" lon="5.35564">
        <ele>229</ele>
        <time>2021-03-10T13:20:04.000Z</time>
      </trkpt>
      <trkpt lat="46.48849" lon="5.35548">
        <ele>229</ele>
        <time>2021-03-10T13:20:06.000Z</time>
      </trkpt>
      <trkpt lat="46.48856" lon="5.35531">
        <ele>229.19999694824</ele>
        <time>2021-03-10T13:20:08.000Z</time>
      </trkpt>
      <trkpt lat="46.4886" lon="5.35523">
        <ele>229.19999694824</ele>
        <time>2021-03-10T13:20:09.000Z</time>
      </trkpt>
      <trkpt lat="46.48864" lon="5.35515">
        <ele>229.19999694824</ele>
        <time>2021-03-10T13:20:10.000Z</time>
      </trkpt>
      <trkpt lat="46.48871" lon="5.35497">
        <ele>229</ele>
        <time>2021-03-10T13:20:12.000Z</time>
      </trkpt>
      <trkpt lat="46.48879" lon="5.35479">
        <ele>229</ele>
        <time>2021-03-10T13:20:14.000Z</time>
      </trkpt>
      <trkpt lat="46.48887" lon="5.35461">
        <ele>229.19999694824</ele>
        <time>2021-03-10T13:20:16.000Z</time>
      </trkpt>
      <trkpt lat="46.48894" lon="5.35443">
        <ele>229.19999694824</ele>
        <time>2021-03-10T13:20:18.000Z</time>
      </trkpt>
      <trkpt lat="46.48902" lon="5.35425">
        <ele>229</ele>
        <time>2021-03-10T13:20:20.000Z</time>
      </trkpt>
      <trkpt lat="46.4891" lon="5.35406">
        <ele>229</ele>
        <time>2021-03-10T13:20:22.000Z</time>
      </trkpt>
      <trkpt lat="46.48918" lon="5.35388">
        <ele>228.80000305176</ele>
        <time>2021-03-10T13:20:24.000Z</time>
      </trkpt>
      <trkpt lat="46.48926" lon="5.35369">
        <ele>228.60000610352</ele>
        <time>2021-03-10T13:20:26.000Z</time>
      </trkpt>
      <trkpt lat="46.48934" lon="5.35351">
        <ele>228.60000610352</ele>
        <time>2021-03-10T13:20:28.000Z</time>
      </trkpt>
      <trkpt lat="46.48941" lon="5.35332">
        <ele>228.19999694824</ele>
        <time>2021-03-10T13:20:30.000Z</time>
      </trkpt>
      <trkpt lat="46.48949" lon="5.35315">
        <ele>227.80000305176</ele>
        <time>2021-03-10T13:20:32.000Z</time>
      </trkpt>
      <trkpt lat="46.48953" lon="5.35307">
        <ele>227.80000305176</ele>
        <time>2021-03-10T13:20:33.000Z</time>
      </trkpt>
      <trkpt lat="46.48957" lon="5.35298">
        <ele>227.60000610352</ele>
        <time>2021-03-10T13:20:34.000Z</time>
      </trkpt>
      <trkpt lat="46.48964" lon="5.35282">
        <ele>227.60000610352</ele>
        <time>2021-03-10T13:20:36.000Z</time>
      </trkpt>
      <trkpt lat="46.48971" lon="5.35266">
        <ele>227.60000610352</ele>
        <time>2021-03-10T13:20:38.000Z</time>
      </trkpt>
      <trkpt lat="46.48978" lon="5.3525">
        <ele>227.60000610352</ele>
        <time>2021-03-10T13:20:40.000Z</time>
      </trkpt>
      <trkpt lat="46.48985" lon="5.35233">
        <ele>227.80000305176</ele>
        <time>2021-03-10T13:20:42.000Z</time>
      </trkpt>
      <trkpt lat="46.48992" lon="5.35217">
        <ele>228</ele>
        <time>2021-03-10T13:20:44.000Z</time>
      </trkpt>
      <trkpt lat="46.48999" lon="5.35202">
        <ele>228.39999389648</ele>
        <time>2021-03-10T13:20:46.000Z</time>
      </trkpt>
      <trkpt lat="46.49005" lon="5.35188">
        <ele>228.60000610352</ele>
        <time>2021-03-10T13:20:48.000Z</time>
      </trkpt>
      <trkpt lat="46.49011" lon="5.35173">
        <ele>228.80000305176</ele>
        <time>2021-03-10T13:20:50.000Z</time>
      </trkpt>
      <trkpt lat="46.49018" lon="5.35159">
        <ele>229</ele>
        <time>2021-03-10T13:20:52.000Z</time>
      </trkpt>
      <trkpt lat="46.49025" lon="5.35144">
        <ele>229.39999389648</ele>
        <time>2021-03-10T13:20:54.000Z</time>
      </trkpt>
      <trkpt lat="46.49028" lon="5.35136">
        <ele>229.60000610352</ele>
        <time>2021-03-10T13:20:55.000Z</time>
      </trkpt>
      <trkpt lat="46.49032" lon="5.35127">
        <ele>229.60000610352</ele>
        <time>2021-03-10T13:20:56.000Z</time>
      </trkpt>
      <trkpt lat="46.49035" lon="5.35119">
        <ele>229.80000305176</ele>
        <time>2021-03-10T13:20:57.000Z</time>
      </trkpt>
      <trkpt lat="46.49038" lon="5.35109">
        <ele>230</ele>
        <time>2021-03-10T13:20:58.000Z</time>
      </trkpt>
      <trkpt lat="46.49042" lon="5.3509">
        <ele>230.19999694824</ele>
        <time>2021-03-10T13:21:00.000Z</time>
      </trkpt>
      <trkpt lat="46.49044" lon="5.35081">
        <ele>230.39999389648</ele>
        <time>2021-03-10T13:21:01.000Z</time>
      </trkpt>
      <trkpt lat="46.49047" lon="5.35071">
        <ele>230.60000610352</ele>
        <time>2021-03-10T13:21:02.000Z</time>
      </trkpt>
      <trkpt lat="46.49049" lon="5.35061">
        <ele>230.60000610352</ele>
        <time>2021-03-10T13:21:03.000Z</time>
      </trkpt>
      <trkpt lat="46.49051" lon="5.3505">
        <ele>230.60000610352</ele>
        <time>2021-03-10T13:21:04.000Z</time>
      </trkpt>
      <trkpt lat="46.49055" lon="5.35029">
        <ele>230.60000610352</ele>
        <time>2021-03-10T13:21:06.000Z</time>
      </trkpt>
      <trkpt lat="46.49059" lon="5.35007">
        <ele>230.60000610352</ele>
        <time>2021-03-10T13:21:08.000Z</time>
      </trkpt>
      <trkpt lat="46.49063" lon="5.34984">
        <ele>230.60000610352</ele>
        <time>2021-03-10T13:21:10.000Z</time>
      </trkpt>
      <trkpt lat="46.49065" lon="5.34973">
        <ele>230.39999389648</ele>
        <time>2021-03-10T13:21:11.000Z</time>
      </trkpt>
      <trkpt lat="46.49068" lon="5.34961">
        <ele>230.19999694824</ele>
        <time>2021-03-10T13:21:12.000Z</time>
      </trkpt>
      <trkpt lat="46.49072" lon="5.34937">
        <ele>230</ele>
        <time>2021-03-10T13:21:14.000Z</time>
      </trkpt>
      <trkpt lat="46.49077" lon="5.34913">
        <ele>229.39999389648</ele>
        <time>2021-03-10T13:21:16.000Z</time>
      </trkpt>
      <trkpt lat="46.49079" lon="5.34901">
        <ele>229</ele>
        <time>2021-03-10T13:21:17.000Z</time>
      </trkpt>
      <trkpt lat="46.49082" lon="5.34889">
        <ele>228.60000610352</ele>
        <time>2021-03-10T13:21:18.000Z</time>
      </trkpt>
      <trkpt lat="46.49086" lon="5.34865">
        <ele>228</ele>
        <time>2021-03-10T13:21:20.000Z</time>
      </trkpt>
      <trkpt lat="46.49088" lon="5.34853">
        <ele>227.80000305176</ele>
        <time>2021-03-10T13:21:21.000Z</time>
      </trkpt>
      <trkpt lat="46.4909" lon="5.3484">
        <ele>227.80000305176</ele>
        <time>2021-03-10T13:21:22.000Z</time>
      </trkpt>
      <trkpt lat="46.49094" lon="5.34816">
        <ele>227.19999694824</ele>
        <time>2021-03-10T13:21:24.000Z</time>
      </trkpt>
      <trkpt lat="46.49099" lon="5.34792">
        <ele>226.39999389648</ele>
        <time>2021-03-10T13:21:26.000Z</time>
      </trkpt>
      <trkpt lat="46.49104" lon="5.34767">
        <ele>226</ele>
        <time>2021-03-10T13:21:28.000Z</time>
      </trkpt>
      <trkpt lat="46.49109" lon="5.34743">
        <ele>225.39999389648</ele>
        <time>2021-03-10T13:21:30.000Z</time>
      </trkpt>
      <trkpt lat="46.49112" lon="5.3473">
        <ele>225</ele>
        <time>2021-03-10T13:21:31.000Z</time>
      </trkpt>
      <trkpt lat="46.49114" lon="5.34718">
        <ele>224.80000305176</ele>
        <time>2021-03-10T13:21:32.000Z</time>
      </trkpt>
      <trkpt lat="46.49119" lon="5.34693">
        <ele>224.39999389648</ele>
        <time>2021-03-10T13:21:34.000Z</time>
      </trkpt>
      <trkpt lat="46.49124" lon="5.34669">
        <ele>224.19999694824</ele>
        <time>2021-03-10T13:21:36.000Z</time>
      </trkpt>
      <trkpt lat="46.49126" lon="5.34658">
        <ele>224</ele>
        <time>2021-03-10T13:21:37.000Z</time>
      </trkpt>
      <trkpt lat="46.49129" lon="5.34646">
        <ele>223.80000305176</ele>
        <time>2021-03-10T13:21:38.000Z</time>
      </trkpt>
      <trkpt lat="46.49131" lon="5.34636">
        <ele>223.39999389648</ele>
        <time>2021-03-10T13:21:39.000Z</time>
      </trkpt>
      <trkpt lat="46.49133" lon="5.34625">
        <ele>223.39999389648</ele>
        <time>2021-03-10T13:21:40.000Z</time>
      </trkpt>
      <trkpt lat="46.49137" lon="5.34606">
        <ele>223.19999694824</ele>
        <time>2021-03-10T13:21:42.000Z</time>
      </trkpt>
      <trkpt lat="46.4914" lon="5.34587">
        <ele>223.19999694824</ele>
        <time>2021-03-10T13:21:44.000Z</time>
      </trkpt>
      <trkpt lat="46.49143" lon="5.34568">
        <ele>223.19999694824</ele>
        <time>2021-03-10T13:21:46.000Z</time>
      </trkpt>
      <trkpt lat="46.49147" lon="5.34548">
        <ele>223.19999694824</ele>
        <time>2021-03-10T13:21:48.000Z</time>
      </trkpt>
      <trkpt lat="46.49152" lon="5.34527">
        <ele>223.39999389648</ele>
        <time>2021-03-10T13:21:50.000Z</time>
      </trkpt>
      <trkpt lat="46.49154" lon="5.34516">
        <ele>223.39999389648</ele>
        <time>2021-03-10T13:21:51.000Z</time>
      </trkpt>
      <trkpt lat="46.49156" lon="5.34504">
        <ele>223.60000610352</ele>
        <time>2021-03-10T13:21:52.000Z</time>
      </trkpt>
      <trkpt lat="46.4916" lon="5.34482">
        <ele>223.80000305176</ele>
        <time>2021-03-10T13:21:54.000Z</time>
      </trkpt>
      <trkpt lat="46.49165" lon="5.3446">
        <ele>223.80000305176</ele>
        <time>2021-03-10T13:21:56.000Z</time>
      </trkpt>
      <trkpt lat="46.49169" lon="5.34439">
        <ele>223.80000305176</ele>
        <time>2021-03-10T13:21:58.000Z</time>
      </trkpt>
      <trkpt lat="46.49173" lon="5.34419">
        <ele>223.80000305176</ele>
        <time>2021-03-10T13:22:00.000Z</time>
      </trkpt>
      <trkpt lat="46.49174" lon="5.34409">
        <ele>223.80000305176</ele>
        <time>2021-03-10T13:22:01.000Z</time>
      </trkpt>
      <trkpt lat="46.49176" lon="5.34399">
        <ele>223.80000305176</ele>
        <time>2021-03-10T13:22:02.000Z</time>
      </trkpt>
      <trkpt lat="46.4918" lon="5.34381">
        <ele>223.60000610352</ele>
        <time>2021-03-10T13:22:04.000Z</time>
      </trkpt>
      <trkpt lat="46.49183" lon="5.34365">
        <ele>223.60000610352</ele>
        <time>2021-03-10T13:22:06.000Z</time>
      </trkpt>
      <trkpt lat="46.49184" lon="5.34357">
        <ele>223.60000610352</ele>
        <time>2021-03-10T13:22:07.000Z</time>
      </trkpt>
      <trkpt lat="46.49185" lon="5.34349">
        <ele>223.60000610352</ele>
        <time>2021-03-10T13:22:08.000Z</time>
      </trkpt>
      <trkpt lat="46.49188" lon="5.34333">
        <ele>223.80000305176</ele>
        <time>2021-03-10T13:22:10.000Z</time>
      </trkpt>
      <trkpt lat="46.49192" lon="5.34315">
        <ele>224.19999694824</ele>
        <time>2021-03-10T13:22:12.000Z</time>
      </trkpt>
      <trkpt lat="46.49196" lon="5.34296">
        <ele>224.39999389648</ele>
        <time>2021-03-10T13:22:14.000Z</time>
      </trkpt>
      <trkpt lat="46.492" lon="5.34277">
        <ele>224.39999389648</ele>
        <time>2021-03-10T13:22:16.000Z</time>
      </trkpt>
      <trkpt lat="46.49204" lon="5.34256">
        <ele>224.39999389648</ele>
        <time>2021-03-10T13:22:18.000Z</time>
      </trkpt>
      <trkpt lat="46.49206" lon="5.34246">
        <ele>224.39999389648</ele>
        <time>2021-03-10T13:22:20.000Z</time>
      </trkpt>
      <trkpt lat="46.49212" lon="5.34214">
        <ele>224.39999389648</ele>
        <time>2021-03-10T13:22:22.000Z</time>
      </trkpt>
      <trkpt lat="46.49215" lon="5.34193">
        <ele>224.39999389648</ele>
        <time>2021-03-10T13:22:24.000Z</time>
      </trkpt>
      <trkpt lat="46.49217" lon="5.34183">
        <ele>224.19999694824</ele>
        <time>2021-03-10T13:22:26.000Z</time>
      </trkpt>
      <trkpt lat="46.49223" lon="5.34153">
        <ele>224.19999694824</ele>
        <time>2021-03-10T13:22:28.000Z</time>
      </trkpt>
      <trkpt lat="46.49226" lon="5.34134">
        <ele>224.19999694824</ele>
        <time>2021-03-10T13:22:30.000Z</time>
      </trkpt>
      <trkpt lat="46.4923" lon="5.34117">
        <ele>224.19999694824</ele>
        <time>2021-03-10T13:22:32.000Z</time>
      </trkpt>
      <trkpt lat="46.49233" lon="5.34102">
        <ele>224.19999694824</ele>
        <time>2021-03-10T13:22:34.000Z</time>
      </trkpt>
      <trkpt lat="46.49235" lon="5.34087">
        <ele>224.19999694824</ele>
        <time>2021-03-10T13:22:36.000Z</time>
      </trkpt>
      <trkpt lat="46.49237" lon="5.34073">
        <ele>224.19999694824</ele>
        <time>2021-03-10T13:22:38.000Z</time>
      </trkpt>
      <trkpt lat="46.4924" lon="5.34059">
        <ele>224.60000610352</ele>
        <time>2021-03-10T13:22:40.000Z</time>
      </trkpt>
      <trkpt lat="46.49241" lon="5.34052">
        <ele>225</ele>
        <time>2021-03-10T13:22:41.000Z</time>
      </trkpt>
      <trkpt lat="46.49242" lon="5.34044">
        <ele>225.19999694824</ele>
        <time>2021-03-10T13:22:42.000Z</time>
      </trkpt>
      <trkpt lat="46.49245" lon="5.34028">
        <ele>226</ele>
        <time>2021-03-10T13:22:44.000Z</time>
      </trkpt>
      <trkpt lat="46.49247" lon="5.34019">
        <ele>226.39999389648</ele>
        <time>2021-03-10T13:22:45.000Z</time>
      </trkpt>
      <trkpt lat="46.49249" lon="5.34011">
        <ele>226.60000610352</ele>
        <time>2021-03-10T13:22:46.000Z</time>
      </trkpt>
      <trkpt lat="46.49252" lon="5.33994">
        <ele>227.19999694824</ele>
        <time>2021-03-10T13:22:48.000Z</time>
      </trkpt>
      <trkpt lat="46.49255" lon="5.33977">
        <ele>227.39999389648</ele>
        <time>2021-03-10T13:22:50.000Z</time>
      </trkpt>
      <trkpt lat="46.49257" lon="5.33969">
        <ele>227.39999389648</ele>
        <time>2021-03-10T13:22:51.000Z</time>
      </trkpt>
      <trkpt lat="46.49259" lon="5.3396">
        <ele>227.39999389648</ele>
        <time>2021-03-10T13:22:52.000Z</time>
      </trkpt>
      <trkpt lat="46.49262" lon="5.33944">
        <ele>227.39999389648</ele>
        <time>2021-03-10T13:22:54.000Z</time>
      </trkpt>
      <trkpt lat="46.49264" lon="5.33935">
        <ele>227.39999389648</ele>
        <time>2021-03-10T13:22:55.000Z</time>
      </trkpt>
      <trkpt lat="46.49267" lon="5.33918">
        <ele>227.39999389648</ele>
        <time>2021-03-10T13:22:57.000Z</time>
      </trkpt>
      <trkpt lat="46.4927" lon="5.33902">
        <ele>227.39999389648</ele>
        <time>2021-03-10T13:22:59.000Z</time>
      </trkpt>
      <trkpt lat="46.49274" lon="5.33885">
        <ele>227.19999694824</ele>
        <time>2021-03-10T13:23:01.000Z</time>
      </trkpt>
      <trkpt lat="46.49277" lon="5.3387">
        <ele>227.19999694824</ele>
        <time>2021-03-10T13:23:03.000Z</time>
      </trkpt>
      <trkpt lat="46.4928" lon="5.33853">
        <ele>227.19999694824</ele>
        <time>2021-03-10T13:23:05.000Z</time>
      </trkpt>
      <trkpt lat="46.49284" lon="5.33836">
        <ele>227.19999694824</ele>
        <time>2021-03-10T13:23:07.000Z</time>
      </trkpt>
      <trkpt lat="46.49287" lon="5.33818">
        <ele>227</ele>
        <time>2021-03-10T13:23:09.000Z</time>
      </trkpt>
      <trkpt lat="46.49291" lon="5.33801">
        <ele>227.19999694824</ele>
        <time>2021-03-10T13:23:11.000Z</time>
      </trkpt>
      <trkpt lat="46.49294" lon="5.33782">
        <ele>227.19999694824</ele>
        <time>2021-03-10T13:23:13.000Z</time>
      </trkpt>
      <trkpt lat="46.49298" lon="5.33763">
        <ele>227.19999694824</ele>
        <time>2021-03-10T13:23:15.000Z</time>
      </trkpt>
      <trkpt lat="46.49301" lon="5.33743">
        <ele>226.80000305176</ele>
        <time>2021-03-10T13:23:17.000Z</time>
      </trkpt>
      <trkpt lat="46.49303" lon="5.33723">
        <ele>226.80000305176</ele>
        <time>2021-03-10T13:23:19.000Z</time>
      </trkpt>
      <trkpt lat="46.49304" lon="5.33712">
        <ele>226.80000305176</ele>
        <time>2021-03-10T13:23:20.000Z</time>
      </trkpt>
      <trkpt lat="46.49304" lon="5.33702">
        <ele>226.80000305176</ele>
        <time>2021-03-10T13:23:21.000Z</time>
      </trkpt>
      <trkpt lat="46.49305" lon="5.33682">
        <ele>226.60000610352</ele>
        <time>2021-03-10T13:23:23.000Z</time>
      </trkpt>
      <trkpt lat="46.49306" lon="5.33661">
        <ele>226.60000610352</ele>
        <time>2021-03-10T13:23:25.000Z</time>
      </trkpt>
      <trkpt lat="46.49307" lon="5.33639">
        <ele>226.39999389648</ele>
        <time>2021-03-10T13:23:27.000Z</time>
      </trkpt>
      <trkpt lat="46.49309" lon="5.33619">
        <ele>226.19999694824</ele>
        <time>2021-03-10T13:23:29.000Z</time>
      </trkpt>
      <trkpt lat="46.49311" lon="5.33609">
        <ele>226</ele>
        <time>2021-03-10T13:23:30.000Z</time>
      </trkpt>
      <trkpt lat="46.49313" lon="5.33598">
        <ele>225.80000305176</ele>
        <time>2021-03-10T13:23:31.000Z</time>
      </trkpt>
      <trkpt lat="46.49317" lon="5.33579">
        <ele>225.60000610352</ele>
        <time>2021-03-10T13:23:33.000Z</time>
      </trkpt>
      <trkpt lat="46.49321" lon="5.33558">
        <ele>225.19999694824</ele>
        <time>2021-03-10T13:23:35.000Z</time>
      </trkpt>
      <trkpt lat="46.49321" lon="5.33547">
        <ele>225</ele>
        <time>2021-03-10T13:23:36.000Z</time>
      </trkpt>
      <trkpt lat="46.49321" lon="5.33537">
        <ele>224.80000305176</ele>
        <time>2021-03-10T13:23:37.000Z</time>
      </trkpt>
      <trkpt lat="46.49319" lon="5.33517">
        <ele>224.80000305176</ele>
        <time>2021-03-10T13:23:39.000Z</time>
      </trkpt>
      <trkpt lat="46.49317" lon="5.33497">
        <ele>224.80000305176</ele>
        <time>2021-03-10T13:23:41.000Z</time>
      </trkpt>
      <trkpt lat="46.49314" lon="5.33477">
        <ele>224.80000305176</ele>
        <time>2021-03-10T13:23:43.000Z</time>
      </trkpt>
      <trkpt lat="46.49311" lon="5.33457">
        <ele>224.80000305176</ele>
        <time>2021-03-10T13:23:45.000Z</time>
      </trkpt>
      <trkpt lat="46.49308" lon="5.33438">
        <ele>224.80000305176</ele>
        <time>2021-03-10T13:23:47.000Z</time>
      </trkpt>
      <trkpt lat="46.49304" lon="5.33418">
        <ele>225</ele>
        <time>2021-03-10T13:23:49.000Z</time>
      </trkpt>
      <trkpt lat="46.49299" lon="5.33398">
        <ele>225</ele>
        <time>2021-03-10T13:23:51.000Z</time>
      </trkpt>
      <trkpt lat="46.49295" lon="5.33378">
        <ele>225</ele>
        <time>2021-03-10T13:23:53.000Z</time>
      </trkpt>
      <trkpt lat="46.49291" lon="5.33357">
        <ele>225</ele>
        <time>2021-03-10T13:23:55.000Z</time>
      </trkpt>
      <trkpt lat="46.49289" lon="5.33347">
        <ele>224.80000305176</ele>
        <time>2021-03-10T13:23:56.000Z</time>
      </trkpt>
      <trkpt lat="46.49287" lon="5.33337">
        <ele>224.80000305176</ele>
        <time>2021-03-10T13:23:57.000Z</time>
      </trkpt>
      <trkpt lat="46.49285" lon="5.33327">
        <ele>224.80000305176</ele>
        <time>2021-03-10T13:23:58.000Z</time>
      </trkpt>
      <trkpt lat="46.49284" lon="5.33317">
        <ele>224.80000305176</ele>
        <time>2021-03-10T13:23:59.000Z</time>
      </trkpt>
      <trkpt lat="46.4928" lon="5.33296">
        <ele>224.19999694824</ele>
        <time>2021-03-10T13:24:01.000Z</time>
      </trkpt>
      <trkpt lat="46.49278" lon="5.33286">
        <ele>223.80000305176</ele>
        <time>2021-03-10T13:24:02.000Z</time>
      </trkpt>
      <trkpt lat="46.49277" lon="5.33276">
        <ele>223.39999389648</ele>
        <time>2021-03-10T13:24:03.000Z</time>
      </trkpt>
      <trkpt lat="46.49273" lon="5.33257">
        <ele>223.19999694824</ele>
        <time>2021-03-10T13:24:05.000Z</time>
      </trkpt>
      <trkpt lat="46.49267" lon="5.33237">
        <ele>223</ele>
        <time>2021-03-10T13:24:07.000Z</time>
      </trkpt>
      <trkpt lat="46.4926" lon="5.33218">
        <ele>222.80000305176</ele>
        <time>2021-03-10T13:24:09.000Z</time>
      </trkpt>
      <trkpt lat="46.49256" lon="5.33209">
        <ele>222.80000305176</ele>
        <time>2021-03-10T13:24:10.000Z</time>
      </trkpt>
      <trkpt lat="46.49251" lon="5.33201">
        <ele>222.80000305176</ele>
        <time>2021-03-10T13:24:11.000Z</time>
      </trkpt>
      <trkpt lat="46.49245" lon="5.33193">
        <ele>222.80000305176</ele>
        <time>2021-03-10T13:24:12.000Z</time>
      </trkpt>
      <trkpt lat="46.49239" lon="5.33186">
        <ele>222.80000305176</ele>
        <time>2021-03-10T13:24:13.000Z</time>
      </trkpt>
      <trkpt lat="46.49233" lon="5.33181">
        <ele>222.60000610352</ele>
        <time>2021-03-10T13:24:14.000Z</time>
      </trkpt>
      <trkpt lat="46.49226" lon="5.33176">
        <ele>222.60000610352</ele>
        <time>2021-03-10T13:24:15.000Z</time>
      </trkpt>
      <trkpt lat="46.49212" lon="5.33165">
        <ele>222.19999694824</ele>
        <time>2021-03-10T13:24:17.000Z</time>
      </trkpt>
      <trkpt lat="46.49199" lon="5.33154">
        <ele>221.80000305176</ele>
        <time>2021-03-10T13:24:19.000Z</time>
      </trkpt>
      <trkpt lat="46.49192" lon="5.33148">
        <ele>221.60000610352</ele>
        <time>2021-03-10T13:24:20.000Z</time>
      </trkpt>
      <trkpt lat="46.49186" lon="5.33142">
        <ele>221.39999389648</ele>
        <time>2021-03-10T13:24:21.000Z</time>
      </trkpt>
      <trkpt lat="46.49173" lon="5.33128">
        <ele>221</ele>
        <time>2021-03-10T13:24:23.000Z</time>
      </trkpt>
      <trkpt lat="46.49162" lon="5.33112">
        <ele>220.60000610352</ele>
        <time>2021-03-10T13:24:25.000Z</time>
      </trkpt>
      <trkpt lat="46.49158" lon="5.33102">
        <ele>220.39999389648</ele>
        <time>2021-03-10T13:24:26.000Z</time>
      </trkpt>
      <trkpt lat="46.49154" lon="5.33093">
        <ele>220.39999389648</ele>
        <time>2021-03-10T13:24:27.000Z</time>
      </trkpt>
      <trkpt lat="46.49148" lon="5.33073">
        <ele>220.19999694824</ele>
        <time>2021-03-10T13:24:29.000Z</time>
      </trkpt>
      <trkpt lat="46.49145" lon="5.33064">
        <ele>220.19999694824</ele>
        <time>2021-03-10T13:24:30.000Z</time>
      </trkpt>
      <trkpt lat="46.49143" lon="5.33055">
        <ele>220.19999694824</ele>
        <time>2021-03-10T13:24:31.000Z</time>
      </trkpt>
      <trkpt lat="46.49138" lon="5.33036">
        <ele>220.19999694824</ele>
        <time>2021-03-10T13:24:33.000Z</time>
      </trkpt>
      <trkpt lat="46.49134" lon="5.33016">
        <ele>220.19999694824</ele>
        <time>2021-03-10T13:24:35.000Z</time>
      </trkpt>
      <trkpt lat="46.49133" lon="5.33005">
        <ele>220.19999694824</ele>
        <time>2021-03-10T13:24:36.000Z</time>
      </trkpt>
      <trkpt lat="46.49131" lon="5.32995">
        <ele>220.19999694824</ele>
        <time>2021-03-10T13:24:37.000Z</time>
      </trkpt>
      <trkpt lat="46.49129" lon="5.32972">
        <ele>220.19999694824</ele>
        <time>2021-03-10T13:24:39.000Z</time>
      </trkpt>
      <trkpt lat="46.49128" lon="5.32961">
        <ele>220.19999694824</ele>
        <time>2021-03-10T13:24:40.000Z</time>
      </trkpt>
      <trkpt lat="46.49127" lon="5.32949">
        <ele>220</ele>
        <time>2021-03-10T13:24:41.000Z</time>
      </trkpt>
      <trkpt lat="46.49126" lon="5.32927">
        <ele>219.80000305176</ele>
        <time>2021-03-10T13:24:43.000Z</time>
      </trkpt>
      <trkpt lat="46.49127" lon="5.32916">
        <ele>219.60000610352</ele>
        <time>2021-03-10T13:24:44.000Z</time>
      </trkpt>
      <trkpt lat="46.49128" lon="5.32905">
        <ele>219.39999389648</ele>
        <time>2021-03-10T13:24:45.000Z</time>
      </trkpt>
      <trkpt lat="46.49132" lon="5.32885">
        <ele>218.80000305176</ele>
        <time>2021-03-10T13:24:47.000Z</time>
      </trkpt>
      <trkpt lat="46.49138" lon="5.32867">
        <ele>218.39999389648</ele>
        <time>2021-03-10T13:24:49.000Z</time>
      </trkpt>
      <trkpt lat="46.4914" lon="5.32858">
        <ele>218.39999389648</ele>
        <time>2021-03-10T13:24:50.000Z</time>
      </trkpt>
      <trkpt lat="46.49143" lon="5.32848">
        <ele>218.19999694824</ele>
        <time>2021-03-10T13:24:51.000Z</time>
      </trkpt>
      <trkpt lat="46.49147" lon="5.32829">
        <ele>218.19999694824</ele>
        <time>2021-03-10T13:24:53.000Z</time>
      </trkpt>
      <trkpt lat="46.49147" lon="5.32819">
        <ele>218.19999694824</ele>
        <time>2021-03-10T13:24:54.000Z</time>
      </trkpt>
      <trkpt lat="46.49147" lon="5.32808">
        <ele>218.19999694824</ele>
        <time>2021-03-10T13:24:55.000Z</time>
      </trkpt>
      <trkpt lat="46.49144" lon="5.3279">
        <ele>218.19999694824</ele>
        <time>2021-03-10T13:24:57.000Z</time>
      </trkpt>
      <trkpt lat="46.49143" lon="5.3278">
        <ele>218.19999694824</ele>
        <time>2021-03-10T13:24:58.000Z</time>
      </trkpt>
      <trkpt lat="46.49141" lon="5.32771">
        <ele>218.19999694824</ele>
        <time>2021-03-10T13:24:59.000Z</time>
      </trkpt>
      <trkpt lat="46.49138" lon="5.32753">
        <ele>218.19999694824</ele>
        <time>2021-03-10T13:25:01.000Z</time>
      </trkpt>
      <trkpt lat="46.49133" lon="5.32735">
        <ele>218.80000305176</ele>
        <time>2021-03-10T13:25:03.000Z</time>
      </trkpt>
      <trkpt lat="46.49126" lon="5.32717">
        <ele>219</ele>
        <time>2021-03-10T13:25:05.000Z</time>
      </trkpt>
      <trkpt lat="46.49116" lon="5.32703">
        <ele>219.19999694824</ele>
        <time>2021-03-10T13:25:07.000Z</time>
      </trkpt>
      <trkpt lat="46.49111" lon="5.32698">
        <ele>219.19999694824</ele>
        <time>2021-03-10T13:25:08.000Z</time>
      </trkpt>
      <trkpt lat="46.49104" lon="5.32696">
        <ele>219.19999694824</ele>
        <time>2021-03-10T13:25:09.000Z</time>
      </trkpt>
      <trkpt lat="46.49088" lon="5.32696">
        <ele>219.19999694824</ele>
        <time>2021-03-10T13:25:11.000Z</time>
      </trkpt>
      <trkpt lat="46.4908" lon="5.32697">
        <ele>219.19999694824</ele>
        <time>2021-03-10T13:25:12.000Z</time>
      </trkpt>
      <trkpt lat="46.49072" lon="5.32698">
        <ele>219.19999694824</ele>
        <time>2021-03-10T13:25:13.000Z</time>
      </trkpt>
      <trkpt lat="46.49054" lon="5.32701">
        <ele>219</ele>
        <time>2021-03-10T13:25:15.000Z</time>
      </trkpt>
      <trkpt lat="46.49036" lon="5.32705">
        <ele>218.80000305176</ele>
        <time>2021-03-10T13:25:17.000Z</time>
      </trkpt>
      <trkpt lat="46.49017" lon="5.32708">
        <ele>218.19999694824</ele>
        <time>2021-03-10T13:25:19.000Z</time>
      </trkpt>
      <trkpt lat="46.48998" lon="5.32709">
        <ele>217.19999694824</ele>
        <time>2021-03-10T13:25:21.000Z</time>
      </trkpt>
      <trkpt lat="46.48988" lon="5.3271">
        <ele>216.60000610352</ele>
        <time>2021-03-10T13:25:22.000Z</time>
      </trkpt>
      <trkpt lat="46.48978" lon="5.32709">
        <ele>215.60000610352</ele>
        <time>2021-03-10T13:25:23.000Z</time>
      </trkpt>
      <trkpt lat="46.48958" lon="5.32699">
        <ele>214.19999694824</ele>
        <time>2021-03-10T13:25:25.000Z</time>
      </trkpt>
      <trkpt lat="46.48941" lon="5.32682">
        <ele>213.19999694824</ele>
        <time>2021-03-10T13:25:27.000Z</time>
      </trkpt>
      <trkpt lat="46.48933" lon="5.32672">
        <ele>212.60000610352</ele>
        <time>2021-03-10T13:25:28.000Z</time>
      </trkpt>
      <trkpt lat="46.48926" lon="5.3266">
        <ele>212</ele>
        <time>2021-03-10T13:25:29.000Z</time>
      </trkpt>
      <trkpt lat="46.48921" lon="5.32647">
        <ele>210.80000305176</ele>
        <time>2021-03-10T13:25:30.000Z</time>
      </trkpt>
      <trkpt lat="46.4892" lon="5.32631">
        <ele>210</ele>
        <time>2021-03-10T13:25:31.000Z</time>
      </trkpt>
      <trkpt lat="46.48922" lon="5.32616">
        <ele>209.39999389648</ele>
        <time>2021-03-10T13:25:32.000Z</time>
      </trkpt>
      <trkpt lat="46.48927" lon="5.32601">
        <ele>208.60000610352</ele>
        <time>2021-03-10T13:25:33.000Z</time>
      </trkpt>
      <trkpt lat="46.48933" lon="5.32589">
        <ele>207.60000610352</ele>
        <time>2021-03-10T13:25:34.000Z</time>
      </trkpt>
      <trkpt lat="46.48941" lon="5.32578">
        <ele>206.60000610352</ele>
        <time>2021-03-10T13:25:35.000Z</time>
      </trkpt>
      <trkpt lat="46.48948" lon="5.32568">
        <ele>205.60000610352</ele>
        <time>2021-03-10T13:25:36.000Z</time>
      </trkpt>
      <trkpt lat="46.48954" lon="5.32556">
        <ele>204.80000305176</ele>
        <time>2021-03-10T13:25:37.000Z</time>
      </trkpt>
      <trkpt lat="46.48959" lon="5.32528">
        <ele>203.19999694824</ele>
        <time>2021-03-10T13:25:39.000Z</time>
      </trkpt>
      <trkpt lat="46.48955" lon="5.32502">
        <ele>201.80000305176</ele>
        <time>2021-03-10T13:25:41.000Z</time>
      </trkpt>
      <trkpt lat="46.48951" lon="5.3249">
        <ele>201.39999389648</ele>
        <time>2021-03-10T13:25:42.000Z</time>
      </trkpt>
      <trkpt lat="46.48948" lon="5.32479">
        <ele>201.19999694824</ele>
        <time>2021-03-10T13:25:43.000Z</time>
      </trkpt>
      <trkpt lat="46.48941" lon="5.32455">
        <ele>200.60000610352</ele>
        <time>2021-03-10T13:25:45.000Z</time>
      </trkpt>
      <trkpt lat="46.48937" lon="5.32444">
        <ele>200.39999389648</ele>
        <time>2021-03-10T13:25:46.000Z</time>
      </trkpt>
      <trkpt lat="46.48934" lon="5.32432">
        <ele>200.39999389648</ele>
        <time>2021-03-10T13:25:47.000Z</time>
      </trkpt>
      <trkpt lat="46.48926" lon="5.32411">
        <ele>200.19999694824</ele>
        <time>2021-03-10T13:25:49.000Z</time>
      </trkpt>
      <trkpt lat="46.48921" lon="5.32389">
        <ele>200.19999694824</ele>
        <time>2021-03-10T13:25:51.000Z</time>
      </trkpt>
      <trkpt lat="46.48918" lon="5.32379">
        <ele>200.19999694824</ele>
        <time>2021-03-10T13:25:52.000Z</time>
      </trkpt>
      <trkpt lat="46.48915" lon="5.32368">
        <ele>200.19999694824</ele>
        <time>2021-03-10T13:25:53.000Z</time>
      </trkpt>
      <trkpt lat="46.48912" lon="5.32359">
        <ele>200.19999694824</ele>
        <time>2021-03-10T13:25:54.000Z</time>
      </trkpt>
      <trkpt lat="46.48908" lon="5.3235">
        <ele>200.19999694824</ele>
        <time>2021-03-10T13:25:55.000Z</time>
      </trkpt>
      <trkpt lat="46.489" lon="5.32334">
        <ele>200.39999389648</ele>
        <time>2021-03-10T13:25:57.000Z</time>
      </trkpt>
      <trkpt lat="46.48891" lon="5.32319">
        <ele>200.80000305176</ele>
        <time>2021-03-10T13:25:59.000Z</time>
      </trkpt>
      <trkpt lat="46.48884" lon="5.32308">
        <ele>201</ele>
        <time>2021-03-10T13:26:01.000Z</time>
      </trkpt>
      <trkpt lat="46.48881" lon="5.32303">
        <ele>201.19999694824</ele>
        <time>2021-03-10T13:26:02.000Z</time>
      </trkpt>
      <trkpt lat="46.48878" lon="5.32298">
        <ele>201.19999694824</ele>
        <time>2021-03-10T13:26:03.000Z</time>
      </trkpt>
      <trkpt lat="46.48872" lon="5.3229">
        <ele>201.60000610352</ele>
        <time>2021-03-10T13:26:05.000Z</time>
      </trkpt>
      <trkpt lat="46.48869" lon="5.32286">
        <ele>202</ele>
        <time>2021-03-10T13:26:06.000Z</time>
      </trkpt>
      <trkpt lat="46.48866" lon="5.32282">
        <ele>202.60000610352</ele>
        <time>2021-03-10T13:26:07.000Z</time>
      </trkpt>
      <trkpt lat="46.48864" lon="5.32278">
        <ele>203.39999389648</ele>
        <time>2021-03-10T13:26:08.000Z</time>
      </trkpt>
      <trkpt lat="46.48861" lon="5.32274">
        <ele>204.19999694824</ele>
        <time>2021-03-10T13:26:09.000Z</time>
      </trkpt>
      <trkpt lat="46.48859" lon="5.3227">
        <ele>204.60000610352</ele>
        <time>2021-03-10T13:26:10.000Z</time>
      </trkpt>
      <trkpt lat="46.48857" lon="5.32266">
        <ele>205.19999694824</ele>
        <time>2021-03-10T13:26:11.000Z</time>
      </trkpt>
      <trkpt lat="46.48855" lon="5.32262">
        <ele>205.60000610352</ele>
        <time>2021-03-10T13:26:12.000Z</time>
      </trkpt>
      <trkpt lat="46.48852" lon="5.32258">
        <ele>206.19999694824</ele>
        <time>2021-03-10T13:26:13.000Z</time>
      </trkpt>
      <trkpt lat="46.48847" lon="5.32251">
        <ele>207</ele>
        <time>2021-03-10T13:26:15.000Z</time>
      </trkpt>
      <trkpt lat="46.48843" lon="5.32243">
        <ele>207.60000610352</ele>
        <time>2021-03-10T13:26:17.000Z</time>
      </trkpt>
      <trkpt lat="46.48838" lon="5.32233">
        <ele>208.39999389648</ele>
        <time>2021-03-10T13:26:19.000Z</time>
      </trkpt>
      <trkpt lat="46.48836" lon="5.32228">
        <ele>208.80000305176</ele>
        <time>2021-03-10T13:26:20.000Z</time>
      </trkpt>
      <trkpt lat="46.48835" lon="5.32221">
        <ele>209</ele>
        <time>2021-03-10T13:26:21.000Z</time>
      </trkpt>
      <trkpt lat="46.48833" lon="5.32215">
        <ele>209.19999694824</ele>
        <time>2021-03-10T13:26:22.000Z</time>
      </trkpt>
      <trkpt lat="46.4883" lon="5.322">
        <ele>209.19999694824</ele>
        <time>2021-03-10T13:26:24.000Z</time>
      </trkpt>
      <trkpt lat="46.48829" lon="5.32192">
        <ele>209.19999694824</ele>
        <time>2021-03-10T13:26:25.000Z</time>
      </trkpt>
      <trkpt lat="46.48827" lon="5.32175">
        <ele>209.19999694824</ele>
        <time>2021-03-10T13:26:27.000Z</time>
      </trkpt>
      <trkpt lat="46.48826" lon="5.32157">
        <ele>209.19999694824</ele>
        <time>2021-03-10T13:26:29.000Z</time>
      </trkpt>
      <trkpt lat="46.48827" lon="5.32138">
        <ele>209.19999694824</ele>
        <time>2021-03-10T13:26:31.000Z</time>
      </trkpt>
      <trkpt lat="46.48828" lon="5.32128">
        <ele>209</ele>
        <time>2021-03-10T13:26:32.000Z</time>
      </trkpt>
      <trkpt lat="46.48829" lon="5.32118">
        <ele>208.60000610352</ele>
        <time>2021-03-10T13:26:33.000Z</time>
      </trkpt>
      <trkpt lat="46.48833" lon="5.32098">
        <ele>208.19999694824</ele>
        <time>2021-03-10T13:26:35.000Z</time>
      </trkpt>
      <trkpt lat="46.48837" lon="5.32078">
        <ele>207.60000610352</ele>
        <time>2021-03-10T13:26:37.000Z</time>
      </trkpt>
      <trkpt lat="46.48839" lon="5.32068">
        <ele>207</ele>
        <time>2021-03-10T13:26:38.000Z</time>
      </trkpt>
      <trkpt lat="46.48841" lon="5.32058">
        <ele>206.60000610352</ele>
        <time>2021-03-10T13:26:39.000Z</time>
      </trkpt>
      <trkpt lat="46.48843" lon="5.32048">
        <ele>206.39999389648</ele>
        <time>2021-03-10T13:26:40.000Z</time>
      </trkpt>
      <trkpt lat="46.48844" lon="5.32038">
        <ele>206.39999389648</ele>
        <time>2021-03-10T13:26:41.000Z</time>
      </trkpt>
      <trkpt lat="46.48847" lon="5.32018">
        <ele>206.19999694824</ele>
        <time>2021-03-10T13:26:43.000Z</time>
      </trkpt>
      <trkpt lat="46.48849" lon="5.32008">
        <ele>206</ele>
        <time>2021-03-10T13:26:44.000Z</time>
      </trkpt>
      <trkpt lat="46.4885" lon="5.31998">
        <ele>205.80000305176</ele>
        <time>2021-03-10T13:26:45.000Z</time>
      </trkpt>
      <trkpt lat="46.48851" lon="5.31977">
        <ele>205.60000610352</ele>
        <time>2021-03-10T13:26:47.000Z</time>
      </trkpt>
      <trkpt lat="46.4885" lon="5.31956">
        <ele>205.19999694824</ele>
        <time>2021-03-10T13:26:49.000Z</time>
      </trkpt>
      <trkpt lat="46.48848" lon="5.31935">
        <ele>205</ele>
        <time>2021-03-10T13:26:51.000Z</time>
      </trkpt>
      <trkpt lat="46.48847" lon="5.31914">
        <ele>204.80000305176</ele>
        <time>2021-03-10T13:26:53.000Z</time>
      </trkpt>
      <trkpt lat="46.48846" lon="5.31904">
        <ele>204.80000305176</ele>
        <time>2021-03-10T13:26:54.000Z</time>
      </trkpt>
      <trkpt lat="46.48844" lon="5.31893">
        <ele>204.60000610352</ele>
        <time>2021-03-10T13:26:55.000Z</time>
      </trkpt>
      <trkpt lat="46.48842" lon="5.31883">
        <ele>204.39999389648</ele>
        <time>2021-03-10T13:26:56.000Z</time>
      </trkpt>
      <trkpt lat="46.48839" lon="5.31873">
        <ele>204.39999389648</ele>
        <time>2021-03-10T13:26:57.000Z</time>
      </trkpt>
      <trkpt lat="46.48835" lon="5.31865">
        <ele>204</ele>
        <time>2021-03-10T13:26:58.000Z</time>
      </trkpt>
      <trkpt lat="46.48829" lon="5.31858">
        <ele>203.80000305176</ele>
        <time>2021-03-10T13:26:59.000Z</time>
      </trkpt>
      <trkpt lat="46.48816" lon="5.3185">
        <ele>203.60000610352</ele>
        <time>2021-03-10T13:27:01.000Z</time>
      </trkpt>
      <trkpt lat="46.48809" lon="5.31847">
        <ele>203.60000610352</ele>
        <time>2021-03-10T13:27:02.000Z</time>
      </trkpt>
      <trkpt lat="46.48802" lon="5.31844">
        <ele>203.60000610352</ele>
        <time>2021-03-10T13:27:03.000Z</time>
      </trkpt>
      <trkpt lat="46.48789" lon="5.31832">
        <ele>203.39999389648</ele>
        <time>2021-03-10T13:27:05.000Z</time>
      </trkpt>
      <trkpt lat="46.48784" lon="5.31814">
        <ele>203.19999694824</ele>
        <time>2021-03-10T13:27:07.000Z</time>
      </trkpt>
      <trkpt lat="46.48783" lon="5.31804">
        <ele>203.19999694824</ele>
        <time>2021-03-10T13:27:08.000Z</time>
      </trkpt>
      <trkpt lat="46.48783" lon="5.31794">
        <ele>203.19999694824</ele>
        <time>2021-03-10T13:27:09.000Z</time>
      </trkpt>
      <trkpt lat="46.48782" lon="5.31775">
        <ele>203.39999389648</ele>
        <time>2021-03-10T13:27:11.000Z</time>
      </trkpt>
      <trkpt lat="46.48781" lon="5.31756">
        <ele>203.60000610352</ele>
        <time>2021-03-10T13:27:13.000Z</time>
      </trkpt>
      <trkpt lat="46.48779" lon="5.31737">
        <ele>203.60000610352</ele>
        <time>2021-03-10T13:27:15.000Z</time>
      </trkpt>
      <trkpt lat="46.48777" lon="5.31728">
        <ele>203.60000610352</ele>
        <time>2021-03-10T13:27:16.000Z</time>
      </trkpt>
      <trkpt lat="46.48774" lon="5.31721">
        <ele>203.80000305176</ele>
        <time>2021-03-10T13:27:17.000Z</time>
      </trkpt>
      <trkpt lat="46.48771" lon="5.31714">
        <ele>203.80000305176</ele>
        <time>2021-03-10T13:27:18.000Z</time>
      </trkpt>
      <trkpt lat="46.48767" lon="5.31708">
        <ele>203.80000305176</ele>
        <time>2021-03-10T13:27:19.000Z</time>
      </trkpt>
      <trkpt lat="46.4876" lon="5.31697">
        <ele>203.80000305176</ele>
        <time>2021-03-10T13:27:21.000Z</time>
      </trkpt>
      <trkpt lat="46.48751" lon="5.31686">
        <ele>204</ele>
        <time>2021-03-10T13:27:23.000Z</time>
      </trkpt>
      <trkpt lat="46.48742" lon="5.31674">
        <ele>204.19999694824</ele>
        <time>2021-03-10T13:27:25.000Z</time>
      </trkpt>
      <trkpt lat="46.48733" lon="5.31662">
        <ele>204.60000610352</ele>
        <time>2021-03-10T13:27:27.000Z</time>
      </trkpt>
      <trkpt lat="46.48724" lon="5.31651">
        <ele>204.80000305176</ele>
        <time>2021-03-10T13:27:29.000Z</time>
      </trkpt>
      <trkpt lat="46.48716" lon="5.31641">
        <ele>204.80000305176</ele>
        <time>2021-03-10T13:27:31.000Z</time>
      </trkpt>
      <trkpt lat="46.48706" lon="5.31631">
        <ele>205</ele>
        <time>2021-03-10T13:27:33.000Z</time>
      </trkpt>
      <trkpt lat="46.48698" lon="5.31623">
        <ele>205</ele>
        <time>2021-03-10T13:27:35.000Z</time>
      </trkpt>
      <trkpt lat="46.48689" lon="5.31614">
        <ele>205</ele>
        <time>2021-03-10T13:27:37.000Z</time>
      </trkpt>
      <trkpt lat="46.48679" lon="5.31604">
        <ele>205</ele>
        <time>2021-03-10T13:27:39.000Z</time>
      </trkpt>
      <trkpt lat="46.48674" lon="5.31598">
        <ele>205</ele>
        <time>2021-03-10T13:27:40.000Z</time>
      </trkpt>
      <trkpt lat="46.48669" lon="5.31592">
        <ele>205</ele>
        <time>2021-03-10T13:27:41.000Z</time>
      </trkpt>
      <trkpt lat="46.4866" lon="5.3158">
        <ele>205</ele>
        <time>2021-03-10T13:27:43.000Z</time>
      </trkpt>
      <trkpt lat="46.48655" lon="5.31576">
        <ele>205</ele>
        <time>2021-03-10T13:27:44.000Z</time>
      </trkpt>
      <trkpt lat="46.48651" lon="5.31571">
        <ele>205</ele>
        <time>2021-03-10T13:27:45.000Z</time>
      </trkpt>
      <trkpt lat="46.48642" lon="5.31561">
        <ele>205</ele>
        <time>2021-03-10T13:27:47.000Z</time>
      </trkpt>
      <trkpt lat="46.48637" lon="5.31555">
        <ele>204.80000305176</ele>
        <time>2021-03-10T13:27:48.000Z</time>
      </trkpt>
      <trkpt lat="46.48633" lon="5.31549">
        <ele>204.60000610352</ele>
        <time>2021-03-10T13:27:49.000Z</time>
      </trkpt>
      <trkpt lat="46.48628" lon="5.31543">
        <ele>204.60000610352</ele>
        <time>2021-03-10T13:27:50.000Z</time>
      </trkpt>
      <trkpt lat="46.48624" lon="5.31537">
        <ele>204.60000610352</ele>
        <time>2021-03-10T13:27:51.000Z</time>
      </trkpt>
      <trkpt lat="46.48621" lon="5.31529">
        <ele>204.60000610352</ele>
        <time>2021-03-10T13:27:52.000Z</time>
      </trkpt>
      <trkpt lat="46.48619" lon="5.3152">
        <ele>204.60000610352</ele>
        <time>2021-03-10T13:27:53.000Z</time>
      </trkpt>
      <trkpt lat="46.48617" lon="5.31511">
        <ele>204.60000610352</ele>
        <time>2021-03-10T13:27:54.000Z</time>
      </trkpt>
      <trkpt lat="46.48617" lon="5.31503">
        <ele>204.60000610352</ele>
        <time>2021-03-10T13:27:55.000Z</time>
      </trkpt>
      <trkpt lat="46.48617" lon="5.31495">
        <ele>204.60000610352</ele>
        <time>2021-03-10T13:27:56.000Z</time>
      </trkpt>
      <trkpt lat="46.48617" lon="5.31486">
        <ele>204.39999389648</ele>
        <time>2021-03-10T13:27:57.000Z</time>
      </trkpt>
      <trkpt lat="46.48615" lon="5.31465">
        <ele>204.19999694824</ele>
        <time>2021-03-10T13:27:59.000Z</time>
      </trkpt>
      <trkpt lat="46.48611" lon="5.31441">
        <ele>204.19999694824</ele>
        <time>2021-03-10T13:28:01.000Z</time>
      </trkpt>
      <trkpt lat="46.48604" lon="5.31424">
        <ele>204.19999694824</ele>
        <time>2021-03-10T13:28:03.000Z</time>
      </trkpt>
      <trkpt lat="46.486" lon="5.31417">
        <ele>204.19999694824</ele>
        <time>2021-03-10T13:28:04.000Z</time>
      </trkpt>
      <trkpt lat="46.48596" lon="5.31411">
        <ele>204.19999694824</ele>
        <time>2021-03-10T13:28:05.000Z</time>
      </trkpt>
      <trkpt lat="46.48589" lon="5.314">
        <ele>204.39999389648</ele>
        <time>2021-03-10T13:28:07.000Z</time>
      </trkpt>
      <trkpt lat="46.48585" lon="5.31395">
        <ele>204.80000305176</ele>
        <time>2021-03-10T13:28:08.000Z</time>
      </trkpt>
      <trkpt lat="46.48582" lon="5.3139">
        <ele>205.19999694824</ele>
        <time>2021-03-10T13:28:09.000Z</time>
      </trkpt>
      <trkpt lat="46.48575" lon="5.3138">
        <ele>205.80000305176</ele>
        <time>2021-03-10T13:28:11.000Z</time>
      </trkpt>
      <trkpt lat="46.48573" lon="5.31375">
        <ele>206.19999694824</ele>
        <time>2021-03-10T13:28:12.000Z</time>
      </trkpt>
      <trkpt lat="46.48571" lon="5.3137">
        <ele>206.39999389648</ele>
        <time>2021-03-10T13:28:13.000Z</time>
      </trkpt>
      <trkpt lat="46.48567" lon="5.31358">
        <ele>206.80000305176</ele>
        <time>2021-03-10T13:28:15.000Z</time>
      </trkpt>
      <trkpt lat="46.48566" lon="5.31353">
        <ele>207.19999694824</ele>
        <time>2021-03-10T13:28:16.000Z</time>
      </trkpt>
      <trkpt lat="46.48565" lon="5.31347">
        <ele>207.39999389648</ele>
        <time>2021-03-10T13:28:17.000Z</time>
      </trkpt>
      <trkpt lat="46.48565" lon="5.31342">
        <ele>207.60000610352</ele>
        <time>2021-03-10T13:28:18.000Z</time>
      </trkpt>
      <trkpt lat="46.48564" lon="5.31337">
        <ele>208</ele>
        <time>2021-03-10T13:28:19.000Z</time>
      </trkpt>
      <trkpt lat="46.48563" lon="5.31326">
        <ele>209.19999694824</ele>
        <time>2021-03-10T13:28:21.000Z</time>
      </trkpt>
      <trkpt lat="46.48562" lon="5.31313">
        <ele>210</ele>
        <time>2021-03-10T13:28:23.000Z</time>
      </trkpt>
      <trkpt lat="46.48561" lon="5.31306">
        <ele>210.19999694824</ele>
        <time>2021-03-10T13:28:24.000Z</time>
      </trkpt>
      <trkpt lat="46.4856" lon="5.31299">
        <ele>210.60000610352</ele>
        <time>2021-03-10T13:28:25.000Z</time>
      </trkpt>
      <trkpt lat="46.48559" lon="5.31285">
        <ele>210.80000305176</ele>
        <time>2021-03-10T13:28:27.000Z</time>
      </trkpt>
      <trkpt lat="46.48557" lon="5.31271">
        <ele>211</ele>
        <time>2021-03-10T13:28:29.000Z</time>
      </trkpt>
      <trkpt lat="46.48557" lon="5.31263">
        <ele>211</ele>
        <time>2021-03-10T13:28:30.000Z</time>
      </trkpt>
      <trkpt lat="46.48558" lon="5.31256">
        <ele>211</ele>
        <time>2021-03-10T13:28:31.000Z</time>
      </trkpt>
      <trkpt lat="46.48559" lon="5.31249">
        <ele>211</ele>
        <time>2021-03-10T13:28:32.000Z</time>
      </trkpt>
      <trkpt lat="46.4856" lon="5.31242">
        <ele>211.19999694824</ele>
        <time>2021-03-10T13:28:33.000Z</time>
      </trkpt>
      <trkpt lat="46.48565" lon="5.31229">
        <ele>211.39999389648</ele>
        <time>2021-03-10T13:28:35.000Z</time>
      </trkpt>
      <trkpt lat="46.4857" lon="5.31218">
        <ele>211.39999389648</ele>
        <time>2021-03-10T13:28:37.000Z</time>
      </trkpt>
      <trkpt lat="46.48575" lon="5.31206">
        <ele>211.80000305176</ele>
        <time>2021-03-10T13:28:39.000Z</time>
      </trkpt>
      <trkpt lat="46.4858" lon="5.31194">
        <ele>212.19999694824</ele>
        <time>2021-03-10T13:28:41.000Z</time>
      </trkpt>
      <trkpt lat="46.48583" lon="5.31188">
        <ele>212.60000610352</ele>
        <time>2021-03-10T13:28:42.000Z</time>
      </trkpt>
      <trkpt lat="46.48585" lon="5.31183">
        <ele>212.80000305176</ele>
        <time>2021-03-10T13:28:43.000Z</time>
      </trkpt>
      <trkpt lat="46.48591" lon="5.31171">
        <ele>213</ele>
        <time>2021-03-10T13:28:45.000Z</time>
      </trkpt>
      <trkpt lat="46.48596" lon="5.3116">
        <ele>213.19999694824</ele>
        <time>2021-03-10T13:28:47.000Z</time>
      </trkpt>
      <trkpt lat="46.48599" lon="5.31154">
        <ele>213.39999389648</ele>
        <time>2021-03-10T13:28:48.000Z</time>
      </trkpt>
      <trkpt lat="46.48602" lon="5.31148">
        <ele>213.39999389648</ele>
        <time>2021-03-10T13:28:49.000Z</time>
      </trkpt>
      <trkpt lat="46.48607" lon="5.31137">
        <ele>214</ele>
        <time>2021-03-10T13:28:51.000Z</time>
      </trkpt>
      <trkpt lat="46.48612" lon="5.31125">
        <ele>214.80000305176</ele>
        <time>2021-03-10T13:28:53.000Z</time>
      </trkpt>
      <trkpt lat="46.48615" lon="5.31119">
        <ele>215</ele>
        <time>2021-03-10T13:28:54.000Z</time>
      </trkpt>
      <trkpt lat="46.48617" lon="5.31113">
        <ele>215.19999694824</ele>
        <time>2021-03-10T13:28:55.000Z</time>
      </trkpt>
      <trkpt lat="46.48623" lon="5.31102">
        <ele>215.39999389648</ele>
        <time>2021-03-10T13:28:57.000Z</time>
      </trkpt>
      <trkpt lat="46.48628" lon="5.3109">
        <ele>215.60000610352</ele>
        <time>2021-03-10T13:28:59.000Z</time>
      </trkpt>
      <trkpt lat="46.48634" lon="5.31077">
        <ele>215.80000305176</ele>
        <time>2021-03-10T13:29:01.000Z</time>
      </trkpt>
      <trkpt lat="46.4864" lon="5.31065">
        <ele>215.80000305176</ele>
        <time>2021-03-10T13:29:03.000Z</time>
      </trkpt>
      <trkpt lat="46.48643" lon="5.3106">
        <ele>216</ele>
        <time>2021-03-10T13:29:04.000Z</time>
      </trkpt>
      <trkpt lat="46.48645" lon="5.31053">
        <ele>216.19999694824</ele>
        <time>2021-03-10T13:29:05.000Z</time>
      </trkpt>
      <trkpt lat="46.48651" lon="5.31042">
        <ele>216.60000610352</ele>
        <time>2021-03-10T13:29:07.000Z</time>
      </trkpt>
      <trkpt lat="46.48656" lon="5.3103">
        <ele>217</ele>
        <time>2021-03-10T13:29:09.000Z</time>
      </trkpt>
      <trkpt lat="46.48662" lon="5.31019">
        <ele>217.19999694824</ele>
        <time>2021-03-10T13:29:11.000Z</time>
      </trkpt>
      <trkpt lat="46.48667" lon="5.31008">
        <ele>217.39999389648</ele>
        <time>2021-03-10T13:29:13.000Z</time>
      </trkpt>
      <trkpt lat="46.48673" lon="5.30996">
        <ele>217.80000305176</ele>
        <time>2021-03-10T13:29:15.000Z</time>
      </trkpt>
      <trkpt lat="46.48678" lon="5.30985">
        <ele>218</ele>
        <time>2021-03-10T13:29:17.000Z</time>
      </trkpt>
      <trkpt lat="46.48684" lon="5.30974">
        <ele>218.19999694824</ele>
        <time>2021-03-10T13:29:19.000Z</time>
      </trkpt>
      <trkpt lat="46.4869" lon="5.30961">
        <ele>218.19999694824</ele>
        <time>2021-03-10T13:29:21.000Z</time>
      </trkpt>
      <trkpt lat="46.48696" lon="5.30947">
        <ele>218.19999694824</ele>
        <time>2021-03-10T13:29:23.000Z</time>
      </trkpt>
      <trkpt lat="46.487" lon="5.3094">
        <ele>218.19999694824</ele>
        <time>2021-03-10T13:29:24.000Z</time>
      </trkpt>
      <trkpt lat="46.48704" lon="5.30933">
        <ele>218.19999694824</ele>
        <time>2021-03-10T13:29:25.000Z</time>
      </trkpt>
      <trkpt lat="46.48713" lon="5.30919">
        <ele>218.19999694824</ele>
        <time>2021-03-10T13:29:27.000Z</time>
      </trkpt>
      <trkpt lat="46.48718" lon="5.30912">
        <ele>218.19999694824</ele>
        <time>2021-03-10T13:29:28.000Z</time>
      </trkpt>
      <trkpt lat="46.48722" lon="5.30904">
        <ele>218.19999694824</ele>
        <time>2021-03-10T13:29:29.000Z</time>
      </trkpt>
      <trkpt lat="46.48724" lon="5.30893">
        <ele>218.19999694824</ele>
        <time>2021-03-10T13:29:30.000Z</time>
      </trkpt>
      <trkpt lat="46.48723" lon="5.30882">
        <ele>218.19999694824</ele>
        <time>2021-03-10T13:29:31.000Z</time>
      </trkpt>
      <trkpt lat="46.48717" lon="5.30863">
        <ele>217.60000610352</ele>
        <time>2021-03-10T13:29:33.000Z</time>
      </trkpt>
      <trkpt lat="46.48712" lon="5.30856">
        <ele>217</ele>
        <time>2021-03-10T13:29:34.000Z</time>
      </trkpt>
      <trkpt lat="46.48706" lon="5.3085">
        <ele>216.60000610352</ele>
        <time>2021-03-10T13:29:35.000Z</time>
      </trkpt>
      <trkpt lat="46.487" lon="5.30844">
        <ele>216</ele>
        <time>2021-03-10T13:29:36.000Z</time>
      </trkpt>
      <trkpt lat="46.48694" lon="5.30839">
        <ele>215.39999389648</ele>
        <time>2021-03-10T13:29:37.000Z</time>
      </trkpt>
      <trkpt lat="46.48687" lon="5.30835">
        <ele>214.80000305176</ele>
        <time>2021-03-10T13:29:38.000Z</time>
      </trkpt>
      <trkpt lat="46.48679" lon="5.3083">
        <ele>214.19999694824</ele>
        <time>2021-03-10T13:29:39.000Z</time>
      </trkpt>
      <trkpt lat="46.48672" lon="5.30826">
        <ele>213.80000305176</ele>
        <time>2021-03-10T13:29:40.000Z</time>
      </trkpt>
      <trkpt lat="46.48665" lon="5.30821">
        <ele>213.60000610352</ele>
        <time>2021-03-10T13:29:41.000Z</time>
      </trkpt>
      <trkpt lat="46.4865" lon="5.30811">
        <ele>213.19999694824</ele>
        <time>2021-03-10T13:29:43.000Z</time>
      </trkpt>
      <trkpt lat="46.48635" lon="5.30802">
        <ele>213</ele>
        <time>2021-03-10T13:29:45.000Z</time>
      </trkpt>
      <trkpt lat="46.48621" lon="5.30792">
        <ele>212.80000305176</ele>
        <time>2021-03-10T13:29:47.000Z</time>
      </trkpt>
      <trkpt lat="46.48608" lon="5.30781">
        <ele>212.19999694824</ele>
        <time>2021-03-10T13:29:49.000Z</time>
      </trkpt>
      <trkpt lat="46.48596" lon="5.30771">
        <ele>211.80000305176</ele>
        <time>2021-03-10T13:29:51.000Z</time>
      </trkpt>
      <trkpt lat="46.48585" lon="5.30761">
        <ele>211.80000305176</ele>
        <time>2021-03-10T13:29:53.000Z</time>
      </trkpt>
      <trkpt lat="46.48576" lon="5.30751">
        <ele>211.80000305176</ele>
        <time>2021-03-10T13:29:55.000Z</time>
      </trkpt>
      <trkpt lat="46.48568" lon="5.3074">
        <ele>211.80000305176</ele>
        <time>2021-03-10T13:29:57.000Z</time>
      </trkpt>
      <trkpt lat="46.48561" lon="5.30728">
        <ele>212</ele>
        <time>2021-03-10T13:29:59.000Z</time>
      </trkpt>
      <trkpt lat="46.48558" lon="5.30721">
        <ele>212.19999694824</ele>
        <time>2021-03-10T13:30:00.000Z</time>
      </trkpt>
      <trkpt lat="46.48555" lon="5.30715">
        <ele>212.60000610352</ele>
        <time>2021-03-10T13:30:01.000Z</time>
      </trkpt>
      <trkpt lat="46.48552" lon="5.30709">
        <ele>212.80000305176</ele>
        <time>2021-03-10T13:30:02.000Z</time>
      </trkpt>
      <trkpt lat="46.4855" lon="5.30702">
        <ele>213.19999694824</ele>
        <time>2021-03-10T13:30:03.000Z</time>
      </trkpt>
      <trkpt lat="46.48546" lon="5.3069">
        <ele>213.80000305176</ele>
        <time>2021-03-10T13:30:05.000Z</time>
      </trkpt>
      <trkpt lat="46.48545" lon="5.30679">
        <ele>214.19999694824</ele>
        <time>2021-03-10T13:30:07.000Z</time>
      </trkpt>
      <trkpt lat="46.48545" lon="5.30666">
        <ele>214.60000610352</ele>
        <time>2021-03-10T13:30:09.000Z</time>
      </trkpt>
      <trkpt lat="46.48545" lon="5.30653">
        <ele>215.19999694824</ele>
        <time>2021-03-10T13:30:11.000Z</time>
      </trkpt>
      <trkpt lat="46.48547" lon="5.30641">
        <ele>215.60000610352</ele>
        <time>2021-03-10T13:30:13.000Z</time>
      </trkpt>
      <trkpt lat="46.48548" lon="5.30628">
        <ele>216.19999694824</ele>
        <time>2021-03-10T13:30:15.000Z</time>
      </trkpt>
      <trkpt lat="46.48549" lon="5.30622">
        <ele>216.80000305176</ele>
        <time>2021-03-10T13:30:16.000Z</time>
      </trkpt>
      <trkpt lat="46.4855" lon="5.30616">
        <ele>217</ele>
        <time>2021-03-10T13:30:17.000Z</time>
      </trkpt>
      <trkpt lat="46.48551" lon="5.3061">
        <ele>217.60000610352</ele>
        <time>2021-03-10T13:30:18.000Z</time>
      </trkpt>
      <trkpt lat="46.48552" lon="5.30603">
        <ele>217.80000305176</ele>
        <time>2021-03-10T13:30:19.000Z</time>
      </trkpt>
      <trkpt lat="46.48554" lon="5.30591">
        <ele>218.39999389648</ele>
        <time>2021-03-10T13:30:21.000Z</time>
      </trkpt>
      <trkpt lat="46.48555" lon="5.30586">
        <ele>218.39999389648</ele>
        <time>2021-03-10T13:30:22.000Z</time>
      </trkpt>
      <trkpt lat="46.48555" lon="5.3058">
        <ele>218.80000305176</ele>
        <time>2021-03-10T13:30:23.000Z</time>
      </trkpt>
      <trkpt lat="46.48556" lon="5.30574">
        <ele>219</ele>
        <time>2021-03-10T13:30:24.000Z</time>
      </trkpt>
      <trkpt lat="46.48557" lon="5.30568">
        <ele>219</ele>
        <time>2021-03-10T13:30:25.000Z</time>
      </trkpt>
      <trkpt lat="46.48559" lon="5.30554">
        <ele>219.19999694824</ele>
        <time>2021-03-10T13:30:27.000Z</time>
      </trkpt>
      <trkpt lat="46.4856" lon="5.30548">
        <ele>219.39999389648</ele>
        <time>2021-03-10T13:30:28.000Z</time>
      </trkpt>
      <trkpt lat="46.48561" lon="5.30541">
        <ele>219.60000610352</ele>
        <time>2021-03-10T13:30:29.000Z</time>
      </trkpt>
      <trkpt lat="46.48563" lon="5.30526">
        <ele>219.80000305176</ele>
        <time>2021-03-10T13:30:31.000Z</time>
      </trkpt>
      <trkpt lat="46.48563" lon="5.30519">
        <ele>220</ele>
        <time>2021-03-10T13:30:32.000Z</time>
      </trkpt>
      <trkpt lat="46.48563" lon="5.30511">
        <ele>220.19999694824</ele>
        <time>2021-03-10T13:30:33.000Z</time>
      </trkpt>
      <trkpt lat="46.48557" lon="5.30499">
        <ele>220.39999389648</ele>
        <time>2021-03-10T13:30:35.000Z</time>
      </trkpt>
      <trkpt lat="46.48548" lon="5.30496">
        <ele>220.80000305176</ele>
        <time>2021-03-10T13:30:37.000Z</time>
      </trkpt>
      <trkpt lat="46.48544" lon="5.30498">
        <ele>221</ele>
        <time>2021-03-10T13:30:38.000Z</time>
      </trkpt>
      <trkpt lat="46.48539" lon="5.30501">
        <ele>221</ele>
        <time>2021-03-10T13:30:39.000Z</time>
      </trkpt>
      <trkpt lat="46.48529" lon="5.30507">
        <ele>221.19999694824</ele>
        <time>2021-03-10T13:30:41.000Z</time>
      </trkpt>
      <trkpt lat="46.48519" lon="5.30514">
        <ele>221.19999694824</ele>
        <time>2021-03-10T13:30:43.000Z</time>
      </trkpt>
      <trkpt lat="46.48509" lon="5.30522">
        <ele>221.39999389648</ele>
        <time>2021-03-10T13:30:45.000Z</time>
      </trkpt>
      <trkpt lat="46.48499" lon="5.30531">
        <ele>221.39999389648</ele>
        <time>2021-03-10T13:30:47.000Z</time>
      </trkpt>
      <trkpt lat="46.48488" lon="5.30541">
        <ele>221.39999389648</ele>
        <time>2021-03-10T13:30:49.000Z</time>
      </trkpt>
      <trkpt lat="46.48483" lon="5.30546">
        <ele>221.39999389648</ele>
        <time>2021-03-10T13:30:50.000Z</time>
      </trkpt>
      <trkpt lat="46.48477" lon="5.30551">
        <ele>221.39999389648</ele>
        <time>2021-03-10T13:30:51.000Z</time>
      </trkpt>
      <trkpt lat="46.48466" lon="5.30561">
        <ele>221.60000610352</ele>
        <time>2021-03-10T13:30:53.000Z</time>
      </trkpt>
      <trkpt lat="46.48456" lon="5.30572">
        <ele>221.60000610352</ele>
        <time>2021-03-10T13:30:55.000Z</time>
      </trkpt>
      <trkpt lat="46.48444" lon="5.30582">
        <ele>221.60000610352</ele>
        <time>2021-03-10T13:30:57.000Z</time>
      </trkpt>
      <trkpt lat="46.48433" lon="5.30593">
        <ele>221.60000610352</ele>
        <time>2021-03-10T13:30:59.000Z</time>
      </trkpt>
      <trkpt lat="46.48428" lon="5.30598">
        <ele>221.39999389648</ele>
        <time>2021-03-10T13:31:00.000Z</time>
      </trkpt>
      <trkpt lat="46.48422" lon="5.30603">
        <ele>221.19999694824</ele>
        <time>2021-03-10T13:31:01.000Z</time>
      </trkpt>
      <trkpt lat="46.48411" lon="5.30614">
        <ele>221</ele>
        <time>2021-03-10T13:31:03.000Z</time>
      </trkpt>
      <trkpt lat="46.48399" lon="5.30625">
        <ele>220.80000305176</ele>
        <time>2021-03-10T13:31:05.000Z</time>
      </trkpt>
      <trkpt lat="46.48387" lon="5.30636">
        <ele>220.60000610352</ele>
        <time>2021-03-10T13:31:07.000Z</time>
      </trkpt>
      <trkpt lat="46.48376" lon="5.30647">
        <ele>220.60000610352</ele>
        <time>2021-03-10T13:31:09.000Z</time>
      </trkpt>
      <trkpt lat="46.4837" lon="5.30652">
        <ele>220.60000610352</ele>
        <time>2021-03-10T13:31:10.000Z</time>
      </trkpt>
      <trkpt lat="46.48364" lon="5.30658">
        <ele>220.39999389648</ele>
        <time>2021-03-10T13:31:11.000Z</time>
      </trkpt>
      <trkpt lat="46.48353" lon="5.30668">
        <ele>220.19999694824</ele>
        <time>2021-03-10T13:31:13.000Z</time>
      </trkpt>
      <trkpt lat="46.48341" lon="5.30679">
        <ele>220</ele>
        <time>2021-03-10T13:31:15.000Z</time>
      </trkpt>
      <trkpt lat="46.48328" lon="5.30687">
        <ele>219.80000305176</ele>
        <time>2021-03-10T13:31:17.000Z</time>
      </trkpt>
      <trkpt lat="46.48322" lon="5.3069">
        <ele>219.80000305176</ele>
        <time>2021-03-10T13:31:18.000Z</time>
      </trkpt>
      <trkpt lat="46.48315" lon="5.30693">
        <ele>219.60000610352</ele>
        <time>2021-03-10T13:31:19.000Z</time>
      </trkpt>
      <trkpt lat="46.48309" lon="5.30694">
        <ele>219.60000610352</ele>
        <time>2021-03-10T13:31:20.000Z</time>
      </trkpt>
      <trkpt lat="46.48302" lon="5.30694">
        <ele>219.39999389648</ele>
        <time>2021-03-10T13:31:21.000Z</time>
      </trkpt>
      <trkpt lat="46.48295" lon="5.30694">
        <ele>219.39999389648</ele>
        <time>2021-03-10T13:31:22.000Z</time>
      </trkpt>
      <trkpt lat="46.48288" lon="5.30693">
        <ele>219.19999694824</ele>
        <time>2021-03-10T13:31:23.000Z</time>
      </trkpt>
      <trkpt lat="46.48282" lon="5.30692">
        <ele>219.19999694824</ele>
        <time>2021-03-10T13:31:24.000Z</time>
      </trkpt>
      <trkpt lat="46.48275" lon="5.3069">
        <ele>219.19999694824</ele>
        <time>2021-03-10T13:31:25.000Z</time>
      </trkpt>
      <trkpt lat="46.48262" lon="5.30686">
        <ele>219.19999694824</ele>
        <time>2021-03-10T13:31:27.000Z</time>
      </trkpt>
      <trkpt lat="46.48256" lon="5.30685">
        <ele>219.19999694824</ele>
        <time>2021-03-10T13:31:28.000Z</time>
      </trkpt>
      <trkpt lat="46.4825" lon="5.30683">
        <ele>219.19999694824</ele>
        <time>2021-03-10T13:31:29.000Z</time>
      </trkpt>
      <trkpt lat="46.48238" lon="5.3068">
        <ele>219.19999694824</ele>
        <time>2021-03-10T13:31:31.000Z</time>
      </trkpt>
      <trkpt lat="46.48226" lon="5.30679">
        <ele>219.19999694824</ele>
        <time>2021-03-10T13:31:33.000Z</time>
      </trkpt>
      <trkpt lat="46.4822" lon="5.3068">
        <ele>219.60000610352</ele>
        <time>2021-03-10T13:31:34.000Z</time>
      </trkpt>
      <trkpt lat="46.48215" lon="5.3068">
        <ele>219.80000305176</ele>
        <time>2021-03-10T13:31:35.000Z</time>
      </trkpt>
      <trkpt lat="46.48203" lon="5.30684">
        <ele>220.39999389648</ele>
        <time>2021-03-10T13:31:37.000Z</time>
      </trkpt>
      <trkpt lat="46.48192" lon="5.30689">
        <ele>220.80000305176</ele>
        <time>2021-03-10T13:31:39.000Z</time>
      </trkpt>
      <trkpt lat="46.48186" lon="5.30692">
        <ele>221</ele>
        <time>2021-03-10T13:31:40.000Z</time>
      </trkpt>
      <trkpt lat="46.4818" lon="5.30695">
        <ele>221.39999389648</ele>
        <time>2021-03-10T13:31:41.000Z</time>
      </trkpt>
      <trkpt lat="46.48175" lon="5.30698">
        <ele>221.60000610352</ele>
        <time>2021-03-10T13:31:42.000Z</time>
      </trkpt>
      <trkpt lat="46.48169" lon="5.30701">
        <ele>222</ele>
        <time>2021-03-10T13:31:43.000Z</time>
      </trkpt>
      <trkpt lat="46.48158" lon="5.30707">
        <ele>222.39999389648</ele>
        <time>2021-03-10T13:31:45.000Z</time>
      </trkpt>
      <trkpt lat="46.48147" lon="5.30713">
        <ele>222.60000610352</ele>
        <time>2021-03-10T13:31:47.000Z</time>
      </trkpt>
      <trkpt lat="46.48142" lon="5.30716">
        <ele>222.80000305176</ele>
        <time>2021-03-10T13:31:48.000Z</time>
      </trkpt>
      <trkpt lat="46.48136" lon="5.30719">
        <ele>223</ele>
        <time>2021-03-10T13:31:49.000Z</time>
      </trkpt>
      <trkpt lat="46.4813" lon="5.30723">
        <ele>223.39999389648</ele>
        <time>2021-03-10T13:31:50.000Z</time>
      </trkpt>
      <trkpt lat="46.48124" lon="5.30726">
        <ele>223.60000610352</ele>
        <time>2021-03-10T13:31:51.000Z</time>
      </trkpt>
      <trkpt lat="46.48113" lon="5.30733">
        <ele>224</ele>
        <time>2021-03-10T13:31:53.000Z</time>
      </trkpt>
      <trkpt lat="46.48102" lon="5.30739">
        <ele>224.19999694824</ele>
        <time>2021-03-10T13:31:55.000Z</time>
      </trkpt>
      <trkpt lat="46.48091" lon="5.30745">
        <ele>224.19999694824</ele>
        <time>2021-03-10T13:31:57.000Z</time>
      </trkpt>
      <trkpt lat="46.48086" lon="5.30748">
        <ele>224.39999389648</ele>
        <time>2021-03-10T13:31:58.000Z</time>
      </trkpt>
      <trkpt lat="46.4808" lon="5.30752">
        <ele>224.39999389648</ele>
        <time>2021-03-10T13:31:59.000Z</time>
      </trkpt>
      <trkpt lat="46.48069" lon="5.30759">
        <ele>224.39999389648</ele>
        <time>2021-03-10T13:32:01.000Z</time>
      </trkpt>
      <trkpt lat="46.48058" lon="5.30765">
        <ele>224.39999389648</ele>
        <time>2021-03-10T13:32:03.000Z</time>
      </trkpt>
      <trkpt lat="46.48046" lon="5.30772">
        <ele>224.39999389648</ele>
        <time>2021-03-10T13:32:05.000Z</time>
      </trkpt>
      <trkpt lat="46.48033" lon="5.30778">
        <ele>224.39999389648</ele>
        <time>2021-03-10T13:32:07.000Z</time>
      </trkpt>
      <trkpt lat="46.4802" lon="5.30785">
        <ele>224.39999389648</ele>
        <time>2021-03-10T13:32:09.000Z</time>
      </trkpt>
      <trkpt lat="46.48007" lon="5.30792">
        <ele>224.39999389648</ele>
        <time>2021-03-10T13:32:11.000Z</time>
      </trkpt>
      <trkpt lat="46.47993" lon="5.308">
        <ele>223.80000305176</ele>
        <time>2021-03-10T13:32:13.000Z</time>
      </trkpt>
      <trkpt lat="46.47979" lon="5.30807">
        <ele>223.39999389648</ele>
        <time>2021-03-10T13:32:15.000Z</time>
      </trkpt>
      <trkpt lat="46.47972" lon="5.3081">
        <ele>223.19999694824</ele>
        <time>2021-03-10T13:32:16.000Z</time>
      </trkpt>
      <trkpt lat="46.47965" lon="5.30813">
        <ele>223</ele>
        <time>2021-03-10T13:32:17.000Z</time>
      </trkpt>
      <trkpt lat="46.47958" lon="5.30814">
        <ele>222.80000305176</ele>
        <time>2021-03-10T13:32:18.000Z</time>
      </trkpt>
      <trkpt lat="46.47951" lon="5.30815">
        <ele>222.60000610352</ele>
        <time>2021-03-10T13:32:19.000Z</time>
      </trkpt>
      <trkpt lat="46.47937" lon="5.30815">
        <ele>222.39999389648</ele>
        <time>2021-03-10T13:32:21.000Z</time>
      </trkpt>
      <trkpt lat="46.47925" lon="5.30814">
        <ele>222.19999694824</ele>
        <time>2021-03-10T13:32:23.000Z</time>
      </trkpt>
      <trkpt lat="46.47914" lon="5.30811">
        <ele>222.19999694824</ele>
        <time>2021-03-10T13:32:25.000Z</time>
      </trkpt>
      <trkpt lat="46.47909" lon="5.30809">
        <ele>222.19999694824</ele>
        <time>2021-03-10T13:32:26.000Z</time>
      </trkpt>
      <trkpt lat="46.47904" lon="5.30807">
        <ele>222.19999694824</ele>
        <time>2021-03-10T13:32:27.000Z</time>
      </trkpt>
      <trkpt lat="46.47896" lon="5.30803">
        <ele>222.19999694824</ele>
        <time>2021-03-10T13:32:29.000Z</time>
      </trkpt>
      <trkpt lat="46.47887" lon="5.308">
        <ele>222.60000610352</ele>
        <time>2021-03-10T13:32:31.000Z</time>
      </trkpt>
      <trkpt lat="46.47879" lon="5.30798">
        <ele>223.60000610352</ele>
        <time>2021-03-10T13:32:33.000Z</time>
      </trkpt>
      <trkpt lat="46.47875" lon="5.30797">
        <ele>224</ele>
        <time>2021-03-10T13:32:34.000Z</time>
      </trkpt>
      <trkpt lat="46.47871" lon="5.30797">
        <ele>224.19999694824</ele>
        <time>2021-03-10T13:32:35.000Z</time>
      </trkpt>
      <trkpt lat="46.47863" lon="5.30796">
        <ele>224.80000305176</ele>
        <time>2021-03-10T13:32:37.000Z</time>
      </trkpt>
      <trkpt lat="46.47855" lon="5.30794">
        <ele>225.19999694824</ele>
        <time>2021-03-10T13:32:39.000Z</time>
      </trkpt>
      <trkpt lat="46.47851" lon="5.30792">
        <ele>225.60000610352</ele>
        <time>2021-03-10T13:32:40.000Z</time>
      </trkpt>
      <trkpt lat="46.47847" lon="5.30788">
        <ele>226.19999694824</ele>
        <time>2021-03-10T13:32:41.000Z</time>
      </trkpt>
      <trkpt lat="46.47843" lon="5.30784">
        <ele>226.39999389648</ele>
        <time>2021-03-10T13:32:42.000Z</time>
      </trkpt>
      <trkpt lat="46.47839" lon="5.3078">
        <ele>226.80000305176</ele>
        <time>2021-03-10T13:32:43.000Z</time>
      </trkpt>
      <trkpt lat="46.47834" lon="5.30775">
        <ele>227</ele>
        <time>2021-03-10T13:32:44.000Z</time>
      </trkpt>
      <trkpt lat="46.47828" lon="5.30771">
        <ele>227.19999694824</ele>
        <time>2021-03-10T13:32:45.000Z</time>
      </trkpt>
      <trkpt lat="46.47822" lon="5.30769">
        <ele>227.19999694824</ele>
        <time>2021-03-10T13:32:46.000Z</time>
      </trkpt>
      <trkpt lat="46.47815" lon="5.30768">
        <ele>227.19999694824</ele>
        <time>2021-03-10T13:32:47.000Z</time>
      </trkpt>
      <trkpt lat="46.478" lon="5.30768">
        <ele>227.19999694824</ele>
        <time>2021-03-10T13:32:49.000Z</time>
      </trkpt>
      <trkpt lat="46.47792" lon="5.30769">
        <ele>227.19999694824</ele>
        <time>2021-03-10T13:32:50.000Z</time>
      </trkpt>
      <trkpt lat="46.47784" lon="5.3077">
        <ele>227.19999694824</ele>
        <time>2021-03-10T13:32:51.000Z</time>
      </trkpt>
      <trkpt lat="46.4777" lon="5.30772">
        <ele>227.19999694824</ele>
        <time>2021-03-10T13:32:53.000Z</time>
      </trkpt>
      <trkpt lat="46.47756" lon="5.30774">
        <ele>226.39999389648</ele>
        <time>2021-03-10T13:32:55.000Z</time>
      </trkpt>
      <trkpt lat="46.47742" lon="5.30777">
        <ele>225.19999694824</ele>
        <time>2021-03-10T13:32:57.000Z</time>
      </trkpt>
      <trkpt lat="46.47729" lon="5.30778">
        <ele>224.39999389648</ele>
        <time>2021-03-10T13:32:59.000Z</time>
      </trkpt>
      <trkpt lat="46.47717" lon="5.3078">
        <ele>224.19999694824</ele>
        <time>2021-03-10T13:33:01.000Z</time>
      </trkpt>
      <trkpt lat="46.47705" lon="5.30783">
        <ele>224.19999694824</ele>
        <time>2021-03-10T13:33:03.000Z</time>
      </trkpt>
      <trkpt lat="46.47693" lon="5.30784">
        <ele>224.19999694824</ele>
        <time>2021-03-10T13:33:05.000Z</time>
      </trkpt>
      <trkpt lat="46.47681" lon="5.30786">
        <ele>224.39999389648</ele>
        <time>2021-03-10T13:33:07.000Z</time>
      </trkpt>
      <trkpt lat="46.47669" lon="5.30788">
        <ele>224.80000305176</ele>
        <time>2021-03-10T13:33:09.000Z</time>
      </trkpt>
      <trkpt lat="46.47657" lon="5.3079">
        <ele>225.19999694824</ele>
        <time>2021-03-10T13:33:11.000Z</time>
      </trkpt>
      <trkpt lat="46.47645" lon="5.30792">
        <ele>225.39999389648</ele>
        <time>2021-03-10T13:33:13.000Z</time>
      </trkpt>
      <trkpt lat="46.47633" lon="5.30794">
        <ele>225.60000610352</ele>
        <time>2021-03-10T13:33:15.000Z</time>
      </trkpt>
      <trkpt lat="46.4762" lon="5.30796">
        <ele>225.80000305176</ele>
        <time>2021-03-10T13:33:17.000Z</time>
      </trkpt>
      <trkpt lat="46.47614" lon="5.30797">
        <ele>225.80000305176</ele>
        <time>2021-03-10T13:33:18.000Z</time>
      </trkpt>
      <trkpt lat="46.47608" lon="5.30798">
        <ele>225.80000305176</ele>
        <time>2021-03-10T13:33:19.000Z</time>
      </trkpt>
      <trkpt lat="46.47595" lon="5.308">
        <ele>226</ele>
        <time>2021-03-10T13:33:21.000Z</time>
      </trkpt>
      <trkpt lat="46.47582" lon="5.30802">
        <ele>226</ele>
        <time>2021-03-10T13:33:23.000Z</time>
      </trkpt>
      <trkpt lat="46.4757" lon="5.30803">
        <ele>226</ele>
        <time>2021-03-10T13:33:25.000Z</time>
      </trkpt>
      <trkpt lat="46.47557" lon="5.30805">
        <ele>226</ele>
        <time>2021-03-10T13:33:27.000Z</time>
      </trkpt>
      <trkpt lat="46.47551" lon="5.30807">
        <ele>226</ele>
        <time>2021-03-10T13:33:28.000Z</time>
      </trkpt>
      <trkpt lat="46.47545" lon="5.30808">
        <ele>226</ele>
        <time>2021-03-10T13:33:29.000Z</time>
      </trkpt>
      <trkpt lat="46.47538" lon="5.30809">
        <ele>226</ele>
        <time>2021-03-10T13:33:30.000Z</time>
      </trkpt>
      <trkpt lat="46.47532" lon="5.30811">
        <ele>226</ele>
        <time>2021-03-10T13:33:31.000Z</time>
      </trkpt>
      <trkpt lat="46.47519" lon="5.30816">
        <ele>226</ele>
        <time>2021-03-10T13:33:33.000Z</time>
      </trkpt>
      <trkpt lat="46.47513" lon="5.30819">
        <ele>226</ele>
        <time>2021-03-10T13:33:34.000Z</time>
      </trkpt>
      <trkpt lat="46.47506" lon="5.30822">
        <ele>226</ele>
        <time>2021-03-10T13:33:35.000Z</time>
      </trkpt>
      <trkpt lat="46.47493" lon="5.30829">
        <ele>226</ele>
        <time>2021-03-10T13:33:37.000Z</time>
      </trkpt>
      <trkpt lat="46.47479" lon="5.30836">
        <ele>226</ele>
        <time>2021-03-10T13:33:39.000Z</time>
      </trkpt>
      <trkpt lat="46.47466" lon="5.30843">
        <ele>226</ele>
        <time>2021-03-10T13:33:41.000Z</time>
      </trkpt>
      <trkpt lat="46.47459" lon="5.30847">
        <ele>225.80000305176</ele>
        <time>2021-03-10T13:33:42.000Z</time>
      </trkpt>
      <trkpt lat="46.47452" lon="5.3085">
        <ele>225.60000610352</ele>
        <time>2021-03-10T13:33:43.000Z</time>
      </trkpt>
      <trkpt lat="46.47439" lon="5.30858">
        <ele>225.19999694824</ele>
        <time>2021-03-10T13:33:45.000Z</time>
      </trkpt>
      <trkpt lat="46.47425" lon="5.30865">
        <ele>225.19999694824</ele>
        <time>2021-03-10T13:33:47.000Z</time>
      </trkpt>
      <trkpt lat="46.47412" lon="5.30872">
        <ele>225</ele>
        <time>2021-03-10T13:33:49.000Z</time>
      </trkpt>
      <trkpt lat="46.47399" lon="5.30878">
        <ele>224.80000305176</ele>
        <time>2021-03-10T13:33:51.000Z</time>
      </trkpt>
      <trkpt lat="46.47386" lon="5.30884">
        <ele>224.80000305176</ele>
        <time>2021-03-10T13:33:53.000Z</time>
      </trkpt>
      <trkpt lat="46.47372" lon="5.30889">
        <ele>224.80000305176</ele>
        <time>2021-03-10T13:33:55.000Z</time>
      </trkpt>
      <trkpt lat="46.47359" lon="5.30893">
        <ele>224.80000305176</ele>
        <time>2021-03-10T13:33:57.000Z</time>
      </trkpt>
      <trkpt lat="46.47346" lon="5.30894">
        <ele>224.80000305176</ele>
        <time>2021-03-10T13:33:59.000Z</time>
      </trkpt>
      <trkpt lat="46.4734" lon="5.30892">
        <ele>224.80000305176</ele>
        <time>2021-03-10T13:34:00.000Z</time>
      </trkpt>
      <trkpt lat="46.47335" lon="5.30887">
        <ele>224.80000305176</ele>
        <time>2021-03-10T13:34:01.000Z</time>
      </trkpt>
      <trkpt lat="46.4733" lon="5.3087">
        <ele>224.80000305176</ele>
        <time>2021-03-10T13:34:03.000Z</time>
      </trkpt>
      <trkpt lat="46.47328" lon="5.30849">
        <ele>224.80000305176</ele>
        <time>2021-03-10T13:34:05.000Z</time>
      </trkpt>
      <trkpt lat="46.47327" lon="5.30826">
        <ele>224.80000305176</ele>
        <time>2021-03-10T13:34:07.000Z</time>
      </trkpt>
      <trkpt lat="46.47326" lon="5.30804">
        <ele>224.80000305176</ele>
        <time>2021-03-10T13:34:09.000Z</time>
      </trkpt>
      <trkpt lat="46.47324" lon="5.30782">
        <ele>224.60000610352</ele>
        <time>2021-03-10T13:34:11.000Z</time>
      </trkpt>
      <trkpt lat="46.47323" lon="5.3076">
        <ele>224.39999389648</ele>
        <time>2021-03-10T13:34:13.000Z</time>
      </trkpt>
      <trkpt lat="46.47322" lon="5.30739">
        <ele>224.19999694824</ele>
        <time>2021-03-10T13:34:15.000Z</time>
      </trkpt>
      <trkpt lat="46.4732" lon="5.30719">
        <ele>224</ele>
        <time>2021-03-10T13:34:17.000Z</time>
      </trkpt>
      <trkpt lat="46.4732" lon="5.307">
        <ele>224</ele>
        <time>2021-03-10T13:34:19.000Z</time>
      </trkpt>
      <trkpt lat="46.47319" lon="5.30682">
        <ele>224</ele>
        <time>2021-03-10T13:34:21.000Z</time>
      </trkpt>
      <trkpt lat="46.47318" lon="5.30673">
        <ele>224</ele>
        <time>2021-03-10T13:34:22.000Z</time>
      </trkpt>
      <trkpt lat="46.47317" lon="5.30664">
        <ele>224</ele>
        <time>2021-03-10T13:34:23.000Z</time>
      </trkpt>
      <trkpt lat="46.47316" lon="5.30655">
        <ele>224.19999694824</ele>
        <time>2021-03-10T13:34:24.000Z</time>
      </trkpt>
      <trkpt lat="46.47313" lon="5.30646">
        <ele>224.39999389648</ele>
        <time>2021-03-10T13:34:25.000Z</time>
      </trkpt>
      <trkpt lat="46.47309" lon="5.30638">
        <ele>224.80000305176</ele>
        <time>2021-03-10T13:34:26.000Z</time>
      </trkpt>
      <trkpt lat="46.47305" lon="5.30631">
        <ele>224.80000305176</ele>
        <time>2021-03-10T13:34:27.000Z</time>
      </trkpt>
      <trkpt lat="46.47296" lon="5.3062">
        <ele>225</ele>
        <time>2021-03-10T13:34:29.000Z</time>
      </trkpt>
      <trkpt lat="46.47291" lon="5.30614">
        <ele>225</ele>
        <time>2021-03-10T13:34:30.000Z</time>
      </trkpt>
      <trkpt lat="46.47286" lon="5.30609">
        <ele>225.19999694824</ele>
        <time>2021-03-10T13:34:31.000Z</time>
      </trkpt>
      <trkpt lat="46.47282" lon="5.30603">
        <ele>225.19999694824</ele>
        <time>2021-03-10T13:34:32.000Z</time>
      </trkpt>
      <trkpt lat="46.47277" lon="5.30597">
        <ele>225.19999694824</ele>
        <time>2021-03-10T13:34:33.000Z</time>
      </trkpt>
      <trkpt lat="46.47268" lon="5.30585">
        <ele>225.19999694824</ele>
        <time>2021-03-10T13:34:35.000Z</time>
      </trkpt>
      <trkpt lat="46.47258" lon="5.30575">
        <ele>225.19999694824</ele>
        <time>2021-03-10T13:34:37.000Z</time>
      </trkpt>
      <trkpt lat="46.47248" lon="5.30566">
        <ele>225</ele>
        <time>2021-03-10T13:34:39.000Z</time>
      </trkpt>
      <trkpt lat="46.47237" lon="5.30559">
        <ele>225</ele>
        <time>2021-03-10T13:34:41.000Z</time>
      </trkpt>
      <trkpt lat="46.47231" lon="5.30556">
        <ele>224.80000305176</ele>
        <time>2021-03-10T13:34:42.000Z</time>
      </trkpt>
      <trkpt lat="46.47225" lon="5.30554">
        <ele>224.80000305176</ele>
        <time>2021-03-10T13:34:43.000Z</time>
      </trkpt>
      <trkpt lat="46.47212" lon="5.30553">
        <ele>224.80000305176</ele>
        <time>2021-03-10T13:34:45.000Z</time>
      </trkpt>
      <trkpt lat="46.47206" lon="5.30553">
        <ele>224.80000305176</ele>
        <time>2021-03-10T13:34:46.000Z</time>
      </trkpt>
      <trkpt lat="46.472" lon="5.30554">
        <ele>224.80000305176</ele>
        <time>2021-03-10T13:34:47.000Z</time>
      </trkpt>
      <trkpt lat="46.47187" lon="5.30556">
        <ele>225</ele>
        <time>2021-03-10T13:34:49.000Z</time>
      </trkpt>
      <trkpt lat="46.47175" lon="5.30557">
        <ele>225.19999694824</ele>
        <time>2021-03-10T13:34:51.000Z</time>
      </trkpt>
      <trkpt lat="46.47163" lon="5.30555">
        <ele>225.39999389648</ele>
        <time>2021-03-10T13:34:53.000Z</time>
      </trkpt>
      <trkpt lat="46.47151" lon="5.30552">
        <ele>225.39999389648</ele>
        <time>2021-03-10T13:34:55.000Z</time>
      </trkpt>
      <trkpt lat="46.47139" lon="5.30547">
        <ele>225.80000305176</ele>
        <time>2021-03-10T13:34:57.000Z</time>
      </trkpt>
      <trkpt lat="46.47128" lon="5.30542">
        <ele>226</ele>
        <time>2021-03-10T13:34:59.000Z</time>
      </trkpt>
      <trkpt lat="46.47122" lon="5.30539">
        <ele>226</ele>
        <time>2021-03-10T13:35:00.000Z</time>
      </trkpt>
      <trkpt lat="46.47116" lon="5.30536">
        <ele>226.19999694824</ele>
        <time>2021-03-10T13:35:01.000Z</time>
      </trkpt>
      <trkpt lat="46.4711" lon="5.30532">
        <ele>226.19999694824</ele>
        <time>2021-03-10T13:35:02.000Z</time>
      </trkpt>
      <trkpt lat="46.47104" lon="5.30529">
        <ele>226.19999694824</ele>
        <time>2021-03-10T13:35:03.000Z</time>
      </trkpt>
      <trkpt lat="46.47093" lon="5.30522">
        <ele>226.19999694824</ele>
        <time>2021-03-10T13:35:05.000Z</time>
      </trkpt>
      <trkpt lat="46.47082" lon="5.30513">
        <ele>226.19999694824</ele>
        <time>2021-03-10T13:35:07.000Z</time>
      </trkpt>
      <trkpt lat="46.47077" lon="5.30508">
        <ele>226.19999694824</ele>
        <time>2021-03-10T13:35:08.000Z</time>
      </trkpt>
      <trkpt lat="46.47071" lon="5.30503">
        <ele>226.19999694824</ele>
        <time>2021-03-10T13:35:09.000Z</time>
      </trkpt>
      <trkpt lat="46.4706" lon="5.30493">
        <ele>226.19999694824</ele>
        <time>2021-03-10T13:35:11.000Z</time>
      </trkpt>
      <trkpt lat="46.47048" lon="5.30482">
        <ele>226.19999694824</ele>
        <time>2021-03-10T13:35:13.000Z</time>
      </trkpt>
      <trkpt lat="46.47035" lon="5.30472">
        <ele>226.19999694824</ele>
        <time>2021-03-10T13:35:15.000Z</time>
      </trkpt>
      <trkpt lat="46.47029" lon="5.30466">
        <ele>226.19999694824</ele>
        <time>2021-03-10T13:35:16.000Z</time>
      </trkpt>
      <trkpt lat="46.47022" lon="5.30461">
        <ele>226.19999694824</ele>
        <time>2021-03-10T13:35:17.000Z</time>
      </trkpt>
      <trkpt lat="46.4701" lon="5.3045">
        <ele>226</ele>
        <time>2021-03-10T13:35:19.000Z</time>
      </trkpt>
      <trkpt lat="46.46998" lon="5.3044">
        <ele>225.80000305176</ele>
        <time>2021-03-10T13:35:21.000Z</time>
      </trkpt>
      <trkpt lat="46.46985" lon="5.30429">
        <ele>225.60000610352</ele>
        <time>2021-03-10T13:35:23.000Z</time>
      </trkpt>
      <trkpt lat="46.46973" lon="5.30419">
        <ele>225.39999389648</ele>
        <time>2021-03-10T13:35:25.000Z</time>
      </trkpt>
      <trkpt lat="46.4696" lon="5.30409">
        <ele>225.19999694824</ele>
        <time>2021-03-10T13:35:27.000Z</time>
      </trkpt>
      <trkpt lat="46.46946" lon="5.304">
        <ele>225.19999694824</ele>
        <time>2021-03-10T13:35:29.000Z</time>
      </trkpt>
      <trkpt lat="46.46939" lon="5.30397">
        <ele>225.19999694824</ele>
        <time>2021-03-10T13:35:30.000Z</time>
      </trkpt>
      <trkpt lat="46.46932" lon="5.30394">
        <ele>225.19999694824</ele>
        <time>2021-03-10T13:35:31.000Z</time>
      </trkpt>
      <trkpt lat="46.46918" lon="5.30389">
        <ele>225</ele>
        <time>2021-03-10T13:35:33.000Z</time>
      </trkpt>
      <trkpt lat="46.46904" lon="5.30383">
        <ele>224.80000305176</ele>
        <time>2021-03-10T13:35:35.000Z</time>
      </trkpt>
      <trkpt lat="46.4689" lon="5.30377">
        <ele>224.80000305176</ele>
        <time>2021-03-10T13:35:37.000Z</time>
      </trkpt>
      <trkpt lat="46.46878" lon="5.3037">
        <ele>224.80000305176</ele>
        <time>2021-03-10T13:35:39.000Z</time>
      </trkpt>
      <trkpt lat="46.46866" lon="5.3036">
        <ele>224.80000305176</ele>
        <time>2021-03-10T13:35:41.000Z</time>
      </trkpt>
      <trkpt lat="46.46855" lon="5.30349">
        <ele>224.80000305176</ele>
        <time>2021-03-10T13:35:43.000Z</time>
      </trkpt>
      <trkpt lat="46.46844" lon="5.30337">
        <ele>225</ele>
        <time>2021-03-10T13:35:45.000Z</time>
      </trkpt>
      <trkpt lat="46.46834" lon="5.30324">
        <ele>225.19999694824</ele>
        <time>2021-03-10T13:35:47.000Z</time>
      </trkpt>
      <trkpt lat="46.46824" lon="5.30311">
        <ele>225.19999694824</ele>
        <time>2021-03-10T13:35:49.000Z</time>
      </trkpt>
      <trkpt lat="46.46813" lon="5.30299">
        <ele>225.19999694824</ele>
        <time>2021-03-10T13:35:51.000Z</time>
      </trkpt>
      <trkpt lat="46.46803" lon="5.30287">
        <ele>225.60000610352</ele>
        <time>2021-03-10T13:35:53.000Z</time>
      </trkpt>
      <trkpt lat="46.46793" lon="5.30275">
        <ele>225.39999389648</ele>
        <time>2021-03-10T13:35:55.000Z</time>
      </trkpt>
      <trkpt lat="46.46783" lon="5.30262">
        <ele>225.39999389648</ele>
        <time>2021-03-10T13:35:57.000Z</time>
      </trkpt>
      <trkpt lat="46.46772" lon="5.3025">
        <ele>225.39999389648</ele>
        <time>2021-03-10T13:35:59.000Z</time>
      </trkpt>
      <trkpt lat="46.46762" lon="5.30238">
        <ele>225.60000610352</ele>
        <time>2021-03-10T13:36:01.000Z</time>
      </trkpt>
      <trkpt lat="46.46752" lon="5.30225">
        <ele>225.60000610352</ele>
        <time>2021-03-10T13:36:03.000Z</time>
      </trkpt>
      <trkpt lat="46.46747" lon="5.30219">
        <ele>225.60000610352</ele>
        <time>2021-03-10T13:36:04.000Z</time>
      </trkpt>
      <trkpt lat="46.46743" lon="5.30211">
        <ele>225.60000610352</ele>
        <time>2021-03-10T13:36:05.000Z</time>
      </trkpt>
      <trkpt lat="46.46735" lon="5.30193">
        <ele>225.60000610352</ele>
        <time>2021-03-10T13:36:07.000Z</time>
      </trkpt>
      <trkpt lat="46.46732" lon="5.30184">
        <ele>225.60000610352</ele>
        <time>2021-03-10T13:36:08.000Z</time>
      </trkpt>
      <trkpt lat="46.4673" lon="5.30174">
        <ele>225.39999389648</ele>
        <time>2021-03-10T13:36:09.000Z</time>
      </trkpt>
      <trkpt lat="46.46725" lon="5.30154">
        <ele>225.39999389648</ele>
        <time>2021-03-10T13:36:11.000Z</time>
      </trkpt>
      <trkpt lat="46.46719" lon="5.30133">
        <ele>225.39999389648</ele>
        <time>2021-03-10T13:36:13.000Z</time>
      </trkpt>
      <trkpt lat="46.46714" lon="5.30112">
        <ele>225.19999694824</ele>
        <time>2021-03-10T13:36:15.000Z</time>
      </trkpt>
      <trkpt lat="46.46709" lon="5.3009">
        <ele>225</ele>
        <time>2021-03-10T13:36:17.000Z</time>
      </trkpt>
      <trkpt lat="46.46703" lon="5.30069">
        <ele>224.80000305176</ele>
        <time>2021-03-10T13:36:19.000Z</time>
      </trkpt>
      <trkpt lat="46.46698" lon="5.30047">
        <ele>224.80000305176</ele>
        <time>2021-03-10T13:36:21.000Z</time>
      </trkpt>
      <trkpt lat="46.46692" lon="5.30027">
        <ele>224.60000610352</ele>
        <time>2021-03-10T13:36:23.000Z</time>
      </trkpt>
      <trkpt lat="46.46687" lon="5.30008">
        <ele>224.39999389648</ele>
        <time>2021-03-10T13:36:25.000Z</time>
      </trkpt>
      <trkpt lat="46.46682" lon="5.29991">
        <ele>224.39999389648</ele>
        <time>2021-03-10T13:36:27.000Z</time>
      </trkpt>
      <trkpt lat="46.46678" lon="5.29974">
        <ele>224.39999389648</ele>
        <time>2021-03-10T13:36:29.000Z</time>
      </trkpt>
      <trkpt lat="46.46673" lon="5.29958">
        <ele>224.39999389648</ele>
        <time>2021-03-10T13:36:31.000Z</time>
      </trkpt>
      <trkpt lat="46.46668" lon="5.29941">
        <ele>224.60000610352</ele>
        <time>2021-03-10T13:36:33.000Z</time>
      </trkpt>
      <trkpt lat="46.46664" lon="5.29924">
        <ele>225</ele>
        <time>2021-03-10T13:36:35.000Z</time>
      </trkpt>
      <trkpt lat="46.46659" lon="5.29907">
        <ele>225.39999389648</ele>
        <time>2021-03-10T13:36:37.000Z</time>
      </trkpt>
      <trkpt lat="46.46655" lon="5.2989">
        <ele>225.60000610352</ele>
        <time>2021-03-10T13:36:39.000Z</time>
      </trkpt>
      <trkpt lat="46.4665" lon="5.29873">
        <ele>225.80000305176</ele>
        <time>2021-03-10T13:36:41.000Z</time>
      </trkpt>
      <trkpt lat="46.46646" lon="5.29856">
        <ele>226.19999694824</ele>
        <time>2021-03-10T13:36:43.000Z</time>
      </trkpt>
      <trkpt lat="46.46644" lon="5.29847">
        <ele>226.39999389648</ele>
        <time>2021-03-10T13:36:44.000Z</time>
      </trkpt>
      <trkpt lat="46.46641" lon="5.29838">
        <ele>226.60000610352</ele>
        <time>2021-03-10T13:36:45.000Z</time>
      </trkpt>
      <trkpt lat="46.46637" lon="5.29821">
        <ele>226.60000610352</ele>
        <time>2021-03-10T13:36:47.000Z</time>
      </trkpt>
      <trkpt lat="46.46634" lon="5.29807">
        <ele>226.60000610352</ele>
        <time>2021-03-10T13:36:49.000Z</time>
      </trkpt>
      <trkpt lat="46.46632" lon="5.29799">
        <ele>226.60000610352</ele>
        <time>2021-03-10T13:36:50.000Z</time>
      </trkpt>
      <trkpt lat="46.46629" lon="5.29791">
        <ele>226.60000610352</ele>
        <time>2021-03-10T13:36:51.000Z</time>
      </trkpt>
      <trkpt lat="46.46624" lon="5.29774">
        <ele>226.60000610352</ele>
        <time>2021-03-10T13:36:53.000Z</time>
      </trkpt>
      <trkpt lat="46.46619" lon="5.29755">
        <ele>226.60000610352</ele>
        <time>2021-03-10T13:36:55.000Z</time>
      </trkpt>
      <trkpt lat="46.46614" lon="5.29734">
        <ele>226.60000610352</ele>
        <time>2021-03-10T13:36:57.000Z</time>
      </trkpt>
      <trkpt lat="46.46608" lon="5.29713">
        <ele>226.39999389648</ele>
        <time>2021-03-10T13:36:59.000Z</time>
      </trkpt>
      <trkpt lat="46.46603" lon="5.29692">
        <ele>226.39999389648</ele>
        <time>2021-03-10T13:37:01.000Z</time>
      </trkpt>
      <trkpt lat="46.46598" lon="5.2967">
        <ele>226</ele>
        <time>2021-03-10T13:37:03.000Z</time>
      </trkpt>
      <trkpt lat="46.46592" lon="5.29649">
        <ele>225.80000305176</ele>
        <time>2021-03-10T13:37:05.000Z</time>
      </trkpt>
      <trkpt lat="46.46587" lon="5.29628">
        <ele>225.80000305176</ele>
        <time>2021-03-10T13:37:07.000Z</time>
      </trkpt>
      <trkpt lat="46.46581" lon="5.29607">
        <ele>225.60000610352</ele>
        <time>2021-03-10T13:37:09.000Z</time>
      </trkpt>
      <trkpt lat="46.46576" lon="5.29586">
        <ele>225.19999694824</ele>
        <time>2021-03-10T13:37:11.000Z</time>
      </trkpt>
      <trkpt lat="46.46573" lon="5.29575">
        <ele>225</ele>
        <time>2021-03-10T13:37:12.000Z</time>
      </trkpt>
      <trkpt lat="46.46571" lon="5.29564">
        <ele>225</ele>
        <time>2021-03-10T13:37:13.000Z</time>
      </trkpt>
      <trkpt lat="46.46566" lon="5.29542">
        <ele>224.80000305176</ele>
        <time>2021-03-10T13:37:15.000Z</time>
      </trkpt>
      <trkpt lat="46.4656" lon="5.2952">
        <ele>224.60000610352</ele>
        <time>2021-03-10T13:37:17.000Z</time>
      </trkpt>
      <trkpt lat="46.46554" lon="5.29499">
        <ele>223.80000305176</ele>
        <time>2021-03-10T13:37:19.000Z</time>
      </trkpt>
      <trkpt lat="46.46548" lon="5.29479">
        <ele>223</ele>
        <time>2021-03-10T13:37:21.000Z</time>
      </trkpt>
      <trkpt lat="46.46546" lon="5.29469">
        <ele>222.80000305176</ele>
        <time>2021-03-10T13:37:22.000Z</time>
      </trkpt>
      <trkpt lat="46.46543" lon="5.2946">
        <ele>222.60000610352</ele>
        <time>2021-03-10T13:37:23.000Z</time>
      </trkpt>
      <trkpt lat="46.46539" lon="5.29441">
        <ele>222.60000610352</ele>
        <time>2021-03-10T13:37:25.000Z</time>
      </trkpt>
      <trkpt lat="46.46534" lon="5.29422">
        <ele>222.60000610352</ele>
        <time>2021-03-10T13:37:27.000Z</time>
      </trkpt>
      <trkpt lat="46.46532" lon="5.29413">
        <ele>222.60000610352</ele>
        <time>2021-03-10T13:37:28.000Z</time>
      </trkpt>
      <trkpt lat="46.4653" lon="5.29404">
        <ele>222.60000610352</ele>
        <time>2021-03-10T13:37:29.000Z</time>
      </trkpt>
      <trkpt lat="46.46526" lon="5.29385">
        <ele>222.60000610352</ele>
        <time>2021-03-10T13:37:31.000Z</time>
      </trkpt>
      <trkpt lat="46.46523" lon="5.29368">
        <ele>222.60000610352</ele>
        <time>2021-03-10T13:37:33.000Z</time>
      </trkpt>
      <trkpt lat="46.46518" lon="5.29349">
        <ele>222.80000305176</ele>
        <time>2021-03-10T13:37:35.000Z</time>
      </trkpt>
      <trkpt lat="46.46514" lon="5.29331">
        <ele>222.80000305176</ele>
        <time>2021-03-10T13:37:37.000Z</time>
      </trkpt>
      <trkpt lat="46.46511" lon="5.29313">
        <ele>222.80000305176</ele>
        <time>2021-03-10T13:37:39.000Z</time>
      </trkpt>
      <trkpt lat="46.46507" lon="5.29295">
        <ele>223</ele>
        <time>2021-03-10T13:37:41.000Z</time>
      </trkpt>
      <trkpt lat="46.46504" lon="5.29278">
        <ele>223</ele>
        <time>2021-03-10T13:37:43.000Z</time>
      </trkpt>
      <trkpt lat="46.465" lon="5.29261">
        <ele>223</ele>
        <time>2021-03-10T13:37:45.000Z</time>
      </trkpt>
      <trkpt lat="46.46497" lon="5.29245">
        <ele>223</ele>
        <time>2021-03-10T13:37:47.000Z</time>
      </trkpt>
      <trkpt lat="46.46494" lon="5.29228">
        <ele>223</ele>
        <time>2021-03-10T13:37:49.000Z</time>
      </trkpt>
      <trkpt lat="46.46491" lon="5.29212">
        <ele>223.19999694824</ele>
        <time>2021-03-10T13:37:51.000Z</time>
      </trkpt>
      <trkpt lat="46.46489" lon="5.29204">
        <ele>223.39999389648</ele>
        <time>2021-03-10T13:37:52.000Z</time>
      </trkpt>
      <trkpt lat="46.46488" lon="5.29196">
        <ele>223.60000610352</ele>
        <time>2021-03-10T13:37:53.000Z</time>
      </trkpt>
      <trkpt lat="46.46485" lon="5.2918">
        <ele>223.80000305176</ele>
        <time>2021-03-10T13:37:55.000Z</time>
      </trkpt>
      <trkpt lat="46.46483" lon="5.29172">
        <ele>224</ele>
        <time>2021-03-10T13:37:56.000Z</time>
      </trkpt>
      <trkpt lat="46.46481" lon="5.29164">
        <ele>224.19999694824</ele>
        <time>2021-03-10T13:37:57.000Z</time>
      </trkpt>
      <trkpt lat="46.46478" lon="5.29148">
        <ele>224.39999389648</ele>
        <time>2021-03-10T13:37:59.000Z</time>
      </trkpt>
      <trkpt lat="46.46474" lon="5.29132">
        <ele>224.80000305176</ele>
        <time>2021-03-10T13:38:01.000Z</time>
      </trkpt>
      <trkpt lat="46.46471" lon="5.29115">
        <ele>225.39999389648</ele>
        <time>2021-03-10T13:38:03.000Z</time>
      </trkpt>
      <trkpt lat="46.46467" lon="5.29099">
        <ele>225.80000305176</ele>
        <time>2021-03-10T13:38:05.000Z</time>
      </trkpt>
      <trkpt lat="46.46463" lon="5.29082">
        <ele>226.19999694824</ele>
        <time>2021-03-10T13:38:07.000Z</time>
      </trkpt>
      <trkpt lat="46.4646" lon="5.29064">
        <ele>226.19999694824</ele>
        <time>2021-03-10T13:38:09.000Z</time>
      </trkpt>
      <trkpt lat="46.46458" lon="5.29056">
        <ele>226.39999389648</ele>
        <time>2021-03-10T13:38:10.000Z</time>
      </trkpt>
      <trkpt lat="46.46456" lon="5.29048">
        <ele>226.39999389648</ele>
        <time>2021-03-10T13:38:11.000Z</time>
      </trkpt>
      <trkpt lat="46.46452" lon="5.29031">
        <ele>226.39999389648</ele>
        <time>2021-03-10T13:38:13.000Z</time>
      </trkpt>
      <trkpt lat="46.46449" lon="5.29015">
        <ele>226.39999389648</ele>
        <time>2021-03-10T13:38:15.000Z</time>
      </trkpt>
      <trkpt lat="46.46445" lon="5.28997">
        <ele>226.39999389648</ele>
        <time>2021-03-10T13:38:17.000Z</time>
      </trkpt>
      <trkpt lat="46.46442" lon="5.2898">
        <ele>226.39999389648</ele>
        <time>2021-03-10T13:38:19.000Z</time>
      </trkpt>
      <trkpt lat="46.46438" lon="5.28962">
        <ele>226.39999389648</ele>
        <time>2021-03-10T13:38:21.000Z</time>
      </trkpt>
      <trkpt lat="46.46434" lon="5.28943">
        <ele>226.19999694824</ele>
        <time>2021-03-10T13:38:23.000Z</time>
      </trkpt>
      <trkpt lat="46.4643" lon="5.28923">
        <ele>226.19999694824</ele>
        <time>2021-03-10T13:38:25.000Z</time>
      </trkpt>
      <trkpt lat="46.46425" lon="5.28904">
        <ele>226</ele>
        <time>2021-03-10T13:38:27.000Z</time>
      </trkpt>
      <trkpt lat="46.46421" lon="5.28884">
        <ele>225.80000305176</ele>
        <time>2021-03-10T13:38:29.000Z</time>
      </trkpt>
      <trkpt lat="46.46415" lon="5.28865">
        <ele>225.39999389648</ele>
        <time>2021-03-10T13:38:31.000Z</time>
      </trkpt>
      <trkpt lat="46.46412" lon="5.28856">
        <ele>225.39999389648</ele>
        <time>2021-03-10T13:38:32.000Z</time>
      </trkpt>
      <trkpt lat="46.46409" lon="5.28847">
        <ele>225.19999694824</ele>
        <time>2021-03-10T13:38:33.000Z</time>
      </trkpt>
      <trkpt lat="46.46401" lon="5.2883">
        <ele>224.60000610352</ele>
        <time>2021-03-10T13:38:35.000Z</time>
      </trkpt>
      <trkpt lat="46.46393" lon="5.28814">
        <ele>224.39999389648</ele>
        <time>2021-03-10T13:38:37.000Z</time>
      </trkpt>
      <trkpt lat="46.46389" lon="5.28807">
        <ele>224.19999694824</ele>
        <time>2021-03-10T13:38:38.000Z</time>
      </trkpt>
      <trkpt lat="46.46384" lon="5.288">
        <ele>224.19999694824</ele>
        <time>2021-03-10T13:38:39.000Z</time>
      </trkpt>
      <trkpt lat="46.46373" lon="5.28789">
        <ele>224.19999694824</ele>
        <time>2021-03-10T13:38:41.000Z</time>
      </trkpt>
      <trkpt lat="46.46361" lon="5.28778">
        <ele>224</ele>
        <time>2021-03-10T13:38:43.000Z</time>
      </trkpt>
      <trkpt lat="46.46354" lon="5.28774">
        <ele>223.80000305176</ele>
        <time>2021-03-10T13:38:44.000Z</time>
      </trkpt>
      <trkpt lat="46.46348" lon="5.28769">
        <ele>223.60000610352</ele>
        <time>2021-03-10T13:38:45.000Z</time>
      </trkpt>
      <trkpt lat="46.46334" lon="5.2876">
        <ele>223.80000305176</ele>
        <time>2021-03-10T13:38:47.000Z</time>
      </trkpt>
      <trkpt lat="46.4632" lon="5.28751">
        <ele>223.60000610352</ele>
        <time>2021-03-10T13:38:49.000Z</time>
      </trkpt>
      <trkpt lat="46.46306" lon="5.28741">
        <ele>223.39999389648</ele>
        <time>2021-03-10T13:38:51.000Z</time>
      </trkpt>
      <trkpt lat="46.46299" lon="5.28736">
        <ele>223</ele>
        <time>2021-03-10T13:38:52.000Z</time>
      </trkpt>
      <trkpt lat="46.46292" lon="5.28732">
        <ele>222.60000610352</ele>
        <time>2021-03-10T13:38:53.000Z</time>
      </trkpt>
      <trkpt lat="46.46278" lon="5.28724">
        <ele>222</ele>
        <time>2021-03-10T13:38:55.000Z</time>
      </trkpt>
      <trkpt lat="46.46271" lon="5.28719">
        <ele>221.60000610352</ele>
        <time>2021-03-10T13:38:56.000Z</time>
      </trkpt>
      <trkpt lat="46.46264" lon="5.28715">
        <ele>221</ele>
        <time>2021-03-10T13:38:57.000Z</time>
      </trkpt>
      <trkpt lat="46.46256" lon="5.28711">
        <ele>220.60000610352</ele>
        <time>2021-03-10T13:38:58.000Z</time>
      </trkpt>
      <trkpt lat="46.46249" lon="5.28706">
        <ele>220.39999389648</ele>
        <time>2021-03-10T13:38:59.000Z</time>
      </trkpt>
      <trkpt lat="46.46242" lon="5.287">
        <ele>220.19999694824</ele>
        <time>2021-03-10T13:39:00.000Z</time>
      </trkpt>
      <trkpt lat="46.46236" lon="5.28692">
        <ele>219.80000305176</ele>
        <time>2021-03-10T13:39:01.000Z</time>
      </trkpt>
      <trkpt lat="46.46227" lon="5.2867">
        <ele>219.39999389648</ele>
        <time>2021-03-10T13:39:03.000Z</time>
      </trkpt>
      <trkpt lat="46.46224" lon="5.28658">
        <ele>219</ele>
        <time>2021-03-10T13:39:04.000Z</time>
      </trkpt>
      <trkpt lat="46.46223" lon="5.28645">
        <ele>218.80000305176</ele>
        <time>2021-03-10T13:39:05.000Z</time>
      </trkpt>
      <trkpt lat="46.46218" lon="5.28619">
        <ele>218.19999694824</ele>
        <time>2021-03-10T13:39:07.000Z</time>
      </trkpt>
      <trkpt lat="46.46214" lon="5.28591">
        <ele>217</ele>
        <time>2021-03-10T13:39:09.000Z</time>
      </trkpt>
      <trkpt lat="46.46211" lon="5.28577">
        <ele>216.19999694824</ele>
        <time>2021-03-10T13:39:10.000Z</time>
      </trkpt>
      <trkpt lat="46.46209" lon="5.28563">
        <ele>215.39999389648</ele>
        <time>2021-03-10T13:39:11.000Z</time>
      </trkpt>
      <trkpt lat="46.46205" lon="5.28534">
        <ele>213.39999389648</ele>
        <time>2021-03-10T13:39:13.000Z</time>
      </trkpt>
      <trkpt lat="46.46201" lon="5.28505">
        <ele>211.80000305176</ele>
        <time>2021-03-10T13:39:15.000Z</time>
      </trkpt>
      <trkpt lat="46.46196" lon="5.28475">
        <ele>210.80000305176</ele>
        <time>2021-03-10T13:39:17.000Z</time>
      </trkpt>
      <trkpt lat="46.46194" lon="5.2846">
        <ele>210</ele>
        <time>2021-03-10T13:39:18.000Z</time>
      </trkpt>
      <trkpt lat="46.46192" lon="5.28445">
        <ele>209.19999694824</ele>
        <time>2021-03-10T13:39:19.000Z</time>
      </trkpt>
      <trkpt lat="46.4619" lon="5.2843">
        <ele>208.80000305176</ele>
        <time>2021-03-10T13:39:20.000Z</time>
      </trkpt>
      <trkpt lat="46.46188" lon="5.28415">
        <ele>208.39999389648</ele>
        <time>2021-03-10T13:39:21.000Z</time>
      </trkpt>
      <trkpt lat="46.46184" lon="5.28386">
        <ele>207.60000610352</ele>
        <time>2021-03-10T13:39:23.000Z</time>
      </trkpt>
      <trkpt lat="46.4618" lon="5.28358">
        <ele>206.60000610352</ele>
        <time>2021-03-10T13:39:25.000Z</time>
      </trkpt>
      <trkpt lat="46.46178" lon="5.28345">
        <ele>205.80000305176</ele>
        <time>2021-03-10T13:39:26.000Z</time>
      </trkpt>
      <trkpt lat="46.46176" lon="5.28333">
        <ele>205.19999694824</ele>
        <time>2021-03-10T13:39:27.000Z</time>
      </trkpt>
      <trkpt lat="46.46173" lon="5.28309">
        <ele>205</ele>
        <time>2021-03-10T13:39:29.000Z</time>
      </trkpt>
      <trkpt lat="46.46171" lon="5.28287">
        <ele>204.80000305176</ele>
        <time>2021-03-10T13:39:31.000Z</time>
      </trkpt>
      <trkpt lat="46.4617" lon="5.28267">
        <ele>204.80000305176</ele>
        <time>2021-03-10T13:39:33.000Z</time>
      </trkpt>
      <trkpt lat="46.4617" lon="5.28249">
        <ele>204.80000305176</ele>
        <time>2021-03-10T13:39:35.000Z</time>
      </trkpt>
      <trkpt lat="46.46171" lon="5.28241">
        <ele>205.19999694824</ele>
        <time>2021-03-10T13:39:36.000Z</time>
      </trkpt>
      <trkpt lat="46.46172" lon="5.28232">
        <ele>205.60000610352</ele>
        <time>2021-03-10T13:39:37.000Z</time>
      </trkpt>
      <trkpt lat="46.46175" lon="5.28216">
        <ele>206.60000610352</ele>
        <time>2021-03-10T13:39:39.000Z</time>
      </trkpt>
      <trkpt lat="46.46178" lon="5.282">
        <ele>207.80000305176</ele>
        <time>2021-03-10T13:39:41.000Z</time>
      </trkpt>
      <trkpt lat="46.46179" lon="5.28192">
        <ele>208.19999694824</ele>
        <time>2021-03-10T13:39:42.000Z</time>
      </trkpt>
      <trkpt lat="46.46181" lon="5.28184">
        <ele>208.60000610352</ele>
        <time>2021-03-10T13:39:43.000Z</time>
      </trkpt>
      <trkpt lat="46.46182" lon="5.28176">
        <ele>209.19999694824</ele>
        <time>2021-03-10T13:39:44.000Z</time>
      </trkpt>
      <trkpt lat="46.46183" lon="5.28169">
        <ele>209.60000610352</ele>
        <time>2021-03-10T13:39:45.000Z</time>
      </trkpt>
      <trkpt lat="46.46186" lon="5.28152">
        <ele>210.19999694824</ele>
        <time>2021-03-10T13:39:47.000Z</time>
      </trkpt>
      <trkpt lat="46.46188" lon="5.28134">
        <ele>210.80000305176</ele>
        <time>2021-03-10T13:39:49.000Z</time>
      </trkpt>
      <trkpt lat="46.4619" lon="5.28124">
        <ele>210.80000305176</ele>
        <time>2021-03-10T13:39:50.000Z</time>
      </trkpt>
      <trkpt lat="46.4619" lon="5.28115">
        <ele>211</ele>
        <time>2021-03-10T13:39:51.000Z</time>
      </trkpt>
      <trkpt lat="46.46192" lon="5.28095">
        <ele>211</ele>
        <time>2021-03-10T13:39:53.000Z</time>
      </trkpt>
      <trkpt lat="46.46193" lon="5.28076">
        <ele>211</ele>
        <time>2021-03-10T13:39:55.000Z</time>
      </trkpt>
      <trkpt lat="46.46195" lon="5.28058">
        <ele>211.19999694824</ele>
        <time>2021-03-10T13:39:57.000Z</time>
      </trkpt>
      <trkpt lat="46.46196" lon="5.2804">
        <ele>211</ele>
        <time>2021-03-10T13:39:59.000Z</time>
      </trkpt>
      <trkpt lat="46.46197" lon="5.28023">
        <ele>211</ele>
        <time>2021-03-10T13:40:01.000Z</time>
      </trkpt>
      <trkpt lat="46.46197" lon="5.28017">
        <ele>211</ele>
        <time>2021-03-10T13:40:02.000Z</time>
      </trkpt>
      <trkpt lat="46.46195" lon="5.2801">
        <ele>211</ele>
        <time>2021-03-10T13:40:03.000Z</time>
      </trkpt>
      <trkpt lat="46.46186" lon="5.28">
        <ele>211</ele>
        <time>2021-03-10T13:40:05.000Z</time>
      </trkpt>
      <trkpt lat="46.46181" lon="5.27996">
        <ele>211</ele>
        <time>2021-03-10T13:40:06.000Z</time>
      </trkpt>
      <trkpt lat="46.46175" lon="5.27992">
        <ele>211</ele>
        <time>2021-03-10T13:40:07.000Z</time>
      </trkpt>
      <trkpt lat="46.46161" lon="5.27981">
        <ele>210.80000305176</ele>
        <time>2021-03-10T13:40:09.000Z</time>
      </trkpt>
      <trkpt lat="46.46147" lon="5.27969">
        <ele>210.80000305176</ele>
        <time>2021-03-10T13:40:11.000Z</time>
      </trkpt>
      <trkpt lat="46.46139" lon="5.2796">
        <ele>210.80000305176</ele>
        <time>2021-03-10T13:40:12.000Z</time>
      </trkpt>
      <trkpt lat="46.46134" lon="5.27949">
        <ele>210.80000305176</ele>
        <time>2021-03-10T13:40:13.000Z</time>
      </trkpt>
      <trkpt lat="46.4613" lon="5.27936">
        <ele>210.80000305176</ele>
        <time>2021-03-10T13:40:14.000Z</time>
      </trkpt>
      <trkpt lat="46.46128" lon="5.27922">
        <ele>210.39999389648</ele>
        <time>2021-03-10T13:40:15.000Z</time>
      </trkpt>
      <trkpt lat="46.46127" lon="5.27891">
        <ele>208.60000610352</ele>
        <time>2021-03-10T13:40:17.000Z</time>
      </trkpt>
      <trkpt lat="46.46126" lon="5.27875">
        <ele>207.39999389648</ele>
        <time>2021-03-10T13:40:18.000Z</time>
      </trkpt>
      <trkpt lat="46.46126" lon="5.27859">
        <ele>206.39999389648</ele>
        <time>2021-03-10T13:40:19.000Z</time>
      </trkpt>
      <trkpt lat="46.46125" lon="5.27843">
        <ele>205.39999389648</ele>
        <time>2021-03-10T13:40:20.000Z</time>
      </trkpt>
      <trkpt lat="46.46125" lon="5.27827">
        <ele>204.19999694824</ele>
        <time>2021-03-10T13:40:21.000Z</time>
      </trkpt>
      <trkpt lat="46.46125" lon="5.27812">
        <ele>203</ele>
        <time>2021-03-10T13:40:22.000Z</time>
      </trkpt>
      <trkpt lat="46.46125" lon="5.27796">
        <ele>202.19999694824</ele>
        <time>2021-03-10T13:40:23.000Z</time>
      </trkpt>
      <trkpt lat="46.46125" lon="5.27781">
        <ele>201.19999694824</ele>
        <time>2021-03-10T13:40:24.000Z</time>
      </trkpt>
      <trkpt lat="46.46125" lon="5.27765">
        <ele>200.60000610352</ele>
        <time>2021-03-10T13:40:25.000Z</time>
      </trkpt>
      <trkpt lat="46.46126" lon="5.2775">
        <ele>199.80000305176</ele>
        <time>2021-03-10T13:40:26.000Z</time>
      </trkpt>
      <trkpt lat="46.46126" lon="5.27735">
        <ele>199</ele>
        <time>2021-03-10T13:40:27.000Z</time>
      </trkpt>
      <trkpt lat="46.46126" lon="5.2772">
        <ele>197.60000610352</ele>
        <time>2021-03-10T13:40:28.000Z</time>
      </trkpt>
      <trkpt lat="46.46127" lon="5.27705">
        <ele>197</ele>
        <time>2021-03-10T13:40:29.000Z</time>
      </trkpt>
      <trkpt lat="46.46127" lon="5.27691">
        <ele>196</ele>
        <time>2021-03-10T13:40:30.000Z</time>
      </trkpt>
      <trkpt lat="46.46128" lon="5.27677">
        <ele>195.60000610352</ele>
        <time>2021-03-10T13:40:31.000Z</time>
      </trkpt>
      <trkpt lat="46.46129" lon="5.27649">
        <ele>195</ele>
        <time>2021-03-10T13:40:33.000Z</time>
      </trkpt>
      <trkpt lat="46.4613" lon="5.27636">
        <ele>194.80000305176</ele>
        <time>2021-03-10T13:40:34.000Z</time>
      </trkpt>
      <trkpt lat="46.4613" lon="5.27623">
        <ele>194.60000610352</ele>
        <time>2021-03-10T13:40:35.000Z</time>
      </trkpt>
      <trkpt lat="46.4613" lon="5.27599">
        <ele>193.80000305176</ele>
        <time>2021-03-10T13:40:37.000Z</time>
      </trkpt>
      <trkpt lat="46.46131" lon="5.27575">
        <ele>193</ele>
        <time>2021-03-10T13:40:39.000Z</time>
      </trkpt>
      <trkpt lat="46.46131" lon="5.27564">
        <ele>193</ele>
        <time>2021-03-10T13:40:40.000Z</time>
      </trkpt>
      <trkpt lat="46.46131" lon="5.27553">
        <ele>192.80000305176</ele>
        <time>2021-03-10T13:40:41.000Z</time>
      </trkpt>
      <trkpt lat="46.46132" lon="5.27531">
        <ele>192.80000305176</ele>
        <time>2021-03-10T13:40:43.000Z</time>
      </trkpt>
      <trkpt lat="46.46133" lon="5.27509">
        <ele>192.80000305176</ele>
        <time>2021-03-10T13:40:45.000Z</time>
      </trkpt>
      <trkpt lat="46.46133" lon="5.27488">
        <ele>192.80000305176</ele>
        <time>2021-03-10T13:40:47.000Z</time>
      </trkpt>
      <trkpt lat="46.46134" lon="5.27468">
        <ele>193</ele>
        <time>2021-03-10T13:40:49.000Z</time>
      </trkpt>
      <trkpt lat="46.46134" lon="5.27448">
        <ele>193.19999694824</ele>
        <time>2021-03-10T13:40:51.000Z</time>
      </trkpt>
      <trkpt lat="46.46135" lon="5.27428">
        <ele>193.19999694824</ele>
        <time>2021-03-10T13:40:53.000Z</time>
      </trkpt>
      <trkpt lat="46.46135" lon="5.27409">
        <ele>193.39999389648</ele>
        <time>2021-03-10T13:40:55.000Z</time>
      </trkpt>
      <trkpt lat="46.46136" lon="5.2739">
        <ele>193.60000610352</ele>
        <time>2021-03-10T13:40:57.000Z</time>
      </trkpt>
      <trkpt lat="46.46136" lon="5.27371">
        <ele>193.80000305176</ele>
        <time>2021-03-10T13:40:59.000Z</time>
      </trkpt>
      <trkpt lat="46.46137" lon="5.27352">
        <ele>193.80000305176</ele>
        <time>2021-03-10T13:41:01.000Z</time>
      </trkpt>
      <trkpt lat="46.46137" lon="5.27343">
        <ele>193.80000305176</ele>
        <time>2021-03-10T13:41:02.000Z</time>
      </trkpt>
      <trkpt lat="46.46138" lon="5.27333">
        <ele>193.80000305176</ele>
        <time>2021-03-10T13:41:03.000Z</time>
      </trkpt>
      <trkpt lat="46.46138" lon="5.27314">
        <ele>194</ele>
        <time>2021-03-10T13:41:05.000Z</time>
      </trkpt>
      <trkpt lat="46.46138" lon="5.27295">
        <ele>194.19999694824</ele>
        <time>2021-03-10T13:41:07.000Z</time>
      </trkpt>
      <trkpt lat="46.46139" lon="5.27286">
        <ele>194.19999694824</ele>
        <time>2021-03-10T13:41:08.000Z</time>
      </trkpt>
      <trkpt lat="46.46139" lon="5.27276">
        <ele>194.19999694824</ele>
        <time>2021-03-10T13:41:09.000Z</time>
      </trkpt>
      <trkpt lat="46.46139" lon="5.27258">
        <ele>194.19999694824</ele>
        <time>2021-03-10T13:41:11.000Z</time>
      </trkpt>
      <trkpt lat="46.4614" lon="5.2724">
        <ele>194.19999694824</ele>
        <time>2021-03-10T13:41:13.000Z</time>
      </trkpt>
      <trkpt lat="46.4614" lon="5.27221">
        <ele>194.39999389648</ele>
        <time>2021-03-10T13:41:15.000Z</time>
      </trkpt>
      <trkpt lat="46.46141" lon="5.27212">
        <ele>194.39999389648</ele>
        <time>2021-03-10T13:41:16.000Z</time>
      </trkpt>
      <trkpt lat="46.46141" lon="5.27203">
        <ele>194.39999389648</ele>
        <time>2021-03-10T13:41:17.000Z</time>
      </trkpt>
      <trkpt lat="46.46141" lon="5.27185">
        <ele>194.39999389648</ele>
        <time>2021-03-10T13:41:19.000Z</time>
      </trkpt>
      <trkpt lat="46.46142" lon="5.27168">
        <ele>194.39999389648</ele>
        <time>2021-03-10T13:41:21.000Z</time>
      </trkpt>
      <trkpt lat="46.46142" lon="5.27151">
        <ele>194.39999389648</ele>
        <time>2021-03-10T13:41:23.000Z</time>
      </trkpt>
      <trkpt lat="46.46143" lon="5.27133">
        <ele>194.39999389648</ele>
        <time>2021-03-10T13:41:25.000Z</time>
      </trkpt>
      <trkpt lat="46.46143" lon="5.27117">
        <ele>194.60000610352</ele>
        <time>2021-03-10T13:41:27.000Z</time>
      </trkpt>
      <trkpt lat="46.46144" lon="5.271">
        <ele>195</ele>
        <time>2021-03-10T13:41:29.000Z</time>
      </trkpt>
      <trkpt lat="46.46144" lon="5.27084">
        <ele>195.19999694824</ele>
        <time>2021-03-10T13:41:31.000Z</time>
      </trkpt>
      <trkpt lat="46.46144" lon="5.27068">
        <ele>195.60000610352</ele>
        <time>2021-03-10T13:41:33.000Z</time>
      </trkpt>
      <trkpt lat="46.46144" lon="5.2706">
        <ele>195.60000610352</ele>
        <time>2021-03-10T13:41:34.000Z</time>
      </trkpt>
      <trkpt lat="46.46145" lon="5.27052">
        <ele>195.80000305176</ele>
        <time>2021-03-10T13:41:35.000Z</time>
      </trkpt>
      <trkpt lat="46.46145" lon="5.27044">
        <ele>196</ele>
        <time>2021-03-10T13:41:36.000Z</time>
      </trkpt>
      <trkpt lat="46.46145" lon="5.27037">
        <ele>196.19999694824</ele>
        <time>2021-03-10T13:41:37.000Z</time>
      </trkpt>
      <trkpt lat="46.46145" lon="5.2702">
        <ele>196.39999389648</ele>
        <time>2021-03-10T13:41:39.000Z</time>
      </trkpt>
      <trkpt lat="46.46145" lon="5.27003">
        <ele>196.60000610352</ele>
        <time>2021-03-10T13:41:41.000Z</time>
      </trkpt>
      <trkpt lat="46.46146" lon="5.26995">
        <ele>196.80000305176</ele>
        <time>2021-03-10T13:41:42.000Z</time>
      </trkpt>
      <trkpt lat="46.46146" lon="5.26987">
        <ele>196.80000305176</ele>
        <time>2021-03-10T13:41:43.000Z</time>
      </trkpt>
      <trkpt lat="46.46147" lon="5.26969">
        <ele>196.80000305176</ele>
        <time>2021-03-10T13:41:45.000Z</time>
      </trkpt>
      <trkpt lat="46.46148" lon="5.26952">
        <ele>196.80000305176</ele>
        <time>2021-03-10T13:41:47.000Z</time>
      </trkpt>
      <trkpt lat="46.46148" lon="5.26934">
        <ele>196.80000305176</ele>
        <time>2021-03-10T13:41:49.000Z</time>
      </trkpt>
      <trkpt lat="46.46149" lon="5.26916">
        <ele>196.60000610352</ele>
        <time>2021-03-10T13:41:51.000Z</time>
      </trkpt>
      <trkpt lat="46.46149" lon="5.26898">
        <ele>196.19999694824</ele>
        <time>2021-03-10T13:41:53.000Z</time>
      </trkpt>
      <trkpt lat="46.4615" lon="5.2688">
        <ele>196.19999694824</ele>
        <time>2021-03-10T13:41:55.000Z</time>
      </trkpt>
      <trkpt lat="46.4615" lon="5.26863">
        <ele>196.19999694824</ele>
        <time>2021-03-10T13:41:57.000Z</time>
      </trkpt>
      <trkpt lat="46.4615" lon="5.26846">
        <ele>196.19999694824</ele>
        <time>2021-03-10T13:41:59.000Z</time>
      </trkpt>
      <trkpt lat="46.46151" lon="5.2683">
        <ele>196.19999694824</ele>
        <time>2021-03-10T13:42:01.000Z</time>
      </trkpt>
      <trkpt lat="46.46151" lon="5.26815">
        <ele>196.19999694824</ele>
        <time>2021-03-10T13:42:03.000Z</time>
      </trkpt>
      <trkpt lat="46.46152" lon="5.26807">
        <ele>196.39999389648</ele>
        <time>2021-03-10T13:42:04.000Z</time>
      </trkpt>
      <trkpt lat="46.46152" lon="5.268">
        <ele>196.39999389648</ele>
        <time>2021-03-10T13:42:05.000Z</time>
      </trkpt>
      <trkpt lat="46.46152" lon="5.26786">
        <ele>196.80000305176</ele>
        <time>2021-03-10T13:42:07.000Z</time>
      </trkpt>
      <trkpt lat="46.46152" lon="5.26772">
        <ele>197.19999694824</ele>
        <time>2021-03-10T13:42:09.000Z</time>
      </trkpt>
      <trkpt lat="46.46153" lon="5.26764">
        <ele>197.19999694824</ele>
        <time>2021-03-10T13:42:10.000Z</time>
      </trkpt>
      <trkpt lat="46.46153" lon="5.26758">
        <ele>197.39999389648</ele>
        <time>2021-03-10T13:42:11.000Z</time>
      </trkpt>
      <trkpt lat="46.46153" lon="5.2675">
        <ele>197.60000610352</ele>
        <time>2021-03-10T13:42:12.000Z</time>
      </trkpt>
      <trkpt lat="46.46153" lon="5.26743">
        <ele>197.80000305176</ele>
        <time>2021-03-10T13:42:13.000Z</time>
      </trkpt>
      <trkpt lat="46.46153" lon="5.26729">
        <ele>198.39999389648</ele>
        <time>2021-03-10T13:42:15.000Z</time>
      </trkpt>
      <trkpt lat="46.46154" lon="5.26714">
        <ele>198.80000305176</ele>
        <time>2021-03-10T13:42:17.000Z</time>
      </trkpt>
      <trkpt lat="46.46153" lon="5.26698">
        <ele>199</ele>
        <time>2021-03-10T13:42:19.000Z</time>
      </trkpt>
      <trkpt lat="46.46153" lon="5.26682">
        <ele>199</ele>
        <time>2021-03-10T13:42:21.000Z</time>
      </trkpt>
      <trkpt lat="46.46153" lon="5.26668">
        <ele>199.39999389648</ele>
        <time>2021-03-10T13:42:23.000Z</time>
      </trkpt>
      <trkpt lat="46.46153" lon="5.26654">
        <ele>199.80000305176</ele>
        <time>2021-03-10T13:42:25.000Z</time>
      </trkpt>
      <trkpt lat="46.46153" lon="5.26641">
        <ele>199.80000305176</ele>
        <time>2021-03-10T13:42:27.000Z</time>
      </trkpt>
      <trkpt lat="46.46153" lon="5.26629">
        <ele>200.19999694824</ele>
        <time>2021-03-10T13:42:29.000Z</time>
      </trkpt>
      <trkpt lat="46.46154" lon="5.26619">
        <ele>200.39999389648</ele>
        <time>2021-03-10T13:42:31.000Z</time>
      </trkpt>
      <trkpt lat="46.46154" lon="5.26614">
        <ele>200.80000305176</ele>
        <time>2021-03-10T13:42:32.000Z</time>
      </trkpt>
      <trkpt lat="46.46155" lon="5.26609">
        <ele>201.39999389648</ele>
        <time>2021-03-10T13:42:33.000Z</time>
      </trkpt>
      <trkpt lat="46.46156" lon="5.26599">
        <ele>202</ele>
        <time>2021-03-10T13:42:35.000Z</time>
      </trkpt>
      <trkpt lat="46.46157" lon="5.26589">
        <ele>202.39999389648</ele>
        <time>2021-03-10T13:42:37.000Z</time>
      </trkpt>
      <trkpt lat="46.46158" lon="5.26579">
        <ele>202.60000610352</ele>
        <time>2021-03-10T13:42:39.000Z</time>
      </trkpt>
      <trkpt lat="46.46159" lon="5.26569">
        <ele>203.19999694824</ele>
        <time>2021-03-10T13:42:41.000Z</time>
      </trkpt>
      <trkpt lat="46.4616" lon="5.2656">
        <ele>203.60000610352</ele>
        <time>2021-03-10T13:42:43.000Z</time>
      </trkpt>
      <trkpt lat="46.46161" lon="5.2655">
        <ele>204.19999694824</ele>
        <time>2021-03-10T13:42:45.000Z</time>
      </trkpt>
      <trkpt lat="46.46162" lon="5.26545">
        <ele>204.39999389648</ele>
        <time>2021-03-10T13:42:46.000Z</time>
      </trkpt>
      <trkpt lat="46.46162" lon="5.2654">
        <ele>204.60000610352</ele>
        <time>2021-03-10T13:42:47.000Z</time>
      </trkpt>
      <trkpt lat="46.46164" lon="5.2653">
        <ele>205.39999389648</ele>
        <time>2021-03-10T13:42:49.000Z</time>
      </trkpt>
      <trkpt lat="46.46165" lon="5.2652">
        <ele>206</ele>
        <time>2021-03-10T13:42:51.000Z</time>
      </trkpt>
      <trkpt lat="46.46166" lon="5.26509">
        <ele>206.60000610352</ele>
        <time>2021-03-10T13:42:53.000Z</time>
      </trkpt>
      <trkpt lat="46.46167" lon="5.26498">
        <ele>207</ele>
        <time>2021-03-10T13:42:55.000Z</time>
      </trkpt>
      <trkpt lat="46.46169" lon="5.26487">
        <ele>207.60000610352</ele>
        <time>2021-03-10T13:42:57.000Z</time>
      </trkpt>
      <trkpt lat="46.4617" lon="5.26475">
        <ele>208</ele>
        <time>2021-03-10T13:42:59.000Z</time>
      </trkpt>
      <trkpt lat="46.46171" lon="5.26464">
        <ele>208.39999389648</ele>
        <time>2021-03-10T13:43:01.000Z</time>
      </trkpt>
      <trkpt lat="46.46172" lon="5.26459">
        <ele>208.60000610352</ele>
        <time>2021-03-10T13:43:02.000Z</time>
      </trkpt>
      <trkpt lat="46.46173" lon="5.26453">
        <ele>208.80000305176</ele>
        <time>2021-03-10T13:43:03.000Z</time>
      </trkpt>
      <trkpt lat="46.46174" lon="5.26443">
        <ele>209.19999694824</ele>
        <time>2021-03-10T13:43:05.000Z</time>
      </trkpt>
      <trkpt lat="46.46175" lon="5.26432">
        <ele>209.80000305176</ele>
        <time>2021-03-10T13:43:07.000Z</time>
      </trkpt>
      <trkpt lat="46.46176" lon="5.26421">
        <ele>210.19999694824</ele>
        <time>2021-03-10T13:43:09.000Z</time>
      </trkpt>
      <trkpt lat="46.46177" lon="5.26411">
        <ele>210.80000305176</ele>
        <time>2021-03-10T13:43:11.000Z</time>
      </trkpt>
      <trkpt lat="46.46178" lon="5.264">
        <ele>211.19999694824</ele>
        <time>2021-03-10T13:43:13.000Z</time>
      </trkpt>
      <trkpt lat="46.46179" lon="5.2639">
        <ele>211.60000610352</ele>
        <time>2021-03-10T13:43:15.000Z</time>
      </trkpt>
      <trkpt lat="46.4618" lon="5.2638">
        <ele>212</ele>
        <time>2021-03-10T13:43:17.000Z</time>
      </trkpt>
      <trkpt lat="46.46181" lon="5.2637">
        <ele>212.39999389648</ele>
        <time>2021-03-10T13:43:19.000Z</time>
      </trkpt>
      <trkpt lat="46.46182" lon="5.2636">
        <ele>213</ele>
        <time>2021-03-10T13:43:21.000Z</time>
      </trkpt>
      <trkpt lat="46.46182" lon="5.26355">
        <ele>213.19999694824</ele>
        <time>2021-03-10T13:43:22.000Z</time>
      </trkpt>
      <trkpt lat="46.46183" lon="5.2635">
        <ele>213.39999389648</ele>
        <time>2021-03-10T13:43:23.000Z</time>
      </trkpt>
      <trkpt lat="46.46183" lon="5.26341">
        <ele>213.80000305176</ele>
        <time>2021-03-10T13:43:25.000Z</time>
      </trkpt>
      <trkpt lat="46.46184" lon="5.26331">
        <ele>214.19999694824</ele>
        <time>2021-03-10T13:43:27.000Z</time>
      </trkpt>
      <trkpt lat="46.46185" lon="5.26322">
        <ele>214.80000305176</ele>
        <time>2021-03-10T13:43:29.000Z</time>
      </trkpt>
      <trkpt lat="46.46186" lon="5.26312">
        <ele>215.19999694824</ele>
        <time>2021-03-10T13:43:31.000Z</time>
      </trkpt>
      <trkpt lat="46.46186" lon="5.26308">
        <ele>215.39999389648</ele>
        <time>2021-03-10T13:43:32.000Z</time>
      </trkpt>
      <trkpt lat="46.46187" lon="5.26303">
        <ele>215.80000305176</ele>
        <time>2021-03-10T13:43:33.000Z</time>
      </trkpt>
      <trkpt lat="46.46188" lon="5.26293">
        <ele>216.19999694824</ele>
        <time>2021-03-10T13:43:35.000Z</time>
      </trkpt>
      <trkpt lat="46.46189" lon="5.26283">
        <ele>216.80000305176</ele>
        <time>2021-03-10T13:43:37.000Z</time>
      </trkpt>
      <trkpt lat="46.4619" lon="5.26274">
        <ele>217</ele>
        <time>2021-03-10T13:43:39.000Z</time>
      </trkpt>
      <trkpt lat="46.46191" lon="5.26264">
        <ele>217.19999694824</ele>
        <time>2021-03-10T13:43:41.000Z</time>
      </trkpt>
      <trkpt lat="46.46192" lon="5.26255">
        <ele>217.60000610352</ele>
        <time>2021-03-10T13:43:43.000Z</time>
      </trkpt>
      <trkpt lat="46.46191" lon="5.26251">
        <ele>217.80000305176</ele>
        <time>2021-03-10T13:43:44.000Z</time>
      </trkpt>
      <trkpt lat="46.46189" lon="5.26248">
        <ele>218</ele>
        <time>2021-03-10T13:43:45.000Z</time>
      </trkpt>
      <trkpt lat="46.46186" lon="5.26246">
        <ele>218.39999389648</ele>
        <time>2021-03-10T13:43:46.000Z</time>
      </trkpt>
      <trkpt lat="46.46182" lon="5.26244">
        <ele>218.60000610352</ele>
        <time>2021-03-10T13:43:47.000Z</time>
      </trkpt>
      <trkpt lat="46.46174" lon="5.26239">
        <ele>218.80000305176</ele>
        <time>2021-03-10T13:43:49.000Z</time>
      </trkpt>
      <trkpt lat="46.46166" lon="5.26234">
        <ele>219.19999694824</ele>
        <time>2021-03-10T13:43:51.000Z</time>
      </trkpt>
      <trkpt lat="46.46158" lon="5.26229">
        <ele>219.39999389648</ele>
        <time>2021-03-10T13:43:53.000Z</time>
      </trkpt>
      <trkpt lat="46.46149" lon="5.26224">
        <ele>219.60000610352</ele>
        <time>2021-03-10T13:43:55.000Z</time>
      </trkpt>
      <trkpt lat="46.4614" lon="5.26219">
        <ele>219.60000610352</ele>
        <time>2021-03-10T13:43:57.000Z</time>
      </trkpt>
      <trkpt lat="46.46131" lon="5.26214">
        <ele>219.60000610352</ele>
        <time>2021-03-10T13:43:59.000Z</time>
      </trkpt>
      <trkpt lat="46.46121" lon="5.26209">
        <ele>219.80000305176</ele>
        <time>2021-03-10T13:44:01.000Z</time>
      </trkpt>
      <trkpt lat="46.46112" lon="5.26204">
        <ele>219.80000305176</ele>
        <time>2021-03-10T13:44:03.000Z</time>
      </trkpt>
      <trkpt lat="46.46108" lon="5.26202">
        <ele>219.80000305176</ele>
        <time>2021-03-10T13:44:04.000Z</time>
      </trkpt>
      <trkpt lat="46.46103" lon="5.26199">
        <ele>220</ele>
        <time>2021-03-10T13:44:05.000Z</time>
      </trkpt>
      <trkpt lat="46.46094" lon="5.26194">
        <ele>220</ele>
        <time>2021-03-10T13:44:07.000Z</time>
      </trkpt>
      <trkpt lat="46.46085" lon="5.26189">
        <ele>220</ele>
        <time>2021-03-10T13:44:09.000Z</time>
      </trkpt>
      <trkpt lat="46.46076" lon="5.26184">
        <ele>220.19999694824</ele>
        <time>2021-03-10T13:44:11.000Z</time>
      </trkpt>
      <trkpt lat="46.46067" lon="5.2618">
        <ele>220.60000610352</ele>
        <time>2021-03-10T13:44:13.000Z</time>
      </trkpt>
      <trkpt lat="46.46062" lon="5.26178">
        <ele>220.80000305176</ele>
        <time>2021-03-10T13:44:14.000Z</time>
      </trkpt>
      <trkpt lat="46.46058" lon="5.26176">
        <ele>221</ele>
        <time>2021-03-10T13:44:15.000Z</time>
      </trkpt>
      <trkpt lat="46.46053" lon="5.26173">
        <ele>221.19999694824</ele>
        <time>2021-03-10T13:44:16.000Z</time>
      </trkpt>
      <trkpt lat="46.46049" lon="5.26171">
        <ele>221.39999389648</ele>
        <time>2021-03-10T13:44:17.000Z</time>
      </trkpt>
      <trkpt lat="46.46044" lon="5.26169">
        <ele>221.60000610352</ele>
        <time>2021-03-10T13:44:18.000Z</time>
      </trkpt>
      <trkpt lat="46.4604" lon="5.26168">
        <ele>221.60000610352</ele>
        <time>2021-03-10T13:44:19.000Z</time>
      </trkpt>
      <trkpt lat="46.4603" lon="5.26165">
        <ele>221.80000305176</ele>
        <time>2021-03-10T13:44:21.000Z</time>
      </trkpt>
      <trkpt lat="46.46025" lon="5.26164">
        <ele>222</ele>
        <time>2021-03-10T13:44:22.000Z</time>
      </trkpt>
      <trkpt lat="46.4602" lon="5.26164">
        <ele>222</ele>
        <time>2021-03-10T13:44:23.000Z</time>
      </trkpt>
      <trkpt lat="46.46016" lon="5.26163">
        <ele>222.19999694824</ele>
        <time>2021-03-10T13:44:24.000Z</time>
      </trkpt>
      <trkpt lat="46.46011" lon="5.26162">
        <ele>222.39999389648</ele>
        <time>2021-03-10T13:44:25.000Z</time>
      </trkpt>
      <trkpt lat="46.46001" lon="5.26162">
        <ele>222.60000610352</ele>
        <time>2021-03-10T13:44:27.000Z</time>
      </trkpt>
      <trkpt lat="46.45992" lon="5.26162">
        <ele>222.60000610352</ele>
        <time>2021-03-10T13:44:29.000Z</time>
      </trkpt>
      <trkpt lat="46.45987" lon="5.26162">
        <ele>222.60000610352</ele>
        <time>2021-03-10T13:44:30.000Z</time>
      </trkpt>
      <trkpt lat="46.45982" lon="5.26162">
        <ele>222.60000610352</ele>
        <time>2021-03-10T13:44:31.000Z</time>
      </trkpt>
      <trkpt lat="46.45971" lon="5.26162">
        <ele>222.80000305176</ele>
        <time>2021-03-10T13:44:33.000Z</time>
      </trkpt>
      <trkpt lat="46.45961" lon="5.26161">
        <ele>223</ele>
        <time>2021-03-10T13:44:35.000Z</time>
      </trkpt>
      <trkpt lat="46.45951" lon="5.26161">
        <ele>223.19999694824</ele>
        <time>2021-03-10T13:44:37.000Z</time>
      </trkpt>
      <trkpt lat="46.45946" lon="5.26161">
        <ele>223.19999694824</ele>
        <time>2021-03-10T13:44:38.000Z</time>
      </trkpt>
      <trkpt lat="46.45941" lon="5.26161">
        <ele>223.39999389648</ele>
        <time>2021-03-10T13:44:39.000Z</time>
      </trkpt>
      <trkpt lat="46.45931" lon="5.2616">
        <ele>223.60000610352</ele>
        <time>2021-03-10T13:44:41.000Z</time>
      </trkpt>
      <trkpt lat="46.4592" lon="5.2616">
        <ele>223.60000610352</ele>
        <time>2021-03-10T13:44:43.000Z</time>
      </trkpt>
      <trkpt lat="46.4591" lon="5.2616">
        <ele>223.80000305176</ele>
        <time>2021-03-10T13:44:45.000Z</time>
      </trkpt>
      <trkpt lat="46.45899" lon="5.26159">
        <ele>224</ele>
        <time>2021-03-10T13:44:47.000Z</time>
      </trkpt>
      <trkpt lat="46.45889" lon="5.26159">
        <ele>224</ele>
        <time>2021-03-10T13:44:49.000Z</time>
      </trkpt>
      <trkpt lat="46.45883" lon="5.26159">
        <ele>224.19999694824</ele>
        <time>2021-03-10T13:44:50.000Z</time>
      </trkpt>
      <trkpt lat="46.45877" lon="5.26159">
        <ele>224.19999694824</ele>
        <time>2021-03-10T13:44:51.000Z</time>
      </trkpt>
      <trkpt lat="46.45872" lon="5.26159">
        <ele>224.19999694824</ele>
        <time>2021-03-10T13:44:52.000Z</time>
      </trkpt>
      <trkpt lat="46.45866" lon="5.26159">
        <ele>224.39999389648</ele>
        <time>2021-03-10T13:44:53.000Z</time>
      </trkpt>
      <trkpt lat="46.45854" lon="5.26159">
        <ele>224.39999389648</ele>
        <time>2021-03-10T13:44:55.000Z</time>
      </trkpt>
      <trkpt lat="46.45842" lon="5.26159">
        <ele>224.39999389648</ele>
        <time>2021-03-10T13:44:57.000Z</time>
      </trkpt>
      <trkpt lat="46.45829" lon="5.26159">
        <ele>224.39999389648</ele>
        <time>2021-03-10T13:44:59.000Z</time>
      </trkpt>
      <trkpt lat="46.45815" lon="5.26158">
        <ele>224.39999389648</ele>
        <time>2021-03-10T13:45:01.000Z</time>
      </trkpt>
      <trkpt lat="46.45802" lon="5.26158">
        <ele>224.39999389648</ele>
        <time>2021-03-10T13:45:03.000Z</time>
      </trkpt>
      <trkpt lat="46.45788" lon="5.26158">
        <ele>224.39999389648</ele>
        <time>2021-03-10T13:45:05.000Z</time>
      </trkpt>
      <trkpt lat="46.45775" lon="5.26163">
        <ele>224.19999694824</ele>
        <time>2021-03-10T13:45:07.000Z</time>
      </trkpt>
      <trkpt lat="46.45764" lon="5.26173">
        <ele>224</ele>
        <time>2021-03-10T13:45:09.000Z</time>
      </trkpt>
      <trkpt lat="46.45759" lon="5.2618">
        <ele>224</ele>
        <time>2021-03-10T13:45:10.000Z</time>
      </trkpt>
      <trkpt lat="46.45756" lon="5.26189">
        <ele>224</ele>
        <time>2021-03-10T13:45:11.000Z</time>
      </trkpt>
      <trkpt lat="46.45751" lon="5.26208">
        <ele>223.80000305176</ele>
        <time>2021-03-10T13:45:13.000Z</time>
      </trkpt>
      <trkpt lat="46.45748" lon="5.26218">
        <ele>223.80000305176</ele>
        <time>2021-03-10T13:45:14.000Z</time>
      </trkpt>
      <trkpt lat="46.45746" lon="5.26228">
        <ele>223.80000305176</ele>
        <time>2021-03-10T13:45:15.000Z</time>
      </trkpt>
      <trkpt lat="46.45741" lon="5.26248">
        <ele>223.80000305176</ele>
        <time>2021-03-10T13:45:17.000Z</time>
      </trkpt>
      <trkpt lat="46.45736" lon="5.26268">
        <ele>223.60000610352</ele>
        <time>2021-03-10T13:45:19.000Z</time>
      </trkpt>
      <trkpt lat="46.45731" lon="5.26287">
        <ele>223.60000610352</ele>
        <time>2021-03-10T13:45:21.000Z</time>
      </trkpt>
      <trkpt lat="46.45726" lon="5.26308">
        <ele>223.39999389648</ele>
        <time>2021-03-10T13:45:23.000Z</time>
      </trkpt>
      <trkpt lat="46.45721" lon="5.26328">
        <ele>223.19999694824</ele>
        <time>2021-03-10T13:45:25.000Z</time>
      </trkpt>
      <trkpt lat="46.45717" lon="5.26349">
        <ele>222.80000305176</ele>
        <time>2021-03-10T13:45:27.000Z</time>
      </trkpt>
      <trkpt lat="46.45712" lon="5.26369">
        <ele>222.60000610352</ele>
        <time>2021-03-10T13:45:29.000Z</time>
      </trkpt>
      <trkpt lat="46.45711" lon="5.26379">
        <ele>222.60000610352</ele>
        <time>2021-03-10T13:45:30.000Z</time>
      </trkpt>
      <trkpt lat="46.45709" lon="5.26389">
        <ele>222.60000610352</ele>
        <time>2021-03-10T13:45:31.000Z</time>
      </trkpt>
      <trkpt lat="46.45706" lon="5.26409">
        <ele>222.19999694824</ele>
        <time>2021-03-10T13:45:33.000Z</time>
      </trkpt>
      <trkpt lat="46.45703" lon="5.2643">
        <ele>221.80000305176</ele>
        <time>2021-03-10T13:45:35.000Z</time>
      </trkpt>
      <trkpt lat="46.45701" lon="5.2645">
        <ele>221.60000610352</ele>
        <time>2021-03-10T13:45:37.000Z</time>
      </trkpt>
      <trkpt lat="46.45698" lon="5.26471">
        <ele>221.39999389648</ele>
        <time>2021-03-10T13:45:39.000Z</time>
      </trkpt>
      <trkpt lat="46.45696" lon="5.26481">
        <ele>221.39999389648</ele>
        <time>2021-03-10T13:45:40.000Z</time>
      </trkpt>
      <trkpt lat="46.45695" lon="5.26491">
        <ele>221.39999389648</ele>
        <time>2021-03-10T13:45:41.000Z</time>
      </trkpt>
      <trkpt lat="46.45692" lon="5.26512">
        <ele>221.19999694824</ele>
        <time>2021-03-10T13:45:43.000Z</time>
      </trkpt>
      <trkpt lat="46.45688" lon="5.26533">
        <ele>221.19999694824</ele>
        <time>2021-03-10T13:45:45.000Z</time>
      </trkpt>
      <trkpt lat="46.45683" lon="5.26554">
        <ele>221.19999694824</ele>
        <time>2021-03-10T13:45:47.000Z</time>
      </trkpt>
      <trkpt lat="46.45679" lon="5.26564">
        <ele>221</ele>
        <time>2021-03-10T13:45:48.000Z</time>
      </trkpt>
      <trkpt lat="46.45675" lon="5.26574">
        <ele>221</ele>
        <time>2021-03-10T13:45:49.000Z</time>
      </trkpt>
      <trkpt lat="46.45666" lon="5.26593">
        <ele>221</ele>
        <time>2021-03-10T13:45:51.000Z</time>
      </trkpt>
      <trkpt lat="46.45656" lon="5.26612">
        <ele>220.39999389648</ele>
        <time>2021-03-10T13:45:53.000Z</time>
      </trkpt>
      <trkpt lat="46.45649" lon="5.2662">
        <ele>219.80000305176</ele>
        <time>2021-03-10T13:45:54.000Z</time>
      </trkpt>
      <trkpt lat="46.45642" lon="5.26626">
        <ele>219.39999389648</ele>
        <time>2021-03-10T13:45:55.000Z</time>
      </trkpt>
      <trkpt lat="46.45634" lon="5.26631">
        <ele>219.19999694824</ele>
        <time>2021-03-10T13:45:56.000Z</time>
      </trkpt>
      <trkpt lat="46.45627" lon="5.26634">
        <ele>218.80000305176</ele>
        <time>2021-03-10T13:45:57.000Z</time>
      </trkpt>
      <trkpt lat="46.45619" lon="5.26637">
        <ele>218.60000610352</ele>
        <time>2021-03-10T13:45:58.000Z</time>
      </trkpt>
      <trkpt lat="46.4561" lon="5.2664">
        <ele>218.19999694824</ele>
        <time>2021-03-10T13:45:59.000Z</time>
      </trkpt>
      <trkpt lat="46.45603" lon="5.26642">
        <ele>217.60000610352</ele>
        <time>2021-03-10T13:46:00.000Z</time>
      </trkpt>
      <trkpt lat="46.45595" lon="5.26644">
        <ele>217.19999694824</ele>
        <time>2021-03-10T13:46:01.000Z</time>
      </trkpt>
      <trkpt lat="46.45581" lon="5.26647">
        <ele>216.60000610352</ele>
        <time>2021-03-10T13:46:03.000Z</time>
      </trkpt>
      <trkpt lat="46.45573" lon="5.26648">
        <ele>216.39999389648</ele>
        <time>2021-03-10T13:46:04.000Z</time>
      </trkpt>
      <trkpt lat="46.45566" lon="5.26648">
        <ele>216.19999694824</ele>
        <time>2021-03-10T13:46:05.000Z</time>
      </trkpt>
      <trkpt lat="46.45559" lon="5.26647">
        <ele>216</ele>
        <time>2021-03-10T13:46:06.000Z</time>
      </trkpt>
      <trkpt lat="46.45552" lon="5.26645">
        <ele>216</ele>
        <time>2021-03-10T13:46:07.000Z</time>
      </trkpt>
      <trkpt lat="46.45545" lon="5.26642">
        <ele>216</ele>
        <time>2021-03-10T13:46:08.000Z</time>
      </trkpt>
      <trkpt lat="46.45538" lon="5.2664">
        <ele>216</ele>
        <time>2021-03-10T13:46:09.000Z</time>
      </trkpt>
      <trkpt lat="46.45525" lon="5.26634">
        <ele>216</ele>
        <time>2021-03-10T13:46:11.000Z</time>
      </trkpt>
      <trkpt lat="46.45519" lon="5.26632">
        <ele>216</ele>
        <time>2021-03-10T13:46:12.000Z</time>
      </trkpt>
      <trkpt lat="46.45513" lon="5.26629">
        <ele>216.19999694824</ele>
        <time>2021-03-10T13:46:13.000Z</time>
      </trkpt>
      <trkpt lat="46.455" lon="5.26624">
        <ele>216.60000610352</ele>
        <time>2021-03-10T13:46:15.000Z</time>
      </trkpt>
      <trkpt lat="46.45488" lon="5.26619">
        <ele>216.80000305176</ele>
        <time>2021-03-10T13:46:17.000Z</time>
      </trkpt>
      <trkpt lat="46.45476" lon="5.26613">
        <ele>217.19999694824</ele>
        <time>2021-03-10T13:46:19.000Z</time>
      </trkpt>
      <trkpt lat="46.45465" lon="5.26607">
        <ele>218</ele>
        <time>2021-03-10T13:46:21.000Z</time>
      </trkpt>
      <trkpt lat="46.45454" lon="5.26601">
        <ele>218.39999389648</ele>
        <time>2021-03-10T13:46:23.000Z</time>
      </trkpt>
      <trkpt lat="46.45444" lon="5.26595">
        <ele>218.60000610352</ele>
        <time>2021-03-10T13:46:25.000Z</time>
      </trkpt>
      <trkpt lat="46.45434" lon="5.26589">
        <ele>218.60000610352</ele>
        <time>2021-03-10T13:46:27.000Z</time>
      </trkpt>
      <trkpt lat="46.45424" lon="5.26583">
        <ele>218.80000305176</ele>
        <time>2021-03-10T13:46:29.000Z</time>
      </trkpt>
      <trkpt lat="46.45419" lon="5.26581">
        <ele>219</ele>
        <time>2021-03-10T13:46:30.000Z</time>
      </trkpt>
      <trkpt lat="46.45414" lon="5.26578">
        <ele>219.39999389648</ele>
        <time>2021-03-10T13:46:31.000Z</time>
      </trkpt>
      <trkpt lat="46.45404" lon="5.26573">
        <ele>219.80000305176</ele>
        <time>2021-03-10T13:46:33.000Z</time>
      </trkpt>
      <trkpt lat="46.45394" lon="5.26568">
        <ele>220.19999694824</ele>
        <time>2021-03-10T13:46:35.000Z</time>
      </trkpt>
      <trkpt lat="46.45389" lon="5.26566">
        <ele>220.39999389648</ele>
        <time>2021-03-10T13:46:36.000Z</time>
      </trkpt>
      <trkpt lat="46.45384" lon="5.26564">
        <ele>220.60000610352</ele>
        <time>2021-03-10T13:46:37.000Z</time>
      </trkpt>
      <trkpt lat="46.45373" lon="5.2656">
        <ele>221</ele>
        <time>2021-03-10T13:46:39.000Z</time>
      </trkpt>
      <trkpt lat="46.45368" lon="5.26558">
        <ele>221.19999694824</ele>
        <time>2021-03-10T13:46:40.000Z</time>
      </trkpt>
      <trkpt lat="46.45362" lon="5.26556">
        <ele>221.39999389648</ele>
        <time>2021-03-10T13:46:41.000Z</time>
      </trkpt>
      <trkpt lat="46.45351" lon="5.26553">
        <ele>221.39999389648</ele>
        <time>2021-03-10T13:46:43.000Z</time>
      </trkpt>
      <trkpt lat="46.45339" lon="5.26549">
        <ele>221.39999389648</ele>
        <time>2021-03-10T13:46:45.000Z</time>
      </trkpt>
      <trkpt lat="46.45328" lon="5.26547">
        <ele>221.39999389648</ele>
        <time>2021-03-10T13:46:47.000Z</time>
      </trkpt>
      <trkpt lat="46.45316" lon="5.26546">
        <ele>221.39999389648</ele>
        <time>2021-03-10T13:46:49.000Z</time>
      </trkpt>
      <trkpt lat="46.45303" lon="5.26546">
        <ele>221.39999389648</ele>
        <time>2021-03-10T13:46:51.000Z</time>
      </trkpt>
      <trkpt lat="46.45291" lon="5.26547">
        <ele>221.39999389648</ele>
        <time>2021-03-10T13:46:53.000Z</time>
      </trkpt>
      <trkpt lat="46.45278" lon="5.26549">
        <ele>221.39999389648</ele>
        <time>2021-03-10T13:46:55.000Z</time>
      </trkpt>
      <trkpt lat="46.45266" lon="5.26551">
        <ele>221.60000610352</ele>
        <time>2021-03-10T13:46:57.000Z</time>
      </trkpt>
      <trkpt lat="46.45254" lon="5.26554">
        <ele>221.60000610352</ele>
        <time>2021-03-10T13:46:59.000Z</time>
      </trkpt>
      <trkpt lat="46.45241" lon="5.26556">
        <ele>221.60000610352</ele>
        <time>2021-03-10T13:47:01.000Z</time>
      </trkpt>
      <trkpt lat="46.45229" lon="5.26557">
        <ele>221.39999389648</ele>
        <time>2021-03-10T13:47:03.000Z</time>
      </trkpt>
      <trkpt lat="46.45216" lon="5.26558">
        <ele>221.39999389648</ele>
        <time>2021-03-10T13:47:05.000Z</time>
      </trkpt>
      <trkpt lat="46.45203" lon="5.26557">
        <ele>221.19999694824</ele>
        <time>2021-03-10T13:47:07.000Z</time>
      </trkpt>
      <trkpt lat="46.45191" lon="5.26554">
        <ele>221</ele>
        <time>2021-03-10T13:47:09.000Z</time>
      </trkpt>
      <trkpt lat="46.45179" lon="5.26549">
        <ele>221.19999694824</ele>
        <time>2021-03-10T13:47:11.000Z</time>
      </trkpt>
      <trkpt lat="46.45167" lon="5.26545">
        <ele>221.19999694824</ele>
        <time>2021-03-10T13:47:13.000Z</time>
      </trkpt>
      <trkpt lat="46.45155" lon="5.2654">
        <ele>221</ele>
        <time>2021-03-10T13:47:15.000Z</time>
      </trkpt>
      <trkpt lat="46.45144" lon="5.26536">
        <ele>220.80000305176</ele>
        <time>2021-03-10T13:47:17.000Z</time>
      </trkpt>
      <trkpt lat="46.45138" lon="5.26534">
        <ele>220.80000305176</ele>
        <time>2021-03-10T13:47:18.000Z</time>
      </trkpt>
      <trkpt lat="46.45132" lon="5.26532">
        <ele>220.80000305176</ele>
        <time>2021-03-10T13:47:19.000Z</time>
      </trkpt>
      <trkpt lat="46.45121" lon="5.26527">
        <ele>220.80000305176</ele>
        <time>2021-03-10T13:47:21.000Z</time>
      </trkpt>
      <trkpt lat="46.4511" lon="5.26523">
        <ele>220.80000305176</ele>
        <time>2021-03-10T13:47:23.000Z</time>
      </trkpt>
      <trkpt lat="46.45098" lon="5.26519">
        <ele>220.80000305176</ele>
        <time>2021-03-10T13:47:25.000Z</time>
      </trkpt>
      <trkpt lat="46.45092" lon="5.26518">
        <ele>220.80000305176</ele>
        <time>2021-03-10T13:47:26.000Z</time>
      </trkpt>
      <trkpt lat="46.45086" lon="5.26516">
        <ele>220.80000305176</ele>
        <time>2021-03-10T13:47:27.000Z</time>
      </trkpt>
      <trkpt lat="46.45073" lon="5.26515">
        <ele>221</ele>
        <time>2021-03-10T13:47:29.000Z</time>
      </trkpt>
      <trkpt lat="46.4506" lon="5.26514">
        <ele>221</ele>
        <time>2021-03-10T13:47:31.000Z</time>
      </trkpt>
      <trkpt lat="46.45047" lon="5.26513">
        <ele>221</ele>
        <time>2021-03-10T13:47:33.000Z</time>
      </trkpt>
      <trkpt lat="46.45041" lon="5.26513">
        <ele>221</ele>
        <time>2021-03-10T13:47:34.000Z</time>
      </trkpt>
      <trkpt lat="46.45034" lon="5.26512">
        <ele>221</ele>
        <time>2021-03-10T13:47:35.000Z</time>
      </trkpt>
      <trkpt lat="46.4502" lon="5.26512">
        <ele>221</ele>
        <time>2021-03-10T13:47:37.000Z</time>
      </trkpt>
      <trkpt lat="46.45006" lon="5.26512">
        <ele>220.80000305176</ele>
        <time>2021-03-10T13:47:39.000Z</time>
      </trkpt>
      <trkpt lat="46.44998" lon="5.26512">
        <ele>220.60000610352</ele>
        <time>2021-03-10T13:47:40.000Z</time>
      </trkpt>
      <trkpt lat="46.44991" lon="5.26512">
        <ele>220.60000610352</ele>
        <time>2021-03-10T13:47:41.000Z</time>
      </trkpt>
      <trkpt lat="46.44977" lon="5.26512">
        <ele>220.19999694824</ele>
        <time>2021-03-10T13:47:43.000Z</time>
      </trkpt>
      <trkpt lat="46.4497" lon="5.26513">
        <ele>219.80000305176</ele>
        <time>2021-03-10T13:47:44.000Z</time>
      </trkpt>
      <trkpt lat="46.44963" lon="5.26514">
        <ele>219.60000610352</ele>
        <time>2021-03-10T13:47:45.000Z</time>
      </trkpt>
      <trkpt lat="46.44956" lon="5.26515">
        <ele>219.60000610352</ele>
        <time>2021-03-10T13:47:46.000Z</time>
      </trkpt>
      <trkpt lat="46.44949" lon="5.26518">
        <ele>219.39999389648</ele>
        <time>2021-03-10T13:47:47.000Z</time>
      </trkpt>
      <trkpt lat="46.44934" lon="5.26524">
        <ele>219.39999389648</ele>
        <time>2021-03-10T13:47:49.000Z</time>
      </trkpt>
      <trkpt lat="46.44921" lon="5.26532">
        <ele>219.19999694824</ele>
        <time>2021-03-10T13:47:51.000Z</time>
      </trkpt>
      <trkpt lat="46.44907" lon="5.26538">
        <ele>219.19999694824</ele>
        <time>2021-03-10T13:47:53.000Z</time>
      </trkpt>
      <trkpt lat="46.44894" lon="5.26544">
        <ele>219</ele>
        <time>2021-03-10T13:47:55.000Z</time>
      </trkpt>
      <trkpt lat="46.44881" lon="5.26551">
        <ele>219</ele>
        <time>2021-03-10T13:47:57.000Z</time>
      </trkpt>
      <trkpt lat="46.44871" lon="5.26561">
        <ele>219</ele>
        <time>2021-03-10T13:47:59.000Z</time>
      </trkpt>
      <trkpt lat="46.44861" lon="5.26572">
        <ele>219</ele>
        <time>2021-03-10T13:48:01.000Z</time>
      </trkpt>
      <trkpt lat="46.44857" lon="5.26577">
        <ele>219</ele>
        <time>2021-03-10T13:48:02.000Z</time>
      </trkpt>
      <trkpt lat="46.44853" lon="5.26584">
        <ele>219</ele>
        <time>2021-03-10T13:48:03.000Z</time>
      </trkpt>
      <trkpt lat="46.44846" lon="5.26597">
        <ele>219.19999694824</ele>
        <time>2021-03-10T13:48:05.000Z</time>
      </trkpt>
      <trkpt lat="46.44841" lon="5.26611">
        <ele>219.60000610352</ele>
        <time>2021-03-10T13:48:07.000Z</time>
      </trkpt>
      <trkpt lat="46.44838" lon="5.26626">
        <ele>220.19999694824</ele>
        <time>2021-03-10T13:48:09.000Z</time>
      </trkpt>
      <trkpt lat="46.44835" lon="5.2664">
        <ele>220.39999389648</ele>
        <time>2021-03-10T13:48:11.000Z</time>
      </trkpt>
      <trkpt lat="46.44832" lon="5.26646">
        <ele>220.80000305176</ele>
        <time>2021-03-10T13:48:12.000Z</time>
      </trkpt>
      <trkpt lat="46.44828" lon="5.26651">
        <ele>221.39999389648</ele>
        <time>2021-03-10T13:48:13.000Z</time>
      </trkpt>
      <trkpt lat="46.44819" lon="5.26657">
        <ele>222.19999694824</ele>
        <time>2021-03-10T13:48:15.000Z</time>
      </trkpt>
      <trkpt lat="46.44814" lon="5.26658">
        <ele>222.60000610352</ele>
        <time>2021-03-10T13:48:16.000Z</time>
      </trkpt>
      <trkpt lat="46.44808" lon="5.26659">
        <ele>223</ele>
        <time>2021-03-10T13:48:17.000Z</time>
      </trkpt>
      <trkpt lat="46.44797" lon="5.26662">
        <ele>223.39999389648</ele>
        <time>2021-03-10T13:48:19.000Z</time>
      </trkpt>
      <trkpt lat="46.44791" lon="5.26664">
        <ele>223.60000610352</ele>
        <time>2021-03-10T13:48:20.000Z</time>
      </trkpt>
      <trkpt lat="46.44785" lon="5.26667">
        <ele>223.80000305176</ele>
        <time>2021-03-10T13:48:21.000Z</time>
      </trkpt>
      <trkpt lat="46.44779" lon="5.26672">
        <ele>223.80000305176</ele>
        <time>2021-03-10T13:48:22.000Z</time>
      </trkpt>
      <trkpt lat="46.44773" lon="5.26677">
        <ele>223.80000305176</ele>
        <time>2021-03-10T13:48:23.000Z</time>
      </trkpt>
      <trkpt lat="46.4476" lon="5.26686">
        <ele>223.80000305176</ele>
        <time>2021-03-10T13:48:25.000Z</time>
      </trkpt>
      <trkpt lat="46.44745" lon="5.26692">
        <ele>223.80000305176</ele>
        <time>2021-03-10T13:48:27.000Z</time>
      </trkpt>
      <trkpt lat="46.44728" lon="5.26698">
        <ele>223.60000610352</ele>
        <time>2021-03-10T13:48:29.000Z</time>
      </trkpt>
      <trkpt lat="46.44711" lon="5.26702">
        <ele>223</ele>
        <time>2021-03-10T13:48:31.000Z</time>
      </trkpt>
      <trkpt lat="46.44702" lon="5.26702">
        <ele>222.39999389648</ele>
        <time>2021-03-10T13:48:32.000Z</time>
      </trkpt>
      <trkpt lat="46.44693" lon="5.26702">
        <ele>222</ele>
        <time>2021-03-10T13:48:33.000Z</time>
      </trkpt>
      <trkpt lat="46.44684" lon="5.267">
        <ele>221.60000610352</ele>
        <time>2021-03-10T13:48:34.000Z</time>
      </trkpt>
      <trkpt lat="46.44675" lon="5.26698">
        <ele>221.19999694824</ele>
        <time>2021-03-10T13:48:35.000Z</time>
      </trkpt>
      <trkpt lat="46.44666" lon="5.26694">
        <ele>220.60000610352</ele>
        <time>2021-03-10T13:48:36.000Z</time>
      </trkpt>
      <trkpt lat="46.44658" lon="5.26689">
        <ele>219.80000305176</ele>
        <time>2021-03-10T13:48:37.000Z</time>
      </trkpt>
      <trkpt lat="46.4465" lon="5.26684">
        <ele>218.80000305176</ele>
        <time>2021-03-10T13:48:38.000Z</time>
      </trkpt>
      <trkpt lat="46.44642" lon="5.26679">
        <ele>217.80000305176</ele>
        <time>2021-03-10T13:48:39.000Z</time>
      </trkpt>
      <trkpt lat="46.44627" lon="5.26668">
        <ele>217</ele>
        <time>2021-03-10T13:48:41.000Z</time>
      </trkpt>
      <trkpt lat="46.44614" lon="5.26658">
        <ele>216.80000305176</ele>
        <time>2021-03-10T13:48:43.000Z</time>
      </trkpt>
      <trkpt lat="46.44614" lon="5.26658">
        <ele>216.80000305176</ele>
        <time>2021-03-10T13:48:44.000Z</time>
      </trkpt>
      <trkpt lat="46.44602" lon="5.2665">
        <ele>216.80000305176</ele>
        <time>2021-03-10T13:48:45.000Z</time>
      </trkpt>
      <trkpt lat="46.44596" lon="5.26646">
        <ele>216.80000305176</ele>
        <time>2021-03-10T13:48:46.000Z</time>
      </trkpt>
      <trkpt lat="46.44591" lon="5.26643">
        <ele>216.80000305176</ele>
        <time>2021-03-10T13:48:47.000Z</time>
      </trkpt>
      <trkpt lat="46.4458" lon="5.26637">
        <ele>216.80000305176</ele>
        <time>2021-03-10T13:48:49.000Z</time>
      </trkpt>
      <trkpt lat="46.44568" lon="5.26634">
        <ele>217.19999694824</ele>
        <time>2021-03-10T13:48:51.000Z</time>
      </trkpt>
      <trkpt lat="46.44562" lon="5.26633">
        <ele>217.60000610352</ele>
        <time>2021-03-10T13:48:52.000Z</time>
      </trkpt>
      <trkpt lat="46.44557" lon="5.26634">
        <ele>218</ele>
        <time>2021-03-10T13:48:53.000Z</time>
      </trkpt>
      <trkpt lat="46.44545" lon="5.26638">
        <ele>219.39999389648</ele>
        <time>2021-03-10T13:48:55.000Z</time>
      </trkpt>
      <trkpt lat="46.44545" lon="5.26638">
        <ele>220</ele>
        <time>2021-03-10T13:48:56.000Z</time>
      </trkpt>
      <trkpt lat="46.44532" lon="5.26645">
        <ele>220.39999389648</ele>
        <time>2021-03-10T13:48:57.000Z</time>
      </trkpt>
      <trkpt lat="46.44526" lon="5.26649">
        <ele>220.60000610352</ele>
        <time>2021-03-10T13:48:58.000Z</time>
      </trkpt>
      <trkpt lat="46.4452" lon="5.26654">
        <ele>220.80000305176</ele>
        <time>2021-03-10T13:48:59.000Z</time>
      </trkpt>
      <trkpt lat="46.44514" lon="5.2666">
        <ele>220.80000305176</ele>
        <time>2021-03-10T13:49:00.000Z</time>
      </trkpt>
      <trkpt lat="46.44508" lon="5.26667">
        <ele>220.80000305176</ele>
        <time>2021-03-10T13:49:01.000Z</time>
      </trkpt>
      <trkpt lat="46.44502" lon="5.26675">
        <ele>221</ele>
        <time>2021-03-10T13:49:02.000Z</time>
      </trkpt>
      <trkpt lat="46.44496" lon="5.26683">
        <ele>221</ele>
        <time>2021-03-10T13:49:03.000Z</time>
      </trkpt>
      <trkpt lat="46.44483" lon="5.267">
        <ele>221</ele>
        <time>2021-03-10T13:49:05.000Z</time>
      </trkpt>
      <trkpt lat="46.44476" lon="5.26707">
        <ele>221</ele>
        <time>2021-03-10T13:49:06.000Z</time>
      </trkpt>
      <trkpt lat="46.44468" lon="5.26712">
        <ele>220.80000305176</ele>
        <time>2021-03-10T13:49:07.000Z</time>
      </trkpt>
      <trkpt lat="46.44468" lon="5.26712">
        <ele>220.60000610352</ele>
        <time>2021-03-10T13:49:08.000Z</time>
      </trkpt>
      <trkpt lat="46.4445" lon="5.26719">
        <ele>220.19999694824</ele>
        <time>2021-03-10T13:49:09.000Z</time>
      </trkpt>
      <trkpt lat="46.44432" lon="5.26724">
        <ele>218.80000305176</ele>
        <time>2021-03-10T13:49:11.000Z</time>
      </trkpt>
      <trkpt lat="46.44423" lon="5.26727">
        <ele>218.19999694824</ele>
        <time>2021-03-10T13:49:12.000Z</time>
      </trkpt>
      <trkpt lat="46.44414" lon="5.26729">
        <ele>217.39999389648</ele>
        <time>2021-03-10T13:49:13.000Z</time>
      </trkpt>
      <trkpt lat="46.44395" lon="5.26735">
        <ele>216.19999694824</ele>
        <time>2021-03-10T13:49:15.000Z</time>
      </trkpt>
      <trkpt lat="46.44385" lon="5.2674">
        <ele>215.60000610352</ele>
        <time>2021-03-10T13:49:16.000Z</time>
      </trkpt>
      <trkpt lat="46.44377" lon="5.26748">
        <ele>215.39999389648</ele>
        <time>2021-03-10T13:49:17.000Z</time>
      </trkpt>
      <trkpt lat="46.44369" lon="5.26757">
        <ele>215</ele>
        <time>2021-03-10T13:49:18.000Z</time>
      </trkpt>
      <trkpt lat="46.44363" lon="5.26769">
        <ele>214.60000610352</ele>
        <time>2021-03-10T13:49:19.000Z</time>
      </trkpt>
      <trkpt lat="46.44358" lon="5.26782">
        <ele>214</ele>
        <time>2021-03-10T13:49:20.000Z</time>
      </trkpt>
      <trkpt lat="46.44352" lon="5.26794">
        <ele>213.60000610352</ele>
        <time>2021-03-10T13:49:21.000Z</time>
      </trkpt>
      <trkpt lat="46.44346" lon="5.26805">
        <ele>212.60000610352</ele>
        <time>2021-03-10T13:49:22.000Z</time>
      </trkpt>
      <trkpt lat="46.44339" lon="5.26814">
        <ele>212.19999694824</ele>
        <time>2021-03-10T13:49:23.000Z</time>
      </trkpt>
      <trkpt lat="46.44322" lon="5.26824">
        <ele>211.19999694824</ele>
        <time>2021-03-10T13:49:25.000Z</time>
      </trkpt>
      <trkpt lat="46.44313" lon="5.26827">
        <ele>210.80000305176</ele>
        <time>2021-03-10T13:49:26.000Z</time>
      </trkpt>
      <trkpt lat="46.44304" lon="5.26829">
        <ele>210.19999694824</ele>
        <time>2021-03-10T13:49:27.000Z</time>
      </trkpt>
      <trkpt lat="46.44287" lon="5.26835">
        <ele>209</ele>
        <time>2021-03-10T13:49:29.000Z</time>
      </trkpt>
      <trkpt lat="46.44269" lon="5.26842">
        <ele>208.39999389648</ele>
        <time>2021-03-10T13:49:31.000Z</time>
      </trkpt>
      <trkpt lat="46.4426" lon="5.26847">
        <ele>208</ele>
        <time>2021-03-10T13:49:32.000Z</time>
      </trkpt>
      <trkpt lat="46.44251" lon="5.26852">
        <ele>207.60000610352</ele>
        <time>2021-03-10T13:49:33.000Z</time>
      </trkpt>
      <trkpt lat="46.44233" lon="5.26865">
        <ele>207.39999389648</ele>
        <time>2021-03-10T13:49:35.000Z</time>
      </trkpt>
      <trkpt lat="46.44216" lon="5.26878">
        <ele>207.19999694824</ele>
        <time>2021-03-10T13:49:37.000Z</time>
      </trkpt>
      <trkpt lat="46.44198" lon="5.26895">
        <ele>206.80000305176</ele>
        <time>2021-03-10T13:49:39.000Z</time>
      </trkpt>
      <trkpt lat="46.44183" lon="5.26916">
        <ele>205.39999389648</ele>
        <time>2021-03-10T13:49:41.000Z</time>
      </trkpt>
      <trkpt lat="46.44175" lon="5.26924">
        <ele>205</ele>
        <time>2021-03-10T13:49:42.000Z</time>
      </trkpt>
      <trkpt lat="46.44166" lon="5.2693">
        <ele>204.19999694824</ele>
        <time>2021-03-10T13:49:43.000Z</time>
      </trkpt>
      <trkpt lat="46.44147" lon="5.2693">
        <ele>202.60000610352</ele>
        <time>2021-03-10T13:49:45.000Z</time>
      </trkpt>
      <trkpt lat="46.44131" lon="5.2692">
        <ele>200.80000305176</ele>
        <time>2021-03-10T13:49:47.000Z</time>
      </trkpt>
      <trkpt lat="46.44124" lon="5.26914">
        <ele>199.80000305176</ele>
        <time>2021-03-10T13:49:48.000Z</time>
      </trkpt>
      <trkpt lat="46.44117" lon="5.26907">
        <ele>199.19999694824</ele>
        <time>2021-03-10T13:49:49.000Z</time>
      </trkpt>
      <trkpt lat="46.44103" lon="5.26894">
        <ele>198.60000610352</ele>
        <time>2021-03-10T13:49:51.000Z</time>
      </trkpt>
      <trkpt lat="46.44091" lon="5.26882">
        <ele>198.60000610352</ele>
        <time>2021-03-10T13:49:53.000Z</time>
      </trkpt>
      <trkpt lat="46.44078" lon="5.2687">
        <ele>198.60000610352</ele>
        <time>2021-03-10T13:49:55.000Z</time>
      </trkpt>
      <trkpt lat="46.44071" lon="5.26864">
        <ele>198.60000610352</ele>
        <time>2021-03-10T13:49:56.000Z</time>
      </trkpt>
      <trkpt lat="46.44065" lon="5.26858">
        <ele>198.60000610352</ele>
        <time>2021-03-10T13:49:57.000Z</time>
      </trkpt>
      <trkpt lat="46.44053" lon="5.26847">
        <ele>198.60000610352</ele>
        <time>2021-03-10T13:49:59.000Z</time>
      </trkpt>
      <trkpt lat="46.44042" lon="5.26837">
        <ele>199</ele>
        <time>2021-03-10T13:50:01.000Z</time>
      </trkpt>
      <trkpt lat="46.44031" lon="5.26828">
        <ele>199.39999389648</ele>
        <time>2021-03-10T13:50:03.000Z</time>
      </trkpt>
      <trkpt lat="46.44021" lon="5.26819">
        <ele>199.80000305176</ele>
        <time>2021-03-10T13:50:05.000Z</time>
      </trkpt>
      <trkpt lat="46.44012" lon="5.26811">
        <ele>200.19999694824</ele>
        <time>2021-03-10T13:50:07.000Z</time>
      </trkpt>
      <trkpt lat="46.44005" lon="5.26803">
        <ele>200.80000305176</ele>
        <time>2021-03-10T13:50:09.000Z</time>
      </trkpt>
      <trkpt lat="46.44001" lon="5.26799">
        <ele>201.39999389648</ele>
        <time>2021-03-10T13:50:10.000Z</time>
      </trkpt>
      <trkpt lat="46.43999" lon="5.26796">
        <ele>201.60000610352</ele>
        <time>2021-03-10T13:50:11.000Z</time>
      </trkpt>
      <trkpt lat="46.43997" lon="5.26793">
        <ele>202.19999694824</ele>
        <time>2021-03-10T13:50:13.000Z</time>
      </trkpt>
      <trkpt lat="46.43997" lon="5.26793">
        <ele>202.60000610352</ele>
        <time>2021-03-10T13:50:14.000Z</time>
      </trkpt>
      <trkpt lat="46.43997" lon="5.26792">
        <ele>202.60000610352</ele>
        <time>2021-03-10T13:50:15.000Z</time>
      </trkpt>
      <trkpt lat="46.43991" lon="5.26787">
        <ele>205</ele>
        <time>2021-03-10T13:51:00.000Z</time>
      </trkpt>
      <trkpt lat="46.43988" lon="5.26785">
        <ele>205</ele>
        <time>2021-03-10T13:51:01.000Z</time>
      </trkpt>
      <trkpt lat="46.4398" lon="5.26784">
        <ele>205</ele>
        <time>2021-03-10T13:51:03.000Z</time>
      </trkpt>
      <trkpt lat="46.43975" lon="5.26783">
        <ele>205</ele>
        <time>2021-03-10T13:51:04.000Z</time>
      </trkpt>
      <trkpt lat="46.4397" lon="5.26782">
        <ele>204.80000305176</ele>
        <time>2021-03-10T13:51:05.000Z</time>
      </trkpt>
      <trkpt lat="46.43964" lon="5.26781">
        <ele>204.80000305176</ele>
        <time>2021-03-10T13:51:06.000Z</time>
      </trkpt>
      <trkpt lat="46.43959" lon="5.26778">
        <ele>204.60000610352</ele>
        <time>2021-03-10T13:51:07.000Z</time>
      </trkpt>
      <trkpt lat="46.43959" lon="5.26778">
        <ele>204.60000610352</ele>
        <time>2021-03-10T13:51:08.000Z</time>
      </trkpt>
      <trkpt lat="46.4395" lon="5.26771">
        <ele>204.60000610352</ele>
        <time>2021-03-10T13:51:09.000Z</time>
      </trkpt>
      <trkpt lat="46.43945" lon="5.26768">
        <ele>204.39999389648</ele>
        <time>2021-03-10T13:51:10.000Z</time>
      </trkpt>
      <trkpt lat="46.43939" lon="5.26766">
        <ele>204.39999389648</ele>
        <time>2021-03-10T13:51:11.000Z</time>
      </trkpt>
      <trkpt lat="46.43933" lon="5.26765">
        <ele>204.19999694824</ele>
        <time>2021-03-10T13:51:12.000Z</time>
      </trkpt>
      <trkpt lat="46.43927" lon="5.26766">
        <ele>204.19999694824</ele>
        <time>2021-03-10T13:51:13.000Z</time>
      </trkpt>
      <trkpt lat="46.43927" lon="5.26766">
        <ele>204.19999694824</ele>
        <time>2021-03-10T13:51:14.000Z</time>
      </trkpt>
      <trkpt lat="46.43917" lon="5.26774">
        <ele>204.19999694824</ele>
        <time>2021-03-10T13:51:15.000Z</time>
      </trkpt>
      <trkpt lat="46.43908" lon="5.26786">
        <ele>204</ele>
        <time>2021-03-10T13:51:17.000Z</time>
      </trkpt>
      <trkpt lat="46.43898" lon="5.26798">
        <ele>204</ele>
        <time>2021-03-10T13:51:19.000Z</time>
      </trkpt>
      <trkpt lat="46.43888" lon="5.26807">
        <ele>204</ele>
        <time>2021-03-10T13:51:21.000Z</time>
      </trkpt>
      <trkpt lat="46.43879" lon="5.26817">
        <ele>204</ele>
        <time>2021-03-10T13:51:23.000Z</time>
      </trkpt>
      <trkpt lat="46.43872" lon="5.26829">
        <ele>204.19999694824</ele>
        <time>2021-03-10T13:51:25.000Z</time>
      </trkpt>
      <trkpt lat="46.43869" lon="5.26844">
        <ele>204.19999694824</ele>
        <time>2021-03-10T13:51:27.000Z</time>
      </trkpt>
      <trkpt lat="46.43867" lon="5.26859">
        <ele>204.19999694824</ele>
        <time>2021-03-10T13:51:29.000Z</time>
      </trkpt>
      <trkpt lat="46.43866" lon="5.26875">
        <ele>204.60000610352</ele>
        <time>2021-03-10T13:51:31.000Z</time>
      </trkpt>
      <trkpt lat="46.43865" lon="5.26891">
        <ele>205.19999694824</ele>
        <time>2021-03-10T13:51:33.000Z</time>
      </trkpt>
      <trkpt lat="46.43864" lon="5.26899">
        <ele>205.39999389648</ele>
        <time>2021-03-10T13:51:34.000Z</time>
      </trkpt>
      <trkpt lat="46.43862" lon="5.26907">
        <ele>205.80000305176</ele>
        <time>2021-03-10T13:51:35.000Z</time>
      </trkpt>
      <trkpt lat="46.4386" lon="5.26915">
        <ele>206</ele>
        <time>2021-03-10T13:51:36.000Z</time>
      </trkpt>
      <trkpt lat="46.43858" lon="5.26923">
        <ele>206.19999694824</ele>
        <time>2021-03-10T13:51:37.000Z</time>
      </trkpt>
      <trkpt lat="46.43852" lon="5.26939">
        <ele>206.60000610352</ele>
        <time>2021-03-10T13:51:39.000Z</time>
      </trkpt>
      <trkpt lat="46.43845" lon="5.26954">
        <ele>206.80000305176</ele>
        <time>2021-03-10T13:51:41.000Z</time>
      </trkpt>
      <trkpt lat="46.4384" lon="5.2696">
        <ele>206.80000305176</ele>
        <time>2021-03-10T13:51:42.000Z</time>
      </trkpt>
      <trkpt lat="46.43835" lon="5.26967">
        <ele>207</ele>
        <time>2021-03-10T13:51:43.000Z</time>
      </trkpt>
      <trkpt lat="46.43835" lon="5.26967">
        <ele>207</ele>
        <time>2021-03-10T13:51:44.000Z</time>
      </trkpt>
      <trkpt lat="46.43823" lon="5.26978">
        <ele>207</ele>
        <time>2021-03-10T13:51:45.000Z</time>
      </trkpt>
      <trkpt lat="46.43816" lon="5.26982">
        <ele>207</ele>
        <time>2021-03-10T13:51:46.000Z</time>
      </trkpt>
      <trkpt lat="46.43809" lon="5.26985">
        <ele>207</ele>
        <time>2021-03-10T13:51:47.000Z</time>
      </trkpt>
      <trkpt lat="46.43794" lon="5.2699">
        <ele>206.60000610352</ele>
        <time>2021-03-10T13:51:49.000Z</time>
      </trkpt>
      <trkpt lat="46.43794" lon="5.2699">
        <ele>206.19999694824</ele>
        <time>2021-03-10T13:51:50.000Z</time>
      </trkpt>
      <trkpt lat="46.43787" lon="5.2699">
        <ele>205.80000305176</ele>
        <time>2021-03-10T13:51:51.000Z</time>
      </trkpt>
      <trkpt lat="46.43772" lon="5.26988">
        <ele>205.19999694824</ele>
        <time>2021-03-10T13:51:52.000Z</time>
      </trkpt>
      <trkpt lat="46.43766" lon="5.26986">
        <ele>204.60000610352</ele>
        <time>2021-03-10T13:51:53.000Z</time>
      </trkpt>
      <trkpt lat="46.43759" lon="5.26984">
        <ele>204.19999694824</ele>
        <time>2021-03-10T13:51:54.000Z</time>
      </trkpt>
      <trkpt lat="46.43753" lon="5.26981">
        <ele>203.80000305176</ele>
        <time>2021-03-10T13:51:55.000Z</time>
      </trkpt>
      <trkpt lat="46.43741" lon="5.26977">
        <ele>203.60000610352</ele>
        <time>2021-03-10T13:51:57.000Z</time>
      </trkpt>
      <trkpt lat="46.43729" lon="5.26972">
        <ele>203.39999389648</ele>
        <time>2021-03-10T13:51:59.000Z</time>
      </trkpt>
      <trkpt lat="46.43718" lon="5.26968">
        <ele>203.39999389648</ele>
        <time>2021-03-10T13:52:01.000Z</time>
      </trkpt>
      <trkpt lat="46.43707" lon="5.26964">
        <ele>203.39999389648</ele>
        <time>2021-03-10T13:52:03.000Z</time>
      </trkpt>
      <trkpt lat="46.43695" lon="5.26959">
        <ele>203.39999389648</ele>
        <time>2021-03-10T13:52:05.000Z</time>
      </trkpt>
      <trkpt lat="46.43684" lon="5.26955">
        <ele>203.60000610352</ele>
        <time>2021-03-10T13:52:07.000Z</time>
      </trkpt>
      <trkpt lat="46.43672" lon="5.26951">
        <ele>203.80000305176</ele>
        <time>2021-03-10T13:52:09.000Z</time>
      </trkpt>
      <trkpt lat="46.43661" lon="5.26947">
        <ele>204.39999389648</ele>
        <time>2021-03-10T13:52:11.000Z</time>
      </trkpt>
      <trkpt lat="46.4365" lon="5.26942">
        <ele>204.60000610352</ele>
        <time>2021-03-10T13:52:13.000Z</time>
      </trkpt>
      <trkpt lat="46.43638" lon="5.26938">
        <ele>204.80000305176</ele>
        <time>2021-03-10T13:52:15.000Z</time>
      </trkpt>
      <trkpt lat="46.43632" lon="5.26936">
        <ele>205</ele>
        <time>2021-03-10T13:52:16.000Z</time>
      </trkpt>
      <trkpt lat="46.43627" lon="5.26934">
        <ele>205</ele>
        <time>2021-03-10T13:52:17.000Z</time>
      </trkpt>
      <trkpt lat="46.43615" lon="5.2693">
        <ele>205.19999694824</ele>
        <time>2021-03-10T13:52:19.000Z</time>
      </trkpt>
      <trkpt lat="46.43604" lon="5.26925">
        <ele>205.39999389648</ele>
        <time>2021-03-10T13:52:21.000Z</time>
      </trkpt>
      <trkpt lat="46.43592" lon="5.26921">
        <ele>205.60000610352</ele>
        <time>2021-03-10T13:52:23.000Z</time>
      </trkpt>
      <trkpt lat="46.43581" lon="5.26918">
        <ele>205.80000305176</ele>
        <time>2021-03-10T13:52:25.000Z</time>
      </trkpt>
      <trkpt lat="46.43569" lon="5.26914">
        <ele>205.80000305176</ele>
        <time>2021-03-10T13:52:27.000Z</time>
      </trkpt>
      <trkpt lat="46.43557" lon="5.26911">
        <ele>206</ele>
        <time>2021-03-10T13:52:29.000Z</time>
      </trkpt>
      <trkpt lat="46.43546" lon="5.26909">
        <ele>206.19999694824</ele>
        <time>2021-03-10T13:52:31.000Z</time>
      </trkpt>
      <trkpt lat="46.43534" lon="5.26906">
        <ele>206.19999694824</ele>
        <time>2021-03-10T13:52:33.000Z</time>
      </trkpt>
      <trkpt lat="46.43522" lon="5.26904">
        <ele>206.19999694824</ele>
        <time>2021-03-10T13:52:35.000Z</time>
      </trkpt>
      <trkpt lat="46.4351" lon="5.26902">
        <ele>206.39999389648</ele>
        <time>2021-03-10T13:52:37.000Z</time>
      </trkpt>
      <trkpt lat="46.43498" lon="5.26901">
        <ele>206.60000610352</ele>
        <time>2021-03-10T13:52:39.000Z</time>
      </trkpt>
      <trkpt lat="46.43492" lon="5.269">
        <ele>206.60000610352</ele>
        <time>2021-03-10T13:52:40.000Z</time>
      </trkpt>
      <trkpt lat="46.43486" lon="5.26898">
        <ele>206.60000610352</ele>
        <time>2021-03-10T13:52:41.000Z</time>
      </trkpt>
      <trkpt lat="46.43475" lon="5.26896">
        <ele>206.80000305176</ele>
        <time>2021-03-10T13:52:43.000Z</time>
      </trkpt>
      <trkpt lat="46.43463" lon="5.26894">
        <ele>206.80000305176</ele>
        <time>2021-03-10T13:52:45.000Z</time>
      </trkpt>
      <trkpt lat="46.43452" lon="5.26892">
        <ele>206.80000305176</ele>
        <time>2021-03-10T13:52:47.000Z</time>
      </trkpt>
      <trkpt lat="46.43441" lon="5.2689">
        <ele>207</ele>
        <time>2021-03-10T13:52:49.000Z</time>
      </trkpt>
      <trkpt lat="46.43441" lon="5.2689">
        <ele>207</ele>
        <time>2021-03-10T13:52:50.000Z</time>
      </trkpt>
      <trkpt lat="46.43431" lon="5.26888">
        <ele>207</ele>
        <time>2021-03-10T13:52:51.000Z</time>
      </trkpt>
      <trkpt lat="46.43425" lon="5.26887">
        <ele>207.19999694824</ele>
        <time>2021-03-10T13:52:52.000Z</time>
      </trkpt>
      <trkpt lat="46.4342" lon="5.26885">
        <ele>207.19999694824</ele>
        <time>2021-03-10T13:52:53.000Z</time>
      </trkpt>
      <trkpt lat="46.4341" lon="5.26883">
        <ele>207.60000610352</ele>
        <time>2021-03-10T13:52:55.000Z</time>
      </trkpt>
      <trkpt lat="46.43399" lon="5.2688">
        <ele>208</ele>
        <time>2021-03-10T13:52:57.000Z</time>
      </trkpt>
      <trkpt lat="46.43394" lon="5.26879">
        <ele>208.19999694824</ele>
        <time>2021-03-10T13:52:58.000Z</time>
      </trkpt>
      <trkpt lat="46.43389" lon="5.26877">
        <ele>208.19999694824</ele>
        <time>2021-03-10T13:52:59.000Z</time>
      </trkpt>
      <trkpt lat="46.43384" lon="5.26876">
        <ele>208.39999389648</ele>
        <time>2021-03-10T13:53:01.000Z</time>
      </trkpt>
      <trkpt lat="46.43367" lon="5.26873">
        <ele>208.60000610352</ele>
        <time>2021-03-10T13:53:03.000Z</time>
      </trkpt>
      <trkpt lat="46.43357" lon="5.26872">
        <ele>209</ele>
        <time>2021-03-10T13:53:05.000Z</time>
      </trkpt>
      <trkpt lat="46.43351" lon="5.26872">
        <ele>209.19999694824</ele>
        <time>2021-03-10T13:53:07.000Z</time>
      </trkpt>
      <trkpt lat="46.43335" lon="5.26871">
        <ele>209.39999389648</ele>
        <time>2021-03-10T13:53:09.000Z</time>
      </trkpt>
      <trkpt lat="46.43323" lon="5.2687">
        <ele>209.39999389648</ele>
        <time>2021-03-10T13:53:11.000Z</time>
      </trkpt>
      <trkpt lat="46.43312" lon="5.2687">
        <ele>209.60000610352</ele>
        <time>2021-03-10T13:53:13.000Z</time>
      </trkpt>
      <trkpt lat="46.43301" lon="5.2687">
        <ele>209.60000610352</ele>
        <time>2021-03-10T13:53:15.000Z</time>
      </trkpt>
      <trkpt lat="46.43289" lon="5.2687">
        <ele>209.60000610352</ele>
        <time>2021-03-10T13:53:17.000Z</time>
      </trkpt>
      <trkpt lat="46.43278" lon="5.26871">
        <ele>209.60000610352</ele>
        <time>2021-03-10T13:53:19.000Z</time>
      </trkpt>
      <trkpt lat="46.43266" lon="5.26873">
        <ele>209.80000305176</ele>
        <time>2021-03-10T13:53:21.000Z</time>
      </trkpt>
      <trkpt lat="46.43254" lon="5.26872">
        <ele>209.80000305176</ele>
        <time>2021-03-10T13:53:23.000Z</time>
      </trkpt>
      <trkpt lat="46.43243" lon="5.26872">
        <ele>209.80000305176</ele>
        <time>2021-03-10T13:53:25.000Z</time>
      </trkpt>
      <trkpt lat="46.43237" lon="5.26872">
        <ele>209.80000305176</ele>
        <time>2021-03-10T13:53:27.000Z</time>
      </trkpt>
      <trkpt lat="46.4322" lon="5.26871">
        <ele>209.80000305176</ele>
        <time>2021-03-10T13:53:29.000Z</time>
      </trkpt>
      <trkpt lat="46.43215" lon="5.2687">
        <ele>209.80000305176</ele>
        <time>2021-03-10T13:53:30.000Z</time>
      </trkpt>
      <trkpt lat="46.43209" lon="5.26869">
        <ele>209.80000305176</ele>
        <time>2021-03-10T13:53:31.000Z</time>
      </trkpt>
      <trkpt lat="46.43204" lon="5.26868">
        <ele>209.80000305176</ele>
        <time>2021-03-10T13:53:33.000Z</time>
      </trkpt>
      <trkpt lat="46.43188" lon="5.26865">
        <ele>209.80000305176</ele>
        <time>2021-03-10T13:53:35.000Z</time>
      </trkpt>
      <trkpt lat="46.43178" lon="5.26863">
        <ele>209.80000305176</ele>
        <time>2021-03-10T13:53:37.000Z</time>
      </trkpt>
      <trkpt lat="46.43169" lon="5.26861">
        <ele>209.80000305176</ele>
        <time>2021-03-10T13:53:39.000Z</time>
      </trkpt>
      <trkpt lat="46.43164" lon="5.2686">
        <ele>210</ele>
        <time>2021-03-10T13:53:41.000Z</time>
      </trkpt>
      <trkpt lat="46.43155" lon="5.26857">
        <ele>210.19999694824</ele>
        <time>2021-03-10T13:53:43.000Z</time>
      </trkpt>
      <trkpt lat="46.4315" lon="5.26856">
        <ele>210.39999389648</ele>
        <time>2021-03-10T13:53:44.000Z</time>
      </trkpt>
      <trkpt lat="46.43146" lon="5.26855">
        <ele>210.80000305176</ele>
        <time>2021-03-10T13:53:45.000Z</time>
      </trkpt>
      <trkpt lat="46.43138" lon="5.26852">
        <ele>211.19999694824</ele>
        <time>2021-03-10T13:53:47.000Z</time>
      </trkpt>
      <trkpt lat="46.4313" lon="5.2685">
        <ele>211.39999389648</ele>
        <time>2021-03-10T13:53:48.000Z</time>
      </trkpt>
      <trkpt lat="46.43126" lon="5.26849">
        <ele>211.80000305176</ele>
        <time>2021-03-10T13:53:49.000Z</time>
      </trkpt>
      <trkpt lat="46.43118" lon="5.26847">
        <ele>212.60000610352</ele>
        <time>2021-03-10T13:53:51.000Z</time>
      </trkpt>
      <trkpt lat="46.4311" lon="5.26845">
        <ele>213.19999694824</ele>
        <time>2021-03-10T13:53:53.000Z</time>
      </trkpt>
      <trkpt lat="46.43106" lon="5.26844">
        <ele>214</ele>
        <time>2021-03-10T13:53:55.000Z</time>
      </trkpt>
      <trkpt lat="46.43094" lon="5.26841">
        <ele>214.60000610352</ele>
        <time>2021-03-10T13:53:57.000Z</time>
      </trkpt>
      <trkpt lat="46.4309" lon="5.2684">
        <ele>215</ele>
        <time>2021-03-10T13:53:59.000Z</time>
      </trkpt>
      <trkpt lat="46.43082" lon="5.26839">
        <ele>215.80000305176</ele>
        <time>2021-03-10T13:54:01.000Z</time>
      </trkpt>
      <trkpt lat="46.43077" lon="5.26839">
        <ele>216.19999694824</ele>
        <time>2021-03-10T13:54:02.000Z</time>
      </trkpt>
      <trkpt lat="46.43073" lon="5.26839">
        <ele>216.60000610352</ele>
        <time>2021-03-10T13:54:03.000Z</time>
      </trkpt>
      <trkpt lat="46.43065" lon="5.26838">
        <ele>217</ele>
        <time>2021-03-10T13:54:05.000Z</time>
      </trkpt>
      <trkpt lat="46.43058" lon="5.26838">
        <ele>217.39999389648</ele>
        <time>2021-03-10T13:54:06.000Z</time>
      </trkpt>
      <trkpt lat="46.43058" lon="5.26838">
        <ele>217.60000610352</ele>
        <time>2021-03-10T13:54:07.000Z</time>
      </trkpt>
      <trkpt lat="46.4305" lon="5.26837">
        <ele>218.19999694824</ele>
        <time>2021-03-10T13:54:09.000Z</time>
      </trkpt>
      <trkpt lat="46.43042" lon="5.26837">
        <ele>218.39999389648</ele>
        <time>2021-03-10T13:54:10.000Z</time>
      </trkpt>
      <trkpt lat="46.43042" lon="5.26837">
        <ele>218.60000610352</ele>
        <time>2021-03-10T13:54:11.000Z</time>
      </trkpt>
      <trkpt lat="46.43033" lon="5.26837">
        <ele>219.19999694824</ele>
        <time>2021-03-10T13:54:13.000Z</time>
      </trkpt>
      <trkpt lat="46.43025" lon="5.26836">
        <ele>219.80000305176</ele>
        <time>2021-03-10T13:54:15.000Z</time>
      </trkpt>
      <trkpt lat="46.43017" lon="5.26837">
        <ele>220.19999694824</ele>
        <time>2021-03-10T13:54:17.000Z</time>
      </trkpt>
      <trkpt lat="46.43008" lon="5.26837">
        <ele>220.80000305176</ele>
        <time>2021-03-10T13:54:19.000Z</time>
      </trkpt>
      <trkpt lat="46.42994" lon="5.26839">
        <ele>221.39999389648</ele>
        <time>2021-03-10T13:54:21.000Z</time>
      </trkpt>
      <trkpt lat="46.42985" lon="5.26839">
        <ele>221.80000305176</ele>
        <time>2021-03-10T13:54:23.000Z</time>
      </trkpt>
      <trkpt lat="46.42981" lon="5.2684">
        <ele>221.80000305176</ele>
        <time>2021-03-10T13:54:24.000Z</time>
      </trkpt>
      <trkpt lat="46.42981" lon="5.2684">
        <ele>222</ele>
        <time>2021-03-10T13:54:25.000Z</time>
      </trkpt>
      <trkpt lat="46.42971" lon="5.26841">
        <ele>222.19999694824</ele>
        <time>2021-03-10T13:54:27.000Z</time>
      </trkpt>
      <trkpt lat="46.42962" lon="5.26843">
        <ele>222.39999389648</ele>
        <time>2021-03-10T13:54:29.000Z</time>
      </trkpt>
      <trkpt lat="46.42953" lon="5.26844">
        <ele>222.60000610352</ele>
        <time>2021-03-10T13:54:31.000Z</time>
      </trkpt>
      <trkpt lat="46.42938" lon="5.26846">
        <ele>223</ele>
        <time>2021-03-10T13:54:33.000Z</time>
      </trkpt>
      <trkpt lat="46.42934" lon="5.26847">
        <ele>223.19999694824</ele>
        <time>2021-03-10T13:54:34.000Z</time>
      </trkpt>
      <trkpt lat="46.42934" lon="5.26847">
        <ele>223.19999694824</ele>
        <time>2021-03-10T13:54:35.000Z</time>
      </trkpt>
      <trkpt lat="46.42924" lon="5.26848">
        <ele>223.39999389648</ele>
        <time>2021-03-10T13:54:37.000Z</time>
      </trkpt>
      <trkpt lat="46.42908" lon="5.26851">
        <ele>223.39999389648</ele>
        <time>2021-03-10T13:54:39.000Z</time>
      </trkpt>
      <trkpt lat="46.42897" lon="5.26852">
        <ele>223.39999389648</ele>
        <time>2021-03-10T13:54:41.000Z</time>
      </trkpt>
      <trkpt lat="46.42892" lon="5.26853">
        <ele>223.39999389648</ele>
        <time>2021-03-10T13:54:43.000Z</time>
      </trkpt>
      <trkpt lat="46.42886" lon="5.26853">
        <ele>223.39999389648</ele>
        <time>2021-03-10T13:54:44.000Z</time>
      </trkpt>
      <trkpt lat="46.42874" lon="5.26854">
        <ele>223.39999389648</ele>
        <time>2021-03-10T13:54:45.000Z</time>
      </trkpt>
      <trkpt lat="46.42868" lon="5.26855">
        <ele>223.39999389648</ele>
        <time>2021-03-10T13:54:47.000Z</time>
      </trkpt>
      <trkpt lat="46.42856" lon="5.26855">
        <ele>223.39999389648</ele>
        <time>2021-03-10T13:54:49.000Z</time>
      </trkpt>
      <trkpt lat="46.42843" lon="5.26855">
        <ele>223.39999389648</ele>
        <time>2021-03-10T13:54:51.000Z</time>
      </trkpt>
      <trkpt lat="46.42829" lon="5.26854">
        <ele>223.39999389648</ele>
        <time>2021-03-10T13:54:52.000Z</time>
      </trkpt>
      <trkpt lat="46.42822" lon="5.26853">
        <ele>223.19999694824</ele>
        <time>2021-03-10T13:54:53.000Z</time>
      </trkpt>
      <trkpt lat="46.42815" lon="5.26852">
        <ele>223</ele>
        <time>2021-03-10T13:54:55.000Z</time>
      </trkpt>
      <trkpt lat="46.428" lon="5.26849">
        <ele>222.60000610352</ele>
        <time>2021-03-10T13:54:57.000Z</time>
      </trkpt>
      <trkpt lat="46.42785" lon="5.26845">
        <ele>221.60000610352</ele>
        <time>2021-03-10T13:54:59.000Z</time>
      </trkpt>
      <trkpt lat="46.42768" lon="5.26841">
        <ele>221</ele>
        <time>2021-03-10T13:55:01.000Z</time>
      </trkpt>
      <trkpt lat="46.42751" lon="5.26837">
        <ele>220.19999694824</ele>
        <time>2021-03-10T13:55:03.000Z</time>
      </trkpt>
      <trkpt lat="46.42732" lon="5.26832">
        <ele>219.60000610352</ele>
        <time>2021-03-10T13:55:05.000Z</time>
      </trkpt>
      <trkpt lat="46.42713" lon="5.26828">
        <ele>219</ele>
        <time>2021-03-10T13:55:06.000Z</time>
      </trkpt>
      <trkpt lat="46.42713" lon="5.26828">
        <ele>218.39999389648</ele>
        <time>2021-03-10T13:55:07.000Z</time>
      </trkpt>
      <trkpt lat="46.42703" lon="5.26825">
        <ele>217.80000305176</ele>
        <time>2021-03-10T13:55:08.000Z</time>
      </trkpt>
      <trkpt lat="46.42693" lon="5.26823">
        <ele>217.19999694824</ele>
        <time>2021-03-10T13:55:09.000Z</time>
      </trkpt>
      <trkpt lat="46.42673" lon="5.26818">
        <ele>216.39999389648</ele>
        <time>2021-03-10T13:55:10.000Z</time>
      </trkpt>
      <trkpt lat="46.42663" lon="5.26815">
        <ele>216</ele>
        <time>2021-03-10T13:55:11.000Z</time>
      </trkpt>
      <trkpt lat="46.42652" lon="5.26813">
        <ele>215.19999694824</ele>
        <time>2021-03-10T13:55:12.000Z</time>
      </trkpt>
      <trkpt lat="46.42642" lon="5.2681">
        <ele>214.60000610352</ele>
        <time>2021-03-10T13:55:13.000Z</time>
      </trkpt>
      <trkpt lat="46.42642" lon="5.2681">
        <ele>213.80000305176</ele>
        <time>2021-03-10T13:55:14.000Z</time>
      </trkpt>
      <trkpt lat="46.4262" lon="5.26805">
        <ele>213.19999694824</ele>
        <time>2021-03-10T13:55:15.000Z</time>
      </trkpt>
      <trkpt lat="46.42609" lon="5.26802">
        <ele>212.39999389648</ele>
        <time>2021-03-10T13:55:16.000Z</time>
      </trkpt>
      <trkpt lat="46.42598" lon="5.26799">
        <ele>212</ele>
        <time>2021-03-10T13:55:17.000Z</time>
      </trkpt>
      <trkpt lat="46.42576" lon="5.26794">
        <ele>210.80000305176</ele>
        <time>2021-03-10T13:55:19.000Z</time>
      </trkpt>
      <trkpt lat="46.42554" lon="5.26789">
        <ele>209.19999694824</ele>
        <time>2021-03-10T13:55:21.000Z</time>
      </trkpt>
      <trkpt lat="46.42543" lon="5.26786">
        <ele>208.39999389648</ele>
        <time>2021-03-10T13:55:22.000Z</time>
      </trkpt>
      <trkpt lat="46.42543" lon="5.26786">
        <ele>207.80000305176</ele>
        <time>2021-03-10T13:55:23.000Z</time>
      </trkpt>
      <trkpt lat="46.42522" lon="5.26781">
        <ele>206.60000610352</ele>
        <time>2021-03-10T13:55:25.000Z</time>
      </trkpt>
      <trkpt lat="46.42493" lon="5.26774">
        <ele>205</ele>
        <time>2021-03-10T13:55:27.000Z</time>
      </trkpt>
      <trkpt lat="46.42474" lon="5.26769">
        <ele>204.60000610352</ele>
        <time>2021-03-10T13:55:29.000Z</time>
      </trkpt>
      <trkpt lat="46.42465" lon="5.26767">
        <ele>204.39999389648</ele>
        <time>2021-03-10T13:55:31.000Z</time>
      </trkpt>
      <trkpt lat="46.42441" lon="5.26761">
        <ele>204.39999389648</ele>
        <time>2021-03-10T13:55:33.000Z</time>
      </trkpt>
      <trkpt lat="46.42425" lon="5.26758">
        <ele>204.39999389648</ele>
        <time>2021-03-10T13:55:35.000Z</time>
      </trkpt>
      <trkpt lat="46.42418" lon="5.26756">
        <ele>204.39999389648</ele>
        <time>2021-03-10T13:55:37.000Z</time>
      </trkpt>
      <trkpt lat="46.42404" lon="5.26753">
        <ele>204.80000305176</ele>
        <time>2021-03-10T13:55:39.000Z</time>
      </trkpt>
      <trkpt lat="46.4239" lon="5.26749">
        <ele>205.60000610352</ele>
        <time>2021-03-10T13:55:41.000Z</time>
      </trkpt>
      <trkpt lat="46.42376" lon="5.26746">
        <ele>206</ele>
        <time>2021-03-10T13:55:42.000Z</time>
      </trkpt>
      <trkpt lat="46.42376" lon="5.26746">
        <ele>206.39999389648</ele>
        <time>2021-03-10T13:55:43.000Z</time>
      </trkpt>
      <trkpt lat="46.42369" lon="5.26744">
        <ele>206.80000305176</ele>
        <time>2021-03-10T13:55:44.000Z</time>
      </trkpt>
      <trkpt lat="46.42362" lon="5.26742">
        <ele>207.19999694824</ele>
        <time>2021-03-10T13:55:45.000Z</time>
      </trkpt>
      <trkpt lat="46.42342" lon="5.26738">
        <ele>208</ele>
        <time>2021-03-10T13:55:47.000Z</time>
      </trkpt>
      <trkpt lat="46.42335" lon="5.26736">
        <ele>208.39999389648</ele>
        <time>2021-03-10T13:55:49.000Z</time>
      </trkpt>
      <trkpt lat="46.42322" lon="5.26733">
        <ele>208.60000610352</ele>
        <time>2021-03-10T13:55:51.000Z</time>
      </trkpt>
      <trkpt lat="46.42309" lon="5.26729">
        <ele>209</ele>
        <time>2021-03-10T13:55:53.000Z</time>
      </trkpt>
      <trkpt lat="46.42296" lon="5.26726">
        <ele>209.39999389648</ele>
        <time>2021-03-10T13:55:54.000Z</time>
      </trkpt>
      <trkpt lat="46.42289" lon="5.26724">
        <ele>209.60000610352</ele>
        <time>2021-03-10T13:55:55.000Z</time>
      </trkpt>
      <trkpt lat="46.42277" lon="5.26721">
        <ele>210.19999694824</ele>
        <time>2021-03-10T13:55:57.000Z</time>
      </trkpt>
      <trkpt lat="46.42271" lon="5.26719">
        <ele>210.39999389648</ele>
        <time>2021-03-10T13:55:59.000Z</time>
      </trkpt>
      <trkpt lat="46.42259" lon="5.26715">
        <ele>210.39999389648</ele>
        <time>2021-03-10T13:56:00.000Z</time>
      </trkpt>
      <trkpt lat="46.42253" lon="5.26713">
        <ele>210.80000305176</ele>
        <time>2021-03-10T13:56:01.000Z</time>
      </trkpt>
      <trkpt lat="46.42241" lon="5.26709">
        <ele>211.19999694824</ele>
        <time>2021-03-10T13:56:03.000Z</time>
      </trkpt>
      <trkpt lat="46.42235" lon="5.26707">
        <ele>211.60000610352</ele>
        <time>2021-03-10T13:56:05.000Z</time>
      </trkpt>
      <trkpt lat="46.42223" lon="5.26703">
        <ele>212</ele>
        <time>2021-03-10T13:56:07.000Z</time>
      </trkpt>
      <trkpt lat="46.42205" lon="5.26696">
        <ele>212.60000610352</ele>
        <time>2021-03-10T13:56:09.000Z</time>
      </trkpt>
      <trkpt lat="46.42199" lon="5.26694">
        <ele>212.60000610352</ele>
        <time>2021-03-10T13:56:10.000Z</time>
      </trkpt>
      <trkpt lat="46.42192" lon="5.26692">
        <ele>212.80000305176</ele>
        <time>2021-03-10T13:56:11.000Z</time>
      </trkpt>
      <trkpt lat="46.42186" lon="5.2669">
        <ele>213</ele>
        <time>2021-03-10T13:56:12.000Z</time>
      </trkpt>
      <trkpt lat="46.42179" lon="5.26687">
        <ele>213.19999694824</ele>
        <time>2021-03-10T13:56:13.000Z</time>
      </trkpt>
      <trkpt lat="46.42166" lon="5.26683">
        <ele>213.39999389648</ele>
        <time>2021-03-10T13:56:15.000Z</time>
      </trkpt>
      <trkpt lat="46.42153" lon="5.26678">
        <ele>213.39999389648</ele>
        <time>2021-03-10T13:56:17.000Z</time>
      </trkpt>
      <trkpt lat="46.42139" lon="5.26674">
        <ele>213.39999389648</ele>
        <time>2021-03-10T13:56:19.000Z</time>
      </trkpt>
      <trkpt lat="46.42139" lon="5.26674">
        <ele>213.39999389648</ele>
        <time>2021-03-10T13:56:20.000Z</time>
      </trkpt>
      <trkpt lat="46.42125" lon="5.26668">
        <ele>213.39999389648</ele>
        <time>2021-03-10T13:56:21.000Z</time>
      </trkpt>
      <trkpt lat="46.42111" lon="5.26663">
        <ele>213.39999389648</ele>
        <time>2021-03-10T13:56:23.000Z</time>
      </trkpt>
      <trkpt lat="46.42096" lon="5.26658">
        <ele>212.80000305176</ele>
        <time>2021-03-10T13:56:25.000Z</time>
      </trkpt>
      <trkpt lat="46.42082" lon="5.26653">
        <ele>212.60000610352</ele>
        <time>2021-03-10T13:56:27.000Z</time>
      </trkpt>
      <trkpt lat="46.42068" lon="5.26647">
        <ele>212</ele>
        <time>2021-03-10T13:56:29.000Z</time>
      </trkpt>
      <trkpt lat="46.42061" lon="5.26645">
        <ele>212</ele>
        <time>2021-03-10T13:56:30.000Z</time>
      </trkpt>
      <trkpt lat="46.42054" lon="5.26642">
        <ele>211.80000305176</ele>
        <time>2021-03-10T13:56:31.000Z</time>
      </trkpt>
      <trkpt lat="46.4204" lon="5.26637">
        <ele>211.39999389648</ele>
        <time>2021-03-10T13:56:33.000Z</time>
      </trkpt>
      <trkpt lat="46.42026" lon="5.26632">
        <ele>211.39999389648</ele>
        <time>2021-03-10T13:56:35.000Z</time>
      </trkpt>
      <trkpt lat="46.4202" lon="5.26629">
        <ele>211.39999389648</ele>
        <time>2021-03-10T13:56:37.000Z</time>
      </trkpt>
      <trkpt lat="46.41999" lon="5.26622">
        <ele>211.39999389648</ele>
        <time>2021-03-10T13:56:39.000Z</time>
      </trkpt>
      <trkpt lat="46.41986" lon="5.26617">
        <ele>211.60000610352</ele>
        <time>2021-03-10T13:56:41.000Z</time>
      </trkpt>
      <trkpt lat="46.41972" lon="5.26612">
        <ele>211.39999389648</ele>
        <time>2021-03-10T13:56:43.000Z</time>
      </trkpt>
      <trkpt lat="46.41965" lon="5.26609">
        <ele>211.39999389648</ele>
        <time>2021-03-10T13:56:45.000Z</time>
      </trkpt>
      <trkpt lat="46.41952" lon="5.26604">
        <ele>211.39999389648</ele>
        <time>2021-03-10T13:56:47.000Z</time>
      </trkpt>
      <trkpt lat="46.41938" lon="5.26599">
        <ele>211.60000610352</ele>
        <time>2021-03-10T13:56:49.000Z</time>
      </trkpt>
      <trkpt lat="46.41925" lon="5.26593">
        <ele>211.39999389648</ele>
        <time>2021-03-10T13:56:51.000Z</time>
      </trkpt>
      <trkpt lat="46.41911" lon="5.26587">
        <ele>211.19999694824</ele>
        <time>2021-03-10T13:56:53.000Z</time>
      </trkpt>
      <trkpt lat="46.41898" lon="5.26582">
        <ele>211.19999694824</ele>
        <time>2021-03-10T13:56:55.000Z</time>
      </trkpt>
      <trkpt lat="46.41884" lon="5.26576">
        <ele>211.19999694824</ele>
        <time>2021-03-10T13:56:57.000Z</time>
      </trkpt>
      <trkpt lat="46.41871" lon="5.26571">
        <ele>211</ele>
        <time>2021-03-10T13:56:58.000Z</time>
      </trkpt>
      <trkpt lat="46.41871" lon="5.26571">
        <ele>210.80000305176</ele>
        <time>2021-03-10T13:56:59.000Z</time>
      </trkpt>
      <trkpt lat="46.41857" lon="5.26565">
        <ele>210.60000610352</ele>
        <time>2021-03-10T13:57:01.000Z</time>
      </trkpt>
      <trkpt lat="46.41836" lon="5.26556">
        <ele>210.39999389648</ele>
        <time>2021-03-10T13:57:03.000Z</time>
      </trkpt>
      <trkpt lat="46.41823" lon="5.26551">
        <ele>210.19999694824</ele>
        <time>2021-03-10T13:57:05.000Z</time>
      </trkpt>
      <trkpt lat="46.41809" lon="5.26545">
        <ele>210</ele>
        <time>2021-03-10T13:57:07.000Z</time>
      </trkpt>
      <trkpt lat="46.41802" lon="5.26542">
        <ele>209.80000305176</ele>
        <time>2021-03-10T13:57:09.000Z</time>
      </trkpt>
      <trkpt lat="46.41788" lon="5.26536">
        <ele>209.60000610352</ele>
        <time>2021-03-10T13:57:10.000Z</time>
      </trkpt>
      <trkpt lat="46.41781" lon="5.26534">
        <ele>209.60000610352</ele>
        <time>2021-03-10T13:57:11.000Z</time>
      </trkpt>
      <trkpt lat="46.41775" lon="5.26531">
        <ele>209.60000610352</ele>
        <time>2021-03-10T13:57:13.000Z</time>
      </trkpt>
      <trkpt lat="46.41761" lon="5.26525">
        <ele>209.39999389648</ele>
        <time>2021-03-10T13:57:15.000Z</time>
      </trkpt>
      <trkpt lat="46.41748" lon="5.2652">
        <ele>209.39999389648</ele>
        <time>2021-03-10T13:57:17.000Z</time>
      </trkpt>
      <trkpt lat="46.41735" lon="5.26515">
        <ele>209.39999389648</ele>
        <time>2021-03-10T13:57:19.000Z</time>
      </trkpt>
      <trkpt lat="46.41721" lon="5.2651">
        <ele>209.39999389648</ele>
        <time>2021-03-10T13:57:21.000Z</time>
      </trkpt>
      <trkpt lat="46.41709" lon="5.26506">
        <ele>209.39999389648</ele>
        <time>2021-03-10T13:57:23.000Z</time>
      </trkpt>
      <trkpt lat="46.41689" lon="5.26503">
        <ele>209.39999389648</ele>
        <time>2021-03-10T13:57:25.000Z</time>
      </trkpt>
      <trkpt lat="46.41676" lon="5.26501">
        <ele>209.39999389648</ele>
        <time>2021-03-10T13:57:27.000Z</time>
      </trkpt>
      <trkpt lat="46.41663" lon="5.26501">
        <ele>209.39999389648</ele>
        <time>2021-03-10T13:57:29.000Z</time>
      </trkpt>
      <trkpt lat="46.41656" lon="5.26501">
        <ele>209.39999389648</ele>
        <time>2021-03-10T13:57:30.000Z</time>
      </trkpt>
      <trkpt lat="46.4165" lon="5.26502">
        <ele>209.39999389648</ele>
        <time>2021-03-10T13:57:31.000Z</time>
      </trkpt>
      <trkpt lat="46.41637" lon="5.26504">
        <ele>209.60000610352</ele>
        <time>2021-03-10T13:57:33.000Z</time>
      </trkpt>
      <trkpt lat="46.41624" lon="5.26508">
        <ele>209.60000610352</ele>
        <time>2021-03-10T13:57:35.000Z</time>
      </trkpt>
      <trkpt lat="46.41612" lon="5.26512">
        <ele>209.60000610352</ele>
        <time>2021-03-10T13:57:37.000Z</time>
      </trkpt>
      <trkpt lat="46.41612" lon="5.26512">
        <ele>209.60000610352</ele>
        <time>2021-03-10T13:57:38.000Z</time>
      </trkpt>
      <trkpt lat="46.41599" lon="5.26517">
        <ele>209.80000305176</ele>
        <time>2021-03-10T13:57:39.000Z</time>
      </trkpt>
      <trkpt lat="46.41587" lon="5.26523">
        <ele>209.80000305176</ele>
        <time>2021-03-10T13:57:41.000Z</time>
      </trkpt>
      <trkpt lat="46.41581" lon="5.26526">
        <ele>209.80000305176</ele>
        <time>2021-03-10T13:57:43.000Z</time>
      </trkpt>
      <trkpt lat="46.41564" lon="5.26539">
        <ele>209.60000610352</ele>
        <time>2021-03-10T13:57:45.000Z</time>
      </trkpt>
      <trkpt lat="46.41552" lon="5.26548">
        <ele>209.60000610352</ele>
        <time>2021-03-10T13:57:47.000Z</time>
      </trkpt>
      <trkpt lat="46.41541" lon="5.26557">
        <ele>209.60000610352</ele>
        <time>2021-03-10T13:57:49.000Z</time>
      </trkpt>
      <trkpt lat="46.4153" lon="5.26568">
        <ele>209.60000610352</ele>
        <time>2021-03-10T13:57:51.000Z</time>
      </trkpt>
      <trkpt lat="46.4152" lon="5.26578">
        <ele>209.60000610352</ele>
        <time>2021-03-10T13:57:53.000Z</time>
      </trkpt>
      <trkpt lat="46.41515" lon="5.26584">
        <ele>209.60000610352</ele>
        <time>2021-03-10T13:57:54.000Z</time>
      </trkpt>
      <trkpt lat="46.4151" lon="5.26589">
        <ele>209.60000610352</ele>
        <time>2021-03-10T13:57:55.000Z</time>
      </trkpt>
      <trkpt lat="46.415" lon="5.266">
        <ele>209.60000610352</ele>
        <time>2021-03-10T13:57:57.000Z</time>
      </trkpt>
      <trkpt lat="46.41489" lon="5.2661">
        <ele>209.60000610352</ele>
        <time>2021-03-10T13:57:59.000Z</time>
      </trkpt>
      <trkpt lat="46.4148" lon="5.2662">
        <ele>209.60000610352</ele>
        <time>2021-03-10T13:58:01.000Z</time>
      </trkpt>
      <trkpt lat="46.4147" lon="5.26631">
        <ele>209.80000305176</ele>
        <time>2021-03-10T13:58:03.000Z</time>
      </trkpt>
      <trkpt lat="46.41466" lon="5.26636">
        <ele>210</ele>
        <time>2021-03-10T13:58:04.000Z</time>
      </trkpt>
      <trkpt lat="46.41461" lon="5.2664">
        <ele>210</ele>
        <time>2021-03-10T13:58:05.000Z</time>
      </trkpt>
      <trkpt lat="46.41452" lon="5.26649">
        <ele>210.39999389648</ele>
        <time>2021-03-10T13:58:07.000Z</time>
      </trkpt>
      <trkpt lat="46.41443" lon="5.26658">
        <ele>210.60000610352</ele>
        <time>2021-03-10T13:58:09.000Z</time>
      </trkpt>
      <trkpt lat="46.41439" lon="5.26662">
        <ele>210.80000305176</ele>
        <time>2021-03-10T13:58:10.000Z</time>
      </trkpt>
      <trkpt lat="46.41435" lon="5.26667">
        <ele>211</ele>
        <time>2021-03-10T13:58:11.000Z</time>
      </trkpt>
      <trkpt lat="46.4143" lon="5.26672">
        <ele>211</ele>
        <time>2021-03-10T13:58:12.000Z</time>
      </trkpt>
      <trkpt lat="46.41426" lon="5.26676">
        <ele>211.39999389648</ele>
        <time>2021-03-10T13:58:13.000Z</time>
      </trkpt>
      <trkpt lat="46.41418" lon="5.26685">
        <ele>211.60000610352</ele>
        <time>2021-03-10T13:58:15.000Z</time>
      </trkpt>
      <trkpt lat="46.41415" lon="5.26689">
        <ele>212.19999694824</ele>
        <time>2021-03-10T13:58:17.000Z</time>
      </trkpt>
      <trkpt lat="46.41407" lon="5.26697">
        <ele>212.60000610352</ele>
        <time>2021-03-10T13:58:19.000Z</time>
      </trkpt>
      <trkpt lat="46.41403" lon="5.26701">
        <ele>212.80000305176</ele>
        <time>2021-03-10T13:58:20.000Z</time>
      </trkpt>
      <trkpt lat="46.41395" lon="5.26709">
        <ele>213.19999694824</ele>
        <time>2021-03-10T13:58:21.000Z</time>
      </trkpt>
      <trkpt lat="46.41388" lon="5.26716">
        <ele>213.60000610352</ele>
        <time>2021-03-10T13:58:23.000Z</time>
      </trkpt>
      <trkpt lat="46.41384" lon="5.2672">
        <ele>214</ele>
        <time>2021-03-10T13:58:24.000Z</time>
      </trkpt>
      <trkpt lat="46.4138" lon="5.26724">
        <ele>214.19999694824</ele>
        <time>2021-03-10T13:58:25.000Z</time>
      </trkpt>
      <trkpt lat="46.41376" lon="5.26728">
        <ele>214.60000610352</ele>
        <time>2021-03-10T13:58:27.000Z</time>
      </trkpt>
      <trkpt lat="46.41368" lon="5.26736">
        <ele>214.80000305176</ele>
        <time>2021-03-10T13:58:28.000Z</time>
      </trkpt>
      <trkpt lat="46.41365" lon="5.2674">
        <ele>215</ele>
        <time>2021-03-10T13:58:29.000Z</time>
      </trkpt>
      <trkpt lat="46.41357" lon="5.26748">
        <ele>215.39999389648</ele>
        <time>2021-03-10T13:58:31.000Z</time>
      </trkpt>
      <trkpt lat="46.41353" lon="5.26752">
        <ele>216</ele>
        <time>2021-03-10T13:58:33.000Z</time>
      </trkpt>
      <trkpt lat="46.41346" lon="5.2676">
        <ele>216.19999694824</ele>
        <time>2021-03-10T13:58:34.000Z</time>
      </trkpt>
      <trkpt lat="46.41346" lon="5.2676">
        <ele>216.39999389648</ele>
        <time>2021-03-10T13:58:35.000Z</time>
      </trkpt>
      <trkpt lat="46.41339" lon="5.26767">
        <ele>217</ele>
        <time>2021-03-10T13:58:37.000Z</time>
      </trkpt>
      <trkpt lat="46.41328" lon="5.26777">
        <ele>217.39999389648</ele>
        <time>2021-03-10T13:58:39.000Z</time>
      </trkpt>
      <trkpt lat="46.41325" lon="5.26781">
        <ele>217.80000305176</ele>
        <time>2021-03-10T13:58:41.000Z</time>
      </trkpt>
      <trkpt lat="46.41319" lon="5.26787">
        <ele>218.39999389648</ele>
        <time>2021-03-10T13:58:43.000Z</time>
      </trkpt>
      <trkpt lat="46.41312" lon="5.26793">
        <ele>219</ele>
        <time>2021-03-10T13:58:45.000Z</time>
      </trkpt>
      <trkpt lat="46.41301" lon="5.268">
        <ele>219.60000610352</ele>
        <time>2021-03-10T13:58:47.000Z</time>
      </trkpt>
      <trkpt lat="46.41298" lon="5.26803">
        <ele>220</ele>
        <time>2021-03-10T13:58:49.000Z</time>
      </trkpt>
      <trkpt lat="46.41294" lon="5.26805">
        <ele>220.19999694824</ele>
        <time>2021-03-10T13:58:50.000Z</time>
      </trkpt>
      <trkpt lat="46.41287" lon="5.26808">
        <ele>220.39999389648</ele>
        <time>2021-03-10T13:58:51.000Z</time>
      </trkpt>
      <trkpt lat="46.41283" lon="5.26809">
        <ele>221</ele>
        <time>2021-03-10T13:58:53.000Z</time>
      </trkpt>
      <trkpt lat="46.41275" lon="5.26811">
        <ele>221.39999389648</ele>
        <time>2021-03-10T13:58:55.000Z</time>
      </trkpt>
      <trkpt lat="46.41268" lon="5.26813">
        <ele>221.80000305176</ele>
        <time>2021-03-10T13:58:57.000Z</time>
      </trkpt>
      <trkpt lat="46.41261" lon="5.26815">
        <ele>222</ele>
        <time>2021-03-10T13:58:58.000Z</time>
      </trkpt>
      <trkpt lat="46.41257" lon="5.26816">
        <ele>222.19999694824</ele>
        <time>2021-03-10T13:58:59.000Z</time>
      </trkpt>
      <trkpt lat="46.41249" lon="5.2682">
        <ele>222.60000610352</ele>
        <time>2021-03-10T13:59:01.000Z</time>
      </trkpt>
      <trkpt lat="46.41245" lon="5.26823">
        <ele>223.19999694824</ele>
        <time>2021-03-10T13:59:03.000Z</time>
      </trkpt>
      <trkpt lat="46.41237" lon="5.26828">
        <ele>223.60000610352</ele>
        <time>2021-03-10T13:59:04.000Z</time>
      </trkpt>
      <trkpt lat="46.41234" lon="5.26831">
        <ele>224</ele>
        <time>2021-03-10T13:59:05.000Z</time>
      </trkpt>
      <trkpt lat="46.4123" lon="5.26834">
        <ele>224.39999389648</ele>
        <time>2021-03-10T13:59:06.000Z</time>
      </trkpt>
      <trkpt lat="46.4123" lon="5.26834">
        <ele>224.80000305176</ele>
        <time>2021-03-10T13:59:07.000Z</time>
      </trkpt>
      <trkpt lat="46.41218" lon="5.26842">
        <ele>225.60000610352</ele>
        <time>2021-03-10T13:59:09.000Z</time>
      </trkpt>
      <trkpt lat="46.41214" lon="5.26844">
        <ele>225.80000305176</ele>
        <time>2021-03-10T13:59:11.000Z</time>
      </trkpt>
      <trkpt lat="46.41205" lon="5.26848">
        <ele>226</ele>
        <time>2021-03-10T13:59:12.000Z</time>
      </trkpt>
      <trkpt lat="46.41205" lon="5.26848">
        <ele>226.19999694824</ele>
        <time>2021-03-10T13:59:13.000Z</time>
      </trkpt>
      <trkpt lat="46.41196" lon="5.26848">
        <ele>226.19999694824</ele>
        <time>2021-03-10T13:59:15.000Z</time>
      </trkpt>
      <trkpt lat="46.41186" lon="5.26853">
        <ele>226.39999389648</ele>
        <time>2021-03-10T13:59:17.000Z</time>
      </trkpt>
      <trkpt lat="46.41178" lon="5.26863">
        <ele>226.39999389648</ele>
        <time>2021-03-10T13:59:18.000Z</time>
      </trkpt>
      <trkpt lat="46.41175" lon="5.26869">
        <ele>226.39999389648</ele>
        <time>2021-03-10T13:59:19.000Z</time>
      </trkpt>
      <trkpt lat="46.41172" lon="5.26875">
        <ele>226.60000610352</ele>
        <time>2021-03-10T13:59:21.000Z</time>
      </trkpt>
      <trkpt lat="46.41164" lon="5.26883">
        <ele>226.60000610352</ele>
        <time>2021-03-10T13:59:23.000Z</time>
      </trkpt>
      <trkpt lat="46.41155" lon="5.26888">
        <ele>226.60000610352</ele>
        <time>2021-03-10T13:59:24.000Z</time>
      </trkpt>
      <trkpt lat="46.41155" lon="5.26888">
        <ele>226.60000610352</ele>
        <time>2021-03-10T13:59:25.000Z</time>
      </trkpt>
      <trkpt lat="46.41145" lon="5.26892">
        <ele>226.80000305176</ele>
        <time>2021-03-10T13:59:27.000Z</time>
      </trkpt>
      <trkpt lat="46.41135" lon="5.26896">
        <ele>227</ele>
        <time>2021-03-10T13:59:29.000Z</time>
      </trkpt>
      <trkpt lat="46.41124" lon="5.26899">
        <ele>227.39999389648</ele>
        <time>2021-03-10T13:59:31.000Z</time>
      </trkpt>
      <trkpt lat="46.41119" lon="5.269">
        <ele>227.39999389648</ele>
        <time>2021-03-10T13:59:32.000Z</time>
      </trkpt>
      <trkpt lat="46.41114" lon="5.26901">
        <ele>227.39999389648</ele>
        <time>2021-03-10T13:59:33.000Z</time>
      </trkpt>
      <trkpt lat="46.41096" lon="5.26903">
        <ele>227.60000610352</ele>
        <time>2021-03-10T13:59:35.000Z</time>
      </trkpt>
      <trkpt lat="46.4109" lon="5.26903">
        <ele>227.60000610352</ele>
        <time>2021-03-10T13:59:37.000Z</time>
      </trkpt>
      <trkpt lat="46.41077" lon="5.26903">
        <ele>227.60000610352</ele>
        <time>2021-03-10T13:59:39.000Z</time>
      </trkpt>
      <trkpt lat="46.41064" lon="5.26902">
        <ele>227.60000610352</ele>
        <time>2021-03-10T13:59:41.000Z</time>
      </trkpt>
      <trkpt lat="46.4105" lon="5.26901">
        <ele>227.39999389648</ele>
        <time>2021-03-10T13:59:43.000Z</time>
      </trkpt>
      <trkpt lat="46.41037" lon="5.26901">
        <ele>226.80000305176</ele>
        <time>2021-03-10T13:59:45.000Z</time>
      </trkpt>
      <trkpt lat="46.41022" lon="5.26902">
        <ele>226.60000610352</ele>
        <time>2021-03-10T13:59:47.000Z</time>
      </trkpt>
      <trkpt lat="46.40999" lon="5.26905">
        <ele>226.39999389648</ele>
        <time>2021-03-10T13:59:49.000Z</time>
      </trkpt>
      <trkpt lat="46.40991" lon="5.26907">
        <ele>226</ele>
        <time>2021-03-10T13:59:51.000Z</time>
      </trkpt>
      <trkpt lat="46.40976" lon="5.26909">
        <ele>225.80000305176</ele>
        <time>2021-03-10T13:59:53.000Z</time>
      </trkpt>
      <trkpt lat="46.4096" lon="5.26912">
        <ele>225.19999694824</ele>
        <time>2021-03-10T13:59:55.000Z</time>
      </trkpt>
      <trkpt lat="46.40945" lon="5.26916">
        <ele>225</ele>
        <time>2021-03-10T13:59:57.000Z</time>
      </trkpt>
      <trkpt lat="46.4093" lon="5.26919">
        <ele>224.60000610352</ele>
        <time>2021-03-10T13:59:58.000Z</time>
      </trkpt>
      <trkpt lat="46.40922" lon="5.26921">
        <ele>224.39999389648</ele>
        <time>2021-03-10T13:59:59.000Z</time>
      </trkpt>
      <trkpt lat="46.40907" lon="5.26927">
        <ele>223.80000305176</ele>
        <time>2021-03-10T14:00:01.000Z</time>
      </trkpt>
      <trkpt lat="46.40891" lon="5.26933">
        <ele>223.60000610352</ele>
        <time>2021-03-10T14:00:03.000Z</time>
      </trkpt>
      <trkpt lat="46.40876" lon="5.2694">
        <ele>223.39999389648</ele>
        <time>2021-03-10T14:00:05.000Z</time>
      </trkpt>
      <trkpt lat="46.40861" lon="5.26949">
        <ele>223.19999694824</ele>
        <time>2021-03-10T14:00:07.000Z</time>
      </trkpt>
      <trkpt lat="46.40846" lon="5.26957">
        <ele>223.19999694824</ele>
        <time>2021-03-10T14:00:09.000Z</time>
      </trkpt>
      <trkpt lat="46.40831" lon="5.26965">
        <ele>223</ele>
        <time>2021-03-10T14:00:11.000Z</time>
      </trkpt>
      <trkpt lat="46.40815" lon="5.26974">
        <ele>222.80000305176</ele>
        <time>2021-03-10T14:00:13.000Z</time>
      </trkpt>
      <trkpt lat="46.40815" lon="5.26974">
        <ele>222.60000610352</ele>
        <time>2021-03-10T14:00:14.000Z</time>
      </trkpt>
      <trkpt lat="46.40808" lon="5.26977">
        <ele>222.19999694824</ele>
        <time>2021-03-10T14:00:15.000Z</time>
      </trkpt>
      <trkpt lat="46.40792" lon="5.26981">
        <ele>222</ele>
        <time>2021-03-10T14:00:16.000Z</time>
      </trkpt>
      <trkpt lat="46.40792" lon="5.26981">
        <ele>221.80000305176</ele>
        <time>2021-03-10T14:00:17.000Z</time>
      </trkpt>
      <trkpt lat="46.40776" lon="5.26981">
        <ele>221.60000610352</ele>
        <time>2021-03-10T14:00:18.000Z</time>
      </trkpt>
      <trkpt lat="46.40776" lon="5.26981">
        <ele>221.39999389648</ele>
        <time>2021-03-10T14:00:19.000Z</time>
      </trkpt>
      <trkpt lat="46.4076" lon="5.26978">
        <ele>221.19999694824</ele>
        <time>2021-03-10T14:00:21.000Z</time>
      </trkpt>
      <trkpt lat="46.40745" lon="5.26976">
        <ele>221.19999694824</ele>
        <time>2021-03-10T14:00:23.000Z</time>
      </trkpt>
      <trkpt lat="46.4073" lon="5.26974">
        <ele>221.19999694824</ele>
        <time>2021-03-10T14:00:25.000Z</time>
      </trkpt>
      <trkpt lat="46.40716" lon="5.2697">
        <ele>221.19999694824</ele>
        <time>2021-03-10T14:00:27.000Z</time>
      </trkpt>
      <trkpt lat="46.40703" lon="5.26967">
        <ele>221.19999694824</ele>
        <time>2021-03-10T14:00:28.000Z</time>
      </trkpt>
      <trkpt lat="46.40703" lon="5.26967">
        <ele>221.19999694824</ele>
        <time>2021-03-10T14:00:29.000Z</time>
      </trkpt>
      <trkpt lat="46.4069" lon="5.26965">
        <ele>221.19999694824</ele>
        <time>2021-03-10T14:00:31.000Z</time>
      </trkpt>
      <trkpt lat="46.40677" lon="5.26962">
        <ele>221.39999389648</ele>
        <time>2021-03-10T14:00:33.000Z</time>
      </trkpt>
      <trkpt lat="46.40664" lon="5.26959">
        <ele>222</ele>
        <time>2021-03-10T14:00:35.000Z</time>
      </trkpt>
      <trkpt lat="46.4065" lon="5.26954">
        <ele>222.39999389648</ele>
        <time>2021-03-10T14:00:36.000Z</time>
      </trkpt>
      <trkpt lat="46.4065" lon="5.26954">
        <ele>222.80000305176</ele>
        <time>2021-03-10T14:00:37.000Z</time>
      </trkpt>
      <trkpt lat="46.40636" lon="5.26947">
        <ele>223</ele>
        <time>2021-03-10T14:00:39.000Z</time>
      </trkpt>
      <trkpt lat="46.40623" lon="5.26939">
        <ele>223</ele>
        <time>2021-03-10T14:00:41.000Z</time>
      </trkpt>
      <trkpt lat="46.4061" lon="5.26932">
        <ele>223</ele>
        <time>2021-03-10T14:00:43.000Z</time>
      </trkpt>
      <trkpt lat="46.40603" lon="5.26928">
        <ele>223</ele>
        <time>2021-03-10T14:00:44.000Z</time>
      </trkpt>
      <trkpt lat="46.40589" lon="5.26921">
        <ele>223</ele>
        <time>2021-03-10T14:00:45.000Z</time>
      </trkpt>
      <trkpt lat="46.40575" lon="5.26913">
        <ele>223</ele>
        <time>2021-03-10T14:00:47.000Z</time>
      </trkpt>
      <trkpt lat="46.40568" lon="5.2691">
        <ele>223</ele>
        <time>2021-03-10T14:00:49.000Z</time>
      </trkpt>
      <trkpt lat="46.40553" lon="5.26903">
        <ele>222.80000305176</ele>
        <time>2021-03-10T14:00:51.000Z</time>
      </trkpt>
      <trkpt lat="46.40538" lon="5.26898">
        <ele>222.80000305176</ele>
        <time>2021-03-10T14:00:53.000Z</time>
      </trkpt>
      <trkpt lat="46.40523" lon="5.26893">
        <ele>222.60000610352</ele>
        <time>2021-03-10T14:00:55.000Z</time>
      </trkpt>
      <trkpt lat="46.40508" lon="5.2689">
        <ele>222.60000610352</ele>
        <time>2021-03-10T14:00:57.000Z</time>
      </trkpt>
      <trkpt lat="46.40493" lon="5.26887">
        <ele>222.19999694824</ele>
        <time>2021-03-10T14:00:59.000Z</time>
      </trkpt>
      <trkpt lat="46.40479" lon="5.26885">
        <ele>222</ele>
        <time>2021-03-10T14:01:01.000Z</time>
      </trkpt>
      <trkpt lat="46.40458" lon="5.26883">
        <ele>222</ele>
        <time>2021-03-10T14:01:03.000Z</time>
      </trkpt>
      <trkpt lat="46.40451" lon="5.26882">
        <ele>222</ele>
        <time>2021-03-10T14:01:05.000Z</time>
      </trkpt>
      <trkpt lat="46.40438" lon="5.2688">
        <ele>222</ele>
        <time>2021-03-10T14:01:07.000Z</time>
      </trkpt>
      <trkpt lat="46.40431" lon="5.26879">
        <ele>222.19999694824</ele>
        <time>2021-03-10T14:01:08.000Z</time>
      </trkpt>
      <trkpt lat="46.40424" lon="5.26878">
        <ele>222.19999694824</ele>
        <time>2021-03-10T14:01:09.000Z</time>
      </trkpt>
      <trkpt lat="46.40411" lon="5.26877">
        <ele>222.39999389648</ele>
        <time>2021-03-10T14:01:11.000Z</time>
      </trkpt>
      <trkpt lat="46.40398" lon="5.26876">
        <ele>222.39999389648</ele>
        <time>2021-03-10T14:01:12.000Z</time>
      </trkpt>
      <trkpt lat="46.40398" lon="5.26876">
        <ele>222.39999389648</ele>
        <time>2021-03-10T14:01:13.000Z</time>
      </trkpt>
      <trkpt lat="46.40384" lon="5.26877">
        <ele>222.60000610352</ele>
        <time>2021-03-10T14:01:15.000Z</time>
      </trkpt>
      <trkpt lat="46.40371" lon="5.2688">
        <ele>222.80000305176</ele>
        <time>2021-03-10T14:01:16.000Z</time>
      </trkpt>
      <trkpt lat="46.40371" lon="5.2688">
        <ele>223</ele>
        <time>2021-03-10T14:01:17.000Z</time>
      </trkpt>
      <trkpt lat="46.40357" lon="5.26882">
        <ele>223</ele>
        <time>2021-03-10T14:01:19.000Z</time>
      </trkpt>
      <trkpt lat="46.40338" lon="5.26886">
        <ele>223.19999694824</ele>
        <time>2021-03-10T14:01:21.000Z</time>
      </trkpt>
      <trkpt lat="46.40332" lon="5.26887">
        <ele>223.39999389648</ele>
        <time>2021-03-10T14:01:23.000Z</time>
      </trkpt>
      <trkpt lat="46.40318" lon="5.26888">
        <ele>223.60000610352</ele>
        <time>2021-03-10T14:01:25.000Z</time>
      </trkpt>
      <trkpt lat="46.40311" lon="5.26888">
        <ele>223.60000610352</ele>
        <time>2021-03-10T14:01:26.000Z</time>
      </trkpt>
      <trkpt lat="46.40305" lon="5.26888">
        <ele>223.80000305176</ele>
        <time>2021-03-10T14:01:27.000Z</time>
      </trkpt>
      <trkpt lat="46.40292" lon="5.26888">
        <ele>223.80000305176</ele>
        <time>2021-03-10T14:01:29.000Z</time>
      </trkpt>
      <trkpt lat="46.40279" lon="5.26889">
        <ele>224</ele>
        <time>2021-03-10T14:01:31.000Z</time>
      </trkpt>
      <trkpt lat="46.40265" lon="5.2689">
        <ele>224.19999694824</ele>
        <time>2021-03-10T14:01:33.000Z</time>
      </trkpt>
      <trkpt lat="46.40252" lon="5.2689">
        <ele>224.19999694824</ele>
        <time>2021-03-10T14:01:35.000Z</time>
      </trkpt>
      <trkpt lat="46.4024" lon="5.2689">
        <ele>224.19999694824</ele>
        <time>2021-03-10T14:01:37.000Z</time>
      </trkpt>
      <trkpt lat="46.40227" lon="5.26891">
        <ele>224.19999694824</ele>
        <time>2021-03-10T14:01:39.000Z</time>
      </trkpt>
      <trkpt lat="46.40214" lon="5.26892">
        <ele>224.39999389648</ele>
        <time>2021-03-10T14:01:41.000Z</time>
      </trkpt>
      <trkpt lat="46.40202" lon="5.26892">
        <ele>224.39999389648</ele>
        <time>2021-03-10T14:01:43.000Z</time>
      </trkpt>
      <trkpt lat="46.40189" lon="5.26893">
        <ele>225</ele>
        <time>2021-03-10T14:01:45.000Z</time>
      </trkpt>
      <trkpt lat="46.40177" lon="5.26894">
        <ele>225</ele>
        <time>2021-03-10T14:01:46.000Z</time>
      </trkpt>
      <trkpt lat="46.40177" lon="5.26894">
        <ele>225.19999694824</ele>
        <time>2021-03-10T14:01:47.000Z</time>
      </trkpt>
      <trkpt lat="46.40165" lon="5.26895">
        <ele>225.19999694824</ele>
        <time>2021-03-10T14:01:49.000Z</time>
      </trkpt>
      <trkpt lat="46.40152" lon="5.26896">
        <ele>225.60000610352</ele>
        <time>2021-03-10T14:01:51.000Z</time>
      </trkpt>
      <trkpt lat="46.4014" lon="5.26897">
        <ele>225.60000610352</ele>
        <time>2021-03-10T14:01:53.000Z</time>
      </trkpt>
      <trkpt lat="46.40128" lon="5.26897">
        <ele>226</ele>
        <time>2021-03-10T14:01:55.000Z</time>
      </trkpt>
      <trkpt lat="46.40122" lon="5.26898">
        <ele>226</ele>
        <time>2021-03-10T14:01:56.000Z</time>
      </trkpt>
      <trkpt lat="46.40116" lon="5.26898">
        <ele>226.19999694824</ele>
        <time>2021-03-10T14:01:57.000Z</time>
      </trkpt>
      <trkpt lat="46.40105" lon="5.26897">
        <ele>226.60000610352</ele>
        <time>2021-03-10T14:01:59.000Z</time>
      </trkpt>
      <trkpt lat="46.40093" lon="5.26896">
        <ele>227</ele>
        <time>2021-03-10T14:02:01.000Z</time>
      </trkpt>
      <trkpt lat="46.40082" lon="5.26893">
        <ele>227.19999694824</ele>
        <time>2021-03-10T14:02:03.000Z</time>
      </trkpt>
      <trkpt lat="46.40071" lon="5.26889">
        <ele>227.19999694824</ele>
        <time>2021-03-10T14:02:05.000Z</time>
      </trkpt>
      <trkpt lat="46.4006" lon="5.26885">
        <ele>227.39999389648</ele>
        <time>2021-03-10T14:02:07.000Z</time>
      </trkpt>
      <trkpt lat="46.40048" lon="5.26881">
        <ele>227.80000305176</ele>
        <time>2021-03-10T14:02:09.000Z</time>
      </trkpt>
      <trkpt lat="46.40037" lon="5.26878">
        <ele>228</ele>
        <time>2021-03-10T14:02:10.000Z</time>
      </trkpt>
      <trkpt lat="46.40037" lon="5.26878">
        <ele>228.19999694824</ele>
        <time>2021-03-10T14:02:11.000Z</time>
      </trkpt>
      <trkpt lat="46.40025" lon="5.26874">
        <ele>228.39999389648</ele>
        <time>2021-03-10T14:02:13.000Z</time>
      </trkpt>
      <trkpt lat="46.40019" lon="5.26871">
        <ele>228.39999389648</ele>
        <time>2021-03-10T14:02:14.000Z</time>
      </trkpt>
      <trkpt lat="46.40013" lon="5.26869">
        <ele>228.60000610352</ele>
        <time>2021-03-10T14:02:15.000Z</time>
      </trkpt>
      <trkpt lat="46.40001" lon="5.26862">
        <ele>228.60000610352</ele>
        <time>2021-03-10T14:02:16.000Z</time>
      </trkpt>
      <trkpt lat="46.40001" lon="5.26862">
        <ele>228.80000305176</ele>
        <time>2021-03-10T14:02:17.000Z</time>
      </trkpt>
      <trkpt lat="46.39989" lon="5.26856">
        <ele>229</ele>
        <time>2021-03-10T14:02:19.000Z</time>
      </trkpt>
      <trkpt lat="46.39977" lon="5.26851">
        <ele>229</ele>
        <time>2021-03-10T14:02:21.000Z</time>
      </trkpt>
      <trkpt lat="46.39963" lon="5.26845">
        <ele>229</ele>
        <time>2021-03-10T14:02:23.000Z</time>
      </trkpt>
      <trkpt lat="46.3995" lon="5.26839">
        <ele>229</ele>
        <time>2021-03-10T14:02:25.000Z</time>
      </trkpt>
      <trkpt lat="46.39942" lon="5.26836">
        <ele>229</ele>
        <time>2021-03-10T14:02:26.000Z</time>
      </trkpt>
      <trkpt lat="46.39935" lon="5.26833">
        <ele>228.80000305176</ele>
        <time>2021-03-10T14:02:27.000Z</time>
      </trkpt>
      <trkpt lat="46.3992" lon="5.26826">
        <ele>228</ele>
        <time>2021-03-10T14:02:29.000Z</time>
      </trkpt>
      <trkpt lat="46.39904" lon="5.26818">
        <ele>227.39999389648</ele>
        <time>2021-03-10T14:02:31.000Z</time>
      </trkpt>
      <trkpt lat="46.39896" lon="5.26815">
        <ele>227.19999694824</ele>
        <time>2021-03-10T14:02:32.000Z</time>
      </trkpt>
      <trkpt lat="46.39888" lon="5.26812">
        <ele>226.60000610352</ele>
        <time>2021-03-10T14:02:33.000Z</time>
      </trkpt>
      <trkpt lat="46.3987" lon="5.26809">
        <ele>226</ele>
        <time>2021-03-10T14:02:34.000Z</time>
      </trkpt>
      <trkpt lat="46.3987" lon="5.26809">
        <ele>225.80000305176</ele>
        <time>2021-03-10T14:02:35.000Z</time>
      </trkpt>
      <trkpt lat="46.39843" lon="5.26809">
        <ele>225</ele>
        <time>2021-03-10T14:02:37.000Z</time>
      </trkpt>
      <trkpt lat="46.39835" lon="5.26809">
        <ele>224.39999389648</ele>
        <time>2021-03-10T14:02:39.000Z</time>
      </trkpt>
      <trkpt lat="46.39809" lon="5.26811">
        <ele>223.80000305176</ele>
        <time>2021-03-10T14:02:41.000Z</time>
      </trkpt>
      <trkpt lat="46.39801" lon="5.26813">
        <ele>222.60000610352</ele>
        <time>2021-03-10T14:02:43.000Z</time>
      </trkpt>
      <trkpt lat="46.39793" lon="5.26815">
        <ele>222.39999389648</ele>
        <time>2021-03-10T14:02:44.000Z</time>
      </trkpt>
      <trkpt lat="46.39785" lon="5.26817">
        <ele>222.19999694824</ele>
        <time>2021-03-10T14:02:45.000Z</time>
      </trkpt>
      <trkpt lat="46.3977" lon="5.26821">
        <ele>222</ele>
        <time>2021-03-10T14:02:47.000Z</time>
      </trkpt>
      <trkpt lat="46.39757" lon="5.26826">
        <ele>222</ele>
        <time>2021-03-10T14:02:49.000Z</time>
      </trkpt>
      <trkpt lat="46.39743" lon="5.2683">
        <ele>222</ele>
        <time>2021-03-10T14:02:51.000Z</time>
      </trkpt>
      <trkpt lat="46.39724" lon="5.26835">
        <ele>222.19999694824</ele>
        <time>2021-03-10T14:02:53.000Z</time>
      </trkpt>
      <trkpt lat="46.39717" lon="5.26836">
        <ele>222.60000610352</ele>
        <time>2021-03-10T14:02:55.000Z</time>
      </trkpt>
      <trkpt lat="46.39705" lon="5.26837">
        <ele>222.80000305176</ele>
        <time>2021-03-10T14:02:57.000Z</time>
      </trkpt>
      <trkpt lat="46.39687" lon="5.26837">
        <ele>223.19999694824</ele>
        <time>2021-03-10T14:02:59.000Z</time>
      </trkpt>
      <trkpt lat="46.39676" lon="5.26835">
        <ele>223.60000610352</ele>
        <time>2021-03-10T14:03:01.000Z</time>
      </trkpt>
      <trkpt lat="46.39676" lon="5.26835">
        <ele>223.80000305176</ele>
        <time>2021-03-10T14:03:02.000Z</time>
      </trkpt>
      <trkpt lat="46.3967" lon="5.26834">
        <ele>224.19999694824</ele>
        <time>2021-03-10T14:03:03.000Z</time>
      </trkpt>
      <trkpt lat="46.39659" lon="5.26832">
        <ele>225</ele>
        <time>2021-03-10T14:03:05.000Z</time>
      </trkpt>
      <trkpt lat="46.39648" lon="5.26829">
        <ele>225.39999389648</ele>
        <time>2021-03-10T14:03:07.000Z</time>
      </trkpt>
      <trkpt lat="46.39633" lon="5.26825">
        <ele>226</ele>
        <time>2021-03-10T14:03:09.000Z</time>
      </trkpt>
      <trkpt lat="46.39628" lon="5.26824">
        <ele>226.19999694824</ele>
        <time>2021-03-10T14:03:10.000Z</time>
      </trkpt>
      <trkpt lat="46.39623" lon="5.26824">
        <ele>226.39999389648</ele>
        <time>2021-03-10T14:03:11.000Z</time>
      </trkpt>
      <trkpt lat="46.39617" lon="5.26825">
        <ele>226.39999389648</ele>
        <time>2021-03-10T14:03:12.000Z</time>
      </trkpt>
      <trkpt lat="46.39617" lon="5.26825">
        <ele>226.39999389648</ele>
        <time>2021-03-10T14:03:13.000Z</time>
      </trkpt>
      <trkpt lat="46.39612" lon="5.26826">
        <ele>226.60000610352</ele>
        <time>2021-03-10T14:03:14.000Z</time>
      </trkpt>
      <trkpt lat="46.39606" lon="5.26829">
        <ele>226.60000610352</ele>
        <time>2021-03-10T14:03:15.000Z</time>
      </trkpt>
      <trkpt lat="46.39597" lon="5.26838">
        <ele>227</ele>
        <time>2021-03-10T14:03:17.000Z</time>
      </trkpt>
      <trkpt lat="46.3959" lon="5.26851">
        <ele>227.19999694824</ele>
        <time>2021-03-10T14:03:18.000Z</time>
      </trkpt>
      <trkpt lat="46.3959" lon="5.26851">
        <ele>227.39999389648</ele>
        <time>2021-03-10T14:03:19.000Z</time>
      </trkpt>
      <trkpt lat="46.39585" lon="5.26865">
        <ele>227.80000305176</ele>
        <time>2021-03-10T14:03:21.000Z</time>
      </trkpt>
      <trkpt lat="46.39579" lon="5.26878">
        <ele>228</ele>
        <time>2021-03-10T14:03:22.000Z</time>
      </trkpt>
      <trkpt lat="46.39579" lon="5.26878">
        <ele>228.19999694824</ele>
        <time>2021-03-10T14:03:23.000Z</time>
      </trkpt>
      <trkpt lat="46.39572" lon="5.2689">
        <ele>228.39999389648</ele>
        <time>2021-03-10T14:03:24.000Z</time>
      </trkpt>
      <trkpt lat="46.39572" lon="5.2689">
        <ele>228.60000610352</ele>
        <time>2021-03-10T14:03:25.000Z</time>
      </trkpt>
      <trkpt lat="46.39568" lon="5.26894">
        <ele>229</ele>
        <time>2021-03-10T14:03:26.000Z</time>
      </trkpt>
      <trkpt lat="46.39563" lon="5.26898">
        <ele>229.39999389648</ele>
        <time>2021-03-10T14:03:27.000Z</time>
      </trkpt>
      <trkpt lat="46.39553" lon="5.26905">
        <ele>229.60000610352</ele>
        <time>2021-03-10T14:03:29.000Z</time>
      </trkpt>
      <trkpt lat="46.39542" lon="5.2691">
        <ele>229.80000305176</ele>
        <time>2021-03-10T14:03:30.000Z</time>
      </trkpt>
      <trkpt lat="46.39542" lon="5.2691">
        <ele>229.80000305176</ele>
        <time>2021-03-10T14:03:31.000Z</time>
      </trkpt>
      <trkpt lat="46.3953" lon="5.26915">
        <ele>229.80000305176</ele>
        <time>2021-03-10T14:03:33.000Z</time>
      </trkpt>
      <trkpt lat="46.39517" lon="5.26921">
        <ele>229.80000305176</ele>
        <time>2021-03-10T14:03:35.000Z</time>
      </trkpt>
      <trkpt lat="46.39505" lon="5.2693">
        <ele>229.80000305176</ele>
        <time>2021-03-10T14:03:36.000Z</time>
      </trkpt>
      <trkpt lat="46.39505" lon="5.2693">
        <ele>229.80000305176</ele>
        <time>2021-03-10T14:03:37.000Z</time>
      </trkpt>
      <trkpt lat="46.395" lon="5.26937">
        <ele>229.80000305176</ele>
        <time>2021-03-10T14:03:38.000Z</time>
      </trkpt>
      <trkpt lat="46.39491" lon="5.26952">
        <ele>229.80000305176</ele>
        <time>2021-03-10T14:03:39.000Z</time>
      </trkpt>
      <trkpt lat="46.39483" lon="5.26969">
        <ele>229.60000610352</ele>
        <time>2021-03-10T14:03:41.000Z</time>
      </trkpt>
      <trkpt lat="46.39475" lon="5.26987">
        <ele>229.39999389648</ele>
        <time>2021-03-10T14:03:43.000Z</time>
      </trkpt>
      <trkpt lat="46.39467" lon="5.27005">
        <ele>229</ele>
        <time>2021-03-10T14:03:45.000Z</time>
      </trkpt>
      <trkpt lat="46.39459" lon="5.27025">
        <ele>228.80000305176</ele>
        <time>2021-03-10T14:03:47.000Z</time>
      </trkpt>
      <trkpt lat="46.39456" lon="5.27035">
        <ele>228.60000610352</ele>
        <time>2021-03-10T14:03:48.000Z</time>
      </trkpt>
      <trkpt lat="46.39453" lon="5.27046">
        <ele>228.19999694824</ele>
        <time>2021-03-10T14:03:49.000Z</time>
      </trkpt>
      <trkpt lat="46.39447" lon="5.27067">
        <ele>227.80000305176</ele>
        <time>2021-03-10T14:03:51.000Z</time>
      </trkpt>
      <trkpt lat="46.39441" lon="5.27087">
        <ele>227</ele>
        <time>2021-03-10T14:03:53.000Z</time>
      </trkpt>
      <trkpt lat="46.39436" lon="5.27096">
        <ele>226.80000305176</ele>
        <time>2021-03-10T14:03:54.000Z</time>
      </trkpt>
      <trkpt lat="46.39436" lon="5.27096">
        <ele>226.80000305176</ele>
        <time>2021-03-10T14:03:55.000Z</time>
      </trkpt>
      <trkpt lat="46.39431" lon="5.27104">
        <ele>226.60000610352</ele>
        <time>2021-03-10T14:03:56.000Z</time>
      </trkpt>
      <trkpt lat="46.39425" lon="5.2711">
        <ele>226.60000610352</ele>
        <time>2021-03-10T14:03:57.000Z</time>
      </trkpt>
      <trkpt lat="46.39412" lon="5.27119">
        <ele>226.60000610352</ele>
        <time>2021-03-10T14:03:58.000Z</time>
      </trkpt>
      <trkpt lat="46.39405" lon="5.27123">
        <ele>226.60000610352</ele>
        <time>2021-03-10T14:03:59.000Z</time>
      </trkpt>
      <trkpt lat="46.39398" lon="5.27127">
        <ele>226.60000610352</ele>
        <time>2021-03-10T14:04:01.000Z</time>
      </trkpt>
      <trkpt lat="46.39378" lon="5.2714">
        <ele>226.60000610352</ele>
        <time>2021-03-10T14:04:03.000Z</time>
      </trkpt>
      <trkpt lat="46.39366" lon="5.2715">
        <ele>226.60000610352</ele>
        <time>2021-03-10T14:04:05.000Z</time>
      </trkpt>
      <trkpt lat="46.3936" lon="5.27155">
        <ele>226.60000610352</ele>
        <time>2021-03-10T14:04:07.000Z</time>
      </trkpt>
      <trkpt lat="46.39341" lon="5.27167">
        <ele>226.60000610352</ele>
        <time>2021-03-10T14:04:09.000Z</time>
      </trkpt>
      <trkpt lat="46.39329" lon="5.27174">
        <ele>226.80000305176</ele>
        <time>2021-03-10T14:04:11.000Z</time>
      </trkpt>
      <trkpt lat="46.39317" lon="5.27181">
        <ele>227</ele>
        <time>2021-03-10T14:04:13.000Z</time>
      </trkpt>
      <trkpt lat="46.39305" lon="5.27187">
        <ele>227</ele>
        <time>2021-03-10T14:04:15.000Z</time>
      </trkpt>
      <trkpt lat="46.39293" lon="5.27193">
        <ele>227.19999694824</ele>
        <time>2021-03-10T14:04:17.000Z</time>
      </trkpt>
      <trkpt lat="46.3928" lon="5.27199">
        <ele>227.60000610352</ele>
        <time>2021-03-10T14:04:19.000Z</time>
      </trkpt>
      <trkpt lat="46.39269" lon="5.27205">
        <ele>228</ele>
        <time>2021-03-10T14:04:21.000Z</time>
      </trkpt>
      <trkpt lat="46.39264" lon="5.27208">
        <ele>228</ele>
        <time>2021-03-10T14:04:22.000Z</time>
      </trkpt>
      <trkpt lat="46.39258" lon="5.27212">
        <ele>228.19999694824</ele>
        <time>2021-03-10T14:04:23.000Z</time>
      </trkpt>
      <trkpt lat="46.39247" lon="5.2722">
        <ele>228.39999389648</ele>
        <time>2021-03-10T14:04:25.000Z</time>
      </trkpt>
      <trkpt lat="46.39238" lon="5.2723">
        <ele>228.60000610352</ele>
        <time>2021-03-10T14:04:27.000Z</time>
      </trkpt>
      <trkpt lat="46.39233" lon="5.27236">
        <ele>228.60000610352</ele>
        <time>2021-03-10T14:04:28.000Z</time>
      </trkpt>
      <trkpt lat="46.39229" lon="5.27243">
        <ele>228.80000305176</ele>
        <time>2021-03-10T14:04:29.000Z</time>
      </trkpt>
      <trkpt lat="46.39222" lon="5.27257">
        <ele>229.19999694824</ele>
        <time>2021-03-10T14:04:31.000Z</time>
      </trkpt>
      <trkpt lat="46.3922" lon="5.27265">
        <ele>229.19999694824</ele>
        <time>2021-03-10T14:04:32.000Z</time>
      </trkpt>
      <trkpt lat="46.39217" lon="5.27273">
        <ele>229.19999694824</ele>
        <time>2021-03-10T14:04:33.000Z</time>
      </trkpt>
      <trkpt lat="46.39212" lon="5.27289">
        <ele>229.39999389648</ele>
        <time>2021-03-10T14:04:35.000Z</time>
      </trkpt>
      <trkpt lat="46.39208" lon="5.27305">
        <ele>229.60000610352</ele>
        <time>2021-03-10T14:04:37.000Z</time>
      </trkpt>
      <trkpt lat="46.39203" lon="5.27321">
        <ele>229.80000305176</ele>
        <time>2021-03-10T14:04:39.000Z</time>
      </trkpt>
      <trkpt lat="46.39201" lon="5.27329">
        <ele>229.80000305176</ele>
        <time>2021-03-10T14:04:40.000Z</time>
      </trkpt>
      <trkpt lat="46.39198" lon="5.27337">
        <ele>229.80000305176</ele>
        <time>2021-03-10T14:04:41.000Z</time>
      </trkpt>
      <trkpt lat="46.39196" lon="5.27346">
        <ele>230.19999694824</ele>
        <time>2021-03-10T14:04:42.000Z</time>
      </trkpt>
      <trkpt lat="46.39194" lon="5.27354">
        <ele>230.19999694824</ele>
        <time>2021-03-10T14:04:43.000Z</time>
      </trkpt>
      <trkpt lat="46.39187" lon="5.27371">
        <ele>230.39999389648</ele>
        <time>2021-03-10T14:04:45.000Z</time>
      </trkpt>
      <trkpt lat="46.39179" lon="5.27385">
        <ele>230.60000610352</ele>
        <time>2021-03-10T14:04:47.000Z</time>
      </trkpt>
      <trkpt lat="46.39169" lon="5.27398">
        <ele>230.60000610352</ele>
        <time>2021-03-10T14:04:49.000Z</time>
      </trkpt>
      <trkpt lat="46.39169" lon="5.27398">
        <ele>230.60000610352</ele>
        <time>2021-03-10T14:04:50.000Z</time>
      </trkpt>
      <trkpt lat="46.39158" lon="5.27408">
        <ele>230.60000610352</ele>
        <time>2021-03-10T14:04:51.000Z</time>
      </trkpt>
      <trkpt lat="46.39152" lon="5.27412">
        <ele>230.60000610352</ele>
        <time>2021-03-10T14:04:52.000Z</time>
      </trkpt>
      <trkpt lat="46.39147" lon="5.27417">
        <ele>230.60000610352</ele>
        <time>2021-03-10T14:04:53.000Z</time>
      </trkpt>
      <trkpt lat="46.39135" lon="5.27425">
        <ele>230.39999389648</ele>
        <time>2021-03-10T14:04:55.000Z</time>
      </trkpt>
      <trkpt lat="46.39123" lon="5.27433">
        <ele>230.39999389648</ele>
        <time>2021-03-10T14:04:57.000Z</time>
      </trkpt>
      <trkpt lat="46.39111" lon="5.2744">
        <ele>230.19999694824</ele>
        <time>2021-03-10T14:04:59.000Z</time>
      </trkpt>
      <trkpt lat="46.39105" lon="5.27444">
        <ele>230.19999694824</ele>
        <time>2021-03-10T14:05:00.000Z</time>
      </trkpt>
      <trkpt lat="46.391" lon="5.27447">
        <ele>230.19999694824</ele>
        <time>2021-03-10T14:05:01.000Z</time>
      </trkpt>
      <trkpt lat="46.39088" lon="5.27454">
        <ele>230.19999694824</ele>
        <time>2021-03-10T14:05:03.000Z</time>
      </trkpt>
      <trkpt lat="46.39077" lon="5.27462">
        <ele>230</ele>
        <time>2021-03-10T14:05:05.000Z</time>
      </trkpt>
      <trkpt lat="46.39072" lon="5.27465">
        <ele>230</ele>
        <time>2021-03-10T14:05:06.000Z</time>
      </trkpt>
      <trkpt lat="46.39067" lon="5.2747">
        <ele>230</ele>
        <time>2021-03-10T14:05:07.000Z</time>
      </trkpt>
      <trkpt lat="46.39056" lon="5.27479">
        <ele>230</ele>
        <time>2021-03-10T14:05:09.000Z</time>
      </trkpt>
      <trkpt lat="46.39045" lon="5.27486">
        <ele>230</ele>
        <time>2021-03-10T14:05:11.000Z</time>
      </trkpt>
      <trkpt lat="46.39035" lon="5.27493">
        <ele>230</ele>
        <time>2021-03-10T14:05:13.000Z</time>
      </trkpt>
      <trkpt lat="46.39025" lon="5.275">
        <ele>230</ele>
        <time>2021-03-10T14:05:15.000Z</time>
      </trkpt>
      <trkpt lat="46.39014" lon="5.27507">
        <ele>230.19999694824</ele>
        <time>2021-03-10T14:05:17.000Z</time>
      </trkpt>
      <trkpt lat="46.39009" lon="5.27509">
        <ele>230.19999694824</ele>
        <time>2021-03-10T14:05:18.000Z</time>
      </trkpt>
      <trkpt lat="46.39004" lon="5.27512">
        <ele>230.39999389648</ele>
        <time>2021-03-10T14:05:19.000Z</time>
      </trkpt>
      <trkpt lat="46.39" lon="5.27514">
        <ele>230.39999389648</ele>
        <time>2021-03-10T14:05:21.000Z</time>
      </trkpt>
      <trkpt lat="46.38992" lon="5.27519">
        <ele>230.60000610352</ele>
        <time>2021-03-10T14:05:23.000Z</time>
      </trkpt>
      <trkpt lat="46.38983" lon="5.27522">
        <ele>231.19999694824</ele>
        <time>2021-03-10T14:05:25.000Z</time>
      </trkpt>
      <trkpt lat="46.38979" lon="5.27523">
        <ele>231.39999389648</ele>
        <time>2021-03-10T14:05:26.000Z</time>
      </trkpt>
      <trkpt lat="46.38975" lon="5.27525">
        <ele>231.60000610352</ele>
        <time>2021-03-10T14:05:27.000Z</time>
      </trkpt>
      <trkpt lat="46.38967" lon="5.27531">
        <ele>231.80000305176</ele>
        <time>2021-03-10T14:05:29.000Z</time>
      </trkpt>
      <trkpt lat="46.38955" lon="5.27534">
        <ele>232</ele>
        <time>2021-03-10T14:05:30.000Z</time>
      </trkpt>
      <trkpt lat="46.38955" lon="5.27534">
        <ele>232.19999694824</ele>
        <time>2021-03-10T14:05:31.000Z</time>
      </trkpt>
      <trkpt lat="46.38943" lon="5.27537">
        <ele>232.39999389648</ele>
        <time>2021-03-10T14:05:33.000Z</time>
      </trkpt>
      <trkpt lat="46.3893" lon="5.27541">
        <ele>232.39999389648</ele>
        <time>2021-03-10T14:05:34.000Z</time>
      </trkpt>
      <trkpt lat="46.38924" lon="5.27543">
        <ele>232.39999389648</ele>
        <time>2021-03-10T14:05:35.000Z</time>
      </trkpt>
      <trkpt lat="46.38917" lon="5.27545">
        <ele>232.39999389648</ele>
        <time>2021-03-10T14:05:36.000Z</time>
      </trkpt>
      <trkpt lat="46.38911" lon="5.27544">
        <ele>232.39999389648</ele>
        <time>2021-03-10T14:05:37.000Z</time>
      </trkpt>
      <trkpt lat="46.38911" lon="5.27544">
        <ele>232.39999389648</ele>
        <time>2021-03-10T14:05:38.000Z</time>
      </trkpt>
      <trkpt lat="46.38899" lon="5.27537">
        <ele>232.19999694824</ele>
        <time>2021-03-10T14:05:39.000Z</time>
      </trkpt>
      <trkpt lat="46.38894" lon="5.27534">
        <ele>232.39999389648</ele>
        <time>2021-03-10T14:05:40.000Z</time>
      </trkpt>
      <trkpt lat="46.38894" lon="5.27534">
        <ele>232.19999694824</ele>
        <time>2021-03-10T14:05:41.000Z</time>
      </trkpt>
      <trkpt lat="46.38881" lon="5.27528">
        <ele>232.39999389648</ele>
        <time>2021-03-10T14:05:42.000Z</time>
      </trkpt>
      <trkpt lat="46.38876" lon="5.27525">
        <ele>232.60000610352</ele>
        <time>2021-03-10T14:05:43.000Z</time>
      </trkpt>
      <trkpt lat="46.38863" lon="5.27518">
        <ele>232.60000610352</ele>
        <time>2021-03-10T14:05:45.000Z</time>
      </trkpt>
      <trkpt lat="46.38851" lon="5.27512">
        <ele>232.39999389648</ele>
        <time>2021-03-10T14:05:47.000Z</time>
      </trkpt>
      <trkpt lat="46.38838" lon="5.27507">
        <ele>232.39999389648</ele>
        <time>2021-03-10T14:05:49.000Z</time>
      </trkpt>
      <trkpt lat="46.38825" lon="5.27501">
        <ele>232.39999389648</ele>
        <time>2021-03-10T14:05:51.000Z</time>
      </trkpt>
      <trkpt lat="46.38812" lon="5.27495">
        <ele>232.39999389648</ele>
        <time>2021-03-10T14:05:53.000Z</time>
      </trkpt>
      <trkpt lat="46.388" lon="5.27491">
        <ele>232.39999389648</ele>
        <time>2021-03-10T14:05:55.000Z</time>
      </trkpt>
      <trkpt lat="46.38787" lon="5.27486">
        <ele>232.39999389648</ele>
        <time>2021-03-10T14:05:57.000Z</time>
      </trkpt>
      <trkpt lat="46.38775" lon="5.27481">
        <ele>232.39999389648</ele>
        <time>2021-03-10T14:05:59.000Z</time>
      </trkpt>
      <trkpt lat="46.38762" lon="5.27474">
        <ele>232.39999389648</ele>
        <time>2021-03-10T14:06:01.000Z</time>
      </trkpt>
      <trkpt lat="46.38751" lon="5.27468">
        <ele>232.39999389648</ele>
        <time>2021-03-10T14:06:03.000Z</time>
      </trkpt>
      <trkpt lat="46.38739" lon="5.2746">
        <ele>232.39999389648</ele>
        <time>2021-03-10T14:06:05.000Z</time>
      </trkpt>
      <trkpt lat="46.38728" lon="5.27452">
        <ele>232.39999389648</ele>
        <time>2021-03-10T14:06:07.000Z</time>
      </trkpt>
      <trkpt lat="46.38717" lon="5.27444">
        <ele>232.39999389648</ele>
        <time>2021-03-10T14:06:09.000Z</time>
      </trkpt>
      <trkpt lat="46.38706" lon="5.27436">
        <ele>232.39999389648</ele>
        <time>2021-03-10T14:06:11.000Z</time>
      </trkpt>
      <trkpt lat="46.38695" lon="5.27428">
        <ele>232.39999389648</ele>
        <time>2021-03-10T14:06:13.000Z</time>
      </trkpt>
      <trkpt lat="46.38685" lon="5.27419">
        <ele>232.39999389648</ele>
        <time>2021-03-10T14:06:15.000Z</time>
      </trkpt>
      <trkpt lat="46.38679" lon="5.27415">
        <ele>232.39999389648</ele>
        <time>2021-03-10T14:06:16.000Z</time>
      </trkpt>
      <trkpt lat="46.38674" lon="5.27411">
        <ele>232.80000305176</ele>
        <time>2021-03-10T14:06:17.000Z</time>
      </trkpt>
      <trkpt lat="46.38663" lon="5.27403">
        <ele>233</ele>
        <time>2021-03-10T14:06:19.000Z</time>
      </trkpt>
      <trkpt lat="46.38651" lon="5.27398">
        <ele>233</ele>
        <time>2021-03-10T14:06:21.000Z</time>
      </trkpt>
      <trkpt lat="46.38646" lon="5.27399">
        <ele>233</ele>
        <time>2021-03-10T14:06:22.000Z</time>
      </trkpt>
      <trkpt lat="46.3864" lon="5.27402">
        <ele>233.19999694824</ele>
        <time>2021-03-10T14:06:23.000Z</time>
      </trkpt>
      <trkpt lat="46.38631" lon="5.27414">
        <ele>233.19999694824</ele>
        <time>2021-03-10T14:06:25.000Z</time>
      </trkpt>
      <trkpt lat="46.38631" lon="5.27414">
        <ele>233.19999694824</ele>
        <time>2021-03-10T14:06:26.000Z</time>
      </trkpt>
      <trkpt lat="46.38623" lon="5.27429">
        <ele>233.19999694824</ele>
        <time>2021-03-10T14:06:27.000Z</time>
      </trkpt>
      <trkpt lat="46.38614" lon="5.27443">
        <ele>233.19999694824</ele>
        <time>2021-03-10T14:06:29.000Z</time>
      </trkpt>
      <trkpt lat="46.38608" lon="5.2745">
        <ele>233</ele>
        <time>2021-03-10T14:06:31.000Z</time>
      </trkpt>
      <trkpt lat="46.38587" lon="5.27471">
        <ele>233</ele>
        <time>2021-03-10T14:06:33.000Z</time>
      </trkpt>
      <trkpt lat="46.38571" lon="5.27482">
        <ele>232.80000305176</ele>
        <time>2021-03-10T14:06:35.000Z</time>
      </trkpt>
      <trkpt lat="46.38553" lon="5.27493">
        <ele>232.19999694824</ele>
        <time>2021-03-10T14:06:37.000Z</time>
      </trkpt>
      <trkpt lat="46.38534" lon="5.27503">
        <ele>230.60000610352</ele>
        <time>2021-03-10T14:06:39.000Z</time>
      </trkpt>
      <trkpt lat="46.38514" lon="5.27518">
        <ele>229.19999694824</ele>
        <time>2021-03-10T14:06:41.000Z</time>
      </trkpt>
      <trkpt lat="46.38503" lon="5.27528">
        <ele>228.60000610352</ele>
        <time>2021-03-10T14:06:42.000Z</time>
      </trkpt>
      <trkpt lat="46.38493" lon="5.27539">
        <ele>227.80000305176</ele>
        <time>2021-03-10T14:06:43.000Z</time>
      </trkpt>
      <trkpt lat="46.38483" lon="5.27551">
        <ele>227</ele>
        <time>2021-03-10T14:06:44.000Z</time>
      </trkpt>
      <trkpt lat="46.38473" lon="5.27563">
        <ele>226</ele>
        <time>2021-03-10T14:06:45.000Z</time>
      </trkpt>
      <trkpt lat="46.38464" lon="5.27575">
        <ele>225</ele>
        <time>2021-03-10T14:06:46.000Z</time>
      </trkpt>
      <trkpt lat="46.38455" lon="5.27587">
        <ele>224</ele>
        <time>2021-03-10T14:06:47.000Z</time>
      </trkpt>
      <trkpt lat="46.38436" lon="5.2761">
        <ele>221.80000305176</ele>
        <time>2021-03-10T14:06:49.000Z</time>
      </trkpt>
      <trkpt lat="46.38436" lon="5.2761">
        <ele>220.60000610352</ele>
        <time>2021-03-10T14:06:50.000Z</time>
      </trkpt>
      <trkpt lat="46.38418" lon="5.27632">
        <ele>219.39999389648</ele>
        <time>2021-03-10T14:06:51.000Z</time>
      </trkpt>
      <trkpt lat="46.38409" lon="5.27643">
        <ele>218.19999694824</ele>
        <time>2021-03-10T14:06:52.000Z</time>
      </trkpt>
      <trkpt lat="46.38409" lon="5.27643">
        <ele>217.19999694824</ele>
        <time>2021-03-10T14:06:53.000Z</time>
      </trkpt>
      <trkpt lat="46.3839" lon="5.2766">
        <ele>216.19999694824</ele>
        <time>2021-03-10T14:06:54.000Z</time>
      </trkpt>
      <trkpt lat="46.38379" lon="5.27667">
        <ele>215.60000610352</ele>
        <time>2021-03-10T14:06:55.000Z</time>
      </trkpt>
      <trkpt lat="46.38379" lon="5.27667">
        <ele>215</ele>
        <time>2021-03-10T14:06:56.000Z</time>
      </trkpt>
      <trkpt lat="46.38359" lon="5.27682">
        <ele>214.39999389648</ele>
        <time>2021-03-10T14:06:57.000Z</time>
      </trkpt>
      <trkpt lat="46.38349" lon="5.27689">
        <ele>214</ele>
        <time>2021-03-10T14:06:58.000Z</time>
      </trkpt>
      <trkpt lat="46.38349" lon="5.27689">
        <ele>213.39999389648</ele>
        <time>2021-03-10T14:06:59.000Z</time>
      </trkpt>
      <trkpt lat="46.3833" lon="5.27703">
        <ele>213</ele>
        <time>2021-03-10T14:07:00.000Z</time>
      </trkpt>
      <trkpt lat="46.3833" lon="5.27703">
        <ele>212.39999389648</ele>
        <time>2021-03-10T14:07:01.000Z</time>
      </trkpt>
      <trkpt lat="46.3832" lon="5.27709">
        <ele>211.80000305176</ele>
        <time>2021-03-10T14:07:02.000Z</time>
      </trkpt>
      <trkpt lat="46.38311" lon="5.27715">
        <ele>211.39999389648</ele>
        <time>2021-03-10T14:07:03.000Z</time>
      </trkpt>
      <trkpt lat="46.38291" lon="5.27723">
        <ele>211</ele>
        <time>2021-03-10T14:07:04.000Z</time>
      </trkpt>
      <trkpt lat="46.38291" lon="5.27723">
        <ele>210.60000610352</ele>
        <time>2021-03-10T14:07:05.000Z</time>
      </trkpt>
      <trkpt lat="46.38272" lon="5.27729">
        <ele>210.19999694824</ele>
        <time>2021-03-10T14:07:07.000Z</time>
      </trkpt>
      <trkpt lat="46.38253" lon="5.27735">
        <ele>210</ele>
        <time>2021-03-10T14:07:09.000Z</time>
      </trkpt>
      <trkpt lat="46.38234" lon="5.27743">
        <ele>210</ele>
        <time>2021-03-10T14:07:10.000Z</time>
      </trkpt>
      <trkpt lat="46.38234" lon="5.27743">
        <ele>209.80000305176</ele>
        <time>2021-03-10T14:07:11.000Z</time>
      </trkpt>
      <trkpt lat="46.38218" lon="5.27755">
        <ele>209.60000610352</ele>
        <time>2021-03-10T14:07:12.000Z</time>
      </trkpt>
      <trkpt lat="46.38218" lon="5.27755">
        <ele>209.39999389648</ele>
        <time>2021-03-10T14:07:13.000Z</time>
      </trkpt>
      <trkpt lat="46.38201" lon="5.27768">
        <ele>209.39999389648</ele>
        <time>2021-03-10T14:07:15.000Z</time>
      </trkpt>
      <trkpt lat="46.38187" lon="5.27784">
        <ele>209.19999694824</ele>
        <time>2021-03-10T14:07:16.000Z</time>
      </trkpt>
      <trkpt lat="46.38182" lon="5.27796">
        <ele>209.19999694824</ele>
        <time>2021-03-10T14:07:17.000Z</time>
      </trkpt>
      <trkpt lat="46.38177" lon="5.27821">
        <ele>209.19999694824</ele>
        <time>2021-03-10T14:07:19.000Z</time>
      </trkpt>
      <trkpt lat="46.38177" lon="5.27821">
        <ele>209.19999694824</ele>
        <time>2021-03-10T14:07:20.000Z</time>
      </trkpt>
      <trkpt lat="46.38175" lon="5.27847">
        <ele>209.19999694824</ele>
        <time>2021-03-10T14:07:21.000Z</time>
      </trkpt>
      <trkpt lat="46.38174" lon="5.27873">
        <ele>209.19999694824</ele>
        <time>2021-03-10T14:07:23.000Z</time>
      </trkpt>
      <trkpt lat="46.38171" lon="5.27898">
        <ele>209.19999694824</ele>
        <time>2021-03-10T14:07:25.000Z</time>
      </trkpt>
      <trkpt lat="46.38167" lon="5.27922">
        <ele>209.19999694824</ele>
        <time>2021-03-10T14:07:27.000Z</time>
      </trkpt>
      <trkpt lat="46.38164" lon="5.27946">
        <ele>209.19999694824</ele>
        <time>2021-03-10T14:07:29.000Z</time>
      </trkpt>
      <trkpt lat="46.38161" lon="5.27968">
        <ele>209.19999694824</ele>
        <time>2021-03-10T14:07:31.000Z</time>
      </trkpt>
      <trkpt lat="46.38158" lon="5.27978">
        <ele>209.19999694824</ele>
        <time>2021-03-10T14:07:32.000Z</time>
      </trkpt>
      <trkpt lat="46.38154" lon="5.27987">
        <ele>209.19999694824</ele>
        <time>2021-03-10T14:07:33.000Z</time>
      </trkpt>
      <trkpt lat="46.38146" lon="5.28003">
        <ele>209.19999694824</ele>
        <time>2021-03-10T14:07:35.000Z</time>
      </trkpt>
      <trkpt lat="46.38141" lon="5.28011">
        <ele>209.39999389648</ele>
        <time>2021-03-10T14:07:36.000Z</time>
      </trkpt>
      <trkpt lat="46.38136" lon="5.28017">
        <ele>209.60000610352</ele>
        <time>2021-03-10T14:07:37.000Z</time>
      </trkpt>
      <trkpt lat="46.3813" lon="5.28024">
        <ele>209.80000305176</ele>
        <time>2021-03-10T14:07:38.000Z</time>
      </trkpt>
      <trkpt lat="46.38125" lon="5.2803">
        <ele>210</ele>
        <time>2021-03-10T14:07:39.000Z</time>
      </trkpt>
      <trkpt lat="46.38115" lon="5.28044">
        <ele>210.39999389648</ele>
        <time>2021-03-10T14:07:41.000Z</time>
      </trkpt>
      <trkpt lat="46.3811" lon="5.28051">
        <ele>210.80000305176</ele>
        <time>2021-03-10T14:07:42.000Z</time>
      </trkpt>
      <trkpt lat="46.38105" lon="5.28058">
        <ele>210.80000305176</ele>
        <time>2021-03-10T14:07:43.000Z</time>
      </trkpt>
      <trkpt lat="46.38096" lon="5.28071">
        <ele>211</ele>
        <time>2021-03-10T14:07:45.000Z</time>
      </trkpt>
      <trkpt lat="46.38087" lon="5.28085">
        <ele>211.19999694824</ele>
        <time>2021-03-10T14:07:47.000Z</time>
      </trkpt>
      <trkpt lat="46.38079" lon="5.28097">
        <ele>211.19999694824</ele>
        <time>2021-03-10T14:07:49.000Z</time>
      </trkpt>
      <trkpt lat="46.38071" lon="5.2811">
        <ele>211.39999389648</ele>
        <time>2021-03-10T14:07:51.000Z</time>
      </trkpt>
      <trkpt lat="46.38062" lon="5.28122">
        <ele>211.60000610352</ele>
        <time>2021-03-10T14:07:53.000Z</time>
      </trkpt>
      <trkpt lat="46.38058" lon="5.28128">
        <ele>211.80000305176</ele>
        <time>2021-03-10T14:07:54.000Z</time>
      </trkpt>
      <trkpt lat="46.38055" lon="5.28134">
        <ele>211.80000305176</ele>
        <time>2021-03-10T14:07:55.000Z</time>
      </trkpt>
      <trkpt lat="46.38048" lon="5.28145">
        <ele>212.19999694824</ele>
        <time>2021-03-10T14:07:57.000Z</time>
      </trkpt>
      <trkpt lat="46.38041" lon="5.28155">
        <ele>212.60000610352</ele>
        <time>2021-03-10T14:07:59.000Z</time>
      </trkpt>
      <trkpt lat="46.38034" lon="5.28164">
        <ele>213</ele>
        <time>2021-03-10T14:08:01.000Z</time>
      </trkpt>
      <trkpt lat="46.38027" lon="5.28172">
        <ele>213.80000305176</ele>
        <time>2021-03-10T14:08:03.000Z</time>
      </trkpt>
      <trkpt lat="46.38023" lon="5.28175">
        <ele>214.19999694824</ele>
        <time>2021-03-10T14:08:04.000Z</time>
      </trkpt>
      <trkpt lat="46.38019" lon="5.28178">
        <ele>214.39999389648</ele>
        <time>2021-03-10T14:08:05.000Z</time>
      </trkpt>
      <trkpt lat="46.38016" lon="5.28181">
        <ele>214.60000610352</ele>
        <time>2021-03-10T14:08:06.000Z</time>
      </trkpt>
      <trkpt lat="46.38012" lon="5.28183">
        <ele>215</ele>
        <time>2021-03-10T14:08:07.000Z</time>
      </trkpt>
      <trkpt lat="46.38009" lon="5.28185">
        <ele>215.19999694824</ele>
        <time>2021-03-10T14:08:08.000Z</time>
      </trkpt>
      <trkpt lat="46.38005" lon="5.28188">
        <ele>215.60000610352</ele>
        <time>2021-03-10T14:08:09.000Z</time>
      </trkpt>
      <trkpt lat="46.37998" lon="5.28192">
        <ele>216.60000610352</ele>
        <time>2021-03-10T14:08:11.000Z</time>
      </trkpt>
      <trkpt lat="46.37994" lon="5.28195">
        <ele>217</ele>
        <time>2021-03-10T14:08:12.000Z</time>
      </trkpt>
      <trkpt lat="46.3799" lon="5.28198">
        <ele>217.39999389648</ele>
        <time>2021-03-10T14:08:13.000Z</time>
      </trkpt>
      <trkpt lat="46.37987" lon="5.28202">
        <ele>217.80000305176</ele>
        <time>2021-03-10T14:08:14.000Z</time>
      </trkpt>
      <trkpt lat="46.37984" lon="5.28205">
        <ele>218.39999389648</ele>
        <time>2021-03-10T14:08:15.000Z</time>
      </trkpt>
      <trkpt lat="46.37978" lon="5.28213">
        <ele>219.19999694824</ele>
        <time>2021-03-10T14:08:17.000Z</time>
      </trkpt>
      <trkpt lat="46.37972" lon="5.28221">
        <ele>219.60000610352</ele>
        <time>2021-03-10T14:08:19.000Z</time>
      </trkpt>
      <trkpt lat="46.37967" lon="5.28229">
        <ele>220</ele>
        <time>2021-03-10T14:08:21.000Z</time>
      </trkpt>
      <trkpt lat="46.37963" lon="5.28236">
        <ele>220.39999389648</ele>
        <time>2021-03-10T14:08:23.000Z</time>
      </trkpt>
      <trkpt lat="46.37958" lon="5.28244">
        <ele>221</ele>
        <time>2021-03-10T14:08:25.000Z</time>
      </trkpt>
      <trkpt lat="46.37953" lon="5.28251">
        <ele>221.80000305176</ele>
        <time>2021-03-10T14:08:27.000Z</time>
      </trkpt>
      <trkpt lat="46.37951" lon="5.28255">
        <ele>222.19999694824</ele>
        <time>2021-03-10T14:08:28.000Z</time>
      </trkpt>
      <trkpt lat="46.37948" lon="5.28259">
        <ele>223.19999694824</ele>
        <time>2021-03-10T14:08:29.000Z</time>
      </trkpt>
      <trkpt lat="46.37944" lon="5.28268">
        <ele>224</ele>
        <time>2021-03-10T14:08:31.000Z</time>
      </trkpt>
      <trkpt lat="46.37944" lon="5.28268">
        <ele>224.39999389648</ele>
        <time>2021-03-10T14:08:32.000Z</time>
      </trkpt>
      <trkpt lat="46.37939" lon="5.28277">
        <ele>224.80000305176</ele>
        <time>2021-03-10T14:08:33.000Z</time>
      </trkpt>
      <trkpt lat="46.37935" lon="5.28287">
        <ele>225.39999389648</ele>
        <time>2021-03-10T14:08:35.000Z</time>
      </trkpt>
      <trkpt lat="46.37933" lon="5.28292">
        <ele>225.80000305176</ele>
        <time>2021-03-10T14:08:36.000Z</time>
      </trkpt>
      <trkpt lat="46.37931" lon="5.28297">
        <ele>226</ele>
        <time>2021-03-10T14:08:37.000Z</time>
      </trkpt>
      <trkpt lat="46.37926" lon="5.28308">
        <ele>226.60000610352</ele>
        <time>2021-03-10T14:08:39.000Z</time>
      </trkpt>
      <trkpt lat="46.37924" lon="5.28313">
        <ele>226.80000305176</ele>
        <time>2021-03-10T14:08:40.000Z</time>
      </trkpt>
      <trkpt lat="46.37921" lon="5.28319">
        <ele>226.80000305176</ele>
        <time>2021-03-10T14:08:41.000Z</time>
      </trkpt>
      <trkpt lat="46.37913" lon="5.28332">
        <ele>227</ele>
        <time>2021-03-10T14:08:43.000Z</time>
      </trkpt>
      <trkpt lat="46.37905" lon="5.28346">
        <ele>227</ele>
        <time>2021-03-10T14:08:45.000Z</time>
      </trkpt>
      <trkpt lat="46.37895" lon="5.28363">
        <ele>227</ele>
        <time>2021-03-10T14:08:47.000Z</time>
      </trkpt>
      <trkpt lat="46.37891" lon="5.28373">
        <ele>227</ele>
        <time>2021-03-10T14:08:48.000Z</time>
      </trkpt>
      <trkpt lat="46.37886" lon="5.28383">
        <ele>227</ele>
        <time>2021-03-10T14:08:49.000Z</time>
      </trkpt>
      <trkpt lat="46.37876" lon="5.28406">
        <ele>226.60000610352</ele>
        <time>2021-03-10T14:08:51.000Z</time>
      </trkpt>
      <trkpt lat="46.37866" lon="5.28433">
        <ele>225.60000610352</ele>
        <time>2021-03-10T14:08:53.000Z</time>
      </trkpt>
      <trkpt lat="46.37857" lon="5.28463">
        <ele>224.39999389648</ele>
        <time>2021-03-10T14:08:55.000Z</time>
      </trkpt>
      <trkpt lat="46.3785" lon="5.28494">
        <ele>222.60000610352</ele>
        <time>2021-03-10T14:08:57.000Z</time>
      </trkpt>
      <trkpt lat="46.37847" lon="5.28511">
        <ele>220.39999389648</ele>
        <time>2021-03-10T14:08:58.000Z</time>
      </trkpt>
      <trkpt lat="46.37844" lon="5.28528">
        <ele>219.39999389648</ele>
        <time>2021-03-10T14:08:59.000Z</time>
      </trkpt>
      <trkpt lat="46.37842" lon="5.28544">
        <ele>218.19999694824</ele>
        <time>2021-03-10T14:09:00.000Z</time>
      </trkpt>
      <trkpt lat="46.3784" lon="5.28561">
        <ele>216.80000305176</ele>
        <time>2021-03-10T14:09:01.000Z</time>
      </trkpt>
      <trkpt lat="46.3784" lon="5.28561">
        <ele>215.60000610352</ele>
        <time>2021-03-10T14:09:02.000Z</time>
      </trkpt>
      <trkpt lat="46.37835" lon="5.28592">
        <ele>214.60000610352</ele>
        <time>2021-03-10T14:09:03.000Z</time>
      </trkpt>
      <trkpt lat="46.37832" lon="5.28607">
        <ele>213.60000610352</ele>
        <time>2021-03-10T14:09:04.000Z</time>
      </trkpt>
      <trkpt lat="46.37827" lon="5.2862">
        <ele>212.80000305176</ele>
        <time>2021-03-10T14:09:05.000Z</time>
      </trkpt>
      <trkpt lat="46.37817" lon="5.28644">
        <ele>212</ele>
        <time>2021-03-10T14:09:07.000Z</time>
      </trkpt>
      <trkpt lat="46.37817" lon="5.28644">
        <ele>211.80000305176</ele>
        <time>2021-03-10T14:09:08.000Z</time>
      </trkpt>
      <trkpt lat="46.37807" lon="5.28668">
        <ele>211.80000305176</ele>
        <time>2021-03-10T14:09:09.000Z</time>
      </trkpt>
      <trkpt lat="46.37799" lon="5.28691">
        <ele>211.60000610352</ele>
        <time>2021-03-10T14:09:11.000Z</time>
      </trkpt>
      <trkpt lat="46.37792" lon="5.28713">
        <ele>211.60000610352</ele>
        <time>2021-03-10T14:09:13.000Z</time>
      </trkpt>
      <trkpt lat="46.37787" lon="5.28734">
        <ele>211.60000610352</ele>
        <time>2021-03-10T14:09:15.000Z</time>
      </trkpt>
      <trkpt lat="46.37782" lon="5.28752">
        <ele>211.80000305176</ele>
        <time>2021-03-10T14:09:17.000Z</time>
      </trkpt>
      <trkpt lat="46.3778" lon="5.28759">
        <ele>212</ele>
        <time>2021-03-10T14:09:18.000Z</time>
      </trkpt>
      <trkpt lat="46.37778" lon="5.28767">
        <ele>212</ele>
        <time>2021-03-10T14:09:19.000Z</time>
      </trkpt>
      <trkpt lat="46.37775" lon="5.2878">
        <ele>212.80000305176</ele>
        <time>2021-03-10T14:09:21.000Z</time>
      </trkpt>
      <trkpt lat="46.37771" lon="5.28792">
        <ele>213.80000305176</ele>
        <time>2021-03-10T14:09:23.000Z</time>
      </trkpt>
      <trkpt lat="46.37769" lon="5.28799">
        <ele>214.60000610352</ele>
        <time>2021-03-10T14:09:24.000Z</time>
      </trkpt>
      <trkpt lat="46.37767" lon="5.28805">
        <ele>216.60000610352</ele>
        <time>2021-03-10T14:09:25.000Z</time>
      </trkpt>
      <trkpt lat="46.37763" lon="5.28817">
        <ele>218.19999694824</ele>
        <time>2021-03-10T14:09:27.000Z</time>
      </trkpt>
      <trkpt lat="46.37759" lon="5.2883">
        <ele>219.19999694824</ele>
        <time>2021-03-10T14:09:29.000Z</time>
      </trkpt>
      <trkpt lat="46.37755" lon="5.28842">
        <ele>220.19999694824</ele>
        <time>2021-03-10T14:09:31.000Z</time>
      </trkpt>
      <trkpt lat="46.37752" lon="5.28848">
        <ele>220.60000610352</ele>
        <time>2021-03-10T14:09:32.000Z</time>
      </trkpt>
      <trkpt lat="46.3775" lon="5.28854">
        <ele>220.80000305176</ele>
        <time>2021-03-10T14:09:33.000Z</time>
      </trkpt>
      <trkpt lat="46.37744" lon="5.28865">
        <ele>221.39999389648</ele>
        <time>2021-03-10T14:09:35.000Z</time>
      </trkpt>
      <trkpt lat="46.37741" lon="5.2887">
        <ele>221.60000610352</ele>
        <time>2021-03-10T14:09:36.000Z</time>
      </trkpt>
      <trkpt lat="46.37737" lon="5.28875">
        <ele>221.80000305176</ele>
        <time>2021-03-10T14:09:37.000Z</time>
      </trkpt>
      <trkpt lat="46.37731" lon="5.28884">
        <ele>222.19999694824</ele>
        <time>2021-03-10T14:09:39.000Z</time>
      </trkpt>
      <trkpt lat="46.37724" lon="5.28892">
        <ele>222.60000610352</ele>
        <time>2021-03-10T14:09:41.000Z</time>
      </trkpt>
      <trkpt lat="46.37721" lon="5.28895">
        <ele>222.80000305176</ele>
        <time>2021-03-10T14:09:42.000Z</time>
      </trkpt>
      <trkpt lat="46.37717" lon="5.28899">
        <ele>223</ele>
        <time>2021-03-10T14:09:43.000Z</time>
      </trkpt>
      <trkpt lat="46.3771" lon="5.28904">
        <ele>223.19999694824</ele>
        <time>2021-03-10T14:09:45.000Z</time>
      </trkpt>
      <trkpt lat="46.37704" lon="5.28909">
        <ele>223.39999389648</ele>
        <time>2021-03-10T14:09:47.000Z</time>
      </trkpt>
      <trkpt lat="46.37697" lon="5.28913">
        <ele>223.80000305176</ele>
        <time>2021-03-10T14:09:49.000Z</time>
      </trkpt>
      <trkpt lat="46.37694" lon="5.28915">
        <ele>224.19999694824</ele>
        <time>2021-03-10T14:09:50.000Z</time>
      </trkpt>
      <trkpt lat="46.37691" lon="5.28917">
        <ele>224.60000610352</ele>
        <time>2021-03-10T14:09:51.000Z</time>
      </trkpt>
      <trkpt lat="46.37688" lon="5.28918">
        <ele>224.80000305176</ele>
        <time>2021-03-10T14:09:52.000Z</time>
      </trkpt>
      <trkpt lat="46.37685" lon="5.2892">
        <ele>225.60000610352</ele>
        <time>2021-03-10T14:09:53.000Z</time>
      </trkpt>
      <trkpt lat="46.37681" lon="5.28922">
        <ele>226</ele>
        <time>2021-03-10T14:09:54.000Z</time>
      </trkpt>
      <trkpt lat="46.37678" lon="5.28923">
        <ele>226.39999389648</ele>
        <time>2021-03-10T14:09:55.000Z</time>
      </trkpt>
      <trkpt lat="46.37671" lon="5.28927">
        <ele>227.19999694824</ele>
        <time>2021-03-10T14:09:57.000Z</time>
      </trkpt>
      <trkpt lat="46.37668" lon="5.28929">
        <ele>227.60000610352</ele>
        <time>2021-03-10T14:09:58.000Z</time>
      </trkpt>
      <trkpt lat="46.37664" lon="5.28932">
        <ele>228</ele>
        <time>2021-03-10T14:09:59.000Z</time>
      </trkpt>
      <trkpt lat="46.37657" lon="5.28938">
        <ele>228.39999389648</ele>
        <time>2021-03-10T14:10:01.000Z</time>
      </trkpt>
      <trkpt lat="46.3765" lon="5.28944">
        <ele>228.60000610352</ele>
        <time>2021-03-10T14:10:03.000Z</time>
      </trkpt>
      <trkpt lat="46.37643" lon="5.28951">
        <ele>229</ele>
        <time>2021-03-10T14:10:05.000Z</time>
      </trkpt>
      <trkpt lat="46.3764" lon="5.28956">
        <ele>229.39999389648</ele>
        <time>2021-03-10T14:10:06.000Z</time>
      </trkpt>
      <trkpt lat="46.37636" lon="5.28961">
        <ele>229.39999389648</ele>
        <time>2021-03-10T14:10:07.000Z</time>
      </trkpt>
      <trkpt lat="46.37627" lon="5.28972">
        <ele>229.80000305176</ele>
        <time>2021-03-10T14:10:09.000Z</time>
      </trkpt>
      <trkpt lat="46.37618" lon="5.28984">
        <ele>229.80000305176</ele>
        <time>2021-03-10T14:10:11.000Z</time>
      </trkpt>
      <trkpt lat="46.37607" lon="5.28996">
        <ele>229.80000305176</ele>
        <time>2021-03-10T14:10:13.000Z</time>
      </trkpt>
      <trkpt lat="46.37597" lon="5.29009">
        <ele>229.80000305176</ele>
        <time>2021-03-10T14:10:15.000Z</time>
      </trkpt>
      <trkpt lat="46.37586" lon="5.29022">
        <ele>229.60000610352</ele>
        <time>2021-03-10T14:10:17.000Z</time>
      </trkpt>
      <trkpt lat="46.37575" lon="5.29034">
        <ele>229.19999694824</ele>
        <time>2021-03-10T14:10:19.000Z</time>
      </trkpt>
      <trkpt lat="46.37575" lon="5.29034">
        <ele>228.80000305176</ele>
        <time>2021-03-10T14:10:20.000Z</time>
      </trkpt>
      <trkpt lat="46.37564" lon="5.29047">
        <ele>228.19999694824</ele>
        <time>2021-03-10T14:10:21.000Z</time>
      </trkpt>
      <trkpt lat="46.37552" lon="5.29061">
        <ele>228</ele>
        <time>2021-03-10T14:10:23.000Z</time>
      </trkpt>
      <trkpt lat="46.3754" lon="5.29074">
        <ele>227.80000305176</ele>
        <time>2021-03-10T14:10:25.000Z</time>
      </trkpt>
      <trkpt lat="46.37528" lon="5.29088">
        <ele>227.60000610352</ele>
        <time>2021-03-10T14:10:27.000Z</time>
      </trkpt>
      <trkpt lat="46.37516" lon="5.29102">
        <ele>227</ele>
        <time>2021-03-10T14:10:29.000Z</time>
      </trkpt>
      <trkpt lat="46.37504" lon="5.29116">
        <ele>226.39999389648</ele>
        <time>2021-03-10T14:10:31.000Z</time>
      </trkpt>
      <trkpt lat="46.37495" lon="5.29132">
        <ele>226.19999694824</ele>
        <time>2021-03-10T14:10:33.000Z</time>
      </trkpt>
      <trkpt lat="46.3749" lon="5.29141">
        <ele>226.19999694824</ele>
        <time>2021-03-10T14:10:34.000Z</time>
      </trkpt>
      <trkpt lat="46.37487" lon="5.2915">
        <ele>226.19999694824</ele>
        <time>2021-03-10T14:10:35.000Z</time>
      </trkpt>
      <trkpt lat="46.37482" lon="5.29169">
        <ele>226.19999694824</ele>
        <time>2021-03-10T14:10:37.000Z</time>
      </trkpt>
      <trkpt lat="46.3748" lon="5.29178">
        <ele>226.19999694824</ele>
        <time>2021-03-10T14:10:38.000Z</time>
      </trkpt>
      <trkpt lat="46.37478" lon="5.29187">
        <ele>226.19999694824</ele>
        <time>2021-03-10T14:10:39.000Z</time>
      </trkpt>
      <trkpt lat="46.37475" lon="5.29205">
        <ele>226.19999694824</ele>
        <time>2021-03-10T14:10:41.000Z</time>
      </trkpt>
      <trkpt lat="46.37471" lon="5.29221">
        <ele>226.39999389648</ele>
        <time>2021-03-10T14:10:43.000Z</time>
      </trkpt>
      <trkpt lat="46.37468" lon="5.29235">
        <ele>226.80000305176</ele>
        <time>2021-03-10T14:10:45.000Z</time>
      </trkpt>
      <trkpt lat="46.37464" lon="5.29248">
        <ele>227.39999389648</ele>
        <time>2021-03-10T14:10:47.000Z</time>
      </trkpt>
      <trkpt lat="46.3746" lon="5.29261">
        <ele>228</ele>
        <time>2021-03-10T14:10:49.000Z</time>
      </trkpt>
      <trkpt lat="46.37453" lon="5.29269">
        <ele>229.39999389648</ele>
        <time>2021-03-10T14:10:51.000Z</time>
      </trkpt>
      <trkpt lat="46.37445" lon="5.29267">
        <ele>230.60000610352</ele>
        <time>2021-03-10T14:10:53.000Z</time>
      </trkpt>
      <trkpt lat="46.37441" lon="5.29264">
        <ele>231.19999694824</ele>
        <time>2021-03-10T14:10:54.000Z</time>
      </trkpt>
      <trkpt lat="46.37437" lon="5.29259">
        <ele>231.60000610352</ele>
        <time>2021-03-10T14:10:55.000Z</time>
      </trkpt>
      <trkpt lat="46.37434" lon="5.29255">
        <ele>232.19999694824</ele>
        <time>2021-03-10T14:10:56.000Z</time>
      </trkpt>
      <trkpt lat="46.3743" lon="5.29249">
        <ele>232.60000610352</ele>
        <time>2021-03-10T14:10:57.000Z</time>
      </trkpt>
      <trkpt lat="46.37426" lon="5.29243">
        <ele>232.80000305176</ele>
        <time>2021-03-10T14:10:58.000Z</time>
      </trkpt>
      <trkpt lat="46.37422" lon="5.29237">
        <ele>232.80000305176</ele>
        <time>2021-03-10T14:10:59.000Z</time>
      </trkpt>
      <trkpt lat="46.37419" lon="5.2923">
        <ele>233</ele>
        <time>2021-03-10T14:11:00.000Z</time>
      </trkpt>
      <trkpt lat="46.37417" lon="5.29222">
        <ele>233</ele>
        <time>2021-03-10T14:11:01.000Z</time>
      </trkpt>
      <trkpt lat="46.37413" lon="5.29206">
        <ele>233</ele>
        <time>2021-03-10T14:11:03.000Z</time>
      </trkpt>
      <trkpt lat="46.37408" lon="5.2919">
        <ele>233</ele>
        <time>2021-03-10T14:11:05.000Z</time>
      </trkpt>
      <trkpt lat="46.37402" lon="5.29176">
        <ele>233</ele>
        <time>2021-03-10T14:11:07.000Z</time>
      </trkpt>
      <trkpt lat="46.37398" lon="5.29169">
        <ele>233</ele>
        <time>2021-03-10T14:11:08.000Z</time>
      </trkpt>
      <trkpt lat="46.37394" lon="5.29163">
        <ele>233</ele>
        <time>2021-03-10T14:11:09.000Z</time>
      </trkpt>
      <trkpt lat="46.37386" lon="5.29151">
        <ele>233.19999694824</ele>
        <time>2021-03-10T14:11:11.000Z</time>
      </trkpt>
      <trkpt lat="46.37378" lon="5.29139">
        <ele>233.19999694824</ele>
        <time>2021-03-10T14:11:13.000Z</time>
      </trkpt>
      <trkpt lat="46.37371" lon="5.29128">
        <ele>233.19999694824</ele>
        <time>2021-03-10T14:11:15.000Z</time>
      </trkpt>
      <trkpt lat="46.37367" lon="5.29122">
        <ele>233.19999694824</ele>
        <time>2021-03-10T14:11:16.000Z</time>
      </trkpt>
      <trkpt lat="46.37364" lon="5.29115">
        <ele>233.60000610352</ele>
        <time>2021-03-10T14:11:17.000Z</time>
      </trkpt>
      <trkpt lat="46.3736" lon="5.291">
        <ele>233.80000305176</ele>
        <time>2021-03-10T14:11:19.000Z</time>
      </trkpt>
      <trkpt lat="46.37358" lon="5.29093">
        <ele>233.80000305176</ele>
        <time>2021-03-10T14:11:20.000Z</time>
      </trkpt>
      <trkpt lat="46.37357" lon="5.29085">
        <ele>233.80000305176</ele>
        <time>2021-03-10T14:11:21.000Z</time>
      </trkpt>
      <trkpt lat="46.37353" lon="5.29071">
        <ele>234</ele>
        <time>2021-03-10T14:11:23.000Z</time>
      </trkpt>
      <trkpt lat="46.37346" lon="5.29058">
        <ele>234.19999694824</ele>
        <time>2021-03-10T14:11:25.000Z</time>
      </trkpt>
      <trkpt lat="46.37338" lon="5.29048">
        <ele>234.60000610352</ele>
        <time>2021-03-10T14:11:27.000Z</time>
      </trkpt>
      <trkpt lat="46.37328" lon="5.29041">
        <ele>234.60000610352</ele>
        <time>2021-03-10T14:11:29.000Z</time>
      </trkpt>
      <trkpt lat="46.37323" lon="5.29038">
        <ele>234.60000610352</ele>
        <time>2021-03-10T14:11:30.000Z</time>
      </trkpt>
      <trkpt lat="46.37318" lon="5.29036">
        <ele>234.80000305176</ele>
        <time>2021-03-10T14:11:31.000Z</time>
      </trkpt>
      <trkpt lat="46.37307" lon="5.29031">
        <ele>235</ele>
        <time>2021-03-10T14:11:33.000Z</time>
      </trkpt>
      <trkpt lat="46.37297" lon="5.29028">
        <ele>235.19999694824</ele>
        <time>2021-03-10T14:11:35.000Z</time>
      </trkpt>
      <trkpt lat="46.37286" lon="5.29027">
        <ele>235.39999389648</ele>
        <time>2021-03-10T14:11:37.000Z</time>
      </trkpt>
      <trkpt lat="46.37276" lon="5.29029">
        <ele>235.80000305176</ele>
        <time>2021-03-10T14:11:39.000Z</time>
      </trkpt>
      <trkpt lat="46.37266" lon="5.29033">
        <ele>235.80000305176</ele>
        <time>2021-03-10T14:11:41.000Z</time>
      </trkpt>
      <trkpt lat="46.37261" lon="5.29037">
        <ele>236</ele>
        <time>2021-03-10T14:11:42.000Z</time>
      </trkpt>
      <trkpt lat="46.37256" lon="5.29041">
        <ele>236.19999694824</ele>
        <time>2021-03-10T14:11:43.000Z</time>
      </trkpt>
      <trkpt lat="46.37252" lon="5.29045">
        <ele>236.19999694824</ele>
        <time>2021-03-10T14:11:44.000Z</time>
      </trkpt>
      <trkpt lat="46.37247" lon="5.29049">
        <ele>236.39999389648</ele>
        <time>2021-03-10T14:11:45.000Z</time>
      </trkpt>
      <trkpt lat="46.37242" lon="5.29053">
        <ele>236.39999389648</ele>
        <time>2021-03-10T14:11:46.000Z</time>
      </trkpt>
      <trkpt lat="46.37237" lon="5.29056">
        <ele>236.39999389648</ele>
        <time>2021-03-10T14:11:47.000Z</time>
      </trkpt>
      <trkpt lat="46.37226" lon="5.29059">
        <ele>236.80000305176</ele>
        <time>2021-03-10T14:11:49.000Z</time>
      </trkpt>
      <trkpt lat="46.37221" lon="5.2906">
        <ele>237</ele>
        <time>2021-03-10T14:11:50.000Z</time>
      </trkpt>
      <trkpt lat="46.37215" lon="5.29061">
        <ele>237</ele>
        <time>2021-03-10T14:11:51.000Z</time>
      </trkpt>
      <trkpt lat="46.3721" lon="5.29061">
        <ele>237.19999694824</ele>
        <time>2021-03-10T14:11:52.000Z</time>
      </trkpt>
      <trkpt lat="46.37204" lon="5.29061">
        <ele>237.19999694824</ele>
        <time>2021-03-10T14:11:53.000Z</time>
      </trkpt>
      <trkpt lat="46.37193" lon="5.29061">
        <ele>237.39999389648</ele>
        <time>2021-03-10T14:11:55.000Z</time>
      </trkpt>
      <trkpt lat="46.37181" lon="5.29061">
        <ele>237.60000610352</ele>
        <time>2021-03-10T14:11:57.000Z</time>
      </trkpt>
      <trkpt lat="46.3717" lon="5.29055">
        <ele>237.60000610352</ele>
        <time>2021-03-10T14:11:59.000Z</time>
      </trkpt>
      <trkpt lat="46.37163" lon="5.29042">
        <ele>237.80000305176</ele>
        <time>2021-03-10T14:12:01.000Z</time>
      </trkpt>
      <trkpt lat="46.37163" lon="5.29042">
        <ele>237.80000305176</ele>
        <time>2021-03-10T14:12:02.000Z</time>
      </trkpt>
      <trkpt lat="46.37158" lon="5.29026">
        <ele>237.80000305176</ele>
        <time>2021-03-10T14:12:03.000Z</time>
      </trkpt>
      <trkpt lat="46.37155" lon="5.29019">
        <ele>237.80000305176</ele>
        <time>2021-03-10T14:12:04.000Z</time>
      </trkpt>
      <trkpt lat="46.37151" lon="5.29013">
        <ele>237.80000305176</ele>
        <time>2021-03-10T14:12:05.000Z</time>
      </trkpt>
      <trkpt lat="46.37145" lon="5.29009">
        <ele>237.80000305176</ele>
        <time>2021-03-10T14:12:06.000Z</time>
      </trkpt>
      <trkpt lat="46.37139" lon="5.29007">
        <ele>237.60000610352</ele>
        <time>2021-03-10T14:12:07.000Z</time>
      </trkpt>
      <trkpt lat="46.37127" lon="5.29005">
        <ele>237.60000610352</ele>
        <time>2021-03-10T14:12:09.000Z</time>
      </trkpt>
      <trkpt lat="46.3712" lon="5.29005">
        <ele>237.60000610352</ele>
        <time>2021-03-10T14:12:10.000Z</time>
      </trkpt>
      <trkpt lat="46.37114" lon="5.29006">
        <ele>237.60000610352</ele>
        <time>2021-03-10T14:12:11.000Z</time>
      </trkpt>
      <trkpt lat="46.37101" lon="5.29008">
        <ele>237.39999389648</ele>
        <time>2021-03-10T14:12:13.000Z</time>
      </trkpt>
      <trkpt lat="46.37088" lon="5.2901">
        <ele>237.19999694824</ele>
        <time>2021-03-10T14:12:15.000Z</time>
      </trkpt>
      <trkpt lat="46.37075" lon="5.29012">
        <ele>237.19999694824</ele>
        <time>2021-03-10T14:12:17.000Z</time>
      </trkpt>
      <trkpt lat="46.37061" lon="5.29014">
        <ele>237.19999694824</ele>
        <time>2021-03-10T14:12:19.000Z</time>
      </trkpt>
      <trkpt lat="46.37048" lon="5.29016">
        <ele>237.19999694824</ele>
        <time>2021-03-10T14:12:21.000Z</time>
      </trkpt>
      <trkpt lat="46.37038" lon="5.29027">
        <ele>237.19999694824</ele>
        <time>2021-03-10T14:12:23.000Z</time>
      </trkpt>
      <trkpt lat="46.37035" lon="5.29045">
        <ele>237.19999694824</ele>
        <time>2021-03-10T14:12:25.000Z</time>
      </trkpt>
      <trkpt lat="46.37035" lon="5.29045">
        <ele>237.19999694824</ele>
        <time>2021-03-10T14:12:26.000Z</time>
      </trkpt>
      <trkpt lat="46.37037" lon="5.29063">
        <ele>237.19999694824</ele>
        <time>2021-03-10T14:12:27.000Z</time>
      </trkpt>
      <trkpt lat="46.37041" lon="5.29082">
        <ele>237.19999694824</ele>
        <time>2021-03-10T14:12:29.000Z</time>
      </trkpt>
      <trkpt lat="46.37046" lon="5.291">
        <ele>237.19999694824</ele>
        <time>2021-03-10T14:12:31.000Z</time>
      </trkpt>
      <trkpt lat="46.3705" lon="5.29119">
        <ele>237.39999389648</ele>
        <time>2021-03-10T14:12:33.000Z</time>
      </trkpt>
      <trkpt lat="46.37052" lon="5.29128">
        <ele>237.39999389648</ele>
        <time>2021-03-10T14:12:34.000Z</time>
      </trkpt>
      <trkpt lat="46.37053" lon="5.29138">
        <ele>237.39999389648</ele>
        <time>2021-03-10T14:12:35.000Z</time>
      </trkpt>
      <trkpt lat="46.37052" lon="5.29148">
        <ele>237.39999389648</ele>
        <time>2021-03-10T14:12:36.000Z</time>
      </trkpt>
      <trkpt lat="46.37048" lon="5.29156">
        <ele>237.39999389648</ele>
        <time>2021-03-10T14:12:37.000Z</time>
      </trkpt>
      <trkpt lat="46.37048" lon="5.29156">
        <ele>237.39999389648</ele>
        <time>2021-03-10T14:12:38.000Z</time>
      </trkpt>
      <trkpt lat="46.37036" lon="5.29162">
        <ele>237.39999389648</ele>
        <time>2021-03-10T14:12:39.000Z</time>
      </trkpt>
      <trkpt lat="46.3703" lon="5.29162">
        <ele>237.39999389648</ele>
        <time>2021-03-10T14:12:40.000Z</time>
      </trkpt>
      <trkpt lat="46.37023" lon="5.29162">
        <ele>237.19999694824</ele>
        <time>2021-03-10T14:12:41.000Z</time>
      </trkpt>
      <trkpt lat="46.37008" lon="5.29164">
        <ele>237.19999694824</ele>
        <time>2021-03-10T14:12:43.000Z</time>
      </trkpt>
      <trkpt lat="46.36992" lon="5.29164">
        <ele>237</ele>
        <time>2021-03-10T14:12:45.000Z</time>
      </trkpt>
      <trkpt lat="46.36976" lon="5.29163">
        <ele>236.80000305176</ele>
        <time>2021-03-10T14:12:47.000Z</time>
      </trkpt>
      <trkpt lat="46.36961" lon="5.2916">
        <ele>236.80000305176</ele>
        <time>2021-03-10T14:12:49.000Z</time>
      </trkpt>
      <trkpt lat="46.36953" lon="5.29157">
        <ele>236.80000305176</ele>
        <time>2021-03-10T14:12:50.000Z</time>
      </trkpt>
      <trkpt lat="46.36945" lon="5.29153">
        <ele>236.80000305176</ele>
        <time>2021-03-10T14:12:51.000Z</time>
      </trkpt>
      <trkpt lat="46.36931" lon="5.29142">
        <ele>236.60000610352</ele>
        <time>2021-03-10T14:12:53.000Z</time>
      </trkpt>
      <trkpt lat="46.36925" lon="5.29135">
        <ele>236.60000610352</ele>
        <time>2021-03-10T14:12:54.000Z</time>
      </trkpt>
      <trkpt lat="46.3692" lon="5.29128">
        <ele>236.39999389648</ele>
        <time>2021-03-10T14:12:55.000Z</time>
      </trkpt>
      <trkpt lat="46.36909" lon="5.29114">
        <ele>236.19999694824</ele>
        <time>2021-03-10T14:12:57.000Z</time>
      </trkpt>
      <trkpt lat="46.36903" lon="5.29107">
        <ele>236</ele>
        <time>2021-03-10T14:12:58.000Z</time>
      </trkpt>
      <trkpt lat="46.36897" lon="5.291">
        <ele>235.80000305176</ele>
        <time>2021-03-10T14:12:59.000Z</time>
      </trkpt>
      <trkpt lat="46.36886" lon="5.29089">
        <ele>235.39999389648</ele>
        <time>2021-03-10T14:13:01.000Z</time>
      </trkpt>
      <trkpt lat="46.36879" lon="5.29084">
        <ele>235.39999389648</ele>
        <time>2021-03-10T14:13:02.000Z</time>
      </trkpt>
      <trkpt lat="46.36873" lon="5.2908">
        <ele>235.39999389648</ele>
        <time>2021-03-10T14:13:03.000Z</time>
      </trkpt>
      <trkpt lat="46.3686" lon="5.29073">
        <ele>235.19999694824</ele>
        <time>2021-03-10T14:13:05.000Z</time>
      </trkpt>
      <trkpt lat="46.36847" lon="5.29068">
        <ele>235.19999694824</ele>
        <time>2021-03-10T14:13:07.000Z</time>
      </trkpt>
      <trkpt lat="46.36832" lon="5.29066">
        <ele>235.19999694824</ele>
        <time>2021-03-10T14:13:09.000Z</time>
      </trkpt>
      <trkpt lat="46.36817" lon="5.29067">
        <ele>235.19999694824</ele>
        <time>2021-03-10T14:13:11.000Z</time>
      </trkpt>
      <trkpt lat="46.3681" lon="5.29067">
        <ele>235.19999694824</ele>
        <time>2021-03-10T14:13:12.000Z</time>
      </trkpt>
      <trkpt lat="46.36803" lon="5.29069">
        <ele>235.19999694824</ele>
        <time>2021-03-10T14:13:13.000Z</time>
      </trkpt>
      <trkpt lat="46.36791" lon="5.29074">
        <ele>235</ele>
        <time>2021-03-10T14:13:15.000Z</time>
      </trkpt>
      <trkpt lat="46.36786" lon="5.29075">
        <ele>235</ele>
        <time>2021-03-10T14:13:16.000Z</time>
      </trkpt>
      <trkpt lat="46.36781" lon="5.29076">
        <ele>234.80000305176</ele>
        <time>2021-03-10T14:13:17.000Z</time>
      </trkpt>
      <trkpt lat="46.36773" lon="5.29072">
        <ele>234.39999389648</ele>
        <time>2021-03-10T14:13:19.000Z</time>
      </trkpt>
      <trkpt lat="46.36768" lon="5.29068">
        <ele>234.39999389648</ele>
        <time>2021-03-10T14:13:20.000Z</time>
      </trkpt>
      <trkpt lat="46.36765" lon="5.29063">
        <ele>234.39999389648</ele>
        <time>2021-03-10T14:13:21.000Z</time>
      </trkpt>
      <trkpt lat="46.36761" lon="5.29058">
        <ele>234.19999694824</ele>
        <time>2021-03-10T14:13:22.000Z</time>
      </trkpt>
      <trkpt lat="46.36756" lon="5.29052">
        <ele>234.19999694824</ele>
        <time>2021-03-10T14:13:23.000Z</time>
      </trkpt>
      <trkpt lat="46.36747" lon="5.2904">
        <ele>234.19999694824</ele>
        <time>2021-03-10T14:13:25.000Z</time>
      </trkpt>
      <trkpt lat="46.36742" lon="5.29033">
        <ele>234.19999694824</ele>
        <time>2021-03-10T14:13:26.000Z</time>
      </trkpt>
      <trkpt lat="46.36736" lon="5.29028">
        <ele>234.19999694824</ele>
        <time>2021-03-10T14:13:27.000Z</time>
      </trkpt>
      <trkpt lat="46.36723" lon="5.29019">
        <ele>234.19999694824</ele>
        <time>2021-03-10T14:13:29.000Z</time>
      </trkpt>
      <trkpt lat="46.36716" lon="5.29017">
        <ele>234.19999694824</ele>
        <time>2021-03-10T14:13:30.000Z</time>
      </trkpt>
      <trkpt lat="46.36708" lon="5.29016">
        <ele>234.19999694824</ele>
        <time>2021-03-10T14:13:31.000Z</time>
      </trkpt>
      <trkpt lat="46.36693" lon="5.29016">
        <ele>234.19999694824</ele>
        <time>2021-03-10T14:13:33.000Z</time>
      </trkpt>
      <trkpt lat="46.36685" lon="5.29017">
        <ele>234.19999694824</ele>
        <time>2021-03-10T14:13:34.000Z</time>
      </trkpt>
      <trkpt lat="46.36678" lon="5.29018">
        <ele>233.80000305176</ele>
        <time>2021-03-10T14:13:35.000Z</time>
      </trkpt>
      <trkpt lat="46.3667" lon="5.29019">
        <ele>233.60000610352</ele>
        <time>2021-03-10T14:13:36.000Z</time>
      </trkpt>
      <trkpt lat="46.36662" lon="5.2902">
        <ele>233</ele>
        <time>2021-03-10T14:13:37.000Z</time>
      </trkpt>
      <trkpt lat="46.36647" lon="5.29022">
        <ele>232.60000610352</ele>
        <time>2021-03-10T14:13:39.000Z</time>
      </trkpt>
      <trkpt lat="46.36632" lon="5.29024">
        <ele>232.60000610352</ele>
        <time>2021-03-10T14:13:41.000Z</time>
      </trkpt>
      <trkpt lat="46.36617" lon="5.29026">
        <ele>232.60000610352</ele>
        <time>2021-03-10T14:13:43.000Z</time>
      </trkpt>
      <trkpt lat="46.36603" lon="5.29028">
        <ele>232.39999389648</ele>
        <time>2021-03-10T14:13:45.000Z</time>
      </trkpt>
      <trkpt lat="46.36588" lon="5.29031">
        <ele>232.39999389648</ele>
        <time>2021-03-10T14:13:47.000Z</time>
      </trkpt>
      <trkpt lat="46.36573" lon="5.29034">
        <ele>232.39999389648</ele>
        <time>2021-03-10T14:13:49.000Z</time>
      </trkpt>
      <trkpt lat="46.36558" lon="5.29036">
        <ele>232.60000610352</ele>
        <time>2021-03-10T14:13:51.000Z</time>
      </trkpt>
      <trkpt lat="46.3655" lon="5.29037">
        <ele>232.80000305176</ele>
        <time>2021-03-10T14:13:52.000Z</time>
      </trkpt>
      <trkpt lat="46.36543" lon="5.29037">
        <ele>232.80000305176</ele>
        <time>2021-03-10T14:13:53.000Z</time>
      </trkpt>
      <trkpt lat="46.36527" lon="5.29039">
        <ele>232.80000305176</ele>
        <time>2021-03-10T14:13:55.000Z</time>
      </trkpt>
      <trkpt lat="46.36513" lon="5.2904">
        <ele>232.80000305176</ele>
        <time>2021-03-10T14:13:57.000Z</time>
      </trkpt>
      <trkpt lat="46.36498" lon="5.29041">
        <ele>232.80000305176</ele>
        <time>2021-03-10T14:13:59.000Z</time>
      </trkpt>
      <trkpt lat="46.36491" lon="5.29041">
        <ele>232.80000305176</ele>
        <time>2021-03-10T14:14:00.000Z</time>
      </trkpt>
      <trkpt lat="46.36484" lon="5.29042">
        <ele>232.80000305176</ele>
        <time>2021-03-10T14:14:01.000Z</time>
      </trkpt>
      <trkpt lat="46.3647" lon="5.29043">
        <ele>232.80000305176</ele>
        <time>2021-03-10T14:14:03.000Z</time>
      </trkpt>
      <trkpt lat="46.36456" lon="5.29044">
        <ele>232.80000305176</ele>
        <time>2021-03-10T14:14:05.000Z</time>
      </trkpt>
      <trkpt lat="46.36442" lon="5.29045">
        <ele>232.60000610352</ele>
        <time>2021-03-10T14:14:07.000Z</time>
      </trkpt>
      <trkpt lat="46.36435" lon="5.29045">
        <ele>232.60000610352</ele>
        <time>2021-03-10T14:14:08.000Z</time>
      </trkpt>
      <trkpt lat="46.36428" lon="5.29046">
        <ele>232.39999389648</ele>
        <time>2021-03-10T14:14:09.000Z</time>
      </trkpt>
      <trkpt lat="46.36414" lon="5.29047">
        <ele>232.39999389648</ele>
        <time>2021-03-10T14:14:11.000Z</time>
      </trkpt>
      <trkpt lat="46.36401" lon="5.29048">
        <ele>232.39999389648</ele>
        <time>2021-03-10T14:14:13.000Z</time>
      </trkpt>
      <trkpt lat="46.36388" lon="5.2905">
        <ele>232.39999389648</ele>
        <time>2021-03-10T14:14:15.000Z</time>
      </trkpt>
      <trkpt lat="46.36374" lon="5.29052">
        <ele>232.39999389648</ele>
        <time>2021-03-10T14:14:17.000Z</time>
      </trkpt>
      <trkpt lat="46.36368" lon="5.29053">
        <ele>232.39999389648</ele>
        <time>2021-03-10T14:14:18.000Z</time>
      </trkpt>
      <trkpt lat="46.36361" lon="5.29054">
        <ele>232.39999389648</ele>
        <time>2021-03-10T14:14:19.000Z</time>
      </trkpt>
      <trkpt lat="46.36349" lon="5.29057">
        <ele>232.39999389648</ele>
        <time>2021-03-10T14:14:21.000Z</time>
      </trkpt>
      <trkpt lat="46.36336" lon="5.2906">
        <ele>232.39999389648</ele>
        <time>2021-03-10T14:14:23.000Z</time>
      </trkpt>
      <trkpt lat="46.36324" lon="5.29062">
        <ele>232.60000610352</ele>
        <time>2021-03-10T14:14:25.000Z</time>
      </trkpt>
      <trkpt lat="46.36318" lon="5.29063">
        <ele>232.80000305176</ele>
        <time>2021-03-10T14:14:26.000Z</time>
      </trkpt>
      <trkpt lat="46.36311" lon="5.29064">
        <ele>232.80000305176</ele>
        <time>2021-03-10T14:14:27.000Z</time>
      </trkpt>
      <trkpt lat="46.36299" lon="5.29066">
        <ele>232.80000305176</ele>
        <time>2021-03-10T14:14:29.000Z</time>
      </trkpt>
      <trkpt lat="46.36288" lon="5.29069">
        <ele>233</ele>
        <time>2021-03-10T14:14:31.000Z</time>
      </trkpt>
      <trkpt lat="46.36276" lon="5.29071">
        <ele>233.19999694824</ele>
        <time>2021-03-10T14:14:33.000Z</time>
      </trkpt>
      <trkpt lat="46.36265" lon="5.29074">
        <ele>233.60000610352</ele>
        <time>2021-03-10T14:14:35.000Z</time>
      </trkpt>
      <trkpt lat="46.36259" lon="5.29076">
        <ele>233.80000305176</ele>
        <time>2021-03-10T14:14:36.000Z</time>
      </trkpt>
      <trkpt lat="46.36254" lon="5.29081">
        <ele>234</ele>
        <time>2021-03-10T14:14:37.000Z</time>
      </trkpt>
      <trkpt lat="46.3625" lon="5.29086">
        <ele>234.19999694824</ele>
        <time>2021-03-10T14:14:38.000Z</time>
      </trkpt>
      <trkpt lat="46.36247" lon="5.29093">
        <ele>234.39999389648</ele>
        <time>2021-03-10T14:14:39.000Z</time>
      </trkpt>
      <trkpt lat="46.36243" lon="5.29101">
        <ele>234.39999389648</ele>
        <time>2021-03-10T14:14:40.000Z</time>
      </trkpt>
      <trkpt lat="46.3624" lon="5.29108">
        <ele>234.39999389648</ele>
        <time>2021-03-10T14:14:41.000Z</time>
      </trkpt>
      <trkpt lat="46.36236" lon="5.29114">
        <ele>234.60000610352</ele>
        <time>2021-03-10T14:14:42.000Z</time>
      </trkpt>
      <trkpt lat="46.36232" lon="5.29118">
        <ele>234.60000610352</ele>
        <time>2021-03-10T14:14:43.000Z</time>
      </trkpt>
      <trkpt lat="46.36221" lon="5.29121">
        <ele>234.80000305176</ele>
        <time>2021-03-10T14:14:45.000Z</time>
      </trkpt>
      <trkpt lat="46.36216" lon="5.29123">
        <ele>234.80000305176</ele>
        <time>2021-03-10T14:14:46.000Z</time>
      </trkpt>
      <trkpt lat="46.36211" lon="5.29127">
        <ele>235</ele>
        <time>2021-03-10T14:14:47.000Z</time>
      </trkpt>
      <trkpt lat="46.36206" lon="5.29133">
        <ele>235</ele>
        <time>2021-03-10T14:14:48.000Z</time>
      </trkpt>
      <trkpt lat="46.36204" lon="5.2914">
        <ele>235</ele>
        <time>2021-03-10T14:14:49.000Z</time>
      </trkpt>
      <trkpt lat="46.36204" lon="5.29156">
        <ele>235.19999694824</ele>
        <time>2021-03-10T14:14:51.000Z</time>
      </trkpt>
      <trkpt lat="46.36205" lon="5.29165">
        <ele>235.19999694824</ele>
        <time>2021-03-10T14:14:52.000Z</time>
      </trkpt>
      <trkpt lat="46.36206" lon="5.29174">
        <ele>235.39999389648</ele>
        <time>2021-03-10T14:14:53.000Z</time>
      </trkpt>
      <trkpt lat="46.3621" lon="5.29194">
        <ele>235.60000610352</ele>
        <time>2021-03-10T14:14:55.000Z</time>
      </trkpt>
      <trkpt lat="46.36214" lon="5.29204">
        <ele>235.60000610352</ele>
        <time>2021-03-10T14:14:56.000Z</time>
      </trkpt>
      <trkpt lat="46.36218" lon="5.29215">
        <ele>235.60000610352</ele>
        <time>2021-03-10T14:14:57.000Z</time>
      </trkpt>
      <trkpt lat="46.36226" lon="5.29239">
        <ele>235.60000610352</ele>
        <time>2021-03-10T14:14:59.000Z</time>
      </trkpt>
      <trkpt lat="46.36229" lon="5.29253">
        <ele>235.60000610352</ele>
        <time>2021-03-10T14:15:00.000Z</time>
      </trkpt>
      <trkpt lat="46.36232" lon="5.29268">
        <ele>235.60000610352</ele>
        <time>2021-03-10T14:15:01.000Z</time>
      </trkpt>
      <trkpt lat="46.36238" lon="5.29297">
        <ele>235.19999694824</ele>
        <time>2021-03-10T14:15:03.000Z</time>
      </trkpt>
      <trkpt lat="46.36241" lon="5.29326">
        <ele>234</ele>
        <time>2021-03-10T14:15:05.000Z</time>
      </trkpt>
      <trkpt lat="46.36242" lon="5.2934">
        <ele>233</ele>
        <time>2021-03-10T14:15:06.000Z</time>
      </trkpt>
      <trkpt lat="46.36243" lon="5.29354">
        <ele>232</ele>
        <time>2021-03-10T14:15:07.000Z</time>
      </trkpt>
      <trkpt lat="46.36245" lon="5.29368">
        <ele>230.60000610352</ele>
        <time>2021-03-10T14:15:08.000Z</time>
      </trkpt>
      <trkpt lat="46.36247" lon="5.29381">
        <ele>229.60000610352</ele>
        <time>2021-03-10T14:15:09.000Z</time>
      </trkpt>
      <trkpt lat="46.3625" lon="5.29405">
        <ele>228.60000610352</ele>
        <time>2021-03-10T14:15:11.000Z</time>
      </trkpt>
      <trkpt lat="46.36252" lon="5.29417">
        <ele>228.60000610352</ele>
        <time>2021-03-10T14:15:12.000Z</time>
      </trkpt>
      <trkpt lat="46.36254" lon="5.29429">
        <ele>228.39999389648</ele>
        <time>2021-03-10T14:15:13.000Z</time>
      </trkpt>
      <trkpt lat="46.36255" lon="5.29451">
        <ele>228.39999389648</ele>
        <time>2021-03-10T14:15:15.000Z</time>
      </trkpt>
      <trkpt lat="46.36252" lon="5.2946">
        <ele>228.39999389648</ele>
        <time>2021-03-10T14:15:16.000Z</time>
      </trkpt>
      <trkpt lat="46.36248" lon="5.29467">
        <ele>228.39999389648</ele>
        <time>2021-03-10T14:15:17.000Z</time>
      </trkpt>
      <trkpt lat="46.36238" lon="5.29473">
        <ele>228.60000610352</ele>
        <time>2021-03-10T14:15:19.000Z</time>
      </trkpt>
      <trkpt lat="46.36233" lon="5.29474">
        <ele>228.80000305176</ele>
        <time>2021-03-10T14:15:20.000Z</time>
      </trkpt>
      <trkpt lat="46.36227" lon="5.29477">
        <ele>228.80000305176</ele>
        <time>2021-03-10T14:15:21.000Z</time>
      </trkpt>
      <trkpt lat="46.36217" lon="5.29485">
        <ele>229.80000305176</ele>
        <time>2021-03-10T14:15:23.000Z</time>
      </trkpt>
      <trkpt lat="46.36213" lon="5.2949">
        <ele>230.60000610352</ele>
        <time>2021-03-10T14:15:24.000Z</time>
      </trkpt>
      <trkpt lat="46.36208" lon="5.29494">
        <ele>231.39999389648</ele>
        <time>2021-03-10T14:15:25.000Z</time>
      </trkpt>
      <trkpt lat="46.36199" lon="5.29503">
        <ele>232.60000610352</ele>
        <time>2021-03-10T14:15:27.000Z</time>
      </trkpt>
      <trkpt lat="46.36189" lon="5.29512">
        <ele>234.19999694824</ele>
        <time>2021-03-10T14:15:29.000Z</time>
      </trkpt>
      <trkpt lat="46.36179" lon="5.29519">
        <ele>235</ele>
        <time>2021-03-10T14:15:31.000Z</time>
      </trkpt>
      <trkpt lat="46.36173" lon="5.29522">
        <ele>235.39999389648</ele>
        <time>2021-03-10T14:15:32.000Z</time>
      </trkpt>
      <trkpt lat="46.36166" lon="5.29524">
        <ele>235.60000610352</ele>
        <time>2021-03-10T14:15:33.000Z</time>
      </trkpt>
      <trkpt lat="46.36151" lon="5.29528">
        <ele>235.60000610352</ele>
        <time>2021-03-10T14:15:35.000Z</time>
      </trkpt>
      <trkpt lat="46.36144" lon="5.2953">
        <ele>235.80000305176</ele>
        <time>2021-03-10T14:15:36.000Z</time>
      </trkpt>
      <trkpt lat="46.36136" lon="5.29531">
        <ele>235.80000305176</ele>
        <time>2021-03-10T14:15:37.000Z</time>
      </trkpt>
      <trkpt lat="46.36119" lon="5.29533">
        <ele>235.80000305176</ele>
        <time>2021-03-10T14:15:39.000Z</time>
      </trkpt>
      <trkpt lat="46.36103" lon="5.29534">
        <ele>235.80000305176</ele>
        <time>2021-03-10T14:15:41.000Z</time>
      </trkpt>
      <trkpt lat="46.36086" lon="5.29536">
        <ele>235.60000610352</ele>
        <time>2021-03-10T14:15:43.000Z</time>
      </trkpt>
      <trkpt lat="46.36078" lon="5.29537">
        <ele>235</ele>
        <time>2021-03-10T14:15:44.000Z</time>
      </trkpt>
      <trkpt lat="46.3607" lon="5.29538">
        <ele>234.60000610352</ele>
        <time>2021-03-10T14:15:45.000Z</time>
      </trkpt>
      <trkpt lat="46.36062" lon="5.29538">
        <ele>234.19999694824</ele>
        <time>2021-03-10T14:15:46.000Z</time>
      </trkpt>
      <trkpt lat="46.36054" lon="5.29539">
        <ele>233.80000305176</ele>
        <time>2021-03-10T14:15:47.000Z</time>
      </trkpt>
      <trkpt lat="46.36039" lon="5.29541">
        <ele>233.39999389648</ele>
        <time>2021-03-10T14:15:49.000Z</time>
      </trkpt>
      <trkpt lat="46.36024" lon="5.29542">
        <ele>233</ele>
        <time>2021-03-10T14:15:51.000Z</time>
      </trkpt>
      <trkpt lat="46.36008" lon="5.29544">
        <ele>233</ele>
        <time>2021-03-10T14:15:53.000Z</time>
      </trkpt>
      <trkpt lat="46.35994" lon="5.29546">
        <ele>233</ele>
        <time>2021-03-10T14:15:55.000Z</time>
      </trkpt>
      <trkpt lat="46.35979" lon="5.29548">
        <ele>232.80000305176</ele>
        <time>2021-03-10T14:15:57.000Z</time>
      </trkpt>
      <trkpt lat="46.35964" lon="5.2955">
        <ele>232.80000305176</ele>
        <time>2021-03-10T14:15:59.000Z</time>
      </trkpt>
      <trkpt lat="46.3595" lon="5.29551">
        <ele>232.80000305176</ele>
        <time>2021-03-10T14:16:01.000Z</time>
      </trkpt>
      <trkpt lat="46.35936" lon="5.29552">
        <ele>232.80000305176</ele>
        <time>2021-03-10T14:16:03.000Z</time>
      </trkpt>
      <trkpt lat="46.35922" lon="5.29553">
        <ele>233</ele>
        <time>2021-03-10T14:16:05.000Z</time>
      </trkpt>
      <trkpt lat="46.35909" lon="5.29552">
        <ele>233</ele>
        <time>2021-03-10T14:16:07.000Z</time>
      </trkpt>
      <trkpt lat="46.35896" lon="5.29551">
        <ele>233.19999694824</ele>
        <time>2021-03-10T14:16:09.000Z</time>
      </trkpt>
      <trkpt lat="46.3589" lon="5.2955">
        <ele>233.39999389648</ele>
        <time>2021-03-10T14:16:10.000Z</time>
      </trkpt>
      <trkpt lat="46.35885" lon="5.29549">
        <ele>233.60000610352</ele>
        <time>2021-03-10T14:16:11.000Z</time>
      </trkpt>
      <trkpt lat="46.35874" lon="5.29546">
        <ele>233.80000305176</ele>
        <time>2021-03-10T14:16:13.000Z</time>
      </trkpt>
      <trkpt lat="46.35865" lon="5.29544">
        <ele>234.19999694824</ele>
        <time>2021-03-10T14:16:15.000Z</time>
      </trkpt>
      <trkpt lat="46.35855" lon="5.29543">
        <ele>234.39999389648</ele>
        <time>2021-03-10T14:16:17.000Z</time>
      </trkpt>
      <trkpt lat="46.35845" lon="5.29541">
        <ele>234.80000305176</ele>
        <time>2021-03-10T14:16:19.000Z</time>
      </trkpt>
      <trkpt lat="46.35839" lon="5.2954">
        <ele>235.39999389648</ele>
        <time>2021-03-10T14:16:20.000Z</time>
      </trkpt>
      <trkpt lat="46.35833" lon="5.29539">
        <ele>235.80000305176</ele>
        <time>2021-03-10T14:16:21.000Z</time>
      </trkpt>
      <trkpt lat="46.3582" lon="5.29538">
        <ele>236.39999389648</ele>
        <time>2021-03-10T14:16:23.000Z</time>
      </trkpt>
      <trkpt lat="46.35807" lon="5.29538">
        <ele>236.80000305176</ele>
        <time>2021-03-10T14:16:25.000Z</time>
      </trkpt>
      <trkpt lat="46.35801" lon="5.29538">
        <ele>237.19999694824</ele>
        <time>2021-03-10T14:16:26.000Z</time>
      </trkpt>
      <trkpt lat="46.35794" lon="5.29538">
        <ele>237.39999389648</ele>
        <time>2021-03-10T14:16:27.000Z</time>
      </trkpt>
      <trkpt lat="46.35788" lon="5.29538">
        <ele>237.60000610352</ele>
        <time>2021-03-10T14:16:28.000Z</time>
      </trkpt>
      <trkpt lat="46.35782" lon="5.29538">
        <ele>237.80000305176</ele>
        <time>2021-03-10T14:16:29.000Z</time>
      </trkpt>
      <trkpt lat="46.35771" lon="5.29539">
        <ele>238</ele>
        <time>2021-03-10T14:16:31.000Z</time>
      </trkpt>
      <trkpt lat="46.35759" lon="5.29539">
        <ele>238</ele>
        <time>2021-03-10T14:16:33.000Z</time>
      </trkpt>
      <trkpt lat="46.35748" lon="5.29539">
        <ele>238.60000610352</ele>
        <time>2021-03-10T14:16:35.000Z</time>
      </trkpt>
      <trkpt lat="46.35736" lon="5.2954">
        <ele>239</ele>
        <time>2021-03-10T14:16:37.000Z</time>
      </trkpt>
      <trkpt lat="46.35724" lon="5.29542">
        <ele>239</ele>
        <time>2021-03-10T14:16:39.000Z</time>
      </trkpt>
      <trkpt lat="46.35719" lon="5.29544">
        <ele>239.19999694824</ele>
        <time>2021-03-10T14:16:40.000Z</time>
      </trkpt>
      <trkpt lat="46.35713" lon="5.29546">
        <ele>239.19999694824</ele>
        <time>2021-03-10T14:16:41.000Z</time>
      </trkpt>
      <trkpt lat="46.35702" lon="5.29552">
        <ele>239.60000610352</ele>
        <time>2021-03-10T14:16:43.000Z</time>
      </trkpt>
      <trkpt lat="46.35697" lon="5.29557">
        <ele>239.80000305176</ele>
        <time>2021-03-10T14:16:44.000Z</time>
      </trkpt>
      <trkpt lat="46.35692" lon="5.29562">
        <ele>240</ele>
        <time>2021-03-10T14:16:45.000Z</time>
      </trkpt>
      <trkpt lat="46.35681" lon="5.29574">
        <ele>240.19999694824</ele>
        <time>2021-03-10T14:16:47.000Z</time>
      </trkpt>
      <trkpt lat="46.3567" lon="5.29585">
        <ele>240.19999694824</ele>
        <time>2021-03-10T14:16:49.000Z</time>
      </trkpt>
      <trkpt lat="46.35659" lon="5.29594">
        <ele>240.19999694824</ele>
        <time>2021-03-10T14:16:51.000Z</time>
      </trkpt>
      <trkpt lat="46.35647" lon="5.29602">
        <ele>240.39999389648</ele>
        <time>2021-03-10T14:16:53.000Z</time>
      </trkpt>
      <trkpt lat="46.35635" lon="5.29608">
        <ele>240.39999389648</ele>
        <time>2021-03-10T14:16:55.000Z</time>
      </trkpt>
      <trkpt lat="46.35622" lon="5.29615">
        <ele>240.60000610352</ele>
        <time>2021-03-10T14:16:57.000Z</time>
      </trkpt>
      <trkpt lat="46.3561" lon="5.29621">
        <ele>240.60000610352</ele>
        <time>2021-03-10T14:16:59.000Z</time>
      </trkpt>
      <trkpt lat="46.35597" lon="5.29628">
        <ele>240.60000610352</ele>
        <time>2021-03-10T14:17:01.000Z</time>
      </trkpt>
      <trkpt lat="46.35584" lon="5.29634">
        <ele>240.60000610352</ele>
        <time>2021-03-10T14:17:03.000Z</time>
      </trkpt>
      <trkpt lat="46.35571" lon="5.29638">
        <ele>240.60000610352</ele>
        <time>2021-03-10T14:17:05.000Z</time>
      </trkpt>
      <trkpt lat="46.35565" lon="5.2964">
        <ele>240.60000610352</ele>
        <time>2021-03-10T14:17:06.000Z</time>
      </trkpt>
      <trkpt lat="46.35558" lon="5.29641">
        <ele>240.60000610352</ele>
        <time>2021-03-10T14:17:07.000Z</time>
      </trkpt>
      <trkpt lat="46.35545" lon="5.29644">
        <ele>240.60000610352</ele>
        <time>2021-03-10T14:17:09.000Z</time>
      </trkpt>
      <trkpt lat="46.3553" lon="5.29646">
        <ele>240.60000610352</ele>
        <time>2021-03-10T14:17:11.000Z</time>
      </trkpt>
      <trkpt lat="46.35515" lon="5.29648">
        <ele>240.60000610352</ele>
        <time>2021-03-10T14:17:13.000Z</time>
      </trkpt>
      <trkpt lat="46.35508" lon="5.2965">
        <ele>240.60000610352</ele>
        <time>2021-03-10T14:17:14.000Z</time>
      </trkpt>
      <trkpt lat="46.35501" lon="5.29654">
        <ele>240.60000610352</ele>
        <time>2021-03-10T14:17:15.000Z</time>
      </trkpt>
      <trkpt lat="46.35495" lon="5.29661">
        <ele>240.60000610352</ele>
        <time>2021-03-10T14:17:16.000Z</time>
      </trkpt>
      <trkpt lat="46.3549" lon="5.29669">
        <ele>240.60000610352</ele>
        <time>2021-03-10T14:17:17.000Z</time>
      </trkpt>
      <trkpt lat="46.35485" lon="5.29678">
        <ele>240.39999389648</ele>
        <time>2021-03-10T14:17:18.000Z</time>
      </trkpt>
      <trkpt lat="46.35479" lon="5.29686">
        <ele>240.19999694824</ele>
        <time>2021-03-10T14:17:19.000Z</time>
      </trkpt>
      <trkpt lat="46.35473" lon="5.29691">
        <ele>240</ele>
        <time>2021-03-10T14:17:20.000Z</time>
      </trkpt>
      <trkpt lat="46.35467" lon="5.29693">
        <ele>239.80000305176</ele>
        <time>2021-03-10T14:17:21.000Z</time>
      </trkpt>
      <trkpt lat="46.35452" lon="5.2969">
        <ele>239.60000610352</ele>
        <time>2021-03-10T14:17:23.000Z</time>
      </trkpt>
      <trkpt lat="46.35439" lon="5.29686">
        <ele>239.60000610352</ele>
        <time>2021-03-10T14:17:25.000Z</time>
      </trkpt>
      <trkpt lat="46.35425" lon="5.29682">
        <ele>239.60000610352</ele>
        <time>2021-03-10T14:17:27.000Z</time>
      </trkpt>
      <trkpt lat="46.35411" lon="5.29678">
        <ele>239.60000610352</ele>
        <time>2021-03-10T14:17:29.000Z</time>
      </trkpt>
      <trkpt lat="46.35397" lon="5.29674">
        <ele>239.80000305176</ele>
        <time>2021-03-10T14:17:31.000Z</time>
      </trkpt>
      <trkpt lat="46.35383" lon="5.29669">
        <ele>240.19999694824</ele>
        <time>2021-03-10T14:17:33.000Z</time>
      </trkpt>
      <trkpt lat="46.35368" lon="5.29664">
        <ele>240.39999389648</ele>
        <time>2021-03-10T14:17:35.000Z</time>
      </trkpt>
      <trkpt lat="46.35354" lon="5.2966">
        <ele>240.60000610352</ele>
        <time>2021-03-10T14:17:37.000Z</time>
      </trkpt>
      <trkpt lat="46.35339" lon="5.29656">
        <ele>240.60000610352</ele>
        <time>2021-03-10T14:17:39.000Z</time>
      </trkpt>
      <trkpt lat="46.35332" lon="5.29654">
        <ele>240.60000610352</ele>
        <time>2021-03-10T14:17:40.000Z</time>
      </trkpt>
      <trkpt lat="46.35325" lon="5.29652">
        <ele>240.60000610352</ele>
        <time>2021-03-10T14:17:41.000Z</time>
      </trkpt>
      <trkpt lat="46.35311" lon="5.29648">
        <ele>240.60000610352</ele>
        <time>2021-03-10T14:17:43.000Z</time>
      </trkpt>
      <trkpt lat="46.35296" lon="5.29645">
        <ele>240.60000610352</ele>
        <time>2021-03-10T14:17:45.000Z</time>
      </trkpt>
      <trkpt lat="46.35281" lon="5.29643">
        <ele>240.60000610352</ele>
        <time>2021-03-10T14:17:47.000Z</time>
      </trkpt>
      <trkpt lat="46.35267" lon="5.29642">
        <ele>240.60000610352</ele>
        <time>2021-03-10T14:17:49.000Z</time>
      </trkpt>
      <trkpt lat="46.35251" lon="5.29642">
        <ele>240.60000610352</ele>
        <time>2021-03-10T14:17:51.000Z</time>
      </trkpt>
      <trkpt lat="46.35236" lon="5.29642">
        <ele>240.60000610352</ele>
        <time>2021-03-10T14:17:53.000Z</time>
      </trkpt>
      <trkpt lat="46.3522" lon="5.29644">
        <ele>240.60000610352</ele>
        <time>2021-03-10T14:17:55.000Z</time>
      </trkpt>
      <trkpt lat="46.35213" lon="5.29645">
        <ele>240.60000610352</ele>
        <time>2021-03-10T14:17:56.000Z</time>
      </trkpt>
      <trkpt lat="46.35205" lon="5.29647">
        <ele>240.60000610352</ele>
        <time>2021-03-10T14:17:57.000Z</time>
      </trkpt>
      <trkpt lat="46.35189" lon="5.2965">
        <ele>240.39999389648</ele>
        <time>2021-03-10T14:17:59.000Z</time>
      </trkpt>
      <trkpt lat="46.35173" lon="5.29652">
        <ele>240.19999694824</ele>
        <time>2021-03-10T14:18:01.000Z</time>
      </trkpt>
      <trkpt lat="46.35156" lon="5.29655">
        <ele>240.19999694824</ele>
        <time>2021-03-10T14:18:03.000Z</time>
      </trkpt>
      <trkpt lat="46.35147" lon="5.29656">
        <ele>240</ele>
        <time>2021-03-10T14:18:04.000Z</time>
      </trkpt>
      <trkpt lat="46.35138" lon="5.29657">
        <ele>240</ele>
        <time>2021-03-10T14:18:05.000Z</time>
      </trkpt>
      <trkpt lat="46.35121" lon="5.29659">
        <ele>239.39999389648</ele>
        <time>2021-03-10T14:18:07.000Z</time>
      </trkpt>
      <trkpt lat="46.35104" lon="5.2966">
        <ele>239.19999694824</ele>
        <time>2021-03-10T14:18:09.000Z</time>
      </trkpt>
      <trkpt lat="46.35087" lon="5.29661">
        <ele>238.19999694824</ele>
        <time>2021-03-10T14:18:11.000Z</time>
      </trkpt>
      <trkpt lat="46.35079" lon="5.29659">
        <ele>237.39999389648</ele>
        <time>2021-03-10T14:18:12.000Z</time>
      </trkpt>
      <trkpt lat="46.35071" lon="5.29658">
        <ele>236.60000610352</ele>
        <time>2021-03-10T14:18:13.000Z</time>
      </trkpt>
      <trkpt lat="46.35057" lon="5.29652">
        <ele>235.80000305176</ele>
        <time>2021-03-10T14:18:15.000Z</time>
      </trkpt>
      <trkpt lat="46.3505" lon="5.29648">
        <ele>235.60000610352</ele>
        <time>2021-03-10T14:18:16.000Z</time>
      </trkpt>
      <trkpt lat="46.35044" lon="5.29645">
        <ele>235.60000610352</ele>
        <time>2021-03-10T14:18:17.000Z</time>
      </trkpt>
      <trkpt lat="46.35033" lon="5.29639">
        <ele>235.39999389648</ele>
        <time>2021-03-10T14:18:19.000Z</time>
      </trkpt>
      <trkpt lat="46.35027" lon="5.29637">
        <ele>235.39999389648</ele>
        <time>2021-03-10T14:18:20.000Z</time>
      </trkpt>
      <trkpt lat="46.35021" lon="5.29636">
        <ele>235.39999389648</ele>
        <time>2021-03-10T14:18:21.000Z</time>
      </trkpt>
      <trkpt lat="46.35016" lon="5.29635">
        <ele>235.39999389648</ele>
        <time>2021-03-10T14:18:22.000Z</time>
      </trkpt>
      <trkpt lat="46.3501" lon="5.29634">
        <ele>235.39999389648</ele>
        <time>2021-03-10T14:18:23.000Z</time>
      </trkpt>
      <trkpt lat="46.34999" lon="5.29632">
        <ele>235.80000305176</ele>
        <time>2021-03-10T14:18:25.000Z</time>
      </trkpt>
      <trkpt lat="46.34989" lon="5.29631">
        <ele>236.80000305176</ele>
        <time>2021-03-10T14:18:27.000Z</time>
      </trkpt>
      <trkpt lat="46.34978" lon="5.29633">
        <ele>237.80000305176</ele>
        <time>2021-03-10T14:18:29.000Z</time>
      </trkpt>
      <trkpt lat="46.34972" lon="5.29634">
        <ele>238.39999389648</ele>
        <time>2021-03-10T14:18:31.000Z</time>
      </trkpt>
      <trkpt lat="46.34967" lon="5.29637">
        <ele>239</ele>
        <time>2021-03-10T14:18:32.000Z</time>
      </trkpt>
      <trkpt lat="46.34956" lon="5.29645">
        <ele>239.19999694824</ele>
        <time>2021-03-10T14:18:33.000Z</time>
      </trkpt>
      <trkpt lat="46.34951" lon="5.2965">
        <ele>239.39999389648</ele>
        <time>2021-03-10T14:18:34.000Z</time>
      </trkpt>
      <trkpt lat="46.34946" lon="5.29656">
        <ele>239.60000610352</ele>
        <time>2021-03-10T14:18:35.000Z</time>
      </trkpt>
      <trkpt lat="46.3494" lon="5.2966">
        <ele>239.60000610352</ele>
        <time>2021-03-10T14:18:36.000Z</time>
      </trkpt>
      <trkpt lat="46.3494" lon="5.2966">
        <ele>239.80000305176</ele>
        <time>2021-03-10T14:18:37.000Z</time>
      </trkpt>
      <trkpt lat="46.34934" lon="5.29663">
        <ele>239.80000305176</ele>
        <time>2021-03-10T14:18:38.000Z</time>
      </trkpt>
      <trkpt lat="46.3492" lon="5.29663">
        <ele>239.80000305176</ele>
        <time>2021-03-10T14:18:39.000Z</time>
      </trkpt>
      <trkpt lat="46.34908" lon="5.29657">
        <ele>239.80000305176</ele>
        <time>2021-03-10T14:18:41.000Z</time>
      </trkpt>
      <trkpt lat="46.34902" lon="5.29653">
        <ele>239.80000305176</ele>
        <time>2021-03-10T14:18:42.000Z</time>
      </trkpt>
      <trkpt lat="46.34897" lon="5.2965">
        <ele>239.80000305176</ele>
        <time>2021-03-10T14:18:43.000Z</time>
      </trkpt>
      <trkpt lat="46.34886" lon="5.29642">
        <ele>239.80000305176</ele>
        <time>2021-03-10T14:18:45.000Z</time>
      </trkpt>
      <trkpt lat="46.34875" lon="5.29634">
        <ele>239.80000305176</ele>
        <time>2021-03-10T14:18:47.000Z</time>
      </trkpt>
      <trkpt lat="46.34869" lon="5.29631">
        <ele>239.80000305176</ele>
        <time>2021-03-10T14:18:48.000Z</time>
      </trkpt>
      <trkpt lat="46.34863" lon="5.29628">
        <ele>239.80000305176</ele>
        <time>2021-03-10T14:18:49.000Z</time>
      </trkpt>
      <trkpt lat="46.34851" lon="5.29622">
        <ele>239.80000305176</ele>
        <time>2021-03-10T14:18:51.000Z</time>
      </trkpt>
      <trkpt lat="46.34839" lon="5.29618">
        <ele>239.80000305176</ele>
        <time>2021-03-10T14:18:53.000Z</time>
      </trkpt>
      <trkpt lat="46.34826" lon="5.29614">
        <ele>239.80000305176</ele>
        <time>2021-03-10T14:18:55.000Z</time>
      </trkpt>
      <trkpt lat="46.3482" lon="5.29613">
        <ele>240</ele>
        <time>2021-03-10T14:18:56.000Z</time>
      </trkpt>
      <trkpt lat="46.34813" lon="5.29613">
        <ele>240</ele>
        <time>2021-03-10T14:18:57.000Z</time>
      </trkpt>
      <trkpt lat="46.348" lon="5.29613">
        <ele>240</ele>
        <time>2021-03-10T14:18:59.000Z</time>
      </trkpt>
      <trkpt lat="46.34787" lon="5.29614">
        <ele>240</ele>
        <time>2021-03-10T14:19:01.000Z</time>
      </trkpt>
      <trkpt lat="46.34773" lon="5.29615">
        <ele>240</ele>
        <time>2021-03-10T14:19:03.000Z</time>
      </trkpt>
      <trkpt lat="46.34759" lon="5.29618">
        <ele>240</ele>
        <time>2021-03-10T14:19:05.000Z</time>
      </trkpt>
      <trkpt lat="46.34751" lon="5.2962">
        <ele>240</ele>
        <time>2021-03-10T14:19:06.000Z</time>
      </trkpt>
      <trkpt lat="46.34744" lon="5.29623">
        <ele>240</ele>
        <time>2021-03-10T14:19:07.000Z</time>
      </trkpt>
      <trkpt lat="46.34737" lon="5.29628">
        <ele>240</ele>
        <time>2021-03-10T14:19:08.000Z</time>
      </trkpt>
      <trkpt lat="46.34731" lon="5.29632">
        <ele>240</ele>
        <time>2021-03-10T14:19:09.000Z</time>
      </trkpt>
      <trkpt lat="46.34717" lon="5.29641">
        <ele>239.60000610352</ele>
        <time>2021-03-10T14:19:11.000Z</time>
      </trkpt>
      <trkpt lat="46.34701" lon="5.29643">
        <ele>239.39999389648</ele>
        <time>2021-03-10T14:19:13.000Z</time>
      </trkpt>
      <trkpt lat="46.34686" lon="5.29639">
        <ele>238.60000610352</ele>
        <time>2021-03-10T14:19:15.000Z</time>
      </trkpt>
      <trkpt lat="46.3467" lon="5.29636">
        <ele>238.19999694824</ele>
        <time>2021-03-10T14:19:17.000Z</time>
      </trkpt>
      <trkpt lat="46.34662" lon="5.29636">
        <ele>238.19999694824</ele>
        <time>2021-03-10T14:19:18.000Z</time>
      </trkpt>
      <trkpt lat="46.34655" lon="5.29635">
        <ele>238</ele>
        <time>2021-03-10T14:19:19.000Z</time>
      </trkpt>
      <trkpt lat="46.3464" lon="5.29632">
        <ele>237.19999694824</ele>
        <time>2021-03-10T14:19:21.000Z</time>
      </trkpt>
      <trkpt lat="46.34625" lon="5.29628">
        <ele>236.80000305176</ele>
        <time>2021-03-10T14:19:23.000Z</time>
      </trkpt>
      <trkpt lat="46.34617" lon="5.29626">
        <ele>236.60000610352</ele>
        <time>2021-03-10T14:19:24.000Z</time>
      </trkpt>
      <trkpt lat="46.3461" lon="5.29624">
        <ele>236.60000610352</ele>
        <time>2021-03-10T14:19:25.000Z</time>
      </trkpt>
      <trkpt lat="46.34595" lon="5.29621">
        <ele>236.39999389648</ele>
        <time>2021-03-10T14:19:27.000Z</time>
      </trkpt>
      <trkpt lat="46.3458" lon="5.29618">
        <ele>236.19999694824</ele>
        <time>2021-03-10T14:19:29.000Z</time>
      </trkpt>
      <trkpt lat="46.34565" lon="5.29616">
        <ele>236.19999694824</ele>
        <time>2021-03-10T14:19:31.000Z</time>
      </trkpt>
      <trkpt lat="46.34557" lon="5.29615">
        <ele>236.19999694824</ele>
        <time>2021-03-10T14:19:32.000Z</time>
      </trkpt>
      <trkpt lat="46.3455" lon="5.29614">
        <ele>236.19999694824</ele>
        <time>2021-03-10T14:19:33.000Z</time>
      </trkpt>
      <trkpt lat="46.34535" lon="5.29611">
        <ele>236.19999694824</ele>
        <time>2021-03-10T14:19:35.000Z</time>
      </trkpt>
      <trkpt lat="46.34521" lon="5.29609">
        <ele>236.19999694824</ele>
        <time>2021-03-10T14:19:37.000Z</time>
      </trkpt>
      <trkpt lat="46.34507" lon="5.29606">
        <ele>236.19999694824</ele>
        <time>2021-03-10T14:19:39.000Z</time>
      </trkpt>
      <trkpt lat="46.34493" lon="5.29603">
        <ele>236.39999389648</ele>
        <time>2021-03-10T14:19:41.000Z</time>
      </trkpt>
      <trkpt lat="46.3448" lon="5.29601">
        <ele>236.39999389648</ele>
        <time>2021-03-10T14:19:43.000Z</time>
      </trkpt>
      <trkpt lat="46.34473" lon="5.29598">
        <ele>236.60000610352</ele>
        <time>2021-03-10T14:19:44.000Z</time>
      </trkpt>
      <trkpt lat="46.34467" lon="5.29595">
        <ele>236.80000305176</ele>
        <time>2021-03-10T14:19:45.000Z</time>
      </trkpt>
      <trkpt lat="46.34462" lon="5.29589">
        <ele>236.80000305176</ele>
        <time>2021-03-10T14:19:46.000Z</time>
      </trkpt>
      <trkpt lat="46.34459" lon="5.29581">
        <ele>237</ele>
        <time>2021-03-10T14:19:47.000Z</time>
      </trkpt>
      <trkpt lat="46.34457" lon="5.29564">
        <ele>237</ele>
        <time>2021-03-10T14:19:49.000Z</time>
      </trkpt>
      <trkpt lat="46.34459" lon="5.29547">
        <ele>237.19999694824</ele>
        <time>2021-03-10T14:19:51.000Z</time>
      </trkpt>
      <trkpt lat="46.3446" lon="5.29539">
        <ele>237.19999694824</ele>
        <time>2021-03-10T14:19:52.000Z</time>
      </trkpt>
      <trkpt lat="46.34461" lon="5.2953">
        <ele>237.39999389648</ele>
        <time>2021-03-10T14:19:53.000Z</time>
      </trkpt>
      <trkpt lat="46.34464" lon="5.29512">
        <ele>237.39999389648</ele>
        <time>2021-03-10T14:19:55.000Z</time>
      </trkpt>
      <trkpt lat="46.34467" lon="5.29495">
        <ele>238.19999694824</ele>
        <time>2021-03-10T14:19:57.000Z</time>
      </trkpt>
      <trkpt lat="46.34468" lon="5.29486">
        <ele>238.60000610352</ele>
        <time>2021-03-10T14:19:58.000Z</time>
      </trkpt>
      <trkpt lat="46.34469" lon="5.29478">
        <ele>238.80000305176</ele>
        <time>2021-03-10T14:19:59.000Z</time>
      </trkpt>
      <trkpt lat="46.34468" lon="5.29461">
        <ele>239.39999389648</ele>
        <time>2021-03-10T14:20:01.000Z</time>
      </trkpt>
      <trkpt lat="46.34466" lon="5.29453">
        <ele>239.80000305176</ele>
        <time>2021-03-10T14:20:02.000Z</time>
      </trkpt>
      <trkpt lat="46.34463" lon="5.29446">
        <ele>240</ele>
        <time>2021-03-10T14:20:03.000Z</time>
      </trkpt>
      <trkpt lat="46.34456" lon="5.29434">
        <ele>240.60000610352</ele>
        <time>2021-03-10T14:20:05.000Z</time>
      </trkpt>
      <trkpt lat="46.34451" lon="5.29428">
        <ele>240.60000610352</ele>
        <time>2021-03-10T14:20:06.000Z</time>
      </trkpt>
      <trkpt lat="46.34448" lon="5.29422">
        <ele>240.80000305176</ele>
        <time>2021-03-10T14:20:07.000Z</time>
      </trkpt>
      <trkpt lat="46.34444" lon="5.29416">
        <ele>240.80000305176</ele>
        <time>2021-03-10T14:20:08.000Z</time>
      </trkpt>
      <trkpt lat="46.3444" lon="5.29409">
        <ele>241</ele>
        <time>2021-03-10T14:20:09.000Z</time>
      </trkpt>
      <trkpt lat="46.34434" lon="5.29394">
        <ele>241.39999389648</ele>
        <time>2021-03-10T14:20:11.000Z</time>
      </trkpt>
      <trkpt lat="46.34427" lon="5.2938">
        <ele>241.80000305176</ele>
        <time>2021-03-10T14:20:13.000Z</time>
      </trkpt>
      <trkpt lat="46.34419" lon="5.29365">
        <ele>241.80000305176</ele>
        <time>2021-03-10T14:20:15.000Z</time>
      </trkpt>
      <trkpt lat="46.3441" lon="5.29352">
        <ele>241.80000305176</ele>
        <time>2021-03-10T14:20:17.000Z</time>
      </trkpt>
      <trkpt lat="46.34398" lon="5.29343">
        <ele>241.80000305176</ele>
        <time>2021-03-10T14:20:19.000Z</time>
      </trkpt>
      <trkpt lat="46.34385" lon="5.29336">
        <ele>241.80000305176</ele>
        <time>2021-03-10T14:20:21.000Z</time>
      </trkpt>
      <trkpt lat="46.34378" lon="5.29334">
        <ele>241.80000305176</ele>
        <time>2021-03-10T14:20:22.000Z</time>
      </trkpt>
      <trkpt lat="46.34371" lon="5.29332">
        <ele>241.80000305176</ele>
        <time>2021-03-10T14:20:23.000Z</time>
      </trkpt>
      <trkpt lat="46.34357" lon="5.29326">
        <ele>241.80000305176</ele>
        <time>2021-03-10T14:20:25.000Z</time>
      </trkpt>
      <trkpt lat="46.34343" lon="5.29317">
        <ele>241.60000610352</ele>
        <time>2021-03-10T14:20:27.000Z</time>
      </trkpt>
      <trkpt lat="46.3433" lon="5.29307">
        <ele>241</ele>
        <time>2021-03-10T14:20:29.000Z</time>
      </trkpt>
      <trkpt lat="46.34315" lon="5.29299">
        <ele>240.80000305176</ele>
        <time>2021-03-10T14:20:31.000Z</time>
      </trkpt>
      <trkpt lat="46.34308" lon="5.29296">
        <ele>240.60000610352</ele>
        <time>2021-03-10T14:20:32.000Z</time>
      </trkpt>
      <trkpt lat="46.343" lon="5.29293">
        <ele>240.39999389648</ele>
        <time>2021-03-10T14:20:33.000Z</time>
      </trkpt>
      <trkpt lat="46.34285" lon="5.29289">
        <ele>240</ele>
        <time>2021-03-10T14:20:35.000Z</time>
      </trkpt>
      <trkpt lat="46.34277" lon="5.29287">
        <ele>239.60000610352</ele>
        <time>2021-03-10T14:20:36.000Z</time>
      </trkpt>
      <trkpt lat="46.34269" lon="5.29286">
        <ele>239.19999694824</ele>
        <time>2021-03-10T14:20:37.000Z</time>
      </trkpt>
      <trkpt lat="46.34254" lon="5.29282">
        <ele>239</ele>
        <time>2021-03-10T14:20:39.000Z</time>
      </trkpt>
      <trkpt lat="46.34247" lon="5.2928">
        <ele>238.80000305176</ele>
        <time>2021-03-10T14:20:40.000Z</time>
      </trkpt>
      <trkpt lat="46.3424" lon="5.29278">
        <ele>238.60000610352</ele>
        <time>2021-03-10T14:20:41.000Z</time>
      </trkpt>
      <trkpt lat="46.34226" lon="5.29273">
        <ele>238.60000610352</ele>
        <time>2021-03-10T14:20:43.000Z</time>
      </trkpt>
      <trkpt lat="46.34211" lon="5.29267">
        <ele>238.60000610352</ele>
        <time>2021-03-10T14:20:45.000Z</time>
      </trkpt>
      <trkpt lat="46.34196" lon="5.29261">
        <ele>238.39999389648</ele>
        <time>2021-03-10T14:20:47.000Z</time>
      </trkpt>
      <trkpt lat="46.3418" lon="5.2926">
        <ele>238.39999389648</ele>
        <time>2021-03-10T14:20:49.000Z</time>
      </trkpt>
      <trkpt lat="46.34164" lon="5.29263">
        <ele>238.19999694824</ele>
        <time>2021-03-10T14:20:51.000Z</time>
      </trkpt>
      <trkpt lat="46.34147" lon="5.29265">
        <ele>238.19999694824</ele>
        <time>2021-03-10T14:20:53.000Z</time>
      </trkpt>
      <trkpt lat="46.34131" lon="5.29268">
        <ele>238</ele>
        <time>2021-03-10T14:20:55.000Z</time>
      </trkpt>
      <trkpt lat="46.34123" lon="5.29271">
        <ele>237.80000305176</ele>
        <time>2021-03-10T14:20:56.000Z</time>
      </trkpt>
      <trkpt lat="46.34115" lon="5.29275">
        <ele>237.80000305176</ele>
        <time>2021-03-10T14:20:57.000Z</time>
      </trkpt>
      <trkpt lat="46.34108" lon="5.2928">
        <ele>237.80000305176</ele>
        <time>2021-03-10T14:20:58.000Z</time>
      </trkpt>
      <trkpt lat="46.34101" lon="5.29287">
        <ele>237.80000305176</ele>
        <time>2021-03-10T14:20:59.000Z</time>
      </trkpt>
      <trkpt lat="46.34091" lon="5.29305">
        <ele>237.60000610352</ele>
        <time>2021-03-10T14:21:01.000Z</time>
      </trkpt>
      <trkpt lat="46.34086" lon="5.29315">
        <ele>237.39999389648</ele>
        <time>2021-03-10T14:21:02.000Z</time>
      </trkpt>
      <trkpt lat="46.34082" lon="5.29325">
        <ele>237.39999389648</ele>
        <time>2021-03-10T14:21:03.000Z</time>
      </trkpt>
      <trkpt lat="46.34072" lon="5.29344">
        <ele>237.19999694824</ele>
        <time>2021-03-10T14:21:05.000Z</time>
      </trkpt>
      <trkpt lat="46.34059" lon="5.29359">
        <ele>237.19999694824</ele>
        <time>2021-03-10T14:21:07.000Z</time>
      </trkpt>
      <trkpt lat="46.34046" lon="5.29369">
        <ele>237.19999694824</ele>
        <time>2021-03-10T14:21:09.000Z</time>
      </trkpt>
      <trkpt lat="46.34032" lon="5.29375">
        <ele>237.19999694824</ele>
        <time>2021-03-10T14:21:11.000Z</time>
      </trkpt>
      <trkpt lat="46.34017" lon="5.29383">
        <ele>237.19999694824</ele>
        <time>2021-03-10T14:21:13.000Z</time>
      </trkpt>
      <trkpt lat="46.34003" lon="5.29392">
        <ele>237.39999389648</ele>
        <time>2021-03-10T14:21:15.000Z</time>
      </trkpt>
      <trkpt lat="46.33989" lon="5.29406">
        <ele>237.80000305176</ele>
        <time>2021-03-10T14:21:17.000Z</time>
      </trkpt>
      <trkpt lat="46.33977" lon="5.29423">
        <ele>238.39999389648</ele>
        <time>2021-03-10T14:21:19.000Z</time>
      </trkpt>
      <trkpt lat="46.33972" lon="5.29432">
        <ele>238.60000610352</ele>
        <time>2021-03-10T14:21:20.000Z</time>
      </trkpt>
      <trkpt lat="46.33967" lon="5.29441">
        <ele>238.60000610352</ele>
        <time>2021-03-10T14:21:21.000Z</time>
      </trkpt>
      <trkpt lat="46.33961" lon="5.29462">
        <ele>238.80000305176</ele>
        <time>2021-03-10T14:21:23.000Z</time>
      </trkpt>
      <trkpt lat="46.33958" lon="5.29472">
        <ele>239</ele>
        <time>2021-03-10T14:21:24.000Z</time>
      </trkpt>
      <trkpt lat="46.33955" lon="5.29483">
        <ele>239.19999694824</ele>
        <time>2021-03-10T14:21:25.000Z</time>
      </trkpt>
      <trkpt lat="46.33952" lon="5.29493">
        <ele>239.60000610352</ele>
        <time>2021-03-10T14:21:26.000Z</time>
      </trkpt>
      <trkpt lat="46.33947" lon="5.29502">
        <ele>240</ele>
        <time>2021-03-10T14:21:27.000Z</time>
      </trkpt>
      <trkpt lat="46.33941" lon="5.2951">
        <ele>240.19999694824</ele>
        <time>2021-03-10T14:21:28.000Z</time>
      </trkpt>
      <trkpt lat="46.33934" lon="5.29515">
        <ele>240.60000610352</ele>
        <time>2021-03-10T14:21:29.000Z</time>
      </trkpt>
      <trkpt lat="46.33926" lon="5.29518">
        <ele>240.80000305176</ele>
        <time>2021-03-10T14:21:30.000Z</time>
      </trkpt>
      <trkpt lat="46.33918" lon="5.2952">
        <ele>241</ele>
        <time>2021-03-10T14:21:31.000Z</time>
      </trkpt>
      <trkpt lat="46.33901" lon="5.29521">
        <ele>241</ele>
        <time>2021-03-10T14:21:33.000Z</time>
      </trkpt>
      <trkpt lat="46.33884" lon="5.29521">
        <ele>241.19999694824</ele>
        <time>2021-03-10T14:21:35.000Z</time>
      </trkpt>
      <trkpt lat="46.33876" lon="5.29521">
        <ele>241.19999694824</ele>
        <time>2021-03-10T14:21:36.000Z</time>
      </trkpt>
      <trkpt lat="46.33867" lon="5.2952">
        <ele>241.19999694824</ele>
        <time>2021-03-10T14:21:37.000Z</time>
      </trkpt>
      <trkpt lat="46.33851" lon="5.29519">
        <ele>241.19999694824</ele>
        <time>2021-03-10T14:21:39.000Z</time>
      </trkpt>
      <trkpt lat="46.33834" lon="5.29519">
        <ele>241</ele>
        <time>2021-03-10T14:21:41.000Z</time>
      </trkpt>
      <trkpt lat="46.33818" lon="5.29518">
        <ele>241</ele>
        <time>2021-03-10T14:21:43.000Z</time>
      </trkpt>
      <trkpt lat="46.3381" lon="5.29516">
        <ele>241</ele>
        <time>2021-03-10T14:21:44.000Z</time>
      </trkpt>
      <trkpt lat="46.33803" lon="5.29514">
        <ele>241</ele>
        <time>2021-03-10T14:21:45.000Z</time>
      </trkpt>
      <trkpt lat="46.33788" lon="5.29505">
        <ele>240.80000305176</ele>
        <time>2021-03-10T14:21:47.000Z</time>
      </trkpt>
      <trkpt lat="46.33781" lon="5.295">
        <ele>240.80000305176</ele>
        <time>2021-03-10T14:21:48.000Z</time>
      </trkpt>
      <trkpt lat="46.33775" lon="5.29495">
        <ele>240.80000305176</ele>
        <time>2021-03-10T14:21:49.000Z</time>
      </trkpt>
      <trkpt lat="46.33762" lon="5.29483">
        <ele>240.80000305176</ele>
        <time>2021-03-10T14:21:51.000Z</time>
      </trkpt>
      <trkpt lat="46.33749" lon="5.2947">
        <ele>241</ele>
        <time>2021-03-10T14:21:53.000Z</time>
      </trkpt>
      <trkpt lat="46.33737" lon="5.29455">
        <ele>241.19999694824</ele>
        <time>2021-03-10T14:21:55.000Z</time>
      </trkpt>
      <trkpt lat="46.33726" lon="5.29441">
        <ele>241.19999694824</ele>
        <time>2021-03-10T14:21:57.000Z</time>
      </trkpt>
      <trkpt lat="46.33715" lon="5.29426">
        <ele>241.19999694824</ele>
        <time>2021-03-10T14:21:59.000Z</time>
      </trkpt>
      <trkpt lat="46.33705" lon="5.29411">
        <ele>241.19999694824</ele>
        <time>2021-03-10T14:22:01.000Z</time>
      </trkpt>
      <trkpt lat="46.33695" lon="5.29396">
        <ele>241.19999694824</ele>
        <time>2021-03-10T14:22:03.000Z</time>
      </trkpt>
      <trkpt lat="46.33685" lon="5.29381">
        <ele>241.19999694824</ele>
        <time>2021-03-10T14:22:05.000Z</time>
      </trkpt>
      <trkpt lat="46.33679" lon="5.29375">
        <ele>241.39999389648</ele>
        <time>2021-03-10T14:22:06.000Z</time>
      </trkpt>
      <trkpt lat="46.33672" lon="5.2937">
        <ele>241.39999389648</ele>
        <time>2021-03-10T14:22:07.000Z</time>
      </trkpt>
      <trkpt lat="46.33665" lon="5.29366">
        <ele>241.39999389648</ele>
        <time>2021-03-10T14:22:08.000Z</time>
      </trkpt>
      <trkpt lat="46.33658" lon="5.29364">
        <ele>241.60000610352</ele>
        <time>2021-03-10T14:22:09.000Z</time>
      </trkpt>
      <trkpt lat="46.33643" lon="5.29363">
        <ele>241.80000305176</ele>
        <time>2021-03-10T14:22:11.000Z</time>
      </trkpt>
      <trkpt lat="46.33636" lon="5.29365">
        <ele>241.80000305176</ele>
        <time>2021-03-10T14:22:12.000Z</time>
      </trkpt>
      <trkpt lat="46.33628" lon="5.29367">
        <ele>241.80000305176</ele>
        <time>2021-03-10T14:22:13.000Z</time>
      </trkpt>
      <trkpt lat="46.33613" lon="5.29371">
        <ele>242</ele>
        <time>2021-03-10T14:22:15.000Z</time>
      </trkpt>
      <trkpt lat="46.33605" lon="5.29371">
        <ele>242</ele>
        <time>2021-03-10T14:22:16.000Z</time>
      </trkpt>
      <trkpt lat="46.33598" lon="5.29371">
        <ele>242.19999694824</ele>
        <time>2021-03-10T14:22:17.000Z</time>
      </trkpt>
      <trkpt lat="46.33584" lon="5.29368">
        <ele>242.39999389648</ele>
        <time>2021-03-10T14:22:19.000Z</time>
      </trkpt>
      <trkpt lat="46.33569" lon="5.29364">
        <ele>242.39999389648</ele>
        <time>2021-03-10T14:22:21.000Z</time>
      </trkpt>
      <trkpt lat="46.33555" lon="5.2936">
        <ele>242.60000610352</ele>
        <time>2021-03-10T14:22:23.000Z</time>
      </trkpt>
      <trkpt lat="46.3354" lon="5.29355">
        <ele>242.60000610352</ele>
        <time>2021-03-10T14:22:25.000Z</time>
      </trkpt>
      <trkpt lat="46.33526" lon="5.2935">
        <ele>243.19999694824</ele>
        <time>2021-03-10T14:22:27.000Z</time>
      </trkpt>
      <trkpt lat="46.33511" lon="5.29344">
        <ele>243.39999389648</ele>
        <time>2021-03-10T14:22:29.000Z</time>
      </trkpt>
      <trkpt lat="46.33496" lon="5.29338">
        <ele>243.39999389648</ele>
        <time>2021-03-10T14:22:31.000Z</time>
      </trkpt>
      <trkpt lat="46.33481" lon="5.29332">
        <ele>243.39999389648</ele>
        <time>2021-03-10T14:22:33.000Z</time>
      </trkpt>
      <trkpt lat="46.33466" lon="5.29323">
        <ele>243.39999389648</ele>
        <time>2021-03-10T14:22:35.000Z</time>
      </trkpt>
      <trkpt lat="46.33452" lon="5.29313">
        <ele>243.39999389648</ele>
        <time>2021-03-10T14:22:37.000Z</time>
      </trkpt>
      <trkpt lat="46.33438" lon="5.29302">
        <ele>243.39999389648</ele>
        <time>2021-03-10T14:22:39.000Z</time>
      </trkpt>
      <trkpt lat="46.33427" lon="5.2929">
        <ele>243.19999694824</ele>
        <time>2021-03-10T14:22:41.000Z</time>
      </trkpt>
      <trkpt lat="46.33424" lon="5.29286">
        <ele>243.19999694824</ele>
        <time>2021-03-10T14:22:42.000Z</time>
      </trkpt>
      <trkpt lat="46.33421" lon="5.29284">
        <ele>243.19999694824</ele>
        <time>2021-03-10T14:22:43.000Z</time>
      </trkpt>
      <trkpt lat="46.33413" lon="5.29287">
        <ele>243.19999694824</ele>
        <time>2021-03-10T14:22:45.000Z</time>
      </trkpt>
      <trkpt lat="46.33406" lon="5.29298">
        <ele>243</ele>
        <time>2021-03-10T14:22:47.000Z</time>
      </trkpt>
      <trkpt lat="46.33403" lon="5.29306">
        <ele>243</ele>
        <time>2021-03-10T14:22:48.000Z</time>
      </trkpt>
      <trkpt lat="46.33399" lon="5.29314">
        <ele>243</ele>
        <time>2021-03-10T14:22:49.000Z</time>
      </trkpt>
      <trkpt lat="46.33393" lon="5.29333">
        <ele>243</ele>
        <time>2021-03-10T14:22:51.000Z</time>
      </trkpt>
      <trkpt lat="46.33385" lon="5.29352">
        <ele>242.60000610352</ele>
        <time>2021-03-10T14:22:53.000Z</time>
      </trkpt>
      <trkpt lat="46.33382" lon="5.29362">
        <ele>242.60000610352</ele>
        <time>2021-03-10T14:22:54.000Z</time>
      </trkpt>
      <trkpt lat="46.33378" lon="5.29372">
        <ele>242.39999389648</ele>
        <time>2021-03-10T14:22:55.000Z</time>
      </trkpt>
      <trkpt lat="46.33371" lon="5.29393">
        <ele>242.19999694824</ele>
        <time>2021-03-10T14:22:57.000Z</time>
      </trkpt>
      <trkpt lat="46.33368" lon="5.29403">
        <ele>241.80000305176</ele>
        <time>2021-03-10T14:22:58.000Z</time>
      </trkpt>
      <trkpt lat="46.33365" lon="5.29414">
        <ele>241.80000305176</ele>
        <time>2021-03-10T14:22:59.000Z</time>
      </trkpt>
      <trkpt lat="46.3336" lon="5.29437">
        <ele>241.39999389648</ele>
        <time>2021-03-10T14:23:01.000Z</time>
      </trkpt>
      <trkpt lat="46.33355" lon="5.2946">
        <ele>241.19999694824</ele>
        <time>2021-03-10T14:23:03.000Z</time>
      </trkpt>
      <trkpt lat="46.3335" lon="5.29483">
        <ele>241</ele>
        <time>2021-03-10T14:23:05.000Z</time>
      </trkpt>
      <trkpt lat="46.33348" lon="5.29495">
        <ele>240.80000305176</ele>
        <time>2021-03-10T14:23:06.000Z</time>
      </trkpt>
      <trkpt lat="46.33346" lon="5.29506">
        <ele>240.39999389648</ele>
        <time>2021-03-10T14:23:07.000Z</time>
      </trkpt>
      <trkpt lat="46.33344" lon="5.29518">
        <ele>240.19999694824</ele>
        <time>2021-03-10T14:23:08.000Z</time>
      </trkpt>
      <trkpt lat="46.33342" lon="5.2953">
        <ele>240</ele>
        <time>2021-03-10T14:23:09.000Z</time>
      </trkpt>
      <trkpt lat="46.33339" lon="5.29552">
        <ele>239.80000305176</ele>
        <time>2021-03-10T14:23:11.000Z</time>
      </trkpt>
      <trkpt lat="46.33337" lon="5.29564">
        <ele>239.80000305176</ele>
        <time>2021-03-10T14:23:12.000Z</time>
      </trkpt>
      <trkpt lat="46.33335" lon="5.29575">
        <ele>239.80000305176</ele>
        <time>2021-03-10T14:23:13.000Z</time>
      </trkpt>
      <trkpt lat="46.33331" lon="5.29597">
        <ele>239.60000610352</ele>
        <time>2021-03-10T14:23:15.000Z</time>
      </trkpt>
      <trkpt lat="46.33329" lon="5.29608">
        <ele>239.60000610352</ele>
        <time>2021-03-10T14:23:16.000Z</time>
      </trkpt>
      <trkpt lat="46.33328" lon="5.2962">
        <ele>239.60000610352</ele>
        <time>2021-03-10T14:23:17.000Z</time>
      </trkpt>
      <trkpt lat="46.33324" lon="5.29643">
        <ele>239.60000610352</ele>
        <time>2021-03-10T14:23:19.000Z</time>
      </trkpt>
      <trkpt lat="46.33321" lon="5.29667">
        <ele>239.39999389648</ele>
        <time>2021-03-10T14:23:21.000Z</time>
      </trkpt>
      <trkpt lat="46.33317" lon="5.29693">
        <ele>239.39999389648</ele>
        <time>2021-03-10T14:23:23.000Z</time>
      </trkpt>
      <trkpt lat="46.33315" lon="5.29705">
        <ele>239.39999389648</ele>
        <time>2021-03-10T14:23:24.000Z</time>
      </trkpt>
      <trkpt lat="46.33312" lon="5.29718">
        <ele>239.19999694824</ele>
        <time>2021-03-10T14:23:25.000Z</time>
      </trkpt>
      <trkpt lat="46.33309" lon="5.29744">
        <ele>239.19999694824</ele>
        <time>2021-03-10T14:23:27.000Z</time>
      </trkpt>
      <trkpt lat="46.33305" lon="5.29769">
        <ele>238.39999389648</ele>
        <time>2021-03-10T14:23:29.000Z</time>
      </trkpt>
      <trkpt lat="46.33301" lon="5.29794">
        <ele>237.80000305176</ele>
        <time>2021-03-10T14:23:31.000Z</time>
      </trkpt>
      <trkpt lat="46.33297" lon="5.29818">
        <ele>237.19999694824</ele>
        <time>2021-03-10T14:23:33.000Z</time>
      </trkpt>
      <trkpt lat="46.33293" lon="5.29843">
        <ele>237</ele>
        <time>2021-03-10T14:23:35.000Z</time>
      </trkpt>
      <trkpt lat="46.33289" lon="5.29868">
        <ele>236.80000305176</ele>
        <time>2021-03-10T14:23:37.000Z</time>
      </trkpt>
      <trkpt lat="46.33285" lon="5.29894">
        <ele>236.60000610352</ele>
        <time>2021-03-10T14:23:39.000Z</time>
      </trkpt>
      <trkpt lat="46.3328" lon="5.2992">
        <ele>236.60000610352</ele>
        <time>2021-03-10T14:23:41.000Z</time>
      </trkpt>
      <trkpt lat="46.33276" lon="5.29946">
        <ele>236.39999389648</ele>
        <time>2021-03-10T14:23:43.000Z</time>
      </trkpt>
      <trkpt lat="46.33272" lon="5.29973">
        <ele>236</ele>
        <time>2021-03-10T14:23:45.000Z</time>
      </trkpt>
      <trkpt lat="46.33268" lon="5.29999">
        <ele>235.60000610352</ele>
        <time>2021-03-10T14:23:47.000Z</time>
      </trkpt>
      <trkpt lat="46.33263" lon="5.30025">
        <ele>234.80000305176</ele>
        <time>2021-03-10T14:23:49.000Z</time>
      </trkpt>
      <trkpt lat="46.33259" lon="5.3005">
        <ele>234.19999694824</ele>
        <time>2021-03-10T14:23:51.000Z</time>
      </trkpt>
      <trkpt lat="46.33257" lon="5.30063">
        <ele>234</ele>
        <time>2021-03-10T14:23:52.000Z</time>
      </trkpt>
      <trkpt lat="46.33255" lon="5.30075">
        <ele>233.80000305176</ele>
        <time>2021-03-10T14:23:53.000Z</time>
      </trkpt>
      <trkpt lat="46.33252" lon="5.30099">
        <ele>233.60000610352</ele>
        <time>2021-03-10T14:23:55.000Z</time>
      </trkpt>
      <trkpt lat="46.33248" lon="5.30123">
        <ele>233.60000610352</ele>
        <time>2021-03-10T14:23:57.000Z</time>
      </trkpt>
      <trkpt lat="46.33245" lon="5.30146">
        <ele>233.39999389648</ele>
        <time>2021-03-10T14:23:59.000Z</time>
      </trkpt>
      <trkpt lat="46.33243" lon="5.30157">
        <ele>233.39999389648</ele>
        <time>2021-03-10T14:24:00.000Z</time>
      </trkpt>
      <trkpt lat="46.33241" lon="5.30168">
        <ele>233.39999389648</ele>
        <time>2021-03-10T14:24:01.000Z</time>
      </trkpt>
      <trkpt lat="46.33238" lon="5.30191">
        <ele>233.60000610352</ele>
        <time>2021-03-10T14:24:03.000Z</time>
      </trkpt>
      <trkpt lat="46.33234" lon="5.30214">
        <ele>233.80000305176</ele>
        <time>2021-03-10T14:24:05.000Z</time>
      </trkpt>
      <trkpt lat="46.3323" lon="5.30238">
        <ele>234</ele>
        <time>2021-03-10T14:24:07.000Z</time>
      </trkpt>
      <trkpt lat="46.33227" lon="5.3025">
        <ele>234</ele>
        <time>2021-03-10T14:24:08.000Z</time>
      </trkpt>
      <trkpt lat="46.33225" lon="5.30263">
        <ele>234</ele>
        <time>2021-03-10T14:24:09.000Z</time>
      </trkpt>
      <trkpt lat="46.3322" lon="5.30289">
        <ele>234</ele>
        <time>2021-03-10T14:24:11.000Z</time>
      </trkpt>
      <trkpt lat="46.33215" lon="5.30315">
        <ele>234</ele>
        <time>2021-03-10T14:24:13.000Z</time>
      </trkpt>
      <trkpt lat="46.33212" lon="5.30329">
        <ele>234</ele>
        <time>2021-03-10T14:24:14.000Z</time>
      </trkpt>
      <trkpt lat="46.33209" lon="5.30343">
        <ele>233.80000305176</ele>
        <time>2021-03-10T14:24:15.000Z</time>
      </trkpt>
      <trkpt lat="46.33203" lon="5.30371">
        <ele>233.19999694824</ele>
        <time>2021-03-10T14:24:17.000Z</time>
      </trkpt>
      <trkpt lat="46.332" lon="5.30385">
        <ele>232.39999389648</ele>
        <time>2021-03-10T14:24:18.000Z</time>
      </trkpt>
      <trkpt lat="46.33197" lon="5.30399">
        <ele>231.80000305176</ele>
        <time>2021-03-10T14:24:19.000Z</time>
      </trkpt>
      <trkpt lat="46.33194" lon="5.30414">
        <ele>231.19999694824</ele>
        <time>2021-03-10T14:24:20.000Z</time>
      </trkpt>
      <trkpt lat="46.33191" lon="5.30428">
        <ele>230.80000305176</ele>
        <time>2021-03-10T14:24:21.000Z</time>
      </trkpt>
      <trkpt lat="46.33188" lon="5.30443">
        <ele>230.19999694824</ele>
        <time>2021-03-10T14:24:22.000Z</time>
      </trkpt>
      <trkpt lat="46.33185" lon="5.30458">
        <ele>229.60000610352</ele>
        <time>2021-03-10T14:24:23.000Z</time>
      </trkpt>
      <trkpt lat="46.33179" lon="5.3049">
        <ele>229</ele>
        <time>2021-03-10T14:24:25.000Z</time>
      </trkpt>
      <trkpt lat="46.33175" lon="5.30506">
        <ele>227.39999389648</ele>
        <time>2021-03-10T14:24:26.000Z</time>
      </trkpt>
      <trkpt lat="46.33172" lon="5.30522">
        <ele>227</ele>
        <time>2021-03-10T14:24:27.000Z</time>
      </trkpt>
      <trkpt lat="46.33165" lon="5.30554">
        <ele>226.19999694824</ele>
        <time>2021-03-10T14:24:29.000Z</time>
      </trkpt>
      <trkpt lat="46.33162" lon="5.3057">
        <ele>225.80000305176</ele>
        <time>2021-03-10T14:24:30.000Z</time>
      </trkpt>
      <trkpt lat="46.33159" lon="5.30586">
        <ele>225.39999389648</ele>
        <time>2021-03-10T14:24:31.000Z</time>
      </trkpt>
      <trkpt lat="46.33156" lon="5.30602">
        <ele>225.19999694824</ele>
        <time>2021-03-10T14:24:32.000Z</time>
      </trkpt>
      <trkpt lat="46.33152" lon="5.30618">
        <ele>224.19999694824</ele>
        <time>2021-03-10T14:24:33.000Z</time>
      </trkpt>
      <trkpt lat="46.33149" lon="5.30634">
        <ele>223.60000610352</ele>
        <time>2021-03-10T14:24:34.000Z</time>
      </trkpt>
      <trkpt lat="46.33146" lon="5.30649">
        <ele>222.80000305176</ele>
        <time>2021-03-10T14:24:35.000Z</time>
      </trkpt>
      <trkpt lat="46.33143" lon="5.30663">
        <ele>221.80000305176</ele>
        <time>2021-03-10T14:24:36.000Z</time>
      </trkpt>
      <trkpt lat="46.3314" lon="5.30678">
        <ele>221</ele>
        <time>2021-03-10T14:24:37.000Z</time>
      </trkpt>
      <trkpt lat="46.33138" lon="5.30692">
        <ele>220.19999694824</ele>
        <time>2021-03-10T14:24:38.000Z</time>
      </trkpt>
      <trkpt lat="46.33135" lon="5.30706">
        <ele>219.19999694824</ele>
        <time>2021-03-10T14:24:39.000Z</time>
      </trkpt>
      <trkpt lat="46.33133" lon="5.30719">
        <ele>218.39999389648</ele>
        <time>2021-03-10T14:24:40.000Z</time>
      </trkpt>
      <trkpt lat="46.3313" lon="5.30732">
        <ele>218</ele>
        <time>2021-03-10T14:24:41.000Z</time>
      </trkpt>
      <trkpt lat="46.33125" lon="5.30758">
        <ele>217.60000610352</ele>
        <time>2021-03-10T14:24:43.000Z</time>
      </trkpt>
      <trkpt lat="46.33123" lon="5.3077">
        <ele>217.39999389648</ele>
        <time>2021-03-10T14:24:44.000Z</time>
      </trkpt>
      <trkpt lat="46.3312" lon="5.30782">
        <ele>217.39999389648</ele>
        <time>2021-03-10T14:24:45.000Z</time>
      </trkpt>
      <trkpt lat="46.33116" lon="5.30806">
        <ele>217.39999389648</ele>
        <time>2021-03-10T14:24:47.000Z</time>
      </trkpt>
      <trkpt lat="46.33112" lon="5.30829">
        <ele>217.39999389648</ele>
        <time>2021-03-10T14:24:49.000Z</time>
      </trkpt>
      <trkpt lat="46.33107" lon="5.30852">
        <ele>217.60000610352</ele>
        <time>2021-03-10T14:24:51.000Z</time>
      </trkpt>
      <trkpt lat="46.33103" lon="5.30875">
        <ele>217.80000305176</ele>
        <time>2021-03-10T14:24:53.000Z</time>
      </trkpt>
      <trkpt lat="46.33099" lon="5.30897">
        <ele>218</ele>
        <time>2021-03-10T14:24:55.000Z</time>
      </trkpt>
      <trkpt lat="46.33095" lon="5.30919">
        <ele>218.19999694824</ele>
        <time>2021-03-10T14:24:57.000Z</time>
      </trkpt>
      <trkpt lat="46.33091" lon="5.30941">
        <ele>218.19999694824</ele>
        <time>2021-03-10T14:24:59.000Z</time>
      </trkpt>
      <trkpt lat="46.33086" lon="5.30964">
        <ele>218.19999694824</ele>
        <time>2021-03-10T14:25:01.000Z</time>
      </trkpt>
      <trkpt lat="46.33082" lon="5.30986">
        <ele>218.19999694824</ele>
        <time>2021-03-10T14:25:03.000Z</time>
      </trkpt>
      <trkpt lat="46.33077" lon="5.31009">
        <ele>218.19999694824</ele>
        <time>2021-03-10T14:25:05.000Z</time>
      </trkpt>
      <trkpt lat="46.33073" lon="5.31031">
        <ele>218.19999694824</ele>
        <time>2021-03-10T14:25:07.000Z</time>
      </trkpt>
      <trkpt lat="46.33071" lon="5.31043">
        <ele>218</ele>
        <time>2021-03-10T14:25:08.000Z</time>
      </trkpt>
      <trkpt lat="46.33069" lon="5.31054">
        <ele>217.80000305176</ele>
        <time>2021-03-10T14:25:09.000Z</time>
      </trkpt>
      <trkpt lat="46.33064" lon="5.31077">
        <ele>217.60000610352</ele>
        <time>2021-03-10T14:25:11.000Z</time>
      </trkpt>
      <trkpt lat="46.33059" lon="5.311">
        <ele>217.39999389648</ele>
        <time>2021-03-10T14:25:13.000Z</time>
      </trkpt>
      <trkpt lat="46.33055" lon="5.31121">
        <ele>217</ele>
        <time>2021-03-10T14:25:15.000Z</time>
      </trkpt>
      <trkpt lat="46.33053" lon="5.31131">
        <ele>216.80000305176</ele>
        <time>2021-03-10T14:25:16.000Z</time>
      </trkpt>
      <trkpt lat="46.3305" lon="5.31141">
        <ele>216.60000610352</ele>
        <time>2021-03-10T14:25:17.000Z</time>
      </trkpt>
      <trkpt lat="46.33045" lon="5.31164">
        <ele>216.39999389648</ele>
        <time>2021-03-10T14:25:19.000Z</time>
      </trkpt>
      <trkpt lat="46.3304" lon="5.31187">
        <ele>216</ele>
        <time>2021-03-10T14:25:21.000Z</time>
      </trkpt>
      <trkpt lat="46.33035" lon="5.31211">
        <ele>215.80000305176</ele>
        <time>2021-03-10T14:25:23.000Z</time>
      </trkpt>
      <trkpt lat="46.33031" lon="5.31234">
        <ele>215.80000305176</ele>
        <time>2021-03-10T14:25:25.000Z</time>
      </trkpt>
      <trkpt lat="46.33026" lon="5.31257">
        <ele>215.60000610352</ele>
        <time>2021-03-10T14:25:27.000Z</time>
      </trkpt>
      <trkpt lat="46.33024" lon="5.31268">
        <ele>215</ele>
        <time>2021-03-10T14:25:28.000Z</time>
      </trkpt>
      <trkpt lat="46.33022" lon="5.31278">
        <ele>214.39999389648</ele>
        <time>2021-03-10T14:25:29.000Z</time>
      </trkpt>
      <trkpt lat="46.33018" lon="5.31299">
        <ele>214</ele>
        <time>2021-03-10T14:25:31.000Z</time>
      </trkpt>
      <trkpt lat="46.33012" lon="5.31317">
        <ele>213.80000305176</ele>
        <time>2021-03-10T14:25:33.000Z</time>
      </trkpt>
      <trkpt lat="46.33008" lon="5.31325">
        <ele>213.80000305176</ele>
        <time>2021-03-10T14:25:34.000Z</time>
      </trkpt>
      <trkpt lat="46.33003" lon="5.31332">
        <ele>213.80000305176</ele>
        <time>2021-03-10T14:25:35.000Z</time>
      </trkpt>
      <trkpt lat="46.32993" lon="5.31344">
        <ele>213.80000305176</ele>
        <time>2021-03-10T14:25:37.000Z</time>
      </trkpt>
      <trkpt lat="46.32983" lon="5.31355">
        <ele>213.80000305176</ele>
        <time>2021-03-10T14:25:39.000Z</time>
      </trkpt>
      <trkpt lat="46.32978" lon="5.31362">
        <ele>213.80000305176</ele>
        <time>2021-03-10T14:25:40.000Z</time>
      </trkpt>
      <trkpt lat="46.32975" lon="5.31369">
        <ele>213.80000305176</ele>
        <time>2021-03-10T14:25:41.000Z</time>
      </trkpt>
      <trkpt lat="46.32974" lon="5.31388">
        <ele>214</ele>
        <time>2021-03-10T14:25:43.000Z</time>
      </trkpt>
      <trkpt lat="46.32981" lon="5.31405">
        <ele>214.19999694824</ele>
        <time>2021-03-10T14:25:45.000Z</time>
      </trkpt>
      <trkpt lat="46.32986" lon="5.31412">
        <ele>214.39999389648</ele>
        <time>2021-03-10T14:25:46.000Z</time>
      </trkpt>
      <trkpt lat="46.32989" lon="5.31421">
        <ele>214.60000610352</ele>
        <time>2021-03-10T14:25:47.000Z</time>
      </trkpt>
      <trkpt lat="46.32994" lon="5.3144">
        <ele>215.19999694824</ele>
        <time>2021-03-10T14:25:49.000Z</time>
      </trkpt>
      <trkpt lat="46.32998" lon="5.3146">
        <ele>215.19999694824</ele>
        <time>2021-03-10T14:25:51.000Z</time>
      </trkpt>
      <trkpt lat="46.33" lon="5.31471">
        <ele>215.19999694824</ele>
        <time>2021-03-10T14:25:52.000Z</time>
      </trkpt>
      <trkpt lat="46.33" lon="5.31481">
        <ele>215.19999694824</ele>
        <time>2021-03-10T14:25:53.000Z</time>
      </trkpt>
      <trkpt lat="46.33001" lon="5.31502">
        <ele>215.19999694824</ele>
        <time>2021-03-10T14:25:55.000Z</time>
      </trkpt>
      <trkpt lat="46.33002" lon="5.31523">
        <ele>215</ele>
        <time>2021-03-10T14:25:57.000Z</time>
      </trkpt>
      <trkpt lat="46.33003" lon="5.31544">
        <ele>214.80000305176</ele>
        <time>2021-03-10T14:25:59.000Z</time>
      </trkpt>
      <trkpt lat="46.33006" lon="5.31564">
        <ele>214.60000610352</ele>
        <time>2021-03-10T14:26:01.000Z</time>
      </trkpt>
      <trkpt lat="46.33009" lon="5.31574">
        <ele>214.60000610352</ele>
        <time>2021-03-10T14:26:02.000Z</time>
      </trkpt>
      <trkpt lat="46.33011" lon="5.31583">
        <ele>214.60000610352</ele>
        <time>2021-03-10T14:26:03.000Z</time>
      </trkpt>
      <trkpt lat="46.33017" lon="5.31602">
        <ele>214.60000610352</ele>
        <time>2021-03-10T14:26:05.000Z</time>
      </trkpt>
      <trkpt lat="46.33024" lon="5.3162">
        <ele>214.60000610352</ele>
        <time>2021-03-10T14:26:07.000Z</time>
      </trkpt>
      <trkpt lat="46.33028" lon="5.3163">
        <ele>214.60000610352</ele>
        <time>2021-03-10T14:26:08.000Z</time>
      </trkpt>
      <trkpt lat="46.33031" lon="5.31639">
        <ele>214.60000610352</ele>
        <time>2021-03-10T14:26:09.000Z</time>
      </trkpt>
      <trkpt lat="46.33038" lon="5.31658">
        <ele>214.60000610352</ele>
        <time>2021-03-10T14:26:11.000Z</time>
      </trkpt>
      <trkpt lat="46.33045" lon="5.31678">
        <ele>214.60000610352</ele>
        <time>2021-03-10T14:26:13.000Z</time>
      </trkpt>
      <trkpt lat="46.33051" lon="5.31697">
        <ele>214.80000305176</ele>
        <time>2021-03-10T14:26:15.000Z</time>
      </trkpt>
      <trkpt lat="46.33057" lon="5.31717">
        <ele>214.80000305176</ele>
        <time>2021-03-10T14:26:17.000Z</time>
      </trkpt>
      <trkpt lat="46.33059" lon="5.31727">
        <ele>214.80000305176</ele>
        <time>2021-03-10T14:26:18.000Z</time>
      </trkpt>
      <trkpt lat="46.33062" lon="5.31737">
        <ele>214.80000305176</ele>
        <time>2021-03-10T14:26:19.000Z</time>
      </trkpt>
      <trkpt lat="46.33067" lon="5.31758">
        <ele>214.80000305176</ele>
        <time>2021-03-10T14:26:21.000Z</time>
      </trkpt>
      <trkpt lat="46.33072" lon="5.31778">
        <ele>214.60000610352</ele>
        <time>2021-03-10T14:26:23.000Z</time>
      </trkpt>
      <trkpt lat="46.33077" lon="5.31797">
        <ele>214.60000610352</ele>
        <time>2021-03-10T14:26:25.000Z</time>
      </trkpt>
      <trkpt lat="46.33082" lon="5.31817">
        <ele>214.60000610352</ele>
        <time>2021-03-10T14:26:27.000Z</time>
      </trkpt>
      <trkpt lat="46.33087" lon="5.31837">
        <ele>214.60000610352</ele>
        <time>2021-03-10T14:26:29.000Z</time>
      </trkpt>
      <trkpt lat="46.33091" lon="5.31856">
        <ele>214.60000610352</ele>
        <time>2021-03-10T14:26:31.000Z</time>
      </trkpt>
      <trkpt lat="46.33096" lon="5.31876">
        <ele>214.60000610352</ele>
        <time>2021-03-10T14:26:33.000Z</time>
      </trkpt>
      <trkpt lat="46.33101" lon="5.31895">
        <ele>214.60000610352</ele>
        <time>2021-03-10T14:26:35.000Z</time>
      </trkpt>
      <trkpt lat="46.33106" lon="5.31914">
        <ele>214.60000610352</ele>
        <time>2021-03-10T14:26:37.000Z</time>
      </trkpt>
      <trkpt lat="46.33111" lon="5.31934">
        <ele>214.60000610352</ele>
        <time>2021-03-10T14:26:39.000Z</time>
      </trkpt>
      <trkpt lat="46.33115" lon="5.31953">
        <ele>214.60000610352</ele>
        <time>2021-03-10T14:26:41.000Z</time>
      </trkpt>
      <trkpt lat="46.3312" lon="5.31973">
        <ele>214.80000305176</ele>
        <time>2021-03-10T14:26:43.000Z</time>
      </trkpt>
      <trkpt lat="46.33125" lon="5.31992">
        <ele>214.80000305176</ele>
        <time>2021-03-10T14:26:45.000Z</time>
      </trkpt>
      <trkpt lat="46.3313" lon="5.32012">
        <ele>214.80000305176</ele>
        <time>2021-03-10T14:26:47.000Z</time>
      </trkpt>
      <trkpt lat="46.33134" lon="5.32031">
        <ele>214.80000305176</ele>
        <time>2021-03-10T14:26:49.000Z</time>
      </trkpt>
      <trkpt lat="46.33139" lon="5.32051">
        <ele>214.80000305176</ele>
        <time>2021-03-10T14:26:51.000Z</time>
      </trkpt>
      <trkpt lat="46.33142" lon="5.32061">
        <ele>214.80000305176</ele>
        <time>2021-03-10T14:26:52.000Z</time>
      </trkpt>
      <trkpt lat="46.33144" lon="5.3207">
        <ele>214.80000305176</ele>
        <time>2021-03-10T14:26:53.000Z</time>
      </trkpt>
      <trkpt lat="46.33149" lon="5.3209">
        <ele>214.80000305176</ele>
        <time>2021-03-10T14:26:55.000Z</time>
      </trkpt>
      <trkpt lat="46.33154" lon="5.32109">
        <ele>215</ele>
        <time>2021-03-10T14:26:57.000Z</time>
      </trkpt>
      <trkpt lat="46.33159" lon="5.32129">
        <ele>215</ele>
        <time>2021-03-10T14:26:59.000Z</time>
      </trkpt>
      <trkpt lat="46.33164" lon="5.32148">
        <ele>215.19999694824</ele>
        <time>2021-03-10T14:27:01.000Z</time>
      </trkpt>
      <trkpt lat="46.33169" lon="5.32167">
        <ele>215.19999694824</ele>
        <time>2021-03-10T14:27:03.000Z</time>
      </trkpt>
      <trkpt lat="46.33172" lon="5.32176">
        <ele>215.39999389648</ele>
        <time>2021-03-10T14:27:04.000Z</time>
      </trkpt>
      <trkpt lat="46.33174" lon="5.32185">
        <ele>215.39999389648</ele>
        <time>2021-03-10T14:27:05.000Z</time>
      </trkpt>
      <trkpt lat="46.3318" lon="5.32204">
        <ele>215.39999389648</ele>
        <time>2021-03-10T14:27:07.000Z</time>
      </trkpt>
      <trkpt lat="46.33186" lon="5.32221">
        <ele>215.60000610352</ele>
        <time>2021-03-10T14:27:09.000Z</time>
      </trkpt>
      <trkpt lat="46.33194" lon="5.32239">
        <ele>215.60000610352</ele>
        <time>2021-03-10T14:27:11.000Z</time>
      </trkpt>
      <trkpt lat="46.33202" lon="5.32256">
        <ele>215.60000610352</ele>
        <time>2021-03-10T14:27:13.000Z</time>
      </trkpt>
      <trkpt lat="46.3321" lon="5.32272">
        <ele>215.80000305176</ele>
        <time>2021-03-10T14:27:15.000Z</time>
      </trkpt>
      <trkpt lat="46.33219" lon="5.32289">
        <ele>215.80000305176</ele>
        <time>2021-03-10T14:27:17.000Z</time>
      </trkpt>
      <trkpt lat="46.33228" lon="5.32305">
        <ele>216</ele>
        <time>2021-03-10T14:27:19.000Z</time>
      </trkpt>
      <trkpt lat="46.33232" lon="5.32313">
        <ele>216</ele>
        <time>2021-03-10T14:27:20.000Z</time>
      </trkpt>
      <trkpt lat="46.33236" lon="5.32321">
        <ele>216</ele>
        <time>2021-03-10T14:27:21.000Z</time>
      </trkpt>
      <trkpt lat="46.33245" lon="5.32337">
        <ele>216.19999694824</ele>
        <time>2021-03-10T14:27:23.000Z</time>
      </trkpt>
      <trkpt lat="46.33253" lon="5.32353">
        <ele>216.39999389648</ele>
        <time>2021-03-10T14:27:25.000Z</time>
      </trkpt>
      <trkpt lat="46.33262" lon="5.32369">
        <ele>216.60000610352</ele>
        <time>2021-03-10T14:27:27.000Z</time>
      </trkpt>
      <trkpt lat="46.3327" lon="5.32385">
        <ele>216.80000305176</ele>
        <time>2021-03-10T14:27:29.000Z</time>
      </trkpt>
      <trkpt lat="46.33275" lon="5.32393">
        <ele>217</ele>
        <time>2021-03-10T14:27:30.000Z</time>
      </trkpt>
      <trkpt lat="46.33279" lon="5.32402">
        <ele>217</ele>
        <time>2021-03-10T14:27:31.000Z</time>
      </trkpt>
      <trkpt lat="46.33287" lon="5.32418">
        <ele>217.19999694824</ele>
        <time>2021-03-10T14:27:33.000Z</time>
      </trkpt>
      <trkpt lat="46.33296" lon="5.32434">
        <ele>217.19999694824</ele>
        <time>2021-03-10T14:27:35.000Z</time>
      </trkpt>
      <trkpt lat="46.33305" lon="5.3245">
        <ele>217.19999694824</ele>
        <time>2021-03-10T14:27:37.000Z</time>
      </trkpt>
      <trkpt lat="46.33313" lon="5.32466">
        <ele>217.39999389648</ele>
        <time>2021-03-10T14:27:39.000Z</time>
      </trkpt>
      <trkpt lat="46.33321" lon="5.32483">
        <ele>217.39999389648</ele>
        <time>2021-03-10T14:27:41.000Z</time>
      </trkpt>
      <trkpt lat="46.3333" lon="5.32499">
        <ele>217.60000610352</ele>
        <time>2021-03-10T14:27:43.000Z</time>
      </trkpt>
      <trkpt lat="46.33338" lon="5.32514">
        <ele>217.60000610352</ele>
        <time>2021-03-10T14:27:45.000Z</time>
      </trkpt>
      <trkpt lat="46.33347" lon="5.32529">
        <ele>217.60000610352</ele>
        <time>2021-03-10T14:27:47.000Z</time>
      </trkpt>
      <trkpt lat="46.33354" lon="5.32545">
        <ele>217.80000305176</ele>
        <time>2021-03-10T14:27:49.000Z</time>
      </trkpt>
      <trkpt lat="46.33362" lon="5.3256">
        <ele>218</ele>
        <time>2021-03-10T14:27:51.000Z</time>
      </trkpt>
      <trkpt lat="46.3337" lon="5.32575">
        <ele>218.39999389648</ele>
        <time>2021-03-10T14:27:53.000Z</time>
      </trkpt>
      <trkpt lat="46.33378" lon="5.32589">
        <ele>218.80000305176</ele>
        <time>2021-03-10T14:27:55.000Z</time>
      </trkpt>
      <trkpt lat="46.33386" lon="5.32604">
        <ele>219.19999694824</ele>
        <time>2021-03-10T14:27:57.000Z</time>
      </trkpt>
      <trkpt lat="46.33395" lon="5.3262">
        <ele>219.39999389648</ele>
        <time>2021-03-10T14:27:59.000Z</time>
      </trkpt>
      <trkpt lat="46.33404" lon="5.32636">
        <ele>219.60000610352</ele>
        <time>2021-03-10T14:28:01.000Z</time>
      </trkpt>
      <trkpt lat="46.33414" lon="5.32651">
        <ele>219.60000610352</ele>
        <time>2021-03-10T14:28:03.000Z</time>
      </trkpt>
      <trkpt lat="46.33423" lon="5.32666">
        <ele>219.60000610352</ele>
        <time>2021-03-10T14:28:05.000Z</time>
      </trkpt>
      <trkpt lat="46.33434" lon="5.3268">
        <ele>219.60000610352</ele>
        <time>2021-03-10T14:28:07.000Z</time>
      </trkpt>
      <trkpt lat="46.33439" lon="5.32687">
        <ele>219.60000610352</ele>
        <time>2021-03-10T14:28:08.000Z</time>
      </trkpt>
      <trkpt lat="46.33445" lon="5.32693">
        <ele>219.80000305176</ele>
        <time>2021-03-10T14:28:09.000Z</time>
      </trkpt>
      <trkpt lat="46.33456" lon="5.32704">
        <ele>219.80000305176</ele>
        <time>2021-03-10T14:28:11.000Z</time>
      </trkpt>
      <trkpt lat="46.33468" lon="5.32714">
        <ele>219.80000305176</ele>
        <time>2021-03-10T14:28:13.000Z</time>
      </trkpt>
      <trkpt lat="46.33474" lon="5.32719">
        <ele>219.80000305176</ele>
        <time>2021-03-10T14:28:14.000Z</time>
      </trkpt>
      <trkpt lat="46.33479" lon="5.32723">
        <ele>219.80000305176</ele>
        <time>2021-03-10T14:28:15.000Z</time>
      </trkpt>
      <trkpt lat="46.33491" lon="5.32732">
        <ele>219.80000305176</ele>
        <time>2021-03-10T14:28:17.000Z</time>
      </trkpt>
      <trkpt lat="46.33503" lon="5.3274">
        <ele>220</ele>
        <time>2021-03-10T14:28:19.000Z</time>
      </trkpt>
      <trkpt lat="46.33514" lon="5.32748">
        <ele>220.19999694824</ele>
        <time>2021-03-10T14:28:21.000Z</time>
      </trkpt>
      <trkpt lat="46.33526" lon="5.32756">
        <ele>220.39999389648</ele>
        <time>2021-03-10T14:28:23.000Z</time>
      </trkpt>
      <trkpt lat="46.33532" lon="5.3276">
        <ele>220.39999389648</ele>
        <time>2021-03-10T14:28:24.000Z</time>
      </trkpt>
      <trkpt lat="46.33539" lon="5.32764">
        <ele>220.39999389648</ele>
        <time>2021-03-10T14:28:25.000Z</time>
      </trkpt>
      <trkpt lat="46.33551" lon="5.32772">
        <ele>220.60000610352</ele>
        <time>2021-03-10T14:28:27.000Z</time>
      </trkpt>
      <trkpt lat="46.33564" lon="5.3278">
        <ele>220.60000610352</ele>
        <time>2021-03-10T14:28:29.000Z</time>
      </trkpt>
      <trkpt lat="46.33577" lon="5.32787">
        <ele>220.60000610352</ele>
        <time>2021-03-10T14:28:31.000Z</time>
      </trkpt>
      <trkpt lat="46.33591" lon="5.32795">
        <ele>220.60000610352</ele>
        <time>2021-03-10T14:28:33.000Z</time>
      </trkpt>
      <trkpt lat="46.33597" lon="5.32799">
        <ele>220.60000610352</ele>
        <time>2021-03-10T14:28:34.000Z</time>
      </trkpt>
      <trkpt lat="46.33604" lon="5.32803">
        <ele>220.60000610352</ele>
        <time>2021-03-10T14:28:35.000Z</time>
      </trkpt>
      <trkpt lat="46.33618" lon="5.32813">
        <ele>220.60000610352</ele>
        <time>2021-03-10T14:28:37.000Z</time>
      </trkpt>
      <trkpt lat="46.33625" lon="5.32819">
        <ele>220.39999389648</ele>
        <time>2021-03-10T14:28:38.000Z</time>
      </trkpt>
      <trkpt lat="46.3363" lon="5.32826">
        <ele>220.19999694824</ele>
        <time>2021-03-10T14:28:39.000Z</time>
      </trkpt>
      <trkpt lat="46.33636" lon="5.32834">
        <ele>220</ele>
        <time>2021-03-10T14:28:40.000Z</time>
      </trkpt>
      <trkpt lat="46.3364" lon="5.32842">
        <ele>220</ele>
        <time>2021-03-10T14:28:41.000Z</time>
      </trkpt>
      <trkpt lat="46.33649" lon="5.3286">
        <ele>219.80000305176</ele>
        <time>2021-03-10T14:28:43.000Z</time>
      </trkpt>
      <trkpt lat="46.33656" lon="5.32879">
        <ele>219.60000610352</ele>
        <time>2021-03-10T14:28:45.000Z</time>
      </trkpt>
      <trkpt lat="46.33662" lon="5.32898">
        <ele>219.60000610352</ele>
        <time>2021-03-10T14:28:47.000Z</time>
      </trkpt>
      <trkpt lat="46.33667" lon="5.32918">
        <ele>219.60000610352</ele>
        <time>2021-03-10T14:28:49.000Z</time>
      </trkpt>
      <trkpt lat="46.33672" lon="5.32938">
        <ele>219.39999389648</ele>
        <time>2021-03-10T14:28:51.000Z</time>
      </trkpt>
      <trkpt lat="46.33673" lon="5.32948">
        <ele>219.39999389648</ele>
        <time>2021-03-10T14:28:52.000Z</time>
      </trkpt>
      <trkpt lat="46.33674" lon="5.32959">
        <ele>219.39999389648</ele>
        <time>2021-03-10T14:28:53.000Z</time>
      </trkpt>
      <trkpt lat="46.33675" lon="5.32981">
        <ele>219.39999389648</ele>
        <time>2021-03-10T14:28:55.000Z</time>
      </trkpt>
      <trkpt lat="46.33674" lon="5.33003">
        <ele>219.39999389648</ele>
        <time>2021-03-10T14:28:57.000Z</time>
      </trkpt>
      <trkpt lat="46.33674" lon="5.33025">
        <ele>219.39999389648</ele>
        <time>2021-03-10T14:28:59.000Z</time>
      </trkpt>
      <trkpt lat="46.33674" lon="5.33047">
        <ele>219.19999694824</ele>
        <time>2021-03-10T14:29:01.000Z</time>
      </trkpt>
      <trkpt lat="46.33673" lon="5.33069">
        <ele>219</ele>
        <time>2021-03-10T14:29:03.000Z</time>
      </trkpt>
      <trkpt lat="46.33673" lon="5.3309">
        <ele>218.80000305176</ele>
        <time>2021-03-10T14:29:05.000Z</time>
      </trkpt>
      <trkpt lat="46.33672" lon="5.33111">
        <ele>218.39999389648</ele>
        <time>2021-03-10T14:29:07.000Z</time>
      </trkpt>
      <trkpt lat="46.33672" lon="5.33132">
        <ele>218.39999389648</ele>
        <time>2021-03-10T14:29:09.000Z</time>
      </trkpt>
      <trkpt lat="46.33673" lon="5.33154">
        <ele>218.39999389648</ele>
        <time>2021-03-10T14:29:11.000Z</time>
      </trkpt>
      <trkpt lat="46.33675" lon="5.33175">
        <ele>218.19999694824</ele>
        <time>2021-03-10T14:29:13.000Z</time>
      </trkpt>
      <trkpt lat="46.33679" lon="5.33196">
        <ele>218.19999694824</ele>
        <time>2021-03-10T14:29:15.000Z</time>
      </trkpt>
      <trkpt lat="46.33684" lon="5.33216">
        <ele>218.19999694824</ele>
        <time>2021-03-10T14:29:17.000Z</time>
      </trkpt>
      <trkpt lat="46.33687" lon="5.33226">
        <ele>218.19999694824</ele>
        <time>2021-03-10T14:29:18.000Z</time>
      </trkpt>
      <trkpt lat="46.33691" lon="5.33236">
        <ele>218.19999694824</ele>
        <time>2021-03-10T14:29:19.000Z</time>
      </trkpt>
      <trkpt lat="46.33699" lon="5.33255">
        <ele>218.19999694824</ele>
        <time>2021-03-10T14:29:21.000Z</time>
      </trkpt>
      <trkpt lat="46.33706" lon="5.33274">
        <ele>218.19999694824</ele>
        <time>2021-03-10T14:29:23.000Z</time>
      </trkpt>
      <trkpt lat="46.33714" lon="5.33293">
        <ele>218.19999694824</ele>
        <time>2021-03-10T14:29:25.000Z</time>
      </trkpt>
      <trkpt lat="46.33718" lon="5.33303">
        <ele>218.19999694824</ele>
        <time>2021-03-10T14:29:26.000Z</time>
      </trkpt>
      <trkpt lat="46.33722" lon="5.33312">
        <ele>218.19999694824</ele>
        <time>2021-03-10T14:29:27.000Z</time>
      </trkpt>
      <trkpt lat="46.33729" lon="5.33331">
        <ele>218.19999694824</ele>
        <time>2021-03-10T14:29:29.000Z</time>
      </trkpt>
      <trkpt lat="46.33737" lon="5.3335">
        <ele>218.19999694824</ele>
        <time>2021-03-10T14:29:31.000Z</time>
      </trkpt>
      <trkpt lat="46.33744" lon="5.33368">
        <ele>218.19999694824</ele>
        <time>2021-03-10T14:29:33.000Z</time>
      </trkpt>
      <trkpt lat="46.33752" lon="5.33387">
        <ele>218.19999694824</ele>
        <time>2021-03-10T14:29:35.000Z</time>
      </trkpt>
      <trkpt lat="46.33755" lon="5.33396">
        <ele>218.19999694824</ele>
        <time>2021-03-10T14:29:36.000Z</time>
      </trkpt>
      <trkpt lat="46.33759" lon="5.33405">
        <ele>218.19999694824</ele>
        <time>2021-03-10T14:29:37.000Z</time>
      </trkpt>
      <trkpt lat="46.33766" lon="5.33424">
        <ele>218.39999389648</ele>
        <time>2021-03-10T14:29:39.000Z</time>
      </trkpt>
      <trkpt lat="46.33772" lon="5.33442">
        <ele>218.39999389648</ele>
        <time>2021-03-10T14:29:41.000Z</time>
      </trkpt>
      <trkpt lat="46.33777" lon="5.33463">
        <ele>218.80000305176</ele>
        <time>2021-03-10T14:29:43.000Z</time>
      </trkpt>
      <trkpt lat="46.33779" lon="5.33483">
        <ele>219</ele>
        <time>2021-03-10T14:29:45.000Z</time>
      </trkpt>
      <trkpt lat="46.3378" lon="5.33504">
        <ele>219.19999694824</ele>
        <time>2021-03-10T14:29:47.000Z</time>
      </trkpt>
      <trkpt lat="46.3378" lon="5.33515">
        <ele>219.19999694824</ele>
        <time>2021-03-10T14:29:48.000Z</time>
      </trkpt>
      <trkpt lat="46.3378" lon="5.33525">
        <ele>219.19999694824</ele>
        <time>2021-03-10T14:29:49.000Z</time>
      </trkpt>
      <trkpt lat="46.3378" lon="5.33546">
        <ele>219.39999389648</ele>
        <time>2021-03-10T14:29:51.000Z</time>
      </trkpt>
      <trkpt lat="46.3378" lon="5.33566">
        <ele>219.39999389648</ele>
        <time>2021-03-10T14:29:53.000Z</time>
      </trkpt>
      <trkpt lat="46.33779" lon="5.33586">
        <ele>219.39999389648</ele>
        <time>2021-03-10T14:29:55.000Z</time>
      </trkpt>
      <trkpt lat="46.33779" lon="5.33605">
        <ele>219.60000610352</ele>
        <time>2021-03-10T14:29:57.000Z</time>
      </trkpt>
      <trkpt lat="46.33778" lon="5.33615">
        <ele>219.60000610352</ele>
        <time>2021-03-10T14:29:58.000Z</time>
      </trkpt>
      <trkpt lat="46.33778" lon="5.33625">
        <ele>219.60000610352</ele>
        <time>2021-03-10T14:29:59.000Z</time>
      </trkpt>
      <trkpt lat="46.33778" lon="5.33634">
        <ele>219.80000305176</ele>
        <time>2021-03-10T14:30:00.000Z</time>
      </trkpt>
      <trkpt lat="46.33778" lon="5.33643">
        <ele>219.80000305176</ele>
        <time>2021-03-10T14:30:01.000Z</time>
      </trkpt>
      <trkpt lat="46.33778" lon="5.33661">
        <ele>220</ele>
        <time>2021-03-10T14:30:03.000Z</time>
      </trkpt>
      <trkpt lat="46.33778" lon="5.33679">
        <ele>220</ele>
        <time>2021-03-10T14:30:05.000Z</time>
      </trkpt>
      <trkpt lat="46.33777" lon="5.33696">
        <ele>220</ele>
        <time>2021-03-10T14:30:07.000Z</time>
      </trkpt>
      <trkpt lat="46.33776" lon="5.33711">
        <ele>220.19999694824</ele>
        <time>2021-03-10T14:30:09.000Z</time>
      </trkpt>
      <trkpt lat="46.33776" lon="5.33726">
        <ele>220.60000610352</ele>
        <time>2021-03-10T14:30:11.000Z</time>
      </trkpt>
      <trkpt lat="46.33775" lon="5.33739">
        <ele>221</ele>
        <time>2021-03-10T14:30:13.000Z</time>
      </trkpt>
      <trkpt lat="46.33774" lon="5.33746">
        <ele>221.19999694824</ele>
        <time>2021-03-10T14:30:14.000Z</time>
      </trkpt>
      <trkpt lat="46.33774" lon="5.33752">
        <ele>221.60000610352</ele>
        <time>2021-03-10T14:30:15.000Z</time>
      </trkpt>
      <trkpt lat="46.33773" lon="5.33765">
        <ele>222.19999694824</ele>
        <time>2021-03-10T14:30:17.000Z</time>
      </trkpt>
      <trkpt lat="46.33771" lon="5.33778">
        <ele>222.60000610352</ele>
        <time>2021-03-10T14:30:19.000Z</time>
      </trkpt>
      <trkpt lat="46.3377" lon="5.3379">
        <ele>223</ele>
        <time>2021-03-10T14:30:21.000Z</time>
      </trkpt>
      <trkpt lat="46.33769" lon="5.33796">
        <ele>223.39999389648</ele>
        <time>2021-03-10T14:30:22.000Z</time>
      </trkpt>
      <trkpt lat="46.33768" lon="5.33802">
        <ele>223.60000610352</ele>
        <time>2021-03-10T14:30:23.000Z</time>
      </trkpt>
      <trkpt lat="46.33767" lon="5.33814">
        <ele>224.19999694824</ele>
        <time>2021-03-10T14:30:25.000Z</time>
      </trkpt>
      <trkpt lat="46.33765" lon="5.33826">
        <ele>224.80000305176</ele>
        <time>2021-03-10T14:30:27.000Z</time>
      </trkpt>
      <trkpt lat="46.33764" lon="5.33837">
        <ele>225.19999694824</ele>
        <time>2021-03-10T14:30:29.000Z</time>
      </trkpt>
      <trkpt lat="46.33762" lon="5.33848">
        <ele>226.19999694824</ele>
        <time>2021-03-10T14:30:31.000Z</time>
      </trkpt>
      <trkpt lat="46.33762" lon="5.33853">
        <ele>226.60000610352</ele>
        <time>2021-03-10T14:30:32.000Z</time>
      </trkpt>
      <trkpt lat="46.33761" lon="5.33859">
        <ele>227</ele>
        <time>2021-03-10T14:30:33.000Z</time>
      </trkpt>
      <trkpt lat="46.33759" lon="5.3387">
        <ele>227.39999389648</ele>
        <time>2021-03-10T14:30:35.000Z</time>
      </trkpt>
      <trkpt lat="46.33758" lon="5.33881">
        <ele>227.60000610352</ele>
        <time>2021-03-10T14:30:37.000Z</time>
      </trkpt>
      <trkpt lat="46.33758" lon="5.33893">
        <ele>228.39999389648</ele>
        <time>2021-03-10T14:30:39.000Z</time>
      </trkpt>
      <trkpt lat="46.33757" lon="5.33898">
        <ele>228.80000305176</ele>
        <time>2021-03-10T14:30:40.000Z</time>
      </trkpt>
      <trkpt lat="46.33757" lon="5.33904">
        <ele>229</ele>
        <time>2021-03-10T14:30:41.000Z</time>
      </trkpt>
      <trkpt lat="46.33758" lon="5.33915">
        <ele>229.39999389648</ele>
        <time>2021-03-10T14:30:43.000Z</time>
      </trkpt>
      <trkpt lat="46.33758" lon="5.33921">
        <ele>229.80000305176</ele>
        <time>2021-03-10T14:30:44.000Z</time>
      </trkpt>
      <trkpt lat="46.33758" lon="5.33926">
        <ele>230</ele>
        <time>2021-03-10T14:30:45.000Z</time>
      </trkpt>
      <trkpt lat="46.33759" lon="5.33937">
        <ele>230.39999389648</ele>
        <time>2021-03-10T14:30:47.000Z</time>
      </trkpt>
      <trkpt lat="46.3376" lon="5.33949">
        <ele>230.80000305176</ele>
        <time>2021-03-10T14:30:49.000Z</time>
      </trkpt>
      <trkpt lat="46.3376" lon="5.33954">
        <ele>231</ele>
        <time>2021-03-10T14:30:50.000Z</time>
      </trkpt>
      <trkpt lat="46.33761" lon="5.3396">
        <ele>231.39999389648</ele>
        <time>2021-03-10T14:30:51.000Z</time>
      </trkpt>
      <trkpt lat="46.33762" lon="5.3397">
        <ele>232</ele>
        <time>2021-03-10T14:30:53.000Z</time>
      </trkpt>
      <trkpt lat="46.33762" lon="5.33976">
        <ele>232.39999389648</ele>
        <time>2021-03-10T14:30:54.000Z</time>
      </trkpt>
      <trkpt lat="46.33763" lon="5.33981">
        <ele>232.60000610352</ele>
        <time>2021-03-10T14:30:55.000Z</time>
      </trkpt>
      <trkpt lat="46.33764" lon="5.33991">
        <ele>233.39999389648</ele>
        <time>2021-03-10T14:30:57.000Z</time>
      </trkpt>
      <trkpt lat="46.33765" lon="5.33997">
        <ele>233.60000610352</ele>
        <time>2021-03-10T14:30:58.000Z</time>
      </trkpt>
      <trkpt lat="46.33765" lon="5.34002">
        <ele>234.19999694824</ele>
        <time>2021-03-10T14:30:59.000Z</time>
      </trkpt>
      <trkpt lat="46.33767" lon="5.34012">
        <ele>234.60000610352</ele>
        <time>2021-03-10T14:31:01.000Z</time>
      </trkpt>
      <trkpt lat="46.33768" lon="5.34022">
        <ele>235.19999694824</ele>
        <time>2021-03-10T14:31:03.000Z</time>
      </trkpt>
      <trkpt lat="46.33769" lon="5.34033">
        <ele>235.80000305176</ele>
        <time>2021-03-10T14:31:05.000Z</time>
      </trkpt>
      <trkpt lat="46.3377" lon="5.34043">
        <ele>236.39999389648</ele>
        <time>2021-03-10T14:31:07.000Z</time>
      </trkpt>
      <trkpt lat="46.33771" lon="5.34053">
        <ele>237</ele>
        <time>2021-03-10T14:31:09.000Z</time>
      </trkpt>
      <trkpt lat="46.33772" lon="5.34063">
        <ele>237.39999389648</ele>
        <time>2021-03-10T14:31:11.000Z</time>
      </trkpt>
      <trkpt lat="46.33773" lon="5.34074">
        <ele>237.80000305176</ele>
        <time>2021-03-10T14:31:13.000Z</time>
      </trkpt>
      <trkpt lat="46.33774" lon="5.34079">
        <ele>238</ele>
        <time>2021-03-10T14:31:14.000Z</time>
      </trkpt>
      <trkpt lat="46.33775" lon="5.34084">
        <ele>238.19999694824</ele>
        <time>2021-03-10T14:31:15.000Z</time>
      </trkpt>
      <trkpt lat="46.33776" lon="5.34095">
        <ele>238.80000305176</ele>
        <time>2021-03-10T14:31:17.000Z</time>
      </trkpt>
      <trkpt lat="46.33777" lon="5.34105">
        <ele>239.19999694824</ele>
        <time>2021-03-10T14:31:19.000Z</time>
      </trkpt>
      <trkpt lat="46.33778" lon="5.34116">
        <ele>239.39999389648</ele>
        <time>2021-03-10T14:31:21.000Z</time>
      </trkpt>
      <trkpt lat="46.33779" lon="5.34128">
        <ele>239.60000610352</ele>
        <time>2021-03-10T14:31:23.000Z</time>
      </trkpt>
      <trkpt lat="46.3378" lon="5.34139">
        <ele>240.19999694824</ele>
        <time>2021-03-10T14:31:25.000Z</time>
      </trkpt>
      <trkpt lat="46.33781" lon="5.34145">
        <ele>240.19999694824</ele>
        <time>2021-03-10T14:31:26.000Z</time>
      </trkpt>
      <trkpt lat="46.33781" lon="5.34151">
        <ele>240.39999389648</ele>
        <time>2021-03-10T14:31:27.000Z</time>
      </trkpt>
      <trkpt lat="46.33782" lon="5.34163">
        <ele>241</ele>
        <time>2021-03-10T14:31:29.000Z</time>
      </trkpt>
      <trkpt lat="46.33782" lon="5.34177">
        <ele>241.39999389648</ele>
        <time>2021-03-10T14:31:31.000Z</time>
      </trkpt>
      <trkpt lat="46.33782" lon="5.34191">
        <ele>241.60000610352</ele>
        <time>2021-03-10T14:31:33.000Z</time>
      </trkpt>
      <trkpt lat="46.33782" lon="5.34206">
        <ele>241.80000305176</ele>
        <time>2021-03-10T14:31:35.000Z</time>
      </trkpt>
      <trkpt lat="46.33782" lon="5.34214">
        <ele>241.80000305176</ele>
        <time>2021-03-10T14:31:36.000Z</time>
      </trkpt>
      <trkpt lat="46.33781" lon="5.34222">
        <ele>241.80000305176</ele>
        <time>2021-03-10T14:31:37.000Z</time>
      </trkpt>
      <trkpt lat="46.3378" lon="5.34239">
        <ele>241.80000305176</ele>
        <time>2021-03-10T14:31:39.000Z</time>
      </trkpt>
      <trkpt lat="46.3378" lon="5.34257">
        <ele>241.80000305176</ele>
        <time>2021-03-10T14:31:41.000Z</time>
      </trkpt>
      <trkpt lat="46.3378" lon="5.34275">
        <ele>241.80000305176</ele>
        <time>2021-03-10T14:31:43.000Z</time>
      </trkpt>
      <trkpt lat="46.33781" lon="5.34294">
        <ele>241.60000610352</ele>
        <time>2021-03-10T14:31:45.000Z</time>
      </trkpt>
      <trkpt lat="46.33785" lon="5.34312">
        <ele>241.60000610352</ele>
        <time>2021-03-10T14:31:47.000Z</time>
      </trkpt>
      <trkpt lat="46.33791" lon="5.34328">
        <ele>241.39999389648</ele>
        <time>2021-03-10T14:31:49.000Z</time>
      </trkpt>
      <trkpt lat="46.33799" lon="5.34342">
        <ele>241.39999389648</ele>
        <time>2021-03-10T14:31:51.000Z</time>
      </trkpt>
      <trkpt lat="46.33803" lon="5.34349">
        <ele>241.39999389648</ele>
        <time>2021-03-10T14:31:52.000Z</time>
      </trkpt>
      <trkpt lat="46.33807" lon="5.34355">
        <ele>241.39999389648</ele>
        <time>2021-03-10T14:31:53.000Z</time>
      </trkpt>
      <trkpt lat="46.33816" lon="5.34369">
        <ele>241.39999389648</ele>
        <time>2021-03-10T14:31:55.000Z</time>
      </trkpt>
      <trkpt lat="46.33823" lon="5.34382">
        <ele>241.60000610352</ele>
        <time>2021-03-10T14:31:57.000Z</time>
      </trkpt>
      <trkpt lat="46.33831" lon="5.34396">
        <ele>242.19999694824</ele>
        <time>2021-03-10T14:31:59.000Z</time>
      </trkpt>
      <trkpt lat="46.33838" lon="5.3441">
        <ele>242.39999389648</ele>
        <time>2021-03-10T14:32:01.000Z</time>
      </trkpt>
      <trkpt lat="46.33842" lon="5.34417">
        <ele>242.80000305176</ele>
        <time>2021-03-10T14:32:02.000Z</time>
      </trkpt>
      <trkpt lat="46.33845" lon="5.34424">
        <ele>243.19999694824</ele>
        <time>2021-03-10T14:32:03.000Z</time>
      </trkpt>
      <trkpt lat="46.33851" lon="5.3444">
        <ele>243.60000610352</ele>
        <time>2021-03-10T14:32:05.000Z</time>
      </trkpt>
      <trkpt lat="46.33854" lon="5.34448">
        <ele>243.80000305176</ele>
        <time>2021-03-10T14:32:06.000Z</time>
      </trkpt>
      <trkpt lat="46.33856" lon="5.34457">
        <ele>244</ele>
        <time>2021-03-10T14:32:07.000Z</time>
      </trkpt>
      <trkpt lat="46.33857" lon="5.34465">
        <ele>244.19999694824</ele>
        <time>2021-03-10T14:32:08.000Z</time>
      </trkpt>
      <trkpt lat="46.33859" lon="5.34474">
        <ele>244.39999389648</ele>
        <time>2021-03-10T14:32:09.000Z</time>
      </trkpt>
      <trkpt lat="46.3386" lon="5.34484">
        <ele>244.60000610352</ele>
        <time>2021-03-10T14:32:10.000Z</time>
      </trkpt>
      <trkpt lat="46.3386" lon="5.34493">
        <ele>244.80000305176</ele>
        <time>2021-03-10T14:32:11.000Z</time>
      </trkpt>
      <trkpt lat="46.33861" lon="5.34511">
        <ele>245</ele>
        <time>2021-03-10T14:32:13.000Z</time>
      </trkpt>
      <trkpt lat="46.33861" lon="5.3453">
        <ele>245</ele>
        <time>2021-03-10T14:32:15.000Z</time>
      </trkpt>
      <trkpt lat="46.33861" lon="5.34548">
        <ele>245.19999694824</ele>
        <time>2021-03-10T14:32:17.000Z</time>
      </trkpt>
      <trkpt lat="46.33861" lon="5.34567">
        <ele>245.19999694824</ele>
        <time>2021-03-10T14:32:19.000Z</time>
      </trkpt>
      <trkpt lat="46.3386" lon="5.34585">
        <ele>245.19999694824</ele>
        <time>2021-03-10T14:32:21.000Z</time>
      </trkpt>
      <trkpt lat="46.3386" lon="5.34595">
        <ele>245.39999389648</ele>
        <time>2021-03-10T14:32:22.000Z</time>
      </trkpt>
      <trkpt lat="46.3386" lon="5.34604">
        <ele>245.60000610352</ele>
        <time>2021-03-10T14:32:23.000Z</time>
      </trkpt>
      <trkpt lat="46.33859" lon="5.34622">
        <ele>245.80000305176</ele>
        <time>2021-03-10T14:32:25.000Z</time>
      </trkpt>
      <trkpt lat="46.33858" lon="5.34641">
        <ele>245.80000305176</ele>
        <time>2021-03-10T14:32:27.000Z</time>
      </trkpt>
      <trkpt lat="46.33857" lon="5.34661">
        <ele>246</ele>
        <time>2021-03-10T14:32:29.000Z</time>
      </trkpt>
      <trkpt lat="46.33855" lon="5.3468">
        <ele>246</ele>
        <time>2021-03-10T14:32:31.000Z</time>
      </trkpt>
      <trkpt lat="46.33854" lon="5.3469">
        <ele>246</ele>
        <time>2021-03-10T14:32:32.000Z</time>
      </trkpt>
      <trkpt lat="46.33853" lon="5.34699">
        <ele>246.19999694824</ele>
        <time>2021-03-10T14:32:33.000Z</time>
      </trkpt>
      <trkpt lat="46.33852" lon="5.34719">
        <ele>246.19999694824</ele>
        <time>2021-03-10T14:32:35.000Z</time>
      </trkpt>
      <trkpt lat="46.3385" lon="5.34738">
        <ele>246.39999389648</ele>
        <time>2021-03-10T14:32:37.000Z</time>
      </trkpt>
      <trkpt lat="46.33847" lon="5.34757">
        <ele>246.39999389648</ele>
        <time>2021-03-10T14:32:39.000Z</time>
      </trkpt>
      <trkpt lat="46.33843" lon="5.34775">
        <ele>246.39999389648</ele>
        <time>2021-03-10T14:32:41.000Z</time>
      </trkpt>
      <trkpt lat="46.3384" lon="5.34794">
        <ele>246.39999389648</ele>
        <time>2021-03-10T14:32:43.000Z</time>
      </trkpt>
      <trkpt lat="46.33837" lon="5.34812">
        <ele>246.39999389648</ele>
        <time>2021-03-10T14:32:45.000Z</time>
      </trkpt>
      <trkpt lat="46.33834" lon="5.34831">
        <ele>246.39999389648</ele>
        <time>2021-03-10T14:32:47.000Z</time>
      </trkpt>
      <trkpt lat="46.33831" lon="5.34849">
        <ele>246.39999389648</ele>
        <time>2021-03-10T14:32:49.000Z</time>
      </trkpt>
      <trkpt lat="46.33828" lon="5.34867">
        <ele>246.39999389648</ele>
        <time>2021-03-10T14:32:51.000Z</time>
      </trkpt>
      <trkpt lat="46.33826" lon="5.34876">
        <ele>246.60000610352</ele>
        <time>2021-03-10T14:32:52.000Z</time>
      </trkpt>
      <trkpt lat="46.33825" lon="5.34885">
        <ele>246.60000610352</ele>
        <time>2021-03-10T14:32:53.000Z</time>
      </trkpt>
      <trkpt lat="46.33823" lon="5.34904">
        <ele>246.80000305176</ele>
        <time>2021-03-10T14:32:55.000Z</time>
      </trkpt>
      <trkpt lat="46.33822" lon="5.34923">
        <ele>246.80000305176</ele>
        <time>2021-03-10T14:32:57.000Z</time>
      </trkpt>
      <trkpt lat="46.33822" lon="5.34932">
        <ele>247</ele>
        <time>2021-03-10T14:32:58.000Z</time>
      </trkpt>
      <trkpt lat="46.33822" lon="5.34941">
        <ele>247</ele>
        <time>2021-03-10T14:32:59.000Z</time>
      </trkpt>
      <trkpt lat="46.33821" lon="5.3496">
        <ele>247.39999389648</ele>
        <time>2021-03-10T14:33:01.000Z</time>
      </trkpt>
      <trkpt lat="46.33821" lon="5.34979">
        <ele>247.39999389648</ele>
        <time>2021-03-10T14:33:03.000Z</time>
      </trkpt>
      <trkpt lat="46.33821" lon="5.34998">
        <ele>247.39999389648</ele>
        <time>2021-03-10T14:33:05.000Z</time>
      </trkpt>
      <trkpt lat="46.33821" lon="5.35016">
        <ele>247.60000610352</ele>
        <time>2021-03-10T14:33:07.000Z</time>
      </trkpt>
      <trkpt lat="46.3382" lon="5.35035">
        <ele>247.80000305176</ele>
        <time>2021-03-10T14:33:09.000Z</time>
      </trkpt>
      <trkpt lat="46.3382" lon="5.35053">
        <ele>247.80000305176</ele>
        <time>2021-03-10T14:33:11.000Z</time>
      </trkpt>
      <trkpt lat="46.33819" lon="5.35063">
        <ele>248</ele>
        <time>2021-03-10T14:33:12.000Z</time>
      </trkpt>
      <trkpt lat="46.33819" lon="5.35072">
        <ele>248</ele>
        <time>2021-03-10T14:33:13.000Z</time>
      </trkpt>
      <trkpt lat="46.33817" lon="5.3509">
        <ele>248</ele>
        <time>2021-03-10T14:33:15.000Z</time>
      </trkpt>
      <trkpt lat="46.33816" lon="5.35108">
        <ele>248.19999694824</ele>
        <time>2021-03-10T14:33:17.000Z</time>
      </trkpt>
      <trkpt lat="46.33814" lon="5.35126">
        <ele>248.39999389648</ele>
        <time>2021-03-10T14:33:19.000Z</time>
      </trkpt>
      <trkpt lat="46.33813" lon="5.35135">
        <ele>248.39999389648</ele>
        <time>2021-03-10T14:33:20.000Z</time>
      </trkpt>
      <trkpt lat="46.33812" lon="5.35144">
        <ele>248.39999389648</ele>
        <time>2021-03-10T14:33:21.000Z</time>
      </trkpt>
      <trkpt lat="46.33811" lon="5.35162">
        <ele>248.60000610352</ele>
        <time>2021-03-10T14:33:23.000Z</time>
      </trkpt>
      <trkpt lat="46.33809" lon="5.35179">
        <ele>249</ele>
        <time>2021-03-10T14:33:25.000Z</time>
      </trkpt>
      <trkpt lat="46.33808" lon="5.35188">
        <ele>249</ele>
        <time>2021-03-10T14:33:26.000Z</time>
      </trkpt>
      <trkpt lat="46.33807" lon="5.35197">
        <ele>249.19999694824</ele>
        <time>2021-03-10T14:33:27.000Z</time>
      </trkpt>
      <trkpt lat="46.33806" lon="5.35214">
        <ele>249.19999694824</ele>
        <time>2021-03-10T14:33:29.000Z</time>
      </trkpt>
      <trkpt lat="46.33805" lon="5.35232">
        <ele>249.39999389648</ele>
        <time>2021-03-10T14:33:31.000Z</time>
      </trkpt>
      <trkpt lat="46.33805" lon="5.35249">
        <ele>249.80000305176</ele>
        <time>2021-03-10T14:33:33.000Z</time>
      </trkpt>
      <trkpt lat="46.33806" lon="5.35267">
        <ele>250</ele>
        <time>2021-03-10T14:33:35.000Z</time>
      </trkpt>
      <trkpt lat="46.33809" lon="5.35285">
        <ele>250.19999694824</ele>
        <time>2021-03-10T14:33:37.000Z</time>
      </trkpt>
      <trkpt lat="46.33813" lon="5.35302">
        <ele>250.60000610352</ele>
        <time>2021-03-10T14:33:39.000Z</time>
      </trkpt>
      <trkpt lat="46.33818" lon="5.35319">
        <ele>250.80000305176</ele>
        <time>2021-03-10T14:33:41.000Z</time>
      </trkpt>
      <trkpt lat="46.33822" lon="5.35336">
        <ele>250.80000305176</ele>
        <time>2021-03-10T14:33:43.000Z</time>
      </trkpt>
      <trkpt lat="46.33826" lon="5.35352">
        <ele>251</ele>
        <time>2021-03-10T14:33:45.000Z</time>
      </trkpt>
      <trkpt lat="46.33831" lon="5.35367">
        <ele>251.60000610352</ele>
        <time>2021-03-10T14:33:47.000Z</time>
      </trkpt>
      <trkpt lat="46.33835" lon="5.35382">
        <ele>252</ele>
        <time>2021-03-10T14:33:49.000Z</time>
      </trkpt>
      <trkpt lat="46.33837" lon="5.35389">
        <ele>252.19999694824</ele>
        <time>2021-03-10T14:33:50.000Z</time>
      </trkpt>
      <trkpt lat="46.33839" lon="5.35396">
        <ele>252.39999389648</ele>
        <time>2021-03-10T14:33:51.000Z</time>
      </trkpt>
      <trkpt lat="46.33842" lon="5.35411">
        <ele>253</ele>
        <time>2021-03-10T14:33:53.000Z</time>
      </trkpt>
      <trkpt lat="46.33844" lon="5.35418">
        <ele>253.19999694824</ele>
        <time>2021-03-10T14:33:54.000Z</time>
      </trkpt>
      <trkpt lat="46.33846" lon="5.35425">
        <ele>253.60000610352</ele>
        <time>2021-03-10T14:33:55.000Z</time>
      </trkpt>
      <trkpt lat="46.3385" lon="5.35438">
        <ele>254.19999694824</ele>
        <time>2021-03-10T14:33:57.000Z</time>
      </trkpt>
      <trkpt lat="46.33852" lon="5.35445">
        <ele>254.39999389648</ele>
        <time>2021-03-10T14:33:58.000Z</time>
      </trkpt>
      <trkpt lat="46.33854" lon="5.35452">
        <ele>254.60000610352</ele>
        <time>2021-03-10T14:33:59.000Z</time>
      </trkpt>
      <trkpt lat="46.33858" lon="5.35465">
        <ele>255</ele>
        <time>2021-03-10T14:34:01.000Z</time>
      </trkpt>
      <trkpt lat="46.33861" lon="5.35478">
        <ele>255.39999389648</ele>
        <time>2021-03-10T14:34:03.000Z</time>
      </trkpt>
      <trkpt lat="46.33865" lon="5.35492">
        <ele>255.80000305176</ele>
        <time>2021-03-10T14:34:05.000Z</time>
      </trkpt>
      <trkpt lat="46.33868" lon="5.35505">
        <ele>256.20001220703</ele>
        <time>2021-03-10T14:34:07.000Z</time>
      </trkpt>
      <trkpt lat="46.33872" lon="5.35518">
        <ele>256.60000610352</ele>
        <time>2021-03-10T14:34:09.000Z</time>
      </trkpt>
      <trkpt lat="46.33873" lon="5.35525">
        <ele>256.79998779297</ele>
        <time>2021-03-10T14:34:10.000Z</time>
      </trkpt>
      <trkpt lat="46.33875" lon="5.35532">
        <ele>256.79998779297</ele>
        <time>2021-03-10T14:34:11.000Z</time>
      </trkpt>
      <trkpt lat="46.33878" lon="5.35546">
        <ele>257.20001220703</ele>
        <time>2021-03-10T14:34:13.000Z</time>
      </trkpt>
      <trkpt lat="46.33881" lon="5.3556">
        <ele>257.60000610352</ele>
        <time>2021-03-10T14:34:15.000Z</time>
      </trkpt>
      <trkpt lat="46.33882" lon="5.35567">
        <ele>257.60000610352</ele>
        <time>2021-03-10T14:34:16.000Z</time>
      </trkpt>
      <trkpt lat="46.33883" lon="5.35574">
        <ele>258</ele>
        <time>2021-03-10T14:34:17.000Z</time>
      </trkpt>
      <trkpt lat="46.33886" lon="5.35589">
        <ele>258</ele>
        <time>2021-03-10T14:34:19.000Z</time>
      </trkpt>
      <trkpt lat="46.33888" lon="5.35603">
        <ele>258.20001220703</ele>
        <time>2021-03-10T14:34:21.000Z</time>
      </trkpt>
      <trkpt lat="46.33889" lon="5.35618">
        <ele>258.39999389648</ele>
        <time>2021-03-10T14:34:23.000Z</time>
      </trkpt>
      <trkpt lat="46.33889" lon="5.35633">
        <ele>258.79998779297</ele>
        <time>2021-03-10T14:34:25.000Z</time>
      </trkpt>
      <trkpt lat="46.3389" lon="5.35647">
        <ele>259</ele>
        <time>2021-03-10T14:34:27.000Z</time>
      </trkpt>
      <trkpt lat="46.3389" lon="5.35661">
        <ele>259.60000610352</ele>
        <time>2021-03-10T14:34:29.000Z</time>
      </trkpt>
      <trkpt lat="46.3389" lon="5.35675">
        <ele>259.79998779297</ele>
        <time>2021-03-10T14:34:31.000Z</time>
      </trkpt>
      <trkpt lat="46.33889" lon="5.35689">
        <ele>260</ele>
        <time>2021-03-10T14:34:33.000Z</time>
      </trkpt>
      <trkpt lat="46.33889" lon="5.35702">
        <ele>260.20001220703</ele>
        <time>2021-03-10T14:34:35.000Z</time>
      </trkpt>
      <trkpt lat="46.33889" lon="5.35716">
        <ele>260.60000610352</ele>
        <time>2021-03-10T14:34:37.000Z</time>
      </trkpt>
      <trkpt lat="46.33889" lon="5.3573">
        <ele>261</ele>
        <time>2021-03-10T14:34:39.000Z</time>
      </trkpt>
      <trkpt lat="46.33889" lon="5.35736">
        <ele>261</ele>
        <time>2021-03-10T14:34:40.000Z</time>
      </trkpt>
      <trkpt lat="46.33889" lon="5.35743">
        <ele>261.20001220703</ele>
        <time>2021-03-10T14:34:41.000Z</time>
      </trkpt>
      <trkpt lat="46.33891" lon="5.35757">
        <ele>261.60000610352</ele>
        <time>2021-03-10T14:34:43.000Z</time>
      </trkpt>
      <trkpt lat="46.33891" lon="5.35764">
        <ele>262</ele>
        <time>2021-03-10T14:34:44.000Z</time>
      </trkpt>
      <trkpt lat="46.33892" lon="5.3577">
        <ele>262.60000610352</ele>
        <time>2021-03-10T14:34:45.000Z</time>
      </trkpt>
      <trkpt lat="46.33893" lon="5.35784">
        <ele>263</ele>
        <time>2021-03-10T14:34:47.000Z</time>
      </trkpt>
      <trkpt lat="46.33894" lon="5.35791">
        <ele>263</ele>
        <time>2021-03-10T14:34:48.000Z</time>
      </trkpt>
      <trkpt lat="46.33895" lon="5.35798">
        <ele>263.39999389648</ele>
        <time>2021-03-10T14:34:49.000Z</time>
      </trkpt>
      <trkpt lat="46.33897" lon="5.35811">
        <ele>263.79998779297</ele>
        <time>2021-03-10T14:34:51.000Z</time>
      </trkpt>
      <trkpt lat="46.33899" lon="5.35824">
        <ele>264.39999389648</ele>
        <time>2021-03-10T14:34:53.000Z</time>
      </trkpt>
      <trkpt lat="46.33902" lon="5.35836">
        <ele>264.60000610352</ele>
        <time>2021-03-10T14:34:55.000Z</time>
      </trkpt>
      <trkpt lat="46.33905" lon="5.35848">
        <ele>265</ele>
        <time>2021-03-10T14:34:57.000Z</time>
      </trkpt>
      <trkpt lat="46.33907" lon="5.35855">
        <ele>265.39999389648</ele>
        <time>2021-03-10T14:34:58.000Z</time>
      </trkpt>
      <trkpt lat="46.33908" lon="5.35861">
        <ele>265.79998779297</ele>
        <time>2021-03-10T14:34:59.000Z</time>
      </trkpt>
      <trkpt lat="46.33912" lon="5.35873">
        <ele>266.20001220703</ele>
        <time>2021-03-10T14:35:01.000Z</time>
      </trkpt>
      <trkpt lat="46.33914" lon="5.35879">
        <ele>266.60000610352</ele>
        <time>2021-03-10T14:35:02.000Z</time>
      </trkpt>
      <trkpt lat="46.33915" lon="5.35885">
        <ele>266.79998779297</ele>
        <time>2021-03-10T14:35:03.000Z</time>
      </trkpt>
      <trkpt lat="46.33919" lon="5.35896">
        <ele>267.20001220703</ele>
        <time>2021-03-10T14:35:05.000Z</time>
      </trkpt>
      <trkpt lat="46.33921" lon="5.35901">
        <ele>267.39999389648</ele>
        <time>2021-03-10T14:35:06.000Z</time>
      </trkpt>
      <trkpt lat="46.33923" lon="5.35907">
        <ele>267.60000610352</ele>
        <time>2021-03-10T14:35:07.000Z</time>
      </trkpt>
      <trkpt lat="46.33926" lon="5.35917">
        <ele>268.20001220703</ele>
        <time>2021-03-10T14:35:09.000Z</time>
      </trkpt>
      <trkpt lat="46.3393" lon="5.35928">
        <ele>268.60000610352</ele>
        <time>2021-03-10T14:35:11.000Z</time>
      </trkpt>
      <trkpt lat="46.33933" lon="5.35938">
        <ele>269.60000610352</ele>
        <time>2021-03-10T14:35:13.000Z</time>
      </trkpt>
      <trkpt lat="46.33935" lon="5.35943">
        <ele>270</ele>
        <time>2021-03-10T14:35:14.000Z</time>
      </trkpt>
      <trkpt lat="46.33936" lon="5.35948">
        <ele>270.20001220703</ele>
        <time>2021-03-10T14:35:15.000Z</time>
      </trkpt>
      <trkpt lat="46.3394" lon="5.35958">
        <ele>270.60000610352</ele>
        <time>2021-03-10T14:35:17.000Z</time>
      </trkpt>
      <trkpt lat="46.33943" lon="5.35968">
        <ele>271.20001220703</ele>
        <time>2021-03-10T14:35:19.000Z</time>
      </trkpt>
      <trkpt lat="46.33947" lon="5.35978">
        <ele>271.60000610352</ele>
        <time>2021-03-10T14:35:21.000Z</time>
      </trkpt>
      <trkpt lat="46.3395" lon="5.35989">
        <ele>272</ele>
        <time>2021-03-10T14:35:23.000Z</time>
      </trkpt>
      <trkpt lat="46.33952" lon="5.35994">
        <ele>272.39999389648</ele>
        <time>2021-03-10T14:35:24.000Z</time>
      </trkpt>
      <trkpt lat="46.33953" lon="5.35999">
        <ele>272.60000610352</ele>
        <time>2021-03-10T14:35:25.000Z</time>
      </trkpt>
      <trkpt lat="46.33957" lon="5.36009">
        <ele>272.79998779297</ele>
        <time>2021-03-10T14:35:27.000Z</time>
      </trkpt>
      <trkpt lat="46.33959" lon="5.36014">
        <ele>273</ele>
        <time>2021-03-10T14:35:28.000Z</time>
      </trkpt>
      <trkpt lat="46.33961" lon="5.36019">
        <ele>273.20001220703</ele>
        <time>2021-03-10T14:35:29.000Z</time>
      </trkpt>
      <trkpt lat="46.33963" lon="5.36024">
        <ele>273.39999389648</ele>
        <time>2021-03-10T14:35:30.000Z</time>
      </trkpt>
      <trkpt lat="46.33965" lon="5.36029">
        <ele>273.60000610352</ele>
        <time>2021-03-10T14:35:31.000Z</time>
      </trkpt>
      <trkpt lat="46.3397" lon="5.36038">
        <ele>273.60000610352</ele>
        <time>2021-03-10T14:35:33.000Z</time>
      </trkpt>
      <trkpt lat="46.33974" lon="5.36047">
        <ele>274</ele>
        <time>2021-03-10T14:35:35.000Z</time>
      </trkpt>
      <trkpt lat="46.33979" lon="5.36056">
        <ele>274.20001220703</ele>
        <time>2021-03-10T14:35:37.000Z</time>
      </trkpt>
      <trkpt lat="46.33984" lon="5.36064">
        <ele>274.60000610352</ele>
        <time>2021-03-10T14:35:39.000Z</time>
      </trkpt>
      <trkpt lat="46.33988" lon="5.36072">
        <ele>275</ele>
        <time>2021-03-10T14:35:41.000Z</time>
      </trkpt>
      <trkpt lat="46.33993" lon="5.36081">
        <ele>275.79998779297</ele>
        <time>2021-03-10T14:35:43.000Z</time>
      </trkpt>
      <trkpt lat="46.33998" lon="5.36089">
        <ele>276.20001220703</ele>
        <time>2021-03-10T14:35:45.000Z</time>
      </trkpt>
      <trkpt lat="46.34001" lon="5.36093">
        <ele>276.39999389648</ele>
        <time>2021-03-10T14:35:46.000Z</time>
      </trkpt>
      <trkpt lat="46.34003" lon="5.36098">
        <ele>276.60000610352</ele>
        <time>2021-03-10T14:35:47.000Z</time>
      </trkpt>
      <trkpt lat="46.34006" lon="5.36102">
        <ele>276.79998779297</ele>
        <time>2021-03-10T14:35:48.000Z</time>
      </trkpt>
      <trkpt lat="46.34008" lon="5.36106">
        <ele>277</ele>
        <time>2021-03-10T14:35:49.000Z</time>
      </trkpt>
      <trkpt lat="46.34015" lon="5.36115">
        <ele>277.60000610352</ele>
        <time>2021-03-10T14:35:51.000Z</time>
      </trkpt>
      <trkpt lat="46.34021" lon="5.36124">
        <ele>278</ele>
        <time>2021-03-10T14:35:53.000Z</time>
      </trkpt>
      <trkpt lat="46.34025" lon="5.36128">
        <ele>278.20001220703</ele>
        <time>2021-03-10T14:35:54.000Z</time>
      </trkpt>
      <trkpt lat="46.34029" lon="5.36132">
        <ele>278.39999389648</ele>
        <time>2021-03-10T14:35:55.000Z</time>
      </trkpt>
      <trkpt lat="46.34037" lon="5.36141">
        <ele>278.39999389648</ele>
        <time>2021-03-10T14:35:57.000Z</time>
      </trkpt>
      <trkpt lat="46.34045" lon="5.36148">
        <ele>278.39999389648</ele>
        <time>2021-03-10T14:35:59.000Z</time>
      </trkpt>
      <trkpt lat="46.34054" lon="5.36154">
        <ele>278.39999389648</ele>
        <time>2021-03-10T14:36:01.000Z</time>
      </trkpt>
      <trkpt lat="46.34063" lon="5.3616">
        <ele>278.39999389648</ele>
        <time>2021-03-10T14:36:03.000Z</time>
      </trkpt>
      <trkpt lat="46.34074" lon="5.36164">
        <ele>278.39999389648</ele>
        <time>2021-03-10T14:36:05.000Z</time>
      </trkpt>
      <trkpt lat="46.34085" lon="5.36167">
        <ele>278.20001220703</ele>
        <time>2021-03-10T14:36:07.000Z</time>
      </trkpt>
      <trkpt lat="46.34096" lon="5.3617">
        <ele>278.20001220703</ele>
        <time>2021-03-10T14:36:09.000Z</time>
      </trkpt>
      <trkpt lat="46.34107" lon="5.36174">
        <ele>278</ele>
        <time>2021-03-10T14:36:11.000Z</time>
      </trkpt>
      <trkpt lat="46.34113" lon="5.36177">
        <ele>278</ele>
        <time>2021-03-10T14:36:12.000Z</time>
      </trkpt>
      <trkpt lat="46.34119" lon="5.36179">
        <ele>278</ele>
        <time>2021-03-10T14:36:13.000Z</time>
      </trkpt>
      <trkpt lat="46.3413" lon="5.36186">
        <ele>278</ele>
        <time>2021-03-10T14:36:15.000Z</time>
      </trkpt>
      <trkpt lat="46.3414" lon="5.36193">
        <ele>277.79998779297</ele>
        <time>2021-03-10T14:36:17.000Z</time>
      </trkpt>
      <trkpt lat="46.34145" lon="5.36197">
        <ele>277.79998779297</ele>
        <time>2021-03-10T14:36:18.000Z</time>
      </trkpt>
      <trkpt lat="46.3415" lon="5.36202">
        <ele>277.79998779297</ele>
        <time>2021-03-10T14:36:19.000Z</time>
      </trkpt>
      <trkpt lat="46.34159" lon="5.36212">
        <ele>277.79998779297</ele>
        <time>2021-03-10T14:36:21.000Z</time>
      </trkpt>
      <trkpt lat="46.34168" lon="5.36223">
        <ele>277.79998779297</ele>
        <time>2021-03-10T14:36:23.000Z</time>
      </trkpt>
      <trkpt lat="46.34172" lon="5.36229">
        <ele>278</ele>
        <time>2021-03-10T14:36:24.000Z</time>
      </trkpt>
      <trkpt lat="46.34176" lon="5.36235">
        <ele>278</ele>
        <time>2021-03-10T14:36:25.000Z</time>
      </trkpt>
      <trkpt lat="46.34184" lon="5.36248">
        <ele>278</ele>
        <time>2021-03-10T14:36:27.000Z</time>
      </trkpt>
      <trkpt lat="46.34191" lon="5.36263">
        <ele>278.20001220703</ele>
        <time>2021-03-10T14:36:29.000Z</time>
      </trkpt>
      <trkpt lat="46.34194" lon="5.3627">
        <ele>278.20001220703</ele>
        <time>2021-03-10T14:36:30.000Z</time>
      </trkpt>
      <trkpt lat="46.34196" lon="5.36278">
        <ele>278.39999389648</ele>
        <time>2021-03-10T14:36:31.000Z</time>
      </trkpt>
      <trkpt lat="46.34201" lon="5.36293">
        <ele>278.60000610352</ele>
        <time>2021-03-10T14:36:33.000Z</time>
      </trkpt>
      <trkpt lat="46.34207" lon="5.36308">
        <ele>278.60000610352</ele>
        <time>2021-03-10T14:36:35.000Z</time>
      </trkpt>
      <trkpt lat="46.34212" lon="5.36322">
        <ele>278.79998779297</ele>
        <time>2021-03-10T14:36:37.000Z</time>
      </trkpt>
      <trkpt lat="46.34217" lon="5.36336">
        <ele>278.79998779297</ele>
        <time>2021-03-10T14:36:39.000Z</time>
      </trkpt>
      <trkpt lat="46.34222" lon="5.3635">
        <ele>278.79998779297</ele>
        <time>2021-03-10T14:36:41.000Z</time>
      </trkpt>
      <trkpt lat="46.34226" lon="5.36364">
        <ele>278.79998779297</ele>
        <time>2021-03-10T14:36:43.000Z</time>
      </trkpt>
      <trkpt lat="46.34231" lon="5.36378">
        <ele>278.79998779297</ele>
        <time>2021-03-10T14:36:45.000Z</time>
      </trkpt>
      <trkpt lat="46.34236" lon="5.36391">
        <ele>278.79998779297</ele>
        <time>2021-03-10T14:36:47.000Z</time>
      </trkpt>
      <trkpt lat="46.3424" lon="5.36406">
        <ele>278.79998779297</ele>
        <time>2021-03-10T14:36:49.000Z</time>
      </trkpt>
      <trkpt lat="46.34242" lon="5.36413">
        <ele>278.79998779297</ele>
        <time>2021-03-10T14:36:50.000Z</time>
      </trkpt>
      <trkpt lat="46.34243" lon="5.36421">
        <ele>278.79998779297</ele>
        <time>2021-03-10T14:36:51.000Z</time>
      </trkpt>
      <trkpt lat="46.34241" lon="5.36438">
        <ele>278.79998779297</ele>
        <time>2021-03-10T14:36:53.000Z</time>
      </trkpt>
      <trkpt lat="46.34235" lon="5.36453">
        <ele>278.60000610352</ele>
        <time>2021-03-10T14:36:55.000Z</time>
      </trkpt>
      <trkpt lat="46.34227" lon="5.36465">
        <ele>278.60000610352</ele>
        <time>2021-03-10T14:36:57.000Z</time>
      </trkpt>
      <trkpt lat="46.34219" lon="5.36476">
        <ele>278.60000610352</ele>
        <time>2021-03-10T14:36:59.000Z</time>
      </trkpt>
      <trkpt lat="46.34211" lon="5.36485">
        <ele>278.60000610352</ele>
        <time>2021-03-10T14:37:01.000Z</time>
      </trkpt>
      <trkpt lat="46.34204" lon="5.36493">
        <ele>278.60000610352</ele>
        <time>2021-03-10T14:37:03.000Z</time>
      </trkpt>
      <trkpt lat="46.34197" lon="5.36501">
        <ele>278.79998779297</ele>
        <time>2021-03-10T14:37:05.000Z</time>
      </trkpt>
      <trkpt lat="46.3419" lon="5.36508">
        <ele>279.20001220703</ele>
        <time>2021-03-10T14:37:07.000Z</time>
      </trkpt>
      <trkpt lat="46.34183" lon="5.36516">
        <ele>279.79998779297</ele>
        <time>2021-03-10T14:37:09.000Z</time>
      </trkpt>
      <trkpt lat="46.3418" lon="5.3652">
        <ele>280.20001220703</ele>
        <time>2021-03-10T14:37:10.000Z</time>
      </trkpt>
      <trkpt lat="46.34177" lon="5.36524">
        <ele>280.60000610352</ele>
        <time>2021-03-10T14:37:11.000Z</time>
      </trkpt>
      <trkpt lat="46.34171" lon="5.36531">
        <ele>281</ele>
        <time>2021-03-10T14:37:13.000Z</time>
      </trkpt>
      <trkpt lat="46.34168" lon="5.36535">
        <ele>281.39999389648</ele>
        <time>2021-03-10T14:37:14.000Z</time>
      </trkpt>
      <trkpt lat="46.34165" lon="5.36539">
        <ele>281.60000610352</ele>
        <time>2021-03-10T14:37:15.000Z</time>
      </trkpt>
      <trkpt lat="46.34159" lon="5.36547">
        <ele>282.20001220703</ele>
        <time>2021-03-10T14:37:17.000Z</time>
      </trkpt>
      <trkpt lat="46.34156" lon="5.3655">
        <ele>282.39999389648</ele>
        <time>2021-03-10T14:37:18.000Z</time>
      </trkpt>
      <trkpt lat="46.34153" lon="5.36554">
        <ele>282.60000610352</ele>
        <time>2021-03-10T14:37:19.000Z</time>
      </trkpt>
      <trkpt lat="46.34148" lon="5.36562">
        <ele>283</ele>
        <time>2021-03-10T14:37:21.000Z</time>
      </trkpt>
      <trkpt lat="46.34145" lon="5.36565">
        <ele>283.20001220703</ele>
        <time>2021-03-10T14:37:22.000Z</time>
      </trkpt>
      <trkpt lat="46.34142" lon="5.36569">
        <ele>283.39999389648</ele>
        <time>2021-03-10T14:37:23.000Z</time>
      </trkpt>
      <trkpt lat="46.34139" lon="5.36572">
        <ele>283.60000610352</ele>
        <time>2021-03-10T14:37:24.000Z</time>
      </trkpt>
      <trkpt lat="46.34137" lon="5.36576">
        <ele>283.79998779297</ele>
        <time>2021-03-10T14:37:25.000Z</time>
      </trkpt>
      <trkpt lat="46.34131" lon="5.36583">
        <ele>284.20001220703</ele>
        <time>2021-03-10T14:37:27.000Z</time>
      </trkpt>
      <trkpt lat="46.34126" lon="5.36589">
        <ele>284.60000610352</ele>
        <time>2021-03-10T14:37:29.000Z</time>
      </trkpt>
      <trkpt lat="46.3412" lon="5.36595">
        <ele>285</ele>
        <time>2021-03-10T14:37:31.000Z</time>
      </trkpt>
      <trkpt lat="46.34118" lon="5.36598">
        <ele>285.39999389648</ele>
        <time>2021-03-10T14:37:32.000Z</time>
      </trkpt>
      <trkpt lat="46.34115" lon="5.366">
        <ele>285.60000610352</ele>
        <time>2021-03-10T14:37:33.000Z</time>
      </trkpt>
      <trkpt lat="46.34109" lon="5.36604">
        <ele>286.39999389648</ele>
        <time>2021-03-10T14:37:35.000Z</time>
      </trkpt>
      <trkpt lat="46.34102" lon="5.36608">
        <ele>287</ele>
        <time>2021-03-10T14:37:37.000Z</time>
      </trkpt>
      <trkpt lat="46.34095" lon="5.3661">
        <ele>287.39999389648</ele>
        <time>2021-03-10T14:37:39.000Z</time>
      </trkpt>
      <trkpt lat="46.34088" lon="5.36611">
        <ele>288.20001220703</ele>
        <time>2021-03-10T14:37:41.000Z</time>
      </trkpt>
      <trkpt lat="46.3408" lon="5.36612">
        <ele>288.60000610352</ele>
        <time>2021-03-10T14:37:43.000Z</time>
      </trkpt>
      <trkpt lat="46.34073" lon="5.36612">
        <ele>289.20001220703</ele>
        <time>2021-03-10T14:37:45.000Z</time>
      </trkpt>
      <trkpt lat="46.34069" lon="5.36611">
        <ele>289.39999389648</ele>
        <time>2021-03-10T14:37:46.000Z</time>
      </trkpt>
      <trkpt lat="46.34065" lon="5.36611">
        <ele>289.39999389648</ele>
        <time>2021-03-10T14:37:47.000Z</time>
      </trkpt>
      <trkpt lat="46.34058" lon="5.36609">
        <ele>289.79998779297</ele>
        <time>2021-03-10T14:37:49.000Z</time>
      </trkpt>
      <trkpt lat="46.34051" lon="5.36607">
        <ele>290.20001220703</ele>
        <time>2021-03-10T14:37:51.000Z</time>
      </trkpt>
      <trkpt lat="46.34048" lon="5.36606">
        <ele>290.60000610352</ele>
        <time>2021-03-10T14:37:52.000Z</time>
      </trkpt>
      <trkpt lat="46.34044" lon="5.36605">
        <ele>290.60000610352</ele>
        <time>2021-03-10T14:37:53.000Z</time>
      </trkpt>
      <trkpt lat="46.34037" lon="5.36603">
        <ele>290.79998779297</ele>
        <time>2021-03-10T14:37:55.000Z</time>
      </trkpt>
      <trkpt lat="46.34031" lon="5.36601">
        <ele>291.20001220703</ele>
        <time>2021-03-10T14:37:57.000Z</time>
      </trkpt>
      <trkpt lat="46.34025" lon="5.36598">
        <ele>291.79998779297</ele>
        <time>2021-03-10T14:37:59.000Z</time>
      </trkpt>
      <trkpt lat="46.34019" lon="5.36594">
        <ele>292.60000610352</ele>
        <time>2021-03-10T14:38:01.000Z</time>
      </trkpt>
      <trkpt lat="46.34016" lon="5.36593">
        <ele>293.20001220703</ele>
        <time>2021-03-10T14:38:02.000Z</time>
      </trkpt>
      <trkpt lat="46.34012" lon="5.36591">
        <ele>293.39999389648</ele>
        <time>2021-03-10T14:38:03.000Z</time>
      </trkpt>
      <trkpt lat="46.34006" lon="5.3659">
        <ele>294</ele>
        <time>2021-03-10T14:38:05.000Z</time>
      </trkpt>
      <trkpt lat="46.34002" lon="5.3659">
        <ele>294.20001220703</ele>
        <time>2021-03-10T14:38:06.000Z</time>
      </trkpt>
      <trkpt lat="46.33999" lon="5.36591">
        <ele>294.60000610352</ele>
        <time>2021-03-10T14:38:07.000Z</time>
      </trkpt>
      <trkpt lat="46.33995" lon="5.36593">
        <ele>294.79998779297</ele>
        <time>2021-03-10T14:38:08.000Z</time>
      </trkpt>
      <trkpt lat="46.33993" lon="5.36596">
        <ele>295.20001220703</ele>
        <time>2021-03-10T14:38:09.000Z</time>
      </trkpt>
      <trkpt lat="46.3399" lon="5.366">
        <ele>295.39999389648</ele>
        <time>2021-03-10T14:38:10.000Z</time>
      </trkpt>
      <trkpt lat="46.33987" lon="5.36604">
        <ele>295.60000610352</ele>
        <time>2021-03-10T14:38:11.000Z</time>
      </trkpt>
      <trkpt lat="46.33983" lon="5.36614">
        <ele>296.20001220703</ele>
        <time>2021-03-10T14:38:13.000Z</time>
      </trkpt>
      <trkpt lat="46.3398" lon="5.36625">
        <ele>296.60000610352</ele>
        <time>2021-03-10T14:38:15.000Z</time>
      </trkpt>
      <trkpt lat="46.33977" lon="5.36636">
        <ele>297</ele>
        <time>2021-03-10T14:38:17.000Z</time>
      </trkpt>
      <trkpt lat="46.33974" lon="5.36647">
        <ele>297.20001220703</ele>
        <time>2021-03-10T14:38:19.000Z</time>
      </trkpt>
      <trkpt lat="46.33973" lon="5.36653">
        <ele>297.20001220703</ele>
        <time>2021-03-10T14:38:20.000Z</time>
      </trkpt>
      <trkpt lat="46.33972" lon="5.36659">
        <ele>297.39999389648</ele>
        <time>2021-03-10T14:38:21.000Z</time>
      </trkpt>
      <trkpt lat="46.33968" lon="5.3667">
        <ele>297.60000610352</ele>
        <time>2021-03-10T14:38:23.000Z</time>
      </trkpt>
      <trkpt lat="46.33966" lon="5.36676">
        <ele>297.79998779297</ele>
        <time>2021-03-10T14:38:24.000Z</time>
      </trkpt>
      <trkpt lat="46.33964" lon="5.36683">
        <ele>297.79998779297</ele>
        <time>2021-03-10T14:38:25.000Z</time>
      </trkpt>
      <trkpt lat="46.33961" lon="5.36696">
        <ele>297.79998779297</ele>
        <time>2021-03-10T14:38:27.000Z</time>
      </trkpt>
      <trkpt lat="46.33958" lon="5.3671">
        <ele>298</ele>
        <time>2021-03-10T14:38:29.000Z</time>
      </trkpt>
      <trkpt lat="46.33954" lon="5.36725">
        <ele>298</ele>
        <time>2021-03-10T14:38:31.000Z</time>
      </trkpt>
      <trkpt lat="46.3395" lon="5.3674">
        <ele>298.20001220703</ele>
        <time>2021-03-10T14:38:33.000Z</time>
      </trkpt>
      <trkpt lat="46.33946" lon="5.36756">
        <ele>298.20001220703</ele>
        <time>2021-03-10T14:38:35.000Z</time>
      </trkpt>
      <trkpt lat="46.33941" lon="5.36772">
        <ele>298.20001220703</ele>
        <time>2021-03-10T14:38:37.000Z</time>
      </trkpt>
      <trkpt lat="46.33937" lon="5.36788">
        <ele>298</ele>
        <time>2021-03-10T14:38:39.000Z</time>
      </trkpt>
      <trkpt lat="46.33933" lon="5.36804">
        <ele>298</ele>
        <time>2021-03-10T14:38:41.000Z</time>
      </trkpt>
      <trkpt lat="46.33928" lon="5.3682">
        <ele>298</ele>
        <time>2021-03-10T14:38:43.000Z</time>
      </trkpt>
      <trkpt lat="46.33923" lon="5.36835">
        <ele>298</ele>
        <time>2021-03-10T14:38:45.000Z</time>
      </trkpt>
      <trkpt lat="46.33917" lon="5.36851">
        <ele>298</ele>
        <time>2021-03-10T14:38:47.000Z</time>
      </trkpt>
      <trkpt lat="46.33911" lon="5.36868">
        <ele>297.79998779297</ele>
        <time>2021-03-10T14:38:49.000Z</time>
      </trkpt>
      <trkpt lat="46.33904" lon="5.36887">
        <ele>297.60000610352</ele>
        <time>2021-03-10T14:38:51.000Z</time>
      </trkpt>
      <trkpt lat="46.33897" lon="5.36906">
        <ele>297.39999389648</ele>
        <time>2021-03-10T14:38:53.000Z</time>
      </trkpt>
      <trkpt lat="46.3389" lon="5.36926">
        <ele>297.20001220703</ele>
        <time>2021-03-10T14:38:55.000Z</time>
      </trkpt>
      <trkpt lat="46.33883" lon="5.36946">
        <ele>296.79998779297</ele>
        <time>2021-03-10T14:38:57.000Z</time>
      </trkpt>
      <trkpt lat="46.3388" lon="5.36956">
        <ele>296.39999389648</ele>
        <time>2021-03-10T14:38:58.000Z</time>
      </trkpt>
      <trkpt lat="46.33876" lon="5.36965">
        <ele>295.39999389648</ele>
        <time>2021-03-10T14:38:59.000Z</time>
      </trkpt>
      <trkpt lat="46.33872" lon="5.36974">
        <ele>295</ele>
        <time>2021-03-10T14:39:00.000Z</time>
      </trkpt>
      <trkpt lat="46.33869" lon="5.36984">
        <ele>294.79998779297</ele>
        <time>2021-03-10T14:39:01.000Z</time>
      </trkpt>
      <trkpt lat="46.33865" lon="5.36992">
        <ele>294.39999389648</ele>
        <time>2021-03-10T14:39:02.000Z</time>
      </trkpt>
      <trkpt lat="46.33861" lon="5.37001">
        <ele>294.20001220703</ele>
        <time>2021-03-10T14:39:03.000Z</time>
      </trkpt>
      <trkpt lat="46.33853" lon="5.3702">
        <ele>294</ele>
        <time>2021-03-10T14:39:05.000Z</time>
      </trkpt>
      <trkpt lat="46.33845" lon="5.37041">
        <ele>293.60000610352</ele>
        <time>2021-03-10T14:39:07.000Z</time>
      </trkpt>
      <trkpt lat="46.33838" lon="5.37061">
        <ele>293.39999389648</ele>
        <time>2021-03-10T14:39:09.000Z</time>
      </trkpt>
      <trkpt lat="46.33835" lon="5.3707">
        <ele>293.39999389648</ele>
        <time>2021-03-10T14:39:10.000Z</time>
      </trkpt>
      <trkpt lat="46.33833" lon="5.37079">
        <ele>293.39999389648</ele>
        <time>2021-03-10T14:39:11.000Z</time>
      </trkpt>
      <trkpt lat="46.33831" lon="5.37097">
        <ele>293.39999389648</ele>
        <time>2021-03-10T14:39:13.000Z</time>
      </trkpt>
      <trkpt lat="46.33829" lon="5.37114">
        <ele>293.39999389648</ele>
        <time>2021-03-10T14:39:15.000Z</time>
      </trkpt>
      <trkpt lat="46.33827" lon="5.37122">
        <ele>293.39999389648</ele>
        <time>2021-03-10T14:39:16.000Z</time>
      </trkpt>
      <trkpt lat="46.33826" lon="5.37129">
        <ele>293.60000610352</ele>
        <time>2021-03-10T14:39:17.000Z</time>
      </trkpt>
      <trkpt lat="46.33824" lon="5.37142">
        <ele>293.79998779297</ele>
        <time>2021-03-10T14:39:19.000Z</time>
      </trkpt>
      <trkpt lat="46.33822" lon="5.37155">
        <ele>294</ele>
        <time>2021-03-10T14:39:21.000Z</time>
      </trkpt>
      <trkpt lat="46.33822" lon="5.37161">
        <ele>294.20001220703</ele>
        <time>2021-03-10T14:39:22.000Z</time>
      </trkpt>
      <trkpt lat="46.33821" lon="5.37166">
        <ele>294.60000610352</ele>
        <time>2021-03-10T14:39:23.000Z</time>
      </trkpt>
      <trkpt lat="46.33821" lon="5.37171">
        <ele>295</ele>
        <time>2021-03-10T14:39:24.000Z</time>
      </trkpt>
      <trkpt lat="46.3382" lon="5.37177">
        <ele>295.60000610352</ele>
        <time>2021-03-10T14:39:25.000Z</time>
      </trkpt>
      <trkpt lat="46.33819" lon="5.37182">
        <ele>296.20001220703</ele>
        <time>2021-03-10T14:39:26.000Z</time>
      </trkpt>
      <trkpt lat="46.33818" lon="5.37187">
        <ele>296.60000610352</ele>
        <time>2021-03-10T14:39:27.000Z</time>
      </trkpt>
      <trkpt lat="46.33818" lon="5.37192">
        <ele>297.39999389648</ele>
        <time>2021-03-10T14:39:28.000Z</time>
      </trkpt>
      <trkpt lat="46.33817" lon="5.37197">
        <ele>297.60000610352</ele>
        <time>2021-03-10T14:39:29.000Z</time>
      </trkpt>
      <trkpt lat="46.33817" lon="5.37208">
        <ele>298.39999389648</ele>
        <time>2021-03-10T14:39:31.000Z</time>
      </trkpt>
      <trkpt lat="46.33818" lon="5.37218">
        <ele>299.20001220703</ele>
        <time>2021-03-10T14:39:33.000Z</time>
      </trkpt>
      <trkpt lat="46.33818" lon="5.37224">
        <ele>299.39999389648</ele>
        <time>2021-03-10T14:39:34.000Z</time>
      </trkpt>
      <trkpt lat="46.33819" lon="5.3723">
        <ele>299.79998779297</ele>
        <time>2021-03-10T14:39:35.000Z</time>
      </trkpt>
      <trkpt lat="46.3382" lon="5.37241">
        <ele>300.39999389648</ele>
        <time>2021-03-10T14:39:37.000Z</time>
      </trkpt>
      <trkpt lat="46.33821" lon="5.37247">
        <ele>300.60000610352</ele>
        <time>2021-03-10T14:39:38.000Z</time>
      </trkpt>
      <trkpt lat="46.33821" lon="5.37253">
        <ele>301</ele>
        <time>2021-03-10T14:39:39.000Z</time>
      </trkpt>
      <trkpt lat="46.33822" lon="5.37265">
        <ele>301.39999389648</ele>
        <time>2021-03-10T14:39:41.000Z</time>
      </trkpt>
      <trkpt lat="46.33823" lon="5.37276">
        <ele>301.79998779297</ele>
        <time>2021-03-10T14:39:43.000Z</time>
      </trkpt>
      <trkpt lat="46.33822" lon="5.37287">
        <ele>302.39999389648</ele>
        <time>2021-03-10T14:39:45.000Z</time>
      </trkpt>
      <trkpt lat="46.33821" lon="5.37298">
        <ele>302.79998779297</ele>
        <time>2021-03-10T14:39:47.000Z</time>
      </trkpt>
      <trkpt lat="46.33819" lon="5.37303">
        <ele>303</ele>
        <time>2021-03-10T14:39:48.000Z</time>
      </trkpt>
      <trkpt lat="46.33818" lon="5.37308">
        <ele>303.20001220703</ele>
        <time>2021-03-10T14:39:49.000Z</time>
      </trkpt>
      <trkpt lat="46.33814" lon="5.37318">
        <ele>303.60000610352</ele>
        <time>2021-03-10T14:39:51.000Z</time>
      </trkpt>
      <trkpt lat="46.3381" lon="5.37326">
        <ele>304.39999389648</ele>
        <time>2021-03-10T14:39:53.000Z</time>
      </trkpt>
      <trkpt lat="46.33805" lon="5.37334">
        <ele>305</ele>
        <time>2021-03-10T14:39:55.000Z</time>
      </trkpt>
      <trkpt lat="46.33802" lon="5.37337">
        <ele>305.39999389648</ele>
        <time>2021-03-10T14:39:56.000Z</time>
      </trkpt>
      <trkpt lat="46.33798" lon="5.3734">
        <ele>305.60000610352</ele>
        <time>2021-03-10T14:39:57.000Z</time>
      </trkpt>
      <trkpt lat="46.33792" lon="5.37345">
        <ele>305.79998779297</ele>
        <time>2021-03-10T14:39:59.000Z</time>
      </trkpt>
      <trkpt lat="46.33785" lon="5.37349">
        <ele>306.20001220703</ele>
        <time>2021-03-10T14:40:01.000Z</time>
      </trkpt>
      <trkpt lat="46.33782" lon="5.37351">
        <ele>306.60000610352</ele>
        <time>2021-03-10T14:40:02.000Z</time>
      </trkpt>
      <trkpt lat="46.33778" lon="5.37352">
        <ele>306.79998779297</ele>
        <time>2021-03-10T14:40:03.000Z</time>
      </trkpt>
      <trkpt lat="46.33771" lon="5.37358">
        <ele>307.20001220703</ele>
        <time>2021-03-10T14:40:05.000Z</time>
      </trkpt>
      <trkpt lat="46.33765" lon="5.37362">
        <ele>307.79998779297</ele>
        <time>2021-03-10T14:40:07.000Z</time>
      </trkpt>
      <trkpt lat="46.33759" lon="5.37369">
        <ele>308.39999389648</ele>
        <time>2021-03-10T14:40:09.000Z</time>
      </trkpt>
      <trkpt lat="46.33756" lon="5.37373">
        <ele>308.79998779297</ele>
        <time>2021-03-10T14:40:10.000Z</time>
      </trkpt>
      <trkpt lat="46.33754" lon="5.37377">
        <ele>309</ele>
        <time>2021-03-10T14:40:11.000Z</time>
      </trkpt>
      <trkpt lat="46.33749" lon="5.37384">
        <ele>309.60000610352</ele>
        <time>2021-03-10T14:40:13.000Z</time>
      </trkpt>
      <trkpt lat="46.33747" lon="5.37388">
        <ele>310</ele>
        <time>2021-03-10T14:40:14.000Z</time>
      </trkpt>
      <trkpt lat="46.33745" lon="5.37392">
        <ele>310.20001220703</ele>
        <time>2021-03-10T14:40:15.000Z</time>
      </trkpt>
      <trkpt lat="46.3374" lon="5.37399">
        <ele>310.79998779297</ele>
        <time>2021-03-10T14:40:17.000Z</time>
      </trkpt>
      <trkpt lat="46.33737" lon="5.37403">
        <ele>311</ele>
        <time>2021-03-10T14:40:18.000Z</time>
      </trkpt>
      <trkpt lat="46.33735" lon="5.37407">
        <ele>311.20001220703</ele>
        <time>2021-03-10T14:40:19.000Z</time>
      </trkpt>
      <trkpt lat="46.3373" lon="5.37414">
        <ele>311.79998779297</ele>
        <time>2021-03-10T14:40:21.000Z</time>
      </trkpt>
      <trkpt lat="46.33725" lon="5.37421">
        <ele>312.20001220703</ele>
        <time>2021-03-10T14:40:23.000Z</time>
      </trkpt>
      <trkpt lat="46.33719" lon="5.37428">
        <ele>312.60000610352</ele>
        <time>2021-03-10T14:40:25.000Z</time>
      </trkpt>
      <trkpt lat="46.33713" lon="5.37434">
        <ele>313</ele>
        <time>2021-03-10T14:40:27.000Z</time>
      </trkpt>
      <trkpt lat="46.3371" lon="5.37437">
        <ele>313.39999389648</ele>
        <time>2021-03-10T14:40:28.000Z</time>
      </trkpt>
      <trkpt lat="46.33707" lon="5.3744">
        <ele>313.60000610352</ele>
        <time>2021-03-10T14:40:29.000Z</time>
      </trkpt>
      <trkpt lat="46.33701" lon="5.37446">
        <ele>314.20001220703</ele>
        <time>2021-03-10T14:40:31.000Z</time>
      </trkpt>
      <trkpt lat="46.33695" lon="5.37452">
        <ele>314.60000610352</ele>
        <time>2021-03-10T14:40:33.000Z</time>
      </trkpt>
      <trkpt lat="46.33689" lon="5.37458">
        <ele>315.20001220703</ele>
        <time>2021-03-10T14:40:35.000Z</time>
      </trkpt>
      <trkpt lat="46.33683" lon="5.37464">
        <ele>315.60000610352</ele>
        <time>2021-03-10T14:40:37.000Z</time>
      </trkpt>
      <trkpt lat="46.3368" lon="5.37467">
        <ele>315.79998779297</ele>
        <time>2021-03-10T14:40:38.000Z</time>
      </trkpt>
      <trkpt lat="46.33677" lon="5.3747">
        <ele>316</ele>
        <time>2021-03-10T14:40:39.000Z</time>
      </trkpt>
      <trkpt lat="46.33671" lon="5.37477">
        <ele>316.39999389648</ele>
        <time>2021-03-10T14:40:41.000Z</time>
      </trkpt>
      <trkpt lat="46.33669" lon="5.37481">
        <ele>316.60000610352</ele>
        <time>2021-03-10T14:40:42.000Z</time>
      </trkpt>
      <trkpt lat="46.33666" lon="5.37485">
        <ele>317</ele>
        <time>2021-03-10T14:40:43.000Z</time>
      </trkpt>
      <trkpt lat="46.33662" lon="5.37493">
        <ele>317.39999389648</ele>
        <time>2021-03-10T14:40:45.000Z</time>
      </trkpt>
      <trkpt lat="46.3366" lon="5.37497">
        <ele>317.60000610352</ele>
        <time>2021-03-10T14:40:46.000Z</time>
      </trkpt>
      <trkpt lat="46.33658" lon="5.37501">
        <ele>317.79998779297</ele>
        <time>2021-03-10T14:40:47.000Z</time>
      </trkpt>
      <trkpt lat="46.33655" lon="5.37509">
        <ele>318.39999389648</ele>
        <time>2021-03-10T14:40:49.000Z</time>
      </trkpt>
      <trkpt lat="46.33652" lon="5.37519">
        <ele>319.20001220703</ele>
        <time>2021-03-10T14:40:51.000Z</time>
      </trkpt>
      <trkpt lat="46.33648" lon="5.37527">
        <ele>319.79998779297</ele>
        <time>2021-03-10T14:40:53.000Z</time>
      </trkpt>
      <trkpt lat="46.33645" lon="5.37536">
        <ele>320.20001220703</ele>
        <time>2021-03-10T14:40:55.000Z</time>
      </trkpt>
      <trkpt lat="46.33643" lon="5.3754">
        <ele>320.60000610352</ele>
        <time>2021-03-10T14:40:56.000Z</time>
      </trkpt>
      <trkpt lat="46.33641" lon="5.37544">
        <ele>320.79998779297</ele>
        <time>2021-03-10T14:40:57.000Z</time>
      </trkpt>
      <trkpt lat="46.33636" lon="5.37552">
        <ele>321.20001220703</ele>
        <time>2021-03-10T14:40:59.000Z</time>
      </trkpt>
      <trkpt lat="46.33632" lon="5.37559">
        <ele>321.60000610352</ele>
        <time>2021-03-10T14:41:01.000Z</time>
      </trkpt>
      <trkpt lat="46.33627" lon="5.37566">
        <ele>321.79998779297</ele>
        <time>2021-03-10T14:41:03.000Z</time>
      </trkpt>
      <trkpt lat="46.33623" lon="5.37574">
        <ele>322.20001220703</ele>
        <time>2021-03-10T14:41:05.000Z</time>
      </trkpt>
      <trkpt lat="46.3362" lon="5.37582">
        <ele>322.60000610352</ele>
        <time>2021-03-10T14:41:07.000Z</time>
      </trkpt>
      <trkpt lat="46.33616" lon="5.3759">
        <ele>323.20001220703</ele>
        <time>2021-03-10T14:41:09.000Z</time>
      </trkpt>
      <trkpt lat="46.33614" lon="5.37595">
        <ele>323.39999389648</ele>
        <time>2021-03-10T14:41:10.000Z</time>
      </trkpt>
      <trkpt lat="46.33613" lon="5.37599">
        <ele>323.60000610352</ele>
        <time>2021-03-10T14:41:11.000Z</time>
      </trkpt>
      <trkpt lat="46.33609" lon="5.37608">
        <ele>324.20001220703</ele>
        <time>2021-03-10T14:41:13.000Z</time>
      </trkpt>
      <trkpt lat="46.33606" lon="5.37617">
        <ele>324.60000610352</ele>
        <time>2021-03-10T14:41:15.000Z</time>
      </trkpt>
      <trkpt lat="46.33604" lon="5.37622">
        <ele>324.79998779297</ele>
        <time>2021-03-10T14:41:16.000Z</time>
      </trkpt>
      <trkpt lat="46.33603" lon="5.37626">
        <ele>325.20001220703</ele>
        <time>2021-03-10T14:41:17.000Z</time>
      </trkpt>
      <trkpt lat="46.336" lon="5.37635">
        <ele>325.39999389648</ele>
        <time>2021-03-10T14:41:19.000Z</time>
      </trkpt>
      <trkpt lat="46.33598" lon="5.37639">
        <ele>325.79998779297</ele>
        <time>2021-03-10T14:41:20.000Z</time>
      </trkpt>
      <trkpt lat="46.33596" lon="5.37644">
        <ele>326</ele>
        <time>2021-03-10T14:41:21.000Z</time>
      </trkpt>
      <trkpt lat="46.33593" lon="5.37653">
        <ele>326.60000610352</ele>
        <time>2021-03-10T14:41:23.000Z</time>
      </trkpt>
      <trkpt lat="46.3359" lon="5.37662">
        <ele>327</ele>
        <time>2021-03-10T14:41:25.000Z</time>
      </trkpt>
      <trkpt lat="46.33588" lon="5.37666">
        <ele>327.20001220703</ele>
        <time>2021-03-10T14:41:26.000Z</time>
      </trkpt>
      <trkpt lat="46.33587" lon="5.37671">
        <ele>327.60000610352</ele>
        <time>2021-03-10T14:41:27.000Z</time>
      </trkpt>
      <trkpt lat="46.33584" lon="5.3768">
        <ele>328</ele>
        <time>2021-03-10T14:41:29.000Z</time>
      </trkpt>
      <trkpt lat="46.33581" lon="5.37689">
        <ele>328.39999389648</ele>
        <time>2021-03-10T14:41:31.000Z</time>
      </trkpt>
      <trkpt lat="46.33578" lon="5.37698">
        <ele>329</ele>
        <time>2021-03-10T14:41:33.000Z</time>
      </trkpt>
      <trkpt lat="46.33576" lon="5.37702">
        <ele>329.20001220703</ele>
        <time>2021-03-10T14:41:34.000Z</time>
      </trkpt>
      <trkpt lat="46.33575" lon="5.37707">
        <ele>329.39999389648</ele>
        <time>2021-03-10T14:41:35.000Z</time>
      </trkpt>
      <trkpt lat="46.33573" lon="5.37715">
        <ele>329.79998779297</ele>
        <time>2021-03-10T14:41:37.000Z</time>
      </trkpt>
      <trkpt lat="46.3357" lon="5.37724">
        <ele>330</ele>
        <time>2021-03-10T14:41:39.000Z</time>
      </trkpt>
      <trkpt lat="46.33568" lon="5.37728">
        <ele>330.20001220703</ele>
        <time>2021-03-10T14:41:40.000Z</time>
      </trkpt>
      <trkpt lat="46.33567" lon="5.37733">
        <ele>330.39999389648</ele>
        <time>2021-03-10T14:41:41.000Z</time>
      </trkpt>
      <trkpt lat="46.33564" lon="5.37742">
        <ele>330.79998779297</ele>
        <time>2021-03-10T14:41:43.000Z</time>
      </trkpt>
      <trkpt lat="46.33563" lon="5.37746">
        <ele>331.20001220703</ele>
        <time>2021-03-10T14:41:44.000Z</time>
      </trkpt>
      <trkpt lat="46.33562" lon="5.37751">
        <ele>331.39999389648</ele>
        <time>2021-03-10T14:41:45.000Z</time>
      </trkpt>
      <trkpt lat="46.33559" lon="5.37759">
        <ele>332.20001220703</ele>
        <time>2021-03-10T14:41:47.000Z</time>
      </trkpt>
      <trkpt lat="46.33557" lon="5.37764">
        <ele>332.39999389648</ele>
        <time>2021-03-10T14:41:48.000Z</time>
      </trkpt>
      <trkpt lat="46.33555" lon="5.37768">
        <ele>332.39999389648</ele>
        <time>2021-03-10T14:41:49.000Z</time>
      </trkpt>
      <trkpt lat="46.33552" lon="5.37777">
        <ele>333.20001220703</ele>
        <time>2021-03-10T14:41:51.000Z</time>
      </trkpt>
      <trkpt lat="46.3355" lon="5.37781">
        <ele>333.39999389648</ele>
        <time>2021-03-10T14:41:52.000Z</time>
      </trkpt>
      <trkpt lat="46.33549" lon="5.37786">
        <ele>333.39999389648</ele>
        <time>2021-03-10T14:41:53.000Z</time>
      </trkpt>
      <trkpt lat="46.33546" lon="5.37795">
        <ele>333.79998779297</ele>
        <time>2021-03-10T14:41:55.000Z</time>
      </trkpt>
      <trkpt lat="46.33544" lon="5.37799">
        <ele>334</ele>
        <time>2021-03-10T14:41:56.000Z</time>
      </trkpt>
      <trkpt lat="46.33543" lon="5.37803">
        <ele>334.20001220703</ele>
        <time>2021-03-10T14:41:57.000Z</time>
      </trkpt>
      <trkpt lat="46.33539" lon="5.37812">
        <ele>334.79998779297</ele>
        <time>2021-03-10T14:41:59.000Z</time>
      </trkpt>
      <trkpt lat="46.33536" lon="5.37821">
        <ele>335</ele>
        <time>2021-03-10T14:42:01.000Z</time>
      </trkpt>
      <trkpt lat="46.33533" lon="5.37829">
        <ele>335.39999389648</ele>
        <time>2021-03-10T14:42:03.000Z</time>
      </trkpt>
      <trkpt lat="46.3353" lon="5.37838">
        <ele>336</ele>
        <time>2021-03-10T14:42:05.000Z</time>
      </trkpt>
      <trkpt lat="46.33527" lon="5.37847">
        <ele>336.60000610352</ele>
        <time>2021-03-10T14:42:07.000Z</time>
      </trkpt>
      <trkpt lat="46.33524" lon="5.37856">
        <ele>337</ele>
        <time>2021-03-10T14:42:09.000Z</time>
      </trkpt>
      <trkpt lat="46.33521" lon="5.37865">
        <ele>337.60000610352</ele>
        <time>2021-03-10T14:42:11.000Z</time>
      </trkpt>
      <trkpt lat="46.3352" lon="5.37869">
        <ele>337.79998779297</ele>
        <time>2021-03-10T14:42:12.000Z</time>
      </trkpt>
      <trkpt lat="46.33518" lon="5.37874">
        <ele>338</ele>
        <time>2021-03-10T14:42:13.000Z</time>
      </trkpt>
      <trkpt lat="46.33515" lon="5.37883">
        <ele>338.60000610352</ele>
        <time>2021-03-10T14:42:15.000Z</time>
      </trkpt>
      <trkpt lat="46.33513" lon="5.37888">
        <ele>339</ele>
        <time>2021-03-10T14:42:16.000Z</time>
      </trkpt>
      <trkpt lat="46.33511" lon="5.37893">
        <ele>339.20001220703</ele>
        <time>2021-03-10T14:42:17.000Z</time>
      </trkpt>
      <trkpt lat="46.33508" lon="5.37904">
        <ele>339.39999389648</ele>
        <time>2021-03-10T14:42:19.000Z</time>
      </trkpt>
      <trkpt lat="46.33505" lon="5.37915">
        <ele>339.60000610352</ele>
        <time>2021-03-10T14:42:21.000Z</time>
      </trkpt>
      <trkpt lat="46.33504" lon="5.37921">
        <ele>339.79998779297</ele>
        <time>2021-03-10T14:42:22.000Z</time>
      </trkpt>
      <trkpt lat="46.33503" lon="5.37927">
        <ele>339.79998779297</ele>
        <time>2021-03-10T14:42:23.000Z</time>
      </trkpt>
      <trkpt lat="46.33504" lon="5.37933">
        <ele>340.20001220703</ele>
        <time>2021-03-10T14:42:24.000Z</time>
      </trkpt>
      <trkpt lat="46.33505" lon="5.37939">
        <ele>340.39999389648</ele>
        <time>2021-03-10T14:42:25.000Z</time>
      </trkpt>
      <trkpt lat="46.33506" lon="5.37944">
        <ele>340.39999389648</ele>
        <time>2021-03-10T14:42:26.000Z</time>
      </trkpt>
      <trkpt lat="46.33508" lon="5.37949">
        <ele>340.60000610352</ele>
        <time>2021-03-10T14:42:27.000Z</time>
      </trkpt>
      <trkpt lat="46.33511" lon="5.37958">
        <ele>341.20001220703</ele>
        <time>2021-03-10T14:42:29.000Z</time>
      </trkpt>
      <trkpt lat="46.33513" lon="5.37962">
        <ele>341.20001220703</ele>
        <time>2021-03-10T14:42:30.000Z</time>
      </trkpt>
      <trkpt lat="46.33516" lon="5.37966">
        <ele>341.39999389648</ele>
        <time>2021-03-10T14:42:31.000Z</time>
      </trkpt>
      <trkpt lat="46.33519" lon="5.37969">
        <ele>341.60000610352</ele>
        <time>2021-03-10T14:42:32.000Z</time>
      </trkpt>
      <trkpt lat="46.33522" lon="5.37972">
        <ele>341.60000610352</ele>
        <time>2021-03-10T14:42:33.000Z</time>
      </trkpt>
      <trkpt lat="46.33528" lon="5.37978">
        <ele>342.20001220703</ele>
        <time>2021-03-10T14:42:35.000Z</time>
      </trkpt>
      <trkpt lat="46.33532" lon="5.3798">
        <ele>342.39999389648</ele>
        <time>2021-03-10T14:42:36.000Z</time>
      </trkpt>
      <trkpt lat="46.33535" lon="5.37983">
        <ele>342.79998779297</ele>
        <time>2021-03-10T14:42:37.000Z</time>
      </trkpt>
      <trkpt lat="46.33541" lon="5.37988">
        <ele>343.60000610352</ele>
        <time>2021-03-10T14:42:39.000Z</time>
      </trkpt>
      <trkpt lat="46.33548" lon="5.37993">
        <ele>344.20001220703</ele>
        <time>2021-03-10T14:42:41.000Z</time>
      </trkpt>
      <trkpt lat="46.33554" lon="5.37998">
        <ele>344.60000610352</ele>
        <time>2021-03-10T14:42:43.000Z</time>
      </trkpt>
      <trkpt lat="46.3356" lon="5.38004">
        <ele>345.39999389648</ele>
        <time>2021-03-10T14:42:45.000Z</time>
      </trkpt>
      <trkpt lat="46.33566" lon="5.3801">
        <ele>345.79998779297</ele>
        <time>2021-03-10T14:42:47.000Z</time>
      </trkpt>
      <trkpt lat="46.3357" lon="5.38017">
        <ele>346.39999389648</ele>
        <time>2021-03-10T14:42:49.000Z</time>
      </trkpt>
      <trkpt lat="46.33574" lon="5.38024">
        <ele>347</ele>
        <time>2021-03-10T14:42:51.000Z</time>
      </trkpt>
      <trkpt lat="46.33576" lon="5.38028">
        <ele>347.39999389648</ele>
        <time>2021-03-10T14:42:52.000Z</time>
      </trkpt>
      <trkpt lat="46.33578" lon="5.38032">
        <ele>347.60000610352</ele>
        <time>2021-03-10T14:42:53.000Z</time>
      </trkpt>
      <trkpt lat="46.33582" lon="5.3804">
        <ele>348.20001220703</ele>
        <time>2021-03-10T14:42:55.000Z</time>
      </trkpt>
      <trkpt lat="46.33584" lon="5.38044">
        <ele>348.60000610352</ele>
        <time>2021-03-10T14:42:56.000Z</time>
      </trkpt>
      <trkpt lat="46.33585" lon="5.38048">
        <ele>348.79998779297</ele>
        <time>2021-03-10T14:42:57.000Z</time>
      </trkpt>
      <trkpt lat="46.33587" lon="5.38057">
        <ele>349.39999389648</ele>
        <time>2021-03-10T14:42:59.000Z</time>
      </trkpt>
      <trkpt lat="46.33589" lon="5.38061">
        <ele>349.60000610352</ele>
        <time>2021-03-10T14:43:00.000Z</time>
      </trkpt>
      <trkpt lat="46.3359" lon="5.38066">
        <ele>349.79998779297</ele>
        <time>2021-03-10T14:43:01.000Z</time>
      </trkpt>
      <trkpt lat="46.33592" lon="5.38074">
        <ele>350.20001220703</ele>
        <time>2021-03-10T14:43:03.000Z</time>
      </trkpt>
      <trkpt lat="46.33594" lon="5.38083">
        <ele>350.60000610352</ele>
        <time>2021-03-10T14:43:05.000Z</time>
      </trkpt>
      <trkpt lat="46.33596" lon="5.38088">
        <ele>350.79998779297</ele>
        <time>2021-03-10T14:43:06.000Z</time>
      </trkpt>
      <trkpt lat="46.33596" lon="5.38093">
        <ele>351</ele>
        <time>2021-03-10T14:43:07.000Z</time>
      </trkpt>
      <trkpt lat="46.33598" lon="5.38103">
        <ele>351.20001220703</ele>
        <time>2021-03-10T14:43:09.000Z</time>
      </trkpt>
      <trkpt lat="46.33599" lon="5.38107">
        <ele>351.39999389648</ele>
        <time>2021-03-10T14:43:10.000Z</time>
      </trkpt>
      <trkpt lat="46.33599" lon="5.38112">
        <ele>351.79998779297</ele>
        <time>2021-03-10T14:43:11.000Z</time>
      </trkpt>
      <trkpt lat="46.336" lon="5.38122">
        <ele>352.60000610352</ele>
        <time>2021-03-10T14:43:13.000Z</time>
      </trkpt>
      <trkpt lat="46.336" lon="5.38127">
        <ele>352.79998779297</ele>
        <time>2021-03-10T14:43:14.000Z</time>
      </trkpt>
      <trkpt lat="46.33601" lon="5.38132">
        <ele>353.20001220703</ele>
        <time>2021-03-10T14:43:15.000Z</time>
      </trkpt>
      <trkpt lat="46.33601" lon="5.38142">
        <ele>353.60000610352</ele>
        <time>2021-03-10T14:43:17.000Z</time>
      </trkpt>
      <trkpt lat="46.33601" lon="5.38153">
        <ele>354</ele>
        <time>2021-03-10T14:43:19.000Z</time>
      </trkpt>
      <trkpt lat="46.33601" lon="5.38164">
        <ele>354.60000610352</ele>
        <time>2021-03-10T14:43:21.000Z</time>
      </trkpt>
      <trkpt lat="46.336" lon="5.38174">
        <ele>355.20001220703</ele>
        <time>2021-03-10T14:43:23.000Z</time>
      </trkpt>
      <trkpt lat="46.33599" lon="5.38184">
        <ele>355.60000610352</ele>
        <time>2021-03-10T14:43:25.000Z</time>
      </trkpt>
      <trkpt lat="46.33598" lon="5.38194">
        <ele>355.79998779297</ele>
        <time>2021-03-10T14:43:27.000Z</time>
      </trkpt>
      <trkpt lat="46.33597" lon="5.38203">
        <ele>356</ele>
        <time>2021-03-10T14:43:29.000Z</time>
      </trkpt>
      <trkpt lat="46.33596" lon="5.38208">
        <ele>356.20001220703</ele>
        <time>2021-03-10T14:43:30.000Z</time>
      </trkpt>
      <trkpt lat="46.33596" lon="5.38213">
        <ele>356.39999389648</ele>
        <time>2021-03-10T14:43:31.000Z</time>
      </trkpt>
      <trkpt lat="46.33595" lon="5.38223">
        <ele>356.79998779297</ele>
        <time>2021-03-10T14:43:33.000Z</time>
      </trkpt>
      <trkpt lat="46.33595" lon="5.38232">
        <ele>357.20001220703</ele>
        <time>2021-03-10T14:43:35.000Z</time>
      </trkpt>
      <trkpt lat="46.33594" lon="5.38242">
        <ele>357.60000610352</ele>
        <time>2021-03-10T14:43:37.000Z</time>
      </trkpt>
      <trkpt lat="46.33594" lon="5.38247">
        <ele>357.79998779297</ele>
        <time>2021-03-10T14:43:38.000Z</time>
      </trkpt>
      <trkpt lat="46.33594" lon="5.38251">
        <ele>358</ele>
        <time>2021-03-10T14:43:39.000Z</time>
      </trkpt>
      <trkpt lat="46.33594" lon="5.38261">
        <ele>358.20001220703</ele>
        <time>2021-03-10T14:43:41.000Z</time>
      </trkpt>
      <trkpt lat="46.33595" lon="5.38266">
        <ele>358.79998779297</ele>
        <time>2021-03-10T14:43:42.000Z</time>
      </trkpt>
      <trkpt lat="46.33595" lon="5.3827">
        <ele>359</ele>
        <time>2021-03-10T14:43:43.000Z</time>
      </trkpt>
      <trkpt lat="46.33595" lon="5.38279">
        <ele>359.39999389648</ele>
        <time>2021-03-10T14:43:45.000Z</time>
      </trkpt>
      <trkpt lat="46.33596" lon="5.38283">
        <ele>359.79998779297</ele>
        <time>2021-03-10T14:43:46.000Z</time>
      </trkpt>
      <trkpt lat="46.33596" lon="5.38288">
        <ele>359.79998779297</ele>
        <time>2021-03-10T14:43:47.000Z</time>
      </trkpt>
      <trkpt lat="46.33598" lon="5.38297">
        <ele>360.20001220703</ele>
        <time>2021-03-10T14:43:49.000Z</time>
      </trkpt>
      <trkpt lat="46.33599" lon="5.38306">
        <ele>360.79998779297</ele>
        <time>2021-03-10T14:43:51.000Z</time>
      </trkpt>
      <trkpt lat="46.336" lon="5.38316">
        <ele>361.39999389648</ele>
        <time>2021-03-10T14:43:53.000Z</time>
      </trkpt>
      <trkpt lat="46.33601" lon="5.38326">
        <ele>361.79998779297</ele>
        <time>2021-03-10T14:43:55.000Z</time>
      </trkpt>
      <trkpt lat="46.33601" lon="5.38336">
        <ele>362.20001220703</ele>
        <time>2021-03-10T14:43:57.000Z</time>
      </trkpt>
      <trkpt lat="46.33601" lon="5.38346">
        <ele>362.60000610352</ele>
        <time>2021-03-10T14:43:59.000Z</time>
      </trkpt>
      <trkpt lat="46.33601" lon="5.3835">
        <ele>363</ele>
        <time>2021-03-10T14:44:00.000Z</time>
      </trkpt>
      <trkpt lat="46.33601" lon="5.38355">
        <ele>363.20001220703</ele>
        <time>2021-03-10T14:44:01.000Z</time>
      </trkpt>
      <trkpt lat="46.336" lon="5.38364">
        <ele>363.60000610352</ele>
        <time>2021-03-10T14:44:03.000Z</time>
      </trkpt>
      <trkpt lat="46.336" lon="5.38368">
        <ele>364</ele>
        <time>2021-03-10T14:44:04.000Z</time>
      </trkpt>
      <trkpt lat="46.33599" lon="5.38373">
        <ele>364.20001220703</ele>
        <time>2021-03-10T14:44:05.000Z</time>
      </trkpt>
      <trkpt lat="46.33599" lon="5.38377">
        <ele>364.20001220703</ele>
        <time>2021-03-10T14:44:06.000Z</time>
      </trkpt>
      <trkpt lat="46.33599" lon="5.38381">
        <ele>364.39999389648</ele>
        <time>2021-03-10T14:44:07.000Z</time>
      </trkpt>
      <trkpt lat="46.33599" lon="5.3839">
        <ele>365.20001220703</ele>
        <time>2021-03-10T14:44:09.000Z</time>
      </trkpt>
      <trkpt lat="46.33599" lon="5.38399">
        <ele>365.79998779297</ele>
        <time>2021-03-10T14:44:11.000Z</time>
      </trkpt>
      <trkpt lat="46.33598" lon="5.38408">
        <ele>366.39999389648</ele>
        <time>2021-03-10T14:44:13.000Z</time>
      </trkpt>
      <trkpt lat="46.33598" lon="5.38416">
        <ele>367</ele>
        <time>2021-03-10T14:44:15.000Z</time>
      </trkpt>
      <trkpt lat="46.33598" lon="5.38425">
        <ele>367.60000610352</ele>
        <time>2021-03-10T14:44:17.000Z</time>
      </trkpt>
      <trkpt lat="46.33597" lon="5.3843">
        <ele>367.79998779297</ele>
        <time>2021-03-10T14:44:18.000Z</time>
      </trkpt>
      <trkpt lat="46.33597" lon="5.38434">
        <ele>368</ele>
        <time>2021-03-10T14:44:19.000Z</time>
      </trkpt>
      <trkpt lat="46.33597" lon="5.38443">
        <ele>368.39999389648</ele>
        <time>2021-03-10T14:44:21.000Z</time>
      </trkpt>
      <trkpt lat="46.33596" lon="5.38448">
        <ele>368.60000610352</ele>
        <time>2021-03-10T14:44:22.000Z</time>
      </trkpt>
      <trkpt lat="46.33596" lon="5.38452">
        <ele>369</ele>
        <time>2021-03-10T14:44:23.000Z</time>
      </trkpt>
      <trkpt lat="46.33594" lon="5.38461">
        <ele>369.20001220703</ele>
        <time>2021-03-10T14:44:25.000Z</time>
      </trkpt>
      <trkpt lat="46.33593" lon="5.38469">
        <ele>369.60000610352</ele>
        <time>2021-03-10T14:44:27.000Z</time>
      </trkpt>
      <trkpt lat="46.33592" lon="5.38473">
        <ele>369.79998779297</ele>
        <time>2021-03-10T14:44:28.000Z</time>
      </trkpt>
      <trkpt lat="46.33592" lon="5.38478">
        <ele>370</ele>
        <time>2021-03-10T14:44:29.000Z</time>
      </trkpt>
      <trkpt lat="46.3359" lon="5.38486">
        <ele>370.39999389648</ele>
        <time>2021-03-10T14:44:31.000Z</time>
      </trkpt>
      <trkpt lat="46.33589" lon="5.38495">
        <ele>370.79998779297</ele>
        <time>2021-03-10T14:44:33.000Z</time>
      </trkpt>
      <trkpt lat="46.33587" lon="5.38503">
        <ele>371.20001220703</ele>
        <time>2021-03-10T14:44:35.000Z</time>
      </trkpt>
      <trkpt lat="46.33585" lon="5.38512">
        <ele>371.79998779297</ele>
        <time>2021-03-10T14:44:37.000Z</time>
      </trkpt>
      <trkpt lat="46.33584" lon="5.38517">
        <ele>372.39999389648</ele>
        <time>2021-03-10T14:44:38.000Z</time>
      </trkpt>
      <trkpt lat="46.33583" lon="5.38521">
        <ele>372.39999389648</ele>
        <time>2021-03-10T14:44:39.000Z</time>
      </trkpt>
      <trkpt lat="46.3358" lon="5.3853">
        <ele>372.79998779297</ele>
        <time>2021-03-10T14:44:41.000Z</time>
      </trkpt>
      <trkpt lat="46.33577" lon="5.38539">
        <ele>373.20001220703</ele>
        <time>2021-03-10T14:44:43.000Z</time>
      </trkpt>
      <trkpt lat="46.33576" lon="5.38543">
        <ele>373.60000610352</ele>
        <time>2021-03-10T14:44:44.000Z</time>
      </trkpt>
      <trkpt lat="46.33574" lon="5.38547">
        <ele>373.79998779297</ele>
        <time>2021-03-10T14:44:45.000Z</time>
      </trkpt>
      <trkpt lat="46.33571" lon="5.38556">
        <ele>374.20001220703</ele>
        <time>2021-03-10T14:44:47.000Z</time>
      </trkpt>
      <trkpt lat="46.33569" lon="5.3856">
        <ele>374.20001220703</ele>
        <time>2021-03-10T14:44:48.000Z</time>
      </trkpt>
      <trkpt lat="46.33567" lon="5.38564">
        <ele>374.39999389648</ele>
        <time>2021-03-10T14:44:49.000Z</time>
      </trkpt>
      <trkpt lat="46.33563" lon="5.38573">
        <ele>374.60000610352</ele>
        <time>2021-03-10T14:44:51.000Z</time>
      </trkpt>
      <trkpt lat="46.33561" lon="5.38577">
        <ele>374.79998779297</ele>
        <time>2021-03-10T14:44:52.000Z</time>
      </trkpt>
      <trkpt lat="46.33558" lon="5.38581">
        <ele>374.79998779297</ele>
        <time>2021-03-10T14:44:53.000Z</time>
      </trkpt>
      <trkpt lat="46.33554" lon="5.38589">
        <ele>375.39999389648</ele>
        <time>2021-03-10T14:44:55.000Z</time>
      </trkpt>
      <trkpt lat="46.3355" lon="5.38597">
        <ele>375.60000610352</ele>
        <time>2021-03-10T14:44:57.000Z</time>
      </trkpt>
      <trkpt lat="46.33547" lon="5.38606">
        <ele>375.79998779297</ele>
        <time>2021-03-10T14:44:59.000Z</time>
      </trkpt>
      <trkpt lat="46.33546" lon="5.38615">
        <ele>376.20001220703</ele>
        <time>2021-03-10T14:45:01.000Z</time>
      </trkpt>
      <trkpt lat="46.33546" lon="5.3862">
        <ele>376.39999389648</ele>
        <time>2021-03-10T14:45:02.000Z</time>
      </trkpt>
      <trkpt lat="46.33547" lon="5.38625">
        <ele>376.60000610352</ele>
        <time>2021-03-10T14:45:03.000Z</time>
      </trkpt>
      <trkpt lat="46.3355" lon="5.38633">
        <ele>377.20001220703</ele>
        <time>2021-03-10T14:45:05.000Z</time>
      </trkpt>
      <trkpt lat="46.33552" lon="5.38636">
        <ele>377.60000610352</ele>
        <time>2021-03-10T14:45:06.000Z</time>
      </trkpt>
      <trkpt lat="46.33555" lon="5.38638">
        <ele>377.79998779297</ele>
        <time>2021-03-10T14:45:07.000Z</time>
      </trkpt>
      <trkpt lat="46.33561" lon="5.38641">
        <ele>378.20001220703</ele>
        <time>2021-03-10T14:45:09.000Z</time>
      </trkpt>
      <trkpt lat="46.33564" lon="5.38641">
        <ele>378.39999389648</ele>
        <time>2021-03-10T14:45:10.000Z</time>
      </trkpt>
      <trkpt lat="46.33567" lon="5.38642">
        <ele>378.79998779297</ele>
        <time>2021-03-10T14:45:11.000Z</time>
      </trkpt>
      <trkpt lat="46.33573" lon="5.38641">
        <ele>379.39999389648</ele>
        <time>2021-03-10T14:45:13.000Z</time>
      </trkpt>
      <trkpt lat="46.33577" lon="5.3864">
        <ele>379.60000610352</ele>
        <time>2021-03-10T14:45:14.000Z</time>
      </trkpt>
      <trkpt lat="46.3358" lon="5.38639">
        <ele>380</ele>
        <time>2021-03-10T14:45:15.000Z</time>
      </trkpt>
      <trkpt lat="46.33586" lon="5.38636">
        <ele>380.60000610352</ele>
        <time>2021-03-10T14:45:17.000Z</time>
      </trkpt>
      <trkpt lat="46.33589" lon="5.38634">
        <ele>381</ele>
        <time>2021-03-10T14:45:18.000Z</time>
      </trkpt>
      <trkpt lat="46.33592" lon="5.38632">
        <ele>381.20001220703</ele>
        <time>2021-03-10T14:45:19.000Z</time>
      </trkpt>
      <trkpt lat="46.33597" lon="5.38628">
        <ele>381.60000610352</ele>
        <time>2021-03-10T14:45:21.000Z</time>
      </trkpt>
      <trkpt lat="46.33603" lon="5.38624">
        <ele>382.20001220703</ele>
        <time>2021-03-10T14:45:23.000Z</time>
      </trkpt>
      <trkpt lat="46.33608" lon="5.38618">
        <ele>382.39999389648</ele>
        <time>2021-03-10T14:45:25.000Z</time>
      </trkpt>
      <trkpt lat="46.33614" lon="5.38612">
        <ele>382.79998779297</ele>
        <time>2021-03-10T14:45:27.000Z</time>
      </trkpt>
      <trkpt lat="46.33619" lon="5.38606">
        <ele>383.39999389648</ele>
        <time>2021-03-10T14:45:29.000Z</time>
      </trkpt>
      <trkpt lat="46.33624" lon="5.38601">
        <ele>384</ele>
        <time>2021-03-10T14:45:31.000Z</time>
      </trkpt>
      <trkpt lat="46.33629" lon="5.38594">
        <ele>384.39999389648</ele>
        <time>2021-03-10T14:45:33.000Z</time>
      </trkpt>
      <trkpt lat="46.33631" lon="5.38591">
        <ele>385</ele>
        <time>2021-03-10T14:45:34.000Z</time>
      </trkpt>
      <trkpt lat="46.33634" lon="5.38588">
        <ele>385</ele>
        <time>2021-03-10T14:45:35.000Z</time>
      </trkpt>
      <trkpt lat="46.33636" lon="5.38585">
        <ele>385.20001220703</ele>
        <time>2021-03-10T14:45:36.000Z</time>
      </trkpt>
      <trkpt lat="46.33639" lon="5.38582">
        <ele>385.20001220703</ele>
        <time>2021-03-10T14:45:37.000Z</time>
      </trkpt>
      <trkpt lat="46.33643" lon="5.38576">
        <ele>385.39999389648</ele>
        <time>2021-03-10T14:45:39.000Z</time>
      </trkpt>
      <trkpt lat="46.33648" lon="5.3857">
        <ele>385.60000610352</ele>
        <time>2021-03-10T14:45:41.000Z</time>
      </trkpt>
      <trkpt lat="46.33652" lon="5.38564">
        <ele>386.20001220703</ele>
        <time>2021-03-10T14:45:43.000Z</time>
      </trkpt>
      <trkpt lat="46.33657" lon="5.38558">
        <ele>386.60000610352</ele>
        <time>2021-03-10T14:45:45.000Z</time>
      </trkpt>
      <trkpt lat="46.33662" lon="5.38552">
        <ele>387.20001220703</ele>
        <time>2021-03-10T14:45:47.000Z</time>
      </trkpt>
      <trkpt lat="46.33664" lon="5.38549">
        <ele>387.39999389648</ele>
        <time>2021-03-10T14:45:48.000Z</time>
      </trkpt>
      <trkpt lat="46.33666" lon="5.38545">
        <ele>387.60000610352</ele>
        <time>2021-03-10T14:45:49.000Z</time>
      </trkpt>
      <trkpt lat="46.3367" lon="5.38539">
        <ele>388.20001220703</ele>
        <time>2021-03-10T14:45:51.000Z</time>
      </trkpt>
      <trkpt lat="46.33673" lon="5.38536">
        <ele>388.39999389648</ele>
        <time>2021-03-10T14:45:52.000Z</time>
      </trkpt>
      <trkpt lat="46.33675" lon="5.38532">
        <ele>388.60000610352</ele>
        <time>2021-03-10T14:45:53.000Z</time>
      </trkpt>
      <trkpt lat="46.33679" lon="5.38525">
        <ele>389</ele>
        <time>2021-03-10T14:45:55.000Z</time>
      </trkpt>
      <trkpt lat="46.33683" lon="5.38518">
        <ele>389.39999389648</ele>
        <time>2021-03-10T14:45:57.000Z</time>
      </trkpt>
      <trkpt lat="46.33688" lon="5.38511">
        <ele>389.79998779297</ele>
        <time>2021-03-10T14:45:59.000Z</time>
      </trkpt>
      <trkpt lat="46.33691" lon="5.38503">
        <ele>390.39999389648</ele>
        <time>2021-03-10T14:46:01.000Z</time>
      </trkpt>
      <trkpt lat="46.33694" lon="5.385">
        <ele>390.79998779297</ele>
        <time>2021-03-10T14:46:02.000Z</time>
      </trkpt>
      <trkpt lat="46.33696" lon="5.38496">
        <ele>391</ele>
        <time>2021-03-10T14:46:03.000Z</time>
      </trkpt>
      <trkpt lat="46.337" lon="5.38488">
        <ele>391.20001220703</ele>
        <time>2021-03-10T14:46:05.000Z</time>
      </trkpt>
      <trkpt lat="46.33704" lon="5.3848">
        <ele>391.60000610352</ele>
        <time>2021-03-10T14:46:07.000Z</time>
      </trkpt>
      <trkpt lat="46.33706" lon="5.38476">
        <ele>391.79998779297</ele>
        <time>2021-03-10T14:46:08.000Z</time>
      </trkpt>
      <trkpt lat="46.33708" lon="5.38472">
        <ele>392</ele>
        <time>2021-03-10T14:46:09.000Z</time>
      </trkpt>
      <trkpt lat="46.33713" lon="5.38464">
        <ele>392.20001220703</ele>
        <time>2021-03-10T14:46:11.000Z</time>
      </trkpt>
      <trkpt lat="46.33715" lon="5.3846">
        <ele>392.39999389648</ele>
        <time>2021-03-10T14:46:12.000Z</time>
      </trkpt>
      <trkpt lat="46.33718" lon="5.38456">
        <ele>392.60000610352</ele>
        <time>2021-03-10T14:46:13.000Z</time>
      </trkpt>
      <trkpt lat="46.33723" lon="5.38449">
        <ele>392.79998779297</ele>
        <time>2021-03-10T14:46:15.000Z</time>
      </trkpt>
      <trkpt lat="46.33727" lon="5.38442">
        <ele>393.39999389648</ele>
        <time>2021-03-10T14:46:17.000Z</time>
      </trkpt>
      <trkpt lat="46.33733" lon="5.38435">
        <ele>393.79998779297</ele>
        <time>2021-03-10T14:46:19.000Z</time>
      </trkpt>
      <trkpt lat="46.33736" lon="5.38431">
        <ele>394</ele>
        <time>2021-03-10T14:46:20.000Z</time>
      </trkpt>
      <trkpt lat="46.33738" lon="5.38427">
        <ele>394</ele>
        <time>2021-03-10T14:46:21.000Z</time>
      </trkpt>
      <trkpt lat="46.33744" lon="5.3842">
        <ele>394.39999389648</ele>
        <time>2021-03-10T14:46:23.000Z</time>
      </trkpt>
      <trkpt lat="46.33749" lon="5.38412">
        <ele>394.79998779297</ele>
        <time>2021-03-10T14:46:25.000Z</time>
      </trkpt>
      <trkpt lat="46.33751" lon="5.38407">
        <ele>395.20001220703</ele>
        <time>2021-03-10T14:46:26.000Z</time>
      </trkpt>
      <trkpt lat="46.33753" lon="5.38402">
        <ele>395.39999389648</ele>
        <time>2021-03-10T14:46:27.000Z</time>
      </trkpt>
      <trkpt lat="46.33754" lon="5.38397">
        <ele>395.60000610352</ele>
        <time>2021-03-10T14:46:28.000Z</time>
      </trkpt>
      <trkpt lat="46.33756" lon="5.38392">
        <ele>395.79998779297</ele>
        <time>2021-03-10T14:46:29.000Z</time>
      </trkpt>
      <trkpt lat="46.33757" lon="5.38387">
        <ele>396.39999389648</ele>
        <time>2021-03-10T14:46:30.000Z</time>
      </trkpt>
      <trkpt lat="46.33758" lon="5.38382">
        <ele>396.60000610352</ele>
        <time>2021-03-10T14:46:31.000Z</time>
      </trkpt>
      <trkpt lat="46.3376" lon="5.38372">
        <ele>397.20001220703</ele>
        <time>2021-03-10T14:46:33.000Z</time>
      </trkpt>
      <trkpt lat="46.33762" lon="5.38362">
        <ele>397.39999389648</ele>
        <time>2021-03-10T14:46:35.000Z</time>
      </trkpt>
      <trkpt lat="46.33763" lon="5.38357">
        <ele>397.60000610352</ele>
        <time>2021-03-10T14:46:36.000Z</time>
      </trkpt>
      <trkpt lat="46.33764" lon="5.38352">
        <ele>397.79998779297</ele>
        <time>2021-03-10T14:46:37.000Z</time>
      </trkpt>
      <trkpt lat="46.33766" lon="5.38341">
        <ele>398.20001220703</ele>
        <time>2021-03-10T14:46:39.000Z</time>
      </trkpt>
      <trkpt lat="46.33769" lon="5.38332">
        <ele>398.79998779297</ele>
        <time>2021-03-10T14:46:41.000Z</time>
      </trkpt>
      <trkpt lat="46.33771" lon="5.38322">
        <ele>399.39999389648</ele>
        <time>2021-03-10T14:46:43.000Z</time>
      </trkpt>
      <trkpt lat="46.33774" lon="5.38313">
        <ele>399.60000610352</ele>
        <time>2021-03-10T14:46:45.000Z</time>
      </trkpt>
      <trkpt lat="46.33778" lon="5.38304">
        <ele>399.79998779297</ele>
        <time>2021-03-10T14:46:47.000Z</time>
      </trkpt>
      <trkpt lat="46.33779" lon="5.38299">
        <ele>400.20001220703</ele>
        <time>2021-03-10T14:46:48.000Z</time>
      </trkpt>
      <trkpt lat="46.33781" lon="5.38294">
        <ele>400.39999389648</ele>
        <time>2021-03-10T14:46:49.000Z</time>
      </trkpt>
      <trkpt lat="46.33785" lon="5.38285">
        <ele>401</ele>
        <time>2021-03-10T14:46:51.000Z</time>
      </trkpt>
      <trkpt lat="46.33787" lon="5.38281">
        <ele>401.20001220703</ele>
        <time>2021-03-10T14:46:52.000Z</time>
      </trkpt>
      <trkpt lat="46.33789" lon="5.38277">
        <ele>401.39999389648</ele>
        <time>2021-03-10T14:46:53.000Z</time>
      </trkpt>
      <trkpt lat="46.33793" lon="5.38268">
        <ele>401.79998779297</ele>
        <time>2021-03-10T14:46:55.000Z</time>
      </trkpt>
      <trkpt lat="46.33796" lon="5.38259">
        <ele>402.20001220703</ele>
        <time>2021-03-10T14:46:57.000Z</time>
      </trkpt>
      <trkpt lat="46.33798" lon="5.38254">
        <ele>402.60000610352</ele>
        <time>2021-03-10T14:46:58.000Z</time>
      </trkpt>
      <trkpt lat="46.338" lon="5.3825">
        <ele>403</ele>
        <time>2021-03-10T14:46:59.000Z</time>
      </trkpt>
      <trkpt lat="46.33803" lon="5.38241">
        <ele>403.60000610352</ele>
        <time>2021-03-10T14:47:01.000Z</time>
      </trkpt>
      <trkpt lat="46.33806" lon="5.38232">
        <ele>404.20001220703</ele>
        <time>2021-03-10T14:47:03.000Z</time>
      </trkpt>
      <trkpt lat="46.3381" lon="5.38224">
        <ele>404.60000610352</ele>
        <time>2021-03-10T14:47:05.000Z</time>
      </trkpt>
      <trkpt lat="46.33814" lon="5.38216">
        <ele>405.20001220703</ele>
        <time>2021-03-10T14:47:07.000Z</time>
      </trkpt>
      <trkpt lat="46.33818" lon="5.38207">
        <ele>405.79998779297</ele>
        <time>2021-03-10T14:47:09.000Z</time>
      </trkpt>
      <trkpt lat="46.33822" lon="5.382">
        <ele>406.20001220703</ele>
        <time>2021-03-10T14:47:11.000Z</time>
      </trkpt>
      <trkpt lat="46.33825" lon="5.38196">
        <ele>406.60000610352</ele>
        <time>2021-03-10T14:47:12.000Z</time>
      </trkpt>
      <trkpt lat="46.33827" lon="5.38192">
        <ele>406.79998779297</ele>
        <time>2021-03-10T14:47:13.000Z</time>
      </trkpt>
      <trkpt lat="46.33829" lon="5.38188">
        <ele>407</ele>
        <time>2021-03-10T14:47:14.000Z</time>
      </trkpt>
      <trkpt lat="46.33831" lon="5.38185">
        <ele>407.20001220703</ele>
        <time>2021-03-10T14:47:15.000Z</time>
      </trkpt>
      <trkpt lat="46.33835" lon="5.38178">
        <ele>407.60000610352</ele>
        <time>2021-03-10T14:47:17.000Z</time>
      </trkpt>
      <trkpt lat="46.33838" lon="5.38169">
        <ele>408.20001220703</ele>
        <time>2021-03-10T14:47:19.000Z</time>
      </trkpt>
      <trkpt lat="46.3384" lon="5.38166">
        <ele>408.39999389648</ele>
        <time>2021-03-10T14:47:20.000Z</time>
      </trkpt>
      <trkpt lat="46.33842" lon="5.38162">
        <ele>408.79998779297</ele>
        <time>2021-03-10T14:47:21.000Z</time>
      </trkpt>
      <trkpt lat="46.33846" lon="5.38154">
        <ele>409.20001220703</ele>
        <time>2021-03-10T14:47:23.000Z</time>
      </trkpt>
      <trkpt lat="46.33847" lon="5.3815">
        <ele>409.39999389648</ele>
        <time>2021-03-10T14:47:24.000Z</time>
      </trkpt>
      <trkpt lat="46.33849" lon="5.38146">
        <ele>409.60000610352</ele>
        <time>2021-03-10T14:47:25.000Z</time>
      </trkpt>
      <trkpt lat="46.33851" lon="5.38142">
        <ele>409.79998779297</ele>
        <time>2021-03-10T14:47:26.000Z</time>
      </trkpt>
      <trkpt lat="46.33853" lon="5.38138">
        <ele>410.20001220703</ele>
        <time>2021-03-10T14:47:27.000Z</time>
      </trkpt>
      <trkpt lat="46.33855" lon="5.38135">
        <ele>410.60000610352</ele>
        <time>2021-03-10T14:47:28.000Z</time>
      </trkpt>
      <trkpt lat="46.33858" lon="5.38133">
        <ele>410.60000610352</ele>
        <time>2021-03-10T14:47:29.000Z</time>
      </trkpt>
      <trkpt lat="46.33861" lon="5.38133">
        <ele>411</ele>
        <time>2021-03-10T14:47:30.000Z</time>
      </trkpt>
      <trkpt lat="46.33863" lon="5.38134">
        <ele>411.20001220703</ele>
        <time>2021-03-10T14:47:31.000Z</time>
      </trkpt>
      <trkpt lat="46.33866" lon="5.3814">
        <ele>411.60000610352</ele>
        <time>2021-03-10T14:47:33.000Z</time>
      </trkpt>
      <trkpt lat="46.33866" lon="5.38148">
        <ele>412</ele>
        <time>2021-03-10T14:47:35.000Z</time>
      </trkpt>
      <trkpt lat="46.33864" lon="5.38152">
        <ele>412.39999389648</ele>
        <time>2021-03-10T14:47:36.000Z</time>
      </trkpt>
      <trkpt lat="46.33862" lon="5.38156">
        <ele>412.60000610352</ele>
        <time>2021-03-10T14:47:37.000Z</time>
      </trkpt>
      <trkpt lat="46.3386" lon="5.38165">
        <ele>413.20001220703</ele>
        <time>2021-03-10T14:47:39.000Z</time>
      </trkpt>
      <trkpt lat="46.33859" lon="5.38175">
        <ele>413.79998779297</ele>
        <time>2021-03-10T14:47:41.000Z</time>
      </trkpt>
      <trkpt lat="46.33858" lon="5.38179">
        <ele>414.20001220703</ele>
        <time>2021-03-10T14:47:42.000Z</time>
      </trkpt>
      <trkpt lat="46.33858" lon="5.38184">
        <ele>414.39999389648</ele>
        <time>2021-03-10T14:47:43.000Z</time>
      </trkpt>
      <trkpt lat="46.33856" lon="5.38194">
        <ele>414.39999389648</ele>
        <time>2021-03-10T14:47:45.000Z</time>
      </trkpt>
      <trkpt lat="46.33855" lon="5.38203">
        <ele>415</ele>
        <time>2021-03-10T14:47:47.000Z</time>
      </trkpt>
      <trkpt lat="46.33854" lon="5.38213">
        <ele>416</ele>
        <time>2021-03-10T14:47:49.000Z</time>
      </trkpt>
      <trkpt lat="46.33853" lon="5.38222">
        <ele>416.20001220703</ele>
        <time>2021-03-10T14:47:51.000Z</time>
      </trkpt>
      <trkpt lat="46.33852" lon="5.38231">
        <ele>416.60000610352</ele>
        <time>2021-03-10T14:47:53.000Z</time>
      </trkpt>
      <trkpt lat="46.33851" lon="5.3824">
        <ele>417.20001220703</ele>
        <time>2021-03-10T14:47:55.000Z</time>
      </trkpt>
      <trkpt lat="46.3385" lon="5.38245">
        <ele>417.39999389648</ele>
        <time>2021-03-10T14:47:56.000Z</time>
      </trkpt>
      <trkpt lat="46.3385" lon="5.38249">
        <ele>417.60000610352</ele>
        <time>2021-03-10T14:47:57.000Z</time>
      </trkpt>
      <trkpt lat="46.3385" lon="5.38259">
        <ele>418</ele>
        <time>2021-03-10T14:47:59.000Z</time>
      </trkpt>
      <trkpt lat="46.33849" lon="5.38268">
        <ele>418.39999389648</ele>
        <time>2021-03-10T14:48:01.000Z</time>
      </trkpt>
      <trkpt lat="46.33849" lon="5.38272">
        <ele>418.39999389648</ele>
        <time>2021-03-10T14:48:02.000Z</time>
      </trkpt>
      <trkpt lat="46.33849" lon="5.38277">
        <ele>418.79998779297</ele>
        <time>2021-03-10T14:48:03.000Z</time>
      </trkpt>
      <trkpt lat="46.33849" lon="5.38286">
        <ele>419.20001220703</ele>
        <time>2021-03-10T14:48:05.000Z</time>
      </trkpt>
      <trkpt lat="46.33848" lon="5.38296">
        <ele>419.60000610352</ele>
        <time>2021-03-10T14:48:07.000Z</time>
      </trkpt>
      <trkpt lat="46.33848" lon="5.38305">
        <ele>420.20001220703</ele>
        <time>2021-03-10T14:48:09.000Z</time>
      </trkpt>
      <trkpt lat="46.33848" lon="5.38315">
        <ele>420.60000610352</ele>
        <time>2021-03-10T14:48:11.000Z</time>
      </trkpt>
      <trkpt lat="46.33848" lon="5.3832">
        <ele>420.60000610352</ele>
        <time>2021-03-10T14:48:12.000Z</time>
      </trkpt>
      <trkpt lat="46.33848" lon="5.38326">
        <ele>420.79998779297</ele>
        <time>2021-03-10T14:48:13.000Z</time>
      </trkpt>
      <trkpt lat="46.33848" lon="5.38336">
        <ele>421</ele>
        <time>2021-03-10T14:48:15.000Z</time>
      </trkpt>
      <trkpt lat="46.33849" lon="5.38347">
        <ele>421.60000610352</ele>
        <time>2021-03-10T14:48:17.000Z</time>
      </trkpt>
      <trkpt lat="46.33849" lon="5.38352">
        <ele>421.79998779297</ele>
        <time>2021-03-10T14:48:18.000Z</time>
      </trkpt>
      <trkpt lat="46.33849" lon="5.38357">
        <ele>422.20001220703</ele>
        <time>2021-03-10T14:48:19.000Z</time>
      </trkpt>
      <trkpt lat="46.3385" lon="5.38367">
        <ele>422.60000610352</ele>
        <time>2021-03-10T14:48:21.000Z</time>
      </trkpt>
      <trkpt lat="46.33852" lon="5.38377">
        <ele>423.20001220703</ele>
        <time>2021-03-10T14:48:23.000Z</time>
      </trkpt>
      <trkpt lat="46.33853" lon="5.38387">
        <ele>423.79998779297</ele>
        <time>2021-03-10T14:48:25.000Z</time>
      </trkpt>
      <trkpt lat="46.33854" lon="5.38397">
        <ele>424.60000610352</ele>
        <time>2021-03-10T14:48:27.000Z</time>
      </trkpt>
      <trkpt lat="46.33855" lon="5.38407">
        <ele>425.39999389648</ele>
        <time>2021-03-10T14:48:29.000Z</time>
      </trkpt>
      <trkpt lat="46.33856" lon="5.38412">
        <ele>425.60000610352</ele>
        <time>2021-03-10T14:48:30.000Z</time>
      </trkpt>
      <trkpt lat="46.33857" lon="5.38417">
        <ele>425.79998779297</ele>
        <time>2021-03-10T14:48:31.000Z</time>
      </trkpt>
      <trkpt lat="46.33858" lon="5.38422">
        <ele>425.79998779297</ele>
        <time>2021-03-10T14:48:32.000Z</time>
      </trkpt>
      <trkpt lat="46.33859" lon="5.38427">
        <ele>426</ele>
        <time>2021-03-10T14:48:33.000Z</time>
      </trkpt>
      <trkpt lat="46.33862" lon="5.38437">
        <ele>426.60000610352</ele>
        <time>2021-03-10T14:48:35.000Z</time>
      </trkpt>
      <trkpt lat="46.33864" lon="5.38448">
        <ele>427.20001220703</ele>
        <time>2021-03-10T14:48:37.000Z</time>
      </trkpt>
      <trkpt lat="46.33865" lon="5.38459">
        <ele>427.79998779297</ele>
        <time>2021-03-10T14:48:39.000Z</time>
      </trkpt>
      <trkpt lat="46.33866" lon="5.38465">
        <ele>428</ele>
        <time>2021-03-10T14:48:40.000Z</time>
      </trkpt>
      <trkpt lat="46.33865" lon="5.38471">
        <ele>428.39999389648</ele>
        <time>2021-03-10T14:48:41.000Z</time>
      </trkpt>
      <trkpt lat="46.33864" lon="5.38482">
        <ele>429</ele>
        <time>2021-03-10T14:48:43.000Z</time>
      </trkpt>
      <trkpt lat="46.33861" lon="5.38492">
        <ele>429.39999389648</ele>
        <time>2021-03-10T14:48:45.000Z</time>
      </trkpt>
      <trkpt lat="46.33858" lon="5.38501">
        <ele>429.79998779297</ele>
        <time>2021-03-10T14:48:47.000Z</time>
      </trkpt>
      <trkpt lat="46.33854" lon="5.3851">
        <ele>430</ele>
        <time>2021-03-10T14:48:49.000Z</time>
      </trkpt>
      <trkpt lat="46.3385" lon="5.38519">
        <ele>430.60000610352</ele>
        <time>2021-03-10T14:48:51.000Z</time>
      </trkpt>
      <trkpt lat="46.33846" lon="5.38528">
        <ele>431.20001220703</ele>
        <time>2021-03-10T14:48:53.000Z</time>
      </trkpt>
      <trkpt lat="46.33843" lon="5.38537">
        <ele>431.79998779297</ele>
        <time>2021-03-10T14:48:55.000Z</time>
      </trkpt>
      <trkpt lat="46.33839" lon="5.38546">
        <ele>432.39999389648</ele>
        <time>2021-03-10T14:48:57.000Z</time>
      </trkpt>
      <trkpt lat="46.33836" lon="5.38554">
        <ele>433</ele>
        <time>2021-03-10T14:48:59.000Z</time>
      </trkpt>
      <trkpt lat="46.33835" lon="5.38559">
        <ele>433.39999389648</ele>
        <time>2021-03-10T14:49:00.000Z</time>
      </trkpt>
      <trkpt lat="46.33833" lon="5.38564">
        <ele>433.60000610352</ele>
        <time>2021-03-10T14:49:01.000Z</time>
      </trkpt>
      <trkpt lat="46.3383" lon="5.38574">
        <ele>434</ele>
        <time>2021-03-10T14:49:03.000Z</time>
      </trkpt>
      <trkpt lat="46.33828" lon="5.38584">
        <ele>434.39999389648</ele>
        <time>2021-03-10T14:49:05.000Z</time>
      </trkpt>
      <trkpt lat="46.33825" lon="5.38595">
        <ele>435</ele>
        <time>2021-03-10T14:49:07.000Z</time>
      </trkpt>
      <trkpt lat="46.33823" lon="5.38605">
        <ele>435.39999389648</ele>
        <time>2021-03-10T14:49:09.000Z</time>
      </trkpt>
      <trkpt lat="46.33822" lon="5.3861">
        <ele>435.60000610352</ele>
        <time>2021-03-10T14:49:10.000Z</time>
      </trkpt>
      <trkpt lat="46.33822" lon="5.38616">
        <ele>435.79998779297</ele>
        <time>2021-03-10T14:49:11.000Z</time>
      </trkpt>
      <trkpt lat="46.33821" lon="5.38626">
        <ele>436</ele>
        <time>2021-03-10T14:49:13.000Z</time>
      </trkpt>
      <trkpt lat="46.33821" lon="5.38637">
        <ele>436.20001220703</ele>
        <time>2021-03-10T14:49:15.000Z</time>
      </trkpt>
      <trkpt lat="46.33821" lon="5.38648">
        <ele>436.60000610352</ele>
        <time>2021-03-10T14:49:17.000Z</time>
      </trkpt>
      <trkpt lat="46.33822" lon="5.38654">
        <ele>436.60000610352</ele>
        <time>2021-03-10T14:49:18.000Z</time>
      </trkpt>
      <trkpt lat="46.33824" lon="5.38659">
        <ele>437.39999389648</ele>
        <time>2021-03-10T14:49:19.000Z</time>
      </trkpt>
      <trkpt lat="46.33828" lon="5.38668">
        <ele>437.79998779297</ele>
        <time>2021-03-10T14:49:21.000Z</time>
      </trkpt>
      <trkpt lat="46.3383" lon="5.38672">
        <ele>438</ele>
        <time>2021-03-10T14:49:22.000Z</time>
      </trkpt>
      <trkpt lat="46.33833" lon="5.38676">
        <ele>438.20001220703</ele>
        <time>2021-03-10T14:49:23.000Z</time>
      </trkpt>
      <trkpt lat="46.33838" lon="5.38683">
        <ele>438.79998779297</ele>
        <time>2021-03-10T14:49:25.000Z</time>
      </trkpt>
      <trkpt lat="46.33844" lon="5.3869">
        <ele>439</ele>
        <time>2021-03-10T14:49:27.000Z</time>
      </trkpt>
      <trkpt lat="46.33847" lon="5.38693">
        <ele>439.20001220703</ele>
        <time>2021-03-10T14:49:28.000Z</time>
      </trkpt>
      <trkpt lat="46.3385" lon="5.38696">
        <ele>439.39999389648</ele>
        <time>2021-03-10T14:49:29.000Z</time>
      </trkpt>
      <trkpt lat="46.33853" lon="5.38698">
        <ele>439.79998779297</ele>
        <time>2021-03-10T14:49:30.000Z</time>
      </trkpt>
      <trkpt lat="46.33856" lon="5.387">
        <ele>440</ele>
        <time>2021-03-10T14:49:31.000Z</time>
      </trkpt>
      <trkpt lat="46.33859" lon="5.38702">
        <ele>440.39999389648</ele>
        <time>2021-03-10T14:49:32.000Z</time>
      </trkpt>
      <trkpt lat="46.33863" lon="5.38704">
        <ele>440.39999389648</ele>
        <time>2021-03-10T14:49:33.000Z</time>
      </trkpt>
      <trkpt lat="46.3387" lon="5.38707">
        <ele>440.79998779297</ele>
        <time>2021-03-10T14:49:35.000Z</time>
      </trkpt>
      <trkpt lat="46.33877" lon="5.38709">
        <ele>441.39999389648</ele>
        <time>2021-03-10T14:49:37.000Z</time>
      </trkpt>
      <trkpt lat="46.3388" lon="5.38711">
        <ele>441.60000610352</ele>
        <time>2021-03-10T14:49:38.000Z</time>
      </trkpt>
      <trkpt lat="46.33884" lon="5.38712">
        <ele>442</ele>
        <time>2021-03-10T14:49:39.000Z</time>
      </trkpt>
      <trkpt lat="46.33892" lon="5.38715">
        <ele>442.60000610352</ele>
        <time>2021-03-10T14:49:41.000Z</time>
      </trkpt>
      <trkpt lat="46.339" lon="5.38717">
        <ele>443.20001220703</ele>
        <time>2021-03-10T14:49:43.000Z</time>
      </trkpt>
      <trkpt lat="46.33904" lon="5.38719">
        <ele>443.60000610352</ele>
        <time>2021-03-10T14:49:44.000Z</time>
      </trkpt>
      <trkpt lat="46.33908" lon="5.38721">
        <ele>443.79998779297</ele>
        <time>2021-03-10T14:49:45.000Z</time>
      </trkpt>
      <trkpt lat="46.33912" lon="5.38722">
        <ele>444.20001220703</ele>
        <time>2021-03-10T14:49:46.000Z</time>
      </trkpt>
      <trkpt lat="46.33916" lon="5.38723">
        <ele>444.79998779297</ele>
        <time>2021-03-10T14:49:47.000Z</time>
      </trkpt>
      <trkpt lat="46.33924" lon="5.38726">
        <ele>445</ele>
        <time>2021-03-10T14:49:49.000Z</time>
      </trkpt>
      <trkpt lat="46.33933" lon="5.38729">
        <ele>445.20001220703</ele>
        <time>2021-03-10T14:49:51.000Z</time>
      </trkpt>
      <trkpt lat="46.33941" lon="5.38732">
        <ele>445.60000610352</ele>
        <time>2021-03-10T14:49:53.000Z</time>
      </trkpt>
      <trkpt lat="46.33946" lon="5.38733">
        <ele>445.79998779297</ele>
        <time>2021-03-10T14:49:54.000Z</time>
      </trkpt>
      <trkpt lat="46.3395" lon="5.38735">
        <ele>446.20001220703</ele>
        <time>2021-03-10T14:49:55.000Z</time>
      </trkpt>
      <trkpt lat="46.33958" lon="5.38738">
        <ele>446.60000610352</ele>
        <time>2021-03-10T14:49:57.000Z</time>
      </trkpt>
      <trkpt lat="46.33967" lon="5.38741">
        <ele>447</ele>
        <time>2021-03-10T14:49:59.000Z</time>
      </trkpt>
      <trkpt lat="46.33974" lon="5.38744">
        <ele>447.20001220703</ele>
        <time>2021-03-10T14:50:01.000Z</time>
      </trkpt>
      <trkpt lat="46.33981" lon="5.38747">
        <ele>447.39999389648</ele>
        <time>2021-03-10T14:50:03.000Z</time>
      </trkpt>
      <trkpt lat="46.33988" lon="5.38751">
        <ele>447.79998779297</ele>
        <time>2021-03-10T14:50:05.000Z</time>
      </trkpt>
      <trkpt lat="46.33994" lon="5.38755">
        <ele>448.20001220703</ele>
        <time>2021-03-10T14:50:07.000Z</time>
      </trkpt>
      <trkpt lat="46.34001" lon="5.38759">
        <ele>448.60000610352</ele>
        <time>2021-03-10T14:50:09.000Z</time>
      </trkpt>
      <trkpt lat="46.34008" lon="5.38763">
        <ele>449.39999389648</ele>
        <time>2021-03-10T14:50:11.000Z</time>
      </trkpt>
      <trkpt lat="46.34016" lon="5.38767">
        <ele>449.79998779297</ele>
        <time>2021-03-10T14:50:13.000Z</time>
      </trkpt>
      <trkpt lat="46.34023" lon="5.38772">
        <ele>450.79998779297</ele>
        <time>2021-03-10T14:50:15.000Z</time>
      </trkpt>
      <trkpt lat="46.34028" lon="5.38775">
        <ele>451.20001220703</ele>
        <time>2021-03-10T14:50:16.000Z</time>
      </trkpt>
      <trkpt lat="46.34032" lon="5.38777">
        <ele>451.39999389648</ele>
        <time>2021-03-10T14:50:17.000Z</time>
      </trkpt>
      <trkpt lat="46.34043" lon="5.38783">
        <ele>451.60000610352</ele>
        <time>2021-03-10T14:50:19.000Z</time>
      </trkpt>
      <trkpt lat="46.34053" lon="5.38789">
        <ele>451.79998779297</ele>
        <time>2021-03-10T14:50:21.000Z</time>
      </trkpt>
      <trkpt lat="46.34058" lon="5.38792">
        <ele>451.79998779297</ele>
        <time>2021-03-10T14:50:22.000Z</time>
      </trkpt>
      <trkpt lat="46.34064" lon="5.38795">
        <ele>451.79998779297</ele>
        <time>2021-03-10T14:50:23.000Z</time>
      </trkpt>
      <trkpt lat="46.34075" lon="5.38801">
        <ele>451.79998779297</ele>
        <time>2021-03-10T14:50:25.000Z</time>
      </trkpt>
      <trkpt lat="46.34087" lon="5.38807">
        <ele>451.79998779297</ele>
        <time>2021-03-10T14:50:27.000Z</time>
      </trkpt>
      <trkpt lat="46.34097" lon="5.38813">
        <ele>451.79998779297</ele>
        <time>2021-03-10T14:50:29.000Z</time>
      </trkpt>
      <trkpt lat="46.34108" lon="5.3882">
        <ele>451.79998779297</ele>
        <time>2021-03-10T14:50:31.000Z</time>
      </trkpt>
      <trkpt lat="46.34118" lon="5.38826">
        <ele>451.79998779297</ele>
        <time>2021-03-10T14:50:33.000Z</time>
      </trkpt>
      <trkpt lat="46.34129" lon="5.38833">
        <ele>451.79998779297</ele>
        <time>2021-03-10T14:50:35.000Z</time>
      </trkpt>
      <trkpt lat="46.3414" lon="5.3884">
        <ele>451.79998779297</ele>
        <time>2021-03-10T14:50:37.000Z</time>
      </trkpt>
      <trkpt lat="46.34145" lon="5.38844">
        <ele>451.79998779297</ele>
        <time>2021-03-10T14:50:38.000Z</time>
      </trkpt>
      <trkpt lat="46.34151" lon="5.38847">
        <ele>451.79998779297</ele>
        <time>2021-03-10T14:50:39.000Z</time>
      </trkpt>
      <trkpt lat="46.34165" lon="5.38854">
        <ele>451.79998779297</ele>
        <time>2021-03-10T14:50:41.000Z</time>
      </trkpt>
      <trkpt lat="46.34179" lon="5.38861">
        <ele>451.79998779297</ele>
        <time>2021-03-10T14:50:43.000Z</time>
      </trkpt>
      <trkpt lat="46.34194" lon="5.38869">
        <ele>451.79998779297</ele>
        <time>2021-03-10T14:50:45.000Z</time>
      </trkpt>
      <trkpt lat="46.3421" lon="5.38877">
        <ele>451.79998779297</ele>
        <time>2021-03-10T14:50:47.000Z</time>
      </trkpt>
      <trkpt lat="46.34226" lon="5.38885">
        <ele>451</ele>
        <time>2021-03-10T14:50:49.000Z</time>
      </trkpt>
      <trkpt lat="46.34234" lon="5.3889">
        <ele>450.60000610352</ele>
        <time>2021-03-10T14:50:50.000Z</time>
      </trkpt>
      <trkpt lat="46.34243" lon="5.38895">
        <ele>450.39999389648</ele>
        <time>2021-03-10T14:50:51.000Z</time>
      </trkpt>
      <trkpt lat="46.34251" lon="5.38899">
        <ele>450</ele>
        <time>2021-03-10T14:50:52.000Z</time>
      </trkpt>
      <trkpt lat="46.34259" lon="5.38904">
        <ele>449.60000610352</ele>
        <time>2021-03-10T14:50:53.000Z</time>
      </trkpt>
      <trkpt lat="46.34276" lon="5.38915">
        <ele>449</ele>
        <time>2021-03-10T14:50:55.000Z</time>
      </trkpt>
      <trkpt lat="46.34284" lon="5.3892">
        <ele>448.39999389648</ele>
        <time>2021-03-10T14:50:56.000Z</time>
      </trkpt>
      <trkpt lat="46.34293" lon="5.38925">
        <ele>447.79998779297</ele>
        <time>2021-03-10T14:50:57.000Z</time>
      </trkpt>
      <trkpt lat="46.34301" lon="5.38931">
        <ele>447.20001220703</ele>
        <time>2021-03-10T14:50:58.000Z</time>
      </trkpt>
      <trkpt lat="46.3431" lon="5.38937">
        <ele>446.79998779297</ele>
        <time>2021-03-10T14:50:59.000Z</time>
      </trkpt>
      <trkpt lat="46.34329" lon="5.38948">
        <ele>446</ele>
        <time>2021-03-10T14:51:01.000Z</time>
      </trkpt>
      <trkpt lat="46.34348" lon="5.38958">
        <ele>445.39999389648</ele>
        <time>2021-03-10T14:51:03.000Z</time>
      </trkpt>
      <trkpt lat="46.34369" lon="5.38966">
        <ele>444.79998779297</ele>
        <time>2021-03-10T14:51:05.000Z</time>
      </trkpt>
      <trkpt lat="46.3438" lon="5.38967">
        <ele>444.60000610352</ele>
        <time>2021-03-10T14:51:06.000Z</time>
      </trkpt>
      <trkpt lat="46.34391" lon="5.38966">
        <ele>444</ele>
        <time>2021-03-10T14:51:07.000Z</time>
      </trkpt>
      <trkpt lat="46.34403" lon="5.38962">
        <ele>443.20001220703</ele>
        <time>2021-03-10T14:51:08.000Z</time>
      </trkpt>
      <trkpt lat="46.34414" lon="5.38957">
        <ele>442.20001220703</ele>
        <time>2021-03-10T14:51:09.000Z</time>
      </trkpt>
      <trkpt lat="46.34425" lon="5.38949">
        <ele>441.39999389648</ele>
        <time>2021-03-10T14:51:10.000Z</time>
      </trkpt>
      <trkpt lat="46.34436" lon="5.38942">
        <ele>439.79998779297</ele>
        <time>2021-03-10T14:51:11.000Z</time>
      </trkpt>
      <trkpt lat="46.34458" lon="5.38927">
        <ele>438.79998779297</ele>
        <time>2021-03-10T14:51:13.000Z</time>
      </trkpt>
      <trkpt lat="46.34469" lon="5.3892">
        <ele>437.60000610352</ele>
        <time>2021-03-10T14:51:14.000Z</time>
      </trkpt>
      <trkpt lat="46.3448" lon="5.38912">
        <ele>436.39999389648</ele>
        <time>2021-03-10T14:51:15.000Z</time>
      </trkpt>
      <trkpt lat="46.34501" lon="5.38898">
        <ele>434.39999389648</ele>
        <time>2021-03-10T14:51:17.000Z</time>
      </trkpt>
      <trkpt lat="46.34512" lon="5.3889">
        <ele>433.60000610352</ele>
        <time>2021-03-10T14:51:18.000Z</time>
      </trkpt>
      <trkpt lat="46.34523" lon="5.38883">
        <ele>432.60000610352</ele>
        <time>2021-03-10T14:51:19.000Z</time>
      </trkpt>
      <trkpt lat="46.34533" lon="5.38878">
        <ele>431.60000610352</ele>
        <time>2021-03-10T14:51:20.000Z</time>
      </trkpt>
      <trkpt lat="46.34545" lon="5.38873">
        <ele>431</ele>
        <time>2021-03-10T14:51:21.000Z</time>
      </trkpt>
      <trkpt lat="46.34556" lon="5.38872">
        <ele>430.20001220703</ele>
        <time>2021-03-10T14:51:22.000Z</time>
      </trkpt>
      <trkpt lat="46.34567" lon="5.38874">
        <ele>429.60000610352</ele>
        <time>2021-03-10T14:51:23.000Z</time>
      </trkpt>
      <trkpt lat="46.34578" lon="5.3888">
        <ele>429</ele>
        <time>2021-03-10T14:51:24.000Z</time>
      </trkpt>
      <trkpt lat="46.34587" lon="5.38891">
        <ele>428.60000610352</ele>
        <time>2021-03-10T14:51:25.000Z</time>
      </trkpt>
      <trkpt lat="46.34587" lon="5.38891">
        <ele>428</ele>
        <time>2021-03-10T14:51:26.000Z</time>
      </trkpt>
      <trkpt lat="46.34603" lon="5.38917">
        <ele>427.60000610352</ele>
        <time>2021-03-10T14:51:27.000Z</time>
      </trkpt>
      <trkpt lat="46.34611" lon="5.38931">
        <ele>427.20001220703</ele>
        <time>2021-03-10T14:51:28.000Z</time>
      </trkpt>
      <trkpt lat="46.3462" lon="5.38944">
        <ele>426.60000610352</ele>
        <time>2021-03-10T14:51:29.000Z</time>
      </trkpt>
      <trkpt lat="46.3463" lon="5.38957">
        <ele>426</ele>
        <time>2021-03-10T14:51:30.000Z</time>
      </trkpt>
      <trkpt lat="46.3464" lon="5.38968">
        <ele>425.60000610352</ele>
        <time>2021-03-10T14:51:31.000Z</time>
      </trkpt>
      <trkpt lat="46.3464" lon="5.38968">
        <ele>424.79998779297</ele>
        <time>2021-03-10T14:51:32.000Z</time>
      </trkpt>
      <trkpt lat="46.34663" lon="5.38986">
        <ele>423.79998779297</ele>
        <time>2021-03-10T14:51:33.000Z</time>
      </trkpt>
      <trkpt lat="46.34675" lon="5.38994">
        <ele>422.79998779297</ele>
        <time>2021-03-10T14:51:34.000Z</time>
      </trkpt>
      <trkpt lat="46.34686" lon="5.39004">
        <ele>421.79998779297</ele>
        <time>2021-03-10T14:51:35.000Z</time>
      </trkpt>
      <trkpt lat="46.34697" lon="5.39017">
        <ele>420.79998779297</ele>
        <time>2021-03-10T14:51:36.000Z</time>
      </trkpt>
      <trkpt lat="46.34707" lon="5.39031">
        <ele>419.79998779297</ele>
        <time>2021-03-10T14:51:37.000Z</time>
      </trkpt>
      <trkpt lat="46.34715" lon="5.39047">
        <ele>418.79998779297</ele>
        <time>2021-03-10T14:51:38.000Z</time>
      </trkpt>
      <trkpt lat="46.34723" lon="5.39063">
        <ele>417.39999389648</ele>
        <time>2021-03-10T14:51:39.000Z</time>
      </trkpt>
      <trkpt lat="46.34729" lon="5.39079">
        <ele>416.60000610352</ele>
        <time>2021-03-10T14:51:40.000Z</time>
      </trkpt>
      <trkpt lat="46.34735" lon="5.39097">
        <ele>415.60000610352</ele>
        <time>2021-03-10T14:51:41.000Z</time>
      </trkpt>
      <trkpt lat="46.34739" lon="5.39114">
        <ele>414.20001220703</ele>
        <time>2021-03-10T14:51:42.000Z</time>
      </trkpt>
      <trkpt lat="46.34743" lon="5.39132">
        <ele>412.60000610352</ele>
        <time>2021-03-10T14:51:43.000Z</time>
      </trkpt>
      <trkpt lat="46.34747" lon="5.3915">
        <ele>411.39999389648</ele>
        <time>2021-03-10T14:51:44.000Z</time>
      </trkpt>
      <trkpt lat="46.34751" lon="5.39167">
        <ele>410.20001220703</ele>
        <time>2021-03-10T14:51:45.000Z</time>
      </trkpt>
      <trkpt lat="46.34755" lon="5.39182">
        <ele>409</ele>
        <time>2021-03-10T14:51:46.000Z</time>
      </trkpt>
      <trkpt lat="46.34759" lon="5.39195">
        <ele>408.20001220703</ele>
        <time>2021-03-10T14:51:47.000Z</time>
      </trkpt>
      <trkpt lat="46.34763" lon="5.39206">
        <ele>407.60000610352</ele>
        <time>2021-03-10T14:51:48.000Z</time>
      </trkpt>
      <trkpt lat="46.34768" lon="5.39214">
        <ele>407.39999389648</ele>
        <time>2021-03-10T14:51:49.000Z</time>
      </trkpt>
      <trkpt lat="46.34781" lon="5.39219">
        <ele>406.20001220703</ele>
        <time>2021-03-10T14:51:51.000Z</time>
      </trkpt>
      <trkpt lat="46.34787" lon="5.39202">
        <ele>405.39999389648</ele>
        <time>2021-03-10T14:51:53.000Z</time>
      </trkpt>
      <trkpt lat="46.34787" lon="5.39176">
        <ele>405.20001220703</ele>
        <time>2021-03-10T14:51:55.000Z</time>
      </trkpt>
      <trkpt lat="46.34787" lon="5.39148">
        <ele>405</ele>
        <time>2021-03-10T14:51:57.000Z</time>
      </trkpt>
      <trkpt lat="46.34791" lon="5.39118">
        <ele>404.39999389648</ele>
        <time>2021-03-10T14:51:59.000Z</time>
      </trkpt>
      <trkpt lat="46.34793" lon="5.39104">
        <ele>403.79998779297</ele>
        <time>2021-03-10T14:52:00.000Z</time>
      </trkpt>
      <trkpt lat="46.34795" lon="5.39089">
        <ele>402.79998779297</ele>
        <time>2021-03-10T14:52:01.000Z</time>
      </trkpt>
      <trkpt lat="46.34799" lon="5.39074">
        <ele>401.79998779297</ele>
        <time>2021-03-10T14:52:02.000Z</time>
      </trkpt>
      <trkpt lat="46.34804" lon="5.39061">
        <ele>401</ele>
        <time>2021-03-10T14:52:03.000Z</time>
      </trkpt>
      <trkpt lat="46.34812" lon="5.3905">
        <ele>400.20001220703</ele>
        <time>2021-03-10T14:52:04.000Z</time>
      </trkpt>
      <trkpt lat="46.34821" lon="5.39042">
        <ele>399.20001220703</ele>
        <time>2021-03-10T14:52:05.000Z</time>
      </trkpt>
      <trkpt lat="46.34832" lon="5.39038">
        <ele>398.39999389648</ele>
        <time>2021-03-10T14:52:06.000Z</time>
      </trkpt>
      <trkpt lat="46.34843" lon="5.39035">
        <ele>397.60000610352</ele>
        <time>2021-03-10T14:52:07.000Z</time>
      </trkpt>
      <trkpt lat="46.34855" lon="5.39031">
        <ele>396.60000610352</ele>
        <time>2021-03-10T14:52:08.000Z</time>
      </trkpt>
      <trkpt lat="46.34866" lon="5.39028">
        <ele>396.20001220703</ele>
        <time>2021-03-10T14:52:09.000Z</time>
      </trkpt>
      <trkpt lat="46.3489" lon="5.39021">
        <ele>394.79998779297</ele>
        <time>2021-03-10T14:52:11.000Z</time>
      </trkpt>
      <trkpt lat="46.34901" lon="5.39017">
        <ele>394.20001220703</ele>
        <time>2021-03-10T14:52:12.000Z</time>
      </trkpt>
      <trkpt lat="46.34913" lon="5.39013">
        <ele>393.39999389648</ele>
        <time>2021-03-10T14:52:13.000Z</time>
      </trkpt>
      <trkpt lat="46.34936" lon="5.39005">
        <ele>391.79998779297</ele>
        <time>2021-03-10T14:52:15.000Z</time>
      </trkpt>
      <trkpt lat="46.34959" lon="5.38995">
        <ele>390</ele>
        <time>2021-03-10T14:52:17.000Z</time>
      </trkpt>
      <trkpt lat="46.3498" lon="5.38986">
        <ele>388.20001220703</ele>
        <time>2021-03-10T14:52:19.000Z</time>
      </trkpt>
      <trkpt lat="46.35" lon="5.38976">
        <ele>386.39999389648</ele>
        <time>2021-03-10T14:52:21.000Z</time>
      </trkpt>
      <trkpt lat="46.35018" lon="5.38964">
        <ele>385.20001220703</ele>
        <time>2021-03-10T14:52:23.000Z</time>
      </trkpt>
      <trkpt lat="46.35026" lon="5.38958">
        <ele>384.60000610352</ele>
        <time>2021-03-10T14:52:24.000Z</time>
      </trkpt>
      <trkpt lat="46.35035" lon="5.38954">
        <ele>384</ele>
        <time>2021-03-10T14:52:25.000Z</time>
      </trkpt>
      <trkpt lat="46.3505" lon="5.38953">
        <ele>383.60000610352</ele>
        <time>2021-03-10T14:52:27.000Z</time>
      </trkpt>
      <trkpt lat="46.35064" lon="5.38957">
        <ele>383.39999389648</ele>
        <time>2021-03-10T14:52:29.000Z</time>
      </trkpt>
      <trkpt lat="46.35071" lon="5.38959">
        <ele>383.20001220703</ele>
        <time>2021-03-10T14:52:30.000Z</time>
      </trkpt>
      <trkpt lat="46.35076" lon="5.38965">
        <ele>383.20001220703</ele>
        <time>2021-03-10T14:52:31.000Z</time>
      </trkpt>
      <trkpt lat="46.35079" lon="5.38973">
        <ele>383.39999389648</ele>
        <time>2021-03-10T14:52:32.000Z</time>
      </trkpt>
      <trkpt lat="46.35081" lon="5.38982">
        <ele>383.39999389648</ele>
        <time>2021-03-10T14:52:33.000Z</time>
      </trkpt>
      <trkpt lat="46.35079" lon="5.39007">
        <ele>383.20001220703</ele>
        <time>2021-03-10T14:52:35.000Z</time>
      </trkpt>
      <trkpt lat="46.35077" lon="5.39021">
        <ele>383.20001220703</ele>
        <time>2021-03-10T14:52:36.000Z</time>
      </trkpt>
      <trkpt lat="46.35076" lon="5.39036">
        <ele>383</ele>
        <time>2021-03-10T14:52:37.000Z</time>
      </trkpt>
      <trkpt lat="46.35075" lon="5.39068">
        <ele>383</ele>
        <time>2021-03-10T14:52:39.000Z</time>
      </trkpt>
      <trkpt lat="46.35074" lon="5.39101">
        <ele>382.39999389648</ele>
        <time>2021-03-10T14:52:41.000Z</time>
      </trkpt>
      <trkpt lat="46.35073" lon="5.39138">
        <ele>381.39999389648</ele>
        <time>2021-03-10T14:52:43.000Z</time>
      </trkpt>
      <trkpt lat="46.35073" lon="5.39173">
        <ele>379.20001220703</ele>
        <time>2021-03-10T14:52:45.000Z</time>
      </trkpt>
      <trkpt lat="46.35073" lon="5.39191">
        <ele>377.79998779297</ele>
        <time>2021-03-10T14:52:46.000Z</time>
      </trkpt>
      <trkpt lat="46.35074" lon="5.39208">
        <ele>376.39999389648</ele>
        <time>2021-03-10T14:52:47.000Z</time>
      </trkpt>
      <trkpt lat="46.35075" lon="5.39226">
        <ele>375.39999389648</ele>
        <time>2021-03-10T14:52:48.000Z</time>
      </trkpt>
      <trkpt lat="46.35077" lon="5.39243">
        <ele>374.60000610352</ele>
        <time>2021-03-10T14:52:49.000Z</time>
      </trkpt>
      <trkpt lat="46.35077" lon="5.39243">
        <ele>374</ele>
        <time>2021-03-10T14:52:50.000Z</time>
      </trkpt>
      <trkpt lat="46.3508" lon="5.39278">
        <ele>373.20001220703</ele>
        <time>2021-03-10T14:52:51.000Z</time>
      </trkpt>
      <trkpt lat="46.35081" lon="5.39295">
        <ele>372.60000610352</ele>
        <time>2021-03-10T14:52:52.000Z</time>
      </trkpt>
      <trkpt lat="46.35082" lon="5.39312">
        <ele>372.39999389648</ele>
        <time>2021-03-10T14:52:53.000Z</time>
      </trkpt>
      <trkpt lat="46.35083" lon="5.39346">
        <ele>371.79998779297</ele>
        <time>2021-03-10T14:52:55.000Z</time>
      </trkpt>
      <trkpt lat="46.35082" lon="5.39362">
        <ele>371.20001220703</ele>
        <time>2021-03-10T14:52:56.000Z</time>
      </trkpt>
      <trkpt lat="46.35081" lon="5.39379">
        <ele>370.79998779297</ele>
        <time>2021-03-10T14:52:57.000Z</time>
      </trkpt>
      <trkpt lat="46.35078" lon="5.3941">
        <ele>369.79998779297</ele>
        <time>2021-03-10T14:52:59.000Z</time>
      </trkpt>
      <trkpt lat="46.35077" lon="5.39441">
        <ele>369.20001220703</ele>
        <time>2021-03-10T14:53:01.000Z</time>
      </trkpt>
      <trkpt lat="46.35077" lon="5.39456">
        <ele>369</ele>
        <time>2021-03-10T14:53:02.000Z</time>
      </trkpt>
      <trkpt lat="46.35077" lon="5.39471">
        <ele>369</ele>
        <time>2021-03-10T14:53:03.000Z</time>
      </trkpt>
      <trkpt lat="46.35077" lon="5.39499">
        <ele>369</ele>
        <time>2021-03-10T14:53:05.000Z</time>
      </trkpt>
      <trkpt lat="46.35078" lon="5.39528">
        <ele>369</ele>
        <time>2021-03-10T14:53:07.000Z</time>
      </trkpt>
      <trkpt lat="46.35079" lon="5.39543">
        <ele>369</ele>
        <time>2021-03-10T14:53:08.000Z</time>
      </trkpt>
      <trkpt lat="46.3508" lon="5.39557">
        <ele>368.79998779297</ele>
        <time>2021-03-10T14:53:09.000Z</time>
      </trkpt>
      <trkpt lat="46.35082" lon="5.39586">
        <ele>368.79998779297</ele>
        <time>2021-03-10T14:53:11.000Z</time>
      </trkpt>
      <trkpt lat="46.35083" lon="5.39615">
        <ele>368.79998779297</ele>
        <time>2021-03-10T14:53:13.000Z</time>
      </trkpt>
      <trkpt lat="46.35082" lon="5.39643">
        <ele>368.79998779297</ele>
        <time>2021-03-10T14:53:15.000Z</time>
      </trkpt>
      <trkpt lat="46.3508" lon="5.39671">
        <ele>368.79998779297</ele>
        <time>2021-03-10T14:53:17.000Z</time>
      </trkpt>
      <trkpt lat="46.35079" lon="5.39697">
        <ele>368.79998779297</ele>
        <time>2021-03-10T14:53:19.000Z</time>
      </trkpt>
      <trkpt lat="46.35079" lon="5.39711">
        <ele>368.60000610352</ele>
        <time>2021-03-10T14:53:20.000Z</time>
      </trkpt>
      <trkpt lat="46.3508" lon="5.39724">
        <ele>368.60000610352</ele>
        <time>2021-03-10T14:53:21.000Z</time>
      </trkpt>
      <trkpt lat="46.35084" lon="5.39748">
        <ele>368.60000610352</ele>
        <time>2021-03-10T14:53:23.000Z</time>
      </trkpt>
      <trkpt lat="46.35087" lon="5.3976">
        <ele>368.39999389648</ele>
        <time>2021-03-10T14:53:24.000Z</time>
      </trkpt>
      <trkpt lat="46.3509" lon="5.39772">
        <ele>368.39999389648</ele>
        <time>2021-03-10T14:53:25.000Z</time>
      </trkpt>
      <trkpt lat="46.35097" lon="5.39795">
        <ele>368.39999389648</ele>
        <time>2021-03-10T14:53:27.000Z</time>
      </trkpt>
      <trkpt lat="46.35104" lon="5.39818">
        <ele>368.39999389648</ele>
        <time>2021-03-10T14:53:29.000Z</time>
      </trkpt>
      <trkpt lat="46.35113" lon="5.3984">
        <ele>368.60000610352</ele>
        <time>2021-03-10T14:53:31.000Z</time>
      </trkpt>
      <trkpt lat="46.35122" lon="5.39861">
        <ele>368.60000610352</ele>
        <time>2021-03-10T14:53:33.000Z</time>
      </trkpt>
      <trkpt lat="46.35131" lon="5.39882">
        <ele>368.60000610352</ele>
        <time>2021-03-10T14:53:35.000Z</time>
      </trkpt>
      <trkpt lat="46.35141" lon="5.39904">
        <ele>368.60000610352</ele>
        <time>2021-03-10T14:53:37.000Z</time>
      </trkpt>
      <trkpt lat="46.35151" lon="5.39925">
        <ele>368.60000610352</ele>
        <time>2021-03-10T14:53:39.000Z</time>
      </trkpt>
      <trkpt lat="46.35162" lon="5.39946">
        <ele>368.60000610352</ele>
        <time>2021-03-10T14:53:41.000Z</time>
      </trkpt>
      <trkpt lat="46.35174" lon="5.39966">
        <ele>368.39999389648</ele>
        <time>2021-03-10T14:53:43.000Z</time>
      </trkpt>
      <trkpt lat="46.35187" lon="5.39985">
        <ele>368.39999389648</ele>
        <time>2021-03-10T14:53:45.000Z</time>
      </trkpt>
      <trkpt lat="46.35199" lon="5.40005">
        <ele>368.20001220703</ele>
        <time>2021-03-10T14:53:47.000Z</time>
      </trkpt>
      <trkpt lat="46.35209" lon="5.40027">
        <ele>367.60000610352</ele>
        <time>2021-03-10T14:53:49.000Z</time>
      </trkpt>
      <trkpt lat="46.35213" lon="5.40038">
        <ele>367.39999389648</ele>
        <time>2021-03-10T14:53:50.000Z</time>
      </trkpt>
      <trkpt lat="46.35219" lon="5.40048">
        <ele>367.20001220703</ele>
        <time>2021-03-10T14:53:51.000Z</time>
      </trkpt>
      <trkpt lat="46.3523" lon="5.40067">
        <ele>367</ele>
        <time>2021-03-10T14:53:53.000Z</time>
      </trkpt>
      <trkpt lat="46.35241" lon="5.40084">
        <ele>366.79998779297</ele>
        <time>2021-03-10T14:53:55.000Z</time>
      </trkpt>
      <trkpt lat="46.35253" lon="5.40101">
        <ele>366.79998779297</ele>
        <time>2021-03-10T14:53:57.000Z</time>
      </trkpt>
      <trkpt lat="46.35264" lon="5.40118">
        <ele>366.79998779297</ele>
        <time>2021-03-10T14:53:59.000Z</time>
      </trkpt>
      <trkpt lat="46.35268" lon="5.40128">
        <ele>366.79998779297</ele>
        <time>2021-03-10T14:54:00.000Z</time>
      </trkpt>
      <trkpt lat="46.35271" lon="5.40139">
        <ele>366.79998779297</ele>
        <time>2021-03-10T14:54:01.000Z</time>
      </trkpt>
      <trkpt lat="46.35275" lon="5.40162">
        <ele>366.79998779297</ele>
        <time>2021-03-10T14:54:03.000Z</time>
      </trkpt>
      <trkpt lat="46.35277" lon="5.40175">
        <ele>366.79998779297</ele>
        <time>2021-03-10T14:54:04.000Z</time>
      </trkpt>
      <trkpt lat="46.35277" lon="5.40187">
        <ele>366.79998779297</ele>
        <time>2021-03-10T14:54:05.000Z</time>
      </trkpt>
      <trkpt lat="46.35277" lon="5.402">
        <ele>366.79998779297</ele>
        <time>2021-03-10T14:54:06.000Z</time>
      </trkpt>
      <trkpt lat="46.35277" lon="5.40213">
        <ele>366.79998779297</ele>
        <time>2021-03-10T14:54:07.000Z</time>
      </trkpt>
      <trkpt lat="46.35278" lon="5.40239">
        <ele>366.79998779297</ele>
        <time>2021-03-10T14:54:09.000Z</time>
      </trkpt>
      <trkpt lat="46.3528" lon="5.40265">
        <ele>366.60000610352</ele>
        <time>2021-03-10T14:54:11.000Z</time>
      </trkpt>
      <trkpt lat="46.35281" lon="5.40278">
        <ele>366.60000610352</ele>
        <time>2021-03-10T14:54:12.000Z</time>
      </trkpt>
      <trkpt lat="46.35282" lon="5.4029">
        <ele>366.39999389648</ele>
        <time>2021-03-10T14:54:13.000Z</time>
      </trkpt>
      <trkpt lat="46.35284" lon="5.40315">
        <ele>366</ele>
        <time>2021-03-10T14:54:15.000Z</time>
      </trkpt>
      <trkpt lat="46.35285" lon="5.40327">
        <ele>365.60000610352</ele>
        <time>2021-03-10T14:54:16.000Z</time>
      </trkpt>
      <trkpt lat="46.35287" lon="5.40339">
        <ele>365.20001220703</ele>
        <time>2021-03-10T14:54:17.000Z</time>
      </trkpt>
      <trkpt lat="46.35289" lon="5.40351">
        <ele>364.60000610352</ele>
        <time>2021-03-10T14:54:18.000Z</time>
      </trkpt>
      <trkpt lat="46.35291" lon="5.40362">
        <ele>364.20001220703</ele>
        <time>2021-03-10T14:54:19.000Z</time>
      </trkpt>
      <trkpt lat="46.35296" lon="5.40371">
        <ele>364</ele>
        <time>2021-03-10T14:54:20.000Z</time>
      </trkpt>
      <trkpt lat="46.35301" lon="5.4038">
        <ele>364</ele>
        <time>2021-03-10T14:54:21.000Z</time>
      </trkpt>
      <trkpt lat="46.35315" lon="5.40391">
        <ele>363.79998779297</ele>
        <time>2021-03-10T14:54:23.000Z</time>
      </trkpt>
      <trkpt lat="46.35331" lon="5.40397">
        <ele>363.79998779297</ele>
        <time>2021-03-10T14:54:25.000Z</time>
      </trkpt>
      <trkpt lat="46.35345" lon="5.40403">
        <ele>363.79998779297</ele>
        <time>2021-03-10T14:54:27.000Z</time>
      </trkpt>
      <trkpt lat="46.35353" lon="5.40405">
        <ele>363.79998779297</ele>
        <time>2021-03-10T14:54:28.000Z</time>
      </trkpt>
      <trkpt lat="46.35353" lon="5.40405">
        <ele>364</ele>
        <time>2021-03-10T14:54:29.000Z</time>
      </trkpt>
      <trkpt lat="46.35366" lon="5.4041">
        <ele>364</ele>
        <time>2021-03-10T14:54:30.000Z</time>
      </trkpt>
      <trkpt lat="46.35366" lon="5.4041">
        <ele>364</ele>
        <time>2021-03-10T14:54:31.000Z</time>
      </trkpt>
      <trkpt lat="46.35372" lon="5.40414">
        <ele>364</ele>
        <time>2021-03-10T14:54:32.000Z</time>
      </trkpt>
      <trkpt lat="46.35383" lon="5.40423">
        <ele>364.20001220703</ele>
        <time>2021-03-10T14:54:33.000Z</time>
      </trkpt>
      <trkpt lat="46.35391" lon="5.40437">
        <ele>364.20001220703</ele>
        <time>2021-03-10T14:54:35.000Z</time>
      </trkpt>
      <trkpt lat="46.35394" lon="5.40446">
        <ele>364.39999389648</ele>
        <time>2021-03-10T14:54:36.000Z</time>
      </trkpt>
      <trkpt lat="46.35396" lon="5.40455">
        <ele>365</ele>
        <time>2021-03-10T14:54:37.000Z</time>
      </trkpt>
      <trkpt lat="46.35396" lon="5.40455">
        <ele>365.39999389648</ele>
        <time>2021-03-10T14:54:38.000Z</time>
      </trkpt>
      <trkpt lat="46.35398" lon="5.40475">
        <ele>366</ele>
        <time>2021-03-10T14:54:39.000Z</time>
      </trkpt>
      <trkpt lat="46.354" lon="5.40485">
        <ele>366.39999389648</ele>
        <time>2021-03-10T14:54:40.000Z</time>
      </trkpt>
      <trkpt lat="46.35402" lon="5.40496">
        <ele>366.79998779297</ele>
        <time>2021-03-10T14:54:41.000Z</time>
      </trkpt>
      <trkpt lat="46.35405" lon="5.40517">
        <ele>367</ele>
        <time>2021-03-10T14:54:43.000Z</time>
      </trkpt>
      <trkpt lat="46.35406" lon="5.40527">
        <ele>367.20001220703</ele>
        <time>2021-03-10T14:54:44.000Z</time>
      </trkpt>
      <trkpt lat="46.35406" lon="5.40538">
        <ele>367.20001220703</ele>
        <time>2021-03-10T14:54:45.000Z</time>
      </trkpt>
      <trkpt lat="46.35405" lon="5.40548">
        <ele>367.20001220703</ele>
        <time>2021-03-10T14:54:46.000Z</time>
      </trkpt>
      <trkpt lat="46.35404" lon="5.40558">
        <ele>367.20001220703</ele>
        <time>2021-03-10T14:54:47.000Z</time>
      </trkpt>
      <trkpt lat="46.35403" lon="5.40568">
        <ele>367.39999389648</ele>
        <time>2021-03-10T14:54:48.000Z</time>
      </trkpt>
      <trkpt lat="46.35402" lon="5.40577">
        <ele>367.39999389648</ele>
        <time>2021-03-10T14:54:49.000Z</time>
      </trkpt>
      <trkpt lat="46.35401" lon="5.40586">
        <ele>367.60000610352</ele>
        <time>2021-03-10T14:54:50.000Z</time>
      </trkpt>
      <trkpt lat="46.354" lon="5.40594">
        <ele>367.60000610352</ele>
        <time>2021-03-10T14:54:51.000Z</time>
      </trkpt>
      <trkpt lat="46.35397" lon="5.40611">
        <ele>367.79998779297</ele>
        <time>2021-03-10T14:54:53.000Z</time>
      </trkpt>
      <trkpt lat="46.35395" lon="5.40628">
        <ele>367.79998779297</ele>
        <time>2021-03-10T14:54:55.000Z</time>
      </trkpt>
      <trkpt lat="46.35393" lon="5.40645">
        <ele>368</ele>
        <time>2021-03-10T14:54:57.000Z</time>
      </trkpt>
      <trkpt lat="46.35389" lon="5.4066">
        <ele>368.60000610352</ele>
        <time>2021-03-10T14:54:59.000Z</time>
      </trkpt>
      <trkpt lat="46.35383" lon="5.40672">
        <ele>369.20001220703</ele>
        <time>2021-03-10T14:55:01.000Z</time>
      </trkpt>
      <trkpt lat="46.35376" lon="5.40682">
        <ele>369.60000610352</ele>
        <time>2021-03-10T14:55:03.000Z</time>
      </trkpt>
      <trkpt lat="46.35373" lon="5.40685">
        <ele>369.79998779297</ele>
        <time>2021-03-10T14:55:04.000Z</time>
      </trkpt>
      <trkpt lat="46.35369" lon="5.40688">
        <ele>370</ele>
        <time>2021-03-10T14:55:05.000Z</time>
      </trkpt>
      <trkpt lat="46.35361" lon="5.40694">
        <ele>370.60000610352</ele>
        <time>2021-03-10T14:55:07.000Z</time>
      </trkpt>
      <trkpt lat="46.35357" lon="5.40696">
        <ele>370.79998779297</ele>
        <time>2021-03-10T14:55:08.000Z</time>
      </trkpt>
      <trkpt lat="46.35353" lon="5.40698">
        <ele>371.20001220703</ele>
        <time>2021-03-10T14:55:09.000Z</time>
      </trkpt>
      <trkpt lat="46.35346" lon="5.40703">
        <ele>371.79998779297</ele>
        <time>2021-03-10T14:55:11.000Z</time>
      </trkpt>
      <trkpt lat="46.35342" lon="5.40705">
        <ele>372.20001220703</ele>
        <time>2021-03-10T14:55:12.000Z</time>
      </trkpt>
      <trkpt lat="46.35338" lon="5.40708">
        <ele>372.60000610352</ele>
        <time>2021-03-10T14:55:13.000Z</time>
      </trkpt>
      <trkpt lat="46.35332" lon="5.40713">
        <ele>373.39999389648</ele>
        <time>2021-03-10T14:55:15.000Z</time>
      </trkpt>
      <trkpt lat="46.35326" lon="5.4072">
        <ele>374</ele>
        <time>2021-03-10T14:55:17.000Z</time>
      </trkpt>
      <trkpt lat="46.35321" lon="5.40728">
        <ele>374.39999389648</ele>
        <time>2021-03-10T14:55:19.000Z</time>
      </trkpt>
      <trkpt lat="46.35318" lon="5.40732">
        <ele>374.60000610352</ele>
        <time>2021-03-10T14:55:20.000Z</time>
      </trkpt>
      <trkpt lat="46.35317" lon="5.40737">
        <ele>375</ele>
        <time>2021-03-10T14:55:21.000Z</time>
      </trkpt>
      <trkpt lat="46.35313" lon="5.40746">
        <ele>375.60000610352</ele>
        <time>2021-03-10T14:55:23.000Z</time>
      </trkpt>
      <trkpt lat="46.35311" lon="5.40751">
        <ele>375.79998779297</ele>
        <time>2021-03-10T14:55:24.000Z</time>
      </trkpt>
      <trkpt lat="46.35309" lon="5.40756">
        <ele>376.39999389648</ele>
        <time>2021-03-10T14:55:25.000Z</time>
      </trkpt>
      <trkpt lat="46.35304" lon="5.40767">
        <ele>377.20001220703</ele>
        <time>2021-03-10T14:55:27.000Z</time>
      </trkpt>
      <trkpt lat="46.35299" lon="5.40777">
        <ele>377.79998779297</ele>
        <time>2021-03-10T14:55:29.000Z</time>
      </trkpt>
      <trkpt lat="46.35296" lon="5.40783">
        <ele>378</ele>
        <time>2021-03-10T14:55:30.000Z</time>
      </trkpt>
      <trkpt lat="46.35293" lon="5.40788">
        <ele>378.20001220703</ele>
        <time>2021-03-10T14:55:31.000Z</time>
      </trkpt>
      <trkpt lat="46.35287" lon="5.40801">
        <ele>378.20001220703</ele>
        <time>2021-03-10T14:55:33.000Z</time>
      </trkpt>
      <trkpt lat="46.3528" lon="5.40814">
        <ele>378.39999389648</ele>
        <time>2021-03-10T14:55:35.000Z</time>
      </trkpt>
      <trkpt lat="46.35276" lon="5.40821">
        <ele>378.39999389648</ele>
        <time>2021-03-10T14:55:36.000Z</time>
      </trkpt>
      <trkpt lat="46.35273" lon="5.40828">
        <ele>378.39999389648</ele>
        <time>2021-03-10T14:55:37.000Z</time>
      </trkpt>
      <trkpt lat="46.35266" lon="5.40843">
        <ele>378.39999389648</ele>
        <time>2021-03-10T14:55:39.000Z</time>
      </trkpt>
      <trkpt lat="46.35259" lon="5.40857">
        <ele>378.39999389648</ele>
        <time>2021-03-10T14:55:41.000Z</time>
      </trkpt>
      <trkpt lat="46.35251" lon="5.40872">
        <ele>378.39999389648</ele>
        <time>2021-03-10T14:55:43.000Z</time>
      </trkpt>
      <trkpt lat="46.35247" lon="5.4088">
        <ele>378.39999389648</ele>
        <time>2021-03-10T14:55:44.000Z</time>
      </trkpt>
      <trkpt lat="46.35242" lon="5.40886">
        <ele>378.39999389648</ele>
        <time>2021-03-10T14:55:45.000Z</time>
      </trkpt>
      <trkpt lat="46.3523" lon="5.40896">
        <ele>378.39999389648</ele>
        <time>2021-03-10T14:55:47.000Z</time>
      </trkpt>
      <trkpt lat="46.35216" lon="5.40901">
        <ele>378.20001220703</ele>
        <time>2021-03-10T14:55:49.000Z</time>
      </trkpt>
      <trkpt lat="46.35208" lon="5.40902">
        <ele>378.20001220703</ele>
        <time>2021-03-10T14:55:50.000Z</time>
      </trkpt>
      <trkpt lat="46.352" lon="5.40902">
        <ele>378</ele>
        <time>2021-03-10T14:55:51.000Z</time>
      </trkpt>
      <trkpt lat="46.35183" lon="5.40904">
        <ele>377.60000610352</ele>
        <time>2021-03-10T14:55:53.000Z</time>
      </trkpt>
      <trkpt lat="46.35165" lon="5.40908">
        <ele>377.20001220703</ele>
        <time>2021-03-10T14:55:55.000Z</time>
      </trkpt>
      <trkpt lat="46.35146" lon="5.40913">
        <ele>376.60000610352</ele>
        <time>2021-03-10T14:55:57.000Z</time>
      </trkpt>
      <trkpt lat="46.35137" lon="5.40916">
        <ele>376.20001220703</ele>
        <time>2021-03-10T14:55:58.000Z</time>
      </trkpt>
      <trkpt lat="46.35127" lon="5.4092">
        <ele>375.60000610352</ele>
        <time>2021-03-10T14:55:59.000Z</time>
      </trkpt>
      <trkpt lat="46.35117" lon="5.40925">
        <ele>374.60000610352</ele>
        <time>2021-03-10T14:56:00.000Z</time>
      </trkpt>
      <trkpt lat="46.35108" lon="5.40931">
        <ele>374</ele>
        <time>2021-03-10T14:56:01.000Z</time>
      </trkpt>
      <trkpt lat="46.35099" lon="5.40939">
        <ele>373.20001220703</ele>
        <time>2021-03-10T14:56:02.000Z</time>
      </trkpt>
      <trkpt lat="46.35089" lon="5.40947">
        <ele>372.39999389648</ele>
        <time>2021-03-10T14:56:03.000Z</time>
      </trkpt>
      <trkpt lat="46.3508" lon="5.40956">
        <ele>371.60000610352</ele>
        <time>2021-03-10T14:56:04.000Z</time>
      </trkpt>
      <trkpt lat="46.35072" lon="5.40966">
        <ele>370.79998779297</ele>
        <time>2021-03-10T14:56:05.000Z</time>
      </trkpt>
      <trkpt lat="46.35063" lon="5.40976">
        <ele>370.20001220703</ele>
        <time>2021-03-10T14:56:06.000Z</time>
      </trkpt>
      <trkpt lat="46.35055" lon="5.40987">
        <ele>369.39999389648</ele>
        <time>2021-03-10T14:56:07.000Z</time>
      </trkpt>
      <trkpt lat="46.35039" lon="5.41011">
        <ele>368.79998779297</ele>
        <time>2021-03-10T14:56:09.000Z</time>
      </trkpt>
      <trkpt lat="46.35026" lon="5.41038">
        <ele>367</ele>
        <time>2021-03-10T14:56:11.000Z</time>
      </trkpt>
      <trkpt lat="46.35014" lon="5.41066">
        <ele>365</ele>
        <time>2021-03-10T14:56:13.000Z</time>
      </trkpt>
      <trkpt lat="46.35008" lon="5.4108">
        <ele>364.39999389648</ele>
        <time>2021-03-10T14:56:14.000Z</time>
      </trkpt>
      <trkpt lat="46.35002" lon="5.41094">
        <ele>363.79998779297</ele>
        <time>2021-03-10T14:56:15.000Z</time>
      </trkpt>
      <trkpt lat="46.3499" lon="5.41122">
        <ele>362.60000610352</ele>
        <time>2021-03-10T14:56:17.000Z</time>
      </trkpt>
      <trkpt lat="46.34976" lon="5.41148">
        <ele>361.60000610352</ele>
        <time>2021-03-10T14:56:19.000Z</time>
      </trkpt>
      <trkpt lat="46.34967" lon="5.41159">
        <ele>361.20001220703</ele>
        <time>2021-03-10T14:56:20.000Z</time>
      </trkpt>
      <trkpt lat="46.34959" lon="5.41169">
        <ele>360.79998779297</ele>
        <time>2021-03-10T14:56:21.000Z</time>
      </trkpt>
      <trkpt lat="46.34943" lon="5.4119">
        <ele>360.60000610352</ele>
        <time>2021-03-10T14:56:23.000Z</time>
      </trkpt>
      <trkpt lat="46.34928" lon="5.41212">
        <ele>360.20001220703</ele>
        <time>2021-03-10T14:56:25.000Z</time>
      </trkpt>
      <trkpt lat="46.34921" lon="5.41224">
        <ele>360</ele>
        <time>2021-03-10T14:56:26.000Z</time>
      </trkpt>
      <trkpt lat="46.34914" lon="5.41235">
        <ele>359.79998779297</ele>
        <time>2021-03-10T14:56:27.000Z</time>
      </trkpt>
      <trkpt lat="46.34901" lon="5.41258">
        <ele>359.20001220703</ele>
        <time>2021-03-10T14:56:29.000Z</time>
      </trkpt>
      <trkpt lat="46.34894" lon="5.4127">
        <ele>358.79998779297</ele>
        <time>2021-03-10T14:56:30.000Z</time>
      </trkpt>
      <trkpt lat="46.34888" lon="5.41281">
        <ele>358.79998779297</ele>
        <time>2021-03-10T14:56:31.000Z</time>
      </trkpt>
      <trkpt lat="46.34874" lon="5.41302">
        <ele>358.60000610352</ele>
        <time>2021-03-10T14:56:33.000Z</time>
      </trkpt>
      <trkpt lat="46.34867" lon="5.41313">
        <ele>358.60000610352</ele>
        <time>2021-03-10T14:56:34.000Z</time>
      </trkpt>
      <trkpt lat="46.3486" lon="5.41322">
        <ele>358.60000610352</ele>
        <time>2021-03-10T14:56:35.000Z</time>
      </trkpt>
      <trkpt lat="46.34845" lon="5.4134">
        <ele>358.60000610352</ele>
        <time>2021-03-10T14:56:37.000Z</time>
      </trkpt>
      <trkpt lat="46.3483" lon="5.41357">
        <ele>358.39999389648</ele>
        <time>2021-03-10T14:56:39.000Z</time>
      </trkpt>
      <trkpt lat="46.34823" lon="5.41366">
        <ele>358.39999389648</ele>
        <time>2021-03-10T14:56:40.000Z</time>
      </trkpt>
      <trkpt lat="46.34815" lon="5.41374">
        <ele>358.39999389648</ele>
        <time>2021-03-10T14:56:41.000Z</time>
      </trkpt>
      <trkpt lat="46.348" lon="5.4139">
        <ele>358.39999389648</ele>
        <time>2021-03-10T14:56:43.000Z</time>
      </trkpt>
      <trkpt lat="46.34786" lon="5.41406">
        <ele>358.60000610352</ele>
        <time>2021-03-10T14:56:45.000Z</time>
      </trkpt>
      <trkpt lat="46.34772" lon="5.41423">
        <ele>358.60000610352</ele>
        <time>2021-03-10T14:56:47.000Z</time>
      </trkpt>
      <trkpt lat="46.34758" lon="5.41439">
        <ele>358.60000610352</ele>
        <time>2021-03-10T14:56:49.000Z</time>
      </trkpt>
      <trkpt lat="46.34745" lon="5.41456">
        <ele>358.79998779297</ele>
        <time>2021-03-10T14:56:51.000Z</time>
      </trkpt>
      <trkpt lat="46.34733" lon="5.41474">
        <ele>358.79998779297</ele>
        <time>2021-03-10T14:56:53.000Z</time>
      </trkpt>
      <trkpt lat="46.34722" lon="5.41492">
        <ele>358.79998779297</ele>
        <time>2021-03-10T14:56:55.000Z</time>
      </trkpt>
      <trkpt lat="46.34716" lon="5.41501">
        <ele>359</ele>
        <time>2021-03-10T14:56:56.000Z</time>
      </trkpt>
      <trkpt lat="46.3471" lon="5.4151">
        <ele>359</ele>
        <time>2021-03-10T14:56:57.000Z</time>
      </trkpt>
      <trkpt lat="46.34698" lon="5.41528">
        <ele>359</ele>
        <time>2021-03-10T14:56:59.000Z</time>
      </trkpt>
      <trkpt lat="46.34687" lon="5.41546">
        <ele>359.20001220703</ele>
        <time>2021-03-10T14:57:01.000Z</time>
      </trkpt>
      <trkpt lat="46.34675" lon="5.41564">
        <ele>359.20001220703</ele>
        <time>2021-03-10T14:57:03.000Z</time>
      </trkpt>
      <trkpt lat="46.34664" lon="5.41582">
        <ele>359.20001220703</ele>
        <time>2021-03-10T14:57:05.000Z</time>
      </trkpt>
      <trkpt lat="46.34659" lon="5.41591">
        <ele>359.20001220703</ele>
        <time>2021-03-10T14:57:06.000Z</time>
      </trkpt>
      <trkpt lat="46.34654" lon="5.41601">
        <ele>359.20001220703</ele>
        <time>2021-03-10T14:57:07.000Z</time>
      </trkpt>
      <trkpt lat="46.34643" lon="5.4162">
        <ele>359.20001220703</ele>
        <time>2021-03-10T14:57:09.000Z</time>
      </trkpt>
      <trkpt lat="46.34632" lon="5.41639">
        <ele>359.20001220703</ele>
        <time>2021-03-10T14:57:11.000Z</time>
      </trkpt>
      <trkpt lat="46.3462" lon="5.41656">
        <ele>359</ele>
        <time>2021-03-10T14:57:13.000Z</time>
      </trkpt>
      <trkpt lat="46.34613" lon="5.41664">
        <ele>359</ele>
        <time>2021-03-10T14:57:14.000Z</time>
      </trkpt>
      <trkpt lat="46.34606" lon="5.41671">
        <ele>359</ele>
        <time>2021-03-10T14:57:15.000Z</time>
      </trkpt>
      <trkpt lat="46.34591" lon="5.41683">
        <ele>358.39999389648</ele>
        <time>2021-03-10T14:57:17.000Z</time>
      </trkpt>
      <trkpt lat="46.34584" lon="5.41688">
        <ele>358.39999389648</ele>
        <time>2021-03-10T14:57:18.000Z</time>
      </trkpt>
      <trkpt lat="46.34576" lon="5.41693">
        <ele>358.20001220703</ele>
        <time>2021-03-10T14:57:19.000Z</time>
      </trkpt>
      <trkpt lat="46.3456" lon="5.41704">
        <ele>357.79998779297</ele>
        <time>2021-03-10T14:57:21.000Z</time>
      </trkpt>
      <trkpt lat="46.34552" lon="5.4171">
        <ele>357.60000610352</ele>
        <time>2021-03-10T14:57:22.000Z</time>
      </trkpt>
      <trkpt lat="46.34544" lon="5.41716">
        <ele>357.60000610352</ele>
        <time>2021-03-10T14:57:23.000Z</time>
      </trkpt>
      <trkpt lat="46.34536" lon="5.41723">
        <ele>357.60000610352</ele>
        <time>2021-03-10T14:57:24.000Z</time>
      </trkpt>
      <trkpt lat="46.34528" lon="5.4173">
        <ele>357.39999389648</ele>
        <time>2021-03-10T14:57:25.000Z</time>
      </trkpt>
      <trkpt lat="46.34512" lon="5.41744">
        <ele>357</ele>
        <time>2021-03-10T14:57:27.000Z</time>
      </trkpt>
      <trkpt lat="46.34498" lon="5.41757">
        <ele>356.60000610352</ele>
        <time>2021-03-10T14:57:29.000Z</time>
      </trkpt>
      <trkpt lat="46.34491" lon="5.41764">
        <ele>356</ele>
        <time>2021-03-10T14:57:30.000Z</time>
      </trkpt>
      <trkpt lat="46.34484" lon="5.41771">
        <ele>355.60000610352</ele>
        <time>2021-03-10T14:57:31.000Z</time>
      </trkpt>
      <trkpt lat="46.34477" lon="5.41778">
        <ele>355.20001220703</ele>
        <time>2021-03-10T14:57:32.000Z</time>
      </trkpt>
      <trkpt lat="46.34471" lon="5.41784">
        <ele>355.20001220703</ele>
        <time>2021-03-10T14:57:33.000Z</time>
      </trkpt>
      <trkpt lat="46.34458" lon="5.41797">
        <ele>355.20001220703</ele>
        <time>2021-03-10T14:57:35.000Z</time>
      </trkpt>
      <trkpt lat="46.34445" lon="5.4181">
        <ele>355</ele>
        <time>2021-03-10T14:57:37.000Z</time>
      </trkpt>
      <trkpt lat="46.34432" lon="5.41822">
        <ele>355</ele>
        <time>2021-03-10T14:57:39.000Z</time>
      </trkpt>
      <trkpt lat="46.34425" lon="5.41828">
        <ele>355</ele>
        <time>2021-03-10T14:57:40.000Z</time>
      </trkpt>
      <trkpt lat="46.34419" lon="5.41834">
        <ele>355.39999389648</ele>
        <time>2021-03-10T14:57:41.000Z</time>
      </trkpt>
      <trkpt lat="46.34405" lon="5.41845">
        <ele>355.79998779297</ele>
        <time>2021-03-10T14:57:43.000Z</time>
      </trkpt>
      <trkpt lat="46.3439" lon="5.41856">
        <ele>356</ele>
        <time>2021-03-10T14:57:45.000Z</time>
      </trkpt>
      <trkpt lat="46.34376" lon="5.41867">
        <ele>356.20001220703</ele>
        <time>2021-03-10T14:57:47.000Z</time>
      </trkpt>
      <trkpt lat="46.34369" lon="5.41873">
        <ele>356.20001220703</ele>
        <time>2021-03-10T14:57:48.000Z</time>
      </trkpt>
      <trkpt lat="46.34363" lon="5.41881">
        <ele>356.20001220703</ele>
        <time>2021-03-10T14:57:49.000Z</time>
      </trkpt>
      <trkpt lat="46.34353" lon="5.41899">
        <ele>356.20001220703</ele>
        <time>2021-03-10T14:57:51.000Z</time>
      </trkpt>
      <trkpt lat="46.34348" lon="5.41921">
        <ele>356.20001220703</ele>
        <time>2021-03-10T14:57:53.000Z</time>
      </trkpt>
      <trkpt lat="46.34346" lon="5.41932">
        <ele>356.20001220703</ele>
        <time>2021-03-10T14:57:54.000Z</time>
      </trkpt>
      <trkpt lat="46.34344" lon="5.41944">
        <ele>356.20001220703</ele>
        <time>2021-03-10T14:57:55.000Z</time>
      </trkpt>
      <trkpt lat="46.34341" lon="5.41966">
        <ele>356.20001220703</ele>
        <time>2021-03-10T14:57:57.000Z</time>
      </trkpt>
      <trkpt lat="46.34338" lon="5.41976">
        <ele>356.20001220703</ele>
        <time>2021-03-10T14:57:58.000Z</time>
      </trkpt>
      <trkpt lat="46.34334" lon="5.41986">
        <ele>356.20001220703</ele>
        <time>2021-03-10T14:57:59.000Z</time>
      </trkpt>
      <trkpt lat="46.34325" lon="5.42005">
        <ele>356.20001220703</ele>
        <time>2021-03-10T14:58:01.000Z</time>
      </trkpt>
      <trkpt lat="46.34314" lon="5.42022">
        <ele>356.20001220703</ele>
        <time>2021-03-10T14:58:03.000Z</time>
      </trkpt>
      <trkpt lat="46.34308" lon="5.4203">
        <ele>356.20001220703</ele>
        <time>2021-03-10T14:58:04.000Z</time>
      </trkpt>
      <trkpt lat="46.34302" lon="5.42039">
        <ele>356.20001220703</ele>
        <time>2021-03-10T14:58:05.000Z</time>
      </trkpt>
      <trkpt lat="46.34289" lon="5.42056">
        <ele>356.20001220703</ele>
        <time>2021-03-10T14:58:07.000Z</time>
      </trkpt>
      <trkpt lat="46.34277" lon="5.42073">
        <ele>356.20001220703</ele>
        <time>2021-03-10T14:58:09.000Z</time>
      </trkpt>
      <trkpt lat="46.34265" lon="5.4209">
        <ele>355.79998779297</ele>
        <time>2021-03-10T14:58:11.000Z</time>
      </trkpt>
      <trkpt lat="46.34253" lon="5.42106">
        <ele>355.20001220703</ele>
        <time>2021-03-10T14:58:13.000Z</time>
      </trkpt>
      <trkpt lat="46.3424" lon="5.42122">
        <ele>355</ele>
        <time>2021-03-10T14:58:15.000Z</time>
      </trkpt>
      <trkpt lat="46.34234" lon="5.4213">
        <ele>354.79998779297</ele>
        <time>2021-03-10T14:58:16.000Z</time>
      </trkpt>
      <trkpt lat="46.3422" lon="5.42145">
        <ele>354.79998779297</ele>
        <time>2021-03-10T14:58:18.000Z</time>
      </trkpt>
      <trkpt lat="46.34206" lon="5.42161">
        <ele>354.60000610352</ele>
        <time>2021-03-10T14:58:20.000Z</time>
      </trkpt>
      <trkpt lat="46.34199" lon="5.42169">
        <ele>354.60000610352</ele>
        <time>2021-03-10T14:58:21.000Z</time>
      </trkpt>
      <trkpt lat="46.34193" lon="5.42177">
        <ele>354.39999389648</ele>
        <time>2021-03-10T14:58:22.000Z</time>
      </trkpt>
      <trkpt lat="46.3418" lon="5.42192">
        <ele>354.39999389648</ele>
        <time>2021-03-10T14:58:24.000Z</time>
      </trkpt>
      <trkpt lat="46.34167" lon="5.42208">
        <ele>354.39999389648</ele>
        <time>2021-03-10T14:58:26.000Z</time>
      </trkpt>
      <trkpt lat="46.34153" lon="5.42223">
        <ele>354.39999389648</ele>
        <time>2021-03-10T14:58:28.000Z</time>
      </trkpt>
      <trkpt lat="46.34141" lon="5.42237">
        <ele>354.39999389648</ele>
        <time>2021-03-10T14:58:30.000Z</time>
      </trkpt>
      <trkpt lat="46.34128" lon="5.42251">
        <ele>354.39999389648</ele>
        <time>2021-03-10T14:58:32.000Z</time>
      </trkpt>
      <trkpt lat="46.34116" lon="5.42265">
        <ele>354.60000610352</ele>
        <time>2021-03-10T14:58:34.000Z</time>
      </trkpt>
      <trkpt lat="46.34104" lon="5.42278">
        <ele>354.79998779297</ele>
        <time>2021-03-10T14:58:36.000Z</time>
      </trkpt>
      <trkpt lat="46.34092" lon="5.42291">
        <ele>355.20001220703</ele>
        <time>2021-03-10T14:58:38.000Z</time>
      </trkpt>
      <trkpt lat="46.34086" lon="5.42298">
        <ele>355.39999389648</ele>
        <time>2021-03-10T14:58:39.000Z</time>
      </trkpt>
      <trkpt lat="46.34081" lon="5.42304">
        <ele>355.39999389648</ele>
        <time>2021-03-10T14:58:40.000Z</time>
      </trkpt>
      <trkpt lat="46.34068" lon="5.42315">
        <ele>355.79998779297</ele>
        <time>2021-03-10T14:58:42.000Z</time>
      </trkpt>
      <trkpt lat="46.34062" lon="5.4232">
        <ele>356</ele>
        <time>2021-03-10T14:58:43.000Z</time>
      </trkpt>
      <trkpt lat="46.34055" lon="5.42324">
        <ele>356</ele>
        <time>2021-03-10T14:58:44.000Z</time>
      </trkpt>
      <trkpt lat="46.34048" lon="5.42328">
        <ele>356.20001220703</ele>
        <time>2021-03-10T14:58:45.000Z</time>
      </trkpt>
      <trkpt lat="46.3404" lon="5.42333">
        <ele>356.60000610352</ele>
        <time>2021-03-10T14:58:46.000Z</time>
      </trkpt>
      <trkpt lat="46.34025" lon="5.42341">
        <ele>357</ele>
        <time>2021-03-10T14:58:48.000Z</time>
      </trkpt>
      <trkpt lat="46.34009" lon="5.4235">
        <ele>357.20001220703</ele>
        <time>2021-03-10T14:58:50.000Z</time>
      </trkpt>
      <trkpt lat="46.33994" lon="5.42361">
        <ele>357.20001220703</ele>
        <time>2021-03-10T14:58:52.000Z</time>
      </trkpt>
      <trkpt lat="46.33978" lon="5.42373">
        <ele>357.20001220703</ele>
        <time>2021-03-10T14:58:54.000Z</time>
      </trkpt>
      <trkpt lat="46.33963" lon="5.42386">
        <ele>357.20001220703</ele>
        <time>2021-03-10T14:58:56.000Z</time>
      </trkpt>
      <trkpt lat="46.33947" lon="5.42399">
        <ele>357</ele>
        <time>2021-03-10T14:58:58.000Z</time>
      </trkpt>
      <trkpt lat="46.33932" lon="5.42412">
        <ele>356.39999389648</ele>
        <time>2021-03-10T14:59:00.000Z</time>
      </trkpt>
      <trkpt lat="46.33916" lon="5.42425">
        <ele>356</ele>
        <time>2021-03-10T14:59:02.000Z</time>
      </trkpt>
      <trkpt lat="46.339" lon="5.42438">
        <ele>355.60000610352</ele>
        <time>2021-03-10T14:59:04.000Z</time>
      </trkpt>
      <trkpt lat="46.33884" lon="5.42452">
        <ele>355.20001220703</ele>
        <time>2021-03-10T14:59:06.000Z</time>
      </trkpt>
      <trkpt lat="46.33876" lon="5.4246">
        <ele>355</ele>
        <time>2021-03-10T14:59:07.000Z</time>
      </trkpt>
      <trkpt lat="46.33869" lon="5.42468">
        <ele>354.79998779297</ele>
        <time>2021-03-10T14:59:08.000Z</time>
      </trkpt>
      <trkpt lat="46.33854" lon="5.42485">
        <ele>353.79998779297</ele>
        <time>2021-03-10T14:59:10.000Z</time>
      </trkpt>
      <trkpt lat="46.33839" lon="5.42502">
        <ele>353.39999389648</ele>
        <time>2021-03-10T14:59:12.000Z</time>
      </trkpt>
      <trkpt lat="46.33824" lon="5.42519">
        <ele>353.20001220703</ele>
        <time>2021-03-10T14:59:14.000Z</time>
      </trkpt>
      <trkpt lat="46.33809" lon="5.42536">
        <ele>352.79998779297</ele>
        <time>2021-03-10T14:59:16.000Z</time>
      </trkpt>
      <trkpt lat="46.33794" lon="5.42554">
        <ele>352.20001220703</ele>
        <time>2021-03-10T14:59:18.000Z</time>
      </trkpt>
      <trkpt lat="46.33779" lon="5.42573">
        <ele>351.79998779297</ele>
        <time>2021-03-10T14:59:20.000Z</time>
      </trkpt>
      <trkpt lat="46.33772" lon="5.42583">
        <ele>351.60000610352</ele>
        <time>2021-03-10T14:59:21.000Z</time>
      </trkpt>
      <trkpt lat="46.33766" lon="5.42593">
        <ele>351.60000610352</ele>
        <time>2021-03-10T14:59:22.000Z</time>
      </trkpt>
      <trkpt lat="46.33753" lon="5.42613">
        <ele>351.20001220703</ele>
        <time>2021-03-10T14:59:24.000Z</time>
      </trkpt>
      <trkpt lat="46.33748" lon="5.42625">
        <ele>350.79998779297</ele>
        <time>2021-03-10T14:59:25.000Z</time>
      </trkpt>
      <trkpt lat="46.33743" lon="5.42636">
        <ele>350.60000610352</ele>
        <time>2021-03-10T14:59:26.000Z</time>
      </trkpt>
      <trkpt lat="46.33735" lon="5.4266">
        <ele>350.20001220703</ele>
        <time>2021-03-10T14:59:28.000Z</time>
      </trkpt>
      <trkpt lat="46.33728" lon="5.42685">
        <ele>349.79998779297</ele>
        <time>2021-03-10T14:59:30.000Z</time>
      </trkpt>
      <trkpt lat="46.3372" lon="5.42709">
        <ele>349.60000610352</ele>
        <time>2021-03-10T14:59:32.000Z</time>
      </trkpt>
      <trkpt lat="46.33716" lon="5.42721">
        <ele>349.60000610352</ele>
        <time>2021-03-10T14:59:33.000Z</time>
      </trkpt>
      <trkpt lat="46.33711" lon="5.42732">
        <ele>349.60000610352</ele>
        <time>2021-03-10T14:59:34.000Z</time>
      </trkpt>
      <trkpt lat="46.33704" lon="5.42742">
        <ele>349.60000610352</ele>
        <time>2021-03-10T14:59:35.000Z</time>
      </trkpt>
      <trkpt lat="46.33697" lon="5.42751">
        <ele>349.60000610352</ele>
        <time>2021-03-10T14:59:36.000Z</time>
      </trkpt>
      <trkpt lat="46.33681" lon="5.42767">
        <ele>349.20001220703</ele>
        <time>2021-03-10T14:59:38.000Z</time>
      </trkpt>
      <trkpt lat="46.33672" lon="5.42772">
        <ele>349.20001220703</ele>
        <time>2021-03-10T14:59:39.000Z</time>
      </trkpt>
      <trkpt lat="46.33663" lon="5.42777">
        <ele>349.20001220703</ele>
        <time>2021-03-10T14:59:40.000Z</time>
      </trkpt>
      <trkpt lat="46.33654" lon="5.42781">
        <ele>349</ele>
        <time>2021-03-10T14:59:41.000Z</time>
      </trkpt>
      <trkpt lat="46.33644" lon="5.42784">
        <ele>348.60000610352</ele>
        <time>2021-03-10T14:59:42.000Z</time>
      </trkpt>
      <trkpt lat="46.33635" lon="5.42788">
        <ele>348.39999389648</ele>
        <time>2021-03-10T14:59:43.000Z</time>
      </trkpt>
      <trkpt lat="46.33626" lon="5.42792">
        <ele>348</ele>
        <time>2021-03-10T14:59:44.000Z</time>
      </trkpt>
      <trkpt lat="46.33618" lon="5.42796">
        <ele>347.79998779297</ele>
        <time>2021-03-10T14:59:45.000Z</time>
      </trkpt>
      <trkpt lat="46.33609" lon="5.42799">
        <ele>347.60000610352</ele>
        <time>2021-03-10T14:59:46.000Z</time>
      </trkpt>
      <trkpt lat="46.336" lon="5.42804">
        <ele>347.39999389648</ele>
        <time>2021-03-10T14:59:47.000Z</time>
      </trkpt>
      <trkpt lat="46.33592" lon="5.42808">
        <ele>347</ele>
        <time>2021-03-10T14:59:48.000Z</time>
      </trkpt>
      <trkpt lat="46.33577" lon="5.4282">
        <ele>346.79998779297</ele>
        <time>2021-03-10T14:59:50.000Z</time>
      </trkpt>
      <trkpt lat="46.33562" lon="5.42833">
        <ele>346.79998779297</ele>
        <time>2021-03-10T14:59:52.000Z</time>
      </trkpt>
      <trkpt lat="46.33556" lon="5.42841">
        <ele>346.60000610352</ele>
        <time>2021-03-10T14:59:53.000Z</time>
      </trkpt>
      <trkpt lat="46.33549" lon="5.42849">
        <ele>346.60000610352</ele>
        <time>2021-03-10T14:59:54.000Z</time>
      </trkpt>
      <trkpt lat="46.33544" lon="5.42858">
        <ele>346.60000610352</ele>
        <time>2021-03-10T14:59:55.000Z</time>
      </trkpt>
      <trkpt lat="46.33539" lon="5.42867">
        <ele>346.60000610352</ele>
        <time>2021-03-10T14:59:56.000Z</time>
      </trkpt>
      <trkpt lat="46.33529" lon="5.42885">
        <ele>346.60000610352</ele>
        <time>2021-03-10T14:59:58.000Z</time>
      </trkpt>
      <trkpt lat="46.33518" lon="5.42902">
        <ele>346.79998779297</ele>
        <time>2021-03-10T15:00:00.000Z</time>
      </trkpt>
      <trkpt lat="46.33513" lon="5.4291">
        <ele>346.79998779297</ele>
        <time>2021-03-10T15:00:01.000Z</time>
      </trkpt>
      <trkpt lat="46.33507" lon="5.42918">
        <ele>347</ele>
        <time>2021-03-10T15:00:02.000Z</time>
      </trkpt>
      <trkpt lat="46.33495" lon="5.42935">
        <ele>347.39999389648</ele>
        <time>2021-03-10T15:00:04.000Z</time>
      </trkpt>
      <trkpt lat="46.33491" lon="5.42945">
        <ele>347.60000610352</ele>
        <time>2021-03-10T15:00:05.000Z</time>
      </trkpt>
      <trkpt lat="46.33487" lon="5.42955">
        <ele>348.20001220703</ele>
        <time>2021-03-10T15:00:06.000Z</time>
      </trkpt>
      <trkpt lat="46.33481" lon="5.42977">
        <ele>348.20001220703</ele>
        <time>2021-03-10T15:00:08.000Z</time>
      </trkpt>
      <trkpt lat="46.33479" lon="5.42988">
        <ele>348.20001220703</ele>
        <time>2021-03-10T15:00:09.000Z</time>
      </trkpt>
      <trkpt lat="46.33477" lon="5.42999">
        <ele>348.20001220703</ele>
        <time>2021-03-10T15:00:10.000Z</time>
      </trkpt>
      <trkpt lat="46.33472" lon="5.43021">
        <ele>348.20001220703</ele>
        <time>2021-03-10T15:00:12.000Z</time>
      </trkpt>
      <trkpt lat="46.33465" lon="5.43043">
        <ele>348.20001220703</ele>
        <time>2021-03-10T15:00:14.000Z</time>
      </trkpt>
      <trkpt lat="46.33461" lon="5.43053">
        <ele>348.20001220703</ele>
        <time>2021-03-10T15:00:15.000Z</time>
      </trkpt>
      <trkpt lat="46.33457" lon="5.43064">
        <ele>348.20001220703</ele>
        <time>2021-03-10T15:00:16.000Z</time>
      </trkpt>
      <trkpt lat="46.33449" lon="5.43085">
        <ele>348.20001220703</ele>
        <time>2021-03-10T15:00:18.000Z</time>
      </trkpt>
      <trkpt lat="46.33446" lon="5.43095">
        <ele>348.20001220703</ele>
        <time>2021-03-10T15:00:19.000Z</time>
      </trkpt>
      <trkpt lat="46.33443" lon="5.43106">
        <ele>348.20001220703</ele>
        <time>2021-03-10T15:00:20.000Z</time>
      </trkpt>
      <trkpt lat="46.3344" lon="5.43128">
        <ele>347.79998779297</ele>
        <time>2021-03-10T15:00:22.000Z</time>
      </trkpt>
      <trkpt lat="46.33436" lon="5.43149">
        <ele>347.60000610352</ele>
        <time>2021-03-10T15:00:24.000Z</time>
      </trkpt>
      <trkpt lat="46.33432" lon="5.43169">
        <ele>347.60000610352</ele>
        <time>2021-03-10T15:00:26.000Z</time>
      </trkpt>
      <trkpt lat="46.3343" lon="5.43179">
        <ele>347.60000610352</ele>
        <time>2021-03-10T15:00:27.000Z</time>
      </trkpt>
      <trkpt lat="46.33428" lon="5.43188">
        <ele>347.60000610352</ele>
        <time>2021-03-10T15:00:28.000Z</time>
      </trkpt>
      <trkpt lat="46.33423" lon="5.43206">
        <ele>347.60000610352</ele>
        <time>2021-03-10T15:00:30.000Z</time>
      </trkpt>
      <trkpt lat="46.33418" lon="5.43224">
        <ele>347.60000610352</ele>
        <time>2021-03-10T15:00:32.000Z</time>
      </trkpt>
      <trkpt lat="46.33416" lon="5.43233">
        <ele>347.60000610352</ele>
        <time>2021-03-10T15:00:33.000Z</time>
      </trkpt>
      <trkpt lat="46.33416" lon="5.43243">
        <ele>348</ele>
        <time>2021-03-10T15:00:34.000Z</time>
      </trkpt>
      <trkpt lat="46.33422" lon="5.43258">
        <ele>348.39999389648</ele>
        <time>2021-03-10T15:00:36.000Z</time>
      </trkpt>
      <trkpt lat="46.33429" lon="5.43262">
        <ele>348.39999389648</ele>
        <time>2021-03-10T15:00:37.000Z</time>
      </trkpt>
      <trkpt lat="46.33436" lon="5.43265">
        <ele>348.39999389648</ele>
        <time>2021-03-10T15:00:38.000Z</time>
      </trkpt>
      <trkpt lat="46.33444" lon="5.43267">
        <ele>348.39999389648</ele>
        <time>2021-03-10T15:00:39.000Z</time>
      </trkpt>
      <trkpt lat="46.33452" lon="5.4327">
        <ele>348.39999389648</ele>
        <time>2021-03-10T15:00:40.000Z</time>
      </trkpt>
      <trkpt lat="46.33467" lon="5.4328">
        <ele>348.39999389648</ele>
        <time>2021-03-10T15:00:42.000Z</time>
      </trkpt>
      <trkpt lat="46.33473" lon="5.43287">
        <ele>348.39999389648</ele>
        <time>2021-03-10T15:00:43.000Z</time>
      </trkpt>
      <trkpt lat="46.3348" lon="5.43295">
        <ele>348.39999389648</ele>
        <time>2021-03-10T15:00:44.000Z</time>
      </trkpt>
      <trkpt lat="46.33492" lon="5.4331">
        <ele>348</ele>
        <time>2021-03-10T15:00:46.000Z</time>
      </trkpt>
      <trkpt lat="46.33505" lon="5.43325">
        <ele>347.20001220703</ele>
        <time>2021-03-10T15:00:48.000Z</time>
      </trkpt>
      <trkpt lat="46.33518" lon="5.43339">
        <ele>346.39999389648</ele>
        <time>2021-03-10T15:00:50.000Z</time>
      </trkpt>
      <trkpt lat="46.3353" lon="5.43353">
        <ele>346.20001220703</ele>
        <time>2021-03-10T15:00:52.000Z</time>
      </trkpt>
      <trkpt lat="46.33544" lon="5.43365">
        <ele>346</ele>
        <time>2021-03-10T15:00:54.000Z</time>
      </trkpt>
      <trkpt lat="46.33558" lon="5.43376">
        <ele>345.79998779297</ele>
        <time>2021-03-10T15:00:56.000Z</time>
      </trkpt>
      <trkpt lat="46.33572" lon="5.43387">
        <ele>345.79998779297</ele>
        <time>2021-03-10T15:00:58.000Z</time>
      </trkpt>
      <trkpt lat="46.33585" lon="5.434">
        <ele>345.60000610352</ele>
        <time>2021-03-10T15:01:00.000Z</time>
      </trkpt>
      <trkpt lat="46.33597" lon="5.43415">
        <ele>345.60000610352</ele>
        <time>2021-03-10T15:01:02.000Z</time>
      </trkpt>
      <trkpt lat="46.33603" lon="5.43423">
        <ele>345.60000610352</ele>
        <time>2021-03-10T15:01:03.000Z</time>
      </trkpt>
      <trkpt lat="46.33609" lon="5.43431">
        <ele>345.60000610352</ele>
        <time>2021-03-10T15:01:04.000Z</time>
      </trkpt>
      <trkpt lat="46.3362" lon="5.43446">
        <ele>345.79998779297</ele>
        <time>2021-03-10T15:01:06.000Z</time>
      </trkpt>
      <trkpt lat="46.33628" lon="5.43463">
        <ele>345.79998779297</ele>
        <time>2021-03-10T15:01:08.000Z</time>
      </trkpt>
      <trkpt lat="46.33632" lon="5.43482">
        <ele>345.79998779297</ele>
        <time>2021-03-10T15:01:10.000Z</time>
      </trkpt>
      <trkpt lat="46.33633" lon="5.43491">
        <ele>346</ele>
        <time>2021-03-10T15:01:11.000Z</time>
      </trkpt>
      <trkpt lat="46.33633" lon="5.43501">
        <ele>346</ele>
        <time>2021-03-10T15:01:12.000Z</time>
      </trkpt>
      <trkpt lat="46.33632" lon="5.43522">
        <ele>346.20001220703</ele>
        <time>2021-03-10T15:01:14.000Z</time>
      </trkpt>
      <trkpt lat="46.33632" lon="5.43543">
        <ele>346.60000610352</ele>
        <time>2021-03-10T15:01:16.000Z</time>
      </trkpt>
      <trkpt lat="46.33632" lon="5.43554">
        <ele>346.79998779297</ele>
        <time>2021-03-10T15:01:17.000Z</time>
      </trkpt>
      <trkpt lat="46.33632" lon="5.43564">
        <ele>347</ele>
        <time>2021-03-10T15:01:18.000Z</time>
      </trkpt>
      <trkpt lat="46.33632" lon="5.43575">
        <ele>347</ele>
        <time>2021-03-10T15:01:20.000Z</time>
      </trkpt>
      <trkpt lat="46.33633" lon="5.43607">
        <ele>347</ele>
        <time>2021-03-10T15:01:22.000Z</time>
      </trkpt>
      <trkpt lat="46.33634" lon="5.4363">
        <ele>347</ele>
        <time>2021-03-10T15:01:24.000Z</time>
      </trkpt>
      <trkpt lat="46.33636" lon="5.43652">
        <ele>347</ele>
        <time>2021-03-10T15:01:26.000Z</time>
      </trkpt>
      <trkpt lat="46.33637" lon="5.43669">
        <ele>346.79998779297</ele>
        <time>2021-03-10T15:01:28.000Z</time>
      </trkpt>
      <trkpt lat="46.33637" lon="5.43675">
        <ele>346.60000610352</ele>
        <time>2021-03-10T15:01:29.000Z</time>
      </trkpt>
      <trkpt lat="46.33636" lon="5.43678">
        <ele>345.79998779297</ele>
        <time>2021-03-10T15:01:30.000Z</time>
      </trkpt>
      <trkpt lat="46.33636" lon="5.43682">
        <ele>345.60000610352</ele>
        <time>2021-03-10T15:01:31.000Z</time>
      </trkpt>
      <trkpt lat="46.33636" lon="5.43682">
        <ele>345.39999389648</ele>
        <time>2021-03-10T15:01:32.000Z</time>
      </trkpt>
      <trkpt lat="46.33642" lon="5.43689">
        <ele>345.39999389648</ele>
        <time>2021-03-10T15:01:33.000Z</time>
      </trkpt>
      <trkpt lat="46.33646" lon="5.43692">
        <ele>345.20001220703</ele>
        <time>2021-03-10T15:01:34.000Z</time>
      </trkpt>
      <trkpt lat="46.33657" lon="5.43697">
        <ele>345.20001220703</ele>
        <time>2021-03-10T15:01:36.000Z</time>
      </trkpt>
      <trkpt lat="46.33663" lon="5.437">
        <ele>345.20001220703</ele>
        <time>2021-03-10T15:01:37.000Z</time>
      </trkpt>
      <trkpt lat="46.33663" lon="5.437">
        <ele>345</ele>
        <time>2021-03-10T15:01:38.000Z</time>
      </trkpt>
      <trkpt lat="46.33683" lon="5.43709">
        <ele>344.79998779297</ele>
        <time>2021-03-10T15:01:40.000Z</time>
      </trkpt>
      <trkpt lat="46.33697" lon="5.43715">
        <ele>344.79998779297</ele>
        <time>2021-03-10T15:01:42.000Z</time>
      </trkpt>
      <trkpt lat="46.3371" lon="5.43724">
        <ele>344.79998779297</ele>
        <time>2021-03-10T15:01:44.000Z</time>
      </trkpt>
      <trkpt lat="46.33723" lon="5.43733">
        <ele>344.79998779297</ele>
        <time>2021-03-10T15:01:46.000Z</time>
      </trkpt>
      <trkpt lat="46.33736" lon="5.43743">
        <ele>344.79998779297</ele>
        <time>2021-03-10T15:01:48.000Z</time>
      </trkpt>
      <trkpt lat="46.33748" lon="5.43754">
        <ele>344.79998779297</ele>
        <time>2021-03-10T15:01:50.000Z</time>
      </trkpt>
      <trkpt lat="46.3376" lon="5.43765">
        <ele>344.79998779297</ele>
        <time>2021-03-10T15:01:52.000Z</time>
      </trkpt>
      <trkpt lat="46.33773" lon="5.43777">
        <ele>344.60000610352</ele>
        <time>2021-03-10T15:01:54.000Z</time>
      </trkpt>
      <trkpt lat="46.33785" lon="5.43788">
        <ele>344.60000610352</ele>
        <time>2021-03-10T15:01:56.000Z</time>
      </trkpt>
      <trkpt lat="46.33797" lon="5.438">
        <ele>344.60000610352</ele>
        <time>2021-03-10T15:01:58.000Z</time>
      </trkpt>
      <trkpt lat="46.33809" lon="5.43813">
        <ele>344.60000610352</ele>
        <time>2021-03-10T15:02:00.000Z</time>
      </trkpt>
      <trkpt lat="46.33821" lon="5.43825">
        <ele>344.79998779297</ele>
        <time>2021-03-10T15:02:02.000Z</time>
      </trkpt>
      <trkpt lat="46.33834" lon="5.43837">
        <ele>344.79998779297</ele>
        <time>2021-03-10T15:02:04.000Z</time>
      </trkpt>
      <trkpt lat="46.33846" lon="5.4385">
        <ele>344.79998779297</ele>
        <time>2021-03-10T15:02:06.000Z</time>
      </trkpt>
      <trkpt lat="46.33858" lon="5.43862">
        <ele>344.79998779297</ele>
        <time>2021-03-10T15:02:08.000Z</time>
      </trkpt>
      <trkpt lat="46.3387" lon="5.43875">
        <ele>344.79998779297</ele>
        <time>2021-03-10T15:02:10.000Z</time>
      </trkpt>
      <trkpt lat="46.33883" lon="5.43887">
        <ele>344.79998779297</ele>
        <time>2021-03-10T15:02:12.000Z</time>
      </trkpt>
      <trkpt lat="46.33895" lon="5.43899">
        <ele>344.79998779297</ele>
        <time>2021-03-10T15:02:14.000Z</time>
      </trkpt>
      <trkpt lat="46.33908" lon="5.43911">
        <ele>344.60000610352</ele>
        <time>2021-03-10T15:02:16.000Z</time>
      </trkpt>
      <trkpt lat="46.33921" lon="5.43921">
        <ele>344.60000610352</ele>
        <time>2021-03-10T15:02:18.000Z</time>
      </trkpt>
      <trkpt lat="46.33928" lon="5.43925">
        <ele>344.60000610352</ele>
        <time>2021-03-10T15:02:19.000Z</time>
      </trkpt>
      <trkpt lat="46.33935" lon="5.43929">
        <ele>344.60000610352</ele>
        <time>2021-03-10T15:02:20.000Z</time>
      </trkpt>
      <trkpt lat="46.33949" lon="5.43934">
        <ele>344.60000610352</ele>
        <time>2021-03-10T15:02:22.000Z</time>
      </trkpt>
      <trkpt lat="46.33963" lon="5.43936">
        <ele>344.60000610352</ele>
        <time>2021-03-10T15:02:24.000Z</time>
      </trkpt>
      <trkpt lat="46.33977" lon="5.43937">
        <ele>344.60000610352</ele>
        <time>2021-03-10T15:02:26.000Z</time>
      </trkpt>
      <trkpt lat="46.33991" lon="5.43936">
        <ele>344.60000610352</ele>
        <time>2021-03-10T15:02:28.000Z</time>
      </trkpt>
      <trkpt lat="46.34005" lon="5.43935">
        <ele>344.79998779297</ele>
        <time>2021-03-10T15:02:30.000Z</time>
      </trkpt>
      <trkpt lat="46.34019" lon="5.43933">
        <ele>345.20001220703</ele>
        <time>2021-03-10T15:02:32.000Z</time>
      </trkpt>
      <trkpt lat="46.34033" lon="5.43931">
        <ele>345.39999389648</ele>
        <time>2021-03-10T15:02:34.000Z</time>
      </trkpt>
      <trkpt lat="46.34047" lon="5.4393">
        <ele>345.60000610352</ele>
        <time>2021-03-10T15:02:36.000Z</time>
      </trkpt>
      <trkpt lat="46.34061" lon="5.43929">
        <ele>345.60000610352</ele>
        <time>2021-03-10T15:02:38.000Z</time>
      </trkpt>
      <trkpt lat="46.34075" lon="5.43927">
        <ele>345.79998779297</ele>
        <time>2021-03-10T15:02:40.000Z</time>
      </trkpt>
      <trkpt lat="46.34082" lon="5.43926">
        <ele>345.79998779297</ele>
        <time>2021-03-10T15:02:41.000Z</time>
      </trkpt>
      <trkpt lat="46.34089" lon="5.43925">
        <ele>345.79998779297</ele>
        <time>2021-03-10T15:02:42.000Z</time>
      </trkpt>
      <trkpt lat="46.34102" lon="5.43924">
        <ele>345.79998779297</ele>
        <time>2021-03-10T15:02:44.000Z</time>
      </trkpt>
      <trkpt lat="46.34116" lon="5.43922">
        <ele>346</ele>
        <time>2021-03-10T15:02:46.000Z</time>
      </trkpt>
      <trkpt lat="46.3413" lon="5.43921">
        <ele>346</ele>
        <time>2021-03-10T15:02:48.000Z</time>
      </trkpt>
      <trkpt lat="46.34143" lon="5.43919">
        <ele>346</ele>
        <time>2021-03-10T15:02:50.000Z</time>
      </trkpt>
      <trkpt lat="46.34149" lon="5.43918">
        <ele>346</ele>
        <time>2021-03-10T15:02:51.000Z</time>
      </trkpt>
      <trkpt lat="46.34156" lon="5.43917">
        <ele>346.20001220703</ele>
        <time>2021-03-10T15:02:52.000Z</time>
      </trkpt>
      <trkpt lat="46.3417" lon="5.43916">
        <ele>346.39999389648</ele>
        <time>2021-03-10T15:02:54.000Z</time>
      </trkpt>
      <trkpt lat="46.34183" lon="5.43914">
        <ele>346.39999389648</ele>
        <time>2021-03-10T15:02:56.000Z</time>
      </trkpt>
      <trkpt lat="46.34197" lon="5.43912">
        <ele>346.39999389648</ele>
        <time>2021-03-10T15:02:58.000Z</time>
      </trkpt>
      <trkpt lat="46.3421" lon="5.4391">
        <ele>346.39999389648</ele>
        <time>2021-03-10T15:03:00.000Z</time>
      </trkpt>
      <trkpt lat="46.34217" lon="5.43909">
        <ele>346.39999389648</ele>
        <time>2021-03-10T15:03:01.000Z</time>
      </trkpt>
      <trkpt lat="46.34224" lon="5.43908">
        <ele>346.39999389648</ele>
        <time>2021-03-10T15:03:02.000Z</time>
      </trkpt>
      <trkpt lat="46.34237" lon="5.43907">
        <ele>346.39999389648</ele>
        <time>2021-03-10T15:03:04.000Z</time>
      </trkpt>
      <trkpt lat="46.3425" lon="5.43905">
        <ele>346.39999389648</ele>
        <time>2021-03-10T15:03:06.000Z</time>
      </trkpt>
      <trkpt lat="46.34263" lon="5.43902">
        <ele>346.39999389648</ele>
        <time>2021-03-10T15:03:08.000Z</time>
      </trkpt>
      <trkpt lat="46.34276" lon="5.43899">
        <ele>346.20001220703</ele>
        <time>2021-03-10T15:03:10.000Z</time>
      </trkpt>
      <trkpt lat="46.34288" lon="5.43896">
        <ele>346.20001220703</ele>
        <time>2021-03-10T15:03:12.000Z</time>
      </trkpt>
      <trkpt lat="46.34295" lon="5.43895">
        <ele>346.20001220703</ele>
        <time>2021-03-10T15:03:14.000Z</time>
      </trkpt>
      <trkpt lat="46.34313" lon="5.43888">
        <ele>346.39999389648</ele>
        <time>2021-03-10T15:03:16.000Z</time>
      </trkpt>
      <trkpt lat="46.34326" lon="5.43883">
        <ele>346.39999389648</ele>
        <time>2021-03-10T15:03:18.000Z</time>
      </trkpt>
      <trkpt lat="46.34332" lon="5.43881">
        <ele>346.39999389648</ele>
        <time>2021-03-10T15:03:20.000Z</time>
      </trkpt>
      <trkpt lat="46.34351" lon="5.43873">
        <ele>346.39999389648</ele>
        <time>2021-03-10T15:03:22.000Z</time>
      </trkpt>
      <trkpt lat="46.34363" lon="5.43868">
        <ele>346.60000610352</ele>
        <time>2021-03-10T15:03:24.000Z</time>
      </trkpt>
      <trkpt lat="46.34375" lon="5.43862">
        <ele>346.79998779297</ele>
        <time>2021-03-10T15:03:26.000Z</time>
      </trkpt>
      <trkpt lat="46.34387" lon="5.43855">
        <ele>347</ele>
        <time>2021-03-10T15:03:28.000Z</time>
      </trkpt>
      <trkpt lat="46.34399" lon="5.43848">
        <ele>347</ele>
        <time>2021-03-10T15:03:30.000Z</time>
      </trkpt>
      <trkpt lat="46.34405" lon="5.43845">
        <ele>347</ele>
        <time>2021-03-10T15:03:31.000Z</time>
      </trkpt>
      <trkpt lat="46.34411" lon="5.43841">
        <ele>347</ele>
        <time>2021-03-10T15:03:32.000Z</time>
      </trkpt>
      <trkpt lat="46.34423" lon="5.43833">
        <ele>347.20001220703</ele>
        <time>2021-03-10T15:03:34.000Z</time>
      </trkpt>
      <trkpt lat="46.34435" lon="5.43826">
        <ele>347.20001220703</ele>
        <time>2021-03-10T15:03:36.000Z</time>
      </trkpt>
      <trkpt lat="46.34446" lon="5.43818">
        <ele>347.20001220703</ele>
        <time>2021-03-10T15:03:38.000Z</time>
      </trkpt>
      <trkpt lat="46.34452" lon="5.43814">
        <ele>347.20001220703</ele>
        <time>2021-03-10T15:03:39.000Z</time>
      </trkpt>
      <trkpt lat="46.34458" lon="5.43811">
        <ele>347.39999389648</ele>
        <time>2021-03-10T15:03:40.000Z</time>
      </trkpt>
      <trkpt lat="46.34469" lon="5.43804">
        <ele>347.60000610352</ele>
        <time>2021-03-10T15:03:42.000Z</time>
      </trkpt>
      <trkpt lat="46.34482" lon="5.43798">
        <ele>347.79998779297</ele>
        <time>2021-03-10T15:03:44.000Z</time>
      </trkpt>
      <trkpt lat="46.34494" lon="5.43792">
        <ele>347.79998779297</ele>
        <time>2021-03-10T15:03:46.000Z</time>
      </trkpt>
      <trkpt lat="46.345" lon="5.43789">
        <ele>347.79998779297</ele>
        <time>2021-03-10T15:03:47.000Z</time>
      </trkpt>
      <trkpt lat="46.34506" lon="5.43786">
        <ele>348</ele>
        <time>2021-03-10T15:03:48.000Z</time>
      </trkpt>
      <trkpt lat="46.34519" lon="5.43781">
        <ele>348.39999389648</ele>
        <time>2021-03-10T15:03:50.000Z</time>
      </trkpt>
      <trkpt lat="46.34532" lon="5.43776">
        <ele>348.60000610352</ele>
        <time>2021-03-10T15:03:52.000Z</time>
      </trkpt>
      <trkpt lat="46.34545" lon="5.43771">
        <ele>348.60000610352</ele>
        <time>2021-03-10T15:03:54.000Z</time>
      </trkpt>
      <trkpt lat="46.34558" lon="5.43765">
        <ele>348.60000610352</ele>
        <time>2021-03-10T15:03:56.000Z</time>
      </trkpt>
      <trkpt lat="46.34564" lon="5.43763">
        <ele>348.60000610352</ele>
        <time>2021-03-10T15:03:57.000Z</time>
      </trkpt>
      <trkpt lat="46.34571" lon="5.4376">
        <ele>348.60000610352</ele>
        <time>2021-03-10T15:03:58.000Z</time>
      </trkpt>
      <trkpt lat="46.34584" lon="5.43755">
        <ele>348.79998779297</ele>
        <time>2021-03-10T15:04:00.000Z</time>
      </trkpt>
      <trkpt lat="46.34597" lon="5.4375">
        <ele>348.79998779297</ele>
        <time>2021-03-10T15:04:02.000Z</time>
      </trkpt>
      <trkpt lat="46.3461" lon="5.43745">
        <ele>348.79998779297</ele>
        <time>2021-03-10T15:04:04.000Z</time>
      </trkpt>
      <trkpt lat="46.34623" lon="5.4374">
        <ele>348.79998779297</ele>
        <time>2021-03-10T15:04:06.000Z</time>
      </trkpt>
      <trkpt lat="46.34636" lon="5.43736">
        <ele>348.60000610352</ele>
        <time>2021-03-10T15:04:08.000Z</time>
      </trkpt>
      <trkpt lat="46.34649" lon="5.43732">
        <ele>348.60000610352</ele>
        <time>2021-03-10T15:04:10.000Z</time>
      </trkpt>
      <trkpt lat="46.34662" lon="5.4373">
        <ele>348.79998779297</ele>
        <time>2021-03-10T15:04:12.000Z</time>
      </trkpt>
      <trkpt lat="46.34676" lon="5.43729">
        <ele>348.79998779297</ele>
        <time>2021-03-10T15:04:14.000Z</time>
      </trkpt>
      <trkpt lat="46.34689" lon="5.4373">
        <ele>348.79998779297</ele>
        <time>2021-03-10T15:04:16.000Z</time>
      </trkpt>
      <trkpt lat="46.34703" lon="5.43732">
        <ele>348.79998779297</ele>
        <time>2021-03-10T15:04:18.000Z</time>
      </trkpt>
      <trkpt lat="46.34716" lon="5.43735">
        <ele>349.20001220703</ele>
        <time>2021-03-10T15:04:20.000Z</time>
      </trkpt>
      <trkpt lat="46.34723" lon="5.43737">
        <ele>349.39999389648</ele>
        <time>2021-03-10T15:04:21.000Z</time>
      </trkpt>
      <trkpt lat="46.3473" lon="5.43739">
        <ele>349.39999389648</ele>
        <time>2021-03-10T15:04:22.000Z</time>
      </trkpt>
      <trkpt lat="46.34742" lon="5.43744">
        <ele>349.39999389648</ele>
        <time>2021-03-10T15:04:24.000Z</time>
      </trkpt>
      <trkpt lat="46.34755" lon="5.43749">
        <ele>349.39999389648</ele>
        <time>2021-03-10T15:04:26.000Z</time>
      </trkpt>
      <trkpt lat="46.34768" lon="5.43754">
        <ele>349.39999389648</ele>
        <time>2021-03-10T15:04:28.000Z</time>
      </trkpt>
      <trkpt lat="46.34781" lon="5.4376">
        <ele>349.39999389648</ele>
        <time>2021-03-10T15:04:30.000Z</time>
      </trkpt>
      <trkpt lat="46.34787" lon="5.43763">
        <ele>349.39999389648</ele>
        <time>2021-03-10T15:04:31.000Z</time>
      </trkpt>
      <trkpt lat="46.34794" lon="5.43767">
        <ele>349.39999389648</ele>
        <time>2021-03-10T15:04:32.000Z</time>
      </trkpt>
      <trkpt lat="46.34807" lon="5.43775">
        <ele>349.39999389648</ele>
        <time>2021-03-10T15:04:34.000Z</time>
      </trkpt>
      <trkpt lat="46.34821" lon="5.43783">
        <ele>349.39999389648</ele>
        <time>2021-03-10T15:04:36.000Z</time>
      </trkpt>
      <trkpt lat="46.34835" lon="5.43793">
        <ele>349.20001220703</ele>
        <time>2021-03-10T15:04:38.000Z</time>
      </trkpt>
      <trkpt lat="46.34849" lon="5.43803">
        <ele>349.20001220703</ele>
        <time>2021-03-10T15:04:40.000Z</time>
      </trkpt>
      <trkpt lat="46.34863" lon="5.43812">
        <ele>349</ele>
        <time>2021-03-10T15:04:42.000Z</time>
      </trkpt>
      <trkpt lat="46.34878" lon="5.43819">
        <ele>348.60000610352</ele>
        <time>2021-03-10T15:04:44.000Z</time>
      </trkpt>
      <trkpt lat="46.34886" lon="5.43822">
        <ele>348.39999389648</ele>
        <time>2021-03-10T15:04:45.000Z</time>
      </trkpt>
      <trkpt lat="46.34893" lon="5.43825">
        <ele>348.20001220703</ele>
        <time>2021-03-10T15:04:46.000Z</time>
      </trkpt>
      <trkpt lat="46.34908" lon="5.43829">
        <ele>347</ele>
        <time>2021-03-10T15:04:48.000Z</time>
      </trkpt>
      <trkpt lat="46.34924" lon="5.43831">
        <ele>346.60000610352</ele>
        <time>2021-03-10T15:04:50.000Z</time>
      </trkpt>
      <trkpt lat="46.3494" lon="5.43833">
        <ele>346.60000610352</ele>
        <time>2021-03-10T15:04:52.000Z</time>
      </trkpt>
      <trkpt lat="46.34955" lon="5.43835">
        <ele>346.60000610352</ele>
        <time>2021-03-10T15:04:54.000Z</time>
      </trkpt>
      <trkpt lat="46.3497" lon="5.43836">
        <ele>346.60000610352</ele>
        <time>2021-03-10T15:04:56.000Z</time>
      </trkpt>
      <trkpt lat="46.34984" lon="5.43836">
        <ele>346.60000610352</ele>
        <time>2021-03-10T15:04:58.000Z</time>
      </trkpt>
      <trkpt lat="46.34998" lon="5.43837">
        <ele>346.60000610352</ele>
        <time>2021-03-10T15:05:00.000Z</time>
      </trkpt>
      <trkpt lat="46.35011" lon="5.43839">
        <ele>346.79998779297</ele>
        <time>2021-03-10T15:05:02.000Z</time>
      </trkpt>
      <trkpt lat="46.35018" lon="5.4384">
        <ele>346.79998779297</ele>
        <time>2021-03-10T15:05:03.000Z</time>
      </trkpt>
      <trkpt lat="46.35025" lon="5.4384">
        <ele>347</ele>
        <time>2021-03-10T15:05:04.000Z</time>
      </trkpt>
      <trkpt lat="46.35038" lon="5.43841">
        <ele>347</ele>
        <time>2021-03-10T15:05:06.000Z</time>
      </trkpt>
      <trkpt lat="46.35051" lon="5.43841">
        <ele>347</ele>
        <time>2021-03-10T15:05:08.000Z</time>
      </trkpt>
      <trkpt lat="46.35065" lon="5.43839">
        <ele>347.20001220703</ele>
        <time>2021-03-10T15:05:10.000Z</time>
      </trkpt>
      <trkpt lat="46.35079" lon="5.43836">
        <ele>347.20001220703</ele>
        <time>2021-03-10T15:05:12.000Z</time>
      </trkpt>
      <trkpt lat="46.35092" lon="5.43833">
        <ele>347.20001220703</ele>
        <time>2021-03-10T15:05:14.000Z</time>
      </trkpt>
      <trkpt lat="46.35104" lon="5.43826">
        <ele>347.20001220703</ele>
        <time>2021-03-10T15:05:16.000Z</time>
      </trkpt>
      <trkpt lat="46.35115" lon="5.43818">
        <ele>347.39999389648</ele>
        <time>2021-03-10T15:05:18.000Z</time>
      </trkpt>
      <trkpt lat="46.35125" lon="5.43809">
        <ele>347.79998779297</ele>
        <time>2021-03-10T15:05:20.000Z</time>
      </trkpt>
      <trkpt lat="46.3513" lon="5.43803">
        <ele>348.20001220703</ele>
        <time>2021-03-10T15:05:21.000Z</time>
      </trkpt>
      <trkpt lat="46.35134" lon="5.43798">
        <ele>348.39999389648</ele>
        <time>2021-03-10T15:05:22.000Z</time>
      </trkpt>
      <trkpt lat="46.35142" lon="5.43787">
        <ele>348.79998779297</ele>
        <time>2021-03-10T15:05:24.000Z</time>
      </trkpt>
      <trkpt lat="46.35151" lon="5.43776">
        <ele>349</ele>
        <time>2021-03-10T15:05:26.000Z</time>
      </trkpt>
      <trkpt lat="46.35158" lon="5.43766">
        <ele>349.20001220703</ele>
        <time>2021-03-10T15:05:28.000Z</time>
      </trkpt>
      <trkpt lat="46.35166" lon="5.43756">
        <ele>349.39999389648</ele>
        <time>2021-03-10T15:05:30.000Z</time>
      </trkpt>
      <trkpt lat="46.3517" lon="5.43751">
        <ele>349.60000610352</ele>
        <time>2021-03-10T15:05:31.000Z</time>
      </trkpt>
      <trkpt lat="46.35174" lon="5.43747">
        <ele>349.60000610352</ele>
        <time>2021-03-10T15:05:32.000Z</time>
      </trkpt>
      <trkpt lat="46.35182" lon="5.43739">
        <ele>350</ele>
        <time>2021-03-10T15:05:34.000Z</time>
      </trkpt>
      <trkpt lat="46.35186" lon="5.43735">
        <ele>350.39999389648</ele>
        <time>2021-03-10T15:05:35.000Z</time>
      </trkpt>
      <trkpt lat="46.35189" lon="5.43731">
        <ele>350.79998779297</ele>
        <time>2021-03-10T15:05:36.000Z</time>
      </trkpt>
      <trkpt lat="46.35197" lon="5.43723">
        <ele>351.20001220703</ele>
        <time>2021-03-10T15:05:38.000Z</time>
      </trkpt>
      <trkpt lat="46.35201" lon="5.43719">
        <ele>351.60000610352</ele>
        <time>2021-03-10T15:05:39.000Z</time>
      </trkpt>
      <trkpt lat="46.35205" lon="5.43715">
        <ele>351.79998779297</ele>
        <time>2021-03-10T15:05:40.000Z</time>
      </trkpt>
      <trkpt lat="46.35213" lon="5.43707">
        <ele>352.39999389648</ele>
        <time>2021-03-10T15:05:42.000Z</time>
      </trkpt>
      <trkpt lat="46.35217" lon="5.43703">
        <ele>353</ele>
        <time>2021-03-10T15:05:43.000Z</time>
      </trkpt>
      <trkpt lat="46.35221" lon="5.437">
        <ele>353.20001220703</ele>
        <time>2021-03-10T15:05:44.000Z</time>
      </trkpt>
      <trkpt lat="46.3523" lon="5.43695">
        <ele>353.79998779297</ele>
        <time>2021-03-10T15:05:46.000Z</time>
      </trkpt>
      <trkpt lat="46.35234" lon="5.43692">
        <ele>354</ele>
        <time>2021-03-10T15:05:47.000Z</time>
      </trkpt>
      <trkpt lat="46.35239" lon="5.43689">
        <ele>354.39999389648</ele>
        <time>2021-03-10T15:05:48.000Z</time>
      </trkpt>
      <trkpt lat="46.35248" lon="5.43684">
        <ele>354.79998779297</ele>
        <time>2021-03-10T15:05:50.000Z</time>
      </trkpt>
      <trkpt lat="46.35253" lon="5.43682">
        <ele>355.20001220703</ele>
        <time>2021-03-10T15:05:51.000Z</time>
      </trkpt>
      <trkpt lat="46.35257" lon="5.4368">
        <ele>355.60000610352</ele>
        <time>2021-03-10T15:05:52.000Z</time>
      </trkpt>
      <trkpt lat="46.35266" lon="5.43676">
        <ele>356</ele>
        <time>2021-03-10T15:05:54.000Z</time>
      </trkpt>
      <trkpt lat="46.35275" lon="5.43674">
        <ele>356.20001220703</ele>
        <time>2021-03-10T15:05:56.000Z</time>
      </trkpt>
      <trkpt lat="46.35279" lon="5.43673">
        <ele>356.39999389648</ele>
        <time>2021-03-10T15:05:57.000Z</time>
      </trkpt>
      <trkpt lat="46.35284" lon="5.43672">
        <ele>356.60000610352</ele>
        <time>2021-03-10T15:05:58.000Z</time>
      </trkpt>
      <trkpt lat="46.35292" lon="5.43671">
        <ele>357</ele>
        <time>2021-03-10T15:06:00.000Z</time>
      </trkpt>
      <trkpt lat="46.353" lon="5.43669">
        <ele>357.20001220703</ele>
        <time>2021-03-10T15:06:02.000Z</time>
      </trkpt>
      <trkpt lat="46.35304" lon="5.43669">
        <ele>357.39999389648</ele>
        <time>2021-03-10T15:06:03.000Z</time>
      </trkpt>
      <trkpt lat="46.35308" lon="5.43669">
        <ele>357.60000610352</ele>
        <time>2021-03-10T15:06:04.000Z</time>
      </trkpt>
      <trkpt lat="46.35313" lon="5.43668">
        <ele>357.79998779297</ele>
        <time>2021-03-10T15:06:05.000Z</time>
      </trkpt>
      <trkpt lat="46.35317" lon="5.43668">
        <ele>358</ele>
        <time>2021-03-10T15:06:06.000Z</time>
      </trkpt>
      <trkpt lat="46.35325" lon="5.43667">
        <ele>358.60000610352</ele>
        <time>2021-03-10T15:06:08.000Z</time>
      </trkpt>
      <trkpt lat="46.35333" lon="5.43667">
        <ele>359</ele>
        <time>2021-03-10T15:06:10.000Z</time>
      </trkpt>
      <trkpt lat="46.35341" lon="5.43666">
        <ele>359.39999389648</ele>
        <time>2021-03-10T15:06:12.000Z</time>
      </trkpt>
      <trkpt lat="46.35346" lon="5.43666">
        <ele>359.60000610352</ele>
        <time>2021-03-10T15:06:13.000Z</time>
      </trkpt>
      <trkpt lat="46.3535" lon="5.43665">
        <ele>359.79998779297</ele>
        <time>2021-03-10T15:06:14.000Z</time>
      </trkpt>
      <trkpt lat="46.35358" lon="5.43664">
        <ele>360.39999389648</ele>
        <time>2021-03-10T15:06:16.000Z</time>
      </trkpt>
      <trkpt lat="46.35362" lon="5.43664">
        <ele>360.60000610352</ele>
        <time>2021-03-10T15:06:17.000Z</time>
      </trkpt>
      <trkpt lat="46.35366" lon="5.43664">
        <ele>360.79998779297</ele>
        <time>2021-03-10T15:06:18.000Z</time>
      </trkpt>
      <trkpt lat="46.35374" lon="5.43663">
        <ele>361.20001220703</ele>
        <time>2021-03-10T15:06:20.000Z</time>
      </trkpt>
      <trkpt lat="46.35382" lon="5.43662">
        <ele>361.60000610352</ele>
        <time>2021-03-10T15:06:22.000Z</time>
      </trkpt>
      <trkpt lat="46.35385" lon="5.43661">
        <ele>361.79998779297</ele>
        <time>2021-03-10T15:06:23.000Z</time>
      </trkpt>
      <trkpt lat="46.35389" lon="5.43661">
        <ele>362</ele>
        <time>2021-03-10T15:06:24.000Z</time>
      </trkpt>
      <trkpt lat="46.35397" lon="5.4366">
        <ele>362.60000610352</ele>
        <time>2021-03-10T15:06:26.000Z</time>
      </trkpt>
      <trkpt lat="46.35405" lon="5.43659">
        <ele>362.79998779297</ele>
        <time>2021-03-10T15:06:28.000Z</time>
      </trkpt>
      <trkpt lat="46.35412" lon="5.43658">
        <ele>363.39999389648</ele>
        <time>2021-03-10T15:06:30.000Z</time>
      </trkpt>
      <trkpt lat="46.3542" lon="5.43657">
        <ele>363.79998779297</ele>
        <time>2021-03-10T15:06:32.000Z</time>
      </trkpt>
      <trkpt lat="46.35424" lon="5.43657">
        <ele>364</ele>
        <time>2021-03-10T15:06:33.000Z</time>
      </trkpt>
      <trkpt lat="46.35428" lon="5.43656">
        <ele>364.39999389648</ele>
        <time>2021-03-10T15:06:34.000Z</time>
      </trkpt>
      <trkpt lat="46.35436" lon="5.43655">
        <ele>364.79998779297</ele>
        <time>2021-03-10T15:06:36.000Z</time>
      </trkpt>
      <trkpt lat="46.35444" lon="5.43654">
        <ele>365.20001220703</ele>
        <time>2021-03-10T15:06:38.000Z</time>
      </trkpt>
      <trkpt lat="46.35452" lon="5.43654">
        <ele>365.60000610352</ele>
        <time>2021-03-10T15:06:40.000Z</time>
      </trkpt>
      <trkpt lat="46.3546" lon="5.43653">
        <ele>366</ele>
        <time>2021-03-10T15:06:42.000Z</time>
      </trkpt>
      <trkpt lat="46.35464" lon="5.43652">
        <ele>366</ele>
        <time>2021-03-10T15:06:43.000Z</time>
      </trkpt>
      <trkpt lat="46.35468" lon="5.43652">
        <ele>366.20001220703</ele>
        <time>2021-03-10T15:06:44.000Z</time>
      </trkpt>
      <trkpt lat="46.35476" lon="5.43651">
        <ele>366.79998779297</ele>
        <time>2021-03-10T15:06:46.000Z</time>
      </trkpt>
      <trkpt lat="46.35484" lon="5.4365">
        <ele>367.39999389648</ele>
        <time>2021-03-10T15:06:48.000Z</time>
      </trkpt>
      <trkpt lat="46.35492" lon="5.43648">
        <ele>367.79998779297</ele>
        <time>2021-03-10T15:06:50.000Z</time>
      </trkpt>
      <trkpt lat="46.355" lon="5.43648">
        <ele>368.20001220703</ele>
        <time>2021-03-10T15:06:52.000Z</time>
      </trkpt>
      <trkpt lat="46.35504" lon="5.43647">
        <ele>368.39999389648</ele>
        <time>2021-03-10T15:06:53.000Z</time>
      </trkpt>
      <trkpt lat="46.35508" lon="5.43647">
        <ele>368.60000610352</ele>
        <time>2021-03-10T15:06:54.000Z</time>
      </trkpt>
      <trkpt lat="46.35516" lon="5.43646">
        <ele>368.79998779297</ele>
        <time>2021-03-10T15:06:56.000Z</time>
      </trkpt>
      <trkpt lat="46.35524" lon="5.43645">
        <ele>369</ele>
        <time>2021-03-10T15:06:58.000Z</time>
      </trkpt>
      <trkpt lat="46.35532" lon="5.43644">
        <ele>369.20001220703</ele>
        <time>2021-03-10T15:07:00.000Z</time>
      </trkpt>
      <trkpt lat="46.35541" lon="5.43643">
        <ele>369.39999389648</ele>
        <time>2021-03-10T15:07:02.000Z</time>
      </trkpt>
      <trkpt lat="46.35549" lon="5.43642">
        <ele>370</ele>
        <time>2021-03-10T15:07:04.000Z</time>
      </trkpt>
      <trkpt lat="46.35553" lon="5.43642">
        <ele>370.20001220703</ele>
        <time>2021-03-10T15:07:05.000Z</time>
      </trkpt>
      <trkpt lat="46.35557" lon="5.43641">
        <ele>370.39999389648</ele>
        <time>2021-03-10T15:07:06.000Z</time>
      </trkpt>
      <trkpt lat="46.35562" lon="5.43641">
        <ele>370.60000610352</ele>
        <time>2021-03-10T15:07:07.000Z</time>
      </trkpt>
      <trkpt lat="46.35566" lon="5.4364">
        <ele>370.79998779297</ele>
        <time>2021-03-10T15:07:08.000Z</time>
      </trkpt>
      <trkpt lat="46.35575" lon="5.43639">
        <ele>371</ele>
        <time>2021-03-10T15:07:10.000Z</time>
      </trkpt>
      <trkpt lat="46.35583" lon="5.43638">
        <ele>371.39999389648</ele>
        <time>2021-03-10T15:07:12.000Z</time>
      </trkpt>
      <trkpt lat="46.35588" lon="5.43637">
        <ele>371.39999389648</ele>
        <time>2021-03-10T15:07:13.000Z</time>
      </trkpt>
      <trkpt lat="46.35592" lon="5.43637">
        <ele>371.60000610352</ele>
        <time>2021-03-10T15:07:14.000Z</time>
      </trkpt>
      <trkpt lat="46.35602" lon="5.43636">
        <ele>372</ele>
        <time>2021-03-10T15:07:16.000Z</time>
      </trkpt>
      <trkpt lat="46.35612" lon="5.43634">
        <ele>372.39999389648</ele>
        <time>2021-03-10T15:07:18.000Z</time>
      </trkpt>
      <trkpt lat="46.35621" lon="5.43633">
        <ele>372.60000610352</ele>
        <time>2021-03-10T15:07:20.000Z</time>
      </trkpt>
      <trkpt lat="46.35626" lon="5.43632">
        <ele>372.60000610352</ele>
        <time>2021-03-10T15:07:21.000Z</time>
      </trkpt>
      <trkpt lat="46.35632" lon="5.43632">
        <ele>372.79998779297</ele>
        <time>2021-03-10T15:07:22.000Z</time>
      </trkpt>
      <trkpt lat="46.35637" lon="5.43631">
        <ele>372.79998779297</ele>
        <time>2021-03-10T15:07:23.000Z</time>
      </trkpt>
      <trkpt lat="46.35642" lon="5.4363">
        <ele>372.79998779297</ele>
        <time>2021-03-10T15:07:24.000Z</time>
      </trkpt>
      <trkpt lat="46.35653" lon="5.43629">
        <ele>372.79998779297</ele>
        <time>2021-03-10T15:07:26.000Z</time>
      </trkpt>
      <trkpt lat="46.35664" lon="5.43627">
        <ele>373</ele>
        <time>2021-03-10T15:07:28.000Z</time>
      </trkpt>
      <trkpt lat="46.35676" lon="5.43626">
        <ele>373</ele>
        <time>2021-03-10T15:07:30.000Z</time>
      </trkpt>
      <trkpt lat="46.35687" lon="5.43624">
        <ele>373</ele>
        <time>2021-03-10T15:07:32.000Z</time>
      </trkpt>
      <trkpt lat="46.35699" lon="5.43622">
        <ele>373.20001220703</ele>
        <time>2021-03-10T15:07:34.000Z</time>
      </trkpt>
      <trkpt lat="46.35705" lon="5.43621">
        <ele>373.20001220703</ele>
        <time>2021-03-10T15:07:35.000Z</time>
      </trkpt>
      <trkpt lat="46.35712" lon="5.43621">
        <ele>373.20001220703</ele>
        <time>2021-03-10T15:07:36.000Z</time>
      </trkpt>
      <trkpt lat="46.35725" lon="5.43619">
        <ele>373.20001220703</ele>
        <time>2021-03-10T15:07:38.000Z</time>
      </trkpt>
      <trkpt lat="46.35738" lon="5.43616">
        <ele>373</ele>
        <time>2021-03-10T15:07:40.000Z</time>
      </trkpt>
      <trkpt lat="46.35752" lon="5.43613">
        <ele>373</ele>
        <time>2021-03-10T15:07:42.000Z</time>
      </trkpt>
      <trkpt lat="46.35767" lon="5.43609">
        <ele>373</ele>
        <time>2021-03-10T15:07:44.000Z</time>
      </trkpt>
      <trkpt lat="46.35782" lon="5.43606">
        <ele>372.60000610352</ele>
        <time>2021-03-10T15:07:46.000Z</time>
      </trkpt>
      <trkpt lat="46.35798" lon="5.43602">
        <ele>372.39999389648</ele>
        <time>2021-03-10T15:07:48.000Z</time>
      </trkpt>
      <trkpt lat="46.35814" lon="5.43599">
        <ele>371.79998779297</ele>
        <time>2021-03-10T15:07:50.000Z</time>
      </trkpt>
      <trkpt lat="46.35822" lon="5.43597">
        <ele>371.20001220703</ele>
        <time>2021-03-10T15:07:51.000Z</time>
      </trkpt>
      <trkpt lat="46.3583" lon="5.43595">
        <ele>371</ele>
        <time>2021-03-10T15:07:52.000Z</time>
      </trkpt>
      <trkpt lat="46.35845" lon="5.43591">
        <ele>370.60000610352</ele>
        <time>2021-03-10T15:07:54.000Z</time>
      </trkpt>
      <trkpt lat="46.35861" lon="5.43588">
        <ele>370.39999389648</ele>
        <time>2021-03-10T15:07:56.000Z</time>
      </trkpt>
      <trkpt lat="46.35877" lon="5.43584">
        <ele>370.39999389648</ele>
        <time>2021-03-10T15:07:58.000Z</time>
      </trkpt>
      <trkpt lat="46.35892" lon="5.43581">
        <ele>370.20001220703</ele>
        <time>2021-03-10T15:08:00.000Z</time>
      </trkpt>
      <trkpt lat="46.359" lon="5.43579">
        <ele>370</ele>
        <time>2021-03-10T15:08:01.000Z</time>
      </trkpt>
      <trkpt lat="46.35908" lon="5.43578">
        <ele>370</ele>
        <time>2021-03-10T15:08:02.000Z</time>
      </trkpt>
      <trkpt lat="46.35923" lon="5.43575">
        <ele>369.79998779297</ele>
        <time>2021-03-10T15:08:04.000Z</time>
      </trkpt>
      <trkpt lat="46.35939" lon="5.43573">
        <ele>369.60000610352</ele>
        <time>2021-03-10T15:08:06.000Z</time>
      </trkpt>
      <trkpt lat="46.35946" lon="5.43572">
        <ele>369.60000610352</ele>
        <time>2021-03-10T15:08:07.000Z</time>
      </trkpt>
      <trkpt lat="46.35954" lon="5.43571">
        <ele>369.60000610352</ele>
        <time>2021-03-10T15:08:08.000Z</time>
      </trkpt>
      <trkpt lat="46.35971" lon="5.43569">
        <ele>369.39999389648</ele>
        <time>2021-03-10T15:08:10.000Z</time>
      </trkpt>
      <trkpt lat="46.35979" lon="5.43569">
        <ele>369.20001220703</ele>
        <time>2021-03-10T15:08:11.000Z</time>
      </trkpt>
      <trkpt lat="46.35987" lon="5.43569">
        <ele>369.20001220703</ele>
        <time>2021-03-10T15:08:12.000Z</time>
      </trkpt>
      <trkpt lat="46.36004" lon="5.43569">
        <ele>369</ele>
        <time>2021-03-10T15:08:14.000Z</time>
      </trkpt>
      <trkpt lat="46.36022" lon="5.43569">
        <ele>369</ele>
        <time>2021-03-10T15:08:16.000Z</time>
      </trkpt>
      <trkpt lat="46.3604" lon="5.43569">
        <ele>368.60000610352</ele>
        <time>2021-03-10T15:08:18.000Z</time>
      </trkpt>
      <trkpt lat="46.36049" lon="5.43569">
        <ele>368.39999389648</ele>
        <time>2021-03-10T15:08:19.000Z</time>
      </trkpt>
      <trkpt lat="46.36058" lon="5.4357">
        <ele>368.39999389648</ele>
        <time>2021-03-10T15:08:20.000Z</time>
      </trkpt>
      <trkpt lat="46.36077" lon="5.43571">
        <ele>367.60000610352</ele>
        <time>2021-03-10T15:08:22.000Z</time>
      </trkpt>
      <trkpt lat="46.36096" lon="5.43572">
        <ele>366.79998779297</ele>
        <time>2021-03-10T15:08:24.000Z</time>
      </trkpt>
      <trkpt lat="46.36105" lon="5.43573">
        <ele>366.60000610352</ele>
        <time>2021-03-10T15:08:25.000Z</time>
      </trkpt>
      <trkpt lat="46.36115" lon="5.43574">
        <ele>366.20001220703</ele>
        <time>2021-03-10T15:08:26.000Z</time>
      </trkpt>
      <trkpt lat="46.36133" lon="5.43575">
        <ele>365.39999389648</ele>
        <time>2021-03-10T15:08:28.000Z</time>
      </trkpt>
      <trkpt lat="46.36152" lon="5.43577">
        <ele>364.60000610352</ele>
        <time>2021-03-10T15:08:30.000Z</time>
      </trkpt>
      <trkpt lat="46.36161" lon="5.43577">
        <ele>364</ele>
        <time>2021-03-10T15:08:31.000Z</time>
      </trkpt>
      <trkpt lat="46.3617" lon="5.43578">
        <ele>363.39999389648</ele>
        <time>2021-03-10T15:08:32.000Z</time>
      </trkpt>
      <trkpt lat="46.36187" lon="5.43579">
        <ele>363.20001220703</ele>
        <time>2021-03-10T15:08:34.000Z</time>
      </trkpt>
      <trkpt lat="46.36205" lon="5.4358">
        <ele>363</ele>
        <time>2021-03-10T15:08:36.000Z</time>
      </trkpt>
      <trkpt lat="46.36223" lon="5.43581">
        <ele>362.79998779297</ele>
        <time>2021-03-10T15:08:38.000Z</time>
      </trkpt>
      <trkpt lat="46.36241" lon="5.43583">
        <ele>362.60000610352</ele>
        <time>2021-03-10T15:08:40.000Z</time>
      </trkpt>
      <trkpt lat="46.3626" lon="5.43587">
        <ele>362.39999389648</ele>
        <time>2021-03-10T15:08:42.000Z</time>
      </trkpt>
      <trkpt lat="46.36279" lon="5.43591">
        <ele>362.39999389648</ele>
        <time>2021-03-10T15:08:44.000Z</time>
      </trkpt>
      <trkpt lat="46.36299" lon="5.43596">
        <ele>362.39999389648</ele>
        <time>2021-03-10T15:08:46.000Z</time>
      </trkpt>
      <trkpt lat="46.36309" lon="5.43599">
        <ele>362.20001220703</ele>
        <time>2021-03-10T15:08:47.000Z</time>
      </trkpt>
      <trkpt lat="46.36319" lon="5.43601">
        <ele>362.20001220703</ele>
        <time>2021-03-10T15:08:48.000Z</time>
      </trkpt>
      <trkpt lat="46.3633" lon="5.43603">
        <ele>361.79998779297</ele>
        <time>2021-03-10T15:08:49.000Z</time>
      </trkpt>
      <trkpt lat="46.3634" lon="5.43606">
        <ele>361.60000610352</ele>
        <time>2021-03-10T15:08:50.000Z</time>
      </trkpt>
      <trkpt lat="46.36361" lon="5.43609">
        <ele>360.79998779297</ele>
        <time>2021-03-10T15:08:52.000Z</time>
      </trkpt>
      <trkpt lat="46.36371" lon="5.4361">
        <ele>360.39999389648</ele>
        <time>2021-03-10T15:08:53.000Z</time>
      </trkpt>
      <trkpt lat="46.36381" lon="5.43612">
        <ele>359.79998779297</ele>
        <time>2021-03-10T15:08:54.000Z</time>
      </trkpt>
      <trkpt lat="46.36391" lon="5.43613">
        <ele>359.20001220703</ele>
        <time>2021-03-10T15:08:55.000Z</time>
      </trkpt>
      <trkpt lat="46.36401" lon="5.43614">
        <ele>358.79998779297</ele>
        <time>2021-03-10T15:08:56.000Z</time>
      </trkpt>
      <trkpt lat="46.3642" lon="5.43616">
        <ele>357.79998779297</ele>
        <time>2021-03-10T15:08:58.000Z</time>
      </trkpt>
      <trkpt lat="46.36439" lon="5.43617">
        <ele>357.20001220703</ele>
        <time>2021-03-10T15:09:00.000Z</time>
      </trkpt>
      <trkpt lat="46.36458" lon="5.43616">
        <ele>356.60000610352</ele>
        <time>2021-03-10T15:09:02.000Z</time>
      </trkpt>
      <trkpt lat="46.36477" lon="5.43615">
        <ele>356.39999389648</ele>
        <time>2021-03-10T15:09:04.000Z</time>
      </trkpt>
      <trkpt lat="46.36495" lon="5.43612">
        <ele>356.20001220703</ele>
        <time>2021-03-10T15:09:06.000Z</time>
      </trkpt>
      <trkpt lat="46.36513" lon="5.4361">
        <ele>356.20001220703</ele>
        <time>2021-03-10T15:09:08.000Z</time>
      </trkpt>
      <trkpt lat="46.3653" lon="5.43607">
        <ele>356</ele>
        <time>2021-03-10T15:09:10.000Z</time>
      </trkpt>
      <trkpt lat="46.36548" lon="5.43604">
        <ele>356</ele>
        <time>2021-03-10T15:09:12.000Z</time>
      </trkpt>
      <trkpt lat="46.36566" lon="5.43602">
        <ele>356</ele>
        <time>2021-03-10T15:09:14.000Z</time>
      </trkpt>
      <trkpt lat="46.36583" lon="5.43599">
        <ele>356</ele>
        <time>2021-03-10T15:09:16.000Z</time>
      </trkpt>
      <trkpt lat="46.366" lon="5.43596">
        <ele>356</ele>
        <time>2021-03-10T15:09:18.000Z</time>
      </trkpt>
      <trkpt lat="46.36617" lon="5.43593">
        <ele>356</ele>
        <time>2021-03-10T15:09:20.000Z</time>
      </trkpt>
      <trkpt lat="46.36634" lon="5.43591">
        <ele>356</ele>
        <time>2021-03-10T15:09:22.000Z</time>
      </trkpt>
      <trkpt lat="46.36651" lon="5.43589">
        <ele>356</ele>
        <time>2021-03-10T15:09:24.000Z</time>
      </trkpt>
      <trkpt lat="46.36667" lon="5.43586">
        <ele>356</ele>
        <time>2021-03-10T15:09:26.000Z</time>
      </trkpt>
      <trkpt lat="46.36682" lon="5.43583">
        <ele>356</ele>
        <time>2021-03-10T15:09:28.000Z</time>
      </trkpt>
      <trkpt lat="46.36697" lon="5.43581">
        <ele>356</ele>
        <time>2021-03-10T15:09:30.000Z</time>
      </trkpt>
      <trkpt lat="46.36712" lon="5.43578">
        <ele>356.20001220703</ele>
        <time>2021-03-10T15:09:32.000Z</time>
      </trkpt>
      <trkpt lat="46.36727" lon="5.43576">
        <ele>356.60000610352</ele>
        <time>2021-03-10T15:09:34.000Z</time>
      </trkpt>
      <trkpt lat="46.3674" lon="5.43574">
        <ele>357.20001220703</ele>
        <time>2021-03-10T15:09:36.000Z</time>
      </trkpt>
      <trkpt lat="46.36747" lon="5.43573">
        <ele>357.60000610352</ele>
        <time>2021-03-10T15:09:37.000Z</time>
      </trkpt>
      <trkpt lat="46.36754" lon="5.43572">
        <ele>357.79998779297</ele>
        <time>2021-03-10T15:09:38.000Z</time>
      </trkpt>
      <trkpt lat="46.36766" lon="5.43572">
        <ele>358</ele>
        <time>2021-03-10T15:09:40.000Z</time>
      </trkpt>
      <trkpt lat="46.3678" lon="5.43571">
        <ele>358.60000610352</ele>
        <time>2021-03-10T15:09:42.000Z</time>
      </trkpt>
      <trkpt lat="46.36786" lon="5.4357">
        <ele>359</ele>
        <time>2021-03-10T15:09:43.000Z</time>
      </trkpt>
      <trkpt lat="46.36792" lon="5.4357">
        <ele>359.20001220703</ele>
        <time>2021-03-10T15:09:44.000Z</time>
      </trkpt>
      <trkpt lat="46.36805" lon="5.4357">
        <ele>359.60000610352</ele>
        <time>2021-03-10T15:09:46.000Z</time>
      </trkpt>
      <trkpt lat="46.36818" lon="5.4357">
        <ele>360</ele>
        <time>2021-03-10T15:09:48.000Z</time>
      </trkpt>
      <trkpt lat="46.3683" lon="5.4357">
        <ele>360.39999389648</ele>
        <time>2021-03-10T15:09:50.000Z</time>
      </trkpt>
      <trkpt lat="46.36844" lon="5.4357">
        <ele>360.60000610352</ele>
        <time>2021-03-10T15:09:52.000Z</time>
      </trkpt>
      <trkpt lat="46.36857" lon="5.4357">
        <ele>361</ele>
        <time>2021-03-10T15:09:54.000Z</time>
      </trkpt>
      <trkpt lat="46.36863" lon="5.43571">
        <ele>361</ele>
        <time>2021-03-10T15:09:55.000Z</time>
      </trkpt>
      <trkpt lat="46.3687" lon="5.43571">
        <ele>361</ele>
        <time>2021-03-10T15:09:56.000Z</time>
      </trkpt>
      <trkpt lat="46.36876" lon="5.43572">
        <ele>361.20001220703</ele>
        <time>2021-03-10T15:09:57.000Z</time>
      </trkpt>
      <trkpt lat="46.36883" lon="5.43572">
        <ele>361.39999389648</ele>
        <time>2021-03-10T15:09:58.000Z</time>
      </trkpt>
      <trkpt lat="46.36896" lon="5.43573">
        <ele>361.39999389648</ele>
        <time>2021-03-10T15:10:00.000Z</time>
      </trkpt>
      <trkpt lat="46.36908" lon="5.43574">
        <ele>361.39999389648</ele>
        <time>2021-03-10T15:10:02.000Z</time>
      </trkpt>
      <trkpt lat="46.3692" lon="5.43575">
        <ele>361.60000610352</ele>
        <time>2021-03-10T15:10:04.000Z</time>
      </trkpt>
      <trkpt lat="46.36926" lon="5.43575">
        <ele>361.79998779297</ele>
        <time>2021-03-10T15:10:05.000Z</time>
      </trkpt>
      <trkpt lat="46.36932" lon="5.43575">
        <ele>362</ele>
        <time>2021-03-10T15:10:06.000Z</time>
      </trkpt>
      <trkpt lat="46.36938" lon="5.43576">
        <ele>362.20001220703</ele>
        <time>2021-03-10T15:10:07.000Z</time>
      </trkpt>
      <trkpt lat="46.36944" lon="5.43576">
        <ele>362.39999389648</ele>
        <time>2021-03-10T15:10:08.000Z</time>
      </trkpt>
      <trkpt lat="46.36956" lon="5.43577">
        <ele>362.60000610352</ele>
        <time>2021-03-10T15:10:10.000Z</time>
      </trkpt>
      <trkpt lat="46.36968" lon="5.43578">
        <ele>363</ele>
        <time>2021-03-10T15:10:12.000Z</time>
      </trkpt>
      <trkpt lat="46.36974" lon="5.43579">
        <ele>363.20001220703</ele>
        <time>2021-03-10T15:10:13.000Z</time>
      </trkpt>
      <trkpt lat="46.3698" lon="5.4358">
        <ele>363.39999389648</ele>
        <time>2021-03-10T15:10:14.000Z</time>
      </trkpt>
      <trkpt lat="46.36991" lon="5.43582">
        <ele>363.79998779297</ele>
        <time>2021-03-10T15:10:16.000Z</time>
      </trkpt>
      <trkpt lat="46.37003" lon="5.43584">
        <ele>364.20001220703</ele>
        <time>2021-03-10T15:10:18.000Z</time>
      </trkpt>
      <trkpt lat="46.37008" lon="5.43586">
        <ele>364.20001220703</ele>
        <time>2021-03-10T15:10:19.000Z</time>
      </trkpt>
      <trkpt lat="46.37014" lon="5.43587">
        <ele>364.39999389648</ele>
        <time>2021-03-10T15:10:20.000Z</time>
      </trkpt>
      <trkpt lat="46.37025" lon="5.43591">
        <ele>365</ele>
        <time>2021-03-10T15:10:22.000Z</time>
      </trkpt>
      <trkpt lat="46.3703" lon="5.43592">
        <ele>365.39999389648</ele>
        <time>2021-03-10T15:10:23.000Z</time>
      </trkpt>
      <trkpt lat="46.37035" lon="5.43594">
        <ele>365.39999389648</ele>
        <time>2021-03-10T15:10:24.000Z</time>
      </trkpt>
      <trkpt lat="46.37041" lon="5.43596">
        <ele>365.60000610352</ele>
        <time>2021-03-10T15:10:25.000Z</time>
      </trkpt>
      <trkpt lat="46.37046" lon="5.43599">
        <ele>366</ele>
        <time>2021-03-10T15:10:26.000Z</time>
      </trkpt>
      <trkpt lat="46.37057" lon="5.43603">
        <ele>366.20001220703</ele>
        <time>2021-03-10T15:10:28.000Z</time>
      </trkpt>
      <trkpt lat="46.37063" lon="5.43605">
        <ele>366.39999389648</ele>
        <time>2021-03-10T15:10:29.000Z</time>
      </trkpt>
      <trkpt lat="46.37068" lon="5.43607">
        <ele>366.79998779297</ele>
        <time>2021-03-10T15:10:30.000Z</time>
      </trkpt>
      <trkpt lat="46.37079" lon="5.43613">
        <ele>367.60000610352</ele>
        <time>2021-03-10T15:10:32.000Z</time>
      </trkpt>
      <trkpt lat="46.3709" lon="5.43618">
        <ele>368.20001220703</ele>
        <time>2021-03-10T15:10:34.000Z</time>
      </trkpt>
      <trkpt lat="46.37101" lon="5.43623">
        <ele>368.39999389648</ele>
        <time>2021-03-10T15:10:36.000Z</time>
      </trkpt>
      <trkpt lat="46.37107" lon="5.43626">
        <ele>368.79998779297</ele>
        <time>2021-03-10T15:10:37.000Z</time>
      </trkpt>
      <trkpt lat="46.37112" lon="5.43629">
        <ele>368.79998779297</ele>
        <time>2021-03-10T15:10:38.000Z</time>
      </trkpt>
      <trkpt lat="46.37118" lon="5.43631">
        <ele>369</ele>
        <time>2021-03-10T15:10:39.000Z</time>
      </trkpt>
      <trkpt lat="46.37123" lon="5.43634">
        <ele>369</ele>
        <time>2021-03-10T15:10:40.000Z</time>
      </trkpt>
      <trkpt lat="46.37134" lon="5.43639">
        <ele>369</ele>
        <time>2021-03-10T15:10:42.000Z</time>
      </trkpt>
      <trkpt lat="46.37145" lon="5.43644">
        <ele>369.20001220703</ele>
        <time>2021-03-10T15:10:44.000Z</time>
      </trkpt>
      <trkpt lat="46.37155" lon="5.43649">
        <ele>369.39999389648</ele>
        <time>2021-03-10T15:10:46.000Z</time>
      </trkpt>
      <trkpt lat="46.3716" lon="5.43652">
        <ele>369.60000610352</ele>
        <time>2021-03-10T15:10:47.000Z</time>
      </trkpt>
      <trkpt lat="46.37165" lon="5.43655">
        <ele>369.79998779297</ele>
        <time>2021-03-10T15:10:48.000Z</time>
      </trkpt>
      <trkpt lat="46.37175" lon="5.4366">
        <ele>369.79998779297</ele>
        <time>2021-03-10T15:10:50.000Z</time>
      </trkpt>
      <trkpt lat="46.37185" lon="5.43665">
        <ele>370</ele>
        <time>2021-03-10T15:10:52.000Z</time>
      </trkpt>
      <trkpt lat="46.37196" lon="5.43669">
        <ele>370.20001220703</ele>
        <time>2021-03-10T15:10:54.000Z</time>
      </trkpt>
      <trkpt lat="46.37207" lon="5.43674">
        <ele>370.20001220703</ele>
        <time>2021-03-10T15:10:56.000Z</time>
      </trkpt>
      <trkpt lat="46.37212" lon="5.43677">
        <ele>370.39999389648</ele>
        <time>2021-03-10T15:10:57.000Z</time>
      </trkpt>
      <trkpt lat="46.37217" lon="5.43679">
        <ele>370.60000610352</ele>
        <time>2021-03-10T15:10:58.000Z</time>
      </trkpt>
      <trkpt lat="46.37229" lon="5.43685">
        <ele>370.79998779297</ele>
        <time>2021-03-10T15:11:00.000Z</time>
      </trkpt>
      <trkpt lat="46.3724" lon="5.43691">
        <ele>371.20001220703</ele>
        <time>2021-03-10T15:11:02.000Z</time>
      </trkpt>
      <trkpt lat="46.37251" lon="5.43697">
        <ele>371.79998779297</ele>
        <time>2021-03-10T15:11:04.000Z</time>
      </trkpt>
      <trkpt lat="46.37257" lon="5.43701">
        <ele>372</ele>
        <time>2021-03-10T15:11:05.000Z</time>
      </trkpt>
      <trkpt lat="46.37262" lon="5.43705">
        <ele>372.20001220703</ele>
        <time>2021-03-10T15:11:06.000Z</time>
      </trkpt>
      <trkpt lat="46.37274" lon="5.43712">
        <ele>372.20001220703</ele>
        <time>2021-03-10T15:11:08.000Z</time>
      </trkpt>
      <trkpt lat="46.37286" lon="5.43721">
        <ele>372.60000610352</ele>
        <time>2021-03-10T15:11:10.000Z</time>
      </trkpt>
      <trkpt lat="46.37297" lon="5.4373">
        <ele>372.79998779297</ele>
        <time>2021-03-10T15:11:12.000Z</time>
      </trkpt>
      <trkpt lat="46.37303" lon="5.43734">
        <ele>373</ele>
        <time>2021-03-10T15:11:13.000Z</time>
      </trkpt>
      <trkpt lat="46.3731" lon="5.43739">
        <ele>373</ele>
        <time>2021-03-10T15:11:14.000Z</time>
      </trkpt>
      <trkpt lat="46.37322" lon="5.43748">
        <ele>373</ele>
        <time>2021-03-10T15:11:16.000Z</time>
      </trkpt>
      <trkpt lat="46.37336" lon="5.43758">
        <ele>373</ele>
        <time>2021-03-10T15:11:18.000Z</time>
      </trkpt>
      <trkpt lat="46.3735" lon="5.43769">
        <ele>373</ele>
        <time>2021-03-10T15:11:20.000Z</time>
      </trkpt>
      <trkpt lat="46.37364" lon="5.4378">
        <ele>373</ele>
        <time>2021-03-10T15:11:22.000Z</time>
      </trkpt>
      <trkpt lat="46.3738" lon="5.43792">
        <ele>373</ele>
        <time>2021-03-10T15:11:24.000Z</time>
      </trkpt>
      <trkpt lat="46.37395" lon="5.43805">
        <ele>372.20001220703</ele>
        <time>2021-03-10T15:11:26.000Z</time>
      </trkpt>
      <trkpt lat="46.37404" lon="5.43813">
        <ele>371.79998779297</ele>
        <time>2021-03-10T15:11:27.000Z</time>
      </trkpt>
      <trkpt lat="46.37412" lon="5.43821">
        <ele>371.39999389648</ele>
        <time>2021-03-10T15:11:28.000Z</time>
      </trkpt>
      <trkpt lat="46.37428" lon="5.43837">
        <ele>371</ele>
        <time>2021-03-10T15:11:30.000Z</time>
      </trkpt>
      <trkpt lat="46.37437" lon="5.43845">
        <ele>370.79998779297</ele>
        <time>2021-03-10T15:11:31.000Z</time>
      </trkpt>
      <trkpt lat="46.37446" lon="5.43852">
        <ele>370.39999389648</ele>
        <time>2021-03-10T15:11:32.000Z</time>
      </trkpt>
      <trkpt lat="46.37464" lon="5.43867">
        <ele>369.79998779297</ele>
        <time>2021-03-10T15:11:34.000Z</time>
      </trkpt>
      <trkpt lat="46.37484" lon="5.43879">
        <ele>369</ele>
        <time>2021-03-10T15:11:36.000Z</time>
      </trkpt>
      <trkpt lat="46.37494" lon="5.43884">
        <ele>368.39999389648</ele>
        <time>2021-03-10T15:11:37.000Z</time>
      </trkpt>
      <trkpt lat="46.37504" lon="5.43888">
        <ele>367.60000610352</ele>
        <time>2021-03-10T15:11:38.000Z</time>
      </trkpt>
      <trkpt lat="46.37514" lon="5.43893">
        <ele>367</ele>
        <time>2021-03-10T15:11:39.000Z</time>
      </trkpt>
      <trkpt lat="46.37524" lon="5.43897">
        <ele>366.39999389648</ele>
        <time>2021-03-10T15:11:40.000Z</time>
      </trkpt>
      <trkpt lat="46.37534" lon="5.43901">
        <ele>365.79998779297</ele>
        <time>2021-03-10T15:11:41.000Z</time>
      </trkpt>
      <trkpt lat="46.37544" lon="5.43905">
        <ele>365.39999389648</ele>
        <time>2021-03-10T15:11:42.000Z</time>
      </trkpt>
      <trkpt lat="46.37564" lon="5.43914">
        <ele>364.60000610352</ele>
        <time>2021-03-10T15:11:44.000Z</time>
      </trkpt>
      <trkpt lat="46.37583" lon="5.43923">
        <ele>363.60000610352</ele>
        <time>2021-03-10T15:11:46.000Z</time>
      </trkpt>
      <trkpt lat="46.37593" lon="5.43928">
        <ele>363.20001220703</ele>
        <time>2021-03-10T15:11:47.000Z</time>
      </trkpt>
      <trkpt lat="46.37603" lon="5.43933">
        <ele>363</ele>
        <time>2021-03-10T15:11:48.000Z</time>
      </trkpt>
      <trkpt lat="46.37622" lon="5.43943">
        <ele>362.39999389648</ele>
        <time>2021-03-10T15:11:50.000Z</time>
      </trkpt>
      <trkpt lat="46.37631" lon="5.43948">
        <ele>362</ele>
        <time>2021-03-10T15:11:51.000Z</time>
      </trkpt>
      <trkpt lat="46.37641" lon="5.43953">
        <ele>361.79998779297</ele>
        <time>2021-03-10T15:11:52.000Z</time>
      </trkpt>
      <trkpt lat="46.3766" lon="5.43963">
        <ele>361.60000610352</ele>
        <time>2021-03-10T15:11:54.000Z</time>
      </trkpt>
      <trkpt lat="46.37678" lon="5.43973">
        <ele>361.20001220703</ele>
        <time>2021-03-10T15:11:56.000Z</time>
      </trkpt>
      <trkpt lat="46.37696" lon="5.43982">
        <ele>360.79998779297</ele>
        <time>2021-03-10T15:11:58.000Z</time>
      </trkpt>
      <trkpt lat="46.37714" lon="5.43993">
        <ele>360.39999389648</ele>
        <time>2021-03-10T15:12:00.000Z</time>
      </trkpt>
      <trkpt lat="46.37732" lon="5.44003">
        <ele>360</ele>
        <time>2021-03-10T15:12:02.000Z</time>
      </trkpt>
      <trkpt lat="46.3775" lon="5.44013">
        <ele>359.79998779297</ele>
        <time>2021-03-10T15:12:04.000Z</time>
      </trkpt>
      <trkpt lat="46.37759" lon="5.44019">
        <ele>359.60000610352</ele>
        <time>2021-03-10T15:12:05.000Z</time>
      </trkpt>
      <trkpt lat="46.37768" lon="5.44024">
        <ele>359.60000610352</ele>
        <time>2021-03-10T15:12:06.000Z</time>
      </trkpt>
      <trkpt lat="46.37785" lon="5.44035">
        <ele>359.39999389648</ele>
        <time>2021-03-10T15:12:08.000Z</time>
      </trkpt>
      <trkpt lat="46.37802" lon="5.44047">
        <ele>359.39999389648</ele>
        <time>2021-03-10T15:12:10.000Z</time>
      </trkpt>
      <trkpt lat="46.37819" lon="5.44059">
        <ele>359.20001220703</ele>
        <time>2021-03-10T15:12:12.000Z</time>
      </trkpt>
      <trkpt lat="46.37835" lon="5.44072">
        <ele>359.20001220703</ele>
        <time>2021-03-10T15:12:14.000Z</time>
      </trkpt>
      <trkpt lat="46.37851" lon="5.44084">
        <ele>359.39999389648</ele>
        <time>2021-03-10T15:12:16.000Z</time>
      </trkpt>
      <trkpt lat="46.37867" lon="5.44097">
        <ele>359.60000610352</ele>
        <time>2021-03-10T15:12:18.000Z</time>
      </trkpt>
      <trkpt lat="46.37883" lon="5.4411">
        <ele>359.39999389648</ele>
        <time>2021-03-10T15:12:20.000Z</time>
      </trkpt>
      <trkpt lat="46.37898" lon="5.44124">
        <ele>359.39999389648</ele>
        <time>2021-03-10T15:12:22.000Z</time>
      </trkpt>
      <trkpt lat="46.37914" lon="5.44137">
        <ele>359.60000610352</ele>
        <time>2021-03-10T15:12:24.000Z</time>
      </trkpt>
      <trkpt lat="46.37929" lon="5.4415">
        <ele>359.79998779297</ele>
        <time>2021-03-10T15:12:26.000Z</time>
      </trkpt>
      <trkpt lat="46.37936" lon="5.44156">
        <ele>359.79998779297</ele>
        <time>2021-03-10T15:12:27.000Z</time>
      </trkpt>
      <trkpt lat="46.37944" lon="5.44162">
        <ele>359.79998779297</ele>
        <time>2021-03-10T15:12:28.000Z</time>
      </trkpt>
      <trkpt lat="46.37959" lon="5.44175">
        <ele>360</ele>
        <time>2021-03-10T15:12:30.000Z</time>
      </trkpt>
      <trkpt lat="46.37973" lon="5.44188">
        <ele>360.20001220703</ele>
        <time>2021-03-10T15:12:32.000Z</time>
      </trkpt>
      <trkpt lat="46.37988" lon="5.44201">
        <ele>360.39999389648</ele>
        <time>2021-03-10T15:12:34.000Z</time>
      </trkpt>
      <trkpt lat="46.38003" lon="5.44214">
        <ele>360.39999389648</ele>
        <time>2021-03-10T15:12:36.000Z</time>
      </trkpt>
      <trkpt lat="46.3801" lon="5.44221">
        <ele>360.39999389648</ele>
        <time>2021-03-10T15:12:37.000Z</time>
      </trkpt>
      <trkpt lat="46.38018" lon="5.44228">
        <ele>360.39999389648</ele>
        <time>2021-03-10T15:12:38.000Z</time>
      </trkpt>
      <trkpt lat="46.38032" lon="5.44242">
        <ele>360.39999389648</ele>
        <time>2021-03-10T15:12:40.000Z</time>
      </trkpt>
      <trkpt lat="46.38047" lon="5.44256">
        <ele>360.39999389648</ele>
        <time>2021-03-10T15:12:42.000Z</time>
      </trkpt>
      <trkpt lat="46.38063" lon="5.4427">
        <ele>360.39999389648</ele>
        <time>2021-03-10T15:12:44.000Z</time>
      </trkpt>
      <trkpt lat="46.38078" lon="5.44283">
        <ele>360.39999389648</ele>
        <time>2021-03-10T15:12:46.000Z</time>
      </trkpt>
      <trkpt lat="46.38093" lon="5.44297">
        <ele>360.20001220703</ele>
        <time>2021-03-10T15:12:48.000Z</time>
      </trkpt>
      <trkpt lat="46.38108" lon="5.4431">
        <ele>360</ele>
        <time>2021-03-10T15:12:50.000Z</time>
      </trkpt>
      <trkpt lat="46.38122" lon="5.44324">
        <ele>360</ele>
        <time>2021-03-10T15:12:52.000Z</time>
      </trkpt>
      <trkpt lat="46.38137" lon="5.44337">
        <ele>359.79998779297</ele>
        <time>2021-03-10T15:12:54.000Z</time>
      </trkpt>
      <trkpt lat="46.38152" lon="5.4435">
        <ele>359.79998779297</ele>
        <time>2021-03-10T15:12:56.000Z</time>
      </trkpt>
      <trkpt lat="46.38166" lon="5.44363">
        <ele>359.79998779297</ele>
        <time>2021-03-10T15:12:58.000Z</time>
      </trkpt>
      <trkpt lat="46.38173" lon="5.44369">
        <ele>359.79998779297</ele>
        <time>2021-03-10T15:12:59.000Z</time>
      </trkpt>
      <trkpt lat="46.3818" lon="5.44376">
        <ele>359.79998779297</ele>
        <time>2021-03-10T15:13:00.000Z</time>
      </trkpt>
      <trkpt lat="46.38193" lon="5.44388">
        <ele>359.79998779297</ele>
        <time>2021-03-10T15:13:02.000Z</time>
      </trkpt>
      <trkpt lat="46.38206" lon="5.444">
        <ele>360</ele>
        <time>2021-03-10T15:13:04.000Z</time>
      </trkpt>
      <trkpt lat="46.3822" lon="5.44412">
        <ele>360.20001220703</ele>
        <time>2021-03-10T15:13:06.000Z</time>
      </trkpt>
      <trkpt lat="46.38233" lon="5.44424">
        <ele>360.60000610352</ele>
        <time>2021-03-10T15:13:08.000Z</time>
      </trkpt>
      <trkpt lat="46.38239" lon="5.4443">
        <ele>360.79998779297</ele>
        <time>2021-03-10T15:13:09.000Z</time>
      </trkpt>
      <trkpt lat="46.38245" lon="5.44436">
        <ele>361</ele>
        <time>2021-03-10T15:13:10.000Z</time>
      </trkpt>
      <trkpt lat="46.38258" lon="5.44447">
        <ele>361.20001220703</ele>
        <time>2021-03-10T15:13:12.000Z</time>
      </trkpt>
      <trkpt lat="46.38271" lon="5.44459">
        <ele>361.20001220703</ele>
        <time>2021-03-10T15:13:14.000Z</time>
      </trkpt>
      <trkpt lat="46.38283" lon="5.44471">
        <ele>361.39999389648</ele>
        <time>2021-03-10T15:13:16.000Z</time>
      </trkpt>
      <trkpt lat="46.38295" lon="5.44482">
        <ele>361.39999389648</ele>
        <time>2021-03-10T15:13:18.000Z</time>
      </trkpt>
      <trkpt lat="46.38307" lon="5.44494">
        <ele>361.60000610352</ele>
        <time>2021-03-10T15:13:20.000Z</time>
      </trkpt>
      <trkpt lat="46.38319" lon="5.44505">
        <ele>361.79998779297</ele>
        <time>2021-03-10T15:13:22.000Z</time>
      </trkpt>
      <trkpt lat="46.38325" lon="5.4451">
        <ele>362</ele>
        <time>2021-03-10T15:13:23.000Z</time>
      </trkpt>
      <trkpt lat="46.38331" lon="5.44516">
        <ele>362</ele>
        <time>2021-03-10T15:13:24.000Z</time>
      </trkpt>
      <trkpt lat="46.38343" lon="5.44527">
        <ele>362.20001220703</ele>
        <time>2021-03-10T15:13:26.000Z</time>
      </trkpt>
      <trkpt lat="46.38349" lon="5.44532">
        <ele>362.20001220703</ele>
        <time>2021-03-10T15:13:27.000Z</time>
      </trkpt>
      <trkpt lat="46.38355" lon="5.44538">
        <ele>362.20001220703</ele>
        <time>2021-03-10T15:13:28.000Z</time>
      </trkpt>
      <trkpt lat="46.38366" lon="5.44549">
        <ele>362.39999389648</ele>
        <time>2021-03-10T15:13:30.000Z</time>
      </trkpt>
      <trkpt lat="46.38378" lon="5.4456">
        <ele>362.60000610352</ele>
        <time>2021-03-10T15:13:32.000Z</time>
      </trkpt>
      <trkpt lat="46.38389" lon="5.44571">
        <ele>362.60000610352</ele>
        <time>2021-03-10T15:13:34.000Z</time>
      </trkpt>
      <trkpt lat="46.38401" lon="5.44582">
        <ele>363</ele>
        <time>2021-03-10T15:13:36.000Z</time>
      </trkpt>
      <trkpt lat="46.38407" lon="5.44588">
        <ele>363</ele>
        <time>2021-03-10T15:13:37.000Z</time>
      </trkpt>
      <trkpt lat="46.38412" lon="5.44593">
        <ele>363</ele>
        <time>2021-03-10T15:13:38.000Z</time>
      </trkpt>
      <trkpt lat="46.38418" lon="5.44599">
        <ele>363.20001220703</ele>
        <time>2021-03-10T15:13:39.000Z</time>
      </trkpt>
      <trkpt lat="46.38424" lon="5.44604">
        <ele>363.39999389648</ele>
        <time>2021-03-10T15:13:40.000Z</time>
      </trkpt>
      <trkpt lat="46.38435" lon="5.44615">
        <ele>363.60000610352</ele>
        <time>2021-03-10T15:13:42.000Z</time>
      </trkpt>
      <trkpt lat="46.38446" lon="5.44626">
        <ele>363.79998779297</ele>
        <time>2021-03-10T15:13:44.000Z</time>
      </trkpt>
      <trkpt lat="46.38457" lon="5.44636">
        <ele>364</ele>
        <time>2021-03-10T15:13:46.000Z</time>
      </trkpt>
      <trkpt lat="46.38467" lon="5.44645">
        <ele>364.20001220703</ele>
        <time>2021-03-10T15:13:48.000Z</time>
      </trkpt>
      <trkpt lat="46.38478" lon="5.44655">
        <ele>364.60000610352</ele>
        <time>2021-03-10T15:13:50.000Z</time>
      </trkpt>
      <trkpt lat="46.38488" lon="5.44664">
        <ele>364.79998779297</ele>
        <time>2021-03-10T15:13:52.000Z</time>
      </trkpt>
      <trkpt lat="46.38498" lon="5.44673">
        <ele>365</ele>
        <time>2021-03-10T15:13:54.000Z</time>
      </trkpt>
      <trkpt lat="46.38503" lon="5.44678">
        <ele>365.20001220703</ele>
        <time>2021-03-10T15:13:55.000Z</time>
      </trkpt>
      <trkpt lat="46.38508" lon="5.44683">
        <ele>365.39999389648</ele>
        <time>2021-03-10T15:13:56.000Z</time>
      </trkpt>
      <trkpt lat="46.38518" lon="5.44693">
        <ele>365.79998779297</ele>
        <time>2021-03-10T15:13:58.000Z</time>
      </trkpt>
      <trkpt lat="46.38528" lon="5.44704">
        <ele>366.20001220703</ele>
        <time>2021-03-10T15:14:00.000Z</time>
      </trkpt>
      <trkpt lat="46.38538" lon="5.44716">
        <ele>366.39999389648</ele>
        <time>2021-03-10T15:14:02.000Z</time>
      </trkpt>
      <trkpt lat="46.38547" lon="5.44728">
        <ele>366.39999389648</ele>
        <time>2021-03-10T15:14:04.000Z</time>
      </trkpt>
      <trkpt lat="46.38557" lon="5.4474">
        <ele>366.79998779297</ele>
        <time>2021-03-10T15:14:06.000Z</time>
      </trkpt>
      <trkpt lat="46.38567" lon="5.44754">
        <ele>367.20001220703</ele>
        <time>2021-03-10T15:14:08.000Z</time>
      </trkpt>
      <trkpt lat="46.38572" lon="5.44761">
        <ele>367.20001220703</ele>
        <time>2021-03-10T15:14:09.000Z</time>
      </trkpt>
      <trkpt lat="46.38578" lon="5.44768">
        <ele>367.20001220703</ele>
        <time>2021-03-10T15:14:10.000Z</time>
      </trkpt>
      <trkpt lat="46.38588" lon="5.44782">
        <ele>367.20001220703</ele>
        <time>2021-03-10T15:14:12.000Z</time>
      </trkpt>
      <trkpt lat="46.38599" lon="5.44796">
        <ele>367.20001220703</ele>
        <time>2021-03-10T15:14:14.000Z</time>
      </trkpt>
      <trkpt lat="46.3861" lon="5.4481">
        <ele>367.20001220703</ele>
        <time>2021-03-10T15:14:16.000Z</time>
      </trkpt>
      <trkpt lat="46.3862" lon="5.44824">
        <ele>367</ele>
        <time>2021-03-10T15:14:18.000Z</time>
      </trkpt>
      <trkpt lat="46.38631" lon="5.44838">
        <ele>367</ele>
        <time>2021-03-10T15:14:20.000Z</time>
      </trkpt>
      <trkpt lat="46.38641" lon="5.44851">
        <ele>367</ele>
        <time>2021-03-10T15:14:22.000Z</time>
      </trkpt>
      <trkpt lat="46.38651" lon="5.44864">
        <ele>367</ele>
        <time>2021-03-10T15:14:24.000Z</time>
      </trkpt>
      <trkpt lat="46.38661" lon="5.44876">
        <ele>367</ele>
        <time>2021-03-10T15:14:26.000Z</time>
      </trkpt>
      <trkpt lat="46.38671" lon="5.44888">
        <ele>367</ele>
        <time>2021-03-10T15:14:28.000Z</time>
      </trkpt>
      <trkpt lat="46.38675" lon="5.44895">
        <ele>367</ele>
        <time>2021-03-10T15:14:29.000Z</time>
      </trkpt>
      <trkpt lat="46.3868" lon="5.44901">
        <ele>367.20001220703</ele>
        <time>2021-03-10T15:14:30.000Z</time>
      </trkpt>
      <trkpt lat="46.3869" lon="5.44914">
        <ele>367.39999389648</ele>
        <time>2021-03-10T15:14:32.000Z</time>
      </trkpt>
      <trkpt lat="46.38701" lon="5.44928">
        <ele>367.60000610352</ele>
        <time>2021-03-10T15:14:34.000Z</time>
      </trkpt>
      <trkpt lat="46.38711" lon="5.44941">
        <ele>367.79998779297</ele>
        <time>2021-03-10T15:14:36.000Z</time>
      </trkpt>
      <trkpt lat="46.38716" lon="5.44948">
        <ele>367.79998779297</ele>
        <time>2021-03-10T15:14:37.000Z</time>
      </trkpt>
      <trkpt lat="46.38721" lon="5.44954">
        <ele>367.79998779297</ele>
        <time>2021-03-10T15:14:38.000Z</time>
      </trkpt>
      <trkpt lat="46.38732" lon="5.44968">
        <ele>367.79998779297</ele>
        <time>2021-03-10T15:14:40.000Z</time>
      </trkpt>
      <trkpt lat="46.38742" lon="5.44981">
        <ele>367.79998779297</ele>
        <time>2021-03-10T15:14:42.000Z</time>
      </trkpt>
      <trkpt lat="46.38752" lon="5.44994">
        <ele>367.79998779297</ele>
        <time>2021-03-10T15:14:44.000Z</time>
      </trkpt>
      <trkpt lat="46.38762" lon="5.45007">
        <ele>367.79998779297</ele>
        <time>2021-03-10T15:14:46.000Z</time>
      </trkpt>
      <trkpt lat="46.38771" lon="5.45019">
        <ele>367.79998779297</ele>
        <time>2021-03-10T15:14:48.000Z</time>
      </trkpt>
      <trkpt lat="46.38781" lon="5.45032">
        <ele>367.79998779297</ele>
        <time>2021-03-10T15:14:50.000Z</time>
      </trkpt>
      <trkpt lat="46.3879" lon="5.45043">
        <ele>367.79998779297</ele>
        <time>2021-03-10T15:14:52.000Z</time>
      </trkpt>
      <trkpt lat="46.38799" lon="5.45055">
        <ele>367.79998779297</ele>
        <time>2021-03-10T15:14:54.000Z</time>
      </trkpt>
      <trkpt lat="46.38808" lon="5.45067">
        <ele>368.20001220703</ele>
        <time>2021-03-10T15:14:56.000Z</time>
      </trkpt>
      <trkpt lat="46.38817" lon="5.45078">
        <ele>368.20001220703</ele>
        <time>2021-03-10T15:14:58.000Z</time>
      </trkpt>
      <trkpt lat="46.38825" lon="5.45089">
        <ele>368.60000610352</ele>
        <time>2021-03-10T15:15:00.000Z</time>
      </trkpt>
      <trkpt lat="46.38833" lon="5.451">
        <ele>368.79998779297</ele>
        <time>2021-03-10T15:15:02.000Z</time>
      </trkpt>
      <trkpt lat="46.38837" lon="5.45105">
        <ele>369.20001220703</ele>
        <time>2021-03-10T15:15:03.000Z</time>
      </trkpt>
      <trkpt lat="46.38841" lon="5.4511">
        <ele>369.60000610352</ele>
        <time>2021-03-10T15:15:04.000Z</time>
      </trkpt>
      <trkpt lat="46.38849" lon="5.45119">
        <ele>370.20001220703</ele>
        <time>2021-03-10T15:15:06.000Z</time>
      </trkpt>
      <trkpt lat="46.38857" lon="5.45128">
        <ele>370.60000610352</ele>
        <time>2021-03-10T15:15:08.000Z</time>
      </trkpt>
      <trkpt lat="46.38864" lon="5.45137">
        <ele>371.20001220703</ele>
        <time>2021-03-10T15:15:10.000Z</time>
      </trkpt>
      <trkpt lat="46.38868" lon="5.45141">
        <ele>371.60000610352</ele>
        <time>2021-03-10T15:15:11.000Z</time>
      </trkpt>
      <trkpt lat="46.38872" lon="5.45145">
        <ele>371.79998779297</ele>
        <time>2021-03-10T15:15:12.000Z</time>
      </trkpt>
      <trkpt lat="46.38879" lon="5.45152">
        <ele>372.20001220703</ele>
        <time>2021-03-10T15:15:14.000Z</time>
      </trkpt>
      <trkpt lat="46.38887" lon="5.45158">
        <ele>372.60000610352</ele>
        <time>2021-03-10T15:15:16.000Z</time>
      </trkpt>
      <trkpt lat="46.38891" lon="5.45161">
        <ele>372.79998779297</ele>
        <time>2021-03-10T15:15:17.000Z</time>
      </trkpt>
      <trkpt lat="46.38894" lon="5.45164">
        <ele>373</ele>
        <time>2021-03-10T15:15:18.000Z</time>
      </trkpt>
      <trkpt lat="46.38902" lon="5.45171">
        <ele>373.79998779297</ele>
        <time>2021-03-10T15:15:20.000Z</time>
      </trkpt>
      <trkpt lat="46.3891" lon="5.45177">
        <ele>374.60000610352</ele>
        <time>2021-03-10T15:15:22.000Z</time>
      </trkpt>
      <trkpt lat="46.38918" lon="5.45183">
        <ele>375</ele>
        <time>2021-03-10T15:15:24.000Z</time>
      </trkpt>
      <trkpt lat="46.38926" lon="5.45189">
        <ele>375.39999389648</ele>
        <time>2021-03-10T15:15:26.000Z</time>
      </trkpt>
      <trkpt lat="46.38935" lon="5.45194">
        <ele>376</ele>
        <time>2021-03-10T15:15:28.000Z</time>
      </trkpt>
      <trkpt lat="46.38943" lon="5.45198">
        <ele>376.79998779297</ele>
        <time>2021-03-10T15:15:30.000Z</time>
      </trkpt>
      <trkpt lat="46.38951" lon="5.45202">
        <ele>377.39999389648</ele>
        <time>2021-03-10T15:15:32.000Z</time>
      </trkpt>
      <trkpt lat="46.38955" lon="5.45204">
        <ele>377.39999389648</ele>
        <time>2021-03-10T15:15:33.000Z</time>
      </trkpt>
      <trkpt lat="46.38959" lon="5.45206">
        <ele>377.60000610352</ele>
        <time>2021-03-10T15:15:34.000Z</time>
      </trkpt>
      <trkpt lat="46.38967" lon="5.45209">
        <ele>377.60000610352</ele>
        <time>2021-03-10T15:15:36.000Z</time>
      </trkpt>
      <trkpt lat="46.38976" lon="5.45213">
        <ele>378.20001220703</ele>
        <time>2021-03-10T15:15:38.000Z</time>
      </trkpt>
      <trkpt lat="46.38985" lon="5.45216">
        <ele>378.60000610352</ele>
        <time>2021-03-10T15:15:40.000Z</time>
      </trkpt>
      <trkpt lat="46.38994" lon="5.4522">
        <ele>379.20001220703</ele>
        <time>2021-03-10T15:15:42.000Z</time>
      </trkpt>
      <trkpt lat="46.39003" lon="5.45224">
        <ele>379.60000610352</ele>
        <time>2021-03-10T15:15:44.000Z</time>
      </trkpt>
      <trkpt lat="46.39012" lon="5.45228">
        <ele>380</ele>
        <time>2021-03-10T15:15:46.000Z</time>
      </trkpt>
      <trkpt lat="46.39016" lon="5.45229">
        <ele>380.20001220703</ele>
        <time>2021-03-10T15:15:47.000Z</time>
      </trkpt>
      <trkpt lat="46.3902" lon="5.45231">
        <ele>380.20001220703</ele>
        <time>2021-03-10T15:15:48.000Z</time>
      </trkpt>
      <trkpt lat="46.39028" lon="5.45235">
        <ele>380.39999389648</ele>
        <time>2021-03-10T15:15:50.000Z</time>
      </trkpt>
      <trkpt lat="46.39037" lon="5.45238">
        <ele>380.79998779297</ele>
        <time>2021-03-10T15:15:52.000Z</time>
      </trkpt>
      <trkpt lat="46.39046" lon="5.45242">
        <ele>381.39999389648</ele>
        <time>2021-03-10T15:15:54.000Z</time>
      </trkpt>
      <trkpt lat="46.39054" lon="5.45245">
        <ele>382</ele>
        <time>2021-03-10T15:15:56.000Z</time>
      </trkpt>
      <trkpt lat="46.39063" lon="5.45249">
        <ele>382.39999389648</ele>
        <time>2021-03-10T15:15:58.000Z</time>
      </trkpt>
      <trkpt lat="46.39067" lon="5.45251">
        <ele>382.60000610352</ele>
        <time>2021-03-10T15:15:59.000Z</time>
      </trkpt>
      <trkpt lat="46.39072" lon="5.45252">
        <ele>383.20001220703</ele>
        <time>2021-03-10T15:16:00.000Z</time>
      </trkpt>
      <trkpt lat="46.39081" lon="5.45256">
        <ele>383.79998779297</ele>
        <time>2021-03-10T15:16:02.000Z</time>
      </trkpt>
      <trkpt lat="46.39091" lon="5.45259">
        <ele>384.20001220703</ele>
        <time>2021-03-10T15:16:04.000Z</time>
      </trkpt>
      <trkpt lat="46.39099" lon="5.45262">
        <ele>384.60000610352</ele>
        <time>2021-03-10T15:16:06.000Z</time>
      </trkpt>
      <trkpt lat="46.39107" lon="5.45266">
        <ele>384.79998779297</ele>
        <time>2021-03-10T15:16:08.000Z</time>
      </trkpt>
      <trkpt lat="46.39115" lon="5.45269">
        <ele>385.20001220703</ele>
        <time>2021-03-10T15:16:10.000Z</time>
      </trkpt>
      <trkpt lat="46.39119" lon="5.4527">
        <ele>385.39999389648</ele>
        <time>2021-03-10T15:16:11.000Z</time>
      </trkpt>
      <trkpt lat="46.39123" lon="5.45271">
        <ele>385.60000610352</ele>
        <time>2021-03-10T15:16:12.000Z</time>
      </trkpt>
      <trkpt lat="46.39131" lon="5.45274">
        <ele>386.20001220703</ele>
        <time>2021-03-10T15:16:14.000Z</time>
      </trkpt>
      <trkpt lat="46.3914" lon="5.45275">
        <ele>386.60000610352</ele>
        <time>2021-03-10T15:16:16.000Z</time>
      </trkpt>
      <trkpt lat="46.39144" lon="5.45276">
        <ele>386.79998779297</ele>
        <time>2021-03-10T15:16:17.000Z</time>
      </trkpt>
      <trkpt lat="46.39149" lon="5.45276">
        <ele>387.20001220703</ele>
        <time>2021-03-10T15:16:18.000Z</time>
      </trkpt>
      <trkpt lat="46.39158" lon="5.45277">
        <ele>387.60000610352</ele>
        <time>2021-03-10T15:16:20.000Z</time>
      </trkpt>
      <trkpt lat="46.39162" lon="5.45278">
        <ele>387.79998779297</ele>
        <time>2021-03-10T15:16:21.000Z</time>
      </trkpt>
      <trkpt lat="46.39166" lon="5.45278">
        <ele>388</ele>
        <time>2021-03-10T15:16:22.000Z</time>
      </trkpt>
      <trkpt lat="46.39175" lon="5.45279">
        <ele>388.60000610352</ele>
        <time>2021-03-10T15:16:24.000Z</time>
      </trkpt>
      <trkpt lat="46.39179" lon="5.4528">
        <ele>388.79998779297</ele>
        <time>2021-03-10T15:16:25.000Z</time>
      </trkpt>
      <trkpt lat="46.39183" lon="5.4528">
        <ele>389</ele>
        <time>2021-03-10T15:16:26.000Z</time>
      </trkpt>
      <trkpt lat="46.39191" lon="5.45282">
        <ele>389.39999389648</ele>
        <time>2021-03-10T15:16:28.000Z</time>
      </trkpt>
      <trkpt lat="46.39195" lon="5.45283">
        <ele>389.79998779297</ele>
        <time>2021-03-10T15:16:29.000Z</time>
      </trkpt>
      <trkpt lat="46.39199" lon="5.45284">
        <ele>390</ele>
        <time>2021-03-10T15:16:30.000Z</time>
      </trkpt>
      <trkpt lat="46.39208" lon="5.45285">
        <ele>390.39999389648</ele>
        <time>2021-03-10T15:16:32.000Z</time>
      </trkpt>
      <trkpt lat="46.39217" lon="5.45287">
        <ele>390.79998779297</ele>
        <time>2021-03-10T15:16:34.000Z</time>
      </trkpt>
      <trkpt lat="46.39221" lon="5.45287">
        <ele>390.79998779297</ele>
        <time>2021-03-10T15:16:35.000Z</time>
      </trkpt>
      <trkpt lat="46.39225" lon="5.45289">
        <ele>391.20001220703</ele>
        <time>2021-03-10T15:16:36.000Z</time>
      </trkpt>
      <trkpt lat="46.39233" lon="5.4529">
        <ele>391.60000610352</ele>
        <time>2021-03-10T15:16:38.000Z</time>
      </trkpt>
      <trkpt lat="46.39237" lon="5.45291">
        <ele>391.79998779297</ele>
        <time>2021-03-10T15:16:39.000Z</time>
      </trkpt>
      <trkpt lat="46.39242" lon="5.45291">
        <ele>392.20001220703</ele>
        <time>2021-03-10T15:16:40.000Z</time>
      </trkpt>
      <trkpt lat="46.39246" lon="5.45292">
        <ele>392.39999389648</ele>
        <time>2021-03-10T15:16:41.000Z</time>
      </trkpt>
      <trkpt lat="46.39251" lon="5.45293">
        <ele>392.60000610352</ele>
        <time>2021-03-10T15:16:42.000Z</time>
      </trkpt>
      <trkpt lat="46.39259" lon="5.45294">
        <ele>393</ele>
        <time>2021-03-10T15:16:44.000Z</time>
      </trkpt>
      <trkpt lat="46.39268" lon="5.45296">
        <ele>393.39999389648</ele>
        <time>2021-03-10T15:16:46.000Z</time>
      </trkpt>
      <trkpt lat="46.39277" lon="5.45298">
        <ele>393.79998779297</ele>
        <time>2021-03-10T15:16:48.000Z</time>
      </trkpt>
      <trkpt lat="46.39286" lon="5.45299">
        <ele>394.20001220703</ele>
        <time>2021-03-10T15:16:50.000Z</time>
      </trkpt>
      <trkpt lat="46.39296" lon="5.45298">
        <ele>394.79998779297</ele>
        <time>2021-03-10T15:16:52.000Z</time>
      </trkpt>
      <trkpt lat="46.393" lon="5.45298">
        <ele>395.20001220703</ele>
        <time>2021-03-10T15:16:53.000Z</time>
      </trkpt>
      <trkpt lat="46.39305" lon="5.45297">
        <ele>395.20001220703</ele>
        <time>2021-03-10T15:16:54.000Z</time>
      </trkpt>
      <trkpt lat="46.39315" lon="5.45295">
        <ele>395.20001220703</ele>
        <time>2021-03-10T15:16:56.000Z</time>
      </trkpt>
      <trkpt lat="46.39328" lon="5.45291">
        <ele>395.20001220703</ele>
        <time>2021-03-10T15:16:58.000Z</time>
      </trkpt>
      <trkpt lat="46.39342" lon="5.45284">
        <ele>395.20001220703</ele>
        <time>2021-03-10T15:17:00.000Z</time>
      </trkpt>
      <trkpt lat="46.39357" lon="5.45277">
        <ele>395</ele>
        <time>2021-03-10T15:17:02.000Z</time>
      </trkpt>
      <trkpt lat="46.39364" lon="5.45273">
        <ele>394.79998779297</ele>
        <time>2021-03-10T15:17:03.000Z</time>
      </trkpt>
      <trkpt lat="46.39371" lon="5.4527">
        <ele>394.79998779297</ele>
        <time>2021-03-10T15:17:04.000Z</time>
      </trkpt>
      <trkpt lat="46.39379" lon="5.45265">
        <ele>394.60000610352</ele>
        <time>2021-03-10T15:17:05.000Z</time>
      </trkpt>
      <trkpt lat="46.39386" lon="5.45258">
        <ele>394.39999389648</ele>
        <time>2021-03-10T15:17:06.000Z</time>
      </trkpt>
      <trkpt lat="46.39403" lon="5.45245">
        <ele>393.60000610352</ele>
        <time>2021-03-10T15:17:08.000Z</time>
      </trkpt>
      <trkpt lat="46.39412" lon="5.45239">
        <ele>393</ele>
        <time>2021-03-10T15:17:09.000Z</time>
      </trkpt>
      <trkpt lat="46.39421" lon="5.45234">
        <ele>392.20001220703</ele>
        <time>2021-03-10T15:17:10.000Z</time>
      </trkpt>
      <trkpt lat="46.39432" lon="5.4523">
        <ele>391.20001220703</ele>
        <time>2021-03-10T15:17:11.000Z</time>
      </trkpt>
      <trkpt lat="46.39442" lon="5.45225">
        <ele>390.39999389648</ele>
        <time>2021-03-10T15:17:12.000Z</time>
      </trkpt>
      <trkpt lat="46.39453" lon="5.4522">
        <ele>389.79998779297</ele>
        <time>2021-03-10T15:17:13.000Z</time>
      </trkpt>
      <trkpt lat="46.39464" lon="5.45214">
        <ele>388.79998779297</ele>
        <time>2021-03-10T15:17:14.000Z</time>
      </trkpt>
      <trkpt lat="46.39475" lon="5.45209">
        <ele>388.39999389648</ele>
        <time>2021-03-10T15:17:15.000Z</time>
      </trkpt>
      <trkpt lat="46.39487" lon="5.45204">
        <ele>388</ele>
        <time>2021-03-10T15:17:16.000Z</time>
      </trkpt>
      <trkpt lat="46.39499" lon="5.45198">
        <ele>387.20001220703</ele>
        <time>2021-03-10T15:17:17.000Z</time>
      </trkpt>
      <trkpt lat="46.39511" lon="5.45193">
        <ele>386</ele>
        <time>2021-03-10T15:17:18.000Z</time>
      </trkpt>
      <trkpt lat="46.39522" lon="5.45187">
        <ele>385</ele>
        <time>2021-03-10T15:17:19.000Z</time>
      </trkpt>
      <trkpt lat="46.39534" lon="5.45182">
        <ele>383.60000610352</ele>
        <time>2021-03-10T15:17:20.000Z</time>
      </trkpt>
      <trkpt lat="46.39544" lon="5.45176">
        <ele>382.60000610352</ele>
        <time>2021-03-10T15:17:21.000Z</time>
      </trkpt>
      <trkpt lat="46.39556" lon="5.45171">
        <ele>381.79998779297</ele>
        <time>2021-03-10T15:17:22.000Z</time>
      </trkpt>
      <trkpt lat="46.39567" lon="5.45168">
        <ele>380.79998779297</ele>
        <time>2021-03-10T15:17:23.000Z</time>
      </trkpt>
      <trkpt lat="46.39578" lon="5.45167">
        <ele>378.39999389648</ele>
        <time>2021-03-10T15:17:24.000Z</time>
      </trkpt>
      <trkpt lat="46.39588" lon="5.45167">
        <ele>377.20001220703</ele>
        <time>2021-03-10T15:17:25.000Z</time>
      </trkpt>
      <trkpt lat="46.39597" lon="5.45168">
        <ele>375.79998779297</ele>
        <time>2021-03-10T15:17:26.000Z</time>
      </trkpt>
      <trkpt lat="46.39614" lon="5.4517">
        <ele>373.79998779297</ele>
        <time>2021-03-10T15:17:28.000Z</time>
      </trkpt>
      <trkpt lat="46.3962" lon="5.45171">
        <ele>372.79998779297</ele>
        <time>2021-03-10T15:17:29.000Z</time>
      </trkpt>
      <trkpt lat="46.39626" lon="5.45172">
        <ele>371.20001220703</ele>
        <time>2021-03-10T15:17:30.000Z</time>
      </trkpt>
      <trkpt lat="46.3963" lon="5.45171">
        <ele>370</ele>
        <time>2021-03-10T15:17:31.000Z</time>
      </trkpt>
      <trkpt lat="46.39634" lon="5.45166">
        <ele>369</ele>
        <time>2021-03-10T15:17:32.000Z</time>
      </trkpt>
      <trkpt lat="46.39638" lon="5.45158">
        <ele>368.20001220703</ele>
        <time>2021-03-10T15:17:33.000Z</time>
      </trkpt>
      <trkpt lat="46.39642" lon="5.4515">
        <ele>367.20001220703</ele>
        <time>2021-03-10T15:17:34.000Z</time>
      </trkpt>
      <trkpt lat="46.39645" lon="5.45141">
        <ele>366.39999389648</ele>
        <time>2021-03-10T15:17:35.000Z</time>
      </trkpt>
      <trkpt lat="46.39649" lon="5.45132">
        <ele>366</ele>
        <time>2021-03-10T15:17:36.000Z</time>
      </trkpt>
      <trkpt lat="46.39656" lon="5.45113">
        <ele>365.20001220703</ele>
        <time>2021-03-10T15:17:38.000Z</time>
      </trkpt>
      <trkpt lat="46.39663" lon="5.45096">
        <ele>364.60000610352</ele>
        <time>2021-03-10T15:17:40.000Z</time>
      </trkpt>
      <trkpt lat="46.3967" lon="5.45078">
        <ele>364.20001220703</ele>
        <time>2021-03-10T15:17:42.000Z</time>
      </trkpt>
      <trkpt lat="46.39673" lon="5.45069">
        <ele>364.20001220703</ele>
        <time>2021-03-10T15:17:43.000Z</time>
      </trkpt>
      <trkpt lat="46.39676" lon="5.4506">
        <ele>364.20001220703</ele>
        <time>2021-03-10T15:17:44.000Z</time>
      </trkpt>
      <trkpt lat="46.39682" lon="5.45043">
        <ele>364.20001220703</ele>
        <time>2021-03-10T15:17:46.000Z</time>
      </trkpt>
      <trkpt lat="46.39688" lon="5.45025">
        <ele>364.20001220703</ele>
        <time>2021-03-10T15:17:48.000Z</time>
      </trkpt>
      <trkpt lat="46.39694" lon="5.45007">
        <ele>364</ele>
        <time>2021-03-10T15:17:50.000Z</time>
      </trkpt>
      <trkpt lat="46.39699" lon="5.4499">
        <ele>364</ele>
        <time>2021-03-10T15:17:52.000Z</time>
      </trkpt>
      <trkpt lat="46.39705" lon="5.44973">
        <ele>364</ele>
        <time>2021-03-10T15:17:54.000Z</time>
      </trkpt>
      <trkpt lat="46.39711" lon="5.44957">
        <ele>364.20001220703</ele>
        <time>2021-03-10T15:17:56.000Z</time>
      </trkpt>
      <trkpt lat="46.39719" lon="5.44943">
        <ele>364.20001220703</ele>
        <time>2021-03-10T15:17:58.000Z</time>
      </trkpt>
      <trkpt lat="46.39728" lon="5.4493">
        <ele>364.20001220703</ele>
        <time>2021-03-10T15:18:00.000Z</time>
      </trkpt>
      <trkpt lat="46.39737" lon="5.44917">
        <ele>364.20001220703</ele>
        <time>2021-03-10T15:18:02.000Z</time>
      </trkpt>
      <trkpt lat="46.39745" lon="5.44905">
        <ele>364.39999389648</ele>
        <time>2021-03-10T15:18:04.000Z</time>
      </trkpt>
      <trkpt lat="46.3975" lon="5.44899">
        <ele>364.39999389648</ele>
        <time>2021-03-10T15:18:05.000Z</time>
      </trkpt>
      <trkpt lat="46.39754" lon="5.44893">
        <ele>364.39999389648</ele>
        <time>2021-03-10T15:18:06.000Z</time>
      </trkpt>
      <trkpt lat="46.39762" lon="5.44882">
        <ele>364.39999389648</ele>
        <time>2021-03-10T15:18:08.000Z</time>
      </trkpt>
      <trkpt lat="46.3977" lon="5.4487">
        <ele>364.60000610352</ele>
        <time>2021-03-10T15:18:10.000Z</time>
      </trkpt>
      <trkpt lat="46.39778" lon="5.44859">
        <ele>365</ele>
        <time>2021-03-10T15:18:12.000Z</time>
      </trkpt>
      <trkpt lat="46.39782" lon="5.44853">
        <ele>365.39999389648</ele>
        <time>2021-03-10T15:18:13.000Z</time>
      </trkpt>
      <trkpt lat="46.39786" lon="5.44848">
        <ele>365.79998779297</ele>
        <time>2021-03-10T15:18:14.000Z</time>
      </trkpt>
      <trkpt lat="46.39793" lon="5.44837">
        <ele>366.20001220703</ele>
        <time>2021-03-10T15:18:16.000Z</time>
      </trkpt>
      <trkpt lat="46.39797" lon="5.44832">
        <ele>366.60000610352</ele>
        <time>2021-03-10T15:18:17.000Z</time>
      </trkpt>
      <trkpt lat="46.39801" lon="5.44827">
        <ele>366.79998779297</ele>
        <time>2021-03-10T15:18:18.000Z</time>
      </trkpt>
      <trkpt lat="46.39808" lon="5.44816">
        <ele>367.60000610352</ele>
        <time>2021-03-10T15:18:20.000Z</time>
      </trkpt>
      <trkpt lat="46.39812" lon="5.4481">
        <ele>367.79998779297</ele>
        <time>2021-03-10T15:18:21.000Z</time>
      </trkpt>
      <trkpt lat="46.39816" lon="5.44804">
        <ele>368</ele>
        <time>2021-03-10T15:18:22.000Z</time>
      </trkpt>
      <trkpt lat="46.39823" lon="5.44792">
        <ele>368</ele>
        <time>2021-03-10T15:18:24.000Z</time>
      </trkpt>
      <trkpt lat="46.39831" lon="5.4478">
        <ele>368.20001220703</ele>
        <time>2021-03-10T15:18:26.000Z</time>
      </trkpt>
      <trkpt lat="46.39838" lon="5.44768">
        <ele>368.60000610352</ele>
        <time>2021-03-10T15:18:28.000Z</time>
      </trkpt>
      <trkpt lat="46.39845" lon="5.44755">
        <ele>368.79998779297</ele>
        <time>2021-03-10T15:18:30.000Z</time>
      </trkpt>
      <trkpt lat="46.39853" lon="5.44743">
        <ele>368.79998779297</ele>
        <time>2021-03-10T15:18:32.000Z</time>
      </trkpt>
      <trkpt lat="46.39861" lon="5.4473">
        <ele>369</ele>
        <time>2021-03-10T15:18:34.000Z</time>
      </trkpt>
      <trkpt lat="46.39868" lon="5.44717">
        <ele>368.79998779297</ele>
        <time>2021-03-10T15:18:36.000Z</time>
      </trkpt>
      <trkpt lat="46.39876" lon="5.44704">
        <ele>369</ele>
        <time>2021-03-10T15:18:38.000Z</time>
      </trkpt>
      <trkpt lat="46.39883" lon="5.44692">
        <ele>369</ele>
        <time>2021-03-10T15:18:40.000Z</time>
      </trkpt>
      <trkpt lat="46.3989" lon="5.44679">
        <ele>369.20001220703</ele>
        <time>2021-03-10T15:18:42.000Z</time>
      </trkpt>
      <trkpt lat="46.39898" lon="5.44666">
        <ele>369.20001220703</ele>
        <time>2021-03-10T15:18:44.000Z</time>
      </trkpt>
      <trkpt lat="46.39901" lon="5.44659">
        <ele>369.20001220703</ele>
        <time>2021-03-10T15:18:45.000Z</time>
      </trkpt>
      <trkpt lat="46.39905" lon="5.44653">
        <ele>369.20001220703</ele>
        <time>2021-03-10T15:18:46.000Z</time>
      </trkpt>
      <trkpt lat="46.39913" lon="5.4464">
        <ele>369.79998779297</ele>
        <time>2021-03-10T15:18:48.000Z</time>
      </trkpt>
      <trkpt lat="46.39917" lon="5.44634">
        <ele>369.79998779297</ele>
        <time>2021-03-10T15:18:49.000Z</time>
      </trkpt>
      <trkpt lat="46.39921" lon="5.44629">
        <ele>370</ele>
        <time>2021-03-10T15:18:50.000Z</time>
      </trkpt>
      <trkpt lat="46.3993" lon="5.44618">
        <ele>370</ele>
        <time>2021-03-10T15:18:52.000Z</time>
      </trkpt>
      <trkpt lat="46.3994" lon="5.44609">
        <ele>370.20001220703</ele>
        <time>2021-03-10T15:18:54.000Z</time>
      </trkpt>
      <trkpt lat="46.39951" lon="5.44602">
        <ele>370.20001220703</ele>
        <time>2021-03-10T15:18:56.000Z</time>
      </trkpt>
      <trkpt lat="46.39962" lon="5.44595">
        <ele>370.60000610352</ele>
        <time>2021-03-10T15:18:58.000Z</time>
      </trkpt>
      <trkpt lat="46.39972" lon="5.44589">
        <ele>370.79998779297</ele>
        <time>2021-03-10T15:19:00.000Z</time>
      </trkpt>
      <trkpt lat="46.39982" lon="5.44583">
        <ele>370.79998779297</ele>
        <time>2021-03-10T15:19:02.000Z</time>
      </trkpt>
      <trkpt lat="46.39992" lon="5.44578">
        <ele>371</ele>
        <time>2021-03-10T15:19:04.000Z</time>
      </trkpt>
      <trkpt lat="46.39997" lon="5.44574">
        <ele>371</ele>
        <time>2021-03-10T15:19:05.000Z</time>
      </trkpt>
      <trkpt lat="46.40002" lon="5.44571">
        <ele>371</ele>
        <time>2021-03-10T15:19:06.000Z</time>
      </trkpt>
      <trkpt lat="46.40013" lon="5.44565">
        <ele>371</ele>
        <time>2021-03-10T15:19:08.000Z</time>
      </trkpt>
      <trkpt lat="46.40024" lon="5.44558">
        <ele>371.20001220703</ele>
        <time>2021-03-10T15:19:10.000Z</time>
      </trkpt>
      <trkpt lat="46.40035" lon="5.44551">
        <ele>371.20001220703</ele>
        <time>2021-03-10T15:19:12.000Z</time>
      </trkpt>
      <trkpt lat="46.4004" lon="5.44548">
        <ele>371.20001220703</ele>
        <time>2021-03-10T15:19:13.000Z</time>
      </trkpt>
      <trkpt lat="46.40046" lon="5.44545">
        <ele>371.20001220703</ele>
        <time>2021-03-10T15:19:14.000Z</time>
      </trkpt>
      <trkpt lat="46.40056" lon="5.44539">
        <ele>371.39999389648</ele>
        <time>2021-03-10T15:19:16.000Z</time>
      </trkpt>
      <trkpt lat="46.40066" lon="5.44533">
        <ele>371.39999389648</ele>
        <time>2021-03-10T15:19:18.000Z</time>
      </trkpt>
      <trkpt lat="46.40071" lon="5.44529">
        <ele>371.60000610352</ele>
        <time>2021-03-10T15:19:20.000Z</time>
      </trkpt>
      <trkpt lat="46.40082" lon="5.44522">
        <ele>371.60000610352</ele>
        <time>2021-03-10T15:19:21.000Z</time>
      </trkpt>
      <trkpt lat="46.40088" lon="5.44518">
        <ele>371.60000610352</ele>
        <time>2021-03-10T15:19:22.000Z</time>
      </trkpt>
      <trkpt lat="46.40099" lon="5.44509">
        <ele>371.60000610352</ele>
        <time>2021-03-10T15:19:24.000Z</time>
      </trkpt>
      <trkpt lat="46.4011" lon="5.445">
        <ele>371.60000610352</ele>
        <time>2021-03-10T15:19:26.000Z</time>
      </trkpt>
      <trkpt lat="46.40122" lon="5.4449">
        <ele>371.39999389648</ele>
        <time>2021-03-10T15:19:28.000Z</time>
      </trkpt>
      <trkpt lat="46.40133" lon="5.44479">
        <ele>371.60000610352</ele>
        <time>2021-03-10T15:19:30.000Z</time>
      </trkpt>
      <trkpt lat="46.40144" lon="5.44469">
        <ele>371.60000610352</ele>
        <time>2021-03-10T15:19:32.000Z</time>
      </trkpt>
      <trkpt lat="46.40155" lon="5.44458">
        <ele>371.39999389648</ele>
        <time>2021-03-10T15:19:34.000Z</time>
      </trkpt>
      <trkpt lat="46.40167" lon="5.44447">
        <ele>371.39999389648</ele>
        <time>2021-03-10T15:19:36.000Z</time>
      </trkpt>
      <trkpt lat="46.40178" lon="5.44436">
        <ele>371.39999389648</ele>
        <time>2021-03-10T15:19:38.000Z</time>
      </trkpt>
      <trkpt lat="46.40189" lon="5.44425">
        <ele>371.39999389648</ele>
        <time>2021-03-10T15:19:40.000Z</time>
      </trkpt>
      <trkpt lat="46.40199" lon="5.44412">
        <ele>371.39999389648</ele>
        <time>2021-03-10T15:19:42.000Z</time>
      </trkpt>
      <trkpt lat="46.40209" lon="5.44399">
        <ele>371.60000610352</ele>
        <time>2021-03-10T15:19:44.000Z</time>
      </trkpt>
      <trkpt lat="46.40218" lon="5.44385">
        <ele>371.60000610352</ele>
        <time>2021-03-10T15:19:46.000Z</time>
      </trkpt>
      <trkpt lat="46.40226" lon="5.44371">
        <ele>371.60000610352</ele>
        <time>2021-03-10T15:19:48.000Z</time>
      </trkpt>
      <trkpt lat="46.40232" lon="5.44358">
        <ele>371.60000610352</ele>
        <time>2021-03-10T15:19:50.000Z</time>
      </trkpt>
      <trkpt lat="46.40237" lon="5.44346">
        <ele>371.79998779297</ele>
        <time>2021-03-10T15:19:52.000Z</time>
      </trkpt>
      <trkpt lat="46.40241" lon="5.44338">
        <ele>371.79998779297</ele>
        <time>2021-03-10T15:19:54.000Z</time>
      </trkpt>
      <trkpt lat="46.40244" lon="5.44334">
        <ele>372</ele>
        <time>2021-03-10T15:19:56.000Z</time>
      </trkpt>
      <trkpt lat="46.40245" lon="5.44333">
        <ele>372.20001220703</ele>
        <time>2021-03-10T15:19:57.000Z</time>
      </trkpt>
      <trkpt lat="46.40245" lon="5.44333">
        <ele>372.39999389648</ele>
        <time>2021-03-10T15:19:58.000Z</time>
      </trkpt>
      <trkpt lat="46.40245" lon="5.44333">
        <ele>372.60000610352</ele>
        <time>2021-03-10T15:19:59.000Z</time>
      </trkpt>
      <trkpt lat="46.40245" lon="5.44324">
        <ele>373.60000610352</ele>
        <time>2021-03-10T15:20:46.000Z</time>
      </trkpt>
      <trkpt lat="46.40246" lon="5.44317">
        <ele>373.60000610352</ele>
        <time>2021-03-10T15:20:48.000Z</time>
      </trkpt>
      <trkpt lat="46.40246" lon="5.44312">
        <ele>373.60000610352</ele>
        <time>2021-03-10T15:20:49.000Z</time>
      </trkpt>
      <trkpt lat="46.40245" lon="5.44306">
        <ele>373.60000610352</ele>
        <time>2021-03-10T15:20:50.000Z</time>
      </trkpt>
      <trkpt lat="46.40244" lon="5.44291">
        <ele>373.60000610352</ele>
        <time>2021-03-10T15:20:52.000Z</time>
      </trkpt>
      <trkpt lat="46.40243" lon="5.44274">
        <ele>373.60000610352</ele>
        <time>2021-03-10T15:20:54.000Z</time>
      </trkpt>
      <trkpt lat="46.4024" lon="5.44258">
        <ele>373.60000610352</ele>
        <time>2021-03-10T15:20:56.000Z</time>
      </trkpt>
      <trkpt lat="46.40238" lon="5.44241">
        <ele>373.60000610352</ele>
        <time>2021-03-10T15:20:58.000Z</time>
      </trkpt>
      <trkpt lat="46.40235" lon="5.44225">
        <ele>373.60000610352</ele>
        <time>2021-03-10T15:21:00.000Z</time>
      </trkpt>
      <trkpt lat="46.40233" lon="5.44209">
        <ele>373.60000610352</ele>
        <time>2021-03-10T15:21:02.000Z</time>
      </trkpt>
      <trkpt lat="46.4023" lon="5.44194">
        <ele>373.60000610352</ele>
        <time>2021-03-10T15:21:04.000Z</time>
      </trkpt>
      <trkpt lat="46.40228" lon="5.44179">
        <ele>373.60000610352</ele>
        <time>2021-03-10T15:21:06.000Z</time>
      </trkpt>
      <trkpt lat="46.40226" lon="5.44164">
        <ele>374</ele>
        <time>2021-03-10T15:21:08.000Z</time>
      </trkpt>
      <trkpt lat="46.40225" lon="5.44149">
        <ele>374.20001220703</ele>
        <time>2021-03-10T15:21:10.000Z</time>
      </trkpt>
      <trkpt lat="46.40225" lon="5.44135">
        <ele>374.39999389648</ele>
        <time>2021-03-10T15:21:12.000Z</time>
      </trkpt>
      <trkpt lat="46.40225" lon="5.44128">
        <ele>374.39999389648</ele>
        <time>2021-03-10T15:21:13.000Z</time>
      </trkpt>
      <trkpt lat="46.40226" lon="5.44121">
        <ele>374.60000610352</ele>
        <time>2021-03-10T15:21:14.000Z</time>
      </trkpt>
      <trkpt lat="46.40227" lon="5.44107">
        <ele>374.79998779297</ele>
        <time>2021-03-10T15:21:16.000Z</time>
      </trkpt>
      <trkpt lat="46.40228" lon="5.441">
        <ele>374.79998779297</ele>
        <time>2021-03-10T15:21:17.000Z</time>
      </trkpt>
      <trkpt lat="46.4023" lon="5.44094">
        <ele>375</ele>
        <time>2021-03-10T15:21:18.000Z</time>
      </trkpt>
      <trkpt lat="46.40233" lon="5.44081">
        <ele>375.60000610352</ele>
        <time>2021-03-10T15:21:20.000Z</time>
      </trkpt>
      <trkpt lat="46.40235" lon="5.44075">
        <ele>375.60000610352</ele>
        <time>2021-03-10T15:21:21.000Z</time>
      </trkpt>
      <trkpt lat="46.40238" lon="5.44069">
        <ele>375.79998779297</ele>
        <time>2021-03-10T15:21:22.000Z</time>
      </trkpt>
      <trkpt lat="46.40244" lon="5.44057">
        <ele>376.39999389648</ele>
        <time>2021-03-10T15:21:24.000Z</time>
      </trkpt>
      <trkpt lat="46.40252" lon="5.44047">
        <ele>376.60000610352</ele>
        <time>2021-03-10T15:21:26.000Z</time>
      </trkpt>
      <trkpt lat="46.40256" lon="5.44042">
        <ele>376.79998779297</ele>
        <time>2021-03-10T15:21:27.000Z</time>
      </trkpt>
      <trkpt lat="46.4026" lon="5.44037">
        <ele>377</ele>
        <time>2021-03-10T15:21:28.000Z</time>
      </trkpt>
      <trkpt lat="46.40268" lon="5.44027">
        <ele>377.39999389648</ele>
        <time>2021-03-10T15:21:30.000Z</time>
      </trkpt>
      <trkpt lat="46.40276" lon="5.44017">
        <ele>377.39999389648</ele>
        <time>2021-03-10T15:21:32.000Z</time>
      </trkpt>
      <trkpt lat="46.40284" lon="5.44006">
        <ele>377.39999389648</ele>
        <time>2021-03-10T15:21:34.000Z</time>
      </trkpt>
      <trkpt lat="46.40293" lon="5.43995">
        <ele>377.39999389648</ele>
        <time>2021-03-10T15:21:36.000Z</time>
      </trkpt>
      <trkpt lat="46.40297" lon="5.43989">
        <ele>377.39999389648</ele>
        <time>2021-03-10T15:21:37.000Z</time>
      </trkpt>
      <trkpt lat="46.40301" lon="5.43983">
        <ele>377.39999389648</ele>
        <time>2021-03-10T15:21:38.000Z</time>
      </trkpt>
      <trkpt lat="46.4031" lon="5.4397">
        <ele>377.39999389648</ele>
        <time>2021-03-10T15:21:40.000Z</time>
      </trkpt>
      <trkpt lat="46.40319" lon="5.43957">
        <ele>377.39999389648</ele>
        <time>2021-03-10T15:21:42.000Z</time>
      </trkpt>
      <trkpt lat="46.40328" lon="5.43944">
        <ele>377.39999389648</ele>
        <time>2021-03-10T15:21:44.000Z</time>
      </trkpt>
      <trkpt lat="46.40337" lon="5.43932">
        <ele>377.20001220703</ele>
        <time>2021-03-10T15:21:46.000Z</time>
      </trkpt>
      <trkpt lat="46.40346" lon="5.43918">
        <ele>377.20001220703</ele>
        <time>2021-03-10T15:21:48.000Z</time>
      </trkpt>
      <trkpt lat="46.40355" lon="5.43905">
        <ele>377.20001220703</ele>
        <time>2021-03-10T15:21:50.000Z</time>
      </trkpt>
      <trkpt lat="46.40365" lon="5.43892">
        <ele>377.20001220703</ele>
        <time>2021-03-10T15:21:52.000Z</time>
      </trkpt>
      <trkpt lat="46.40374" lon="5.43879">
        <ele>377</ele>
        <time>2021-03-10T15:21:54.000Z</time>
      </trkpt>
      <trkpt lat="46.40378" lon="5.43873">
        <ele>377</ele>
        <time>2021-03-10T15:21:55.000Z</time>
      </trkpt>
      <trkpt lat="46.40383" lon="5.43867">
        <ele>376.79998779297</ele>
        <time>2021-03-10T15:21:56.000Z</time>
      </trkpt>
      <trkpt lat="46.40392" lon="5.43855">
        <ele>376.60000610352</ele>
        <time>2021-03-10T15:21:58.000Z</time>
      </trkpt>
      <trkpt lat="46.40402" lon="5.43843">
        <ele>376.39999389648</ele>
        <time>2021-03-10T15:22:00.000Z</time>
      </trkpt>
      <trkpt lat="46.40411" lon="5.43831">
        <ele>376.39999389648</ele>
        <time>2021-03-10T15:22:02.000Z</time>
      </trkpt>
      <trkpt lat="46.40421" lon="5.43819">
        <ele>376.39999389648</ele>
        <time>2021-03-10T15:22:04.000Z</time>
      </trkpt>
      <trkpt lat="46.4043" lon="5.43806">
        <ele>376.39999389648</ele>
        <time>2021-03-10T15:22:06.000Z</time>
      </trkpt>
      <trkpt lat="46.4044" lon="5.43794">
        <ele>376.39999389648</ele>
        <time>2021-03-10T15:22:08.000Z</time>
      </trkpt>
      <trkpt lat="46.4045" lon="5.43782">
        <ele>376.60000610352</ele>
        <time>2021-03-10T15:22:10.000Z</time>
      </trkpt>
      <trkpt lat="46.4046" lon="5.43769">
        <ele>376.60000610352</ele>
        <time>2021-03-10T15:22:12.000Z</time>
      </trkpt>
      <trkpt lat="46.4047" lon="5.43757">
        <ele>376.60000610352</ele>
        <time>2021-03-10T15:22:14.000Z</time>
      </trkpt>
      <trkpt lat="46.4048" lon="5.43745">
        <ele>376.79998779297</ele>
        <time>2021-03-10T15:22:16.000Z</time>
      </trkpt>
      <trkpt lat="46.40491" lon="5.43733">
        <ele>376.79998779297</ele>
        <time>2021-03-10T15:22:18.000Z</time>
      </trkpt>
      <trkpt lat="46.40501" lon="5.43721">
        <ele>377</ele>
        <time>2021-03-10T15:22:20.000Z</time>
      </trkpt>
      <trkpt lat="46.40512" lon="5.4371">
        <ele>377</ele>
        <time>2021-03-10T15:22:22.000Z</time>
      </trkpt>
      <trkpt lat="46.40518" lon="5.43705">
        <ele>377</ele>
        <time>2021-03-10T15:22:23.000Z</time>
      </trkpt>
      <trkpt lat="46.40524" lon="5.43701">
        <ele>377</ele>
        <time>2021-03-10T15:22:24.000Z</time>
      </trkpt>
      <trkpt lat="46.40537" lon="5.43694">
        <ele>377</ele>
        <time>2021-03-10T15:22:26.000Z</time>
      </trkpt>
      <trkpt lat="46.40544" lon="5.43691">
        <ele>377</ele>
        <time>2021-03-10T15:22:27.000Z</time>
      </trkpt>
      <trkpt lat="46.40551" lon="5.43689">
        <ele>377</ele>
        <time>2021-03-10T15:22:28.000Z</time>
      </trkpt>
      <trkpt lat="46.40564" lon="5.43685">
        <ele>377</ele>
        <time>2021-03-10T15:22:30.000Z</time>
      </trkpt>
      <trkpt lat="46.40576" lon="5.43683">
        <ele>377</ele>
        <time>2021-03-10T15:22:32.000Z</time>
      </trkpt>
      <trkpt lat="46.40583" lon="5.43682">
        <ele>376.79998779297</ele>
        <time>2021-03-10T15:22:33.000Z</time>
      </trkpt>
      <trkpt lat="46.40589" lon="5.43681">
        <ele>376.79998779297</ele>
        <time>2021-03-10T15:22:34.000Z</time>
      </trkpt>
      <trkpt lat="46.40602" lon="5.4368">
        <ele>376.79998779297</ele>
        <time>2021-03-10T15:22:36.000Z</time>
      </trkpt>
      <trkpt lat="46.40614" lon="5.43679">
        <ele>376.79998779297</ele>
        <time>2021-03-10T15:22:38.000Z</time>
      </trkpt>
      <trkpt lat="46.4062" lon="5.43679">
        <ele>377</ele>
        <time>2021-03-10T15:22:39.000Z</time>
      </trkpt>
      <trkpt lat="46.40626" lon="5.43679">
        <ele>377</ele>
        <time>2021-03-10T15:22:40.000Z</time>
      </trkpt>
      <trkpt lat="46.40638" lon="5.43679">
        <ele>377.20001220703</ele>
        <time>2021-03-10T15:22:42.000Z</time>
      </trkpt>
      <trkpt lat="46.40644" lon="5.43679">
        <ele>377.39999389648</ele>
        <time>2021-03-10T15:22:43.000Z</time>
      </trkpt>
      <trkpt lat="46.40649" lon="5.43678">
        <ele>377.60000610352</ele>
        <time>2021-03-10T15:22:44.000Z</time>
      </trkpt>
      <trkpt lat="46.4066" lon="5.43678">
        <ele>378</ele>
        <time>2021-03-10T15:22:46.000Z</time>
      </trkpt>
      <trkpt lat="46.4067" lon="5.43678">
        <ele>378.39999389648</ele>
        <time>2021-03-10T15:22:48.000Z</time>
      </trkpt>
      <trkpt lat="46.4068" lon="5.43679">
        <ele>379</ele>
        <time>2021-03-10T15:22:50.000Z</time>
      </trkpt>
      <trkpt lat="46.40685" lon="5.4368">
        <ele>379.20001220703</ele>
        <time>2021-03-10T15:22:51.000Z</time>
      </trkpt>
      <trkpt lat="46.4069" lon="5.43682">
        <ele>379.39999389648</ele>
        <time>2021-03-10T15:22:52.000Z</time>
      </trkpt>
      <trkpt lat="46.40695" lon="5.43683">
        <ele>379.39999389648</ele>
        <time>2021-03-10T15:22:53.000Z</time>
      </trkpt>
      <trkpt lat="46.407" lon="5.43684">
        <ele>379.60000610352</ele>
        <time>2021-03-10T15:22:54.000Z</time>
      </trkpt>
      <trkpt lat="46.40711" lon="5.43687">
        <ele>380</ele>
        <time>2021-03-10T15:22:56.000Z</time>
      </trkpt>
      <trkpt lat="46.40717" lon="5.43688">
        <ele>380.20001220703</ele>
        <time>2021-03-10T15:22:57.000Z</time>
      </trkpt>
      <trkpt lat="46.40722" lon="5.4369">
        <ele>380.20001220703</ele>
        <time>2021-03-10T15:22:58.000Z</time>
      </trkpt>
      <trkpt lat="46.40734" lon="5.43691">
        <ele>380.60000610352</ele>
        <time>2021-03-10T15:23:00.000Z</time>
      </trkpt>
      <trkpt lat="46.40746" lon="5.43694">
        <ele>380.79998779297</ele>
        <time>2021-03-10T15:23:02.000Z</time>
      </trkpt>
      <trkpt lat="46.40758" lon="5.43694">
        <ele>380.79998779297</ele>
        <time>2021-03-10T15:23:04.000Z</time>
      </trkpt>
      <trkpt lat="46.40764" lon="5.43695">
        <ele>380.60000610352</ele>
        <time>2021-03-10T15:23:05.000Z</time>
      </trkpt>
      <trkpt lat="46.40771" lon="5.43694">
        <ele>380.60000610352</ele>
        <time>2021-03-10T15:23:06.000Z</time>
      </trkpt>
      <trkpt lat="46.40784" lon="5.43693">
        <ele>380.60000610352</ele>
        <time>2021-03-10T15:23:08.000Z</time>
      </trkpt>
      <trkpt lat="46.40797" lon="5.43692">
        <ele>380.60000610352</ele>
        <time>2021-03-10T15:23:10.000Z</time>
      </trkpt>
      <trkpt lat="46.40808" lon="5.4369">
        <ele>380.60000610352</ele>
        <time>2021-03-10T15:23:12.000Z</time>
      </trkpt>
      <trkpt lat="46.4082" lon="5.43688">
        <ele>380.39999389648</ele>
        <time>2021-03-10T15:23:14.000Z</time>
      </trkpt>
      <trkpt lat="46.40833" lon="5.43683">
        <ele>380.20001220703</ele>
        <time>2021-03-10T15:23:16.000Z</time>
      </trkpt>
      <trkpt lat="46.40845" lon="5.43679">
        <ele>380</ele>
        <time>2021-03-10T15:23:18.000Z</time>
      </trkpt>
      <trkpt lat="46.40858" lon="5.43674">
        <ele>379.79998779297</ele>
        <time>2021-03-10T15:23:20.000Z</time>
      </trkpt>
      <trkpt lat="46.40871" lon="5.4367">
        <ele>379.79998779297</ele>
        <time>2021-03-10T15:23:22.000Z</time>
      </trkpt>
      <trkpt lat="46.40884" lon="5.43665">
        <ele>379.79998779297</ele>
        <time>2021-03-10T15:23:24.000Z</time>
      </trkpt>
      <trkpt lat="46.4089" lon="5.43663">
        <ele>379.79998779297</ele>
        <time>2021-03-10T15:23:25.000Z</time>
      </trkpt>
      <trkpt lat="46.40896" lon="5.43662">
        <ele>379.79998779297</ele>
        <time>2021-03-10T15:23:26.000Z</time>
      </trkpt>
      <trkpt lat="46.40909" lon="5.43658">
        <ele>379.79998779297</ele>
        <time>2021-03-10T15:23:28.000Z</time>
      </trkpt>
      <trkpt lat="46.40921" lon="5.43653">
        <ele>380</ele>
        <time>2021-03-10T15:23:30.000Z</time>
      </trkpt>
      <trkpt lat="46.40933" lon="5.43648">
        <ele>380.20001220703</ele>
        <time>2021-03-10T15:23:32.000Z</time>
      </trkpt>
      <trkpt lat="46.40939" lon="5.43644">
        <ele>380.20001220703</ele>
        <time>2021-03-10T15:23:33.000Z</time>
      </trkpt>
      <trkpt lat="46.40945" lon="5.43641">
        <ele>380.20001220703</ele>
        <time>2021-03-10T15:23:34.000Z</time>
      </trkpt>
      <trkpt lat="46.40957" lon="5.43634">
        <ele>380.20001220703</ele>
        <time>2021-03-10T15:23:36.000Z</time>
      </trkpt>
      <trkpt lat="46.40968" lon="5.43626">
        <ele>380.39999389648</ele>
        <time>2021-03-10T15:23:38.000Z</time>
      </trkpt>
      <trkpt lat="46.4098" lon="5.43618">
        <ele>380.39999389648</ele>
        <time>2021-03-10T15:23:40.000Z</time>
      </trkpt>
      <trkpt lat="46.40991" lon="5.43609">
        <ele>380.39999389648</ele>
        <time>2021-03-10T15:23:42.000Z</time>
      </trkpt>
      <trkpt lat="46.41003" lon="5.43601">
        <ele>380.60000610352</ele>
        <time>2021-03-10T15:23:44.000Z</time>
      </trkpt>
      <trkpt lat="46.41014" lon="5.43593">
        <ele>380.60000610352</ele>
        <time>2021-03-10T15:23:46.000Z</time>
      </trkpt>
      <trkpt lat="46.41026" lon="5.43585">
        <ele>380.60000610352</ele>
        <time>2021-03-10T15:23:48.000Z</time>
      </trkpt>
      <trkpt lat="46.41038" lon="5.43577">
        <ele>380.60000610352</ele>
        <time>2021-03-10T15:23:50.000Z</time>
      </trkpt>
      <trkpt lat="46.4105" lon="5.43569">
        <ele>380.60000610352</ele>
        <time>2021-03-10T15:23:52.000Z</time>
      </trkpt>
      <trkpt lat="46.41062" lon="5.4356">
        <ele>380.79998779297</ele>
        <time>2021-03-10T15:23:54.000Z</time>
      </trkpt>
      <trkpt lat="46.41068" lon="5.43555">
        <ele>380.79998779297</ele>
        <time>2021-03-10T15:23:55.000Z</time>
      </trkpt>
      <trkpt lat="46.41075" lon="5.4355">
        <ele>380.79998779297</ele>
        <time>2021-03-10T15:23:56.000Z</time>
      </trkpt>
      <trkpt lat="46.41087" lon="5.43542">
        <ele>380.79998779297</ele>
        <time>2021-03-10T15:23:58.000Z</time>
      </trkpt>
      <trkpt lat="46.411" lon="5.43533">
        <ele>381</ele>
        <time>2021-03-10T15:24:00.000Z</time>
      </trkpt>
      <trkpt lat="46.41107" lon="5.43528">
        <ele>381.20001220703</ele>
        <time>2021-03-10T15:24:01.000Z</time>
      </trkpt>
      <trkpt lat="46.41114" lon="5.43523">
        <ele>381.20001220703</ele>
        <time>2021-03-10T15:24:02.000Z</time>
      </trkpt>
      <trkpt lat="46.41127" lon="5.43514">
        <ele>381.39999389648</ele>
        <time>2021-03-10T15:24:04.000Z</time>
      </trkpt>
      <trkpt lat="46.41139" lon="5.43506">
        <ele>381.39999389648</ele>
        <time>2021-03-10T15:24:06.000Z</time>
      </trkpt>
      <trkpt lat="46.41153" lon="5.43497">
        <ele>381.60000610352</ele>
        <time>2021-03-10T15:24:08.000Z</time>
      </trkpt>
      <trkpt lat="46.41166" lon="5.43487">
        <ele>381.60000610352</ele>
        <time>2021-03-10T15:24:10.000Z</time>
      </trkpt>
      <trkpt lat="46.4118" lon="5.43478">
        <ele>381.79998779297</ele>
        <time>2021-03-10T15:24:12.000Z</time>
      </trkpt>
      <trkpt lat="46.41187" lon="5.43473">
        <ele>381.79998779297</ele>
        <time>2021-03-10T15:24:13.000Z</time>
      </trkpt>
      <trkpt lat="46.41193" lon="5.43468">
        <ele>381.79998779297</ele>
        <time>2021-03-10T15:24:14.000Z</time>
      </trkpt>
      <trkpt lat="46.41206" lon="5.43456">
        <ele>381.79998779297</ele>
        <time>2021-03-10T15:24:16.000Z</time>
      </trkpt>
      <trkpt lat="46.41218" lon="5.43442">
        <ele>381.79998779297</ele>
        <time>2021-03-10T15:24:18.000Z</time>
      </trkpt>
      <trkpt lat="46.41224" lon="5.43435">
        <ele>381.79998779297</ele>
        <time>2021-03-10T15:24:19.000Z</time>
      </trkpt>
      <trkpt lat="46.41229" lon="5.43427">
        <ele>381.60000610352</ele>
        <time>2021-03-10T15:24:20.000Z</time>
      </trkpt>
      <trkpt lat="46.41239" lon="5.43411">
        <ele>381.60000610352</ele>
        <time>2021-03-10T15:24:22.000Z</time>
      </trkpt>
      <trkpt lat="46.41248" lon="5.43394">
        <ele>381.60000610352</ele>
        <time>2021-03-10T15:24:24.000Z</time>
      </trkpt>
      <trkpt lat="46.41252" lon="5.43385">
        <ele>381.60000610352</ele>
        <time>2021-03-10T15:24:25.000Z</time>
      </trkpt>
      <trkpt lat="46.41256" lon="5.43376">
        <ele>381.39999389648</ele>
        <time>2021-03-10T15:24:26.000Z</time>
      </trkpt>
      <trkpt lat="46.41263" lon="5.43357">
        <ele>381.39999389648</ele>
        <time>2021-03-10T15:24:28.000Z</time>
      </trkpt>
      <trkpt lat="46.4127" lon="5.43339">
        <ele>381.20001220703</ele>
        <time>2021-03-10T15:24:30.000Z</time>
      </trkpt>
      <trkpt lat="46.41277" lon="5.43322">
        <ele>381.39999389648</ele>
        <time>2021-03-10T15:24:32.000Z</time>
      </trkpt>
      <trkpt lat="46.41285" lon="5.43306">
        <ele>381.39999389648</ele>
        <time>2021-03-10T15:24:34.000Z</time>
      </trkpt>
      <trkpt lat="46.41292" lon="5.43291">
        <ele>381.60000610352</ele>
        <time>2021-03-10T15:24:36.000Z</time>
      </trkpt>
      <trkpt lat="46.41296" lon="5.43283">
        <ele>381.60000610352</ele>
        <time>2021-03-10T15:24:37.000Z</time>
      </trkpt>
      <trkpt lat="46.413" lon="5.43277">
        <ele>381.60000610352</ele>
        <time>2021-03-10T15:24:38.000Z</time>
      </trkpt>
      <trkpt lat="46.41304" lon="5.43271">
        <ele>381.79998779297</ele>
        <time>2021-03-10T15:24:39.000Z</time>
      </trkpt>
      <trkpt lat="46.41309" lon="5.43265">
        <ele>381.79998779297</ele>
        <time>2021-03-10T15:24:40.000Z</time>
      </trkpt>
      <trkpt lat="46.41317" lon="5.43255">
        <ele>382</ele>
        <time>2021-03-10T15:24:42.000Z</time>
      </trkpt>
      <trkpt lat="46.41327" lon="5.43246">
        <ele>382.20001220703</ele>
        <time>2021-03-10T15:24:44.000Z</time>
      </trkpt>
      <trkpt lat="46.41332" lon="5.43243">
        <ele>382.20001220703</ele>
        <time>2021-03-10T15:24:45.000Z</time>
      </trkpt>
      <trkpt lat="46.41337" lon="5.4324">
        <ele>382.20001220703</ele>
        <time>2021-03-10T15:24:46.000Z</time>
      </trkpt>
      <trkpt lat="46.41348" lon="5.43235">
        <ele>382.39999389648</ele>
        <time>2021-03-10T15:24:48.000Z</time>
      </trkpt>
      <trkpt lat="46.41359" lon="5.43232">
        <ele>382.79998779297</ele>
        <time>2021-03-10T15:24:50.000Z</time>
      </trkpt>
      <trkpt lat="46.41371" lon="5.4323">
        <ele>383.60000610352</ele>
        <time>2021-03-10T15:24:52.000Z</time>
      </trkpt>
      <trkpt lat="46.41383" lon="5.43228">
        <ele>383.79998779297</ele>
        <time>2021-03-10T15:24:54.000Z</time>
      </trkpt>
      <trkpt lat="46.41395" lon="5.43227">
        <ele>384</ele>
        <time>2021-03-10T15:24:56.000Z</time>
      </trkpt>
      <trkpt lat="46.41407" lon="5.43226">
        <ele>384.20001220703</ele>
        <time>2021-03-10T15:24:58.000Z</time>
      </trkpt>
      <trkpt lat="46.41418" lon="5.43224">
        <ele>384.20001220703</ele>
        <time>2021-03-10T15:25:00.000Z</time>
      </trkpt>
      <trkpt lat="46.41431" lon="5.43223">
        <ele>384.39999389648</ele>
        <time>2021-03-10T15:25:02.000Z</time>
      </trkpt>
      <trkpt lat="46.41442" lon="5.43222">
        <ele>384.60000610352</ele>
        <time>2021-03-10T15:25:04.000Z</time>
      </trkpt>
      <trkpt lat="46.41449" lon="5.43222">
        <ele>384.60000610352</ele>
        <time>2021-03-10T15:25:05.000Z</time>
      </trkpt>
      <trkpt lat="46.41454" lon="5.43221">
        <ele>384.79998779297</ele>
        <time>2021-03-10T15:25:06.000Z</time>
      </trkpt>
      <trkpt lat="46.4146" lon="5.4322">
        <ele>384.79998779297</ele>
        <time>2021-03-10T15:25:07.000Z</time>
      </trkpt>
      <trkpt lat="46.41466" lon="5.4322">
        <ele>384.79998779297</ele>
        <time>2021-03-10T15:25:08.000Z</time>
      </trkpt>
      <trkpt lat="46.41478" lon="5.43218">
        <ele>385</ele>
        <time>2021-03-10T15:25:10.000Z</time>
      </trkpt>
      <trkpt lat="46.41489" lon="5.43216">
        <ele>385</ele>
        <time>2021-03-10T15:25:12.000Z</time>
      </trkpt>
      <trkpt lat="46.41501" lon="5.43214">
        <ele>385</ele>
        <time>2021-03-10T15:25:14.000Z</time>
      </trkpt>
      <trkpt lat="46.41513" lon="5.43211">
        <ele>385.20001220703</ele>
        <time>2021-03-10T15:25:16.000Z</time>
      </trkpt>
      <trkpt lat="46.41519" lon="5.43209">
        <ele>385.20001220703</ele>
        <time>2021-03-10T15:25:17.000Z</time>
      </trkpt>
      <trkpt lat="46.41526" lon="5.43208">
        <ele>385.20001220703</ele>
        <time>2021-03-10T15:25:18.000Z</time>
      </trkpt>
      <trkpt lat="46.41538" lon="5.43205">
        <ele>385.20001220703</ele>
        <time>2021-03-10T15:25:20.000Z</time>
      </trkpt>
      <trkpt lat="46.41551" lon="5.43202">
        <ele>385.20001220703</ele>
        <time>2021-03-10T15:25:22.000Z</time>
      </trkpt>
      <trkpt lat="46.41564" lon="5.43199">
        <ele>385.20001220703</ele>
        <time>2021-03-10T15:25:24.000Z</time>
      </trkpt>
      <trkpt lat="46.41578" lon="5.43196">
        <ele>385.20001220703</ele>
        <time>2021-03-10T15:25:26.000Z</time>
      </trkpt>
      <trkpt lat="46.41584" lon="5.43195">
        <ele>385.20001220703</ele>
        <time>2021-03-10T15:25:27.000Z</time>
      </trkpt>
      <trkpt lat="46.41591" lon="5.43193">
        <ele>385.20001220703</ele>
        <time>2021-03-10T15:25:28.000Z</time>
      </trkpt>
      <trkpt lat="46.41605" lon="5.4319">
        <ele>385.20001220703</ele>
        <time>2021-03-10T15:25:30.000Z</time>
      </trkpt>
      <trkpt lat="46.41618" lon="5.43186">
        <ele>385.20001220703</ele>
        <time>2021-03-10T15:25:32.000Z</time>
      </trkpt>
      <trkpt lat="46.41632" lon="5.43183">
        <ele>385.20001220703</ele>
        <time>2021-03-10T15:25:34.000Z</time>
      </trkpt>
      <trkpt lat="46.41646" lon="5.43178">
        <ele>385.20001220703</ele>
        <time>2021-03-10T15:25:36.000Z</time>
      </trkpt>
      <trkpt lat="46.41659" lon="5.43171">
        <ele>385.20001220703</ele>
        <time>2021-03-10T15:25:38.000Z</time>
      </trkpt>
      <trkpt lat="46.41672" lon="5.43163">
        <ele>385.39999389648</ele>
        <time>2021-03-10T15:25:40.000Z</time>
      </trkpt>
      <trkpt lat="46.41684" lon="5.43152">
        <ele>385.39999389648</ele>
        <time>2021-03-10T15:25:42.000Z</time>
      </trkpt>
      <trkpt lat="46.41694" lon="5.43139">
        <ele>385.39999389648</ele>
        <time>2021-03-10T15:25:44.000Z</time>
      </trkpt>
      <trkpt lat="46.41703" lon="5.43126">
        <ele>385.39999389648</ele>
        <time>2021-03-10T15:25:46.000Z</time>
      </trkpt>
      <trkpt lat="46.41712" lon="5.43113">
        <ele>385.39999389648</ele>
        <time>2021-03-10T15:25:48.000Z</time>
      </trkpt>
      <trkpt lat="46.4172" lon="5.43101">
        <ele>385.39999389648</ele>
        <time>2021-03-10T15:25:50.000Z</time>
      </trkpt>
      <trkpt lat="46.41729" lon="5.43089">
        <ele>385.39999389648</ele>
        <time>2021-03-10T15:25:52.000Z</time>
      </trkpt>
      <trkpt lat="46.41737" lon="5.43076">
        <ele>385.60000610352</ele>
        <time>2021-03-10T15:25:54.000Z</time>
      </trkpt>
      <trkpt lat="46.41745" lon="5.43065">
        <ele>386</ele>
        <time>2021-03-10T15:25:56.000Z</time>
      </trkpt>
      <trkpt lat="46.4175" lon="5.43059">
        <ele>386</ele>
        <time>2021-03-10T15:25:57.000Z</time>
      </trkpt>
      <trkpt lat="46.41754" lon="5.43053">
        <ele>386.20001220703</ele>
        <time>2021-03-10T15:25:58.000Z</time>
      </trkpt>
      <trkpt lat="46.41762" lon="5.43041">
        <ele>386.20001220703</ele>
        <time>2021-03-10T15:26:00.000Z</time>
      </trkpt>
      <trkpt lat="46.41766" lon="5.43036">
        <ele>386.39999389648</ele>
        <time>2021-03-10T15:26:02.000Z</time>
      </trkpt>
      <trkpt lat="46.41777" lon="5.43019">
        <ele>386.79998779297</ele>
        <time>2021-03-10T15:26:04.000Z</time>
      </trkpt>
      <trkpt lat="46.41781" lon="5.43014">
        <ele>387.20001220703</ele>
        <time>2021-03-10T15:26:05.000Z</time>
      </trkpt>
      <trkpt lat="46.41785" lon="5.43009">
        <ele>387.39999389648</ele>
        <time>2021-03-10T15:26:06.000Z</time>
      </trkpt>
      <trkpt lat="46.41788" lon="5.43003">
        <ele>387.39999389648</ele>
        <time>2021-03-10T15:26:08.000Z</time>
      </trkpt>
      <trkpt lat="46.41796" lon="5.42993">
        <ele>387.60000610352</ele>
        <time>2021-03-10T15:26:09.000Z</time>
      </trkpt>
      <trkpt lat="46.41799" lon="5.42988">
        <ele>387.79998779297</ele>
        <time>2021-03-10T15:26:10.000Z</time>
      </trkpt>
      <trkpt lat="46.41806" lon="5.42978">
        <ele>388.39999389648</ele>
        <time>2021-03-10T15:26:12.000Z</time>
      </trkpt>
      <trkpt lat="46.4181" lon="5.42973">
        <ele>389</ele>
        <time>2021-03-10T15:26:14.000Z</time>
      </trkpt>
      <trkpt lat="46.4182" lon="5.42958">
        <ele>389.39999389648</ele>
        <time>2021-03-10T15:26:16.000Z</time>
      </trkpt>
      <trkpt lat="46.41824" lon="5.42953">
        <ele>389.60000610352</ele>
        <time>2021-03-10T15:26:17.000Z</time>
      </trkpt>
      <trkpt lat="46.41827" lon="5.42948">
        <ele>390.20001220703</ele>
        <time>2021-03-10T15:26:18.000Z</time>
      </trkpt>
      <trkpt lat="46.41831" lon="5.42944">
        <ele>390.60000610352</ele>
        <time>2021-03-10T15:26:19.000Z</time>
      </trkpt>
      <trkpt lat="46.41831" lon="5.42944">
        <ele>390.79998779297</ele>
        <time>2021-03-10T15:26:20.000Z</time>
      </trkpt>
      <trkpt lat="46.41841" lon="5.4293">
        <ele>391.20001220703</ele>
        <time>2021-03-10T15:26:22.000Z</time>
      </trkpt>
      <trkpt lat="46.41847" lon="5.42921">
        <ele>391.60000610352</ele>
        <time>2021-03-10T15:26:24.000Z</time>
      </trkpt>
      <trkpt lat="46.4185" lon="5.42916">
        <ele>391.60000610352</ele>
        <time>2021-03-10T15:26:25.000Z</time>
      </trkpt>
      <trkpt lat="46.41853" lon="5.42912">
        <ele>391.79998779297</ele>
        <time>2021-03-10T15:26:26.000Z</time>
      </trkpt>
      <trkpt lat="46.4186" lon="5.42903">
        <ele>392.20001220703</ele>
        <time>2021-03-10T15:26:28.000Z</time>
      </trkpt>
      <trkpt lat="46.41867" lon="5.42894">
        <ele>392.39999389648</ele>
        <time>2021-03-10T15:26:30.000Z</time>
      </trkpt>
      <trkpt lat="46.41873" lon="5.42885">
        <ele>392.60000610352</ele>
        <time>2021-03-10T15:26:32.000Z</time>
      </trkpt>
      <trkpt lat="46.41876" lon="5.42881">
        <ele>392.79998779297</ele>
        <time>2021-03-10T15:26:33.000Z</time>
      </trkpt>
      <trkpt lat="46.41879" lon="5.42876">
        <ele>393</ele>
        <time>2021-03-10T15:26:34.000Z</time>
      </trkpt>
      <trkpt lat="46.41886" lon="5.42867">
        <ele>393.39999389648</ele>
        <time>2021-03-10T15:26:36.000Z</time>
      </trkpt>
      <trkpt lat="46.41889" lon="5.42863">
        <ele>393.79998779297</ele>
        <time>2021-03-10T15:26:38.000Z</time>
      </trkpt>
      <trkpt lat="46.41895" lon="5.42855">
        <ele>394.20001220703</ele>
        <time>2021-03-10T15:26:39.000Z</time>
      </trkpt>
      <trkpt lat="46.41898" lon="5.4285">
        <ele>394.20001220703</ele>
        <time>2021-03-10T15:26:40.000Z</time>
      </trkpt>
      <trkpt lat="46.41904" lon="5.42842">
        <ele>394.60000610352</ele>
        <time>2021-03-10T15:26:42.000Z</time>
      </trkpt>
      <trkpt lat="46.41907" lon="5.42838">
        <ele>394.60000610352</ele>
        <time>2021-03-10T15:26:43.000Z</time>
      </trkpt>
      <trkpt lat="46.4191" lon="5.42834">
        <ele>394.79998779297</ele>
        <time>2021-03-10T15:26:44.000Z</time>
      </trkpt>
      <trkpt lat="46.41913" lon="5.4283">
        <ele>395</ele>
        <time>2021-03-10T15:26:45.000Z</time>
      </trkpt>
      <trkpt lat="46.41916" lon="5.42827">
        <ele>395.60000610352</ele>
        <time>2021-03-10T15:26:46.000Z</time>
      </trkpt>
      <trkpt lat="46.41922" lon="5.42819">
        <ele>396</ele>
        <time>2021-03-10T15:26:48.000Z</time>
      </trkpt>
      <trkpt lat="46.41928" lon="5.42811">
        <ele>396.79998779297</ele>
        <time>2021-03-10T15:26:50.000Z</time>
      </trkpt>
      <trkpt lat="46.41934" lon="5.42804">
        <ele>397.39999389648</ele>
        <time>2021-03-10T15:26:52.000Z</time>
      </trkpt>
      <trkpt lat="46.41936" lon="5.428">
        <ele>397.60000610352</ele>
        <time>2021-03-10T15:26:53.000Z</time>
      </trkpt>
      <trkpt lat="46.41939" lon="5.42796">
        <ele>397.79998779297</ele>
        <time>2021-03-10T15:26:54.000Z</time>
      </trkpt>
      <trkpt lat="46.41945" lon="5.42788">
        <ele>398.39999389648</ele>
        <time>2021-03-10T15:26:56.000Z</time>
      </trkpt>
      <trkpt lat="46.41948" lon="5.42784">
        <ele>398.60000610352</ele>
        <time>2021-03-10T15:26:57.000Z</time>
      </trkpt>
      <trkpt lat="46.41951" lon="5.4278">
        <ele>399</ele>
        <time>2021-03-10T15:26:58.000Z</time>
      </trkpt>
      <trkpt lat="46.41956" lon="5.42771">
        <ele>399.39999389648</ele>
        <time>2021-03-10T15:27:00.000Z</time>
      </trkpt>
      <trkpt lat="46.41959" lon="5.42767">
        <ele>399.79998779297</ele>
        <time>2021-03-10T15:27:02.000Z</time>
      </trkpt>
      <trkpt lat="46.41967" lon="5.42753">
        <ele>400.39999389648</ele>
        <time>2021-03-10T15:27:04.000Z</time>
      </trkpt>
      <trkpt lat="46.41973" lon="5.42742">
        <ele>400.79998779297</ele>
        <time>2021-03-10T15:27:06.000Z</time>
      </trkpt>
      <trkpt lat="46.41976" lon="5.42737">
        <ele>401.60000610352</ele>
        <time>2021-03-10T15:27:08.000Z</time>
      </trkpt>
      <trkpt lat="46.41985" lon="5.4272">
        <ele>402</ele>
        <time>2021-03-10T15:27:10.000Z</time>
      </trkpt>
      <trkpt lat="46.41991" lon="5.42708">
        <ele>402.20001220703</ele>
        <time>2021-03-10T15:27:12.000Z</time>
      </trkpt>
      <trkpt lat="46.41994" lon="5.42703">
        <ele>402.60000610352</ele>
        <time>2021-03-10T15:27:14.000Z</time>
      </trkpt>
      <trkpt lat="46.42003" lon="5.42685">
        <ele>402.79998779297</ele>
        <time>2021-03-10T15:27:16.000Z</time>
      </trkpt>
      <trkpt lat="46.4201" lon="5.42673">
        <ele>402.79998779297</ele>
        <time>2021-03-10T15:27:18.000Z</time>
      </trkpt>
      <trkpt lat="46.42013" lon="5.42667">
        <ele>402.79998779297</ele>
        <time>2021-03-10T15:27:20.000Z</time>
      </trkpt>
      <trkpt lat="46.42022" lon="5.42648">
        <ele>402.79998779297</ele>
        <time>2021-03-10T15:27:22.000Z</time>
      </trkpt>
      <trkpt lat="46.42029" lon="5.42636">
        <ele>403</ele>
        <time>2021-03-10T15:27:24.000Z</time>
      </trkpt>
      <trkpt lat="46.42032" lon="5.42629">
        <ele>402.79998779297</ele>
        <time>2021-03-10T15:27:26.000Z</time>
      </trkpt>
      <trkpt lat="46.42042" lon="5.4261">
        <ele>402.79998779297</ele>
        <time>2021-03-10T15:27:28.000Z</time>
      </trkpt>
      <trkpt lat="46.42049" lon="5.42598">
        <ele>402.79998779297</ele>
        <time>2021-03-10T15:27:30.000Z</time>
      </trkpt>
      <trkpt lat="46.42052" lon="5.42592">
        <ele>403</ele>
        <time>2021-03-10T15:27:32.000Z</time>
      </trkpt>
      <trkpt lat="46.42061" lon="5.42575">
        <ele>403</ele>
        <time>2021-03-10T15:27:34.000Z</time>
      </trkpt>
      <trkpt lat="46.42067" lon="5.42563">
        <ele>403</ele>
        <time>2021-03-10T15:27:36.000Z</time>
      </trkpt>
      <trkpt lat="46.42069" lon="5.42558">
        <ele>403.20001220703</ele>
        <time>2021-03-10T15:27:38.000Z</time>
      </trkpt>
      <trkpt lat="46.42078" lon="5.42542">
        <ele>403.39999389648</ele>
        <time>2021-03-10T15:27:40.000Z</time>
      </trkpt>
      <trkpt lat="46.42081" lon="5.42537">
        <ele>403.60000610352</ele>
        <time>2021-03-10T15:27:41.000Z</time>
      </trkpt>
      <trkpt lat="46.42083" lon="5.42532">
        <ele>403.79998779297</ele>
        <time>2021-03-10T15:27:42.000Z</time>
      </trkpt>
      <trkpt lat="46.42086" lon="5.42527">
        <ele>404.20001220703</ele>
        <time>2021-03-10T15:27:44.000Z</time>
      </trkpt>
      <trkpt lat="46.42091" lon="5.42517">
        <ele>404.39999389648</ele>
        <time>2021-03-10T15:27:45.000Z</time>
      </trkpt>
      <trkpt lat="46.42094" lon="5.42512">
        <ele>404.60000610352</ele>
        <time>2021-03-10T15:27:46.000Z</time>
      </trkpt>
      <trkpt lat="46.42099" lon="5.42503">
        <ele>405.20001220703</ele>
        <time>2021-03-10T15:27:48.000Z</time>
      </trkpt>
      <trkpt lat="46.42102" lon="5.42498">
        <ele>405.60000610352</ele>
        <time>2021-03-10T15:27:50.000Z</time>
      </trkpt>
      <trkpt lat="46.4211" lon="5.42485">
        <ele>406</ele>
        <time>2021-03-10T15:27:52.000Z</time>
      </trkpt>
      <trkpt lat="46.42116" lon="5.42477">
        <ele>406.20001220703</ele>
        <time>2021-03-10T15:27:54.000Z</time>
      </trkpt>
      <trkpt lat="46.42121" lon="5.4247">
        <ele>406.60000610352</ele>
        <time>2021-03-10T15:27:56.000Z</time>
      </trkpt>
      <trkpt lat="46.42124" lon="5.42466">
        <ele>406.79998779297</ele>
        <time>2021-03-10T15:27:57.000Z</time>
      </trkpt>
      <trkpt lat="46.42127" lon="5.42462">
        <ele>407.20001220703</ele>
        <time>2021-03-10T15:27:58.000Z</time>
      </trkpt>
      <trkpt lat="46.42133" lon="5.42454">
        <ele>407.39999389648</ele>
        <time>2021-03-10T15:28:00.000Z</time>
      </trkpt>
      <trkpt lat="46.42138" lon="5.42447">
        <ele>407.79998779297</ele>
        <time>2021-03-10T15:28:02.000Z</time>
      </trkpt>
      <trkpt lat="46.42141" lon="5.42443">
        <ele>408</ele>
        <time>2021-03-10T15:28:03.000Z</time>
      </trkpt>
      <trkpt lat="46.42144" lon="5.42439">
        <ele>408.20001220703</ele>
        <time>2021-03-10T15:28:04.000Z</time>
      </trkpt>
      <trkpt lat="46.4215" lon="5.42431">
        <ele>408.60000610352</ele>
        <time>2021-03-10T15:28:06.000Z</time>
      </trkpt>
      <trkpt lat="46.42155" lon="5.42423">
        <ele>409.20001220703</ele>
        <time>2021-03-10T15:28:08.000Z</time>
      </trkpt>
      <trkpt lat="46.42161" lon="5.42414">
        <ele>409.79998779297</ele>
        <time>2021-03-10T15:28:10.000Z</time>
      </trkpt>
      <trkpt lat="46.42166" lon="5.42404">
        <ele>410.20001220703</ele>
        <time>2021-03-10T15:28:12.000Z</time>
      </trkpt>
      <trkpt lat="46.4217" lon="5.42393">
        <ele>410.60000610352</ele>
        <time>2021-03-10T15:28:14.000Z</time>
      </trkpt>
      <trkpt lat="46.42175" lon="5.42383">
        <ele>410.79998779297</ele>
        <time>2021-03-10T15:28:16.000Z</time>
      </trkpt>
      <trkpt lat="46.42177" lon="5.42377">
        <ele>411</ele>
        <time>2021-03-10T15:28:17.000Z</time>
      </trkpt>
      <trkpt lat="46.4218" lon="5.42372">
        <ele>411</ele>
        <time>2021-03-10T15:28:18.000Z</time>
      </trkpt>
      <trkpt lat="46.42182" lon="5.42367">
        <ele>411.20001220703</ele>
        <time>2021-03-10T15:28:20.000Z</time>
      </trkpt>
      <trkpt lat="46.42187" lon="5.42356">
        <ele>411.20001220703</ele>
        <time>2021-03-10T15:28:21.000Z</time>
      </trkpt>
      <trkpt lat="46.42189" lon="5.42351">
        <ele>411.39999389648</ele>
        <time>2021-03-10T15:28:22.000Z</time>
      </trkpt>
      <trkpt lat="46.42194" lon="5.42341">
        <ele>411.39999389648</ele>
        <time>2021-03-10T15:28:24.000Z</time>
      </trkpt>
      <trkpt lat="46.42196" lon="5.42335">
        <ele>411.60000610352</ele>
        <time>2021-03-10T15:28:26.000Z</time>
      </trkpt>
      <trkpt lat="46.42202" lon="5.4232">
        <ele>411.79998779297</ele>
        <time>2021-03-10T15:28:28.000Z</time>
      </trkpt>
      <trkpt lat="46.42205" lon="5.42309">
        <ele>412.20001220703</ele>
        <time>2021-03-10T15:28:30.000Z</time>
      </trkpt>
      <trkpt lat="46.42206" lon="5.42304">
        <ele>412.39999389648</ele>
        <time>2021-03-10T15:28:32.000Z</time>
      </trkpt>
      <trkpt lat="46.42207" lon="5.42292">
        <ele>412.60000610352</ele>
        <time>2021-03-10T15:28:33.000Z</time>
      </trkpt>
      <trkpt lat="46.42207" lon="5.42286">
        <ele>412.60000610352</ele>
        <time>2021-03-10T15:28:34.000Z</time>
      </trkpt>
      <trkpt lat="46.42206" lon="5.42275">
        <ele>413</ele>
        <time>2021-03-10T15:28:36.000Z</time>
      </trkpt>
      <trkpt lat="46.42205" lon="5.42269">
        <ele>413.60000610352</ele>
        <time>2021-03-10T15:28:38.000Z</time>
      </trkpt>
      <trkpt lat="46.42203" lon="5.42258">
        <ele>413.79998779297</ele>
        <time>2021-03-10T15:28:39.000Z</time>
      </trkpt>
      <trkpt lat="46.42201" lon="5.42252">
        <ele>413.79998779297</ele>
        <time>2021-03-10T15:28:40.000Z</time>
      </trkpt>
      <trkpt lat="46.42197" lon="5.42242">
        <ele>414.20001220703</ele>
        <time>2021-03-10T15:28:42.000Z</time>
      </trkpt>
      <trkpt lat="46.42195" lon="5.42237">
        <ele>414.60000610352</ele>
        <time>2021-03-10T15:28:43.000Z</time>
      </trkpt>
      <trkpt lat="46.42192" lon="5.42232">
        <ele>414.79998779297</ele>
        <time>2021-03-10T15:28:44.000Z</time>
      </trkpt>
      <trkpt lat="46.42188" lon="5.42222">
        <ele>415</ele>
        <time>2021-03-10T15:28:46.000Z</time>
      </trkpt>
      <trkpt lat="46.42183" lon="5.42211">
        <ele>415.39999389648</ele>
        <time>2021-03-10T15:28:48.000Z</time>
      </trkpt>
      <trkpt lat="46.42181" lon="5.42206">
        <ele>415.79998779297</ele>
        <time>2021-03-10T15:28:49.000Z</time>
      </trkpt>
      <trkpt lat="46.42181" lon="5.42206">
        <ele>416.20001220703</ele>
        <time>2021-03-10T15:28:50.000Z</time>
      </trkpt>
      <trkpt lat="46.42173" lon="5.42192">
        <ele>416.60000610352</ele>
        <time>2021-03-10T15:28:52.000Z</time>
      </trkpt>
      <trkpt lat="46.42168" lon="5.42182">
        <ele>416.79998779297</ele>
        <time>2021-03-10T15:28:54.000Z</time>
      </trkpt>
      <trkpt lat="46.42163" lon="5.42172">
        <ele>417.20001220703</ele>
        <time>2021-03-10T15:28:56.000Z</time>
      </trkpt>
      <trkpt lat="46.42158" lon="5.42163">
        <ele>417.39999389648</ele>
        <time>2021-03-10T15:28:58.000Z</time>
      </trkpt>
      <trkpt lat="46.42152" lon="5.42153">
        <ele>417.60000610352</ele>
        <time>2021-03-10T15:29:00.000Z</time>
      </trkpt>
      <trkpt lat="46.42147" lon="5.42143">
        <ele>417.79998779297</ele>
        <time>2021-03-10T15:29:02.000Z</time>
      </trkpt>
      <trkpt lat="46.42142" lon="5.42134">
        <ele>418.39999389648</ele>
        <time>2021-03-10T15:29:04.000Z</time>
      </trkpt>
      <trkpt lat="46.42139" lon="5.42129">
        <ele>419</ele>
        <time>2021-03-10T15:29:05.000Z</time>
      </trkpt>
      <trkpt lat="46.42136" lon="5.42124">
        <ele>419</ele>
        <time>2021-03-10T15:29:06.000Z</time>
      </trkpt>
      <trkpt lat="46.42133" lon="5.4212">
        <ele>419.20001220703</ele>
        <time>2021-03-10T15:29:07.000Z</time>
      </trkpt>
      <trkpt lat="46.42133" lon="5.4212">
        <ele>419.20001220703</ele>
        <time>2021-03-10T15:29:08.000Z</time>
      </trkpt>
      <trkpt lat="46.42125" lon="5.42106">
        <ele>419.39999389648</ele>
        <time>2021-03-10T15:29:10.000Z</time>
      </trkpt>
      <trkpt lat="46.4212" lon="5.42096">
        <ele>419.60000610352</ele>
        <time>2021-03-10T15:29:12.000Z</time>
      </trkpt>
      <trkpt lat="46.42115" lon="5.42087">
        <ele>420</ele>
        <time>2021-03-10T15:29:14.000Z</time>
      </trkpt>
      <trkpt lat="46.4211" lon="5.42078">
        <ele>420.20001220703</ele>
        <time>2021-03-10T15:29:16.000Z</time>
      </trkpt>
      <trkpt lat="46.42105" lon="5.42069">
        <ele>420.20001220703</ele>
        <time>2021-03-10T15:29:18.000Z</time>
      </trkpt>
      <trkpt lat="46.421" lon="5.42059">
        <ele>420.60000610352</ele>
        <time>2021-03-10T15:29:20.000Z</time>
      </trkpt>
      <trkpt lat="46.42097" lon="5.42055">
        <ele>421</ele>
        <time>2021-03-10T15:29:21.000Z</time>
      </trkpt>
      <trkpt lat="46.42095" lon="5.4205">
        <ele>421.20001220703</ele>
        <time>2021-03-10T15:29:22.000Z</time>
      </trkpt>
      <trkpt lat="46.4209" lon="5.4204">
        <ele>421.79998779297</ele>
        <time>2021-03-10T15:29:24.000Z</time>
      </trkpt>
      <trkpt lat="46.42087" lon="5.42035">
        <ele>422.20001220703</ele>
        <time>2021-03-10T15:29:25.000Z</time>
      </trkpt>
      <trkpt lat="46.42085" lon="5.42031">
        <ele>422.20001220703</ele>
        <time>2021-03-10T15:29:26.000Z</time>
      </trkpt>
      <trkpt lat="46.42082" lon="5.42026">
        <ele>422.39999389648</ele>
        <time>2021-03-10T15:29:27.000Z</time>
      </trkpt>
      <trkpt lat="46.4208" lon="5.42021">
        <ele>422.60000610352</ele>
        <time>2021-03-10T15:29:28.000Z</time>
      </trkpt>
      <trkpt lat="46.42076" lon="5.42011">
        <ele>422.79998779297</ele>
        <time>2021-03-10T15:29:30.000Z</time>
      </trkpt>
      <trkpt lat="46.42072" lon="5.42">
        <ele>423.39999389648</ele>
        <time>2021-03-10T15:29:32.000Z</time>
      </trkpt>
      <trkpt lat="46.42069" lon="5.41989">
        <ele>423.79998779297</ele>
        <time>2021-03-10T15:29:34.000Z</time>
      </trkpt>
      <trkpt lat="46.42068" lon="5.41983">
        <ele>423.79998779297</ele>
        <time>2021-03-10T15:29:35.000Z</time>
      </trkpt>
      <trkpt lat="46.42067" lon="5.41977">
        <ele>423.79998779297</ele>
        <time>2021-03-10T15:29:36.000Z</time>
      </trkpt>
      <trkpt lat="46.42066" lon="5.41966">
        <ele>424.20001220703</ele>
        <time>2021-03-10T15:29:38.000Z</time>
      </trkpt>
      <trkpt lat="46.42065" lon="5.41955">
        <ele>424.39999389648</ele>
        <time>2021-03-10T15:29:40.000Z</time>
      </trkpt>
      <trkpt lat="46.42065" lon="5.41949">
        <ele>424.60000610352</ele>
        <time>2021-03-10T15:29:41.000Z</time>
      </trkpt>
      <trkpt lat="46.42065" lon="5.41944">
        <ele>424.79998779297</ele>
        <time>2021-03-10T15:29:42.000Z</time>
      </trkpt>
      <trkpt lat="46.42066" lon="5.41932">
        <ele>425.20001220703</ele>
        <time>2021-03-10T15:29:44.000Z</time>
      </trkpt>
      <trkpt lat="46.42066" lon="5.41921">
        <ele>425.39999389648</ele>
        <time>2021-03-10T15:29:46.000Z</time>
      </trkpt>
      <trkpt lat="46.42066" lon="5.4191">
        <ele>425.79998779297</ele>
        <time>2021-03-10T15:29:48.000Z</time>
      </trkpt>
      <trkpt lat="46.42065" lon="5.41898">
        <ele>426.20001220703</ele>
        <time>2021-03-10T15:29:50.000Z</time>
      </trkpt>
      <trkpt lat="46.42065" lon="5.41892">
        <ele>426.60000610352</ele>
        <time>2021-03-10T15:29:51.000Z</time>
      </trkpt>
      <trkpt lat="46.42064" lon="5.41886">
        <ele>427</ele>
        <time>2021-03-10T15:29:52.000Z</time>
      </trkpt>
      <trkpt lat="46.42063" lon="5.41875">
        <ele>427.79998779297</ele>
        <time>2021-03-10T15:29:54.000Z</time>
      </trkpt>
      <trkpt lat="46.42062" lon="5.41869">
        <ele>428.39999389648</ele>
        <time>2021-03-10T15:29:56.000Z</time>
      </trkpt>
      <trkpt lat="46.4206" lon="5.41852">
        <ele>428.79998779297</ele>
        <time>2021-03-10T15:29:58.000Z</time>
      </trkpt>
      <trkpt lat="46.42058" lon="5.4184">
        <ele>429.60000610352</ele>
        <time>2021-03-10T15:30:00.000Z</time>
      </trkpt>
      <trkpt lat="46.42055" lon="5.41829">
        <ele>429.79998779297</ele>
        <time>2021-03-10T15:30:02.000Z</time>
      </trkpt>
      <trkpt lat="46.42052" lon="5.41817">
        <ele>430.20001220703</ele>
        <time>2021-03-10T15:30:04.000Z</time>
      </trkpt>
      <trkpt lat="46.4205" lon="5.41811">
        <ele>430.39999389648</ele>
        <time>2021-03-10T15:30:05.000Z</time>
      </trkpt>
      <trkpt lat="46.42048" lon="5.41805">
        <ele>430.60000610352</ele>
        <time>2021-03-10T15:30:06.000Z</time>
      </trkpt>
      <trkpt lat="46.42044" lon="5.41793">
        <ele>430.79998779297</ele>
        <time>2021-03-10T15:30:08.000Z</time>
      </trkpt>
      <trkpt lat="46.42039" lon="5.41782">
        <ele>431.39999389648</ele>
        <time>2021-03-10T15:30:10.000Z</time>
      </trkpt>
      <trkpt lat="46.42037" lon="5.41777">
        <ele>431.60000610352</ele>
        <time>2021-03-10T15:30:11.000Z</time>
      </trkpt>
      <trkpt lat="46.42035" lon="5.41772">
        <ele>431.79998779297</ele>
        <time>2021-03-10T15:30:12.000Z</time>
      </trkpt>
      <trkpt lat="46.4203" lon="5.41762">
        <ele>432</ele>
        <time>2021-03-10T15:30:14.000Z</time>
      </trkpt>
      <trkpt lat="46.42025" lon="5.41753">
        <ele>432.39999389648</ele>
        <time>2021-03-10T15:30:16.000Z</time>
      </trkpt>
      <trkpt lat="46.42019" lon="5.41743">
        <ele>432.39999389648</ele>
        <time>2021-03-10T15:30:18.000Z</time>
      </trkpt>
      <trkpt lat="46.42013" lon="5.41734">
        <ele>432.60000610352</ele>
        <time>2021-03-10T15:30:20.000Z</time>
      </trkpt>
      <trkpt lat="46.42008" lon="5.41724">
        <ele>433</ele>
        <time>2021-03-10T15:30:22.000Z</time>
      </trkpt>
      <trkpt lat="46.42008" lon="5.41724">
        <ele>433.20001220703</ele>
        <time>2021-03-10T15:30:23.000Z</time>
      </trkpt>
      <trkpt lat="46.42005" lon="5.41719">
        <ele>433.39999389648</ele>
        <time>2021-03-10T15:30:24.000Z</time>
      </trkpt>
      <trkpt lat="46.42002" lon="5.41714">
        <ele>433.79998779297</ele>
        <time>2021-03-10T15:30:25.000Z</time>
      </trkpt>
      <trkpt lat="46.42" lon="5.41709">
        <ele>433.79998779297</ele>
        <time>2021-03-10T15:30:26.000Z</time>
      </trkpt>
      <trkpt lat="46.41997" lon="5.4169">
        <ele>434.20001220703</ele>
        <time>2021-03-10T15:30:28.000Z</time>
      </trkpt>
      <trkpt lat="46.41997" lon="5.4169">
        <ele>434.39999389648</ele>
        <time>2021-03-10T15:30:29.000Z</time>
      </trkpt>
      <trkpt lat="46.41998" lon="5.41678">
        <ele>434.60000610352</ele>
        <time>2021-03-10T15:30:30.000Z</time>
      </trkpt>
      <trkpt lat="46.41998" lon="5.41678">
        <ele>434.79998779297</ele>
        <time>2021-03-10T15:30:31.000Z</time>
      </trkpt>
      <trkpt lat="46.42" lon="5.41672">
        <ele>435</ele>
        <time>2021-03-10T15:30:32.000Z</time>
      </trkpt>
      <trkpt lat="46.42007" lon="5.41663">
        <ele>435.20001220703</ele>
        <time>2021-03-10T15:30:33.000Z</time>
      </trkpt>
      <trkpt lat="46.4201" lon="5.4166">
        <ele>435.39999389648</ele>
        <time>2021-03-10T15:30:34.000Z</time>
      </trkpt>
      <trkpt lat="46.42018" lon="5.41656">
        <ele>435.60000610352</ele>
        <time>2021-03-10T15:30:36.000Z</time>
      </trkpt>
      <trkpt lat="46.42027" lon="5.41655">
        <ele>436</ele>
        <time>2021-03-10T15:30:38.000Z</time>
      </trkpt>
      <trkpt lat="46.42035" lon="5.41656">
        <ele>436.39999389648</ele>
        <time>2021-03-10T15:30:40.000Z</time>
      </trkpt>
      <trkpt lat="46.42039" lon="5.41657">
        <ele>436.39999389648</ele>
        <time>2021-03-10T15:30:41.000Z</time>
      </trkpt>
      <trkpt lat="46.42043" lon="5.41658">
        <ele>436.60000610352</ele>
        <time>2021-03-10T15:30:42.000Z</time>
      </trkpt>
      <trkpt lat="46.42051" lon="5.4166">
        <ele>436.60000610352</ele>
        <time>2021-03-10T15:30:44.000Z</time>
      </trkpt>
      <trkpt lat="46.42059" lon="5.41663">
        <ele>437</ele>
        <time>2021-03-10T15:30:46.000Z</time>
      </trkpt>
      <trkpt lat="46.42067" lon="5.41666">
        <ele>437.79998779297</ele>
        <time>2021-03-10T15:30:48.000Z</time>
      </trkpt>
      <trkpt lat="46.42075" lon="5.41668">
        <ele>438</ele>
        <time>2021-03-10T15:30:50.000Z</time>
      </trkpt>
      <trkpt lat="46.42083" lon="5.41668">
        <ele>438.39999389648</ele>
        <time>2021-03-10T15:30:52.000Z</time>
      </trkpt>
      <trkpt lat="46.42091" lon="5.41669">
        <ele>439</ele>
        <time>2021-03-10T15:30:54.000Z</time>
      </trkpt>
      <trkpt lat="46.42095" lon="5.41669">
        <ele>439.20001220703</ele>
        <time>2021-03-10T15:30:55.000Z</time>
      </trkpt>
      <trkpt lat="46.42099" lon="5.41669">
        <ele>439.39999389648</ele>
        <time>2021-03-10T15:30:56.000Z</time>
      </trkpt>
      <trkpt lat="46.42108" lon="5.41669">
        <ele>440</ele>
        <time>2021-03-10T15:30:58.000Z</time>
      </trkpt>
      <trkpt lat="46.42112" lon="5.41669">
        <ele>440.39999389648</ele>
        <time>2021-03-10T15:30:59.000Z</time>
      </trkpt>
      <trkpt lat="46.42116" lon="5.41669">
        <ele>440.60000610352</ele>
        <time>2021-03-10T15:31:00.000Z</time>
      </trkpt>
      <trkpt lat="46.42124" lon="5.41671">
        <ele>441</ele>
        <time>2021-03-10T15:31:02.000Z</time>
      </trkpt>
      <trkpt lat="46.42129" lon="5.41673">
        <ele>441.39999389648</ele>
        <time>2021-03-10T15:31:03.000Z</time>
      </trkpt>
      <trkpt lat="46.42133" lon="5.41674">
        <ele>441.60000610352</ele>
        <time>2021-03-10T15:31:04.000Z</time>
      </trkpt>
      <trkpt lat="46.42141" lon="5.41678">
        <ele>442</ele>
        <time>2021-03-10T15:31:06.000Z</time>
      </trkpt>
      <trkpt lat="46.42149" lon="5.41683">
        <ele>442.20001220703</ele>
        <time>2021-03-10T15:31:08.000Z</time>
      </trkpt>
      <trkpt lat="46.42153" lon="5.41685">
        <ele>442.39999389648</ele>
        <time>2021-03-10T15:31:09.000Z</time>
      </trkpt>
      <trkpt lat="46.42157" lon="5.41688">
        <ele>442.60000610352</ele>
        <time>2021-03-10T15:31:10.000Z</time>
      </trkpt>
      <trkpt lat="46.42165" lon="5.41693">
        <ele>442.79998779297</ele>
        <time>2021-03-10T15:31:12.000Z</time>
      </trkpt>
      <trkpt lat="46.42173" lon="5.41698">
        <ele>443.20001220703</ele>
        <time>2021-03-10T15:31:14.000Z</time>
      </trkpt>
      <trkpt lat="46.42177" lon="5.41701">
        <ele>443.60000610352</ele>
        <time>2021-03-10T15:31:15.000Z</time>
      </trkpt>
      <trkpt lat="46.42181" lon="5.41704">
        <ele>443.79998779297</ele>
        <time>2021-03-10T15:31:16.000Z</time>
      </trkpt>
      <trkpt lat="46.42189" lon="5.41709">
        <ele>443.79998779297</ele>
        <time>2021-03-10T15:31:18.000Z</time>
      </trkpt>
      <trkpt lat="46.42197" lon="5.41714">
        <ele>444.60000610352</ele>
        <time>2021-03-10T15:31:20.000Z</time>
      </trkpt>
      <trkpt lat="46.42201" lon="5.41717">
        <ele>444.79998779297</ele>
        <time>2021-03-10T15:31:21.000Z</time>
      </trkpt>
      <trkpt lat="46.42205" lon="5.41719">
        <ele>445</ele>
        <time>2021-03-10T15:31:22.000Z</time>
      </trkpt>
      <trkpt lat="46.42209" lon="5.41722">
        <ele>445.39999389648</ele>
        <time>2021-03-10T15:31:23.000Z</time>
      </trkpt>
      <trkpt lat="46.42213" lon="5.41725">
        <ele>445.39999389648</ele>
        <time>2021-03-10T15:31:24.000Z</time>
      </trkpt>
      <trkpt lat="46.42221" lon="5.4173">
        <ele>445.79998779297</ele>
        <time>2021-03-10T15:31:26.000Z</time>
      </trkpt>
      <trkpt lat="46.42225" lon="5.41732">
        <ele>446</ele>
        <time>2021-03-10T15:31:27.000Z</time>
      </trkpt>
      <trkpt lat="46.42229" lon="5.41734">
        <ele>446</ele>
        <time>2021-03-10T15:31:28.000Z</time>
      </trkpt>
      <trkpt lat="46.42237" lon="5.41739">
        <ele>446.39999389648</ele>
        <time>2021-03-10T15:31:30.000Z</time>
      </trkpt>
      <trkpt lat="46.42246" lon="5.41744">
        <ele>446.60000610352</ele>
        <time>2021-03-10T15:31:32.000Z</time>
      </trkpt>
      <trkpt lat="46.4225" lon="5.41747">
        <ele>446.79998779297</ele>
        <time>2021-03-10T15:31:33.000Z</time>
      </trkpt>
      <trkpt lat="46.42254" lon="5.4175">
        <ele>447</ele>
        <time>2021-03-10T15:31:34.000Z</time>
      </trkpt>
      <trkpt lat="46.42258" lon="5.41752">
        <ele>447.20001220703</ele>
        <time>2021-03-10T15:31:35.000Z</time>
      </trkpt>
      <trkpt lat="46.42263" lon="5.41755">
        <ele>447.39999389648</ele>
        <time>2021-03-10T15:31:36.000Z</time>
      </trkpt>
      <trkpt lat="46.42271" lon="5.41759">
        <ele>447.60000610352</ele>
        <time>2021-03-10T15:31:38.000Z</time>
      </trkpt>
      <trkpt lat="46.42276" lon="5.41762">
        <ele>447.79998779297</ele>
        <time>2021-03-10T15:31:39.000Z</time>
      </trkpt>
      <trkpt lat="46.4228" lon="5.41765">
        <ele>448</ele>
        <time>2021-03-10T15:31:40.000Z</time>
      </trkpt>
      <trkpt lat="46.42288" lon="5.4177">
        <ele>448.39999389648</ele>
        <time>2021-03-10T15:31:42.000Z</time>
      </trkpt>
      <trkpt lat="46.42296" lon="5.41774">
        <ele>448.60000610352</ele>
        <time>2021-03-10T15:31:44.000Z</time>
      </trkpt>
      <trkpt lat="46.42304" lon="5.41778">
        <ele>449</ele>
        <time>2021-03-10T15:31:46.000Z</time>
      </trkpt>
      <trkpt lat="46.42312" lon="5.41781">
        <ele>449.39999389648</ele>
        <time>2021-03-10T15:31:48.000Z</time>
      </trkpt>
      <trkpt lat="46.4232" lon="5.41785">
        <ele>449.79998779297</ele>
        <time>2021-03-10T15:31:50.000Z</time>
      </trkpt>
      <trkpt lat="46.42328" lon="5.41788">
        <ele>450.39999389648</ele>
        <time>2021-03-10T15:31:52.000Z</time>
      </trkpt>
      <trkpt lat="46.42332" lon="5.4179">
        <ele>450.79998779297</ele>
        <time>2021-03-10T15:31:53.000Z</time>
      </trkpt>
      <trkpt lat="46.42336" lon="5.41791">
        <ele>451</ele>
        <time>2021-03-10T15:31:54.000Z</time>
      </trkpt>
      <trkpt lat="46.42343" lon="5.41795">
        <ele>451.60000610352</ele>
        <time>2021-03-10T15:31:56.000Z</time>
      </trkpt>
      <trkpt lat="46.42346" lon="5.41797">
        <ele>452</ele>
        <time>2021-03-10T15:31:57.000Z</time>
      </trkpt>
      <trkpt lat="46.4235" lon="5.41799">
        <ele>452.20001220703</ele>
        <time>2021-03-10T15:31:58.000Z</time>
      </trkpt>
      <trkpt lat="46.42354" lon="5.418">
        <ele>452.39999389648</ele>
        <time>2021-03-10T15:31:59.000Z</time>
      </trkpt>
      <trkpt lat="46.42357" lon="5.41802">
        <ele>452.60000610352</ele>
        <time>2021-03-10T15:32:00.000Z</time>
      </trkpt>
      <trkpt lat="46.42364" lon="5.41804">
        <ele>453</ele>
        <time>2021-03-10T15:32:02.000Z</time>
      </trkpt>
      <trkpt lat="46.42368" lon="5.41805">
        <ele>453</ele>
        <time>2021-03-10T15:32:03.000Z</time>
      </trkpt>
      <trkpt lat="46.42371" lon="5.41806">
        <ele>453.20001220703</ele>
        <time>2021-03-10T15:32:04.000Z</time>
      </trkpt>
      <trkpt lat="46.42378" lon="5.41807">
        <ele>453.60000610352</ele>
        <time>2021-03-10T15:32:06.000Z</time>
      </trkpt>
      <trkpt lat="46.42385" lon="5.41808">
        <ele>453.79998779297</ele>
        <time>2021-03-10T15:32:08.000Z</time>
      </trkpt>
      <trkpt lat="46.42388" lon="5.41808">
        <ele>454.20001220703</ele>
        <time>2021-03-10T15:32:09.000Z</time>
      </trkpt>
      <trkpt lat="46.42392" lon="5.41808">
        <ele>454.39999389648</ele>
        <time>2021-03-10T15:32:10.000Z</time>
      </trkpt>
      <trkpt lat="46.424" lon="5.41807">
        <ele>455</ele>
        <time>2021-03-10T15:32:12.000Z</time>
      </trkpt>
      <trkpt lat="46.42404" lon="5.41807">
        <ele>455.20001220703</ele>
        <time>2021-03-10T15:32:13.000Z</time>
      </trkpt>
      <trkpt lat="46.42408" lon="5.41806">
        <ele>455.60000610352</ele>
        <time>2021-03-10T15:32:14.000Z</time>
      </trkpt>
      <trkpt lat="46.42415" lon="5.41804">
        <ele>456.20001220703</ele>
        <time>2021-03-10T15:32:16.000Z</time>
      </trkpt>
      <trkpt lat="46.42419" lon="5.41803">
        <ele>456.39999389648</ele>
        <time>2021-03-10T15:32:17.000Z</time>
      </trkpt>
      <trkpt lat="46.42424" lon="5.41802">
        <ele>456.79998779297</ele>
        <time>2021-03-10T15:32:18.000Z</time>
      </trkpt>
      <trkpt lat="46.42432" lon="5.418">
        <ele>457</ele>
        <time>2021-03-10T15:32:20.000Z</time>
      </trkpt>
      <trkpt lat="46.4244" lon="5.41798">
        <ele>457.20001220703</ele>
        <time>2021-03-10T15:32:22.000Z</time>
      </trkpt>
      <trkpt lat="46.42448" lon="5.41796">
        <ele>457.60000610352</ele>
        <time>2021-03-10T15:32:24.000Z</time>
      </trkpt>
      <trkpt lat="46.42456" lon="5.41792">
        <ele>458.20001220703</ele>
        <time>2021-03-10T15:32:26.000Z</time>
      </trkpt>
      <trkpt lat="46.42464" lon="5.41789">
        <ele>458.60000610352</ele>
        <time>2021-03-10T15:32:28.000Z</time>
      </trkpt>
      <trkpt lat="46.42468" lon="5.41787">
        <ele>458.79998779297</ele>
        <time>2021-03-10T15:32:29.000Z</time>
      </trkpt>
      <trkpt lat="46.42472" lon="5.41786">
        <ele>459</ele>
        <time>2021-03-10T15:32:30.000Z</time>
      </trkpt>
      <trkpt lat="46.4248" lon="5.41784">
        <ele>459.39999389648</ele>
        <time>2021-03-10T15:32:32.000Z</time>
      </trkpt>
      <trkpt lat="46.42487" lon="5.41782">
        <ele>460</ele>
        <time>2021-03-10T15:32:34.000Z</time>
      </trkpt>
      <trkpt lat="46.42495" lon="5.4178">
        <ele>460.39999389648</ele>
        <time>2021-03-10T15:32:36.000Z</time>
      </trkpt>
      <trkpt lat="46.42503" lon="5.41778">
        <ele>460.79998779297</ele>
        <time>2021-03-10T15:32:38.000Z</time>
      </trkpt>
      <trkpt lat="46.4251" lon="5.41777">
        <ele>461</ele>
        <time>2021-03-10T15:32:40.000Z</time>
      </trkpt>
      <trkpt lat="46.42517" lon="5.41777">
        <ele>461.20001220703</ele>
        <time>2021-03-10T15:32:42.000Z</time>
      </trkpt>
      <trkpt lat="46.42521" lon="5.41778">
        <ele>461.39999389648</ele>
        <time>2021-03-10T15:32:43.000Z</time>
      </trkpt>
      <trkpt lat="46.42525" lon="5.41779">
        <ele>461.60000610352</ele>
        <time>2021-03-10T15:32:44.000Z</time>
      </trkpt>
      <trkpt lat="46.42532" lon="5.41781">
        <ele>462.60000610352</ele>
        <time>2021-03-10T15:32:46.000Z</time>
      </trkpt>
      <trkpt lat="46.42539" lon="5.41784">
        <ele>463.20001220703</ele>
        <time>2021-03-10T15:32:48.000Z</time>
      </trkpt>
      <trkpt lat="46.42543" lon="5.41785">
        <ele>463.60000610352</ele>
        <time>2021-03-10T15:32:49.000Z</time>
      </trkpt>
      <trkpt lat="46.42546" lon="5.41787">
        <ele>463.60000610352</ele>
        <time>2021-03-10T15:32:50.000Z</time>
      </trkpt>
      <trkpt lat="46.42553" lon="5.4179">
        <ele>464</ele>
        <time>2021-03-10T15:32:52.000Z</time>
      </trkpt>
      <trkpt lat="46.4256" lon="5.41794">
        <ele>464.60000610352</ele>
        <time>2021-03-10T15:32:54.000Z</time>
      </trkpt>
      <trkpt lat="46.42564" lon="5.41795">
        <ele>464.79998779297</ele>
        <time>2021-03-10T15:32:55.000Z</time>
      </trkpt>
      <trkpt lat="46.42567" lon="5.41797">
        <ele>465</ele>
        <time>2021-03-10T15:32:56.000Z</time>
      </trkpt>
      <trkpt lat="46.42574" lon="5.41799">
        <ele>465.39999389648</ele>
        <time>2021-03-10T15:32:58.000Z</time>
      </trkpt>
      <trkpt lat="46.42577" lon="5.41799">
        <ele>465.60000610352</ele>
        <time>2021-03-10T15:32:59.000Z</time>
      </trkpt>
      <trkpt lat="46.42581" lon="5.41799">
        <ele>466</ele>
        <time>2021-03-10T15:33:00.000Z</time>
      </trkpt>
      <trkpt lat="46.42589" lon="5.41798">
        <ele>466.39999389648</ele>
        <time>2021-03-10T15:33:02.000Z</time>
      </trkpt>
      <trkpt lat="46.42596" lon="5.41795">
        <ele>467</ele>
        <time>2021-03-10T15:33:04.000Z</time>
      </trkpt>
      <trkpt lat="46.426" lon="5.41793">
        <ele>467.20001220703</ele>
        <time>2021-03-10T15:33:05.000Z</time>
      </trkpt>
      <trkpt lat="46.42603" lon="5.4179">
        <ele>467.39999389648</ele>
        <time>2021-03-10T15:33:06.000Z</time>
      </trkpt>
      <trkpt lat="46.42609" lon="5.41785">
        <ele>467.79998779297</ele>
        <time>2021-03-10T15:33:08.000Z</time>
      </trkpt>
      <trkpt lat="46.42615" lon="5.4178">
        <ele>468</ele>
        <time>2021-03-10T15:33:10.000Z</time>
      </trkpt>
      <trkpt lat="46.42622" lon="5.41774">
        <ele>468.20001220703</ele>
        <time>2021-03-10T15:33:12.000Z</time>
      </trkpt>
      <trkpt lat="46.42629" lon="5.41766">
        <ele>468.60000610352</ele>
        <time>2021-03-10T15:33:14.000Z</time>
      </trkpt>
      <trkpt lat="46.42636" lon="5.41759">
        <ele>469.60000610352</ele>
        <time>2021-03-10T15:33:16.000Z</time>
      </trkpt>
      <trkpt lat="46.42643" lon="5.41752">
        <ele>470</ele>
        <time>2021-03-10T15:33:18.000Z</time>
      </trkpt>
      <trkpt lat="46.4265" lon="5.41746">
        <ele>470.20001220703</ele>
        <time>2021-03-10T15:33:20.000Z</time>
      </trkpt>
      <trkpt lat="46.42656" lon="5.41738">
        <ele>470.39999389648</ele>
        <time>2021-03-10T15:33:22.000Z</time>
      </trkpt>
      <trkpt lat="46.42663" lon="5.4173">
        <ele>470.60000610352</ele>
        <time>2021-03-10T15:33:24.000Z</time>
      </trkpt>
      <trkpt lat="46.42666" lon="5.41727">
        <ele>470.79998779297</ele>
        <time>2021-03-10T15:33:25.000Z</time>
      </trkpt>
      <trkpt lat="46.42669" lon="5.41724">
        <ele>470.79998779297</ele>
        <time>2021-03-10T15:33:26.000Z</time>
      </trkpt>
      <trkpt lat="46.42672" lon="5.41721">
        <ele>471</ele>
        <time>2021-03-10T15:33:27.000Z</time>
      </trkpt>
      <trkpt lat="46.42676" lon="5.41718">
        <ele>471</ele>
        <time>2021-03-10T15:33:28.000Z</time>
      </trkpt>
      <trkpt lat="46.42683" lon="5.41712">
        <ele>471.39999389648</ele>
        <time>2021-03-10T15:33:30.000Z</time>
      </trkpt>
      <trkpt lat="46.42689" lon="5.41706">
        <ele>471.79998779297</ele>
        <time>2021-03-10T15:33:32.000Z</time>
      </trkpt>
      <trkpt lat="46.42695" lon="5.41699">
        <ele>472.39999389648</ele>
        <time>2021-03-10T15:33:34.000Z</time>
      </trkpt>
      <trkpt lat="46.42701" lon="5.41693">
        <ele>473</ele>
        <time>2021-03-10T15:33:36.000Z</time>
      </trkpt>
      <trkpt lat="46.42707" lon="5.41686">
        <ele>473.39999389648</ele>
        <time>2021-03-10T15:33:38.000Z</time>
      </trkpt>
      <trkpt lat="46.4271" lon="5.41679">
        <ele>473.79998779297</ele>
        <time>2021-03-10T15:33:40.000Z</time>
      </trkpt>
      <trkpt lat="46.42711" lon="5.41674">
        <ele>474</ele>
        <time>2021-03-10T15:33:41.000Z</time>
      </trkpt>
      <trkpt lat="46.42712" lon="5.41669">
        <ele>474.20001220703</ele>
        <time>2021-03-10T15:33:42.000Z</time>
      </trkpt>
      <trkpt lat="46.42711" lon="5.41659">
        <ele>475.39999389648</ele>
        <time>2021-03-10T15:33:44.000Z</time>
      </trkpt>
      <trkpt lat="46.42709" lon="5.41654">
        <ele>475.60000610352</ele>
        <time>2021-03-10T15:33:45.000Z</time>
      </trkpt>
      <trkpt lat="46.42707" lon="5.4165">
        <ele>476</ele>
        <time>2021-03-10T15:33:46.000Z</time>
      </trkpt>
      <trkpt lat="46.427" lon="5.41643">
        <ele>476.60000610352</ele>
        <time>2021-03-10T15:33:48.000Z</time>
      </trkpt>
      <trkpt lat="46.42697" lon="5.41641">
        <ele>476.79998779297</ele>
        <time>2021-03-10T15:33:49.000Z</time>
      </trkpt>
      <trkpt lat="46.42693" lon="5.41639">
        <ele>477</ele>
        <time>2021-03-10T15:33:50.000Z</time>
      </trkpt>
      <trkpt lat="46.42685" lon="5.41637">
        <ele>477.60000610352</ele>
        <time>2021-03-10T15:33:52.000Z</time>
      </trkpt>
      <trkpt lat="46.42682" lon="5.41636">
        <ele>477.79998779297</ele>
        <time>2021-03-10T15:33:53.000Z</time>
      </trkpt>
      <trkpt lat="46.42678" lon="5.41635">
        <ele>478</ele>
        <time>2021-03-10T15:33:54.000Z</time>
      </trkpt>
      <trkpt lat="46.42671" lon="5.41631">
        <ele>478.39999389648</ele>
        <time>2021-03-10T15:33:56.000Z</time>
      </trkpt>
      <trkpt lat="46.42664" lon="5.41626">
        <ele>478.79998779297</ele>
        <time>2021-03-10T15:33:58.000Z</time>
      </trkpt>
      <trkpt lat="46.42661" lon="5.41623">
        <ele>479</ele>
        <time>2021-03-10T15:33:59.000Z</time>
      </trkpt>
      <trkpt lat="46.42657" lon="5.4162">
        <ele>479</ele>
        <time>2021-03-10T15:34:00.000Z</time>
      </trkpt>
      <trkpt lat="46.42651" lon="5.41615">
        <ele>479.20001220703</ele>
        <time>2021-03-10T15:34:02.000Z</time>
      </trkpt>
      <trkpt lat="46.42644" lon="5.41611">
        <ele>479.39999389648</ele>
        <time>2021-03-10T15:34:04.000Z</time>
      </trkpt>
      <trkpt lat="46.42638" lon="5.41609">
        <ele>479.79998779297</ele>
        <time>2021-03-10T15:34:06.000Z</time>
      </trkpt>
      <trkpt lat="46.42635" lon="5.41608">
        <ele>480</ele>
        <time>2021-03-10T15:34:07.000Z</time>
      </trkpt>
      <trkpt lat="46.42631" lon="5.41607">
        <ele>480.20001220703</ele>
        <time>2021-03-10T15:34:08.000Z</time>
      </trkpt>
      <trkpt lat="46.42628" lon="5.41606">
        <ele>480.60000610352</ele>
        <time>2021-03-10T15:34:09.000Z</time>
      </trkpt>
      <trkpt lat="46.42625" lon="5.41605">
        <ele>480.79998779297</ele>
        <time>2021-03-10T15:34:10.000Z</time>
      </trkpt>
      <trkpt lat="46.42622" lon="5.41604">
        <ele>481</ele>
        <time>2021-03-10T15:34:11.000Z</time>
      </trkpt>
      <trkpt lat="46.42619" lon="5.41603">
        <ele>481.60000610352</ele>
        <time>2021-03-10T15:34:12.000Z</time>
      </trkpt>
      <trkpt lat="46.42613" lon="5.41601">
        <ele>482.60000610352</ele>
        <time>2021-03-10T15:34:14.000Z</time>
      </trkpt>
      <trkpt lat="46.42606" lon="5.41599">
        <ele>483.20001220703</ele>
        <time>2021-03-10T15:34:16.000Z</time>
      </trkpt>
      <trkpt lat="46.42603" lon="5.41598">
        <ele>483.60000610352</ele>
        <time>2021-03-10T15:34:17.000Z</time>
      </trkpt>
      <trkpt lat="46.426" lon="5.41598">
        <ele>484</ele>
        <time>2021-03-10T15:34:18.000Z</time>
      </trkpt>
      <trkpt lat="46.42593" lon="5.41596">
        <ele>484.79998779297</ele>
        <time>2021-03-10T15:34:20.000Z</time>
      </trkpt>
      <trkpt lat="46.42587" lon="5.41594">
        <ele>485.39999389648</ele>
        <time>2021-03-10T15:34:22.000Z</time>
      </trkpt>
      <trkpt lat="46.42579" lon="5.41593">
        <ele>486</ele>
        <time>2021-03-10T15:34:24.000Z</time>
      </trkpt>
      <trkpt lat="46.42572" lon="5.41591">
        <ele>486.60000610352</ele>
        <time>2021-03-10T15:34:26.000Z</time>
      </trkpt>
      <trkpt lat="46.42565" lon="5.41589">
        <ele>486.79998779297</ele>
        <time>2021-03-10T15:34:28.000Z</time>
      </trkpt>
      <trkpt lat="46.42562" lon="5.41588">
        <ele>487.20001220703</ele>
        <time>2021-03-10T15:34:29.000Z</time>
      </trkpt>
      <trkpt lat="46.42558" lon="5.41587">
        <ele>487.39999389648</ele>
        <time>2021-03-10T15:34:30.000Z</time>
      </trkpt>
      <trkpt lat="46.42551" lon="5.41585">
        <ele>487.79998779297</ele>
        <time>2021-03-10T15:34:32.000Z</time>
      </trkpt>
      <trkpt lat="46.42544" lon="5.41584">
        <ele>488.20001220703</ele>
        <time>2021-03-10T15:34:34.000Z</time>
      </trkpt>
      <trkpt lat="46.42536" lon="5.41582">
        <ele>488.79998779297</ele>
        <time>2021-03-10T15:34:36.000Z</time>
      </trkpt>
      <trkpt lat="46.42532" lon="5.41581">
        <ele>489</ele>
        <time>2021-03-10T15:34:37.000Z</time>
      </trkpt>
      <trkpt lat="46.42528" lon="5.41581">
        <ele>489</ele>
        <time>2021-03-10T15:34:38.000Z</time>
      </trkpt>
      <trkpt lat="46.4252" lon="5.41579">
        <ele>489.39999389648</ele>
        <time>2021-03-10T15:34:40.000Z</time>
      </trkpt>
      <trkpt lat="46.4251" lon="5.41578">
        <ele>489.60000610352</ele>
        <time>2021-03-10T15:34:42.000Z</time>
      </trkpt>
      <trkpt lat="46.425" lon="5.41576">
        <ele>489.79998779297</ele>
        <time>2021-03-10T15:34:44.000Z</time>
      </trkpt>
      <trkpt lat="46.42495" lon="5.41575">
        <ele>489.79998779297</ele>
        <time>2021-03-10T15:34:45.000Z</time>
      </trkpt>
      <trkpt lat="46.42489" lon="5.41574">
        <ele>489.79998779297</ele>
        <time>2021-03-10T15:34:46.000Z</time>
      </trkpt>
      <trkpt lat="46.42477" lon="5.41571">
        <ele>489.79998779297</ele>
        <time>2021-03-10T15:34:48.000Z</time>
      </trkpt>
      <trkpt lat="46.42465" lon="5.41566">
        <ele>489.79998779297</ele>
        <time>2021-03-10T15:34:50.000Z</time>
      </trkpt>
      <trkpt lat="46.42453" lon="5.41559">
        <ele>489.60000610352</ele>
        <time>2021-03-10T15:34:52.000Z</time>
      </trkpt>
      <trkpt lat="46.42441" lon="5.41552">
        <ele>489.20001220703</ele>
        <time>2021-03-10T15:34:54.000Z</time>
      </trkpt>
      <trkpt lat="46.42428" lon="5.41546">
        <ele>488.60000610352</ele>
        <time>2021-03-10T15:34:56.000Z</time>
      </trkpt>
      <trkpt lat="46.42421" lon="5.41544">
        <ele>488.20001220703</ele>
        <time>2021-03-10T15:34:57.000Z</time>
      </trkpt>
      <trkpt lat="46.42415" lon="5.41541">
        <ele>488</ele>
        <time>2021-03-10T15:34:58.000Z</time>
      </trkpt>
      <trkpt lat="46.42403" lon="5.41537">
        <ele>487.60000610352</ele>
        <time>2021-03-10T15:35:00.000Z</time>
      </trkpt>
      <trkpt lat="46.4239" lon="5.41533">
        <ele>487.60000610352</ele>
        <time>2021-03-10T15:35:02.000Z</time>
      </trkpt>
      <trkpt lat="46.42378" lon="5.41529">
        <ele>487.60000610352</ele>
        <time>2021-03-10T15:35:04.000Z</time>
      </trkpt>
      <trkpt lat="46.42366" lon="5.41523">
        <ele>487.60000610352</ele>
        <time>2021-03-10T15:35:06.000Z</time>
      </trkpt>
      <trkpt lat="46.42354" lon="5.41515">
        <ele>487.60000610352</ele>
        <time>2021-03-10T15:35:08.000Z</time>
      </trkpt>
      <trkpt lat="46.42342" lon="5.41507">
        <ele>487.60000610352</ele>
        <time>2021-03-10T15:35:10.000Z</time>
      </trkpt>
      <trkpt lat="46.4233" lon="5.41501">
        <ele>487.79998779297</ele>
        <time>2021-03-10T15:35:12.000Z</time>
      </trkpt>
      <trkpt lat="46.42324" lon="5.41498">
        <ele>487.79998779297</ele>
        <time>2021-03-10T15:35:13.000Z</time>
      </trkpt>
      <trkpt lat="46.42318" lon="5.41495">
        <ele>488</ele>
        <time>2021-03-10T15:35:14.000Z</time>
      </trkpt>
      <trkpt lat="46.42306" lon="5.4149">
        <ele>488</ele>
        <time>2021-03-10T15:35:16.000Z</time>
      </trkpt>
      <trkpt lat="46.42295" lon="5.41486">
        <ele>488</ele>
        <time>2021-03-10T15:35:18.000Z</time>
      </trkpt>
      <trkpt lat="46.42289" lon="5.41485">
        <ele>488</ele>
        <time>2021-03-10T15:35:19.000Z</time>
      </trkpt>
      <trkpt lat="46.42283" lon="5.41483">
        <ele>488</ele>
        <time>2021-03-10T15:35:20.000Z</time>
      </trkpt>
      <trkpt lat="46.42273" lon="5.4148">
        <ele>488.20001220703</ele>
        <time>2021-03-10T15:35:22.000Z</time>
      </trkpt>
      <trkpt lat="46.42262" lon="5.41477">
        <ele>488.39999389648</ele>
        <time>2021-03-10T15:35:24.000Z</time>
      </trkpt>
      <trkpt lat="46.42251" lon="5.41475">
        <ele>488.60000610352</ele>
        <time>2021-03-10T15:35:26.000Z</time>
      </trkpt>
      <trkpt lat="46.4224" lon="5.41475">
        <ele>489</ele>
        <time>2021-03-10T15:35:28.000Z</time>
      </trkpt>
      <trkpt lat="46.42235" lon="5.41474">
        <ele>489.20001220703</ele>
        <time>2021-03-10T15:35:29.000Z</time>
      </trkpt>
      <trkpt lat="46.4223" lon="5.41473">
        <ele>489.39999389648</ele>
        <time>2021-03-10T15:35:30.000Z</time>
      </trkpt>
      <trkpt lat="46.4222" lon="5.41472">
        <ele>489.79998779297</ele>
        <time>2021-03-10T15:35:32.000Z</time>
      </trkpt>
      <trkpt lat="46.42212" lon="5.4147">
        <ele>490.20001220703</ele>
        <time>2021-03-10T15:35:34.000Z</time>
      </trkpt>
      <trkpt lat="46.42203" lon="5.41468">
        <ele>490.79998779297</ele>
        <time>2021-03-10T15:35:36.000Z</time>
      </trkpt>
      <trkpt lat="46.42198" lon="5.41467">
        <ele>491</ele>
        <time>2021-03-10T15:35:37.000Z</time>
      </trkpt>
      <trkpt lat="46.42194" lon="5.41467">
        <ele>491.20001220703</ele>
        <time>2021-03-10T15:35:38.000Z</time>
      </trkpt>
      <trkpt lat="46.42188" lon="5.41466">
        <ele>491.39999389648</ele>
        <time>2021-03-10T15:35:39.000Z</time>
      </trkpt>
      <trkpt lat="46.42183" lon="5.41465">
        <ele>491.60000610352</ele>
        <time>2021-03-10T15:35:40.000Z</time>
      </trkpt>
      <trkpt lat="46.42173" lon="5.41461">
        <ele>492.39999389648</ele>
        <time>2021-03-10T15:35:42.000Z</time>
      </trkpt>
      <trkpt lat="46.42164" lon="5.41457">
        <ele>493.20001220703</ele>
        <time>2021-03-10T15:35:44.000Z</time>
      </trkpt>
      <trkpt lat="46.42159" lon="5.41455">
        <ele>493.39999389648</ele>
        <time>2021-03-10T15:35:45.000Z</time>
      </trkpt>
      <trkpt lat="46.42154" lon="5.41454">
        <ele>493.79998779297</ele>
        <time>2021-03-10T15:35:46.000Z</time>
      </trkpt>
      <trkpt lat="46.42145" lon="5.4145">
        <ele>494.20001220703</ele>
        <time>2021-03-10T15:35:48.000Z</time>
      </trkpt>
      <trkpt lat="46.42136" lon="5.41445">
        <ele>494.60000610352</ele>
        <time>2021-03-10T15:35:50.000Z</time>
      </trkpt>
      <trkpt lat="46.42128" lon="5.41441">
        <ele>495</ele>
        <time>2021-03-10T15:35:52.000Z</time>
      </trkpt>
      <trkpt lat="46.42119" lon="5.41438">
        <ele>495.20001220703</ele>
        <time>2021-03-10T15:35:54.000Z</time>
      </trkpt>
      <trkpt lat="46.42115" lon="5.41436">
        <ele>495.39999389648</ele>
        <time>2021-03-10T15:35:55.000Z</time>
      </trkpt>
      <trkpt lat="46.42111" lon="5.41434">
        <ele>495.39999389648</ele>
        <time>2021-03-10T15:35:56.000Z</time>
      </trkpt>
      <trkpt lat="46.42107" lon="5.41432">
        <ele>495.60000610352</ele>
        <time>2021-03-10T15:35:57.000Z</time>
      </trkpt>
      <trkpt lat="46.42102" lon="5.4143">
        <ele>495.79998779297</ele>
        <time>2021-03-10T15:35:58.000Z</time>
      </trkpt>
      <trkpt lat="46.42094" lon="5.41426">
        <ele>496.39999389648</ele>
        <time>2021-03-10T15:36:00.000Z</time>
      </trkpt>
      <trkpt lat="46.42086" lon="5.41422">
        <ele>496.79998779297</ele>
        <time>2021-03-10T15:36:02.000Z</time>
      </trkpt>
      <trkpt lat="46.42078" lon="5.41418">
        <ele>497.20001220703</ele>
        <time>2021-03-10T15:36:04.000Z</time>
      </trkpt>
      <trkpt lat="46.4207" lon="5.41415">
        <ele>497.60000610352</ele>
        <time>2021-03-10T15:36:06.000Z</time>
      </trkpt>
      <trkpt lat="46.42062" lon="5.41412">
        <ele>498</ele>
        <time>2021-03-10T15:36:08.000Z</time>
      </trkpt>
      <trkpt lat="46.42054" lon="5.41408">
        <ele>498.20001220703</ele>
        <time>2021-03-10T15:36:10.000Z</time>
      </trkpt>
      <trkpt lat="46.42046" lon="5.41404">
        <ele>498.60000610352</ele>
        <time>2021-03-10T15:36:12.000Z</time>
      </trkpt>
      <trkpt lat="46.42043" lon="5.41402">
        <ele>498.79998779297</ele>
        <time>2021-03-10T15:36:13.000Z</time>
      </trkpt>
      <trkpt lat="46.42038" lon="5.414">
        <ele>499</ele>
        <time>2021-03-10T15:36:14.000Z</time>
      </trkpt>
      <trkpt lat="46.42031" lon="5.41396">
        <ele>499.39999389648</ele>
        <time>2021-03-10T15:36:16.000Z</time>
      </trkpt>
      <trkpt lat="46.42023" lon="5.41392">
        <ele>499.79998779297</ele>
        <time>2021-03-10T15:36:18.000Z</time>
      </trkpt>
      <trkpt lat="46.42019" lon="5.4139">
        <ele>500.20001220703</ele>
        <time>2021-03-10T15:36:19.000Z</time>
      </trkpt>
      <trkpt lat="46.42015" lon="5.41388">
        <ele>500.39999389648</ele>
        <time>2021-03-10T15:36:20.000Z</time>
      </trkpt>
      <trkpt lat="46.42007" lon="5.41385">
        <ele>500.79998779297</ele>
        <time>2021-03-10T15:36:22.000Z</time>
      </trkpt>
      <trkpt lat="46.42" lon="5.41382">
        <ele>501.20001220703</ele>
        <time>2021-03-10T15:36:24.000Z</time>
      </trkpt>
      <trkpt lat="46.41993" lon="5.41376">
        <ele>501.60000610352</ele>
        <time>2021-03-10T15:36:26.000Z</time>
      </trkpt>
      <trkpt lat="46.4199" lon="5.41372">
        <ele>502</ele>
        <time>2021-03-10T15:36:27.000Z</time>
      </trkpt>
      <trkpt lat="46.41986" lon="5.41369">
        <ele>502.20001220703</ele>
        <time>2021-03-10T15:36:28.000Z</time>
      </trkpt>
      <trkpt lat="46.41983" lon="5.41365">
        <ele>502.39999389648</ele>
        <time>2021-03-10T15:36:29.000Z</time>
      </trkpt>
      <trkpt lat="46.41981" lon="5.4136">
        <ele>502.60000610352</ele>
        <time>2021-03-10T15:36:30.000Z</time>
      </trkpt>
      <trkpt lat="46.41976" lon="5.41351">
        <ele>503.20001220703</ele>
        <time>2021-03-10T15:36:32.000Z</time>
      </trkpt>
      <trkpt lat="46.41974" lon="5.41347">
        <ele>503.60000610352</ele>
        <time>2021-03-10T15:36:33.000Z</time>
      </trkpt>
      <trkpt lat="46.41972" lon="5.41342">
        <ele>503.79998779297</ele>
        <time>2021-03-10T15:36:34.000Z</time>
      </trkpt>
      <trkpt lat="46.4197" lon="5.41332">
        <ele>504.39999389648</ele>
        <time>2021-03-10T15:36:36.000Z</time>
      </trkpt>
      <trkpt lat="46.41969" lon="5.41326">
        <ele>504.60000610352</ele>
        <time>2021-03-10T15:36:37.000Z</time>
      </trkpt>
      <trkpt lat="46.41967" lon="5.41321">
        <ele>504.79998779297</ele>
        <time>2021-03-10T15:36:38.000Z</time>
      </trkpt>
      <trkpt lat="46.41966" lon="5.41316">
        <ele>505</ele>
        <time>2021-03-10T15:36:39.000Z</time>
      </trkpt>
      <trkpt lat="46.41965" lon="5.41311">
        <ele>505.20001220703</ele>
        <time>2021-03-10T15:36:40.000Z</time>
      </trkpt>
      <trkpt lat="46.41963" lon="5.413">
        <ele>505.79998779297</ele>
        <time>2021-03-10T15:36:42.000Z</time>
      </trkpt>
      <trkpt lat="46.41961" lon="5.41289">
        <ele>506.39999389648</ele>
        <time>2021-03-10T15:36:44.000Z</time>
      </trkpt>
      <trkpt lat="46.41959" lon="5.41277">
        <ele>506.79998779297</ele>
        <time>2021-03-10T15:36:46.000Z</time>
      </trkpt>
      <trkpt lat="46.41957" lon="5.41265">
        <ele>507.20001220703</ele>
        <time>2021-03-10T15:36:48.000Z</time>
      </trkpt>
      <trkpt lat="46.41956" lon="5.41253">
        <ele>507.39999389648</ele>
        <time>2021-03-10T15:36:50.000Z</time>
      </trkpt>
      <trkpt lat="46.41955" lon="5.41242">
        <ele>508</ele>
        <time>2021-03-10T15:36:52.000Z</time>
      </trkpt>
      <trkpt lat="46.41954" lon="5.41229">
        <ele>508.20001220703</ele>
        <time>2021-03-10T15:36:54.000Z</time>
      </trkpt>
      <trkpt lat="46.41953" lon="5.41218">
        <ele>508.60000610352</ele>
        <time>2021-03-10T15:36:56.000Z</time>
      </trkpt>
      <trkpt lat="46.41952" lon="5.41206">
        <ele>509.20001220703</ele>
        <time>2021-03-10T15:36:58.000Z</time>
      </trkpt>
      <trkpt lat="46.41951" lon="5.41195">
        <ele>509.60000610352</ele>
        <time>2021-03-10T15:37:00.000Z</time>
      </trkpt>
      <trkpt lat="46.41951" lon="5.41189">
        <ele>509.60000610352</ele>
        <time>2021-03-10T15:37:01.000Z</time>
      </trkpt>
      <trkpt lat="46.4195" lon="5.41184">
        <ele>509.79998779297</ele>
        <time>2021-03-10T15:37:02.000Z</time>
      </trkpt>
      <trkpt lat="46.4195" lon="5.41178">
        <ele>510.20001220703</ele>
        <time>2021-03-10T15:37:03.000Z</time>
      </trkpt>
      <trkpt lat="46.4195" lon="5.41173">
        <ele>510.39999389648</ele>
        <time>2021-03-10T15:37:04.000Z</time>
      </trkpt>
      <trkpt lat="46.41949" lon="5.41161">
        <ele>511</ele>
        <time>2021-03-10T15:37:06.000Z</time>
      </trkpt>
      <trkpt lat="46.41949" lon="5.41155">
        <ele>511.20001220703</ele>
        <time>2021-03-10T15:37:07.000Z</time>
      </trkpt>
      <trkpt lat="46.41948" lon="5.41149">
        <ele>511.20001220703</ele>
        <time>2021-03-10T15:37:08.000Z</time>
      </trkpt>
      <trkpt lat="46.41948" lon="5.41137">
        <ele>511.39999389648</ele>
        <time>2021-03-10T15:37:10.000Z</time>
      </trkpt>
      <trkpt lat="46.41946" lon="5.41125">
        <ele>511.60000610352</ele>
        <time>2021-03-10T15:37:12.000Z</time>
      </trkpt>
      <trkpt lat="46.41945" lon="5.41113">
        <ele>512</ele>
        <time>2021-03-10T15:37:14.000Z</time>
      </trkpt>
      <trkpt lat="46.41945" lon="5.41107">
        <ele>512.20001220703</ele>
        <time>2021-03-10T15:37:15.000Z</time>
      </trkpt>
      <trkpt lat="46.41945" lon="5.41102">
        <ele>512.40002441406</ele>
        <time>2021-03-10T15:37:16.000Z</time>
      </trkpt>
      <trkpt lat="46.41945" lon="5.4109">
        <ele>513</ele>
        <time>2021-03-10T15:37:18.000Z</time>
      </trkpt>
      <trkpt lat="46.41946" lon="5.41079">
        <ele>513.59997558594</ele>
        <time>2021-03-10T15:37:20.000Z</time>
      </trkpt>
      <trkpt lat="46.41948" lon="5.41067">
        <ele>514</ele>
        <time>2021-03-10T15:37:22.000Z</time>
      </trkpt>
      <trkpt lat="46.4195" lon="5.41061">
        <ele>514.40002441406</ele>
        <time>2021-03-10T15:37:23.000Z</time>
      </trkpt>
      <trkpt lat="46.41952" lon="5.41054">
        <ele>514.59997558594</ele>
        <time>2021-03-10T15:37:24.000Z</time>
      </trkpt>
      <trkpt lat="46.41956" lon="5.41042">
        <ele>514.79998779297</ele>
        <time>2021-03-10T15:37:26.000Z</time>
      </trkpt>
      <trkpt lat="46.41959" lon="5.41037">
        <ele>515</ele>
        <time>2021-03-10T15:37:27.000Z</time>
      </trkpt>
      <trkpt lat="46.41962" lon="5.41032">
        <ele>515.20001220703</ele>
        <time>2021-03-10T15:37:28.000Z</time>
      </trkpt>
      <trkpt lat="46.41969" lon="5.41023">
        <ele>515.40002441406</ele>
        <time>2021-03-10T15:37:30.000Z</time>
      </trkpt>
      <trkpt lat="46.41978" lon="5.41015">
        <ele>515.40002441406</ele>
        <time>2021-03-10T15:37:32.000Z</time>
      </trkpt>
      <trkpt lat="46.41982" lon="5.4101">
        <ele>515.40002441406</ele>
        <time>2021-03-10T15:37:33.000Z</time>
      </trkpt>
      <trkpt lat="46.41986" lon="5.41005">
        <ele>515.59997558594</ele>
        <time>2021-03-10T15:37:34.000Z</time>
      </trkpt>
      <trkpt lat="46.4199" lon="5.41">
        <ele>515.79998779297</ele>
        <time>2021-03-10T15:37:35.000Z</time>
      </trkpt>
      <trkpt lat="46.41994" lon="5.40995">
        <ele>516</ele>
        <time>2021-03-10T15:37:36.000Z</time>
      </trkpt>
      <trkpt lat="46.42002" lon="5.40984">
        <ele>516.20001220703</ele>
        <time>2021-03-10T15:37:38.000Z</time>
      </trkpt>
      <trkpt lat="46.42008" lon="5.40972">
        <ele>516.20001220703</ele>
        <time>2021-03-10T15:37:40.000Z</time>
      </trkpt>
      <trkpt lat="46.42014" lon="5.4096">
        <ele>516.20001220703</ele>
        <time>2021-03-10T15:37:42.000Z</time>
      </trkpt>
      <trkpt lat="46.42016" lon="5.40953">
        <ele>516.20001220703</ele>
        <time>2021-03-10T15:37:43.000Z</time>
      </trkpt>
      <trkpt lat="46.42018" lon="5.40945">
        <ele>516.40002441406</ele>
        <time>2021-03-10T15:37:44.000Z</time>
      </trkpt>
      <trkpt lat="46.4202" lon="5.4093">
        <ele>516.40002441406</ele>
        <time>2021-03-10T15:37:46.000Z</time>
      </trkpt>
      <trkpt lat="46.42021" lon="5.40923">
        <ele>516.59997558594</ele>
        <time>2021-03-10T15:37:47.000Z</time>
      </trkpt>
      <trkpt lat="46.42021" lon="5.40915">
        <ele>516.59997558594</ele>
        <time>2021-03-10T15:37:48.000Z</time>
      </trkpt>
      <trkpt lat="46.42023" lon="5.409">
        <ele>516.79998779297</ele>
        <time>2021-03-10T15:37:50.000Z</time>
      </trkpt>
      <trkpt lat="46.42025" lon="5.40885">
        <ele>517</ele>
        <time>2021-03-10T15:37:52.000Z</time>
      </trkpt>
      <trkpt lat="46.42026" lon="5.40878">
        <ele>517</ele>
        <time>2021-03-10T15:37:53.000Z</time>
      </trkpt>
      <trkpt lat="46.42028" lon="5.40871">
        <ele>517</ele>
        <time>2021-03-10T15:37:54.000Z</time>
      </trkpt>
      <trkpt lat="46.4203" lon="5.40863">
        <ele>517.20001220703</ele>
        <time>2021-03-10T15:37:55.000Z</time>
      </trkpt>
      <trkpt lat="46.4203" lon="5.40863">
        <ele>517.20001220703</ele>
        <time>2021-03-10T15:37:56.000Z</time>
      </trkpt>
      <trkpt lat="46.42037" lon="5.40849">
        <ele>517.40002441406</ele>
        <time>2021-03-10T15:37:57.000Z</time>
      </trkpt>
      <trkpt lat="46.42041" lon="5.40842">
        <ele>517.40002441406</ele>
        <time>2021-03-10T15:37:58.000Z</time>
      </trkpt>
      <trkpt lat="46.42046" lon="5.40835">
        <ele>517.40002441406</ele>
        <time>2021-03-10T15:37:59.000Z</time>
      </trkpt>
      <trkpt lat="46.42051" lon="5.40829">
        <ele>517.40002441406</ele>
        <time>2021-03-10T15:38:00.000Z</time>
      </trkpt>
      <trkpt lat="46.42062" lon="5.40816">
        <ele>517.40002441406</ele>
        <time>2021-03-10T15:38:02.000Z</time>
      </trkpt>
      <trkpt lat="46.42068" lon="5.4081">
        <ele>517.40002441406</ele>
        <time>2021-03-10T15:38:03.000Z</time>
      </trkpt>
      <trkpt lat="46.42075" lon="5.40805">
        <ele>517.40002441406</ele>
        <time>2021-03-10T15:38:04.000Z</time>
      </trkpt>
      <trkpt lat="46.42089" lon="5.40799">
        <ele>517.40002441406</ele>
        <time>2021-03-10T15:38:06.000Z</time>
      </trkpt>
      <trkpt lat="46.42103" lon="5.40798">
        <ele>517</ele>
        <time>2021-03-10T15:38:08.000Z</time>
      </trkpt>
      <trkpt lat="46.42117" lon="5.40799">
        <ele>516.40002441406</ele>
        <time>2021-03-10T15:38:10.000Z</time>
      </trkpt>
      <trkpt lat="46.42125" lon="5.40799">
        <ele>516.20001220703</ele>
        <time>2021-03-10T15:38:11.000Z</time>
      </trkpt>
      <trkpt lat="46.42132" lon="5.40799">
        <ele>515.79998779297</ele>
        <time>2021-03-10T15:38:12.000Z</time>
      </trkpt>
      <trkpt lat="46.42139" lon="5.40798">
        <ele>515.79998779297</ele>
        <time>2021-03-10T15:38:13.000Z</time>
      </trkpt>
      <trkpt lat="46.42146" lon="5.40796">
        <ele>515.59997558594</ele>
        <time>2021-03-10T15:38:14.000Z</time>
      </trkpt>
      <trkpt lat="46.4216" lon="5.40791">
        <ele>515.20001220703</ele>
        <time>2021-03-10T15:38:16.000Z</time>
      </trkpt>
      <trkpt lat="46.42167" lon="5.40787">
        <ele>515</ele>
        <time>2021-03-10T15:38:17.000Z</time>
      </trkpt>
      <trkpt lat="46.42174" lon="5.40782">
        <ele>514.79998779297</ele>
        <time>2021-03-10T15:38:18.000Z</time>
      </trkpt>
      <trkpt lat="46.42181" lon="5.40775">
        <ele>514.59997558594</ele>
        <time>2021-03-10T15:38:19.000Z</time>
      </trkpt>
      <trkpt lat="46.42188" lon="5.40766">
        <ele>514.40002441406</ele>
        <time>2021-03-10T15:38:20.000Z</time>
      </trkpt>
      <trkpt lat="46.42195" lon="5.40758">
        <ele>514.20001220703</ele>
        <time>2021-03-10T15:38:21.000Z</time>
      </trkpt>
      <trkpt lat="46.42202" lon="5.40749">
        <ele>514</ele>
        <time>2021-03-10T15:38:22.000Z</time>
      </trkpt>
      <trkpt lat="46.42218" lon="5.40734">
        <ele>513.20001220703</ele>
        <time>2021-03-10T15:38:24.000Z</time>
      </trkpt>
      <trkpt lat="46.42226" lon="5.40727">
        <ele>512.59997558594</ele>
        <time>2021-03-10T15:38:25.000Z</time>
      </trkpt>
      <trkpt lat="46.42234" lon="5.4072">
        <ele>512.20001220703</ele>
        <time>2021-03-10T15:38:26.000Z</time>
      </trkpt>
      <trkpt lat="46.4225" lon="5.40708">
        <ele>510.60000610352</ele>
        <time>2021-03-10T15:38:28.000Z</time>
      </trkpt>
      <trkpt lat="46.42266" lon="5.40694">
        <ele>508.79998779297</ele>
        <time>2021-03-10T15:38:30.000Z</time>
      </trkpt>
      <trkpt lat="46.42282" lon="5.40678">
        <ele>507.20001220703</ele>
        <time>2021-03-10T15:38:32.000Z</time>
      </trkpt>
      <trkpt lat="46.42289" lon="5.4067">
        <ele>506.60000610352</ele>
        <time>2021-03-10T15:38:33.000Z</time>
      </trkpt>
      <trkpt lat="46.42297" lon="5.4066">
        <ele>506.20001220703</ele>
        <time>2021-03-10T15:38:34.000Z</time>
      </trkpt>
      <trkpt lat="46.42313" lon="5.40642">
        <ele>505.20001220703</ele>
        <time>2021-03-10T15:38:36.000Z</time>
      </trkpt>
      <trkpt lat="46.42321" lon="5.40633">
        <ele>504.79998779297</ele>
        <time>2021-03-10T15:38:37.000Z</time>
      </trkpt>
      <trkpt lat="46.42329" lon="5.40626">
        <ele>504.20001220703</ele>
        <time>2021-03-10T15:38:38.000Z</time>
      </trkpt>
      <trkpt lat="46.42338" lon="5.40618">
        <ele>503.79998779297</ele>
        <time>2021-03-10T15:38:39.000Z</time>
      </trkpt>
      <trkpt lat="46.42347" lon="5.40611">
        <ele>503.39999389648</ele>
        <time>2021-03-10T15:38:40.000Z</time>
      </trkpt>
      <trkpt lat="46.42366" lon="5.40596">
        <ele>502.20001220703</ele>
        <time>2021-03-10T15:38:42.000Z</time>
      </trkpt>
      <trkpt lat="46.42383" lon="5.40581">
        <ele>501</ele>
        <time>2021-03-10T15:38:44.000Z</time>
      </trkpt>
      <trkpt lat="46.42401" lon="5.40566">
        <ele>500</ele>
        <time>2021-03-10T15:38:46.000Z</time>
      </trkpt>
      <trkpt lat="46.4241" lon="5.40558">
        <ele>499.39999389648</ele>
        <time>2021-03-10T15:38:47.000Z</time>
      </trkpt>
      <trkpt lat="46.42419" lon="5.4055">
        <ele>498.39999389648</ele>
        <time>2021-03-10T15:38:48.000Z</time>
      </trkpt>
      <trkpt lat="46.42437" lon="5.40533">
        <ele>496.79998779297</ele>
        <time>2021-03-10T15:38:50.000Z</time>
      </trkpt>
      <trkpt lat="46.42454" lon="5.40513">
        <ele>495.79998779297</ele>
        <time>2021-03-10T15:38:52.000Z</time>
      </trkpt>
      <trkpt lat="46.42462" lon="5.40503">
        <ele>495</ele>
        <time>2021-03-10T15:38:53.000Z</time>
      </trkpt>
      <trkpt lat="46.4247" lon="5.40492">
        <ele>494.60000610352</ele>
        <time>2021-03-10T15:38:54.000Z</time>
      </trkpt>
      <trkpt lat="46.42484" lon="5.40469">
        <ele>493.79998779297</ele>
        <time>2021-03-10T15:38:56.000Z</time>
      </trkpt>
      <trkpt lat="46.42489" lon="5.40456">
        <ele>493.20001220703</ele>
        <time>2021-03-10T15:38:57.000Z</time>
      </trkpt>
      <trkpt lat="46.42492" lon="5.40442">
        <ele>492.60000610352</ele>
        <time>2021-03-10T15:38:58.000Z</time>
      </trkpt>
      <trkpt lat="46.42494" lon="5.40426">
        <ele>492.20001220703</ele>
        <time>2021-03-10T15:38:59.000Z</time>
      </trkpt>
      <trkpt lat="46.42493" lon="5.40411">
        <ele>491.60000610352</ele>
        <time>2021-03-10T15:39:00.000Z</time>
      </trkpt>
      <trkpt lat="46.42491" lon="5.40396">
        <ele>490.39999389648</ele>
        <time>2021-03-10T15:39:01.000Z</time>
      </trkpt>
      <trkpt lat="46.42485" lon="5.40383">
        <ele>489.20001220703</ele>
        <time>2021-03-10T15:39:02.000Z</time>
      </trkpt>
      <trkpt lat="46.42468" lon="5.40363">
        <ele>488.20001220703</ele>
        <time>2021-03-10T15:39:04.000Z</time>
      </trkpt>
      <trkpt lat="46.42458" lon="5.40355">
        <ele>487.79998779297</ele>
        <time>2021-03-10T15:39:05.000Z</time>
      </trkpt>
      <trkpt lat="46.42446" lon="5.40346">
        <ele>487.60000610352</ele>
        <time>2021-03-10T15:39:06.000Z</time>
      </trkpt>
      <trkpt lat="46.42423" lon="5.40327">
        <ele>487.20001220703</ele>
        <time>2021-03-10T15:39:08.000Z</time>
      </trkpt>
      <trkpt lat="46.42412" lon="5.40316">
        <ele>486.79998779297</ele>
        <time>2021-03-10T15:39:09.000Z</time>
      </trkpt>
      <trkpt lat="46.42402" lon="5.40301">
        <ele>485.79998779297</ele>
        <time>2021-03-10T15:39:10.000Z</time>
      </trkpt>
      <trkpt lat="46.42394" lon="5.40285">
        <ele>484.20001220703</ele>
        <time>2021-03-10T15:39:11.000Z</time>
      </trkpt>
      <trkpt lat="46.42389" lon="5.40266">
        <ele>483.20001220703</ele>
        <time>2021-03-10T15:39:12.000Z</time>
      </trkpt>
      <trkpt lat="46.42386" lon="5.40247">
        <ele>481.60000610352</ele>
        <time>2021-03-10T15:39:13.000Z</time>
      </trkpt>
      <trkpt lat="46.42386" lon="5.40227">
        <ele>479.79998779297</ele>
        <time>2021-03-10T15:39:14.000Z</time>
      </trkpt>
      <trkpt lat="46.42386" lon="5.40209">
        <ele>478.20001220703</ele>
        <time>2021-03-10T15:39:15.000Z</time>
      </trkpt>
      <trkpt lat="46.42387" lon="5.4019">
        <ele>476.79998779297</ele>
        <time>2021-03-10T15:39:16.000Z</time>
      </trkpt>
      <trkpt lat="46.42387" lon="5.40172">
        <ele>475.39999389648</ele>
        <time>2021-03-10T15:39:17.000Z</time>
      </trkpt>
      <trkpt lat="46.42388" lon="5.40154">
        <ele>474.20001220703</ele>
        <time>2021-03-10T15:39:18.000Z</time>
      </trkpt>
      <trkpt lat="46.42389" lon="5.40136">
        <ele>473</ele>
        <time>2021-03-10T15:39:19.000Z</time>
      </trkpt>
      <trkpt lat="46.42389" lon="5.40118">
        <ele>472</ele>
        <time>2021-03-10T15:39:20.000Z</time>
      </trkpt>
      <trkpt lat="46.4239" lon="5.40083">
        <ele>469.60000610352</ele>
        <time>2021-03-10T15:39:22.000Z</time>
      </trkpt>
      <trkpt lat="46.42391" lon="5.40048">
        <ele>468.60000610352</ele>
        <time>2021-03-10T15:39:24.000Z</time>
      </trkpt>
      <trkpt lat="46.42391" lon="5.4003">
        <ele>468.20001220703</ele>
        <time>2021-03-10T15:39:25.000Z</time>
      </trkpt>
      <trkpt lat="46.42392" lon="5.40013">
        <ele>468</ele>
        <time>2021-03-10T15:39:26.000Z</time>
      </trkpt>
      <trkpt lat="46.42392" lon="5.39996">
        <ele>467.39999389648</ele>
        <time>2021-03-10T15:39:27.000Z</time>
      </trkpt>
      <trkpt lat="46.42393" lon="5.39979">
        <ele>466.79998779297</ele>
        <time>2021-03-10T15:39:28.000Z</time>
      </trkpt>
      <trkpt lat="46.42393" lon="5.39962">
        <ele>466.20001220703</ele>
        <time>2021-03-10T15:39:29.000Z</time>
      </trkpt>
      <trkpt lat="46.42394" lon="5.39945">
        <ele>465.79998779297</ele>
        <time>2021-03-10T15:39:30.000Z</time>
      </trkpt>
      <trkpt lat="46.42395" lon="5.39913">
        <ele>465</ele>
        <time>2021-03-10T15:39:32.000Z</time>
      </trkpt>
      <trkpt lat="46.42395" lon="5.39883">
        <ele>464.39999389648</ele>
        <time>2021-03-10T15:39:34.000Z</time>
      </trkpt>
      <trkpt lat="46.42396" lon="5.39854">
        <ele>464.39999389648</ele>
        <time>2021-03-10T15:39:36.000Z</time>
      </trkpt>
      <trkpt lat="46.42397" lon="5.39828">
        <ele>464.39999389648</ele>
        <time>2021-03-10T15:39:38.000Z</time>
      </trkpt>
      <trkpt lat="46.42399" lon="5.39806">
        <ele>464.39999389648</ele>
        <time>2021-03-10T15:39:40.000Z</time>
      </trkpt>
      <trkpt lat="46.42403" lon="5.39798">
        <ele>464.39999389648</ele>
        <time>2021-03-10T15:39:41.000Z</time>
      </trkpt>
      <trkpt lat="46.42408" lon="5.39793">
        <ele>464.39999389648</ele>
        <time>2021-03-10T15:39:42.000Z</time>
      </trkpt>
      <trkpt lat="46.42419" lon="5.39791">
        <ele>464.60000610352</ele>
        <time>2021-03-10T15:39:44.000Z</time>
      </trkpt>
      <trkpt lat="46.42431" lon="5.39795">
        <ele>466.20001220703</ele>
        <time>2021-03-10T15:39:46.000Z</time>
      </trkpt>
      <trkpt lat="46.42446" lon="5.39801">
        <ele>467.39999389648</ele>
        <time>2021-03-10T15:39:48.000Z</time>
      </trkpt>
      <trkpt lat="46.4246" lon="5.39813">
        <ele>468.60000610352</ele>
        <time>2021-03-10T15:39:50.000Z</time>
      </trkpt>
      <trkpt lat="46.42466" lon="5.3982">
        <ele>468.60000610352</ele>
        <time>2021-03-10T15:39:51.000Z</time>
      </trkpt>
      <trkpt lat="46.42471" lon="5.39828">
        <ele>468.60000610352</ele>
        <time>2021-03-10T15:39:52.000Z</time>
      </trkpt>
      <trkpt lat="46.42477" lon="5.39836">
        <ele>468.60000610352</ele>
        <time>2021-03-10T15:39:53.000Z</time>
      </trkpt>
      <trkpt lat="46.42483" lon="5.39844">
        <ele>468.79998779297</ele>
        <time>2021-03-10T15:39:54.000Z</time>
      </trkpt>
      <trkpt lat="46.42494" lon="5.3986">
        <ele>469</ele>
        <time>2021-03-10T15:39:56.000Z</time>
      </trkpt>
      <trkpt lat="46.425" lon="5.39868">
        <ele>469</ele>
        <time>2021-03-10T15:39:57.000Z</time>
      </trkpt>
      <trkpt lat="46.42506" lon="5.39875">
        <ele>469.20001220703</ele>
        <time>2021-03-10T15:39:58.000Z</time>
      </trkpt>
      <trkpt lat="46.42513" lon="5.39881">
        <ele>469.20001220703</ele>
        <time>2021-03-10T15:39:59.000Z</time>
      </trkpt>
      <trkpt lat="46.4252" lon="5.39887">
        <ele>469.20001220703</ele>
        <time>2021-03-10T15:40:00.000Z</time>
      </trkpt>
      <trkpt lat="46.42527" lon="5.39892">
        <ele>469.20001220703</ele>
        <time>2021-03-10T15:40:01.000Z</time>
      </trkpt>
      <trkpt lat="46.42534" lon="5.39898">
        <ele>469</ele>
        <time>2021-03-10T15:40:02.000Z</time>
      </trkpt>
      <trkpt lat="46.42548" lon="5.39908">
        <ele>468.79998779297</ele>
        <time>2021-03-10T15:40:04.000Z</time>
      </trkpt>
      <trkpt lat="46.42562" lon="5.39919">
        <ele>468.60000610352</ele>
        <time>2021-03-10T15:40:06.000Z</time>
      </trkpt>
      <trkpt lat="46.42575" lon="5.39929">
        <ele>468.60000610352</ele>
        <time>2021-03-10T15:40:08.000Z</time>
      </trkpt>
      <trkpt lat="46.42588" lon="5.39938">
        <ele>468.60000610352</ele>
        <time>2021-03-10T15:40:10.000Z</time>
      </trkpt>
      <trkpt lat="46.42601" lon="5.39946">
        <ele>468.79998779297</ele>
        <time>2021-03-10T15:40:12.000Z</time>
      </trkpt>
      <trkpt lat="46.42613" lon="5.39952">
        <ele>469</ele>
        <time>2021-03-10T15:40:14.000Z</time>
      </trkpt>
      <trkpt lat="46.42626" lon="5.39957">
        <ele>469</ele>
        <time>2021-03-10T15:40:16.000Z</time>
      </trkpt>
      <trkpt lat="46.42632" lon="5.3996">
        <ele>469</ele>
        <time>2021-03-10T15:40:17.000Z</time>
      </trkpt>
      <trkpt lat="46.42638" lon="5.39962">
        <ele>469.39999389648</ele>
        <time>2021-03-10T15:40:18.000Z</time>
      </trkpt>
      <trkpt lat="46.4265" lon="5.39968">
        <ele>469.60000610352</ele>
        <time>2021-03-10T15:40:20.000Z</time>
      </trkpt>
      <trkpt lat="46.42663" lon="5.39974">
        <ele>470</ele>
        <time>2021-03-10T15:40:22.000Z</time>
      </trkpt>
      <trkpt lat="46.42675" lon="5.39981">
        <ele>470.39999389648</ele>
        <time>2021-03-10T15:40:24.000Z</time>
      </trkpt>
      <trkpt lat="46.42689" lon="5.39987">
        <ele>470.60000610352</ele>
        <time>2021-03-10T15:40:26.000Z</time>
      </trkpt>
      <trkpt lat="46.42702" lon="5.39993">
        <ele>470.60000610352</ele>
        <time>2021-03-10T15:40:28.000Z</time>
      </trkpt>
      <trkpt lat="46.42715" lon="5.39999">
        <ele>470.79998779297</ele>
        <time>2021-03-10T15:40:30.000Z</time>
      </trkpt>
      <trkpt lat="46.42729" lon="5.40004">
        <ele>470.79998779297</ele>
        <time>2021-03-10T15:40:32.000Z</time>
      </trkpt>
      <trkpt lat="46.42742" lon="5.40009">
        <ele>470.79998779297</ele>
        <time>2021-03-10T15:40:34.000Z</time>
      </trkpt>
      <trkpt lat="46.42749" lon="5.40012">
        <ele>470.79998779297</ele>
        <time>2021-03-10T15:40:35.000Z</time>
      </trkpt>
      <trkpt lat="46.42755" lon="5.40014">
        <ele>470.79998779297</ele>
        <time>2021-03-10T15:40:36.000Z</time>
      </trkpt>
      <trkpt lat="46.42768" lon="5.4002">
        <ele>471</ele>
        <time>2021-03-10T15:40:38.000Z</time>
      </trkpt>
      <trkpt lat="46.42781" lon="5.40025">
        <ele>471.20001220703</ele>
        <time>2021-03-10T15:40:40.000Z</time>
      </trkpt>
      <trkpt lat="46.42794" lon="5.4003">
        <ele>471.39999389648</ele>
        <time>2021-03-10T15:40:42.000Z</time>
      </trkpt>
      <trkpt lat="46.42808" lon="5.40036">
        <ele>471.60000610352</ele>
        <time>2021-03-10T15:40:44.000Z</time>
      </trkpt>
      <trkpt lat="46.42816" lon="5.40038">
        <ele>471.60000610352</ele>
        <time>2021-03-10T15:40:45.000Z</time>
      </trkpt>
      <trkpt lat="46.42823" lon="5.40041">
        <ele>471.60000610352</ele>
        <time>2021-03-10T15:40:46.000Z</time>
      </trkpt>
      <trkpt lat="46.42839" lon="5.40046">
        <ele>471.60000610352</ele>
        <time>2021-03-10T15:40:48.000Z</time>
      </trkpt>
      <trkpt lat="46.42854" lon="5.4005">
        <ele>471.60000610352</ele>
        <time>2021-03-10T15:40:50.000Z</time>
      </trkpt>
      <trkpt lat="46.42869" lon="5.40054">
        <ele>471.39999389648</ele>
        <time>2021-03-10T15:40:52.000Z</time>
      </trkpt>
      <trkpt lat="46.42884" lon="5.40057">
        <ele>471.20001220703</ele>
        <time>2021-03-10T15:40:54.000Z</time>
      </trkpt>
      <trkpt lat="46.42898" lon="5.40058">
        <ele>471</ele>
        <time>2021-03-10T15:40:56.000Z</time>
      </trkpt>
      <trkpt lat="46.42913" lon="5.40059">
        <ele>471</ele>
        <time>2021-03-10T15:40:58.000Z</time>
      </trkpt>
      <trkpt lat="46.42927" lon="5.4006">
        <ele>471</ele>
        <time>2021-03-10T15:41:00.000Z</time>
      </trkpt>
      <trkpt lat="46.42933" lon="5.4006">
        <ele>471</ele>
        <time>2021-03-10T15:41:01.000Z</time>
      </trkpt>
      <trkpt lat="46.4294" lon="5.40061">
        <ele>471</ele>
        <time>2021-03-10T15:41:02.000Z</time>
      </trkpt>
      <trkpt lat="46.42953" lon="5.40063">
        <ele>471.20001220703</ele>
        <time>2021-03-10T15:41:04.000Z</time>
      </trkpt>
      <trkpt lat="46.42966" lon="5.40065">
        <ele>471.79998779297</ele>
        <time>2021-03-10T15:41:06.000Z</time>
      </trkpt>
      <trkpt lat="46.42973" lon="5.40067">
        <ele>472</ele>
        <time>2021-03-10T15:41:07.000Z</time>
      </trkpt>
      <trkpt lat="46.42979" lon="5.40068">
        <ele>472.20001220703</ele>
        <time>2021-03-10T15:41:08.000Z</time>
      </trkpt>
      <trkpt lat="46.42992" lon="5.4007">
        <ele>472.79998779297</ele>
        <time>2021-03-10T15:41:10.000Z</time>
      </trkpt>
      <trkpt lat="46.42999" lon="5.40071">
        <ele>473</ele>
        <time>2021-03-10T15:41:11.000Z</time>
      </trkpt>
      <trkpt lat="46.43005" lon="5.40073">
        <ele>473.39999389648</ele>
        <time>2021-03-10T15:41:12.000Z</time>
      </trkpt>
      <trkpt lat="46.43018" lon="5.40075">
        <ele>473.79998779297</ele>
        <time>2021-03-10T15:41:14.000Z</time>
      </trkpt>
      <trkpt lat="46.4303" lon="5.40077">
        <ele>473.79998779297</ele>
        <time>2021-03-10T15:41:16.000Z</time>
      </trkpt>
      <trkpt lat="46.43036" lon="5.40078">
        <ele>474</ele>
        <time>2021-03-10T15:41:17.000Z</time>
      </trkpt>
      <trkpt lat="46.43042" lon="5.40078">
        <ele>474</ele>
        <time>2021-03-10T15:41:18.000Z</time>
      </trkpt>
      <trkpt lat="46.43054" lon="5.40078">
        <ele>474</ele>
        <time>2021-03-10T15:41:20.000Z</time>
      </trkpt>
      <trkpt lat="46.43067" lon="5.40078">
        <ele>474</ele>
        <time>2021-03-10T15:41:22.000Z</time>
      </trkpt>
      <trkpt lat="46.4308" lon="5.40079">
        <ele>474</ele>
        <time>2021-03-10T15:41:24.000Z</time>
      </trkpt>
      <trkpt lat="46.43094" lon="5.40082">
        <ele>474</ele>
        <time>2021-03-10T15:41:26.000Z</time>
      </trkpt>
      <trkpt lat="46.4311" lon="5.40086">
        <ele>473.79998779297</ele>
        <time>2021-03-10T15:41:28.000Z</time>
      </trkpt>
      <trkpt lat="46.43118" lon="5.40088">
        <ele>473.79998779297</ele>
        <time>2021-03-10T15:41:29.000Z</time>
      </trkpt>
      <trkpt lat="46.43126" lon="5.4009">
        <ele>473.79998779297</ele>
        <time>2021-03-10T15:41:30.000Z</time>
      </trkpt>
      <trkpt lat="46.43143" lon="5.40092">
        <ele>473.79998779297</ele>
        <time>2021-03-10T15:41:32.000Z</time>
      </trkpt>
      <trkpt lat="46.43158" lon="5.40094">
        <ele>473.39999389648</ele>
        <time>2021-03-10T15:41:34.000Z</time>
      </trkpt>
      <trkpt lat="46.43174" lon="5.40097">
        <ele>472.39999389648</ele>
        <time>2021-03-10T15:41:36.000Z</time>
      </trkpt>
      <trkpt lat="46.43181" lon="5.40099">
        <ele>472</ele>
        <time>2021-03-10T15:41:37.000Z</time>
      </trkpt>
      <trkpt lat="46.43188" lon="5.40102">
        <ele>471.79998779297</ele>
        <time>2021-03-10T15:41:38.000Z</time>
      </trkpt>
      <trkpt lat="46.43203" lon="5.4011">
        <ele>471.39999389648</ele>
        <time>2021-03-10T15:41:40.000Z</time>
      </trkpt>
      <trkpt lat="46.4321" lon="5.40114">
        <ele>471.39999389648</ele>
        <time>2021-03-10T15:41:41.000Z</time>
      </trkpt>
      <trkpt lat="46.43218" lon="5.40118">
        <ele>471.39999389648</ele>
        <time>2021-03-10T15:41:42.000Z</time>
      </trkpt>
      <trkpt lat="46.43225" lon="5.40121">
        <ele>471.20001220703</ele>
        <time>2021-03-10T15:41:43.000Z</time>
      </trkpt>
      <trkpt lat="46.43233" lon="5.40123">
        <ele>471.20001220703</ele>
        <time>2021-03-10T15:41:44.000Z</time>
      </trkpt>
      <trkpt lat="46.43241" lon="5.40124">
        <ele>471.20001220703</ele>
        <time>2021-03-10T15:41:45.000Z</time>
      </trkpt>
      <trkpt lat="46.43248" lon="5.40124">
        <ele>471</ele>
        <time>2021-03-10T15:41:46.000Z</time>
      </trkpt>
      <trkpt lat="46.43256" lon="5.40124">
        <ele>471</ele>
        <time>2021-03-10T15:41:47.000Z</time>
      </trkpt>
      <trkpt lat="46.43264" lon="5.40123">
        <ele>471</ele>
        <time>2021-03-10T15:41:48.000Z</time>
      </trkpt>
      <trkpt lat="46.43279" lon="5.40121">
        <ele>471</ele>
        <time>2021-03-10T15:41:50.000Z</time>
      </trkpt>
      <trkpt lat="46.43294" lon="5.40119">
        <ele>471</ele>
        <time>2021-03-10T15:41:52.000Z</time>
      </trkpt>
      <trkpt lat="46.4331" lon="5.40119">
        <ele>471</ele>
        <time>2021-03-10T15:41:54.000Z</time>
      </trkpt>
      <trkpt lat="46.43318" lon="5.40119">
        <ele>471</ele>
        <time>2021-03-10T15:41:55.000Z</time>
      </trkpt>
      <trkpt lat="46.43326" lon="5.40119">
        <ele>470.79998779297</ele>
        <time>2021-03-10T15:41:56.000Z</time>
      </trkpt>
      <trkpt lat="46.43334" lon="5.40119">
        <ele>470.79998779297</ele>
        <time>2021-03-10T15:41:57.000Z</time>
      </trkpt>
      <trkpt lat="46.43342" lon="5.40119">
        <ele>470.79998779297</ele>
        <time>2021-03-10T15:41:58.000Z</time>
      </trkpt>
      <trkpt lat="46.43358" lon="5.4012">
        <ele>470.79998779297</ele>
        <time>2021-03-10T15:42:00.000Z</time>
      </trkpt>
      <trkpt lat="46.43373" lon="5.40122">
        <ele>470.79998779297</ele>
        <time>2021-03-10T15:42:02.000Z</time>
      </trkpt>
      <trkpt lat="46.4338" lon="5.40125">
        <ele>470.79998779297</ele>
        <time>2021-03-10T15:42:03.000Z</time>
      </trkpt>
      <trkpt lat="46.43388" lon="5.40127">
        <ele>470.60000610352</ele>
        <time>2021-03-10T15:42:04.000Z</time>
      </trkpt>
      <trkpt lat="46.43404" lon="5.40133">
        <ele>470.60000610352</ele>
        <time>2021-03-10T15:42:06.000Z</time>
      </trkpt>
      <trkpt lat="46.4342" lon="5.40138">
        <ele>470.39999389648</ele>
        <time>2021-03-10T15:42:08.000Z</time>
      </trkpt>
      <trkpt lat="46.43435" lon="5.40145">
        <ele>470.20001220703</ele>
        <time>2021-03-10T15:42:10.000Z</time>
      </trkpt>
      <trkpt lat="46.43443" lon="5.40148">
        <ele>470.20001220703</ele>
        <time>2021-03-10T15:42:11.000Z</time>
      </trkpt>
      <trkpt lat="46.4345" lon="5.40151">
        <ele>470.20001220703</ele>
        <time>2021-03-10T15:42:12.000Z</time>
      </trkpt>
      <trkpt lat="46.43464" lon="5.40158">
        <ele>470.20001220703</ele>
        <time>2021-03-10T15:42:14.000Z</time>
      </trkpt>
      <trkpt lat="46.43478" lon="5.40166">
        <ele>470.60000610352</ele>
        <time>2021-03-10T15:42:16.000Z</time>
      </trkpt>
      <trkpt lat="46.43492" lon="5.40172">
        <ele>470.60000610352</ele>
        <time>2021-03-10T15:42:18.000Z</time>
      </trkpt>
      <trkpt lat="46.43506" lon="5.40174">
        <ele>470.79998779297</ele>
        <time>2021-03-10T15:42:20.000Z</time>
      </trkpt>
      <trkpt lat="46.4352" lon="5.40175">
        <ele>471</ele>
        <time>2021-03-10T15:42:22.000Z</time>
      </trkpt>
      <trkpt lat="46.43534" lon="5.40176">
        <ele>471.20001220703</ele>
        <time>2021-03-10T15:42:24.000Z</time>
      </trkpt>
      <trkpt lat="46.43548" lon="5.40178">
        <ele>471.39999389648</ele>
        <time>2021-03-10T15:42:26.000Z</time>
      </trkpt>
      <trkpt lat="46.43562" lon="5.40181">
        <ele>471.60000610352</ele>
        <time>2021-03-10T15:42:28.000Z</time>
      </trkpt>
      <trkpt lat="46.43577" lon="5.40184">
        <ele>471.60000610352</ele>
        <time>2021-03-10T15:42:30.000Z</time>
      </trkpt>
      <trkpt lat="46.43584" lon="5.40186">
        <ele>471.79998779297</ele>
        <time>2021-03-10T15:42:31.000Z</time>
      </trkpt>
      <trkpt lat="46.43592" lon="5.40188">
        <ele>471.79998779297</ele>
        <time>2021-03-10T15:42:32.000Z</time>
      </trkpt>
      <trkpt lat="46.43606" lon="5.40191">
        <ele>471.79998779297</ele>
        <time>2021-03-10T15:42:34.000Z</time>
      </trkpt>
      <trkpt lat="46.43621" lon="5.40191">
        <ele>471.79998779297</ele>
        <time>2021-03-10T15:42:36.000Z</time>
      </trkpt>
      <trkpt lat="46.43627" lon="5.40191">
        <ele>471.79998779297</ele>
        <time>2021-03-10T15:42:37.000Z</time>
      </trkpt>
      <trkpt lat="46.43634" lon="5.4019">
        <ele>471.79998779297</ele>
        <time>2021-03-10T15:42:38.000Z</time>
      </trkpt>
      <trkpt lat="46.43647" lon="5.40189">
        <ele>472</ele>
        <time>2021-03-10T15:42:40.000Z</time>
      </trkpt>
      <trkpt lat="46.43659" lon="5.40187">
        <ele>472</ele>
        <time>2021-03-10T15:42:42.000Z</time>
      </trkpt>
      <trkpt lat="46.43672" lon="5.40185">
        <ele>472</ele>
        <time>2021-03-10T15:42:44.000Z</time>
      </trkpt>
      <trkpt lat="46.43685" lon="5.40183">
        <ele>472</ele>
        <time>2021-03-10T15:42:46.000Z</time>
      </trkpt>
      <trkpt lat="46.43691" lon="5.40183">
        <ele>472.20001220703</ele>
        <time>2021-03-10T15:42:47.000Z</time>
      </trkpt>
      <trkpt lat="46.43698" lon="5.40182">
        <ele>472.39999389648</ele>
        <time>2021-03-10T15:42:48.000Z</time>
      </trkpt>
      <trkpt lat="46.4371" lon="5.4018">
        <ele>472.79998779297</ele>
        <time>2021-03-10T15:42:50.000Z</time>
      </trkpt>
      <trkpt lat="46.43722" lon="5.40178">
        <ele>473</ele>
        <time>2021-03-10T15:42:52.000Z</time>
      </trkpt>
      <trkpt lat="46.43734" lon="5.40175">
        <ele>473.20001220703</ele>
        <time>2021-03-10T15:42:54.000Z</time>
      </trkpt>
      <trkpt lat="46.43741" lon="5.40174">
        <ele>473.20001220703</ele>
        <time>2021-03-10T15:42:55.000Z</time>
      </trkpt>
      <trkpt lat="46.43748" lon="5.40173">
        <ele>473.39999389648</ele>
        <time>2021-03-10T15:42:56.000Z</time>
      </trkpt>
      <trkpt lat="46.43763" lon="5.4017">
        <ele>473.39999389648</ele>
        <time>2021-03-10T15:42:58.000Z</time>
      </trkpt>
      <trkpt lat="46.4377" lon="5.40168">
        <ele>473.39999389648</ele>
        <time>2021-03-10T15:42:59.000Z</time>
      </trkpt>
      <trkpt lat="46.43778" lon="5.40165">
        <ele>473.39999389648</ele>
        <time>2021-03-10T15:43:00.000Z</time>
      </trkpt>
      <trkpt lat="46.43792" lon="5.4016">
        <ele>473.39999389648</ele>
        <time>2021-03-10T15:43:02.000Z</time>
      </trkpt>
      <trkpt lat="46.43805" lon="5.40156">
        <ele>473.79998779297</ele>
        <time>2021-03-10T15:43:04.000Z</time>
      </trkpt>
      <trkpt lat="46.43817" lon="5.40151">
        <ele>474</ele>
        <time>2021-03-10T15:43:06.000Z</time>
      </trkpt>
      <trkpt lat="46.43824" lon="5.40149">
        <ele>474.39999389648</ele>
        <time>2021-03-10T15:43:07.000Z</time>
      </trkpt>
      <trkpt lat="46.4383" lon="5.40147">
        <ele>474.39999389648</ele>
        <time>2021-03-10T15:43:08.000Z</time>
      </trkpt>
      <trkpt lat="46.43845" lon="5.40143">
        <ele>474.20001220703</ele>
        <time>2021-03-10T15:43:10.000Z</time>
      </trkpt>
      <trkpt lat="46.4386" lon="5.40137">
        <ele>474</ele>
        <time>2021-03-10T15:43:12.000Z</time>
      </trkpt>
      <trkpt lat="46.43868" lon="5.40133">
        <ele>474</ele>
        <time>2021-03-10T15:43:13.000Z</time>
      </trkpt>
      <trkpt lat="46.43876" lon="5.40128">
        <ele>473.79998779297</ele>
        <time>2021-03-10T15:43:14.000Z</time>
      </trkpt>
      <trkpt lat="46.4389" lon="5.40116">
        <ele>473.60000610352</ele>
        <time>2021-03-10T15:43:16.000Z</time>
      </trkpt>
      <trkpt lat="46.43903" lon="5.40104">
        <ele>473.60000610352</ele>
        <time>2021-03-10T15:43:18.000Z</time>
      </trkpt>
      <trkpt lat="46.4391" lon="5.40099">
        <ele>473.39999389648</ele>
        <time>2021-03-10T15:43:19.000Z</time>
      </trkpt>
      <trkpt lat="46.43916" lon="5.40095">
        <ele>473.60000610352</ele>
        <time>2021-03-10T15:43:20.000Z</time>
      </trkpt>
      <trkpt lat="46.43923" lon="5.40092">
        <ele>473.39999389648</ele>
        <time>2021-03-10T15:43:21.000Z</time>
      </trkpt>
      <trkpt lat="46.43931" lon="5.40089">
        <ele>473.39999389648</ele>
        <time>2021-03-10T15:43:22.000Z</time>
      </trkpt>
      <trkpt lat="46.43946" lon="5.40088">
        <ele>473.20001220703</ele>
        <time>2021-03-10T15:43:24.000Z</time>
      </trkpt>
      <trkpt lat="46.43955" lon="5.40088">
        <ele>473.20001220703</ele>
        <time>2021-03-10T15:43:25.000Z</time>
      </trkpt>
      <trkpt lat="46.43963" lon="5.40089">
        <ele>473</ele>
        <time>2021-03-10T15:43:26.000Z</time>
      </trkpt>
      <trkpt lat="46.4398" lon="5.40088">
        <ele>472.60000610352</ele>
        <time>2021-03-10T15:43:28.000Z</time>
      </trkpt>
      <trkpt lat="46.43996" lon="5.40086">
        <ele>472.39999389648</ele>
        <time>2021-03-10T15:43:30.000Z</time>
      </trkpt>
      <trkpt lat="46.44012" lon="5.40083">
        <ele>472.39999389648</ele>
        <time>2021-03-10T15:43:32.000Z</time>
      </trkpt>
      <trkpt lat="46.44027" lon="5.4008">
        <ele>472.39999389648</ele>
        <time>2021-03-10T15:43:34.000Z</time>
      </trkpt>
      <trkpt lat="46.44041" lon="5.40076">
        <ele>472.60000610352</ele>
        <time>2021-03-10T15:43:36.000Z</time>
      </trkpt>
      <trkpt lat="46.44048" lon="5.40074">
        <ele>472.60000610352</ele>
        <time>2021-03-10T15:43:37.000Z</time>
      </trkpt>
      <trkpt lat="46.44055" lon="5.40072">
        <ele>472.60000610352</ele>
        <time>2021-03-10T15:43:38.000Z</time>
      </trkpt>
      <trkpt lat="46.44069" lon="5.40068">
        <ele>472.60000610352</ele>
        <time>2021-03-10T15:43:40.000Z</time>
      </trkpt>
      <trkpt lat="46.44084" lon="5.40064">
        <ele>472.79998779297</ele>
        <time>2021-03-10T15:43:42.000Z</time>
      </trkpt>
      <trkpt lat="46.44098" lon="5.40062">
        <ele>473.20001220703</ele>
        <time>2021-03-10T15:43:44.000Z</time>
      </trkpt>
      <trkpt lat="46.44105" lon="5.4006">
        <ele>473.39999389648</ele>
        <time>2021-03-10T15:43:45.000Z</time>
      </trkpt>
      <trkpt lat="46.44112" lon="5.40058">
        <ele>473.39999389648</ele>
        <time>2021-03-10T15:43:46.000Z</time>
      </trkpt>
      <trkpt lat="46.44119" lon="5.40055">
        <ele>473.39999389648</ele>
        <time>2021-03-10T15:43:47.000Z</time>
      </trkpt>
      <trkpt lat="46.44126" lon="5.40052">
        <ele>473.60000610352</ele>
        <time>2021-03-10T15:43:48.000Z</time>
      </trkpt>
      <trkpt lat="46.44138" lon="5.40045">
        <ele>473.79998779297</ele>
        <time>2021-03-10T15:43:50.000Z</time>
      </trkpt>
      <trkpt lat="46.44149" lon="5.40035">
        <ele>473.79998779297</ele>
        <time>2021-03-10T15:43:52.000Z</time>
      </trkpt>
      <trkpt lat="46.4416" lon="5.40025">
        <ele>474</ele>
        <time>2021-03-10T15:43:54.000Z</time>
      </trkpt>
      <trkpt lat="46.4417" lon="5.40015">
        <ele>474</ele>
        <time>2021-03-10T15:43:56.000Z</time>
      </trkpt>
      <trkpt lat="46.44181" lon="5.40006">
        <ele>474.20001220703</ele>
        <time>2021-03-10T15:43:58.000Z</time>
      </trkpt>
      <trkpt lat="46.44191" lon="5.39997">
        <ele>474.60000610352</ele>
        <time>2021-03-10T15:44:00.000Z</time>
      </trkpt>
      <trkpt lat="46.44202" lon="5.39987">
        <ele>475</ele>
        <time>2021-03-10T15:44:02.000Z</time>
      </trkpt>
      <trkpt lat="46.44213" lon="5.39977">
        <ele>475.20001220703</ele>
        <time>2021-03-10T15:44:04.000Z</time>
      </trkpt>
      <trkpt lat="46.44226" lon="5.39968">
        <ele>475.20001220703</ele>
        <time>2021-03-10T15:44:06.000Z</time>
      </trkpt>
      <trkpt lat="46.44232" lon="5.39964">
        <ele>475.20001220703</ele>
        <time>2021-03-10T15:44:07.000Z</time>
      </trkpt>
      <trkpt lat="46.44239" lon="5.39961">
        <ele>475.20001220703</ele>
        <time>2021-03-10T15:44:08.000Z</time>
      </trkpt>
      <trkpt lat="46.44254" lon="5.39958">
        <ele>475.20001220703</ele>
        <time>2021-03-10T15:44:10.000Z</time>
      </trkpt>
      <trkpt lat="46.44261" lon="5.39958">
        <ele>475.20001220703</ele>
        <time>2021-03-10T15:44:11.000Z</time>
      </trkpt>
      <trkpt lat="46.44268" lon="5.39958">
        <ele>475</ele>
        <time>2021-03-10T15:44:12.000Z</time>
      </trkpt>
      <trkpt lat="46.44281" lon="5.39958">
        <ele>475</ele>
        <time>2021-03-10T15:44:14.000Z</time>
      </trkpt>
      <trkpt lat="46.44286" lon="5.39958">
        <ele>475</ele>
        <time>2021-03-10T15:44:15.000Z</time>
      </trkpt>
      <trkpt lat="46.44292" lon="5.39958">
        <ele>475</ele>
        <time>2021-03-10T15:44:16.000Z</time>
      </trkpt>
      <trkpt lat="46.44302" lon="5.39958">
        <ele>475</ele>
        <time>2021-03-10T15:44:18.000Z</time>
      </trkpt>
      <trkpt lat="46.44313" lon="5.39958">
        <ele>475</ele>
        <time>2021-03-10T15:44:20.000Z</time>
      </trkpt>
      <trkpt lat="46.44319" lon="5.39959">
        <ele>475</ele>
        <time>2021-03-10T15:44:21.000Z</time>
      </trkpt>
      <trkpt lat="46.44325" lon="5.39958">
        <ele>475.20001220703</ele>
        <time>2021-03-10T15:44:22.000Z</time>
      </trkpt>
      <trkpt lat="46.44336" lon="5.39958">
        <ele>475.79998779297</ele>
        <time>2021-03-10T15:44:24.000Z</time>
      </trkpt>
      <trkpt lat="46.44347" lon="5.39958">
        <ele>476.60000610352</ele>
        <time>2021-03-10T15:44:26.000Z</time>
      </trkpt>
      <trkpt lat="46.44353" lon="5.39958">
        <ele>476.79998779297</ele>
        <time>2021-03-10T15:44:27.000Z</time>
      </trkpt>
      <trkpt lat="46.44358" lon="5.39958">
        <ele>477.60000610352</ele>
        <time>2021-03-10T15:44:28.000Z</time>
      </trkpt>
      <trkpt lat="46.4437" lon="5.39957">
        <ele>478.39999389648</ele>
        <time>2021-03-10T15:44:30.000Z</time>
      </trkpt>
      <trkpt lat="46.44377" lon="5.39956">
        <ele>478.60000610352</ele>
        <time>2021-03-10T15:44:31.000Z</time>
      </trkpt>
      <trkpt lat="46.44383" lon="5.39956">
        <ele>478.79998779297</ele>
        <time>2021-03-10T15:44:32.000Z</time>
      </trkpt>
      <trkpt lat="46.44397" lon="5.39956">
        <ele>479.20001220703</ele>
        <time>2021-03-10T15:44:34.000Z</time>
      </trkpt>
      <trkpt lat="46.44412" lon="5.39954">
        <ele>479.20001220703</ele>
        <time>2021-03-10T15:44:36.000Z</time>
      </trkpt>
      <trkpt lat="46.44428" lon="5.39951">
        <ele>479.39999389648</ele>
        <time>2021-03-10T15:44:38.000Z</time>
      </trkpt>
      <trkpt lat="46.44444" lon="5.39945">
        <ele>479.39999389648</ele>
        <time>2021-03-10T15:44:40.000Z</time>
      </trkpt>
      <trkpt lat="46.44451" lon="5.39941">
        <ele>479.39999389648</ele>
        <time>2021-03-10T15:44:41.000Z</time>
      </trkpt>
      <trkpt lat="46.44458" lon="5.39938">
        <ele>479</ele>
        <time>2021-03-10T15:44:42.000Z</time>
      </trkpt>
      <trkpt lat="46.44471" lon="5.39931">
        <ele>478.60000610352</ele>
        <time>2021-03-10T15:44:44.000Z</time>
      </trkpt>
      <trkpt lat="46.44484" lon="5.39925">
        <ele>478.60000610352</ele>
        <time>2021-03-10T15:44:46.000Z</time>
      </trkpt>
      <trkpt lat="46.44497" lon="5.39918">
        <ele>478.60000610352</ele>
        <time>2021-03-10T15:44:48.000Z</time>
      </trkpt>
      <trkpt lat="46.44503" lon="5.39915">
        <ele>478.60000610352</ele>
        <time>2021-03-10T15:44:49.000Z</time>
      </trkpt>
      <trkpt lat="46.44509" lon="5.39912">
        <ele>478.60000610352</ele>
        <time>2021-03-10T15:44:50.000Z</time>
      </trkpt>
      <trkpt lat="46.44521" lon="5.39907">
        <ele>478.60000610352</ele>
        <time>2021-03-10T15:44:52.000Z</time>
      </trkpt>
      <trkpt lat="46.44533" lon="5.39901">
        <ele>478.79998779297</ele>
        <time>2021-03-10T15:44:54.000Z</time>
      </trkpt>
      <trkpt lat="46.44545" lon="5.39895">
        <ele>479.20001220703</ele>
        <time>2021-03-10T15:44:56.000Z</time>
      </trkpt>
      <trkpt lat="46.44552" lon="5.39893">
        <ele>479.39999389648</ele>
        <time>2021-03-10T15:44:57.000Z</time>
      </trkpt>
      <trkpt lat="46.44559" lon="5.3989">
        <ele>479.60000610352</ele>
        <time>2021-03-10T15:44:58.000Z</time>
      </trkpt>
      <trkpt lat="46.44572" lon="5.39883">
        <ele>479.60000610352</ele>
        <time>2021-03-10T15:45:00.000Z</time>
      </trkpt>
      <trkpt lat="46.44584" lon="5.39874">
        <ele>479.79998779297</ele>
        <time>2021-03-10T15:45:02.000Z</time>
      </trkpt>
      <trkpt lat="46.4459" lon="5.39869">
        <ele>479.79998779297</ele>
        <time>2021-03-10T15:45:03.000Z</time>
      </trkpt>
      <trkpt lat="46.44595" lon="5.39863">
        <ele>480</ele>
        <time>2021-03-10T15:45:04.000Z</time>
      </trkpt>
      <trkpt lat="46.44605" lon="5.39852">
        <ele>480.20001220703</ele>
        <time>2021-03-10T15:45:06.000Z</time>
      </trkpt>
      <trkpt lat="46.44615" lon="5.3984">
        <ele>480.20001220703</ele>
        <time>2021-03-10T15:45:08.000Z</time>
      </trkpt>
      <trkpt lat="46.4462" lon="5.39834">
        <ele>480.39999389648</ele>
        <time>2021-03-10T15:45:09.000Z</time>
      </trkpt>
      <trkpt lat="46.44625" lon="5.39827">
        <ele>480.39999389648</ele>
        <time>2021-03-10T15:45:10.000Z</time>
      </trkpt>
      <trkpt lat="46.44638" lon="5.39815">
        <ele>480.39999389648</ele>
        <time>2021-03-10T15:45:12.000Z</time>
      </trkpt>
      <trkpt lat="46.44646" lon="5.3981">
        <ele>480.39999389648</ele>
        <time>2021-03-10T15:45:13.000Z</time>
      </trkpt>
      <trkpt lat="46.44654" lon="5.39805">
        <ele>480.20001220703</ele>
        <time>2021-03-10T15:45:14.000Z</time>
      </trkpt>
      <trkpt lat="46.44671" lon="5.39801">
        <ele>480</ele>
        <time>2021-03-10T15:45:16.000Z</time>
      </trkpt>
      <trkpt lat="46.44689" lon="5.39801">
        <ele>480</ele>
        <time>2021-03-10T15:45:18.000Z</time>
      </trkpt>
      <trkpt lat="46.44706" lon="5.39801">
        <ele>479.79998779297</ele>
        <time>2021-03-10T15:45:20.000Z</time>
      </trkpt>
      <trkpt lat="46.44713" lon="5.39802">
        <ele>479.60000610352</ele>
        <time>2021-03-10T15:45:21.000Z</time>
      </trkpt>
      <trkpt lat="46.4472" lon="5.39802">
        <ele>479.39999389648</ele>
        <time>2021-03-10T15:45:22.000Z</time>
      </trkpt>
      <trkpt lat="46.44734" lon="5.39803">
        <ele>479.20001220703</ele>
        <time>2021-03-10T15:45:24.000Z</time>
      </trkpt>
      <trkpt lat="46.44747" lon="5.39804">
        <ele>479.20001220703</ele>
        <time>2021-03-10T15:45:26.000Z</time>
      </trkpt>
      <trkpt lat="46.44753" lon="5.39805">
        <ele>479.20001220703</ele>
        <time>2021-03-10T15:45:27.000Z</time>
      </trkpt>
      <trkpt lat="46.4476" lon="5.39805">
        <ele>479.20001220703</ele>
        <time>2021-03-10T15:45:28.000Z</time>
      </trkpt>
      <trkpt lat="46.44773" lon="5.39806">
        <ele>479.39999389648</ele>
        <time>2021-03-10T15:45:30.000Z</time>
      </trkpt>
      <trkpt lat="46.44786" lon="5.39805">
        <ele>480</ele>
        <time>2021-03-10T15:45:32.000Z</time>
      </trkpt>
      <trkpt lat="46.44793" lon="5.39804">
        <ele>480.39999389648</ele>
        <time>2021-03-10T15:45:33.000Z</time>
      </trkpt>
      <trkpt lat="46.44799" lon="5.39802">
        <ele>480.79998779297</ele>
        <time>2021-03-10T15:45:34.000Z</time>
      </trkpt>
      <trkpt lat="46.44812" lon="5.39796">
        <ele>481.60000610352</ele>
        <time>2021-03-10T15:45:36.000Z</time>
      </trkpt>
      <trkpt lat="46.44825" lon="5.39786">
        <ele>481.60000610352</ele>
        <time>2021-03-10T15:45:38.000Z</time>
      </trkpt>
      <trkpt lat="46.44839" lon="5.39776">
        <ele>481.60000610352</ele>
        <time>2021-03-10T15:45:40.000Z</time>
      </trkpt>
      <trkpt lat="46.44853" lon="5.39767">
        <ele>481.79998779297</ele>
        <time>2021-03-10T15:45:42.000Z</time>
      </trkpt>
      <trkpt lat="46.44861" lon="5.39764">
        <ele>481.79998779297</ele>
        <time>2021-03-10T15:45:43.000Z</time>
      </trkpt>
      <trkpt lat="46.44868" lon="5.39762">
        <ele>481.79998779297</ele>
        <time>2021-03-10T15:45:44.000Z</time>
      </trkpt>
      <trkpt lat="46.44881" lon="5.39758">
        <ele>481.39999389648</ele>
        <time>2021-03-10T15:45:46.000Z</time>
      </trkpt>
      <trkpt lat="46.44894" lon="5.39756">
        <ele>481.39999389648</ele>
        <time>2021-03-10T15:45:48.000Z</time>
      </trkpt>
      <trkpt lat="46.44907" lon="5.39753">
        <ele>481.39999389648</ele>
        <time>2021-03-10T15:45:50.000Z</time>
      </trkpt>
      <trkpt lat="46.44919" lon="5.39748">
        <ele>481.39999389648</ele>
        <time>2021-03-10T15:45:52.000Z</time>
      </trkpt>
      <trkpt lat="46.44932" lon="5.39745">
        <ele>481.39999389648</ele>
        <time>2021-03-10T15:45:54.000Z</time>
      </trkpt>
      <trkpt lat="46.44939" lon="5.39743">
        <ele>481.79998779297</ele>
        <time>2021-03-10T15:45:55.000Z</time>
      </trkpt>
      <trkpt lat="46.44947" lon="5.39741">
        <ele>481.79998779297</ele>
        <time>2021-03-10T15:45:56.000Z</time>
      </trkpt>
      <trkpt lat="46.44961" lon="5.39737">
        <ele>482.20001220703</ele>
        <time>2021-03-10T15:45:58.000Z</time>
      </trkpt>
      <trkpt lat="46.44968" lon="5.39735">
        <ele>482.20001220703</ele>
        <time>2021-03-10T15:45:59.000Z</time>
      </trkpt>
      <trkpt lat="46.44975" lon="5.39731">
        <ele>482.39999389648</ele>
        <time>2021-03-10T15:46:00.000Z</time>
      </trkpt>
      <trkpt lat="46.44981" lon="5.39726">
        <ele>482.39999389648</ele>
        <time>2021-03-10T15:46:01.000Z</time>
      </trkpt>
      <trkpt lat="46.44987" lon="5.3972">
        <ele>482.60000610352</ele>
        <time>2021-03-10T15:46:02.000Z</time>
      </trkpt>
      <trkpt lat="46.44993" lon="5.39714">
        <ele>482.60000610352</ele>
        <time>2021-03-10T15:46:03.000Z</time>
      </trkpt>
      <trkpt lat="46.44998" lon="5.39709">
        <ele>482.60000610352</ele>
        <time>2021-03-10T15:46:04.000Z</time>
      </trkpt>
      <trkpt lat="46.45008" lon="5.39698">
        <ele>482.79998779297</ele>
        <time>2021-03-10T15:46:06.000Z</time>
      </trkpt>
      <trkpt lat="46.45013" lon="5.39692">
        <ele>482.79998779297</ele>
        <time>2021-03-10T15:46:07.000Z</time>
      </trkpt>
      <trkpt lat="46.45018" lon="5.39687">
        <ele>482.79998779297</ele>
        <time>2021-03-10T15:46:08.000Z</time>
      </trkpt>
      <trkpt lat="46.45028" lon="5.39677">
        <ele>482.79998779297</ele>
        <time>2021-03-10T15:46:10.000Z</time>
      </trkpt>
      <trkpt lat="46.45037" lon="5.39669">
        <ele>483</ele>
        <time>2021-03-10T15:46:12.000Z</time>
      </trkpt>
      <trkpt lat="46.45047" lon="5.3966">
        <ele>483.20001220703</ele>
        <time>2021-03-10T15:46:14.000Z</time>
      </trkpt>
      <trkpt lat="46.45052" lon="5.39657">
        <ele>483.39999389648</ele>
        <time>2021-03-10T15:46:15.000Z</time>
      </trkpt>
      <trkpt lat="46.45057" lon="5.39653">
        <ele>483.79998779297</ele>
        <time>2021-03-10T15:46:16.000Z</time>
      </trkpt>
      <trkpt lat="46.45062" lon="5.39649">
        <ele>484.20001220703</ele>
        <time>2021-03-10T15:46:17.000Z</time>
      </trkpt>
      <trkpt lat="46.45067" lon="5.39645">
        <ele>484.39999389648</ele>
        <time>2021-03-10T15:46:18.000Z</time>
      </trkpt>
      <trkpt lat="46.45077" lon="5.39638">
        <ele>484.79998779297</ele>
        <time>2021-03-10T15:46:20.000Z</time>
      </trkpt>
      <trkpt lat="46.45087" lon="5.39631">
        <ele>485.39999389648</ele>
        <time>2021-03-10T15:46:22.000Z</time>
      </trkpt>
      <trkpt lat="46.45097" lon="5.39624">
        <ele>485.60000610352</ele>
        <time>2021-03-10T15:46:24.000Z</time>
      </trkpt>
      <trkpt lat="46.45103" lon="5.39621">
        <ele>485.79998779297</ele>
        <time>2021-03-10T15:46:25.000Z</time>
      </trkpt>
      <trkpt lat="46.45108" lon="5.39617">
        <ele>486</ele>
        <time>2021-03-10T15:46:26.000Z</time>
      </trkpt>
      <trkpt lat="46.4512" lon="5.39611">
        <ele>486.39999389648</ele>
        <time>2021-03-10T15:46:28.000Z</time>
      </trkpt>
      <trkpt lat="46.45126" lon="5.39608">
        <ele>486.39999389648</ele>
        <time>2021-03-10T15:46:29.000Z</time>
      </trkpt>
      <trkpt lat="46.45132" lon="5.39605">
        <ele>486.60000610352</ele>
        <time>2021-03-10T15:46:30.000Z</time>
      </trkpt>
      <trkpt lat="46.45145" lon="5.39599">
        <ele>486.60000610352</ele>
        <time>2021-03-10T15:46:32.000Z</time>
      </trkpt>
      <trkpt lat="46.45159" lon="5.39592">
        <ele>486.79998779297</ele>
        <time>2021-03-10T15:46:34.000Z</time>
      </trkpt>
      <trkpt lat="46.45173" lon="5.39586">
        <ele>486.79998779297</ele>
        <time>2021-03-10T15:46:36.000Z</time>
      </trkpt>
      <trkpt lat="46.45188" lon="5.39579">
        <ele>486.79998779297</ele>
        <time>2021-03-10T15:46:38.000Z</time>
      </trkpt>
      <trkpt lat="46.45196" lon="5.39575">
        <ele>486.79998779297</ele>
        <time>2021-03-10T15:46:39.000Z</time>
      </trkpt>
      <trkpt lat="46.45205" lon="5.39571">
        <ele>486.60000610352</ele>
        <time>2021-03-10T15:46:40.000Z</time>
      </trkpt>
      <trkpt lat="46.45221" lon="5.39564">
        <ele>486.39999389648</ele>
        <time>2021-03-10T15:46:42.000Z</time>
      </trkpt>
      <trkpt lat="46.45238" lon="5.39554">
        <ele>485.79998779297</ele>
        <time>2021-03-10T15:46:44.000Z</time>
      </trkpt>
      <trkpt lat="46.45246" lon="5.39549">
        <ele>485.39999389648</ele>
        <time>2021-03-10T15:46:45.000Z</time>
      </trkpt>
      <trkpt lat="46.45254" lon="5.39543">
        <ele>485.20001220703</ele>
        <time>2021-03-10T15:46:46.000Z</time>
      </trkpt>
      <trkpt lat="46.45268" lon="5.39528">
        <ele>484.60000610352</ele>
        <time>2021-03-10T15:46:48.000Z</time>
      </trkpt>
      <trkpt lat="46.45275" lon="5.39521">
        <ele>484</ele>
        <time>2021-03-10T15:46:49.000Z</time>
      </trkpt>
      <trkpt lat="46.45282" lon="5.39513">
        <ele>483.60000610352</ele>
        <time>2021-03-10T15:46:50.000Z</time>
      </trkpt>
      <trkpt lat="46.45294" lon="5.39497">
        <ele>482.39999389648</ele>
        <time>2021-03-10T15:46:52.000Z</time>
      </trkpt>
      <trkpt lat="46.45306" lon="5.3948">
        <ele>481.20001220703</ele>
        <time>2021-03-10T15:46:54.000Z</time>
      </trkpt>
      <trkpt lat="46.45316" lon="5.39462">
        <ele>481</ele>
        <time>2021-03-10T15:46:56.000Z</time>
      </trkpt>
      <trkpt lat="46.45325" lon="5.39442">
        <ele>481</ele>
        <time>2021-03-10T15:46:58.000Z</time>
      </trkpt>
      <trkpt lat="46.45332" lon="5.39421">
        <ele>480.79998779297</ele>
        <time>2021-03-10T15:47:00.000Z</time>
      </trkpt>
      <trkpt lat="46.45336" lon="5.39411">
        <ele>480.79998779297</ele>
        <time>2021-03-10T15:47:01.000Z</time>
      </trkpt>
      <trkpt lat="46.4534" lon="5.39399">
        <ele>480.79998779297</ele>
        <time>2021-03-10T15:47:02.000Z</time>
      </trkpt>
      <trkpt lat="46.45348" lon="5.39376">
        <ele>480.60000610352</ele>
        <time>2021-03-10T15:47:04.000Z</time>
      </trkpt>
      <trkpt lat="46.45356" lon="5.39352">
        <ele>480.20001220703</ele>
        <time>2021-03-10T15:47:06.000Z</time>
      </trkpt>
      <trkpt lat="46.45365" lon="5.39327">
        <ele>479.60000610352</ele>
        <time>2021-03-10T15:47:08.000Z</time>
      </trkpt>
      <trkpt lat="46.45374" lon="5.39302">
        <ele>479</ele>
        <time>2021-03-10T15:47:10.000Z</time>
      </trkpt>
      <trkpt lat="46.45383" lon="5.39278">
        <ele>478.20001220703</ele>
        <time>2021-03-10T15:47:12.000Z</time>
      </trkpt>
      <trkpt lat="46.45388" lon="5.39266">
        <ele>477.60000610352</ele>
        <time>2021-03-10T15:47:13.000Z</time>
      </trkpt>
      <trkpt lat="46.45392" lon="5.39253">
        <ele>477</ele>
        <time>2021-03-10T15:47:14.000Z</time>
      </trkpt>
      <trkpt lat="46.45396" lon="5.39242">
        <ele>476.20001220703</ele>
        <time>2021-03-10T15:47:15.000Z</time>
      </trkpt>
      <trkpt lat="46.454" lon="5.3923">
        <ele>475.60000610352</ele>
        <time>2021-03-10T15:47:16.000Z</time>
      </trkpt>
      <trkpt lat="46.45404" lon="5.39218">
        <ele>475</ele>
        <time>2021-03-10T15:47:17.000Z</time>
      </trkpt>
      <trkpt lat="46.45408" lon="5.39206">
        <ele>474.39999389648</ele>
        <time>2021-03-10T15:47:18.000Z</time>
      </trkpt>
      <trkpt lat="46.45412" lon="5.39194">
        <ele>474</ele>
        <time>2021-03-10T15:47:19.000Z</time>
      </trkpt>
      <trkpt lat="46.45416" lon="5.39183">
        <ele>473.79998779297</ele>
        <time>2021-03-10T15:47:20.000Z</time>
      </trkpt>
      <trkpt lat="46.45424" lon="5.39159">
        <ele>473.20001220703</ele>
        <time>2021-03-10T15:47:22.000Z</time>
      </trkpt>
      <trkpt lat="46.45432" lon="5.39137">
        <ele>472.79998779297</ele>
        <time>2021-03-10T15:47:24.000Z</time>
      </trkpt>
      <trkpt lat="46.45437" lon="5.39126">
        <ele>472.60000610352</ele>
        <time>2021-03-10T15:47:25.000Z</time>
      </trkpt>
      <trkpt lat="46.45443" lon="5.39116">
        <ele>472.60000610352</ele>
        <time>2021-03-10T15:47:26.000Z</time>
      </trkpt>
      <trkpt lat="46.45459" lon="5.39101">
        <ele>472.39999389648</ele>
        <time>2021-03-10T15:47:28.000Z</time>
      </trkpt>
      <trkpt lat="46.45478" lon="5.39104">
        <ele>472.20001220703</ele>
        <time>2021-03-10T15:47:30.000Z</time>
      </trkpt>
      <trkpt lat="46.45494" lon="5.39115">
        <ele>471.79998779297</ele>
        <time>2021-03-10T15:47:32.000Z</time>
      </trkpt>
      <trkpt lat="46.45501" lon="5.39122">
        <ele>471.39999389648</ele>
        <time>2021-03-10T15:47:33.000Z</time>
      </trkpt>
      <trkpt lat="46.45508" lon="5.39128">
        <ele>471.20001220703</ele>
        <time>2021-03-10T15:47:34.000Z</time>
      </trkpt>
      <trkpt lat="46.45521" lon="5.3914">
        <ele>471.20001220703</ele>
        <time>2021-03-10T15:47:36.000Z</time>
      </trkpt>
      <trkpt lat="46.45534" lon="5.39153">
        <ele>471</ele>
        <time>2021-03-10T15:47:38.000Z</time>
      </trkpt>
      <trkpt lat="46.45541" lon="5.39159">
        <ele>471</ele>
        <time>2021-03-10T15:47:39.000Z</time>
      </trkpt>
      <trkpt lat="46.45547" lon="5.39164">
        <ele>471</ele>
        <time>2021-03-10T15:47:40.000Z</time>
      </trkpt>
      <trkpt lat="46.4556" lon="5.39175">
        <ele>471</ele>
        <time>2021-03-10T15:47:42.000Z</time>
      </trkpt>
      <trkpt lat="46.45572" lon="5.39187">
        <ele>471.60000610352</ele>
        <time>2021-03-10T15:47:44.000Z</time>
      </trkpt>
      <trkpt lat="46.45583" lon="5.39197">
        <ele>471.79998779297</ele>
        <time>2021-03-10T15:47:46.000Z</time>
      </trkpt>
      <trkpt lat="46.45593" lon="5.39209">
        <ele>472.39999389648</ele>
        <time>2021-03-10T15:47:48.000Z</time>
      </trkpt>
      <trkpt lat="46.45597" lon="5.39214">
        <ele>472.60000610352</ele>
        <time>2021-03-10T15:47:49.000Z</time>
      </trkpt>
      <trkpt lat="46.45602" lon="5.3922">
        <ele>472.79998779297</ele>
        <time>2021-03-10T15:47:50.000Z</time>
      </trkpt>
      <trkpt lat="46.45606" lon="5.39226">
        <ele>473.20001220703</ele>
        <time>2021-03-10T15:47:51.000Z</time>
      </trkpt>
      <trkpt lat="46.4561" lon="5.39231">
        <ele>473.60000610352</ele>
        <time>2021-03-10T15:47:52.000Z</time>
      </trkpt>
      <trkpt lat="46.45614" lon="5.39236">
        <ele>474</ele>
        <time>2021-03-10T15:47:53.000Z</time>
      </trkpt>
      <trkpt lat="46.45618" lon="5.3924">
        <ele>474.60000610352</ele>
        <time>2021-03-10T15:47:54.000Z</time>
      </trkpt>
      <trkpt lat="46.45625" lon="5.39247">
        <ele>475.39999389648</ele>
        <time>2021-03-10T15:47:56.000Z</time>
      </trkpt>
      <trkpt lat="46.45633" lon="5.39255">
        <ele>476.20001220703</ele>
        <time>2021-03-10T15:47:58.000Z</time>
      </trkpt>
      <trkpt lat="46.45637" lon="5.39259">
        <ele>476.60000610352</ele>
        <time>2021-03-10T15:47:59.000Z</time>
      </trkpt>
      <trkpt lat="46.45641" lon="5.39262">
        <ele>477</ele>
        <time>2021-03-10T15:48:00.000Z</time>
      </trkpt>
      <trkpt lat="46.45645" lon="5.39266">
        <ele>477.20001220703</ele>
        <time>2021-03-10T15:48:01.000Z</time>
      </trkpt>
      <trkpt lat="46.4565" lon="5.3927">
        <ele>477.39999389648</ele>
        <time>2021-03-10T15:48:02.000Z</time>
      </trkpt>
      <trkpt lat="46.45654" lon="5.39274">
        <ele>477.79998779297</ele>
        <time>2021-03-10T15:48:03.000Z</time>
      </trkpt>
      <trkpt lat="46.45657" lon="5.39278">
        <ele>478.20001220703</ele>
        <time>2021-03-10T15:48:04.000Z</time>
      </trkpt>
      <trkpt lat="46.45661" lon="5.39282">
        <ele>478.39999389648</ele>
        <time>2021-03-10T15:48:05.000Z</time>
      </trkpt>
      <trkpt lat="46.45665" lon="5.39286">
        <ele>478.60000610352</ele>
        <time>2021-03-10T15:48:06.000Z</time>
      </trkpt>
      <trkpt lat="46.45668" lon="5.3929">
        <ele>478.79998779297</ele>
        <time>2021-03-10T15:48:07.000Z</time>
      </trkpt>
      <trkpt lat="46.45672" lon="5.39293">
        <ele>479</ele>
        <time>2021-03-10T15:48:08.000Z</time>
      </trkpt>
      <trkpt lat="46.45679" lon="5.393">
        <ele>479.39999389648</ele>
        <time>2021-03-10T15:48:10.000Z</time>
      </trkpt>
      <trkpt lat="46.45686" lon="5.39308">
        <ele>479.79998779297</ele>
        <time>2021-03-10T15:48:12.000Z</time>
      </trkpt>
      <trkpt lat="46.4569" lon="5.39311">
        <ele>480.39999389648</ele>
        <time>2021-03-10T15:48:13.000Z</time>
      </trkpt>
      <trkpt lat="46.45693" lon="5.39315">
        <ele>480.39999389648</ele>
        <time>2021-03-10T15:48:14.000Z</time>
      </trkpt>
      <trkpt lat="46.45699" lon="5.39323">
        <ele>480.79998779297</ele>
        <time>2021-03-10T15:48:16.000Z</time>
      </trkpt>
      <trkpt lat="46.45702" lon="5.39326">
        <ele>481.20001220703</ele>
        <time>2021-03-10T15:48:17.000Z</time>
      </trkpt>
      <trkpt lat="46.45705" lon="5.3933">
        <ele>481.20001220703</ele>
        <time>2021-03-10T15:48:18.000Z</time>
      </trkpt>
      <trkpt lat="46.45711" lon="5.39337">
        <ele>481.60000610352</ele>
        <time>2021-03-10T15:48:20.000Z</time>
      </trkpt>
      <trkpt lat="46.45717" lon="5.39343">
        <ele>482.20001220703</ele>
        <time>2021-03-10T15:48:22.000Z</time>
      </trkpt>
      <trkpt lat="46.4572" lon="5.39346">
        <ele>482.39999389648</ele>
        <time>2021-03-10T15:48:23.000Z</time>
      </trkpt>
      <trkpt lat="46.45723" lon="5.39349">
        <ele>482.60000610352</ele>
        <time>2021-03-10T15:48:24.000Z</time>
      </trkpt>
      <trkpt lat="46.45729" lon="5.39355">
        <ele>483.20001220703</ele>
        <time>2021-03-10T15:48:26.000Z</time>
      </trkpt>
      <trkpt lat="46.45734" lon="5.39361">
        <ele>483.60000610352</ele>
        <time>2021-03-10T15:48:28.000Z</time>
      </trkpt>
      <trkpt lat="46.45739" lon="5.39367">
        <ele>483.79998779297</ele>
        <time>2021-03-10T15:48:30.000Z</time>
      </trkpt>
      <trkpt lat="46.45744" lon="5.39374">
        <ele>484.39999389648</ele>
        <time>2021-03-10T15:48:32.000Z</time>
      </trkpt>
      <trkpt lat="46.45746" lon="5.39377">
        <ele>484.60000610352</ele>
        <time>2021-03-10T15:48:33.000Z</time>
      </trkpt>
      <trkpt lat="46.45748" lon="5.39381">
        <ele>484.79998779297</ele>
        <time>2021-03-10T15:48:34.000Z</time>
      </trkpt>
      <trkpt lat="46.45753" lon="5.39389">
        <ele>485.20001220703</ele>
        <time>2021-03-10T15:48:36.000Z</time>
      </trkpt>
      <trkpt lat="46.45756" lon="5.39397">
        <ele>485.60000610352</ele>
        <time>2021-03-10T15:48:38.000Z</time>
      </trkpt>
      <trkpt lat="46.4576" lon="5.39406">
        <ele>486</ele>
        <time>2021-03-10T15:48:40.000Z</time>
      </trkpt>
      <trkpt lat="46.45763" lon="5.39416">
        <ele>486.39999389648</ele>
        <time>2021-03-10T15:48:42.000Z</time>
      </trkpt>
      <trkpt lat="46.45765" lon="5.39425">
        <ele>486.79998779297</ele>
        <time>2021-03-10T15:48:44.000Z</time>
      </trkpt>
      <trkpt lat="46.45767" lon="5.39435">
        <ele>487.60000610352</ele>
        <time>2021-03-10T15:48:46.000Z</time>
      </trkpt>
      <trkpt lat="46.45769" lon="5.39445">
        <ele>487.79998779297</ele>
        <time>2021-03-10T15:48:48.000Z</time>
      </trkpt>
      <trkpt lat="46.4577" lon="5.39456">
        <ele>488.20001220703</ele>
        <time>2021-03-10T15:48:50.000Z</time>
      </trkpt>
      <trkpt lat="46.4577" lon="5.39461">
        <ele>488.39999389648</ele>
        <time>2021-03-10T15:48:51.000Z</time>
      </trkpt>
      <trkpt lat="46.45771" lon="5.39466">
        <ele>488.60000610352</ele>
        <time>2021-03-10T15:48:52.000Z</time>
      </trkpt>
      <trkpt lat="46.4577" lon="5.39477">
        <ele>489</ele>
        <time>2021-03-10T15:48:54.000Z</time>
      </trkpt>
      <trkpt lat="46.4577" lon="5.39488">
        <ele>489.39999389648</ele>
        <time>2021-03-10T15:48:56.000Z</time>
      </trkpt>
      <trkpt lat="46.45769" lon="5.395">
        <ele>489.79998779297</ele>
        <time>2021-03-10T15:48:58.000Z</time>
      </trkpt>
      <trkpt lat="46.45768" lon="5.39506">
        <ele>490</ele>
        <time>2021-03-10T15:48:59.000Z</time>
      </trkpt>
      <trkpt lat="46.45767" lon="5.39512">
        <ele>490.20001220703</ele>
        <time>2021-03-10T15:49:00.000Z</time>
      </trkpt>
      <trkpt lat="46.45766" lon="5.39524">
        <ele>490.39999389648</ele>
        <time>2021-03-10T15:49:02.000Z</time>
      </trkpt>
      <trkpt lat="46.45764" lon="5.39537">
        <ele>491</ele>
        <time>2021-03-10T15:49:04.000Z</time>
      </trkpt>
      <trkpt lat="46.45763" lon="5.39543">
        <ele>491</ele>
        <time>2021-03-10T15:49:05.000Z</time>
      </trkpt>
      <trkpt lat="46.45762" lon="5.39549">
        <ele>491.20001220703</ele>
        <time>2021-03-10T15:49:06.000Z</time>
      </trkpt>
      <trkpt lat="46.45761" lon="5.39562">
        <ele>491.60000610352</ele>
        <time>2021-03-10T15:49:08.000Z</time>
      </trkpt>
      <trkpt lat="46.4576" lon="5.39569">
        <ele>491.60000610352</ele>
        <time>2021-03-10T15:49:09.000Z</time>
      </trkpt>
      <trkpt lat="46.4576" lon="5.39576">
        <ele>491.60000610352</ele>
        <time>2021-03-10T15:49:10.000Z</time>
      </trkpt>
      <trkpt lat="46.45759" lon="5.39591">
        <ele>491.79998779297</ele>
        <time>2021-03-10T15:49:12.000Z</time>
      </trkpt>
      <trkpt lat="46.4576" lon="5.39605">
        <ele>492</ele>
        <time>2021-03-10T15:49:14.000Z</time>
      </trkpt>
      <trkpt lat="46.45761" lon="5.39612">
        <ele>492</ele>
        <time>2021-03-10T15:49:15.000Z</time>
      </trkpt>
      <trkpt lat="46.45761" lon="5.39619">
        <ele>492.20001220703</ele>
        <time>2021-03-10T15:49:16.000Z</time>
      </trkpt>
      <trkpt lat="46.45762" lon="5.39626">
        <ele>492.20001220703</ele>
        <time>2021-03-10T15:49:17.000Z</time>
      </trkpt>
      <trkpt lat="46.45763" lon="5.39633">
        <ele>492.20001220703</ele>
        <time>2021-03-10T15:49:18.000Z</time>
      </trkpt>
      <trkpt lat="46.45766" lon="5.39646">
        <ele>492.39999389648</ele>
        <time>2021-03-10T15:49:20.000Z</time>
      </trkpt>
      <trkpt lat="46.45767" lon="5.39653">
        <ele>492.60000610352</ele>
        <time>2021-03-10T15:49:21.000Z</time>
      </trkpt>
      <trkpt lat="46.45769" lon="5.39659">
        <ele>492.79998779297</ele>
        <time>2021-03-10T15:49:22.000Z</time>
      </trkpt>
      <trkpt lat="46.45773" lon="5.39671">
        <ele>493</ele>
        <time>2021-03-10T15:49:24.000Z</time>
      </trkpt>
      <trkpt lat="46.45777" lon="5.39682">
        <ele>493.60000610352</ele>
        <time>2021-03-10T15:49:26.000Z</time>
      </trkpt>
      <trkpt lat="46.45781" lon="5.39687">
        <ele>493.60000610352</ele>
        <time>2021-03-10T15:49:27.000Z</time>
      </trkpt>
      <trkpt lat="46.45784" lon="5.39692">
        <ele>494</ele>
        <time>2021-03-10T15:49:28.000Z</time>
      </trkpt>
      <trkpt lat="46.45791" lon="5.39702">
        <ele>494.39999389648</ele>
        <time>2021-03-10T15:49:30.000Z</time>
      </trkpt>
      <trkpt lat="46.45795" lon="5.39707">
        <ele>494.60000610352</ele>
        <time>2021-03-10T15:49:31.000Z</time>
      </trkpt>
      <trkpt lat="46.45798" lon="5.39711">
        <ele>494.79998779297</ele>
        <time>2021-03-10T15:49:32.000Z</time>
      </trkpt>
      <trkpt lat="46.45806" lon="5.3972">
        <ele>495</ele>
        <time>2021-03-10T15:49:34.000Z</time>
      </trkpt>
      <trkpt lat="46.45814" lon="5.39727">
        <ele>495.39999389648</ele>
        <time>2021-03-10T15:49:36.000Z</time>
      </trkpt>
      <trkpt lat="46.45823" lon="5.39734">
        <ele>495.60000610352</ele>
        <time>2021-03-10T15:49:38.000Z</time>
      </trkpt>
      <trkpt lat="46.45831" lon="5.3974">
        <ele>495.79998779297</ele>
        <time>2021-03-10T15:49:40.000Z</time>
      </trkpt>
      <trkpt lat="46.4584" lon="5.39747">
        <ele>496.79998779297</ele>
        <time>2021-03-10T15:49:42.000Z</time>
      </trkpt>
      <trkpt lat="46.45848" lon="5.39754">
        <ele>497</ele>
        <time>2021-03-10T15:49:44.000Z</time>
      </trkpt>
      <trkpt lat="46.45857" lon="5.39761">
        <ele>497.39999389648</ele>
        <time>2021-03-10T15:49:46.000Z</time>
      </trkpt>
      <trkpt lat="46.45864" lon="5.39768">
        <ele>497.60000610352</ele>
        <time>2021-03-10T15:49:48.000Z</time>
      </trkpt>
      <trkpt lat="46.45868" lon="5.39772">
        <ele>497.79998779297</ele>
        <time>2021-03-10T15:49:49.000Z</time>
      </trkpt>
      <trkpt lat="46.45872" lon="5.39776">
        <ele>498</ele>
        <time>2021-03-10T15:49:50.000Z</time>
      </trkpt>
      <trkpt lat="46.4588" lon="5.39785">
        <ele>498.39999389648</ele>
        <time>2021-03-10T15:49:52.000Z</time>
      </trkpt>
      <trkpt lat="46.45888" lon="5.39793">
        <ele>498.60000610352</ele>
        <time>2021-03-10T15:49:54.000Z</time>
      </trkpt>
      <trkpt lat="46.45893" lon="5.39798">
        <ele>498.79998779297</ele>
        <time>2021-03-10T15:49:55.000Z</time>
      </trkpt>
      <trkpt lat="46.45897" lon="5.39802">
        <ele>498.79998779297</ele>
        <time>2021-03-10T15:49:56.000Z</time>
      </trkpt>
      <trkpt lat="46.45902" lon="5.39806">
        <ele>499</ele>
        <time>2021-03-10T15:49:57.000Z</time>
      </trkpt>
      <trkpt lat="46.45906" lon="5.3981">
        <ele>499</ele>
        <time>2021-03-10T15:49:58.000Z</time>
      </trkpt>
      <trkpt lat="46.45916" lon="5.39819">
        <ele>499.20001220703</ele>
        <time>2021-03-10T15:50:00.000Z</time>
      </trkpt>
      <trkpt lat="46.45927" lon="5.39827">
        <ele>499.20001220703</ele>
        <time>2021-03-10T15:50:02.000Z</time>
      </trkpt>
      <trkpt lat="46.45932" lon="5.39832">
        <ele>499.20001220703</ele>
        <time>2021-03-10T15:50:03.000Z</time>
      </trkpt>
      <trkpt lat="46.45937" lon="5.39835">
        <ele>499.20001220703</ele>
        <time>2021-03-10T15:50:04.000Z</time>
      </trkpt>
      <trkpt lat="46.45948" lon="5.39844">
        <ele>499.20001220703</ele>
        <time>2021-03-10T15:50:06.000Z</time>
      </trkpt>
      <trkpt lat="46.45959" lon="5.39852">
        <ele>499.39999389648</ele>
        <time>2021-03-10T15:50:08.000Z</time>
      </trkpt>
      <trkpt lat="46.4597" lon="5.3986">
        <ele>499.60000610352</ele>
        <time>2021-03-10T15:50:10.000Z</time>
      </trkpt>
      <trkpt lat="46.45982" lon="5.39869">
        <ele>499.79998779297</ele>
        <time>2021-03-10T15:50:12.000Z</time>
      </trkpt>
      <trkpt lat="46.45992" lon="5.39878">
        <ele>499.79998779297</ele>
        <time>2021-03-10T15:50:14.000Z</time>
      </trkpt>
      <trkpt lat="46.46003" lon="5.39886">
        <ele>500</ele>
        <time>2021-03-10T15:50:16.000Z</time>
      </trkpt>
      <trkpt lat="46.46009" lon="5.39891">
        <ele>500</ele>
        <time>2021-03-10T15:50:17.000Z</time>
      </trkpt>
      <trkpt lat="46.46014" lon="5.39895">
        <ele>500</ele>
        <time>2021-03-10T15:50:18.000Z</time>
      </trkpt>
      <trkpt lat="46.46025" lon="5.39904">
        <ele>500.20001220703</ele>
        <time>2021-03-10T15:50:20.000Z</time>
      </trkpt>
      <trkpt lat="46.46036" lon="5.39912">
        <ele>500.20001220703</ele>
        <time>2021-03-10T15:50:22.000Z</time>
      </trkpt>
      <trkpt lat="46.46047" lon="5.3992">
        <ele>500.39999389648</ele>
        <time>2021-03-10T15:50:24.000Z</time>
      </trkpt>
      <trkpt lat="46.46058" lon="5.39928">
        <ele>500.60000610352</ele>
        <time>2021-03-10T15:50:26.000Z</time>
      </trkpt>
      <trkpt lat="46.46064" lon="5.39932">
        <ele>500.60000610352</ele>
        <time>2021-03-10T15:50:27.000Z</time>
      </trkpt>
      <trkpt lat="46.46069" lon="5.39936">
        <ele>500.60000610352</ele>
        <time>2021-03-10T15:50:28.000Z</time>
      </trkpt>
      <trkpt lat="46.4608" lon="5.39943">
        <ele>500.79998779297</ele>
        <time>2021-03-10T15:50:30.000Z</time>
      </trkpt>
      <trkpt lat="46.46091" lon="5.39952">
        <ele>501</ele>
        <time>2021-03-10T15:50:32.000Z</time>
      </trkpt>
      <trkpt lat="46.46101" lon="5.39962">
        <ele>501.20001220703</ele>
        <time>2021-03-10T15:50:34.000Z</time>
      </trkpt>
      <trkpt lat="46.46111" lon="5.39973">
        <ele>501.39999389648</ele>
        <time>2021-03-10T15:50:36.000Z</time>
      </trkpt>
      <trkpt lat="46.46121" lon="5.39983">
        <ele>501.39999389648</ele>
        <time>2021-03-10T15:50:38.000Z</time>
      </trkpt>
      <trkpt lat="46.46132" lon="5.39992">
        <ele>501.60000610352</ele>
        <time>2021-03-10T15:50:40.000Z</time>
      </trkpt>
      <trkpt lat="46.46137" lon="5.39996">
        <ele>501.60000610352</ele>
        <time>2021-03-10T15:50:41.000Z</time>
      </trkpt>
      <trkpt lat="46.46142" lon="5.40001">
        <ele>501.60000610352</ele>
        <time>2021-03-10T15:50:42.000Z</time>
      </trkpt>
      <trkpt lat="46.46152" lon="5.40009">
        <ele>501.79998779297</ele>
        <time>2021-03-10T15:50:44.000Z</time>
      </trkpt>
      <trkpt lat="46.46162" lon="5.40019">
        <ele>502</ele>
        <time>2021-03-10T15:50:46.000Z</time>
      </trkpt>
      <trkpt lat="46.46166" lon="5.40024">
        <ele>502</ele>
        <time>2021-03-10T15:50:47.000Z</time>
      </trkpt>
      <trkpt lat="46.4617" lon="5.4003">
        <ele>502</ele>
        <time>2021-03-10T15:50:48.000Z</time>
      </trkpt>
      <trkpt lat="46.46178" lon="5.40043">
        <ele>502.20001220703</ele>
        <time>2021-03-10T15:50:50.000Z</time>
      </trkpt>
      <trkpt lat="46.46181" lon="5.4005">
        <ele>502.39999389648</ele>
        <time>2021-03-10T15:50:51.000Z</time>
      </trkpt>
      <trkpt lat="46.46184" lon="5.40056">
        <ele>502.60000610352</ele>
        <time>2021-03-10T15:50:52.000Z</time>
      </trkpt>
      <trkpt lat="46.46188" lon="5.40071">
        <ele>502.79998779297</ele>
        <time>2021-03-10T15:50:54.000Z</time>
      </trkpt>
      <trkpt lat="46.4619" lon="5.40078">
        <ele>503.20001220703</ele>
        <time>2021-03-10T15:50:55.000Z</time>
      </trkpt>
      <trkpt lat="46.46192" lon="5.40086">
        <ele>503.39999389648</ele>
        <time>2021-03-10T15:50:56.000Z</time>
      </trkpt>
      <trkpt lat="46.46194" lon="5.40101">
        <ele>503.60000610352</ele>
        <time>2021-03-10T15:50:58.000Z</time>
      </trkpt>
      <trkpt lat="46.46195" lon="5.40116">
        <ele>503.79998779297</ele>
        <time>2021-03-10T15:51:00.000Z</time>
      </trkpt>
      <trkpt lat="46.46196" lon="5.40131">
        <ele>504.20001220703</ele>
        <time>2021-03-10T15:51:02.000Z</time>
      </trkpt>
      <trkpt lat="46.46197" lon="5.40137">
        <ele>504.39999389648</ele>
        <time>2021-03-10T15:51:03.000Z</time>
      </trkpt>
      <trkpt lat="46.46201" lon="5.40141">
        <ele>504.79998779297</ele>
        <time>2021-03-10T15:51:04.000Z</time>
      </trkpt>
      <trkpt lat="46.4621" lon="5.40139">
        <ele>505.60000610352</ele>
        <time>2021-03-10T15:51:06.000Z</time>
      </trkpt>
      <trkpt lat="46.46214" lon="5.40135">
        <ele>505.60000610352</ele>
        <time>2021-03-10T15:51:07.000Z</time>
      </trkpt>
      <trkpt lat="46.46219" lon="5.40132">
        <ele>505.79998779297</ele>
        <time>2021-03-10T15:51:08.000Z</time>
      </trkpt>
      <trkpt lat="46.46228" lon="5.40124">
        <ele>506</ele>
        <time>2021-03-10T15:51:10.000Z</time>
      </trkpt>
      <trkpt lat="46.46238" lon="5.40115">
        <ele>506</ele>
        <time>2021-03-10T15:51:12.000Z</time>
      </trkpt>
      <trkpt lat="46.46242" lon="5.40111">
        <ele>506</ele>
        <time>2021-03-10T15:51:13.000Z</time>
      </trkpt>
      <trkpt lat="46.46247" lon="5.40107">
        <ele>506</ele>
        <time>2021-03-10T15:51:14.000Z</time>
      </trkpt>
      <trkpt lat="46.46257" lon="5.40101">
        <ele>506.20001220703</ele>
        <time>2021-03-10T15:51:16.000Z</time>
      </trkpt>
      <trkpt lat="46.46266" lon="5.40097">
        <ele>506.20001220703</ele>
        <time>2021-03-10T15:51:18.000Z</time>
      </trkpt>
      <trkpt lat="46.46276" lon="5.40097">
        <ele>506.60000610352</ele>
        <time>2021-03-10T15:51:20.000Z</time>
      </trkpt>
      <trkpt lat="46.4628" lon="5.40097">
        <ele>506.60000610352</ele>
        <time>2021-03-10T15:51:21.000Z</time>
      </trkpt>
      <trkpt lat="46.46285" lon="5.40097">
        <ele>506.79998779297</ele>
        <time>2021-03-10T15:51:22.000Z</time>
      </trkpt>
      <trkpt lat="46.46294" lon="5.40098">
        <ele>506.79998779297</ele>
        <time>2021-03-10T15:51:24.000Z</time>
      </trkpt>
      <trkpt lat="46.46302" lon="5.40099">
        <ele>507.20001220703</ele>
        <time>2021-03-10T15:51:26.000Z</time>
      </trkpt>
      <trkpt lat="46.46311" lon="5.401">
        <ele>507.79998779297</ele>
        <time>2021-03-10T15:51:28.000Z</time>
      </trkpt>
      <trkpt lat="46.46319" lon="5.401">
        <ele>508.60000610352</ele>
        <time>2021-03-10T15:51:30.000Z</time>
      </trkpt>
      <trkpt lat="46.46324" lon="5.401">
        <ele>509</ele>
        <time>2021-03-10T15:51:31.000Z</time>
      </trkpt>
      <trkpt lat="46.46328" lon="5.40099">
        <ele>509.39999389648</ele>
        <time>2021-03-10T15:51:32.000Z</time>
      </trkpt>
      <trkpt lat="46.46333" lon="5.40099">
        <ele>510.20001220703</ele>
        <time>2021-03-10T15:51:33.000Z</time>
      </trkpt>
      <trkpt lat="46.46338" lon="5.40098">
        <ele>510.39999389648</ele>
        <time>2021-03-10T15:51:34.000Z</time>
      </trkpt>
      <trkpt lat="46.46348" lon="5.40097">
        <ele>511</ele>
        <time>2021-03-10T15:51:36.000Z</time>
      </trkpt>
      <trkpt lat="46.46353" lon="5.40096">
        <ele>511.60000610352</ele>
        <time>2021-03-10T15:51:37.000Z</time>
      </trkpt>
      <trkpt lat="46.46358" lon="5.40096">
        <ele>511.79998779297</ele>
        <time>2021-03-10T15:51:38.000Z</time>
      </trkpt>
      <trkpt lat="46.46363" lon="5.40095">
        <ele>512</ele>
        <time>2021-03-10T15:51:39.000Z</time>
      </trkpt>
      <trkpt lat="46.46368" lon="5.40094">
        <ele>512</ele>
        <time>2021-03-10T15:51:40.000Z</time>
      </trkpt>
      <trkpt lat="46.46378" lon="5.40092">
        <ele>512.20001220703</ele>
        <time>2021-03-10T15:51:42.000Z</time>
      </trkpt>
      <trkpt lat="46.46388" lon="5.4009">
        <ele>512.40002441406</ele>
        <time>2021-03-10T15:51:44.000Z</time>
      </trkpt>
      <trkpt lat="46.46397" lon="5.40088">
        <ele>512.59997558594</ele>
        <time>2021-03-10T15:51:46.000Z</time>
      </trkpt>
      <trkpt lat="46.46402" lon="5.40087">
        <ele>512.79998779297</ele>
        <time>2021-03-10T15:51:47.000Z</time>
      </trkpt>
      <trkpt lat="46.46406" lon="5.40086">
        <ele>512.79998779297</ele>
        <time>2021-03-10T15:51:48.000Z</time>
      </trkpt>
      <trkpt lat="46.46415" lon="5.40085">
        <ele>513.40002441406</ele>
        <time>2021-03-10T15:51:50.000Z</time>
      </trkpt>
      <trkpt lat="46.46424" lon="5.40083">
        <ele>513.79998779297</ele>
        <time>2021-03-10T15:51:52.000Z</time>
      </trkpt>
      <trkpt lat="46.46433" lon="5.40081">
        <ele>514</ele>
        <time>2021-03-10T15:51:54.000Z</time>
      </trkpt>
      <trkpt lat="46.46442" lon="5.40079">
        <ele>514.20001220703</ele>
        <time>2021-03-10T15:51:56.000Z</time>
      </trkpt>
      <trkpt lat="46.4645" lon="5.40078">
        <ele>514.79998779297</ele>
        <time>2021-03-10T15:51:58.000Z</time>
      </trkpt>
      <trkpt lat="46.46459" lon="5.40076">
        <ele>515.20001220703</ele>
        <time>2021-03-10T15:52:00.000Z</time>
      </trkpt>
      <trkpt lat="46.46468" lon="5.40075">
        <ele>515.79998779297</ele>
        <time>2021-03-10T15:52:02.000Z</time>
      </trkpt>
      <trkpt lat="46.46473" lon="5.40075">
        <ele>515.79998779297</ele>
        <time>2021-03-10T15:52:03.000Z</time>
      </trkpt>
      <trkpt lat="46.46477" lon="5.40075">
        <ele>516</ele>
        <time>2021-03-10T15:52:04.000Z</time>
      </trkpt>
      <trkpt lat="46.46487" lon="5.40075">
        <ele>516.40002441406</ele>
        <time>2021-03-10T15:52:06.000Z</time>
      </trkpt>
      <trkpt lat="46.46491" lon="5.40075">
        <ele>516.40002441406</ele>
        <time>2021-03-10T15:52:07.000Z</time>
      </trkpt>
      <trkpt lat="46.46496" lon="5.40076">
        <ele>516.59997558594</ele>
        <time>2021-03-10T15:52:08.000Z</time>
      </trkpt>
      <trkpt lat="46.46506" lon="5.40078">
        <ele>517</ele>
        <time>2021-03-10T15:52:10.000Z</time>
      </trkpt>
      <trkpt lat="46.46515" lon="5.40082">
        <ele>517.20001220703</ele>
        <time>2021-03-10T15:52:12.000Z</time>
      </trkpt>
      <trkpt lat="46.46523" lon="5.40086">
        <ele>517.40002441406</ele>
        <time>2021-03-10T15:52:14.000Z</time>
      </trkpt>
      <trkpt lat="46.46532" lon="5.40091">
        <ele>517.59997558594</ele>
        <time>2021-03-10T15:52:16.000Z</time>
      </trkpt>
      <trkpt lat="46.46541" lon="5.40096">
        <ele>517.59997558594</ele>
        <time>2021-03-10T15:52:18.000Z</time>
      </trkpt>
      <trkpt lat="46.4655" lon="5.401">
        <ele>517.79998779297</ele>
        <time>2021-03-10T15:52:20.000Z</time>
      </trkpt>
      <trkpt lat="46.46559" lon="5.40104">
        <ele>518</ele>
        <time>2021-03-10T15:52:22.000Z</time>
      </trkpt>
      <trkpt lat="46.46568" lon="5.40108">
        <ele>518.40002441406</ele>
        <time>2021-03-10T15:52:24.000Z</time>
      </trkpt>
      <trkpt lat="46.46573" lon="5.40111">
        <ele>518.59997558594</ele>
        <time>2021-03-10T15:52:25.000Z</time>
      </trkpt>
      <trkpt lat="46.46577" lon="5.40113">
        <ele>518.79998779297</ele>
        <time>2021-03-10T15:52:26.000Z</time>
      </trkpt>
      <trkpt lat="46.46582" lon="5.40115">
        <ele>519</ele>
        <time>2021-03-10T15:52:27.000Z</time>
      </trkpt>
      <trkpt lat="46.46586" lon="5.40118">
        <ele>519.59997558594</ele>
        <time>2021-03-10T15:52:28.000Z</time>
      </trkpt>
      <trkpt lat="46.46595" lon="5.40122">
        <ele>519.79998779297</ele>
        <time>2021-03-10T15:52:30.000Z</time>
      </trkpt>
      <trkpt lat="46.46604" lon="5.40126">
        <ele>520</ele>
        <time>2021-03-10T15:52:32.000Z</time>
      </trkpt>
      <trkpt lat="46.46612" lon="5.4013">
        <ele>520.40002441406</ele>
        <time>2021-03-10T15:52:34.000Z</time>
      </trkpt>
      <trkpt lat="46.4662" lon="5.40134">
        <ele>520.59997558594</ele>
        <time>2021-03-10T15:52:36.000Z</time>
      </trkpt>
      <trkpt lat="46.46628" lon="5.40138">
        <ele>521</ele>
        <time>2021-03-10T15:52:38.000Z</time>
      </trkpt>
      <trkpt lat="46.46636" lon="5.40143">
        <ele>521.59997558594</ele>
        <time>2021-03-10T15:52:40.000Z</time>
      </trkpt>
      <trkpt lat="46.46643" lon="5.40147">
        <ele>522.40002441406</ele>
        <time>2021-03-10T15:52:42.000Z</time>
      </trkpt>
      <trkpt lat="46.46651" lon="5.4015">
        <ele>522.79998779297</ele>
        <time>2021-03-10T15:52:44.000Z</time>
      </trkpt>
      <trkpt lat="46.46658" lon="5.40154">
        <ele>523.40002441406</ele>
        <time>2021-03-10T15:52:46.000Z</time>
      </trkpt>
      <trkpt lat="46.46666" lon="5.40158">
        <ele>524</ele>
        <time>2021-03-10T15:52:48.000Z</time>
      </trkpt>
      <trkpt lat="46.46673" lon="5.40162">
        <ele>524.59997558594</ele>
        <time>2021-03-10T15:52:50.000Z</time>
      </trkpt>
      <trkpt lat="46.4668" lon="5.40165">
        <ele>525</ele>
        <time>2021-03-10T15:52:52.000Z</time>
      </trkpt>
      <trkpt lat="46.46684" lon="5.40166">
        <ele>525.20001220703</ele>
        <time>2021-03-10T15:52:53.000Z</time>
      </trkpt>
      <trkpt lat="46.46687" lon="5.40168">
        <ele>525.40002441406</ele>
        <time>2021-03-10T15:52:54.000Z</time>
      </trkpt>
      <trkpt lat="46.46695" lon="5.40172">
        <ele>526</ele>
        <time>2021-03-10T15:52:56.000Z</time>
      </trkpt>
      <trkpt lat="46.46699" lon="5.40174">
        <ele>526.40002441406</ele>
        <time>2021-03-10T15:52:57.000Z</time>
      </trkpt>
      <trkpt lat="46.46702" lon="5.40176">
        <ele>526.59997558594</ele>
        <time>2021-03-10T15:52:58.000Z</time>
      </trkpt>
      <trkpt lat="46.4671" lon="5.4018">
        <ele>527</ele>
        <time>2021-03-10T15:53:00.000Z</time>
      </trkpt>
      <trkpt lat="46.46717" lon="5.40183">
        <ele>527.40002441406</ele>
        <time>2021-03-10T15:53:02.000Z</time>
      </trkpt>
      <trkpt lat="46.46721" lon="5.40185">
        <ele>527.59997558594</ele>
        <time>2021-03-10T15:53:03.000Z</time>
      </trkpt>
      <trkpt lat="46.46725" lon="5.40187">
        <ele>527.79998779297</ele>
        <time>2021-03-10T15:53:04.000Z</time>
      </trkpt>
      <trkpt lat="46.46728" lon="5.40188">
        <ele>528</ele>
        <time>2021-03-10T15:53:05.000Z</time>
      </trkpt>
      <trkpt lat="46.46731" lon="5.4019">
        <ele>528.20001220703</ele>
        <time>2021-03-10T15:53:06.000Z</time>
      </trkpt>
      <trkpt lat="46.46737" lon="5.40193">
        <ele>528.59997558594</ele>
        <time>2021-03-10T15:53:08.000Z</time>
      </trkpt>
      <trkpt lat="46.46742" lon="5.40196">
        <ele>529.20001220703</ele>
        <time>2021-03-10T15:53:10.000Z</time>
      </trkpt>
      <trkpt lat="46.46748" lon="5.40199">
        <ele>529.59997558594</ele>
        <time>2021-03-10T15:53:12.000Z</time>
      </trkpt>
      <trkpt lat="46.46752" lon="5.40201">
        <ele>529.79998779297</ele>
        <time>2021-03-10T15:53:13.000Z</time>
      </trkpt>
      <trkpt lat="46.46755" lon="5.40203">
        <ele>530</ele>
        <time>2021-03-10T15:53:14.000Z</time>
      </trkpt>
      <trkpt lat="46.46761" lon="5.40206">
        <ele>530.40002441406</ele>
        <time>2021-03-10T15:53:16.000Z</time>
      </trkpt>
      <trkpt lat="46.46768" lon="5.40209">
        <ele>530.79998779297</ele>
        <time>2021-03-10T15:53:18.000Z</time>
      </trkpt>
      <trkpt lat="46.46775" lon="5.40212">
        <ele>531.20001220703</ele>
        <time>2021-03-10T15:53:20.000Z</time>
      </trkpt>
      <trkpt lat="46.46778" lon="5.40214">
        <ele>531.40002441406</ele>
        <time>2021-03-10T15:53:21.000Z</time>
      </trkpt>
      <trkpt lat="46.4678" lon="5.40215">
        <ele>531.40002441406</ele>
        <time>2021-03-10T15:53:22.000Z</time>
      </trkpt>
      <trkpt lat="46.46787" lon="5.40219">
        <ele>531.79998779297</ele>
        <time>2021-03-10T15:53:24.000Z</time>
      </trkpt>
      <trkpt lat="46.4679" lon="5.40221">
        <ele>532.20001220703</ele>
        <time>2021-03-10T15:53:25.000Z</time>
      </trkpt>
      <trkpt lat="46.46794" lon="5.40222">
        <ele>532.40002441406</ele>
        <time>2021-03-10T15:53:26.000Z</time>
      </trkpt>
      <trkpt lat="46.46801" lon="5.40226">
        <ele>532.79998779297</ele>
        <time>2021-03-10T15:53:28.000Z</time>
      </trkpt>
      <trkpt lat="46.46804" lon="5.40228">
        <ele>533</ele>
        <time>2021-03-10T15:53:29.000Z</time>
      </trkpt>
      <trkpt lat="46.46807" lon="5.40229">
        <ele>533.20001220703</ele>
        <time>2021-03-10T15:53:30.000Z</time>
      </trkpt>
      <trkpt lat="46.46814" lon="5.40232">
        <ele>533.59997558594</ele>
        <time>2021-03-10T15:53:32.000Z</time>
      </trkpt>
      <trkpt lat="46.46821" lon="5.40236">
        <ele>534.20001220703</ele>
        <time>2021-03-10T15:53:34.000Z</time>
      </trkpt>
      <trkpt lat="46.46824" lon="5.40238">
        <ele>534.40002441406</ele>
        <time>2021-03-10T15:53:35.000Z</time>
      </trkpt>
      <trkpt lat="46.46828" lon="5.40239">
        <ele>534.59997558594</ele>
        <time>2021-03-10T15:53:36.000Z</time>
      </trkpt>
      <trkpt lat="46.46831" lon="5.40241">
        <ele>534.79998779297</ele>
        <time>2021-03-10T15:53:37.000Z</time>
      </trkpt>
      <trkpt lat="46.46835" lon="5.40243">
        <ele>535</ele>
        <time>2021-03-10T15:53:38.000Z</time>
      </trkpt>
      <trkpt lat="46.46841" lon="5.40246">
        <ele>535.40002441406</ele>
        <time>2021-03-10T15:53:40.000Z</time>
      </trkpt>
      <trkpt lat="46.46848" lon="5.4025">
        <ele>536</ele>
        <time>2021-03-10T15:53:42.000Z</time>
      </trkpt>
      <trkpt lat="46.46855" lon="5.40254">
        <ele>536.40002441406</ele>
        <time>2021-03-10T15:53:44.000Z</time>
      </trkpt>
      <trkpt lat="46.46858" lon="5.40256">
        <ele>536.59997558594</ele>
        <time>2021-03-10T15:53:45.000Z</time>
      </trkpt>
      <trkpt lat="46.46862" lon="5.40258">
        <ele>536.79998779297</ele>
        <time>2021-03-10T15:53:46.000Z</time>
      </trkpt>
      <trkpt lat="46.46869" lon="5.40262">
        <ele>537.20001220703</ele>
        <time>2021-03-10T15:53:48.000Z</time>
      </trkpt>
      <trkpt lat="46.46876" lon="5.40267">
        <ele>537.40002441406</ele>
        <time>2021-03-10T15:53:50.000Z</time>
      </trkpt>
      <trkpt lat="46.46884" lon="5.4027">
        <ele>537.79998779297</ele>
        <time>2021-03-10T15:53:52.000Z</time>
      </trkpt>
      <trkpt lat="46.46892" lon="5.40274">
        <ele>538.20001220703</ele>
        <time>2021-03-10T15:53:54.000Z</time>
      </trkpt>
      <trkpt lat="46.46901" lon="5.40278">
        <ele>538.40002441406</ele>
        <time>2021-03-10T15:53:56.000Z</time>
      </trkpt>
      <trkpt lat="46.46906" lon="5.4028">
        <ele>538.59997558594</ele>
        <time>2021-03-10T15:53:57.000Z</time>
      </trkpt>
      <trkpt lat="46.4691" lon="5.40282">
        <ele>538.59997558594</ele>
        <time>2021-03-10T15:53:58.000Z</time>
      </trkpt>
      <trkpt lat="46.46919" lon="5.40287">
        <ele>538.79998779297</ele>
        <time>2021-03-10T15:54:00.000Z</time>
      </trkpt>
      <trkpt lat="46.46928" lon="5.40292">
        <ele>539</ele>
        <time>2021-03-10T15:54:02.000Z</time>
      </trkpt>
      <trkpt lat="46.46936" lon="5.40296">
        <ele>539.20001220703</ele>
        <time>2021-03-10T15:54:04.000Z</time>
      </trkpt>
      <trkpt lat="46.46944" lon="5.403">
        <ele>539.59997558594</ele>
        <time>2021-03-10T15:54:06.000Z</time>
      </trkpt>
      <trkpt lat="46.46952" lon="5.40304">
        <ele>540</ele>
        <time>2021-03-10T15:54:08.000Z</time>
      </trkpt>
      <trkpt lat="46.4696" lon="5.40308">
        <ele>540.20001220703</ele>
        <time>2021-03-10T15:54:10.000Z</time>
      </trkpt>
      <trkpt lat="46.46968" lon="5.40311">
        <ele>540.40002441406</ele>
        <time>2021-03-10T15:54:12.000Z</time>
      </trkpt>
      <trkpt lat="46.46977" lon="5.40314">
        <ele>541.20001220703</ele>
        <time>2021-03-10T15:54:14.000Z</time>
      </trkpt>
      <trkpt lat="46.46985" lon="5.40316">
        <ele>541.59997558594</ele>
        <time>2021-03-10T15:54:16.000Z</time>
      </trkpt>
      <trkpt lat="46.46994" lon="5.40319">
        <ele>542</ele>
        <time>2021-03-10T15:54:18.000Z</time>
      </trkpt>
      <trkpt lat="46.46998" lon="5.40321">
        <ele>542.20001220703</ele>
        <time>2021-03-10T15:54:19.000Z</time>
      </trkpt>
      <trkpt lat="46.47002" lon="5.40323">
        <ele>542.40002441406</ele>
        <time>2021-03-10T15:54:20.000Z</time>
      </trkpt>
      <trkpt lat="46.4701" lon="5.40326">
        <ele>542.79998779297</ele>
        <time>2021-03-10T15:54:22.000Z</time>
      </trkpt>
      <trkpt lat="46.47018" lon="5.40328">
        <ele>543</ele>
        <time>2021-03-10T15:54:24.000Z</time>
      </trkpt>
      <trkpt lat="46.47027" lon="5.40329">
        <ele>543.20001220703</ele>
        <time>2021-03-10T15:54:26.000Z</time>
      </trkpt>
      <trkpt lat="46.47038" lon="5.4033">
        <ele>543.20001220703</ele>
        <time>2021-03-10T15:54:28.000Z</time>
      </trkpt>
      <trkpt lat="46.47048" lon="5.40331">
        <ele>543.20001220703</ele>
        <time>2021-03-10T15:54:30.000Z</time>
      </trkpt>
      <trkpt lat="46.47061" lon="5.40333">
        <ele>543.20001220703</ele>
        <time>2021-03-10T15:54:32.000Z</time>
      </trkpt>
      <trkpt lat="46.47067" lon="5.40333">
        <ele>543.20001220703</ele>
        <time>2021-03-10T15:54:33.000Z</time>
      </trkpt>
      <trkpt lat="46.47074" lon="5.40334">
        <ele>543.20001220703</ele>
        <time>2021-03-10T15:54:34.000Z</time>
      </trkpt>
      <trkpt lat="46.47088" lon="5.40335">
        <ele>542.79998779297</ele>
        <time>2021-03-10T15:54:36.000Z</time>
      </trkpt>
      <trkpt lat="46.47104" lon="5.40337">
        <ele>542.20001220703</ele>
        <time>2021-03-10T15:54:38.000Z</time>
      </trkpt>
      <trkpt lat="46.47113" lon="5.40339">
        <ele>542</ele>
        <time>2021-03-10T15:54:39.000Z</time>
      </trkpt>
      <trkpt lat="46.47122" lon="5.40341">
        <ele>541.59997558594</ele>
        <time>2021-03-10T15:54:40.000Z</time>
      </trkpt>
      <trkpt lat="46.47141" lon="5.40344">
        <ele>541.20001220703</ele>
        <time>2021-03-10T15:54:42.000Z</time>
      </trkpt>
      <trkpt lat="46.4715" lon="5.40347">
        <ele>540.79998779297</ele>
        <time>2021-03-10T15:54:43.000Z</time>
      </trkpt>
      <trkpt lat="46.4716" lon="5.4035">
        <ele>540.59997558594</ele>
        <time>2021-03-10T15:54:44.000Z</time>
      </trkpt>
      <trkpt lat="46.4718" lon="5.4036">
        <ele>539.59997558594</ele>
        <time>2021-03-10T15:54:46.000Z</time>
      </trkpt>
      <trkpt lat="46.4719" lon="5.40366">
        <ele>539</ele>
        <time>2021-03-10T15:54:47.000Z</time>
      </trkpt>
      <trkpt lat="46.47199" lon="5.40376">
        <ele>538.40002441406</ele>
        <time>2021-03-10T15:54:48.000Z</time>
      </trkpt>
      <trkpt lat="46.47207" lon="5.40387">
        <ele>537.40002441406</ele>
        <time>2021-03-10T15:54:49.000Z</time>
      </trkpt>
      <trkpt lat="46.47215" lon="5.40398">
        <ele>536.59997558594</ele>
        <time>2021-03-10T15:54:50.000Z</time>
      </trkpt>
      <trkpt lat="46.47225" lon="5.40409">
        <ele>536</ele>
        <time>2021-03-10T15:54:51.000Z</time>
      </trkpt>
      <trkpt lat="46.47235" lon="5.40419">
        <ele>535.40002441406</ele>
        <time>2021-03-10T15:54:52.000Z</time>
      </trkpt>
      <trkpt lat="46.47245" lon="5.40428">
        <ele>534.79998779297</ele>
        <time>2021-03-10T15:54:53.000Z</time>
      </trkpt>
      <trkpt lat="46.47256" lon="5.40434">
        <ele>534.20001220703</ele>
        <time>2021-03-10T15:54:54.000Z</time>
      </trkpt>
      <trkpt lat="46.47267" lon="5.40439">
        <ele>533.40002441406</ele>
        <time>2021-03-10T15:54:55.000Z</time>
      </trkpt>
      <trkpt lat="46.47279" lon="5.40442">
        <ele>532.59997558594</ele>
        <time>2021-03-10T15:54:56.000Z</time>
      </trkpt>
      <trkpt lat="46.4729" lon="5.40445">
        <ele>531.79998779297</ele>
        <time>2021-03-10T15:54:57.000Z</time>
      </trkpt>
      <trkpt lat="46.47302" lon="5.40448">
        <ele>531.20001220703</ele>
        <time>2021-03-10T15:54:58.000Z</time>
      </trkpt>
      <trkpt lat="46.47313" lon="5.4045">
        <ele>530.59997558594</ele>
        <time>2021-03-10T15:54:59.000Z</time>
      </trkpt>
      <trkpt lat="46.47324" lon="5.40452">
        <ele>530</ele>
        <time>2021-03-10T15:55:00.000Z</time>
      </trkpt>
      <trkpt lat="46.47335" lon="5.40454">
        <ele>529.40002441406</ele>
        <time>2021-03-10T15:55:01.000Z</time>
      </trkpt>
      <trkpt lat="46.47346" lon="5.40456">
        <ele>528.59997558594</ele>
        <time>2021-03-10T15:55:02.000Z</time>
      </trkpt>
      <trkpt lat="46.47357" lon="5.40457">
        <ele>527.79998779297</ele>
        <time>2021-03-10T15:55:03.000Z</time>
      </trkpt>
      <trkpt lat="46.47368" lon="5.40457">
        <ele>527</ele>
        <time>2021-03-10T15:55:04.000Z</time>
      </trkpt>
      <trkpt lat="46.4738" lon="5.40458">
        <ele>526.40002441406</ele>
        <time>2021-03-10T15:55:05.000Z</time>
      </trkpt>
      <trkpt lat="46.47391" lon="5.40457">
        <ele>525.79998779297</ele>
        <time>2021-03-10T15:55:06.000Z</time>
      </trkpt>
      <trkpt lat="46.47402" lon="5.40456">
        <ele>525.20001220703</ele>
        <time>2021-03-10T15:55:07.000Z</time>
      </trkpt>
      <trkpt lat="46.47413" lon="5.40454">
        <ele>524.40002441406</ele>
        <time>2021-03-10T15:55:08.000Z</time>
      </trkpt>
      <trkpt lat="46.47424" lon="5.40454">
        <ele>524</ele>
        <time>2021-03-10T15:55:09.000Z</time>
      </trkpt>
      <trkpt lat="46.47436" lon="5.40454">
        <ele>523.59997558594</ele>
        <time>2021-03-10T15:55:10.000Z</time>
      </trkpt>
      <trkpt lat="46.47448" lon="5.40455">
        <ele>522.79998779297</ele>
        <time>2021-03-10T15:55:11.000Z</time>
      </trkpt>
      <trkpt lat="46.47459" lon="5.40457">
        <ele>522.40002441406</ele>
        <time>2021-03-10T15:55:12.000Z</time>
      </trkpt>
      <trkpt lat="46.47471" lon="5.4046">
        <ele>522</ele>
        <time>2021-03-10T15:55:13.000Z</time>
      </trkpt>
      <trkpt lat="46.47482" lon="5.40464">
        <ele>521.79998779297</ele>
        <time>2021-03-10T15:55:14.000Z</time>
      </trkpt>
      <trkpt lat="46.47492" lon="5.40468">
        <ele>521.40002441406</ele>
        <time>2021-03-10T15:55:15.000Z</time>
      </trkpt>
      <trkpt lat="46.47501" lon="5.40473">
        <ele>521.20001220703</ele>
        <time>2021-03-10T15:55:16.000Z</time>
      </trkpt>
      <trkpt lat="46.4751" lon="5.4048">
        <ele>520.20001220703</ele>
        <time>2021-03-10T15:55:17.000Z</time>
      </trkpt>
      <trkpt lat="46.47518" lon="5.40484">
        <ele>519.40002441406</ele>
        <time>2021-03-10T15:55:18.000Z</time>
      </trkpt>
      <trkpt lat="46.47527" lon="5.40484">
        <ele>518.79998779297</ele>
        <time>2021-03-10T15:55:19.000Z</time>
      </trkpt>
      <trkpt lat="46.47534" lon="5.40478">
        <ele>518.40002441406</ele>
        <time>2021-03-10T15:55:20.000Z</time>
      </trkpt>
      <trkpt lat="46.47539" lon="5.4047">
        <ele>517.79998779297</ele>
        <time>2021-03-10T15:55:21.000Z</time>
      </trkpt>
      <trkpt lat="46.47542" lon="5.40458">
        <ele>517.40002441406</ele>
        <time>2021-03-10T15:55:22.000Z</time>
      </trkpt>
      <trkpt lat="46.47543" lon="5.40444">
        <ele>517</ele>
        <time>2021-03-10T15:55:23.000Z</time>
      </trkpt>
      <trkpt lat="46.47543" lon="5.40432">
        <ele>516.59997558594</ele>
        <time>2021-03-10T15:55:24.000Z</time>
      </trkpt>
      <trkpt lat="46.47541" lon="5.40418">
        <ele>516.20001220703</ele>
        <time>2021-03-10T15:55:25.000Z</time>
      </trkpt>
      <trkpt lat="46.47537" lon="5.40404">
        <ele>515.20001220703</ele>
        <time>2021-03-10T15:55:26.000Z</time>
      </trkpt>
      <trkpt lat="46.4753" lon="5.40387">
        <ele>514.20001220703</ele>
        <time>2021-03-10T15:55:27.000Z</time>
      </trkpt>
      <trkpt lat="46.47525" lon="5.40372">
        <ele>513.20001220703</ele>
        <time>2021-03-10T15:55:28.000Z</time>
      </trkpt>
      <trkpt lat="46.47523" lon="5.40356">
        <ele>512.59997558594</ele>
        <time>2021-03-10T15:55:29.000Z</time>
      </trkpt>
      <trkpt lat="46.47523" lon="5.4034">
        <ele>512.20001220703</ele>
        <time>2021-03-10T15:55:30.000Z</time>
      </trkpt>
      <trkpt lat="46.47527" lon="5.40325">
        <ele>512</ele>
        <time>2021-03-10T15:55:31.000Z</time>
      </trkpt>
      <trkpt lat="46.47541" lon="5.40299">
        <ele>511</ele>
        <time>2021-03-10T15:55:33.000Z</time>
      </trkpt>
      <trkpt lat="46.4755" lon="5.40289">
        <ele>510.39999389648</ele>
        <time>2021-03-10T15:55:34.000Z</time>
      </trkpt>
      <trkpt lat="46.4756" lon="5.40278">
        <ele>509.79998779297</ele>
        <time>2021-03-10T15:55:35.000Z</time>
      </trkpt>
      <trkpt lat="46.47571" lon="5.4027">
        <ele>508.79998779297</ele>
        <time>2021-03-10T15:55:36.000Z</time>
      </trkpt>
      <trkpt lat="46.47582" lon="5.40265">
        <ele>508.20001220703</ele>
        <time>2021-03-10T15:55:37.000Z</time>
      </trkpt>
      <trkpt lat="46.47594" lon="5.40262">
        <ele>507.39999389648</ele>
        <time>2021-03-10T15:55:38.000Z</time>
      </trkpt>
      <trkpt lat="46.47606" lon="5.4026">
        <ele>506.79998779297</ele>
        <time>2021-03-10T15:55:39.000Z</time>
      </trkpt>
      <trkpt lat="46.47618" lon="5.40257">
        <ele>506.20001220703</ele>
        <time>2021-03-10T15:55:40.000Z</time>
      </trkpt>
      <trkpt lat="46.4763" lon="5.40254">
        <ele>505.60000610352</ele>
        <time>2021-03-10T15:55:41.000Z</time>
      </trkpt>
      <trkpt lat="46.47641" lon="5.40252">
        <ele>505</ele>
        <time>2021-03-10T15:55:42.000Z</time>
      </trkpt>
      <trkpt lat="46.47653" lon="5.40252">
        <ele>504.20001220703</ele>
        <time>2021-03-10T15:55:43.000Z</time>
      </trkpt>
      <trkpt lat="46.47665" lon="5.40252">
        <ele>503.20001220703</ele>
        <time>2021-03-10T15:55:44.000Z</time>
      </trkpt>
      <trkpt lat="46.47677" lon="5.40251">
        <ele>501.79998779297</ele>
        <time>2021-03-10T15:55:45.000Z</time>
      </trkpt>
      <trkpt lat="46.47688" lon="5.40248">
        <ele>501</ele>
        <time>2021-03-10T15:55:46.000Z</time>
      </trkpt>
      <trkpt lat="46.47698" lon="5.40242">
        <ele>500.39999389648</ele>
        <time>2021-03-10T15:55:47.000Z</time>
      </trkpt>
      <trkpt lat="46.47706" lon="5.40233">
        <ele>499.60000610352</ele>
        <time>2021-03-10T15:55:48.000Z</time>
      </trkpt>
      <trkpt lat="46.47711" lon="5.4022">
        <ele>499</ele>
        <time>2021-03-10T15:55:49.000Z</time>
      </trkpt>
      <trkpt lat="46.47716" lon="5.40208">
        <ele>498.20001220703</ele>
        <time>2021-03-10T15:55:50.000Z</time>
      </trkpt>
      <trkpt lat="46.4772" lon="5.40194">
        <ele>497.79998779297</ele>
        <time>2021-03-10T15:55:51.000Z</time>
      </trkpt>
      <trkpt lat="46.47728" lon="5.40183">
        <ele>497.60000610352</ele>
        <time>2021-03-10T15:55:52.000Z</time>
      </trkpt>
      <trkpt lat="46.47737" lon="5.40174">
        <ele>497.20001220703</ele>
        <time>2021-03-10T15:55:53.000Z</time>
      </trkpt>
      <trkpt lat="46.47746" lon="5.40163">
        <ele>497</ele>
        <time>2021-03-10T15:55:54.000Z</time>
      </trkpt>
      <trkpt lat="46.47753" lon="5.40149">
        <ele>496.79998779297</ele>
        <time>2021-03-10T15:55:55.000Z</time>
      </trkpt>
      <trkpt lat="46.47758" lon="5.40136">
        <ele>496.60000610352</ele>
        <time>2021-03-10T15:55:56.000Z</time>
      </trkpt>
      <trkpt lat="46.47764" lon="5.40103">
        <ele>496</ele>
        <time>2021-03-10T15:55:58.000Z</time>
      </trkpt>
      <trkpt lat="46.47765" lon="5.40087">
        <ele>495.39999389648</ele>
        <time>2021-03-10T15:55:59.000Z</time>
      </trkpt>
      <trkpt lat="46.47764" lon="5.4007">
        <ele>494.79998779297</ele>
        <time>2021-03-10T15:56:00.000Z</time>
      </trkpt>
      <trkpt lat="46.47763" lon="5.40054">
        <ele>494.20001220703</ele>
        <time>2021-03-10T15:56:01.000Z</time>
      </trkpt>
      <trkpt lat="46.47765" lon="5.40039">
        <ele>493.39999389648</ele>
        <time>2021-03-10T15:56:02.000Z</time>
      </trkpt>
      <trkpt lat="46.47769" lon="5.40026">
        <ele>492.60000610352</ele>
        <time>2021-03-10T15:56:03.000Z</time>
      </trkpt>
      <trkpt lat="46.47776" lon="5.40017">
        <ele>491.79998779297</ele>
        <time>2021-03-10T15:56:04.000Z</time>
      </trkpt>
      <trkpt lat="46.47784" lon="5.4001">
        <ele>491.20001220703</ele>
        <time>2021-03-10T15:56:05.000Z</time>
      </trkpt>
      <trkpt lat="46.47794" lon="5.40005">
        <ele>490.79998779297</ele>
        <time>2021-03-10T15:56:06.000Z</time>
      </trkpt>
      <trkpt lat="46.47804" lon="5.4">
        <ele>490</ele>
        <time>2021-03-10T15:56:07.000Z</time>
      </trkpt>
      <trkpt lat="46.47814" lon="5.39993">
        <ele>489.39999389648</ele>
        <time>2021-03-10T15:56:08.000Z</time>
      </trkpt>
      <trkpt lat="46.47826" lon="5.39987">
        <ele>488.79998779297</ele>
        <time>2021-03-10T15:56:09.000Z</time>
      </trkpt>
      <trkpt lat="46.47837" lon="5.39979">
        <ele>488.20001220703</ele>
        <time>2021-03-10T15:56:10.000Z</time>
      </trkpt>
      <trkpt lat="46.47849" lon="5.39972">
        <ele>487.79998779297</ele>
        <time>2021-03-10T15:56:11.000Z</time>
      </trkpt>
      <trkpt lat="46.47861" lon="5.39965">
        <ele>487.39999389648</ele>
        <time>2021-03-10T15:56:12.000Z</time>
      </trkpt>
      <trkpt lat="46.47885" lon="5.39951">
        <ele>485.60000610352</ele>
        <time>2021-03-10T15:56:14.000Z</time>
      </trkpt>
      <trkpt lat="46.47908" lon="5.39937">
        <ele>484</ele>
        <time>2021-03-10T15:56:16.000Z</time>
      </trkpt>
      <trkpt lat="46.47932" lon="5.39923">
        <ele>482.39999389648</ele>
        <time>2021-03-10T15:56:18.000Z</time>
      </trkpt>
      <trkpt lat="46.47956" lon="5.39911">
        <ele>480.79998779297</ele>
        <time>2021-03-10T15:56:20.000Z</time>
      </trkpt>
      <trkpt lat="46.47979" lon="5.39899">
        <ele>479.39999389648</ele>
        <time>2021-03-10T15:56:22.000Z</time>
      </trkpt>
      <trkpt lat="46.48001" lon="5.39891">
        <ele>477.79998779297</ele>
        <time>2021-03-10T15:56:24.000Z</time>
      </trkpt>
      <trkpt lat="46.48013" lon="5.39889">
        <ele>477</ele>
        <time>2021-03-10T15:56:25.000Z</time>
      </trkpt>
      <trkpt lat="46.48024" lon="5.39891">
        <ele>476.60000610352</ele>
        <time>2021-03-10T15:56:26.000Z</time>
      </trkpt>
      <trkpt lat="46.48035" lon="5.39895">
        <ele>476.20001220703</ele>
        <time>2021-03-10T15:56:27.000Z</time>
      </trkpt>
      <trkpt lat="46.48045" lon="5.39902">
        <ele>476.20001220703</ele>
        <time>2021-03-10T15:56:28.000Z</time>
      </trkpt>
      <trkpt lat="46.48065" lon="5.39912">
        <ele>476</ele>
        <time>2021-03-10T15:56:30.000Z</time>
      </trkpt>
      <trkpt lat="46.48075" lon="5.39915">
        <ele>476</ele>
        <time>2021-03-10T15:56:31.000Z</time>
      </trkpt>
      <trkpt lat="46.48085" lon="5.39915">
        <ele>476</ele>
        <time>2021-03-10T15:56:32.000Z</time>
      </trkpt>
      <trkpt lat="46.48105" lon="5.39913">
        <ele>476</ele>
        <time>2021-03-10T15:56:34.000Z</time>
      </trkpt>
      <trkpt lat="46.48115" lon="5.39911">
        <ele>476</ele>
        <time>2021-03-10T15:56:35.000Z</time>
      </trkpt>
      <trkpt lat="46.48125" lon="5.39908">
        <ele>476</ele>
        <time>2021-03-10T15:56:36.000Z</time>
      </trkpt>
      <trkpt lat="46.48144" lon="5.399">
        <ele>476.39999389648</ele>
        <time>2021-03-10T15:56:38.000Z</time>
      </trkpt>
      <trkpt lat="46.48162" lon="5.39889">
        <ele>477</ele>
        <time>2021-03-10T15:56:40.000Z</time>
      </trkpt>
      <trkpt lat="46.48179" lon="5.39877">
        <ele>477.60000610352</ele>
        <time>2021-03-10T15:56:42.000Z</time>
      </trkpt>
      <trkpt lat="46.48186" lon="5.39869">
        <ele>477.60000610352</ele>
        <time>2021-03-10T15:56:43.000Z</time>
      </trkpt>
      <trkpt lat="46.48192" lon="5.39859">
        <ele>477.60000610352</ele>
        <time>2021-03-10T15:56:44.000Z</time>
      </trkpt>
      <trkpt lat="46.48195" lon="5.39835">
        <ele>477.60000610352</ele>
        <time>2021-03-10T15:56:46.000Z</time>
      </trkpt>
      <trkpt lat="46.48191" lon="5.3981">
        <ele>477.60000610352</ele>
        <time>2021-03-10T15:56:48.000Z</time>
      </trkpt>
      <trkpt lat="46.48187" lon="5.39785">
        <ele>477.60000610352</ele>
        <time>2021-03-10T15:56:50.000Z</time>
      </trkpt>
      <trkpt lat="46.48183" lon="5.39759">
        <ele>477.39999389648</ele>
        <time>2021-03-10T15:56:52.000Z</time>
      </trkpt>
      <trkpt lat="46.48179" lon="5.39733">
        <ele>477</ele>
        <time>2021-03-10T15:56:54.000Z</time>
      </trkpt>
      <trkpt lat="46.48177" lon="5.39719">
        <ele>476.60000610352</ele>
        <time>2021-03-10T15:56:55.000Z</time>
      </trkpt>
      <trkpt lat="46.48176" lon="5.39706">
        <ele>476</ele>
        <time>2021-03-10T15:56:56.000Z</time>
      </trkpt>
      <trkpt lat="46.48176" lon="5.39693">
        <ele>475.39999389648</ele>
        <time>2021-03-10T15:56:57.000Z</time>
      </trkpt>
      <trkpt lat="46.48176" lon="5.39679">
        <ele>475.20001220703</ele>
        <time>2021-03-10T15:56:58.000Z</time>
      </trkpt>
      <trkpt lat="46.4818" lon="5.3965">
        <ele>474.79998779297</ele>
        <time>2021-03-10T15:57:00.000Z</time>
      </trkpt>
      <trkpt lat="46.48183" lon="5.39636">
        <ele>474.79998779297</ele>
        <time>2021-03-10T15:57:01.000Z</time>
      </trkpt>
      <trkpt lat="46.48188" lon="5.39622">
        <ele>474.60000610352</ele>
        <time>2021-03-10T15:57:02.000Z</time>
      </trkpt>
      <trkpt lat="46.48194" lon="5.39609">
        <ele>474.60000610352</ele>
        <time>2021-03-10T15:57:03.000Z</time>
      </trkpt>
      <trkpt lat="46.482" lon="5.39594">
        <ele>474.60000610352</ele>
        <time>2021-03-10T15:57:04.000Z</time>
      </trkpt>
      <trkpt lat="46.48205" lon="5.3958">
        <ele>474.39999389648</ele>
        <time>2021-03-10T15:57:05.000Z</time>
      </trkpt>
      <trkpt lat="46.48209" lon="5.39564">
        <ele>474.39999389648</ele>
        <time>2021-03-10T15:57:06.000Z</time>
      </trkpt>
      <trkpt lat="46.48216" lon="5.39532">
        <ele>473.20001220703</ele>
        <time>2021-03-10T15:57:08.000Z</time>
      </trkpt>
      <trkpt lat="46.48219" lon="5.39516">
        <ele>472.60000610352</ele>
        <time>2021-03-10T15:57:09.000Z</time>
      </trkpt>
      <trkpt lat="46.48224" lon="5.39502">
        <ele>470.39999389648</ele>
        <time>2021-03-10T15:57:10.000Z</time>
      </trkpt>
      <trkpt lat="46.4823" lon="5.39489">
        <ele>469.39999389648</ele>
        <time>2021-03-10T15:57:11.000Z</time>
      </trkpt>
      <trkpt lat="46.48238" lon="5.39479">
        <ele>468.20001220703</ele>
        <time>2021-03-10T15:57:12.000Z</time>
      </trkpt>
      <trkpt lat="46.48246" lon="5.39471">
        <ele>467</ele>
        <time>2021-03-10T15:57:13.000Z</time>
      </trkpt>
      <trkpt lat="46.48255" lon="5.39467">
        <ele>466</ele>
        <time>2021-03-10T15:57:14.000Z</time>
      </trkpt>
      <trkpt lat="46.48264" lon="5.39466">
        <ele>464.60000610352</ele>
        <time>2021-03-10T15:57:15.000Z</time>
      </trkpt>
      <trkpt lat="46.48274" lon="5.39467">
        <ele>463.39999389648</ele>
        <time>2021-03-10T15:57:16.000Z</time>
      </trkpt>
      <trkpt lat="46.48283" lon="5.39464">
        <ele>462.20001220703</ele>
        <time>2021-03-10T15:57:17.000Z</time>
      </trkpt>
      <trkpt lat="46.48291" lon="5.39459">
        <ele>461.39999389648</ele>
        <time>2021-03-10T15:57:18.000Z</time>
      </trkpt>
      <trkpt lat="46.48296" lon="5.39448">
        <ele>460.60000610352</ele>
        <time>2021-03-10T15:57:19.000Z</time>
      </trkpt>
      <trkpt lat="46.48301" lon="5.39436">
        <ele>460.20001220703</ele>
        <time>2021-03-10T15:57:20.000Z</time>
      </trkpt>
      <trkpt lat="46.48309" lon="5.3941">
        <ele>459.60000610352</ele>
        <time>2021-03-10T15:57:22.000Z</time>
      </trkpt>
      <trkpt lat="46.48314" lon="5.39397">
        <ele>459</ele>
        <time>2021-03-10T15:57:23.000Z</time>
      </trkpt>
      <trkpt lat="46.4832" lon="5.39383">
        <ele>458.39999389648</ele>
        <time>2021-03-10T15:57:24.000Z</time>
      </trkpt>
      <trkpt lat="46.48327" lon="5.3937">
        <ele>457.60000610352</ele>
        <time>2021-03-10T15:57:25.000Z</time>
      </trkpt>
      <trkpt lat="46.48335" lon="5.39357">
        <ele>456.79998779297</ele>
        <time>2021-03-10T15:57:26.000Z</time>
      </trkpt>
      <trkpt lat="46.48353" lon="5.39335">
        <ele>455</ele>
        <time>2021-03-10T15:57:28.000Z</time>
      </trkpt>
      <trkpt lat="46.48374" lon="5.39324">
        <ele>453.20001220703</ele>
        <time>2021-03-10T15:57:30.000Z</time>
      </trkpt>
      <trkpt lat="46.48385" lon="5.39322">
        <ele>452.20001220703</ele>
        <time>2021-03-10T15:57:31.000Z</time>
      </trkpt>
      <trkpt lat="46.48397" lon="5.39324">
        <ele>451</ele>
        <time>2021-03-10T15:57:32.000Z</time>
      </trkpt>
      <trkpt lat="46.48409" lon="5.39327">
        <ele>450</ele>
        <time>2021-03-10T15:57:33.000Z</time>
      </trkpt>
      <trkpt lat="46.48423" lon="5.39329">
        <ele>448.79998779297</ele>
        <time>2021-03-10T15:57:34.000Z</time>
      </trkpt>
      <trkpt lat="46.4845" lon="5.39325">
        <ele>446.79998779297</ele>
        <time>2021-03-10T15:57:36.000Z</time>
      </trkpt>
      <trkpt lat="46.48463" lon="5.39321">
        <ele>445.60000610352</ele>
        <time>2021-03-10T15:57:37.000Z</time>
      </trkpt>
      <trkpt lat="46.48477" lon="5.39317">
        <ele>443.39999389648</ele>
        <time>2021-03-10T15:57:38.000Z</time>
      </trkpt>
      <trkpt lat="46.4849" lon="5.39314">
        <ele>442.39999389648</ele>
        <time>2021-03-10T15:57:39.000Z</time>
      </trkpt>
      <trkpt lat="46.48504" lon="5.3931">
        <ele>441.20001220703</ele>
        <time>2021-03-10T15:57:40.000Z</time>
      </trkpt>
      <trkpt lat="46.48518" lon="5.39306">
        <ele>440</ele>
        <time>2021-03-10T15:57:41.000Z</time>
      </trkpt>
      <trkpt lat="46.48531" lon="5.39303">
        <ele>438.79998779297</ele>
        <time>2021-03-10T15:57:42.000Z</time>
      </trkpt>
      <trkpt lat="46.48545" lon="5.39299">
        <ele>437.39999389648</ele>
        <time>2021-03-10T15:57:43.000Z</time>
      </trkpt>
      <trkpt lat="46.48559" lon="5.39297">
        <ele>436</ele>
        <time>2021-03-10T15:57:44.000Z</time>
      </trkpt>
      <trkpt lat="46.48573" lon="5.39295">
        <ele>434.60000610352</ele>
        <time>2021-03-10T15:57:45.000Z</time>
      </trkpt>
      <trkpt lat="46.48587" lon="5.39293">
        <ele>433.39999389648</ele>
        <time>2021-03-10T15:57:46.000Z</time>
      </trkpt>
      <trkpt lat="46.48602" lon="5.3929">
        <ele>432.39999389648</ele>
        <time>2021-03-10T15:57:47.000Z</time>
      </trkpt>
      <trkpt lat="46.48616" lon="5.39287">
        <ele>431.39999389648</ele>
        <time>2021-03-10T15:57:48.000Z</time>
      </trkpt>
      <trkpt lat="46.4863" lon="5.39285">
        <ele>430.20001220703</ele>
        <time>2021-03-10T15:57:49.000Z</time>
      </trkpt>
      <trkpt lat="46.48643" lon="5.39284">
        <ele>429</ele>
        <time>2021-03-10T15:57:50.000Z</time>
      </trkpt>
      <trkpt lat="46.48656" lon="5.39284">
        <ele>428</ele>
        <time>2021-03-10T15:57:51.000Z</time>
      </trkpt>
      <trkpt lat="46.48669" lon="5.39286">
        <ele>426.79998779297</ele>
        <time>2021-03-10T15:57:52.000Z</time>
      </trkpt>
      <trkpt lat="46.48681" lon="5.3929">
        <ele>425.79998779297</ele>
        <time>2021-03-10T15:57:53.000Z</time>
      </trkpt>
      <trkpt lat="46.48691" lon="5.39295">
        <ele>424.60000610352</ele>
        <time>2021-03-10T15:57:54.000Z</time>
      </trkpt>
      <trkpt lat="46.48701" lon="5.39301">
        <ele>423.20001220703</ele>
        <time>2021-03-10T15:57:55.000Z</time>
      </trkpt>
      <trkpt lat="46.4871" lon="5.39307">
        <ele>422.39999389648</ele>
        <time>2021-03-10T15:57:56.000Z</time>
      </trkpt>
      <trkpt lat="46.48718" lon="5.39311">
        <ele>421.60000610352</ele>
        <time>2021-03-10T15:57:57.000Z</time>
      </trkpt>
      <trkpt lat="46.48725" lon="5.39311">
        <ele>421</ele>
        <time>2021-03-10T15:57:58.000Z</time>
      </trkpt>
      <trkpt lat="46.4873" lon="5.39308">
        <ele>420.60000610352</ele>
        <time>2021-03-10T15:57:59.000Z</time>
      </trkpt>
      <trkpt lat="46.48733" lon="5.393">
        <ele>419.79998779297</ele>
        <time>2021-03-10T15:58:00.000Z</time>
      </trkpt>
      <trkpt lat="46.48732" lon="5.39291">
        <ele>419.20001220703</ele>
        <time>2021-03-10T15:58:01.000Z</time>
      </trkpt>
      <trkpt lat="46.48729" lon="5.39282">
        <ele>418.39999389648</ele>
        <time>2021-03-10T15:58:02.000Z</time>
      </trkpt>
      <trkpt lat="46.48723" lon="5.39271">
        <ele>417.79998779297</ele>
        <time>2021-03-10T15:58:03.000Z</time>
      </trkpt>
      <trkpt lat="46.48714" lon="5.39259">
        <ele>417.60000610352</ele>
        <time>2021-03-10T15:58:04.000Z</time>
      </trkpt>
      <trkpt lat="46.48705" lon="5.39247">
        <ele>417.39999389648</ele>
        <time>2021-03-10T15:58:05.000Z</time>
      </trkpt>
      <trkpt lat="46.48696" lon="5.39234">
        <ele>417.20001220703</ele>
        <time>2021-03-10T15:58:06.000Z</time>
      </trkpt>
      <trkpt lat="46.48686" lon="5.39221">
        <ele>416.20001220703</ele>
        <time>2021-03-10T15:58:07.000Z</time>
      </trkpt>
      <trkpt lat="46.48677" lon="5.39207">
        <ele>415</ele>
        <time>2021-03-10T15:58:08.000Z</time>
      </trkpt>
      <trkpt lat="46.48668" lon="5.39193">
        <ele>413.60000610352</ele>
        <time>2021-03-10T15:58:09.000Z</time>
      </trkpt>
      <trkpt lat="46.48659" lon="5.39179">
        <ele>412.20001220703</ele>
        <time>2021-03-10T15:58:10.000Z</time>
      </trkpt>
      <trkpt lat="46.48649" lon="5.39165">
        <ele>410.79998779297</ele>
        <time>2021-03-10T15:58:11.000Z</time>
      </trkpt>
      <trkpt lat="46.48638" lon="5.39152">
        <ele>409.60000610352</ele>
        <time>2021-03-10T15:58:12.000Z</time>
      </trkpt>
      <trkpt lat="46.48626" lon="5.3914">
        <ele>407.79998779297</ele>
        <time>2021-03-10T15:58:13.000Z</time>
      </trkpt>
      <trkpt lat="46.48614" lon="5.3913">
        <ele>406.39999389648</ele>
        <time>2021-03-10T15:58:14.000Z</time>
      </trkpt>
      <trkpt lat="46.48601" lon="5.3912">
        <ele>405</ele>
        <time>2021-03-10T15:58:15.000Z</time>
      </trkpt>
      <trkpt lat="46.48588" lon="5.39111">
        <ele>403.60000610352</ele>
        <time>2021-03-10T15:58:16.000Z</time>
      </trkpt>
      <trkpt lat="46.48576" lon="5.39101">
        <ele>402.39999389648</ele>
        <time>2021-03-10T15:58:17.000Z</time>
      </trkpt>
      <trkpt lat="46.48563" lon="5.39092">
        <ele>401.60000610352</ele>
        <time>2021-03-10T15:58:18.000Z</time>
      </trkpt>
      <trkpt lat="46.4855" lon="5.39083">
        <ele>400.39999389648</ele>
        <time>2021-03-10T15:58:19.000Z</time>
      </trkpt>
      <trkpt lat="46.48536" lon="5.39075">
        <ele>398.79998779297</ele>
        <time>2021-03-10T15:58:20.000Z</time>
      </trkpt>
      <trkpt lat="46.48523" lon="5.39066">
        <ele>397.79998779297</ele>
        <time>2021-03-10T15:58:21.000Z</time>
      </trkpt>
      <trkpt lat="46.48511" lon="5.39054">
        <ele>396.39999389648</ele>
        <time>2021-03-10T15:58:22.000Z</time>
      </trkpt>
      <trkpt lat="46.48502" lon="5.39039">
        <ele>394.79998779297</ele>
        <time>2021-03-10T15:58:23.000Z</time>
      </trkpt>
      <trkpt lat="46.48495" lon="5.3902">
        <ele>393.60000610352</ele>
        <time>2021-03-10T15:58:24.000Z</time>
      </trkpt>
      <trkpt lat="46.4849" lon="5.39">
        <ele>392.39999389648</ele>
        <time>2021-03-10T15:58:25.000Z</time>
      </trkpt>
      <trkpt lat="46.48485" lon="5.38981">
        <ele>391</ele>
        <time>2021-03-10T15:58:26.000Z</time>
      </trkpt>
      <trkpt lat="46.48478" lon="5.38963">
        <ele>390</ele>
        <time>2021-03-10T15:58:27.000Z</time>
      </trkpt>
      <trkpt lat="46.4847" lon="5.38947">
        <ele>388.79998779297</ele>
        <time>2021-03-10T15:58:28.000Z</time>
      </trkpt>
      <trkpt lat="46.48462" lon="5.38932">
        <ele>387.39999389648</ele>
        <time>2021-03-10T15:58:29.000Z</time>
      </trkpt>
      <trkpt lat="46.48455" lon="5.38918">
        <ele>386.79998779297</ele>
        <time>2021-03-10T15:58:30.000Z</time>
      </trkpt>
      <trkpt lat="46.48451" lon="5.38904">
        <ele>385.39999389648</ele>
        <time>2021-03-10T15:58:31.000Z</time>
      </trkpt>
      <trkpt lat="46.4845" lon="5.38889">
        <ele>383.39999389648</ele>
        <time>2021-03-10T15:58:32.000Z</time>
      </trkpt>
      <trkpt lat="46.48453" lon="5.38875">
        <ele>382.39999389648</ele>
        <time>2021-03-10T15:58:33.000Z</time>
      </trkpt>
      <trkpt lat="46.4846" lon="5.38862">
        <ele>381.20001220703</ele>
        <time>2021-03-10T15:58:34.000Z</time>
      </trkpt>
      <trkpt lat="46.48468" lon="5.38852">
        <ele>381</ele>
        <time>2021-03-10T15:58:35.000Z</time>
      </trkpt>
      <trkpt lat="46.48478" lon="5.38845">
        <ele>380.60000610352</ele>
        <time>2021-03-10T15:58:36.000Z</time>
      </trkpt>
      <trkpt lat="46.48488" lon="5.38838">
        <ele>380.20001220703</ele>
        <time>2021-03-10T15:58:37.000Z</time>
      </trkpt>
      <trkpt lat="46.48498" lon="5.38832">
        <ele>379.79998779297</ele>
        <time>2021-03-10T15:58:38.000Z</time>
      </trkpt>
      <trkpt lat="46.48519" lon="5.38818">
        <ele>379.20001220703</ele>
        <time>2021-03-10T15:58:40.000Z</time>
      </trkpt>
      <trkpt lat="46.4853" lon="5.38812">
        <ele>379.20001220703</ele>
        <time>2021-03-10T15:58:41.000Z</time>
      </trkpt>
      <trkpt lat="46.48541" lon="5.38804">
        <ele>378.79998779297</ele>
        <time>2021-03-10T15:58:42.000Z</time>
      </trkpt>
      <trkpt lat="46.48562" lon="5.38789">
        <ele>377.60000610352</ele>
        <time>2021-03-10T15:58:44.000Z</time>
      </trkpt>
      <trkpt lat="46.48572" lon="5.38783">
        <ele>377</ele>
        <time>2021-03-10T15:58:45.000Z</time>
      </trkpt>
      <trkpt lat="46.48581" lon="5.38779">
        <ele>376.39999389648</ele>
        <time>2021-03-10T15:58:46.000Z</time>
      </trkpt>
      <trkpt lat="46.4859" lon="5.38779">
        <ele>375.60000610352</ele>
        <time>2021-03-10T15:58:47.000Z</time>
      </trkpt>
      <trkpt lat="46.48597" lon="5.38781">
        <ele>374.79998779297</ele>
        <time>2021-03-10T15:58:48.000Z</time>
      </trkpt>
      <trkpt lat="46.48611" lon="5.38778">
        <ele>373.20001220703</ele>
        <time>2021-03-10T15:58:50.000Z</time>
      </trkpt>
      <trkpt lat="46.48623" lon="5.3876">
        <ele>371.79998779297</ele>
        <time>2021-03-10T15:58:52.000Z</time>
      </trkpt>
      <trkpt lat="46.48633" lon="5.38733">
        <ele>370.39999389648</ele>
        <time>2021-03-10T15:58:54.000Z</time>
      </trkpt>
      <trkpt lat="46.48636" lon="5.38718">
        <ele>369.79998779297</ele>
        <time>2021-03-10T15:58:55.000Z</time>
      </trkpt>
      <trkpt lat="46.48639" lon="5.38702">
        <ele>369.39999389648</ele>
        <time>2021-03-10T15:58:56.000Z</time>
      </trkpt>
      <trkpt lat="46.48639" lon="5.38668">
        <ele>368.60000610352</ele>
        <time>2021-03-10T15:58:58.000Z</time>
      </trkpt>
      <trkpt lat="46.48637" lon="5.38652">
        <ele>367.79998779297</ele>
        <time>2021-03-10T15:58:59.000Z</time>
      </trkpt>
      <trkpt lat="46.48634" lon="5.38635">
        <ele>366.79998779297</ele>
        <time>2021-03-10T15:59:00.000Z</time>
      </trkpt>
      <trkpt lat="46.4863" lon="5.38619">
        <ele>365.79998779297</ele>
        <time>2021-03-10T15:59:01.000Z</time>
      </trkpt>
      <trkpt lat="46.48626" lon="5.38603">
        <ele>364.20001220703</ele>
        <time>2021-03-10T15:59:02.000Z</time>
      </trkpt>
      <trkpt lat="46.48622" lon="5.38587">
        <ele>363.20001220703</ele>
        <time>2021-03-10T15:59:03.000Z</time>
      </trkpt>
      <trkpt lat="46.48618" lon="5.38571">
        <ele>362</ele>
        <time>2021-03-10T15:59:04.000Z</time>
      </trkpt>
      <trkpt lat="46.48613" lon="5.38554">
        <ele>361</ele>
        <time>2021-03-10T15:59:05.000Z</time>
      </trkpt>
      <trkpt lat="46.48609" lon="5.38538">
        <ele>359.79998779297</ele>
        <time>2021-03-10T15:59:06.000Z</time>
      </trkpt>
      <trkpt lat="46.486" lon="5.38506">
        <ele>358</ele>
        <time>2021-03-10T15:59:08.000Z</time>
      </trkpt>
    </trkseg>
  </trk>
</gpx>